<?xml version='1.0' encoding='UTF-8'?><gpx version="1.1" creator="JPX - https://github.com/jenetics/jpx" xmlns="http://www.topografix.com/GPX/1/1"><trk><trkseg><trkpt lat="43.0797522" lon="13.2741329"><ele>472.99999999999994</ele><time>2026-04-26T07:09:41.951Z</time></trkpt><trkpt lat="43.0796807" lon="13.274188"><ele>473.0</ele><time>2026-04-26T07:09:43.952Z</time></trkpt><trkpt lat="43.0795949" lon="13.274213"><ele>473.0</ele><time>2026-04-26T07:09:45.95Z</time></trkpt><trkpt lat="43.0795285" lon="13.2742146"><ele>473.0</ele><time>2026-04-26T07:09:47.951Z</time></trkpt><trkpt lat="43.079449" lon="13.2741312"><ele>472.99999999999994</ele><time>2026-04-26T07:09:55.96Z</time></trkpt><trkpt lat="43.0794375" lon="13.2740375"><ele>473.0</ele><time>2026-04-26T07:09:56.95Z</time></trkpt><trkpt lat="43.0794234" lon="13.273925"><ele>473.5</ele><time>2026-04-26T07:09:57.949Z</time></trkpt><trkpt lat="43.0794082" lon="13.2737943"><ele>474.0</ele><time>2026-04-26T07:09:58.95Z</time></trkpt><trkpt lat="43.0793914" lon="13.2736376"><ele>474.5</ele><time>2026-04-26T07:09:59.95Z</time></trkpt><trkpt lat="43.0793727" lon="13.2734629"><ele>475.0</ele><time>2026-04-26T07:10:00.95Z</time></trkpt><trkpt lat="43.0793518" lon="13.2732711"><ele>475.6666666666667</ele><time>2026-04-26T07:10:01.95Z</time></trkpt><trkpt lat="43.0793294" lon="13.2730693"><ele>476.33333333333337</ele><time>2026-04-26T07:10:02.955Z</time></trkpt><trkpt lat="43.0793036" lon="13.2728571"><ele>477.0</ele><time>2026-04-26T07:10:03.947Z</time></trkpt><trkpt lat="43.0792755" lon="13.2726378"><ele>477.0</ele><time>2026-04-26T07:10:04.951Z</time></trkpt><trkpt lat="43.0792465" lon="13.2724135"><ele>477.0</ele><time>2026-04-26T07:10:05.952Z</time></trkpt><trkpt lat="43.0792111" lon="13.2721879"><ele>477.0</ele><time>2026-04-26T07:10:06.954Z</time></trkpt><trkpt lat="43.0791569" lon="13.2719657"><ele>477.0</ele><time>2026-04-26T07:10:07.95Z</time></trkpt><trkpt lat="43.0790721" lon="13.2717468"><ele>477.0</ele><time>2026-04-26T07:10:08.958Z</time></trkpt><trkpt lat="43.0789623" lon="13.2715255"><ele>477.0</ele><time>2026-04-26T07:10:09.95Z</time></trkpt><trkpt lat="43.078844" lon="13.2712938"><ele>477.66666666666663</ele><time>2026-04-26T07:10:10.983Z</time></trkpt><trkpt lat="43.0787237" lon="13.2710482"><ele>478.3333333333333</ele><time>2026-04-26T07:10:11.954Z</time></trkpt><trkpt lat="43.0786036" lon="13.2707908"><ele>479.0</ele><time>2026-04-26T07:10:12.952Z</time></trkpt><trkpt lat="43.0784852" lon="13.2705313"><ele>479.0</ele><time>2026-04-26T07:10:13.951Z</time></trkpt><trkpt lat="43.078368" lon="13.2702685"><ele>479.0</ele><time>2026-04-26T07:10:14.955Z</time></trkpt><trkpt lat="43.0782422" lon="13.2700009"><ele>479.66666666666663</ele><time>2026-04-26T07:10:15.955Z</time></trkpt><trkpt lat="43.0781184" lon="13.26975"><ele>480.33333333333337</ele><time>2026-04-26T07:10:16.954Z</time></trkpt><trkpt lat="43.0779897" lon="13.2694919"><ele>481.0</ele><time>2026-04-26T07:10:17.972Z</time></trkpt><trkpt lat="43.0778611" lon="13.269235"><ele>481.0</ele><time>2026-04-26T07:10:18.955Z</time></trkpt><trkpt lat="43.0777354" lon="13.2689755"><ele>481.0</ele><time>2026-04-26T07:10:19.951Z</time></trkpt><trkpt lat="43.0776114" lon="13.2687152"><ele>481.0</ele><time>2026-04-26T07:10:20.951Z</time></trkpt><trkpt lat="43.0774962" lon="13.2684452"><ele>481.0</ele><time>2026-04-26T07:10:21.95Z</time></trkpt><trkpt lat="43.0773995" lon="13.268163"><ele>482.5</ele><time>2026-04-26T07:10:22.957Z</time></trkpt><trkpt lat="43.0773152" lon="13.2678732"><ele>484.0</ele><time>2026-04-26T07:10:23.949Z</time></trkpt><trkpt lat="43.0772347" lon="13.2675813"><ele>484.0</ele><time>2026-04-26T07:10:24.955Z</time></trkpt><trkpt lat="43.0771534" lon="13.2672882"><ele>484.0</ele><time>2026-04-26T07:10:25.958Z</time></trkpt><trkpt lat="43.077073" lon="13.2669981"><ele>485.0</ele><time>2026-04-26T07:10:26.953Z</time></trkpt><trkpt lat="43.0769926" lon="13.266707"><ele>486.0</ele><time>2026-04-26T07:10:27.958Z</time></trkpt><trkpt lat="43.0769132" lon="13.2664139"><ele>487.0</ele><time>2026-04-26T07:10:28.958Z</time></trkpt><trkpt lat="43.0768358" lon="13.2661199"><ele>488.0</ele><time>2026-04-26T07:10:29.954Z</time></trkpt><trkpt lat="43.0767559" lon="13.2658267"><ele>488.5</ele><time>2026-04-26T07:10:30.953Z</time></trkpt><trkpt lat="43.0766752" lon="13.2655347"><ele>489.0</ele><time>2026-04-26T07:10:31.955Z</time></trkpt><trkpt lat="43.0765972" lon="13.265242"><ele>489.0</ele><time>2026-04-26T07:10:32.95Z</time></trkpt><trkpt lat="43.0765215" lon="13.2649507"><ele>489.0</ele><time>2026-04-26T07:10:33.958Z</time></trkpt><trkpt lat="43.0764459" lon="13.2646618"><ele>489.0</ele><time>2026-04-26T07:10:34.956Z</time></trkpt><trkpt lat="43.0763696" lon="13.2643741"><ele>489.0</ele><time>2026-04-26T07:10:35.954Z</time></trkpt><trkpt lat="43.0762907" lon="13.264088"><ele>489.0</ele><time>2026-04-26T07:10:36.961Z</time></trkpt><trkpt lat="43.0762114" lon="13.2638024"><ele>490.0</ele><time>2026-04-26T07:10:37.949Z</time></trkpt><trkpt lat="43.0761367" lon="13.2635216"><ele>491.0</ele><time>2026-04-26T07:10:38.954Z</time></trkpt><trkpt lat="43.0760781" lon="13.2632528"><ele>492.0</ele><time>2026-04-26T07:10:39.947Z</time></trkpt><trkpt lat="43.0760496" lon="13.262985"><ele>494.66666666666663</ele><time>2026-04-26T07:10:40.953Z</time></trkpt><trkpt lat="43.0760696" lon="13.2627136"><ele>497.3333333333333</ele><time>2026-04-26T07:10:41.953Z</time></trkpt><trkpt lat="43.0761434" lon="13.2624539"><ele>500.0</ele><time>2026-04-26T07:10:42.951Z</time></trkpt><trkpt lat="43.0762489" lon="13.2622067"><ele>504.0</ele><time>2026-04-26T07:10:43.955Z</time></trkpt><trkpt lat="43.0763518" lon="13.2619503"><ele>508.0</ele><time>2026-04-26T07:10:44.954Z</time></trkpt><trkpt lat="43.0764285" lon="13.2616703"><ele>512.0</ele><time>2026-04-26T07:10:45.955Z</time></trkpt><trkpt lat="43.0764802" lon="13.2613779"><ele>516.0</ele><time>2026-04-26T07:10:46.962Z</time></trkpt><trkpt lat="43.0765204" lon="13.2610976"><ele>520.0</ele><time>2026-04-26T07:10:47.955Z</time></trkpt><trkpt lat="43.0765608" lon="13.2608476"><ele>524.0</ele><time>2026-04-26T07:10:48.954Z</time></trkpt><trkpt lat="43.0766014" lon="13.2606263"><ele>518.75</ele><time>2026-04-26T07:10:49.95Z</time></trkpt><trkpt lat="43.0766354" lon="13.2604316"><ele>513.5</ele><time>2026-04-26T07:10:50.948Z</time></trkpt><trkpt lat="43.0766649" lon="13.2602628"><ele>508.25</ele><time>2026-04-26T07:10:51.953Z</time></trkpt><trkpt lat="43.0766308" lon="13.2601151"><ele>503.0</ele><time>2026-04-26T07:10:52.954Z</time></trkpt><trkpt lat="43.0765386" lon="13.260002"><ele>503.0</ele><time>2026-04-26T07:10:53.956Z</time></trkpt><trkpt lat="43.0763914" lon="13.2599207"><ele>503.0</ele><time>2026-04-26T07:10:54.953Z</time></trkpt><trkpt lat="43.076231" lon="13.2598591"><ele>503.0</ele><time>2026-04-26T07:10:55.951Z</time></trkpt><trkpt lat="43.0760589" lon="13.2597967"><ele>501.3333333333333</ele><time>2026-04-26T07:10:56.956Z</time></trkpt><trkpt lat="43.0758796" lon="13.2597422"><ele>499.66666666666663</ele><time>2026-04-26T07:10:57.947Z</time></trkpt><trkpt lat="43.0756913" lon="13.2596934"><ele>498.0</ele><time>2026-04-26T07:10:58.947Z</time></trkpt><trkpt lat="43.075503" lon="13.2596504"><ele>498.0</ele><time>2026-04-26T07:10:59.947Z</time></trkpt><trkpt lat="43.0753302" lon="13.2596257"><ele>498.0</ele><time>2026-04-26T07:11:00.954Z</time></trkpt><trkpt lat="43.0751675" lon="13.2596165"><ele>498.0</ele><time>2026-04-26T07:11:01.948Z</time></trkpt><trkpt lat="43.0750295" lon="13.259563"><ele>502.25</ele><time>2026-04-26T07:11:02.949Z</time></trkpt><trkpt lat="43.0749042" lon="13.2595186"><ele>506.5</ele><time>2026-04-26T07:11:03.947Z</time></trkpt><trkpt lat="43.0748357" lon="13.2593585"><ele>510.75</ele><time>2026-04-26T07:11:04.954Z</time></trkpt><trkpt lat="43.0748193" lon="13.2591817"><ele>515.0</ele><time>2026-04-26T07:11:05.948Z</time></trkpt><trkpt lat="43.0748091" lon="13.2590127"><ele>520.6666666666666</ele><time>2026-04-26T07:11:06.967Z</time></trkpt><trkpt lat="43.0749298" lon="13.2588649"><ele>526.3333333333334</ele><time>2026-04-26T07:11:07.945Z</time></trkpt><trkpt lat="43.075088" lon="13.2587937"><ele>532.0</ele><time>2026-04-26T07:11:08.944Z</time></trkpt><trkpt lat="43.0752689" lon="13.2587378"><ele>532.0</ele><time>2026-04-26T07:11:09.947Z</time></trkpt><trkpt lat="43.0754424" lon="13.2586697"><ele>532.0</ele><time>2026-04-26T07:11:10.949Z</time></trkpt><trkpt lat="43.0756298" lon="13.2585956"><ele>532.0</ele><time>2026-04-26T07:11:11.949Z</time></trkpt><trkpt lat="43.0758173" lon="13.2585164"><ele>527.6666666666667</ele><time>2026-04-26T07:11:12.952Z</time></trkpt><trkpt lat="43.0760115" lon="13.2584627"><ele>523.3333333333334</ele><time>2026-04-26T07:11:13.955Z</time></trkpt><trkpt lat="43.0761941" lon="13.2584345"><ele>519.0</ele><time>2026-04-26T07:11:14.952Z</time></trkpt><trkpt lat="43.0763635" lon="13.2584211"><ele>519.0</ele><time>2026-04-26T07:11:15.949Z</time></trkpt><trkpt lat="43.0765193" lon="13.2584058"><ele>519.0</ele><time>2026-04-26T07:11:16.95Z</time></trkpt><trkpt lat="43.0766462" lon="13.2583548"><ele>519.0</ele><time>2026-04-26T07:11:17.955Z</time></trkpt><trkpt lat="43.0767651" lon="13.2582369"><ele>519.0</ele><time>2026-04-26T07:11:18.953Z</time></trkpt><trkpt lat="43.0768231" lon="13.2580369"><ele>515.0</ele><time>2026-04-26T07:11:19.957Z</time></trkpt><trkpt lat="43.0768592" lon="13.2578185"><ele>511.0</ele><time>2026-04-26T07:11:20.95Z</time></trkpt><trkpt lat="43.076894" lon="13.257602"><ele>507.0</ele><time>2026-04-26T07:11:21.954Z</time></trkpt><trkpt lat="43.0769183" lon="13.2573932"><ele>498.66666666666663</ele><time>2026-04-26T07:11:22.953Z</time></trkpt><trkpt lat="43.0768705" lon="13.2571927"><ele>490.3333333333333</ele><time>2026-04-26T07:11:23.95Z</time></trkpt><trkpt lat="43.0767781" lon="13.2570353"><ele>482.0</ele><time>2026-04-26T07:11:24.959Z</time></trkpt><trkpt lat="43.0766509" lon="13.2569055"><ele>493.3333333333333</ele><time>2026-04-26T07:11:25.954Z</time></trkpt><trkpt lat="43.0765151" lon="13.2567679"><ele>504.66666666666663</ele><time>2026-04-26T07:11:26.954Z</time></trkpt><trkpt lat="43.0763913" lon="13.2565967"><ele>516.0</ele><time>2026-04-26T07:11:27.952Z</time></trkpt><trkpt lat="43.076281" lon="13.2564062"><ele>516.0</ele><time>2026-04-26T07:11:28.946Z</time></trkpt><trkpt lat="43.0761803" lon="13.2562053"><ele>516.0</ele><time>2026-04-26T07:11:29.948Z</time></trkpt><trkpt lat="43.0760846" lon="13.255994"><ele>516.0</ele><time>2026-04-26T07:11:30.949Z</time></trkpt><trkpt lat="43.0759845" lon="13.2557859"><ele>521.3333333333334</ele><time>2026-04-26T07:11:31.95Z</time></trkpt><trkpt lat="43.0758659" lon="13.2555951"><ele>526.6666666666667</ele><time>2026-04-26T07:11:32.947Z</time></trkpt><trkpt lat="43.0757328" lon="13.2554235"><ele>532.0</ele><time>2026-04-26T07:11:33.949Z</time></trkpt><trkpt lat="43.0755967" lon="13.2552561"><ele>532.0</ele><time>2026-04-26T07:11:34.955Z</time></trkpt><trkpt lat="43.0754407" lon="13.2551268"><ele>532.0</ele><time>2026-04-26T07:11:35.945Z</time></trkpt><trkpt lat="43.0752733" lon="13.2550032"><ele>532.0</ele><time>2026-04-26T07:11:36.949Z</time></trkpt><trkpt lat="43.0751267" lon="13.2548501"><ele>531.0</ele><time>2026-04-26T07:11:37.948Z</time></trkpt><trkpt lat="43.0749851" lon="13.2547039"><ele>530.0</ele><time>2026-04-26T07:11:38.952Z</time></trkpt><trkpt lat="43.0748347" lon="13.2545739"><ele>529.0</ele><time>2026-04-26T07:11:39.946Z</time></trkpt><trkpt lat="43.0746748" lon="13.2544965"><ele>529.0</ele><time>2026-04-26T07:11:40.943Z</time></trkpt><trkpt lat="43.074503" lon="13.2544751"><ele>529.0</ele><time>2026-04-26T07:11:41.947Z</time></trkpt><trkpt lat="43.0743495" lon="13.2544384"><ele>529.0</ele><time>2026-04-26T07:11:42.945Z</time></trkpt><trkpt lat="43.0742301" lon="13.2543538"><ele>529.0</ele><time>2026-04-26T07:11:43.943Z</time></trkpt><trkpt lat="43.0741582" lon="13.2542216"><ele>529.0</ele><time>2026-04-26T07:11:44.947Z</time></trkpt><trkpt lat="43.0741455" lon="13.2540535"><ele>529.0</ele><time>2026-04-26T07:11:45.951Z</time></trkpt><trkpt lat="43.0741856" lon="13.2538653"><ele>529.0</ele><time>2026-04-26T07:11:46.945Z</time></trkpt><trkpt lat="43.074232" lon="13.2536588"><ele>528.0</ele><time>2026-04-26T07:11:47.948Z</time></trkpt><trkpt lat="43.0743007" lon="13.2534374"><ele>527.0</ele><time>2026-04-26T07:11:48.946Z</time></trkpt><trkpt lat="43.0743594" lon="13.2531981"><ele>526.0</ele><time>2026-04-26T07:11:49.948Z</time></trkpt><trkpt lat="43.0743771" lon="13.2529439"><ele>525.6666666666667</ele><time>2026-04-26T07:11:50.952Z</time></trkpt><trkpt lat="43.0743571" lon="13.2526772"><ele>525.3333333333334</ele><time>2026-04-26T07:11:51.945Z</time></trkpt><trkpt lat="43.0743104" lon="13.2524132"><ele>525.0</ele><time>2026-04-26T07:11:52.95Z</time></trkpt><trkpt lat="43.0742578" lon="13.2521452"><ele>523.3333333333334</ele><time>2026-04-26T07:11:53.95Z</time></trkpt><trkpt lat="43.0741935" lon="13.2518731"><ele>521.6666666666667</ele><time>2026-04-26T07:11:54.95Z</time></trkpt><trkpt lat="43.0741098" lon="13.2516075"><ele>520.0</ele><time>2026-04-26T07:11:55.946Z</time></trkpt><trkpt lat="43.0740146" lon="13.2513488"><ele>524.6666666666667</ele><time>2026-04-26T07:11:56.949Z</time></trkpt><trkpt lat="43.073918" lon="13.2510901"><ele>529.3333333333334</ele><time>2026-04-26T07:11:57.949Z</time></trkpt><trkpt lat="43.0738239" lon="13.2508337"><ele>534.0</ele><time>2026-04-26T07:11:58.949Z</time></trkpt><trkpt lat="43.0737414" lon="13.2505928"><ele>534.0</ele><time>2026-04-26T07:11:59.951Z</time></trkpt><trkpt lat="43.0736583" lon="13.2503703"><ele>534.0</ele><time>2026-04-26T07:12:00.946Z</time></trkpt><trkpt lat="43.0735642" lon="13.2501584"><ele>534.0</ele><time>2026-04-26T07:12:01.948Z</time></trkpt><trkpt lat="43.073459" lon="13.2499486"><ele>539.0</ele><time>2026-04-26T07:12:02.947Z</time></trkpt><trkpt lat="43.0733399" lon="13.2497486"><ele>544.0</ele><time>2026-04-26T07:12:03.956Z</time></trkpt><trkpt lat="43.0732024" lon="13.2495584"><ele>549.0</ele><time>2026-04-26T07:12:04.948Z</time></trkpt><trkpt lat="43.073058" lon="13.2493673"><ele>549.0</ele><time>2026-04-26T07:12:05.953Z</time></trkpt><trkpt lat="43.0729136" lon="13.249168"><ele>549.0</ele><time>2026-04-26T07:12:06.951Z</time></trkpt><trkpt lat="43.0727677" lon="13.2489678"><ele>549.0</ele><time>2026-04-26T07:12:07.948Z</time></trkpt><trkpt lat="43.0726181" lon="13.2487692"><ele>545.0</ele><time>2026-04-26T07:12:08.947Z</time></trkpt><trkpt lat="43.0724592" lon="13.2485843"><ele>541.0</ele><time>2026-04-26T07:12:09.949Z</time></trkpt><trkpt lat="43.0722883" lon="13.2484224"><ele>537.0</ele><time>2026-04-26T07:12:10.947Z</time></trkpt><trkpt lat="43.0721066" lon="13.2482847"><ele>537.0</ele><time>2026-04-26T07:12:11.952Z</time></trkpt><trkpt lat="43.0719152" lon="13.2481801"><ele>537.0</ele><time>2026-04-26T07:12:12.945Z</time></trkpt><trkpt lat="43.0717141" lon="13.2481117"><ele>537.0</ele><time>2026-04-26T07:12:13.95Z</time></trkpt><trkpt lat="43.0715106" lon="13.2480676"><ele>532.3333333333334</ele><time>2026-04-26T07:12:14.949Z</time></trkpt><trkpt lat="43.0713143" lon="13.2480251"><ele>527.6666666666667</ele><time>2026-04-26T07:12:15.95Z</time></trkpt><trkpt lat="43.0711223" lon="13.2479581"><ele>523.0</ele><time>2026-04-26T07:12:16.95Z</time></trkpt><trkpt lat="43.0709363" lon="13.2478591"><ele>533.6666666666667</ele><time>2026-04-26T07:12:17.95Z</time></trkpt><trkpt lat="43.0707591" lon="13.2477335"><ele>544.3333333333334</ele><time>2026-04-26T07:12:18.953Z</time></trkpt><trkpt lat="43.0705957" lon="13.2475738"><ele>555.0</ele><time>2026-04-26T07:12:19.951Z</time></trkpt><trkpt lat="43.0704507" lon="13.247386"><ele>545.0</ele><time>2026-04-26T07:12:20.951Z</time></trkpt><trkpt lat="43.0703133" lon="13.2471872"><ele>535.0</ele><time>2026-04-26T07:12:21.946Z</time></trkpt><trkpt lat="43.0701793" lon="13.2469922"><ele>525.0</ele><time>2026-04-26T07:12:22.95Z</time></trkpt><trkpt lat="43.0700439" lon="13.2468104"><ele>526.0</ele><time>2026-04-26T07:12:23.949Z</time></trkpt><trkpt lat="43.0698947" lon="13.246647"><ele>527.0</ele><time>2026-04-26T07:12:24.945Z</time></trkpt><trkpt lat="43.0697341" lon="13.2464995"><ele>528.0</ele><time>2026-04-26T07:12:25.95Z</time></trkpt><trkpt lat="43.0695712" lon="13.2463506"><ele>528.0</ele><time>2026-04-26T07:12:26.952Z</time></trkpt><trkpt lat="43.0694227" lon="13.2461752"><ele>528.0</ele><time>2026-04-26T07:12:27.947Z</time></trkpt><trkpt lat="43.0692942" lon="13.2459695"><ele>528.0</ele><time>2026-04-26T07:12:28.949Z</time></trkpt><trkpt lat="43.0691675" lon="13.2457621"><ele>528.6666666666666</ele><time>2026-04-26T07:12:29.945Z</time></trkpt><trkpt lat="43.0690482" lon="13.2455704"><ele>529.3333333333333</ele><time>2026-04-26T07:12:30.947Z</time></trkpt><trkpt lat="43.0689119" lon="13.2454113"><ele>530.0</ele><time>2026-04-26T07:12:31.946Z</time></trkpt><trkpt lat="43.0687879" lon="13.2452496"><ele>530.0</ele><time>2026-04-26T07:12:32.946Z</time></trkpt><trkpt lat="43.0686565" lon="13.2450781"><ele>530.0</ele><time>2026-04-26T07:12:33.949Z</time></trkpt><trkpt lat="43.0685199" lon="13.2449051"><ele>530.0</ele><time>2026-04-26T07:12:34.943Z</time></trkpt><trkpt lat="43.0683693" lon="13.24475"><ele>524.3333333333333</ele><time>2026-04-26T07:12:35.95Z</time></trkpt><trkpt lat="43.0681994" lon="13.2446266"><ele>518.6666666666666</ele><time>2026-04-26T07:12:36.949Z</time></trkpt><trkpt lat="43.0680088" lon="13.244541"><ele>513.0</ele><time>2026-04-26T07:12:37.953Z</time></trkpt><trkpt lat="43.0678103" lon="13.2444994"><ele>513.0</ele><time>2026-04-26T07:12:38.95Z</time></trkpt><trkpt lat="43.0676028" lon="13.2444997"><ele>513.0</ele><time>2026-04-26T07:12:39.948Z</time></trkpt><trkpt lat="43.0674012" lon="13.2444903"><ele>513.0</ele><time>2026-04-26T07:12:40.949Z</time></trkpt><trkpt lat="43.0672026" lon="13.2444609"><ele>514.0</ele><time>2026-04-26T07:12:41.948Z</time></trkpt><trkpt lat="43.067003" lon="13.2444421"><ele>515.0</ele><time>2026-04-26T07:12:42.947Z</time></trkpt><trkpt lat="43.0668215" lon="13.2444105"><ele>516.0</ele><time>2026-04-26T07:12:43.95Z</time></trkpt><trkpt lat="43.0666611" lon="13.2443503"><ele>517.0</ele><time>2026-04-26T07:12:44.946Z</time></trkpt><trkpt lat="43.0665155" lon="13.2442824"><ele>518.0</ele><time>2026-04-26T07:12:45.95Z</time></trkpt><trkpt lat="43.0663613" lon="13.2442386"><ele>519.0</ele><time>2026-04-26T07:12:46.95Z</time></trkpt><trkpt lat="43.0662092" lon="13.2443007"><ele>519.0</ele><time>2026-04-26T07:12:47.942Z</time></trkpt><trkpt lat="43.0660789" lon="13.2443399"><ele>519.0</ele><time>2026-04-26T07:12:48.951Z</time></trkpt><trkpt lat="43.0659642" lon="13.2443134"><ele>519.0</ele><time>2026-04-26T07:12:49.947Z</time></trkpt><trkpt lat="43.0658876" lon="13.2441998"><ele>519.0</ele><time>2026-04-26T07:12:50.949Z</time></trkpt><trkpt lat="43.0658524" lon="13.2440184"><ele>526.6666666666666</ele><time>2026-04-26T07:12:51.95Z</time></trkpt><trkpt lat="43.0658353" lon="13.2437982"><ele>534.3333333333333</ele><time>2026-04-26T07:12:52.95Z</time></trkpt><trkpt lat="43.0658535" lon="13.2435784"><ele>542.0</ele><time>2026-04-26T07:12:53.948Z</time></trkpt><trkpt lat="43.0659346" lon="13.243373"><ele>542.0</ele><time>2026-04-26T07:12:54.95Z</time></trkpt><trkpt lat="43.0660734" lon="13.2432055"><ele>542.0</ele><time>2026-04-26T07:12:55.942Z</time></trkpt><trkpt lat="43.0662162" lon="13.2430583"><ele>542.0</ele><time>2026-04-26T07:12:56.949Z</time></trkpt><trkpt lat="43.066397" lon="13.2430071"><ele>560.5</ele><time>2026-04-26T07:12:57.952Z</time></trkpt><trkpt lat="43.0666154" lon="13.2430156"><ele>579.0</ele><time>2026-04-26T07:12:58.949Z</time></trkpt><trkpt lat="43.0668544" lon="13.2429886"><ele>579.0</ele><time>2026-04-26T07:12:59.947Z</time></trkpt><trkpt lat="43.0670952" lon="13.2429535"><ele>579.0</ele><time>2026-04-26T07:13:00.949Z</time></trkpt><trkpt lat="43.0673498" lon="13.2429469"><ele>579.5</ele><time>2026-04-26T07:13:01.946Z</time></trkpt><trkpt lat="43.0676117" lon="13.2429478"><ele>580.0</ele><time>2026-04-26T07:13:02.951Z</time></trkpt><trkpt lat="43.0678762" lon="13.2429677"><ele>580.0</ele><time>2026-04-26T07:13:03.948Z</time></trkpt><trkpt lat="43.0681504" lon="13.2429802"><ele>580.0</ele><time>2026-04-26T07:13:04.944Z</time></trkpt><trkpt lat="43.0684072" lon="13.2429692"><ele>581.0</ele><time>2026-04-26T07:13:05.946Z</time></trkpt><trkpt lat="43.06866" lon="13.2429654"><ele>582.0</ele><time>2026-04-26T07:13:06.945Z</time></trkpt><trkpt lat="43.0688856" lon="13.2429989"><ele>582.0</ele><time>2026-04-26T07:13:07.947Z</time></trkpt><trkpt lat="43.0690804" lon="13.2430793"><ele>582.0</ele><time>2026-04-26T07:13:08.944Z</time></trkpt><trkpt lat="43.0692554" lon="13.2431976"><ele>582.0</ele><time>2026-04-26T07:13:09.948Z</time></trkpt><trkpt lat="43.0693666" lon="13.2434078"><ele>572.0</ele><time>2026-04-26T07:13:10.95Z</time></trkpt><trkpt lat="43.0694907" lon="13.2436291"><ele>562.0</ele><time>2026-04-26T07:13:11.95Z</time></trkpt><trkpt lat="43.0696548" lon="13.2438221"><ele>552.0</ele><time>2026-04-26T07:13:12.946Z</time></trkpt><trkpt lat="43.0698496" lon="13.2439849"><ele>555.0</ele><time>2026-04-26T07:13:13.945Z</time></trkpt><trkpt lat="43.0700496" lon="13.2441465"><ele>558.0</ele><time>2026-04-26T07:13:14.953Z</time></trkpt><trkpt lat="43.0702563" lon="13.2442861"><ele>558.0</ele><time>2026-04-26T07:13:15.951Z</time></trkpt><trkpt lat="43.0704402" lon="13.2443733"><ele>558.0</ele><time>2026-04-26T07:13:16.954Z</time></trkpt><trkpt lat="43.07059" lon="13.2444289"><ele>558.0</ele><time>2026-04-26T07:13:17.95Z</time></trkpt><trkpt lat="43.0707175" lon="13.2444194"><ele>558.75</ele><time>2026-04-26T07:13:18.952Z</time></trkpt><trkpt lat="43.0708124" lon="13.2443346"><ele>559.5</ele><time>2026-04-26T07:13:19.95Z</time></trkpt><trkpt lat="43.0708509" lon="13.2441765"><ele>560.25</ele><time>2026-04-26T07:13:20.949Z</time></trkpt><trkpt lat="43.070824" lon="13.2439808"><ele>561.0</ele><time>2026-04-26T07:13:21.954Z</time></trkpt><trkpt lat="43.0707421" lon="13.2437796"><ele>567.0</ele><time>2026-04-26T07:13:22.951Z</time></trkpt><trkpt lat="43.0706252" lon="13.2435798"><ele>573.0</ele><time>2026-04-26T07:13:23.951Z</time></trkpt><trkpt lat="43.070484" lon="13.2433788"><ele>579.0</ele><time>2026-04-26T07:13:24.948Z</time></trkpt><trkpt lat="43.0703292" lon="13.2431686"><ele>575.5</ele><time>2026-04-26T07:13:25.959Z</time></trkpt><trkpt lat="43.0701717" lon="13.2429439"><ele>572.0</ele><time>2026-04-26T07:13:26.951Z</time></trkpt><trkpt lat="43.0700164" lon="13.2427012"><ele>576.5</ele><time>2026-04-26T07:13:27.947Z</time></trkpt><trkpt lat="43.0698668" lon="13.2424647"><ele>581.0</ele><time>2026-04-26T07:13:28.956Z</time></trkpt><trkpt lat="43.0697043" lon="13.2422358"><ele>581.0</ele><time>2026-04-26T07:13:29.95Z</time></trkpt><trkpt lat="43.0695207" lon="13.2420223"><ele>581.0</ele><time>2026-04-26T07:13:30.955Z</time></trkpt><trkpt lat="43.0693189" lon="13.241828"><ele>592.5</ele><time>2026-04-26T07:13:31.956Z</time></trkpt><trkpt lat="43.0691029" lon="13.2416521"><ele>604.0</ele><time>2026-04-26T07:13:32.952Z</time></trkpt><trkpt lat="43.0688747" lon="13.2414921"><ele>587.5</ele><time>2026-04-26T07:13:33.954Z</time></trkpt><trkpt lat="43.0686402" lon="13.2413447"><ele>571.0</ele><time>2026-04-26T07:13:34.949Z</time></trkpt><trkpt lat="43.0684012" lon="13.2412083"><ele>580.0</ele><time>2026-04-26T07:13:35.95Z</time></trkpt><trkpt lat="43.0681563" lon="13.2410885"><ele>589.0</ele><time>2026-04-26T07:13:36.951Z</time></trkpt><trkpt lat="43.0679061" lon="13.240995"><ele>589.0</ele><time>2026-04-26T07:13:37.952Z</time></trkpt><trkpt lat="43.0676519" lon="13.2409255"><ele>589.0</ele><time>2026-04-26T07:13:38.959Z</time></trkpt><trkpt lat="43.0673957" lon="13.2408531"><ele>601.0</ele><time>2026-04-26T07:13:39.95Z</time></trkpt><trkpt lat="43.0671446" lon="13.2407842"><ele>613.0</ele><time>2026-04-26T07:13:40.951Z</time></trkpt><trkpt lat="43.0668997" lon="13.2407193"><ele>613.5</ele><time>2026-04-26T07:13:41.955Z</time></trkpt><trkpt lat="43.0666605" lon="13.240621"><ele>614.0</ele><time>2026-04-26T07:13:42.949Z</time></trkpt><trkpt lat="43.0664408" lon="13.2404762"><ele>614.0</ele><time>2026-04-26T07:13:43.954Z</time></trkpt><trkpt lat="43.0662275" lon="13.2403113"><ele>614.0</ele><time>2026-04-26T07:13:44.952Z</time></trkpt><trkpt lat="43.0660172" lon="13.2401404"><ele>614.0</ele><time>2026-04-26T07:13:45.946Z</time></trkpt><trkpt lat="43.0657986" lon="13.2399862"><ele>614.0</ele><time>2026-04-26T07:13:46.957Z</time></trkpt><trkpt lat="43.0655742" lon="13.2398374"><ele>615.0</ele><time>2026-04-26T07:13:47.949Z</time></trkpt><trkpt lat="43.0653522" lon="13.2396821"><ele>616.0</ele><time>2026-04-26T07:13:48.958Z</time></trkpt><trkpt lat="43.0651317" lon="13.2395169"><ele>631.5</ele><time>2026-04-26T07:13:49.949Z</time></trkpt><trkpt lat="43.0649087" lon="13.2393572"><ele>647.0</ele><time>2026-04-26T07:13:50.946Z</time></trkpt><trkpt lat="43.0646872" lon="13.2392073"><ele>647.0</ele><time>2026-04-26T07:13:51.948Z</time></trkpt><trkpt lat="43.0644804" lon="13.2390659"><ele>647.0</ele><time>2026-04-26T07:13:52.95Z</time></trkpt><trkpt lat="43.0642927" lon="13.2389434"><ele>647.0</ele><time>2026-04-26T07:13:53.947Z</time></trkpt><trkpt lat="43.0641084" lon="13.2388504"><ele>648.0</ele><time>2026-04-26T07:13:54.948Z</time></trkpt><trkpt lat="43.063924" lon="13.2388014"><ele>649.0</ele><time>2026-04-26T07:13:55.947Z</time></trkpt><trkpt lat="43.0637577" lon="13.2387823"><ele>650.0</ele><time>2026-04-26T07:13:56.95Z</time></trkpt><trkpt lat="43.0636116" lon="13.2387691"><ele>650.0</ele><time>2026-04-26T07:13:57.947Z</time></trkpt><trkpt lat="43.0634868" lon="13.2387348"><ele>650.0</ele><time>2026-04-26T07:13:58.947Z</time></trkpt><trkpt lat="43.0633952" lon="13.2386529"><ele>650.0</ele><time>2026-04-26T07:13:59.949Z</time></trkpt><trkpt lat="43.0633503" lon="13.2385213"><ele>650.0</ele><time>2026-04-26T07:14:00.952Z</time></trkpt><trkpt lat="43.0633541" lon="13.2383627"><ele>650.0</ele><time>2026-04-26T07:14:01.948Z</time></trkpt><trkpt lat="43.0633732" lon="13.2381791"><ele>650.0</ele><time>2026-04-26T07:14:02.947Z</time></trkpt><trkpt lat="43.0633719" lon="13.2379742"><ele>650.0</ele><time>2026-04-26T07:14:03.951Z</time></trkpt><trkpt lat="43.0633312" lon="13.2377726"><ele>650.0</ele><time>2026-04-26T07:14:04.95Z</time></trkpt><trkpt lat="43.0632468" lon="13.2375942"><ele>646.3333333333333</ele><time>2026-04-26T07:14:05.959Z</time></trkpt><trkpt lat="43.0631186" lon="13.2374485"><ele>642.6666666666666</ele><time>2026-04-26T07:14:06.951Z</time></trkpt><trkpt lat="43.0629548" lon="13.2373453"><ele>639.0</ele><time>2026-04-26T07:14:07.951Z</time></trkpt><trkpt lat="43.0627714" lon="13.2372757"><ele>639.0</ele><time>2026-04-26T07:14:08.949Z</time></trkpt><trkpt lat="43.0625782" lon="13.2372333"><ele>639.0</ele><time>2026-04-26T07:14:09.951Z</time></trkpt><trkpt lat="43.0623987" lon="13.2372092"><ele>639.0</ele><time>2026-04-26T07:14:10.96Z</time></trkpt><trkpt lat="43.0622411" lon="13.2371843"><ele>648.5</ele><time>2026-04-26T07:14:11.948Z</time></trkpt><trkpt lat="43.0621079" lon="13.237133"><ele>658.0</ele><time>2026-04-26T07:14:12.951Z</time></trkpt><trkpt lat="43.0620095" lon="13.2370307"><ele>667.5</ele><time>2026-04-26T07:14:13.946Z</time></trkpt><trkpt lat="43.0619645" lon="13.2368817"><ele>677.0</ele><time>2026-04-26T07:14:14.95Z</time></trkpt><trkpt lat="43.0619697" lon="13.2367221"><ele>677.0</ele><time>2026-04-26T07:14:15.951Z</time></trkpt><trkpt lat="43.0619616" lon="13.2365713"><ele>677.0</ele><time>2026-04-26T07:14:16.95Z</time></trkpt><trkpt lat="43.0619494" lon="13.2364252"><ele>677.0</ele><time>2026-04-26T07:14:17.949Z</time></trkpt><trkpt lat="43.0618486" lon="13.2363579"><ele>677.0</ele><time>2026-04-26T07:14:18.946Z</time></trkpt><trkpt lat="43.0617214" lon="13.2363413"><ele>685.2</ele><time>2026-04-26T07:14:19.949Z</time></trkpt><trkpt lat="43.0615972" lon="13.2363122"><ele>693.4000000000001</ele><time>2026-04-26T07:14:20.951Z</time></trkpt><trkpt lat="43.0615077" lon="13.2362282"><ele>701.5999999999999</ele><time>2026-04-26T07:14:21.95Z</time></trkpt><trkpt lat="43.061476" lon="13.2360973"><ele>709.8</ele><time>2026-04-26T07:14:22.946Z</time></trkpt><trkpt lat="43.061462" lon="13.2359502"><ele>718.0</ele><time>2026-04-26T07:14:23.945Z</time></trkpt><trkpt lat="43.061517" lon="13.2358005"><ele>718.0</ele><time>2026-04-26T07:14:24.95Z</time></trkpt><trkpt lat="43.0615048" lon="13.2356487"><ele>718.0</ele><time>2026-04-26T07:14:25.95Z</time></trkpt><trkpt lat="43.0614533" lon="13.2355117"><ele>718.0</ele><time>2026-04-26T07:14:26.95Z</time></trkpt><trkpt lat="43.0613358" lon="13.2353912"><ele>718.0</ele><time>2026-04-26T07:14:27.955Z</time></trkpt><trkpt lat="43.0612034" lon="13.2352535"><ele>710.0</ele><time>2026-04-26T07:14:28.951Z</time></trkpt><trkpt lat="43.0610713" lon="13.2351096"><ele>702.0</ele><time>2026-04-26T07:14:29.952Z</time></trkpt><trkpt lat="43.0609439" lon="13.2349396"><ele>694.0</ele><time>2026-04-26T07:14:30.95Z</time></trkpt><trkpt lat="43.0608363" lon="13.2347662"><ele>701.0</ele><time>2026-04-26T07:14:31.952Z</time></trkpt><trkpt lat="43.0607507" lon="13.2345823"><ele>708.0</ele><time>2026-04-26T07:14:32.949Z</time></trkpt><trkpt lat="43.0606827" lon="13.2343936"><ele>715.0</ele><time>2026-04-26T07:14:33.947Z</time></trkpt><trkpt lat="43.0606154" lon="13.2342182"><ele>715.0</ele><time>2026-04-26T07:14:34.948Z</time></trkpt><trkpt lat="43.0605364" lon="13.234064"><ele>715.0</ele><time>2026-04-26T07:14:35.951Z</time></trkpt><trkpt lat="43.0604605" lon="13.2339112"><ele>715.0</ele><time>2026-04-26T07:14:36.955Z</time></trkpt><trkpt lat="43.0604369" lon="13.2337296"><ele>715.0</ele><time>2026-04-26T07:14:37.949Z</time></trkpt><trkpt lat="43.0604352" lon="13.2335241"><ele>715.0</ele><time>2026-04-26T07:14:38.949Z</time></trkpt><trkpt lat="43.0604143" lon="13.2333161"><ele>715.0</ele><time>2026-04-26T07:14:39.95Z</time></trkpt><trkpt lat="43.0603827" lon="13.2331062"><ele>715.0</ele><time>2026-04-26T07:14:40.943Z</time></trkpt><trkpt lat="43.0603363" lon="13.2328897"><ele>713.3333333333334</ele><time>2026-04-26T07:14:41.953Z</time></trkpt><trkpt lat="43.0603048" lon="13.2326594"><ele>711.6666666666666</ele><time>2026-04-26T07:14:42.947Z</time></trkpt><trkpt lat="43.0603159" lon="13.2324206"><ele>710.0</ele><time>2026-04-26T07:14:43.951Z</time></trkpt><trkpt lat="43.0603482" lon="13.2322058"><ele>708.0</ele><time>2026-04-26T07:14:44.946Z</time></trkpt><trkpt lat="43.0603728" lon="13.2319934"><ele>706.0</ele><time>2026-04-26T07:14:45.946Z</time></trkpt><trkpt lat="43.0603616" lon="13.2317856"><ele>704.0</ele><time>2026-04-26T07:14:46.95Z</time></trkpt><trkpt lat="43.0603482" lon="13.2315943"><ele>704.0</ele><time>2026-04-26T07:14:47.951Z</time></trkpt><trkpt lat="43.0603688" lon="13.2314109"><ele>704.0</ele><time>2026-04-26T07:14:48.953Z</time></trkpt><trkpt lat="43.0604408" lon="13.2312325"><ele>704.0</ele><time>2026-04-26T07:14:49.952Z</time></trkpt><trkpt lat="43.0605564" lon="13.2310692"><ele>704.0</ele><time>2026-04-26T07:14:50.945Z</time></trkpt><trkpt lat="43.0606868" lon="13.230901"><ele>704.0</ele><time>2026-04-26T07:14:51.956Z</time></trkpt><trkpt lat="43.0608179" lon="13.2307271"><ele>704.0</ele><time>2026-04-26T07:14:52.952Z</time></trkpt><trkpt lat="43.0609687" lon="13.2305902"><ele>702.6666666666666</ele><time>2026-04-26T07:14:53.947Z</time></trkpt><trkpt lat="43.0611385" lon="13.2305015"><ele>701.3333333333334</ele><time>2026-04-26T07:14:54.952Z</time></trkpt><trkpt lat="43.0613166" lon="13.2305014"><ele>700.0</ele><time>2026-04-26T07:14:55.948Z</time></trkpt><trkpt lat="43.0614847" lon="13.2305703"><ele>697.0</ele><time>2026-04-26T07:14:56.948Z</time></trkpt><trkpt lat="43.0616203" lon="13.230701"><ele>694.0</ele><time>2026-04-26T07:14:57.948Z</time></trkpt><trkpt lat="43.0617128" lon="13.230889"><ele>691.0</ele><time>2026-04-26T07:14:58.948Z</time></trkpt><trkpt lat="43.0617497" lon="13.2310922"><ele>691.0</ele><time>2026-04-26T07:14:59.955Z</time></trkpt><trkpt lat="43.061782" lon="13.2312666"><ele>691.0</ele><time>2026-04-26T07:15:00.947Z</time></trkpt><trkpt lat="43.0618509" lon="13.2313928"><ele>691.0</ele><time>2026-04-26T07:15:01.948Z</time></trkpt><trkpt lat="43.0619681" lon="13.2314679"><ele>691.0</ele><time>2026-04-26T07:15:02.951Z</time></trkpt><trkpt lat="43.0621076" lon="13.2315375"><ele>686.0</ele><time>2026-04-26T07:15:03.95Z</time></trkpt><trkpt lat="43.0622347" lon="13.2316667"><ele>681.0</ele><time>2026-04-26T07:15:04.947Z</time></trkpt><trkpt lat="43.0623342" lon="13.2318558"><ele>676.0</ele><time>2026-04-26T07:15:05.95Z</time></trkpt><trkpt lat="43.0624176" lon="13.232073"><ele>681.0</ele><time>2026-04-26T07:15:06.954Z</time></trkpt><trkpt lat="43.0624957" lon="13.2322965"><ele>686.0</ele><time>2026-04-26T07:15:07.949Z</time></trkpt><trkpt lat="43.0625819" lon="13.2324882"><ele>691.0</ele><time>2026-04-26T07:15:08.951Z</time></trkpt><trkpt lat="43.0627" lon="13.2326536"><ele>691.0</ele><time>2026-04-26T07:15:09.946Z</time></trkpt><trkpt lat="43.0628508" lon="13.232782"><ele>691.0</ele><time>2026-04-26T07:15:10.951Z</time></trkpt><trkpt lat="43.0630122" lon="13.2328912"><ele>691.0</ele><time>2026-04-26T07:15:11.955Z</time></trkpt><trkpt lat="43.0632016" lon="13.2329454"><ele>701.3333333333334</ele><time>2026-04-26T07:15:12.947Z</time></trkpt><trkpt lat="43.0634062" lon="13.2329781"><ele>711.6666666666666</ele><time>2026-04-26T07:15:13.95Z</time></trkpt><trkpt lat="43.0636092" lon="13.233009"><ele>722.0</ele><time>2026-04-26T07:15:14.947Z</time></trkpt><trkpt lat="43.0638026" lon="13.2330747"><ele>719.3333333333333</ele><time>2026-04-26T07:15:15.955Z</time></trkpt><trkpt lat="43.0639874" lon="13.2331907"><ele>716.6666666666666</ele><time>2026-04-26T07:15:16.948Z</time></trkpt><trkpt lat="43.0641588" lon="13.2333329"><ele>714.0</ele><time>2026-04-26T07:15:17.951Z</time></trkpt><trkpt lat="43.0643272" lon="13.2334614"><ele>714.0</ele><time>2026-04-26T07:15:18.952Z</time></trkpt><trkpt lat="43.064503" lon="13.2335677"><ele>714.0</ele><time>2026-04-26T07:15:19.947Z</time></trkpt><trkpt lat="43.0647081" lon="13.2336365"><ele>714.0</ele><time>2026-04-26T07:15:20.945Z</time></trkpt><trkpt lat="43.0649132" lon="13.2336277"><ele>718.0</ele><time>2026-04-26T07:15:21.951Z</time></trkpt><trkpt lat="43.0651216" lon="13.2335856"><ele>722.0</ele><time>2026-04-26T07:15:22.951Z</time></trkpt><trkpt lat="43.0653213" lon="13.2335175"><ele>726.0</ele><time>2026-04-26T07:15:23.952Z</time></trkpt><trkpt lat="43.0655154" lon="13.2334263"><ele>726.0</ele><time>2026-04-26T07:15:24.95Z</time></trkpt><trkpt lat="43.0656992" lon="13.2333113"><ele>726.0</ele><time>2026-04-26T07:15:25.952Z</time></trkpt><trkpt lat="43.0658719" lon="13.2331598"><ele>726.0</ele><time>2026-04-26T07:15:26.95Z</time></trkpt><trkpt lat="43.0660308" lon="13.23297"><ele>727.3333333333334</ele><time>2026-04-26T07:15:27.955Z</time></trkpt><trkpt lat="43.0661757" lon="13.2327675"><ele>728.6666666666667</ele><time>2026-04-26T07:15:28.959Z</time></trkpt><trkpt lat="43.0663054" lon="13.2325714"><ele>730.0</ele><time>2026-04-26T07:15:29.951Z</time></trkpt><trkpt lat="43.0664234" lon="13.232387"><ele>729.0</ele><time>2026-04-26T07:15:30.951Z</time></trkpt><trkpt lat="43.06653" lon="13.2322139"><ele>728.0</ele><time>2026-04-26T07:15:31.954Z</time></trkpt><trkpt lat="43.0666294" lon="13.2320421"><ele>727.0</ele><time>2026-04-26T07:15:32.955Z</time></trkpt><trkpt lat="43.0667325" lon="13.2318636"><ele>727.0</ele><time>2026-04-26T07:15:33.952Z</time></trkpt><trkpt lat="43.0668421" lon="13.2316807"><ele>727.0</ele><time>2026-04-26T07:15:34.95Z</time></trkpt><trkpt lat="43.066946" lon="13.2314816"><ele>727.0</ele><time>2026-04-26T07:15:35.959Z</time></trkpt><trkpt lat="43.0670384" lon="13.2312662"><ele>732.3333333333334</ele><time>2026-04-26T07:15:36.959Z</time></trkpt><trkpt lat="43.0671191" lon="13.2310376"><ele>737.6666666666666</ele><time>2026-04-26T07:15:37.958Z</time></trkpt><trkpt lat="43.0671958" lon="13.2308043"><ele>743.0</ele><time>2026-04-26T07:15:38.95Z</time></trkpt><trkpt lat="43.0672785" lon="13.2305705"><ele>748.3333333333333</ele><time>2026-04-26T07:15:39.956Z</time></trkpt><trkpt lat="43.067377" lon="13.2303435"><ele>753.6666666666666</ele><time>2026-04-26T07:15:40.953Z</time></trkpt><trkpt lat="43.0674916" lon="13.2301242"><ele>759.0</ele><time>2026-04-26T07:15:41.958Z</time></trkpt><trkpt lat="43.067602" lon="13.2298979"><ele>750.3333333333334</ele><time>2026-04-26T07:15:42.951Z</time></trkpt><trkpt lat="43.0676997" lon="13.2296581"><ele>741.6666666666667</ele><time>2026-04-26T07:15:43.952Z</time></trkpt><trkpt lat="43.0677929" lon="13.2294137"><ele>733.0</ele><time>2026-04-26T07:15:44.963Z</time></trkpt><trkpt lat="43.0678872" lon="13.2291664"><ele>737.3333333333334</ele><time>2026-04-26T07:15:45.95Z</time></trkpt><trkpt lat="43.0679826" lon="13.2289154"><ele>741.6666666666666</ele><time>2026-04-26T07:15:46.95Z</time></trkpt><trkpt lat="43.0680777" lon="13.2286681"><ele>746.0</ele><time>2026-04-26T07:15:47.954Z</time></trkpt><trkpt lat="43.068169" lon="13.2284352"><ele>746.0</ele><time>2026-04-26T07:15:48.958Z</time></trkpt><trkpt lat="43.0682541" lon="13.2282092"><ele>746.0</ele><time>2026-04-26T07:15:49.947Z</time></trkpt><trkpt lat="43.0683158" lon="13.2279678"><ele>746.0</ele><time>2026-04-26T07:15:50.95Z</time></trkpt><trkpt lat="43.0683589" lon="13.2277013"><ele>738.3333333333333</ele><time>2026-04-26T07:15:51.958Z</time></trkpt><trkpt lat="43.0683851" lon="13.2274189"><ele>730.6666666666666</ele><time>2026-04-26T07:15:52.95Z</time></trkpt><trkpt lat="43.0684129" lon="13.2271393"><ele>723.0</ele><time>2026-04-26T07:15:53.949Z</time></trkpt><trkpt lat="43.0684398" lon="13.2268515"><ele>723.0</ele><time>2026-04-26T07:15:54.952Z</time></trkpt><trkpt lat="43.0684639" lon="13.2265589"><ele>723.0</ele><time>2026-04-26T07:15:55.955Z</time></trkpt><trkpt lat="43.0684692" lon="13.2262654"><ele>723.0</ele><time>2026-04-26T07:15:56.951Z</time></trkpt><trkpt lat="43.0684525" lon="13.2259721"><ele>722.6666666666666</ele><time>2026-04-26T07:15:57.951Z</time></trkpt><trkpt lat="43.0684274" lon="13.2256924"><ele>722.3333333333333</ele><time>2026-04-26T07:15:58.949Z</time></trkpt><trkpt lat="43.0684066" lon="13.2254207"><ele>722.0</ele><time>2026-04-26T07:15:59.953Z</time></trkpt><trkpt lat="43.0683915" lon="13.2251462"><ele>722.0</ele><time>2026-04-26T07:16:00.954Z</time></trkpt><trkpt lat="43.0683717" lon="13.224876"><ele>722.0</ele><time>2026-04-26T07:16:01.946Z</time></trkpt><trkpt lat="43.068332" lon="13.2246155"><ele>722.0</ele><time>2026-04-26T07:16:02.949Z</time></trkpt><trkpt lat="43.0682718" lon="13.2243713"><ele>725.6666666666666</ele><time>2026-04-26T07:16:03.95Z</time></trkpt><trkpt lat="43.0681958" lon="13.224143"><ele>729.3333333333334</ele><time>2026-04-26T07:16:04.947Z</time></trkpt><trkpt lat="43.0681192" lon="13.2239352"><ele>733.0</ele><time>2026-04-26T07:16:05.951Z</time></trkpt><trkpt lat="43.068052" lon="13.2237401"><ele>733.0</ele><time>2026-04-26T07:16:06.95Z</time></trkpt><trkpt lat="43.0679998" lon="13.2235576"><ele>733.0</ele><time>2026-04-26T07:16:07.952Z</time></trkpt><trkpt lat="43.0679584" lon="13.2233882"><ele>733.0</ele><time>2026-04-26T07:16:08.95Z</time></trkpt><trkpt lat="43.0679117" lon="13.2232404"><ele>733.0</ele><time>2026-04-26T07:16:09.953Z</time></trkpt><trkpt lat="43.0678461" lon="13.2231321"><ele>732.8</ele><time>2026-04-26T07:16:10.954Z</time></trkpt><trkpt lat="43.0677605" lon="13.2230686"><ele>732.5999999999999</ele><time>2026-04-26T07:16:11.951Z</time></trkpt><trkpt lat="43.0676586" lon="13.223049"><ele>732.4000000000001</ele><time>2026-04-26T07:16:12.953Z</time></trkpt><trkpt lat="43.0675481" lon="13.2230535"><ele>732.2</ele><time>2026-04-26T07:16:13.95Z</time></trkpt><trkpt lat="43.067438" lon="13.2230503"><ele>732.0</ele><time>2026-04-26T07:16:14.958Z</time></trkpt><trkpt lat="43.0673378" lon="13.2230305"><ele>732.0</ele><time>2026-04-26T07:16:15.955Z</time></trkpt><trkpt lat="43.0672416" lon="13.22299"><ele>732.0</ele><time>2026-04-26T07:16:16.952Z</time></trkpt><trkpt lat="43.0671479" lon="13.222926"><ele>732.0</ele><time>2026-04-26T07:16:17.951Z</time></trkpt><trkpt lat="43.0670578" lon="13.2228455"><ele>732.0</ele><time>2026-04-26T07:16:18.951Z</time></trkpt><trkpt lat="43.0669657" lon="13.2227533"><ele>732.0</ele><time>2026-04-26T07:16:19.947Z</time></trkpt><trkpt lat="43.0668713" lon="13.2226518"><ele>732.0</ele><time>2026-04-26T07:16:20.958Z</time></trkpt><trkpt lat="43.0667767" lon="13.2225408"><ele>732.0</ele><time>2026-04-26T07:16:21.95Z</time></trkpt><trkpt lat="43.066684" lon="13.2224235"><ele>732.0</ele><time>2026-04-26T07:16:22.955Z</time></trkpt><trkpt lat="43.0665951" lon="13.2223119"><ele>732.0</ele><time>2026-04-26T07:16:23.949Z</time></trkpt><trkpt lat="43.0665046" lon="13.2222151"><ele>733.0</ele><time>2026-04-26T07:16:24.955Z</time></trkpt><trkpt lat="43.0664118" lon="13.2221304"><ele>734.0</ele><time>2026-04-26T07:16:25.95Z</time></trkpt><trkpt lat="43.0663169" lon="13.2220589"><ele>735.0</ele><time>2026-04-26T07:16:26.95Z</time></trkpt><trkpt lat="43.0662322" lon="13.2220013"><ele>736.0</ele><time>2026-04-26T07:16:27.951Z</time></trkpt><trkpt lat="43.0661518" lon="13.2219472"><ele>737.0</ele><time>2026-04-26T07:16:28.948Z</time></trkpt><trkpt lat="43.066071" lon="13.2218867"><ele>737.0</ele><time>2026-04-26T07:16:29.952Z</time></trkpt><trkpt lat="43.0659919" lon="13.2218124"><ele>737.0</ele><time>2026-04-26T07:16:30.952Z</time></trkpt><trkpt lat="43.0659144" lon="13.2217262"><ele>737.0</ele><time>2026-04-26T07:16:31.95Z</time></trkpt><trkpt lat="43.0658374" lon="13.2216352"><ele>737.0</ele><time>2026-04-26T07:16:32.947Z</time></trkpt><trkpt lat="43.0657619" lon="13.2215404"><ele>737.0</ele><time>2026-04-26T07:16:33.953Z</time></trkpt><trkpt lat="43.0656927" lon="13.2214377"><ele>742.0</ele><time>2026-04-26T07:16:34.952Z</time></trkpt><trkpt lat="43.0656338" lon="13.2213233"><ele>747.0</ele><time>2026-04-26T07:16:35.95Z</time></trkpt><trkpt lat="43.0655845" lon="13.2211991"><ele>752.0</ele><time>2026-04-26T07:16:36.954Z</time></trkpt><trkpt lat="43.0655408" lon="13.2210685"><ele>757.0</ele><time>2026-04-26T07:16:37.952Z</time></trkpt><trkpt lat="43.0654986" lon="13.2209335"><ele>762.0</ele><time>2026-04-26T07:16:38.953Z</time></trkpt><trkpt lat="43.0654571" lon="13.2207928"><ele>756.0</ele><time>2026-04-26T07:16:39.954Z</time></trkpt><trkpt lat="43.0654162" lon="13.2206487"><ele>750.0</ele><time>2026-04-26T07:16:40.953Z</time></trkpt><trkpt lat="43.0653718" lon="13.2205075"><ele>744.0</ele><time>2026-04-26T07:16:41.951Z</time></trkpt><trkpt lat="43.0653218" lon="13.220379"><ele>738.0</ele><time>2026-04-26T07:16:42.973Z</time></trkpt><trkpt lat="43.0652698" lon="13.2202647"><ele>732.0</ele><time>2026-04-26T07:16:43.95Z</time></trkpt><trkpt lat="43.0652133" lon="13.2201623"><ele>732.0</ele><time>2026-04-26T07:16:44.946Z</time></trkpt><trkpt lat="43.0651425" lon="13.2200729"><ele>732.0</ele><time>2026-04-26T07:16:45.952Z</time></trkpt><trkpt lat="43.0650665" lon="13.2199783"><ele>732.0</ele><time>2026-04-26T07:16:46.951Z</time></trkpt><trkpt lat="43.0649802" lon="13.2198869"><ele>732.0</ele><time>2026-04-26T07:16:47.953Z</time></trkpt><trkpt lat="43.064879" lon="13.2198023"><ele>732.0</ele><time>2026-04-26T07:16:48.949Z</time></trkpt><trkpt lat="43.0647674" lon="13.2197322"><ele>729.75</ele><time>2026-04-26T07:16:49.954Z</time></trkpt><trkpt lat="43.0646419" lon="13.21968"><ele>727.5</ele><time>2026-04-26T07:16:50.964Z</time></trkpt><trkpt lat="43.0645134" lon="13.2196284"><ele>725.25</ele><time>2026-04-26T07:16:51.947Z</time></trkpt><trkpt lat="43.0643871" lon="13.2195513"><ele>723.0</ele><time>2026-04-26T07:16:52.951Z</time></trkpt><trkpt lat="43.0642503" lon="13.2194751"><ele>723.0</ele><time>2026-04-26T07:16:53.951Z</time></trkpt><trkpt lat="43.0641141" lon="13.2193451"><ele>723.0</ele><time>2026-04-26T07:16:54.952Z</time></trkpt><trkpt lat="43.0639574" lon="13.2192527"><ele>723.0</ele><time>2026-04-26T07:16:55.946Z</time></trkpt><trkpt lat="43.063784" lon="13.2191931"><ele>726.0</ele><time>2026-04-26T07:16:56.953Z</time></trkpt><trkpt lat="43.0635975" lon="13.2191882"><ele>729.0</ele><time>2026-04-26T07:16:57.948Z</time></trkpt><trkpt lat="43.063425" lon="13.2192463"><ele>732.0</ele><time>2026-04-26T07:16:58.949Z</time></trkpt><trkpt lat="43.063263" lon="13.2193179"><ele>735.6666666666666</ele><time>2026-04-26T07:16:59.951Z</time></trkpt><trkpt lat="43.0631155" lon="13.2193845"><ele>739.3333333333333</ele><time>2026-04-26T07:17:00.949Z</time></trkpt><trkpt lat="43.0629751" lon="13.2194181"><ele>743.0</ele><time>2026-04-26T07:17:01.951Z</time></trkpt><trkpt lat="43.0628388" lon="13.2192966"><ele>743.0</ele><time>2026-04-26T07:17:02.95Z</time></trkpt><trkpt lat="43.0626996" lon="13.2191424"><ele>743.0</ele><time>2026-04-26T07:17:03.956Z</time></trkpt><trkpt lat="43.0625235" lon="13.2190457"><ele>743.0</ele><time>2026-04-26T07:17:04.946Z</time></trkpt><trkpt lat="43.06233" lon="13.2189902"><ele>738.3333333333333</ele><time>2026-04-26T07:17:05.95Z</time></trkpt><trkpt lat="43.0621268" lon="13.2189144"><ele>733.6666666666666</ele><time>2026-04-26T07:17:06.949Z</time></trkpt><trkpt lat="43.0619229" lon="13.2188014"><ele>729.0</ele><time>2026-04-26T07:17:07.95Z</time></trkpt><trkpt lat="43.0617367" lon="13.2186477"><ele>738.0</ele><time>2026-04-26T07:17:08.951Z</time></trkpt><trkpt lat="43.0615852" lon="13.2185079"><ele>747.0</ele><time>2026-04-26T07:17:09.949Z</time></trkpt><trkpt lat="43.0614729" lon="13.2183747"><ele>756.0</ele><time>2026-04-26T07:17:10.95Z</time></trkpt><trkpt lat="43.0614017" lon="13.2182196"><ele>753.25</ele><time>2026-04-26T07:17:11.95Z</time></trkpt><trkpt lat="43.0613921" lon="13.2180542"><ele>750.5</ele><time>2026-04-26T07:17:12.949Z</time></trkpt><trkpt lat="43.0613952" lon="13.2178927"><ele>747.75</ele><time>2026-04-26T07:17:13.954Z</time></trkpt><trkpt lat="43.0615277" lon="13.2177908"><ele>745.0</ele><time>2026-04-26T07:17:14.95Z</time></trkpt><trkpt lat="43.0617129" lon="13.2177996"><ele>745.0</ele><time>2026-04-26T07:17:15.947Z</time></trkpt><trkpt lat="43.0619169" lon="13.2178249"><ele>745.0</ele><time>2026-04-26T07:17:16.948Z</time></trkpt><trkpt lat="43.0621049" lon="13.2178853"><ele>745.0</ele><time>2026-04-26T07:17:17.945Z</time></trkpt><trkpt lat="43.0623301" lon="13.217865"><ele>747.0</ele><time>2026-04-26T07:17:18.95Z</time></trkpt><trkpt lat="43.0625637" lon="13.2177988"><ele>749.0</ele><time>2026-04-26T07:17:19.949Z</time></trkpt><trkpt lat="43.0628008" lon="13.2177017"><ele>749.0</ele><time>2026-04-26T07:17:20.95Z</time></trkpt><trkpt lat="43.0630405" lon="13.2176283"><ele>749.0</ele><time>2026-04-26T07:17:21.948Z</time></trkpt><trkpt lat="43.0632681" lon="13.2175979"><ele>747.0</ele><time>2026-04-26T07:17:22.95Z</time></trkpt><trkpt lat="43.0634836" lon="13.2175472"><ele>745.0</ele><time>2026-04-26T07:17:23.952Z</time></trkpt><trkpt lat="43.0636929" lon="13.2174286"><ele>743.0</ele><time>2026-04-26T07:17:24.952Z</time></trkpt><trkpt lat="43.0638953" lon="13.2172526"><ele>757.5</ele><time>2026-04-26T07:17:25.95Z</time></trkpt><trkpt lat="43.0640875" lon="13.2170495"><ele>772.0</ele><time>2026-04-26T07:17:26.949Z</time></trkpt><trkpt lat="43.0642709" lon="13.216868"><ele>772.0</ele><time>2026-04-26T07:17:27.952Z</time></trkpt><trkpt lat="43.064469" lon="13.2167392"><ele>772.0</ele><time>2026-04-26T07:17:28.948Z</time></trkpt><trkpt lat="43.0646738" lon="13.2166134"><ele>772.0</ele><time>2026-04-26T07:17:29.95Z</time></trkpt><trkpt lat="43.0649139" lon="13.2165617"><ele>793.0</ele><time>2026-04-26T07:17:30.95Z</time></trkpt><trkpt lat="43.0651475" lon="13.2164394"><ele>814.0</ele><time>2026-04-26T07:17:31.954Z</time></trkpt><trkpt lat="43.0653583" lon="13.2163021"><ele>814.0</ele><time>2026-04-26T07:17:32.958Z</time></trkpt><trkpt lat="43.065725" lon="13.2160393"><ele>814.0</ele><time>2026-04-26T07:17:34.949Z</time></trkpt><trkpt lat="43.0658848" lon="13.2159287"><ele>810.0</ele><time>2026-04-26T07:17:35.948Z</time></trkpt><trkpt lat="43.0660163" lon="13.2158781"><ele>806.0</ele><time>2026-04-26T07:17:36.956Z</time></trkpt><trkpt lat="43.0661471" lon="13.2158512"><ele>802.0</ele><time>2026-04-26T07:17:37.954Z</time></trkpt><trkpt lat="43.0663027" lon="13.2158698"><ele>798.0</ele><time>2026-04-26T07:17:38.951Z</time></trkpt><trkpt lat="43.0664455" lon="13.215966"><ele>798.0</ele><time>2026-04-26T07:17:39.949Z</time></trkpt><trkpt lat="43.0665839" lon="13.2160448"><ele>798.0</ele><time>2026-04-26T07:17:40.947Z</time></trkpt><trkpt lat="43.0667409" lon="13.2159402"><ele>798.0</ele><time>2026-04-26T07:17:41.954Z</time></trkpt><trkpt lat="43.0668845" lon="13.2158029"><ele>788.3333333333333</ele><time>2026-04-26T07:17:42.948Z</time></trkpt><trkpt lat="43.0670562" lon="13.2158403"><ele>778.6666666666666</ele><time>2026-04-26T07:17:43.947Z</time></trkpt><trkpt lat="43.0672134" lon="13.2159581"><ele>769.0</ele><time>2026-04-26T07:17:44.953Z</time></trkpt><trkpt lat="43.0673533" lon="13.2161497"><ele>764.0</ele><time>2026-04-26T07:17:45.947Z</time></trkpt><trkpt lat="43.0674788" lon="13.2163603"><ele>759.0</ele><time>2026-04-26T07:17:46.955Z</time></trkpt><trkpt lat="43.0676149" lon="13.2165586"><ele>754.0</ele><time>2026-04-26T07:17:47.955Z</time></trkpt><trkpt lat="43.0677709" lon="13.2167062"><ele>754.0</ele><time>2026-04-26T07:17:48.957Z</time></trkpt><trkpt lat="43.0679517" lon="13.2167891"><ele>754.0</ele><time>2026-04-26T07:17:49.955Z</time></trkpt><trkpt lat="43.0681557" lon="13.2168154"><ele>754.0</ele><time>2026-04-26T07:17:50.95Z</time></trkpt><trkpt lat="43.0683555" lon="13.2167659"><ele>758.0</ele><time>2026-04-26T07:17:51.954Z</time></trkpt><trkpt lat="43.0685478" lon="13.2166834"><ele>762.0</ele><time>2026-04-26T07:17:52.95Z</time></trkpt><trkpt lat="43.0687188" lon="13.2166117"><ele>766.0</ele><time>2026-04-26T07:17:53.955Z</time></trkpt><trkpt lat="43.0688516" lon="13.2164963"><ele>780.3333333333334</ele><time>2026-04-26T07:17:54.953Z</time></trkpt><trkpt lat="43.0689368" lon="13.2162947"><ele>794.6666666666667</ele><time>2026-04-26T07:17:55.954Z</time></trkpt><trkpt lat="43.0689798" lon="13.216056"><ele>809.0</ele><time>2026-04-26T07:17:56.955Z</time></trkpt><trkpt lat="43.0689971" lon="13.2158213"><ele>802.3333333333334</ele><time>2026-04-26T07:17:57.954Z</time></trkpt><trkpt lat="43.0690529" lon="13.2156049"><ele>795.6666666666667</ele><time>2026-04-26T07:17:58.954Z</time></trkpt><trkpt lat="43.0691071" lon="13.2153722"><ele>789.0</ele><time>2026-04-26T07:17:59.968Z</time></trkpt><trkpt lat="43.0692471" lon="13.2151493"><ele>789.0</ele><time>2026-04-26T07:18:00.95Z</time></trkpt><trkpt lat="43.069335" lon="13.214898"><ele>789.0</ele><time>2026-04-26T07:18:01.955Z</time></trkpt><trkpt lat="43.0694" lon="13.2146442"><ele>789.0</ele><time>2026-04-26T07:18:02.95Z</time></trkpt><trkpt lat="43.0694929" lon="13.2144077"><ele>790.0</ele><time>2026-04-26T07:18:03.955Z</time></trkpt><trkpt lat="43.0696197" lon="13.2141906"><ele>791.0</ele><time>2026-04-26T07:18:04.956Z</time></trkpt><trkpt lat="43.0697802" lon="13.214004"><ele>792.0</ele><time>2026-04-26T07:18:05.955Z</time></trkpt><trkpt lat="43.069948" lon="13.2138595"><ele>792.0</ele><time>2026-04-26T07:18:06.948Z</time></trkpt><trkpt lat="43.0700966" lon="13.2137609"><ele>792.0</ele><time>2026-04-26T07:18:07.952Z</time></trkpt><trkpt lat="43.0702373" lon="13.2136616"><ele>792.0</ele><time>2026-04-26T07:18:08.95Z</time></trkpt><trkpt lat="43.0703341" lon="13.2135323"><ele>792.0</ele><time>2026-04-26T07:18:09.952Z</time></trkpt><trkpt lat="43.0703981" lon="13.2133344"><ele>792.0</ele><time>2026-04-26T07:18:10.953Z</time></trkpt><trkpt lat="43.070448" lon="13.2130638"><ele>792.0</ele><time>2026-04-26T07:18:11.952Z</time></trkpt><trkpt lat="43.0705501" lon="13.2128294"><ele>788.6666666666667</ele><time>2026-04-26T07:18:12.955Z</time></trkpt><trkpt lat="43.0706802" lon="13.2126256"><ele>785.3333333333334</ele><time>2026-04-26T07:18:13.951Z</time></trkpt><trkpt lat="43.0708097" lon="13.2124125"><ele>782.0</ele><time>2026-04-26T07:18:14.949Z</time></trkpt><trkpt lat="43.0709228" lon="13.2122055"><ele>782.0</ele><time>2026-04-26T07:18:15.953Z</time></trkpt><trkpt lat="43.0710435" lon="13.2120411"><ele>782.0</ele><time>2026-04-26T07:18:16.953Z</time></trkpt><trkpt lat="43.0711528" lon="13.211872"><ele>782.0</ele><time>2026-04-26T07:18:17.953Z</time></trkpt><trkpt lat="43.0711973" lon="13.2116932"><ele>782.0</ele><time>2026-04-26T07:18:18.95Z</time></trkpt><trkpt lat="43.0711704" lon="13.2115148"><ele>782.0</ele><time>2026-04-26T07:18:19.957Z</time></trkpt><trkpt lat="43.0710922" lon="13.2113754"><ele>782.0</ele><time>2026-04-26T07:18:20.951Z</time></trkpt><trkpt lat="43.0709645" lon="13.2112877"><ele>782.0</ele><time>2026-04-26T07:18:21.955Z</time></trkpt><trkpt lat="43.0707997" lon="13.2112526"><ele>776.0</ele><time>2026-04-26T07:18:22.953Z</time></trkpt><trkpt lat="43.0706146" lon="13.2112428"><ele>770.0</ele><time>2026-04-26T07:18:23.952Z</time></trkpt><trkpt lat="43.0704083" lon="13.2112318"><ele>764.0</ele><time>2026-04-26T07:18:24.956Z</time></trkpt><trkpt lat="43.070193" lon="13.2112162"><ele>764.0</ele><time>2026-04-26T07:18:25.954Z</time></trkpt><trkpt lat="43.0699616" lon="13.2111783"><ele>764.0</ele><time>2026-04-26T07:18:26.954Z</time></trkpt><trkpt lat="43.0697281" lon="13.2111122"><ele>775.5</ele><time>2026-04-26T07:18:27.95Z</time></trkpt><trkpt lat="43.0694967" lon="13.211029"><ele>787.0</ele><time>2026-04-26T07:18:28.95Z</time></trkpt><trkpt lat="43.0692765" lon="13.210918"><ele>785.0</ele><time>2026-04-26T07:18:29.951Z</time></trkpt><trkpt lat="43.0690694" lon="13.210756"><ele>783.0</ele><time>2026-04-26T07:18:30.955Z</time></trkpt><trkpt lat="43.0688705" lon="13.210551"><ele>783.0</ele><time>2026-04-26T07:18:31.952Z</time></trkpt><trkpt lat="43.0686867" lon="13.2103408"><ele>783.0</ele><time>2026-04-26T07:18:32.957Z</time></trkpt><trkpt lat="43.0685262" lon="13.2101666"><ele>783.0</ele><time>2026-04-26T07:18:33.948Z</time></trkpt><trkpt lat="43.0683693" lon="13.2100552"><ele>792.75</ele><time>2026-04-26T07:18:34.949Z</time></trkpt><trkpt lat="43.0682219" lon="13.2099955"><ele>802.5</ele><time>2026-04-26T07:18:35.954Z</time></trkpt><trkpt lat="43.0680946" lon="13.2099401"><ele>812.25</ele><time>2026-04-26T07:18:36.947Z</time></trkpt><trkpt lat="43.0680105" lon="13.2098231"><ele>822.0</ele><time>2026-04-26T07:18:37.947Z</time></trkpt><trkpt lat="43.0680021" lon="13.2096554"><ele>822.0</ele><time>2026-04-26T07:18:38.949Z</time></trkpt><trkpt lat="43.0680518" lon="13.2094912"><ele>822.0</ele><time>2026-04-26T07:18:39.948Z</time></trkpt><trkpt lat="43.0681041" lon="13.2093151"><ele>822.0</ele><time>2026-04-26T07:18:40.977Z</time></trkpt><trkpt lat="43.0681834" lon="13.2090889"><ele>819.3333333333333</ele><time>2026-04-26T07:18:41.95Z</time></trkpt><trkpt lat="43.068256" lon="13.2088512"><ele>816.6666666666666</ele><time>2026-04-26T07:18:42.946Z</time></trkpt><trkpt lat="43.0682907" lon="13.2086194"><ele>814.0</ele><time>2026-04-26T07:18:43.946Z</time></trkpt><trkpt lat="43.0682744" lon="13.2084206"><ele>814.0</ele><time>2026-04-26T07:18:44.948Z</time></trkpt><trkpt lat="43.0682259" lon="13.2082417"><ele>814.0</ele><time>2026-04-26T07:18:45.952Z</time></trkpt><trkpt lat="43.0680745" lon="13.2081076"><ele>814.0</ele><time>2026-04-26T07:18:46.952Z</time></trkpt><trkpt lat="43.0679291" lon="13.2079694"><ele>810.0</ele><time>2026-04-26T07:18:47.951Z</time></trkpt><trkpt lat="43.0678309" lon="13.2078084"><ele>806.0</ele><time>2026-04-26T07:18:48.949Z</time></trkpt><trkpt lat="43.0677881" lon="13.2076136"><ele>802.0</ele><time>2026-04-26T07:18:49.946Z</time></trkpt><trkpt lat="43.0677406" lon="13.2074284"><ele>798.0</ele><time>2026-04-26T07:18:50.953Z</time></trkpt><trkpt lat="43.0677307" lon="13.2072156"><ele>800.0</ele><time>2026-04-26T07:18:51.942Z</time></trkpt><trkpt lat="43.0676932" lon="13.2069826"><ele>802.0</ele><time>2026-04-26T07:18:52.952Z</time></trkpt><trkpt lat="43.0675525" lon="13.2067925"><ele>804.0</ele><time>2026-04-26T07:18:53.954Z</time></trkpt><trkpt lat="43.0673843" lon="13.2066262"><ele>788.6666666666666</ele><time>2026-04-26T07:18:54.944Z</time></trkpt><trkpt lat="43.0672227" lon="13.2064573"><ele>773.3333333333333</ele><time>2026-04-26T07:18:55.953Z</time></trkpt><trkpt lat="43.0670901" lon="13.2063021"><ele>758.0</ele><time>2026-04-26T07:18:56.955Z</time></trkpt><trkpt lat="43.0669471" lon="13.2061756"><ele>758.0</ele><time>2026-04-26T07:18:57.947Z</time></trkpt><trkpt lat="43.0667759" lon="13.2060505"><ele>758.0</ele><time>2026-04-26T07:18:58.948Z</time></trkpt><trkpt lat="43.0665733" lon="13.2059889"><ele>758.0</ele><time>2026-04-26T07:18:59.951Z</time></trkpt><trkpt lat="43.0663923" lon="13.2058903"><ele>760.3333333333333</ele><time>2026-04-26T07:19:00.956Z</time></trkpt><trkpt lat="43.066249" lon="13.2057618"><ele>762.6666666666666</ele><time>2026-04-26T07:19:01.95Z</time></trkpt><trkpt lat="43.0661304" lon="13.2056301"><ele>765.0</ele><time>2026-04-26T07:19:02.954Z</time></trkpt><trkpt lat="43.066001" lon="13.2055458"><ele>765.0</ele><time>2026-04-26T07:19:03.947Z</time></trkpt><trkpt lat="43.06586" lon="13.205533"><ele>765.0</ele><time>2026-04-26T07:19:04.953Z</time></trkpt><trkpt lat="43.0657306" lon="13.2055264"><ele>765.0</ele><time>2026-04-26T07:19:05.945Z</time></trkpt><trkpt lat="43.0656332" lon="13.2055248"><ele>765.0</ele><time>2026-04-26T07:19:06.948Z</time></trkpt><trkpt lat="43.0655575" lon="13.2054799"><ele>776.25</ele><time>2026-04-26T07:19:07.947Z</time></trkpt><trkpt lat="43.0655172" lon="13.205349"><ele>787.5</ele><time>2026-04-26T07:19:08.95Z</time></trkpt><trkpt lat="43.0654961" lon="13.2052032"><ele>798.75</ele><time>2026-04-26T07:19:09.953Z</time></trkpt><trkpt lat="43.0655751" lon="13.2050745"><ele>810.0</ele><time>2026-04-26T07:19:10.95Z</time></trkpt><trkpt lat="43.0657244" lon="13.2049378"><ele>801.0</ele><time>2026-04-26T07:19:11.95Z</time></trkpt><trkpt lat="43.0658787" lon="13.2047734"><ele>792.0</ele><time>2026-04-26T07:19:12.949Z</time></trkpt><trkpt lat="43.0660062" lon="13.2045417"><ele>783.0</ele><time>2026-04-26T07:19:13.951Z</time></trkpt><trkpt lat="43.0661339" lon="13.204278"><ele>783.0</ele><time>2026-04-26T07:19:14.949Z</time></trkpt><trkpt lat="43.0662733" lon="13.2040169"><ele>783.0</ele><time>2026-04-26T07:19:15.954Z</time></trkpt><trkpt lat="43.0663868" lon="13.2037546"><ele>777.0</ele><time>2026-04-26T07:19:16.948Z</time></trkpt><trkpt lat="43.0664988" lon="13.2035077"><ele>771.0</ele><time>2026-04-26T07:19:17.957Z</time></trkpt><trkpt lat="43.066648" lon="13.2033066"><ele>765.0</ele><time>2026-04-26T07:19:18.947Z</time></trkpt><trkpt lat="43.0667962" lon="13.2031134"><ele>765.0</ele><time>2026-04-26T07:19:19.953Z</time></trkpt><trkpt lat="43.0669812" lon="13.2029898"><ele>765.0</ele><time>2026-04-26T07:19:20.947Z</time></trkpt><trkpt lat="43.0671366" lon="13.2028798"><ele>765.0</ele><time>2026-04-26T07:19:21.947Z</time></trkpt><trkpt lat="43.0672593" lon="13.2027895"><ele>765.0</ele><time>2026-04-26T07:19:22.946Z</time></trkpt><trkpt lat="43.0673514" lon="13.2026881"><ele>765.0</ele><time>2026-04-26T07:19:23.945Z</time></trkpt><trkpt lat="43.0673853" lon="13.2025525"><ele>765.0</ele><time>2026-04-26T07:19:24.953Z</time></trkpt><trkpt lat="43.0673474" lon="13.2024023"><ele>765.0</ele><time>2026-04-26T07:19:25.953Z</time></trkpt><trkpt lat="43.0672423" lon="13.2022621"><ele>756.6666666666666</ele><time>2026-04-26T07:19:26.95Z</time></trkpt><trkpt lat="43.0670982" lon="13.2021131"><ele>748.3333333333333</ele><time>2026-04-26T07:19:27.948Z</time></trkpt><trkpt lat="43.0669382" lon="13.2019344"><ele>740.0</ele><time>2026-04-26T07:19:28.951Z</time></trkpt><trkpt lat="43.0667673" lon="13.2017272"><ele>744.0</ele><time>2026-04-26T07:19:29.952Z</time></trkpt><trkpt lat="43.0665902" lon="13.2014916"><ele>748.0</ele><time>2026-04-26T07:19:30.949Z</time></trkpt><trkpt lat="43.0664105" lon="13.2012251"><ele>748.0</ele><time>2026-04-26T07:19:31.948Z</time></trkpt><trkpt lat="43.0662299" lon="13.2009335"><ele>748.0</ele><time>2026-04-26T07:19:32.952Z</time></trkpt><trkpt lat="43.066046" lon="13.2006296"><ele>748.5</ele><time>2026-04-26T07:19:33.949Z</time></trkpt><trkpt lat="43.0658685" lon="13.2003341"><ele>749.0</ele><time>2026-04-26T07:19:34.947Z</time></trkpt><trkpt lat="43.0656877" lon="13.2000368"><ele>737.0</ele><time>2026-04-26T07:19:35.952Z</time></trkpt><trkpt lat="43.0655026" lon="13.1997403"><ele>725.0</ele><time>2026-04-26T07:19:36.95Z</time></trkpt><trkpt lat="43.0653173" lon="13.1994468"><ele>725.0</ele><time>2026-04-26T07:19:37.951Z</time></trkpt><trkpt lat="43.0651471" lon="13.1991623"><ele>725.0</ele><time>2026-04-26T07:19:38.946Z</time></trkpt><trkpt lat="43.0650048" lon="13.1989014"><ele>722.0</ele><time>2026-04-26T07:19:39.95Z</time></trkpt><trkpt lat="43.064884" lon="13.1986722"><ele>719.0</ele><time>2026-04-26T07:19:40.948Z</time></trkpt><trkpt lat="43.0647638" lon="13.1984796"><ele>716.0</ele><time>2026-04-26T07:19:41.947Z</time></trkpt><trkpt lat="43.0646192" lon="13.1983501"><ele>716.0</ele><time>2026-04-26T07:19:42.957Z</time></trkpt><trkpt lat="43.0644532" lon="13.1982511"><ele>716.0</ele><time>2026-04-26T07:19:43.948Z</time></trkpt><trkpt lat="43.0642517" lon="13.1982873"><ele>716.0</ele><time>2026-04-26T07:19:44.948Z</time></trkpt><trkpt lat="43.0640486" lon="13.1983102"><ele>715.6666666666666</ele><time>2026-04-26T07:19:45.949Z</time></trkpt><trkpt lat="43.0638564" lon="13.1982755"><ele>715.3333333333334</ele><time>2026-04-26T07:19:46.951Z</time></trkpt><trkpt lat="43.063692" lon="13.1981874"><ele>715.0</ele><time>2026-04-26T07:19:47.947Z</time></trkpt><trkpt lat="43.0635277" lon="13.1980868"><ele>715.0</ele><time>2026-04-26T07:19:48.948Z</time></trkpt><trkpt lat="43.0633805" lon="13.1979486"><ele>715.0</ele><time>2026-04-26T07:19:49.951Z</time></trkpt><trkpt lat="43.063235" lon="13.1978242"><ele>715.0</ele><time>2026-04-26T07:19:50.946Z</time></trkpt><trkpt lat="43.0631014" lon="13.197795"><ele>720.8</ele><time>2026-04-26T07:19:51.947Z</time></trkpt><trkpt lat="43.0630118" lon="13.1977359"><ele>726.6</ele><time>2026-04-26T07:19:52.948Z</time></trkpt><trkpt lat="43.0629705" lon="13.1976299"><ele>732.4000000000001</ele><time>2026-04-26T07:19:53.95Z</time></trkpt><trkpt lat="43.0629858" lon="13.1975035"><ele>738.2</ele><time>2026-04-26T07:19:54.948Z</time></trkpt><trkpt lat="43.0630594" lon="13.1973871"><ele>744.0</ele><time>2026-04-26T07:19:55.946Z</time></trkpt><trkpt lat="43.0631525" lon="13.1972521"><ele>737.3333333333334</ele><time>2026-04-26T07:19:56.949Z</time></trkpt><trkpt lat="43.0632937" lon="13.1971157"><ele>730.6666666666667</ele><time>2026-04-26T07:19:57.953Z</time></trkpt><trkpt lat="43.0634321" lon="13.196952"><ele>724.0</ele><time>2026-04-26T07:19:58.952Z</time></trkpt><trkpt lat="43.063504" lon="13.1967229"><ele>731.0</ele><time>2026-04-26T07:19:59.953Z</time></trkpt><trkpt lat="43.0636003" lon="13.1964867"><ele>738.0</ele><time>2026-04-26T07:20:00.958Z</time></trkpt><trkpt lat="43.0637214" lon="13.1962562"><ele>745.0</ele><time>2026-04-26T07:20:01.947Z</time></trkpt><trkpt lat="43.0638372" lon="13.1960074"><ele>745.0</ele><time>2026-04-26T07:20:02.955Z</time></trkpt><trkpt lat="43.0639428" lon="13.1957569"><ele>745.0</ele><time>2026-04-26T07:20:03.949Z</time></trkpt><trkpt lat="43.0640566" lon="13.1955318"><ele>745.0</ele><time>2026-04-26T07:20:04.949Z</time></trkpt><trkpt lat="43.0641535" lon="13.1953169"><ele>731.6666666666667</ele><time>2026-04-26T07:20:05.948Z</time></trkpt><trkpt lat="43.0642349" lon="13.1951009"><ele>718.3333333333334</ele><time>2026-04-26T07:20:06.95Z</time></trkpt><trkpt lat="43.0642513" lon="13.1948547"><ele>705.0</ele><time>2026-04-26T07:20:07.948Z</time></trkpt><trkpt lat="43.0642332" lon="13.1945735"><ele>700.6666666666666</ele><time>2026-04-26T07:20:08.953Z</time></trkpt><trkpt lat="43.0642218" lon="13.1943188"><ele>696.3333333333333</ele><time>2026-04-26T07:20:09.953Z</time></trkpt><trkpt lat="43.0641965" lon="13.1940941"><ele>692.0</ele><time>2026-04-26T07:20:10.951Z</time></trkpt><trkpt lat="43.0641375" lon="13.1939099"><ele>698.5</ele><time>2026-04-26T07:20:11.955Z</time></trkpt><trkpt lat="43.0640425" lon="13.1937607"><ele>705.0</ele><time>2026-04-26T07:20:12.953Z</time></trkpt><trkpt lat="43.0639152" lon="13.1936666"><ele>711.5</ele><time>2026-04-26T07:20:13.955Z</time></trkpt><trkpt lat="43.0637983" lon="13.1935818"><ele>718.0</ele><time>2026-04-26T07:20:14.954Z</time></trkpt><trkpt lat="43.0637113" lon="13.1934537"><ele>718.0</ele><time>2026-04-26T07:20:15.953Z</time></trkpt><trkpt lat="43.0636774" lon="13.193281"><ele>718.0</ele><time>2026-04-26T07:20:16.946Z</time></trkpt><trkpt lat="43.0636998" lon="13.1931026"><ele>718.0</ele><time>2026-04-26T07:20:17.947Z</time></trkpt><trkpt lat="43.0637667" lon="13.1929305"><ele>718.0</ele><time>2026-04-26T07:20:18.949Z</time></trkpt><trkpt lat="43.0638254" lon="13.1927322"><ele>715.0</ele><time>2026-04-26T07:20:19.947Z</time></trkpt><trkpt lat="43.0638811" lon="13.1925184"><ele>712.0</ele><time>2026-04-26T07:20:20.949Z</time></trkpt><trkpt lat="43.0638676" lon="13.1922485"><ele>709.0</ele><time>2026-04-26T07:20:21.947Z</time></trkpt><trkpt lat="43.06384" lon="13.1919793"><ele>701.0</ele><time>2026-04-26T07:20:22.955Z</time></trkpt><trkpt lat="43.0637877" lon="13.1916927"><ele>693.0</ele><time>2026-04-26T07:20:23.948Z</time></trkpt><trkpt lat="43.0636674" lon="13.1914082"><ele>684.0</ele><time>2026-04-26T07:20:24.953Z</time></trkpt><trkpt lat="43.0635538" lon="13.1911497"><ele>675.0</ele><time>2026-04-26T07:20:25.954Z</time></trkpt><trkpt lat="43.0634519" lon="13.1909523"><ele>666.0</ele><time>2026-04-26T07:20:26.954Z</time></trkpt><trkpt lat="43.0633353" lon="13.1907972"><ele>663.0</ele><time>2026-04-26T07:20:27.949Z</time></trkpt><trkpt lat="43.0631867" lon="13.1906947"><ele>660.0</ele><time>2026-04-26T07:20:28.952Z</time></trkpt><trkpt lat="43.0630127" lon="13.1906592"><ele>657.0</ele><time>2026-04-26T07:20:29.95Z</time></trkpt><trkpt lat="43.0628288" lon="13.1906796"><ele>657.0</ele><time>2026-04-26T07:20:30.952Z</time></trkpt><trkpt lat="43.0626597" lon="13.1906818"><ele>657.0</ele><time>2026-04-26T07:20:31.952Z</time></trkpt><trkpt lat="43.0625056" lon="13.1906382"><ele>657.0</ele><time>2026-04-26T07:20:32.946Z</time></trkpt><trkpt lat="43.0623815" lon="13.1905369"><ele>675.6666666666666</ele><time>2026-04-26T07:20:33.97Z</time></trkpt><trkpt lat="43.0623057" lon="13.1903784"><ele>694.3333333333333</ele><time>2026-04-26T07:20:34.95Z</time></trkpt><trkpt lat="43.0622765" lon="13.1901797"><ele>713.0</ele><time>2026-04-26T07:20:35.947Z</time></trkpt><trkpt lat="43.0622907" lon="13.1899478"><ele>704.6666666666666</ele><time>2026-04-26T07:20:36.95Z</time></trkpt><trkpt lat="43.0623404" lon="13.189735"><ele>696.3333333333334</ele><time>2026-04-26T07:20:37.948Z</time></trkpt><trkpt lat="43.0623829" lon="13.1895392"><ele>688.0</ele><time>2026-04-26T07:20:38.957Z</time></trkpt><trkpt lat="43.0624139" lon="13.1893535"><ele>688.0</ele><time>2026-04-26T07:20:39.949Z</time></trkpt><trkpt lat="43.0623331" lon="13.189144"><ele>688.0</ele><time>2026-04-26T07:20:40.949Z</time></trkpt><trkpt lat="43.0622095" lon="13.1889324"><ele>688.0</ele><time>2026-04-26T07:20:41.952Z</time></trkpt><trkpt lat="43.0621005" lon="13.1887161"><ele>682.3333333333334</ele><time>2026-04-26T07:20:42.946Z</time></trkpt><trkpt lat="43.0619978" lon="13.1884906"><ele>676.6666666666666</ele><time>2026-04-26T07:20:43.947Z</time></trkpt><trkpt lat="43.0619738" lon="13.1882201"><ele>671.0</ele><time>2026-04-26T07:20:44.961Z</time></trkpt><trkpt lat="43.0619207" lon="13.1879581"><ele>658.0</ele><time>2026-04-26T07:20:45.951Z</time></trkpt><trkpt lat="43.0618201" lon="13.1876841"><ele>645.0</ele><time>2026-04-26T07:20:46.955Z</time></trkpt><trkpt lat="43.061688" lon="13.1874216"><ele>652.3333333333334</ele><time>2026-04-26T07:20:47.95Z</time></trkpt><trkpt lat="43.0615451" lon="13.1871925"><ele>659.6666666666667</ele><time>2026-04-26T07:20:48.953Z</time></trkpt><trkpt lat="43.0614062" lon="13.1869776"><ele>667.0</ele><time>2026-04-26T07:20:49.951Z</time></trkpt><trkpt lat="43.061268" lon="13.1867792"><ele>667.0</ele><time>2026-04-26T07:20:50.948Z</time></trkpt><trkpt lat="43.0611374" lon="13.1865924"><ele>667.0</ele><time>2026-04-26T07:20:51.959Z</time></trkpt><trkpt lat="43.0610245" lon="13.1864075"><ele>667.0</ele><time>2026-04-26T07:20:52.95Z</time></trkpt><trkpt lat="43.0609275" lon="13.1862226"><ele>673.3333333333334</ele><time>2026-04-26T07:20:53.95Z</time></trkpt><trkpt lat="43.0608375" lon="13.1860442"><ele>679.6666666666666</ele><time>2026-04-26T07:20:54.947Z</time></trkpt><trkpt lat="43.0607489" lon="13.185871"><ele>686.0</ele><time>2026-04-26T07:20:55.955Z</time></trkpt><trkpt lat="43.0606564" lon="13.1857043"><ele>675.3333333333333</ele><time>2026-04-26T07:20:56.953Z</time></trkpt><trkpt lat="43.0605562" lon="13.1855422"><ele>664.6666666666666</ele><time>2026-04-26T07:20:57.949Z</time></trkpt><trkpt lat="43.0604475" lon="13.1853885"><ele>654.0</ele><time>2026-04-26T07:20:58.956Z</time></trkpt><trkpt lat="43.0603349" lon="13.1852436"><ele>654.0</ele><time>2026-04-26T07:20:59.949Z</time></trkpt><trkpt lat="43.0602225" lon="13.1850997"><ele>654.0</ele><time>2026-04-26T07:21:00.954Z</time></trkpt><trkpt lat="43.0601141" lon="13.1849504"><ele>654.0</ele><time>2026-04-26T07:21:01.95Z</time></trkpt><trkpt lat="43.0600094" lon="13.1847978"><ele>656.0</ele><time>2026-04-26T07:21:02.953Z</time></trkpt><trkpt lat="43.0599098" lon="13.184643"><ele>658.0</ele><time>2026-04-26T07:21:03.946Z</time></trkpt><trkpt lat="43.0598111" lon="13.1844879"><ele>660.0</ele><time>2026-04-26T07:21:04.95Z</time></trkpt><trkpt lat="43.0597112" lon="13.184335"><ele>660.0</ele><time>2026-04-26T07:21:05.951Z</time></trkpt><trkpt lat="43.0596043" lon="13.1841938"><ele>660.0</ele><time>2026-04-26T07:21:06.949Z</time></trkpt><trkpt lat="43.0594819" lon="13.1840805"><ele>660.0</ele><time>2026-04-26T07:21:07.951Z</time></trkpt><trkpt lat="43.059347" lon="13.183991"><ele>660.0</ele><time>2026-04-26T07:21:08.949Z</time></trkpt><trkpt lat="43.0592094" lon="13.1839059"><ele>655.6666666666666</ele><time>2026-04-26T07:21:09.949Z</time></trkpt><trkpt lat="43.0590737" lon="13.1838137"><ele>651.3333333333333</ele><time>2026-04-26T07:21:10.952Z</time></trkpt><trkpt lat="43.0589385" lon="13.1837186"><ele>647.0</ele><time>2026-04-26T07:21:11.95Z</time></trkpt><trkpt lat="43.0588031" lon="13.1836259"><ele>647.0</ele><time>2026-04-26T07:21:12.952Z</time></trkpt><trkpt lat="43.0586681" lon="13.1835322"><ele>647.0</ele><time>2026-04-26T07:21:13.952Z</time></trkpt><trkpt lat="43.0585345" lon="13.1834344"><ele>647.0</ele><time>2026-04-26T07:21:14.952Z</time></trkpt><trkpt lat="43.0584035" lon="13.183336"><ele>646.0</ele><time>2026-04-26T07:21:15.954Z</time></trkpt><trkpt lat="43.0582776" lon="13.1832438"><ele>645.0</ele><time>2026-04-26T07:21:16.956Z</time></trkpt><trkpt lat="43.0581523" lon="13.1831532"><ele>644.0</ele><time>2026-04-26T07:21:17.949Z</time></trkpt><trkpt lat="43.0580276" lon="13.1830641"><ele>643.0</ele><time>2026-04-26T07:21:18.95Z</time></trkpt><trkpt lat="43.0579094" lon="13.1829813"><ele>643.0</ele><time>2026-04-26T07:21:19.948Z</time></trkpt><trkpt lat="43.0578014" lon="13.1829037"><ele>643.0</ele><time>2026-04-26T07:21:20.951Z</time></trkpt><trkpt lat="43.0577047" lon="13.1828251"><ele>643.0</ele><time>2026-04-26T07:21:21.949Z</time></trkpt><trkpt lat="43.0576144" lon="13.1827365"><ele>643.0</ele><time>2026-04-26T07:21:22.947Z</time></trkpt><trkpt lat="43.0575253" lon="13.1826342"><ele>642.0</ele><time>2026-04-26T07:21:23.948Z</time></trkpt><trkpt lat="43.0574359" lon="13.1825249"><ele>641.0</ele><time>2026-04-26T07:21:24.95Z</time></trkpt><trkpt lat="43.0573445" lon="13.1824114"><ele>640.0</ele><time>2026-04-26T07:21:25.95Z</time></trkpt><trkpt lat="43.0572511" lon="13.1822961"><ele>639.0</ele><time>2026-04-26T07:21:26.948Z</time></trkpt><trkpt lat="43.0571539" lon="13.1821801"><ele>639.0</ele><time>2026-04-26T07:21:27.952Z</time></trkpt><trkpt lat="43.0570546" lon="13.1820639"><ele>639.0</ele><time>2026-04-26T07:21:28.956Z</time></trkpt><trkpt lat="43.056953" lon="13.1819496"><ele>639.0</ele><time>2026-04-26T07:21:29.954Z</time></trkpt><trkpt lat="43.056851" lon="13.18184"><ele>639.0</ele><time>2026-04-26T07:21:30.949Z</time></trkpt><trkpt lat="43.0567481" lon="13.181737"><ele>639.0</ele><time>2026-04-26T07:21:31.949Z</time></trkpt><trkpt lat="43.0566442" lon="13.1816429"><ele>639.0</ele><time>2026-04-26T07:21:32.948Z</time></trkpt><trkpt lat="43.0565423" lon="13.1815718"><ele>639.0</ele><time>2026-04-26T07:21:33.952Z</time></trkpt><trkpt lat="43.0564373" lon="13.1815337"><ele>639.0</ele><time>2026-04-26T07:21:34.958Z</time></trkpt><trkpt lat="43.056329" lon="13.1815446"><ele>639.0</ele><time>2026-04-26T07:21:35.951Z</time></trkpt><trkpt lat="43.0562286" lon="13.1816168"><ele>639.0</ele><time>2026-04-26T07:21:36.954Z</time></trkpt><trkpt lat="43.0561455" lon="13.1817379"><ele>639.0</ele><time>2026-04-26T07:21:37.948Z</time></trkpt><trkpt lat="43.0560808" lon="13.1818942"><ele>639.0</ele><time>2026-04-26T07:21:38.951Z</time></trkpt><trkpt lat="43.0560325" lon="13.1820721"><ele>639.0</ele><time>2026-04-26T07:21:39.951Z</time></trkpt><trkpt lat="43.0559902" lon="13.1822586"><ele>639.0</ele><time>2026-04-26T07:21:40.948Z</time></trkpt><trkpt lat="43.0559403" lon="13.1824443"><ele>639.0</ele><time>2026-04-26T07:21:41.956Z</time></trkpt><trkpt lat="43.0558791" lon="13.1826286"><ele>639.0</ele><time>2026-04-26T07:21:42.946Z</time></trkpt><trkpt lat="43.0558134" lon="13.1828162"><ele>640.6666666666666</ele><time>2026-04-26T07:21:43.947Z</time></trkpt><trkpt lat="43.055742" lon="13.1830042"><ele>642.3333333333333</ele><time>2026-04-26T07:21:44.95Z</time></trkpt><trkpt lat="43.0556581" lon="13.1831825"><ele>644.0</ele><time>2026-04-26T07:21:45.949Z</time></trkpt><trkpt lat="43.0555593" lon="13.1833407"><ele>644.0</ele><time>2026-04-26T07:21:46.955Z</time></trkpt><trkpt lat="43.0554415" lon="13.1834676"><ele>644.0</ele><time>2026-04-26T07:21:47.948Z</time></trkpt><trkpt lat="43.0553068" lon="13.1835602"><ele>644.0</ele><time>2026-04-26T07:21:48.949Z</time></trkpt><trkpt lat="43.0551592" lon="13.1836168"><ele>644.0</ele><time>2026-04-26T07:21:49.95Z</time></trkpt><trkpt lat="43.055013" lon="13.1836343"><ele>644.0</ele><time>2026-04-26T07:21:50.948Z</time></trkpt><trkpt lat="43.0548764" lon="13.1836261"><ele>644.0</ele><time>2026-04-26T07:21:51.951Z</time></trkpt><trkpt lat="43.0547479" lon="13.1836303"><ele>644.0</ele><time>2026-04-26T07:21:52.951Z</time></trkpt><trkpt lat="43.0546282" lon="13.1836847"><ele>645.5</ele><time>2026-04-26T07:21:53.95Z</time></trkpt><trkpt lat="43.0545366" lon="13.1838007"><ele>647.0</ele><time>2026-04-26T07:21:54.95Z</time></trkpt><trkpt lat="43.0544845" lon="13.1839447"><ele>648.5</ele><time>2026-04-26T07:21:55.944Z</time></trkpt><trkpt lat="43.05446" lon="13.1840923"><ele>650.0</ele><time>2026-04-26T07:21:56.953Z</time></trkpt><trkpt lat="43.0544462" lon="13.1842342"><ele>650.0</ele><time>2026-04-26T07:21:57.95Z</time></trkpt><trkpt lat="43.0544297" lon="13.1843832"><ele>650.0</ele><time>2026-04-26T07:21:58.96Z</time></trkpt><trkpt lat="43.0544003" lon="13.1845376"><ele>650.0</ele><time>2026-04-26T07:21:59.955Z</time></trkpt><trkpt lat="43.0543576" lon="13.1846884"><ele>650.0</ele><time>2026-04-26T07:22:00.956Z</time></trkpt><trkpt lat="43.0543093" lon="13.1848195"><ele>651.4</ele><time>2026-04-26T07:22:01.945Z</time></trkpt><trkpt lat="43.054246" lon="13.1849195"><ele>652.8</ele><time>2026-04-26T07:22:02.948Z</time></trkpt><trkpt lat="43.0541645" lon="13.184973"><ele>654.2</ele><time>2026-04-26T07:22:03.948Z</time></trkpt><trkpt lat="43.0540801" lon="13.1849508"><ele>655.6</ele><time>2026-04-26T07:22:04.95Z</time></trkpt><trkpt lat="43.0540202" lon="13.1848528"><ele>657.0</ele><time>2026-04-26T07:22:05.947Z</time></trkpt><trkpt lat="43.053999" lon="13.1847005"><ele>669.0</ele><time>2026-04-26T07:22:06.943Z</time></trkpt><trkpt lat="43.0539978" lon="13.1845244"><ele>681.0</ele><time>2026-04-26T07:22:07.946Z</time></trkpt><trkpt lat="43.0539951" lon="13.1843445"><ele>693.0</ele><time>2026-04-26T07:22:08.949Z</time></trkpt><trkpt lat="43.0539909" lon="13.1841743"><ele>705.0</ele><time>2026-04-26T07:22:09.946Z</time></trkpt><trkpt lat="43.0539884" lon="13.1840194"><ele>706.75</ele><time>2026-04-26T07:22:10.95Z</time></trkpt><trkpt lat="43.0539899" lon="13.1838716"><ele>708.5</ele><time>2026-04-26T07:22:11.944Z</time></trkpt><trkpt lat="43.0539981" lon="13.1837155"><ele>710.25</ele><time>2026-04-26T07:22:12.949Z</time></trkpt><trkpt lat="43.0540091" lon="13.1835523"><ele>712.0</ele><time>2026-04-26T07:22:13.949Z</time></trkpt><trkpt lat="43.0540513" lon="13.1833753"><ele>712.0</ele><time>2026-04-26T07:22:14.95Z</time></trkpt><trkpt lat="43.0540922" lon="13.1831989"><ele>712.0</ele><time>2026-04-26T07:22:15.958Z</time></trkpt><trkpt lat="43.0541427" lon="13.1830124"><ele>712.0</ele><time>2026-04-26T07:22:16.954Z</time></trkpt><trkpt lat="43.0542" lon="13.1828351"><ele>712.0</ele><time>2026-04-26T07:22:17.954Z</time></trkpt><trkpt lat="43.0543031" lon="13.1827061"><ele>708.6</ele><time>2026-04-26T07:22:18.956Z</time></trkpt><trkpt lat="43.0543851" lon="13.1826041"><ele>705.2</ele><time>2026-04-26T07:22:19.953Z</time></trkpt><trkpt lat="43.054462" lon="13.1825094"><ele>701.8</ele><time>2026-04-26T07:22:20.954Z</time></trkpt><trkpt lat="43.0545451" lon="13.1823997"><ele>698.4</ele><time>2026-04-26T07:22:21.955Z</time></trkpt><trkpt lat="43.054622" lon="13.1822774"><ele>695.0</ele><time>2026-04-26T07:22:22.954Z</time></trkpt><trkpt lat="43.0546816" lon="13.1821507"><ele>695.0</ele><time>2026-04-26T07:22:23.948Z</time></trkpt><trkpt lat="43.0547162" lon="13.1820223"><ele>695.0</ele><time>2026-04-26T07:22:24.952Z</time></trkpt><trkpt lat="43.0547329" lon="13.1818906"><ele>695.0</ele><time>2026-04-26T07:22:25.952Z</time></trkpt><trkpt lat="43.0547336" lon="13.1817632"><ele>695.0</ele><time>2026-04-26T07:22:26.951Z</time></trkpt><trkpt lat="43.0547163" lon="13.1816313"><ele>695.0</ele><time>2026-04-26T07:22:27.952Z</time></trkpt><trkpt lat="43.054694" lon="13.1814893"><ele>692.0</ele><time>2026-04-26T07:22:28.953Z</time></trkpt><trkpt lat="43.0546713" lon="13.1813354"><ele>689.0</ele><time>2026-04-26T07:22:29.952Z</time></trkpt><trkpt lat="43.0546452" lon="13.1811678"><ele>686.0</ele><time>2026-04-26T07:22:30.954Z</time></trkpt><trkpt lat="43.0546214" lon="13.180991"><ele>683.0</ele><time>2026-04-26T07:22:31.95Z</time></trkpt><trkpt lat="43.0545924" lon="13.18081"><ele>677.0</ele><time>2026-04-26T07:22:32.95Z</time></trkpt><trkpt lat="43.0545462" lon="13.1806365"><ele>671.0</ele><time>2026-04-26T07:22:33.947Z</time></trkpt><trkpt lat="43.0544706" lon="13.1804853"><ele>665.0</ele><time>2026-04-26T07:22:34.952Z</time></trkpt><trkpt lat="43.0543944" lon="13.1803613"><ele>659.0</ele><time>2026-04-26T07:22:35.962Z</time></trkpt><trkpt lat="43.0542933" lon="13.1802538"><ele>659.0</ele><time>2026-04-26T07:22:36.952Z</time></trkpt><trkpt lat="43.0541918" lon="13.180153"><ele>659.0</ele><time>2026-04-26T07:22:37.965Z</time></trkpt><trkpt lat="43.0540874" lon="13.180041"><ele>659.0</ele><time>2026-04-26T07:22:38.949Z</time></trkpt><trkpt lat="43.0539766" lon="13.1799212"><ele>659.0</ele><time>2026-04-26T07:22:39.957Z</time></trkpt><trkpt lat="43.0538585" lon="13.1797959"><ele>659.0</ele><time>2026-04-26T07:22:40.948Z</time></trkpt><trkpt lat="43.0537378" lon="13.1796685"><ele>659.0</ele><time>2026-04-26T07:22:41.953Z</time></trkpt><trkpt lat="43.053618" lon="13.1795389"><ele>659.0</ele><time>2026-04-26T07:22:42.954Z</time></trkpt><trkpt lat="43.0534981" lon="13.1794141"><ele>659.0</ele><time>2026-04-26T07:22:43.958Z</time></trkpt><trkpt lat="43.0533793" lon="13.1792912"><ele>659.0</ele><time>2026-04-26T07:22:44.953Z</time></trkpt><trkpt lat="43.0532645" lon="13.1791719"><ele>659.0</ele><time>2026-04-26T07:22:45.958Z</time></trkpt><trkpt lat="43.0531585" lon="13.1790567"><ele>659.0</ele><time>2026-04-26T07:22:46.957Z</time></trkpt><trkpt lat="43.0530562" lon="13.1789448"><ele>659.75</ele><time>2026-04-26T07:22:47.95Z</time></trkpt><trkpt lat="43.0529553" lon="13.1788378"><ele>660.5</ele><time>2026-04-26T07:22:48.952Z</time></trkpt><trkpt lat="43.0528587" lon="13.178734"><ele>661.25</ele><time>2026-04-26T07:22:49.954Z</time></trkpt><trkpt lat="43.052765" lon="13.1786315"><ele>662.0</ele><time>2026-04-26T07:22:50.959Z</time></trkpt><trkpt lat="43.0526744" lon="13.1785322"><ele>662.0</ele><time>2026-04-26T07:22:51.95Z</time></trkpt><trkpt lat="43.0525824" lon="13.1784353"><ele>662.0</ele><time>2026-04-26T07:22:52.957Z</time></trkpt><trkpt lat="43.0524919" lon="13.1783382"><ele>662.0</ele><time>2026-04-26T07:22:53.954Z</time></trkpt><trkpt lat="43.0524044" lon="13.1782439"><ele>662.0</ele><time>2026-04-26T07:22:54.954Z</time></trkpt><trkpt lat="43.0523228" lon="13.1781586"><ele>662.0</ele><time>2026-04-26T07:22:55.953Z</time></trkpt><trkpt lat="43.0522457" lon="13.1780834"><ele>664.0</ele><time>2026-04-26T07:22:56.955Z</time></trkpt><trkpt lat="43.0521687" lon="13.1780122"><ele>666.0</ele><time>2026-04-26T07:22:57.951Z</time></trkpt><trkpt lat="43.0520866" lon="13.1779422"><ele>668.0</ele><time>2026-04-26T07:22:58.953Z</time></trkpt><trkpt lat="43.0520071" lon="13.1778737"><ele>670.0</ele><time>2026-04-26T07:22:59.954Z</time></trkpt><trkpt lat="43.0519344" lon="13.1778094"><ele>672.0</ele><time>2026-04-26T07:23:00.954Z</time></trkpt><trkpt lat="43.0518608" lon="13.1777471"><ele>672.0</ele><time>2026-04-26T07:23:01.95Z</time></trkpt><trkpt lat="43.0517852" lon="13.1776745"><ele>672.0</ele><time>2026-04-26T07:23:02.957Z</time></trkpt><trkpt lat="43.0517234" lon="13.1775793"><ele>672.0</ele><time>2026-04-26T07:23:03.959Z</time></trkpt><trkpt lat="43.0516836" lon="13.1774647"><ele>672.0</ele><time>2026-04-26T07:23:04.953Z</time></trkpt><trkpt lat="43.0516688" lon="13.1773348"><ele>672.0</ele><time>2026-04-26T07:23:05.956Z</time></trkpt><trkpt lat="43.0516734" lon="13.1771968"><ele>672.5</ele><time>2026-04-26T07:23:06.959Z</time></trkpt><trkpt lat="43.0516873" lon="13.177054"><ele>673.0</ele><time>2026-04-26T07:23:07.956Z</time></trkpt><trkpt lat="43.051702" lon="13.1769037"><ele>673.5</ele><time>2026-04-26T07:23:08.954Z</time></trkpt><trkpt lat="43.0517148" lon="13.176744"><ele>674.0</ele><time>2026-04-26T07:23:09.954Z</time></trkpt><trkpt lat="43.0517226" lon="13.1765695"><ele>673.5</ele><time>2026-04-26T07:23:10.955Z</time></trkpt><trkpt lat="43.0517187" lon="13.1763933"><ele>673.0</ele><time>2026-04-26T07:23:11.953Z</time></trkpt><trkpt lat="43.0517041" lon="13.1762184"><ele>672.5</ele><time>2026-04-26T07:23:12.956Z</time></trkpt><trkpt lat="43.0516813" lon="13.1760458"><ele>672.0</ele><time>2026-04-26T07:23:13.946Z</time></trkpt><trkpt lat="43.0516501" lon="13.1758761"><ele>680.25</ele><time>2026-04-26T07:23:14.956Z</time></trkpt><trkpt lat="43.0516143" lon="13.1757113"><ele>688.5</ele><time>2026-04-26T07:23:15.953Z</time></trkpt><trkpt lat="43.0515772" lon="13.1755509"><ele>696.75</ele><time>2026-04-26T07:23:16.953Z</time></trkpt><trkpt lat="43.0515388" lon="13.1753908"><ele>705.0</ele><time>2026-04-26T07:23:17.954Z</time></trkpt><trkpt lat="43.0515017" lon="13.1752291"><ele>705.0</ele><time>2026-04-26T07:23:18.952Z</time></trkpt><trkpt lat="43.0514678" lon="13.1750645"><ele>705.0</ele><time>2026-04-26T07:23:19.955Z</time></trkpt><trkpt lat="43.0514423" lon="13.1748956"><ele>705.0</ele><time>2026-04-26T07:23:20.953Z</time></trkpt><trkpt lat="43.0514262" lon="13.174727"><ele>705.0</ele><time>2026-04-26T07:23:21.95Z</time></trkpt><trkpt lat="43.0514192" lon="13.1745596"><ele>701.25</ele><time>2026-04-26T07:23:22.956Z</time></trkpt><trkpt lat="43.0514171" lon="13.1743926"><ele>697.5</ele><time>2026-04-26T07:23:23.95Z</time></trkpt><trkpt lat="43.0514158" lon="13.1742237"><ele>693.75</ele><time>2026-04-26T07:23:24.952Z</time></trkpt><trkpt lat="43.0514138" lon="13.1740577"><ele>690.0</ele><time>2026-04-26T07:23:25.956Z</time></trkpt><trkpt lat="43.05141" lon="13.1739033"><ele>686.6</ele><time>2026-04-26T07:23:26.951Z</time></trkpt><trkpt lat="43.0513951" lon="13.1737622"><ele>683.2</ele><time>2026-04-26T07:23:27.956Z</time></trkpt><trkpt lat="43.0513691" lon="13.1736309"><ele>679.8</ele><time>2026-04-26T07:23:28.953Z</time></trkpt><trkpt lat="43.0513278" lon="13.1735088"><ele>676.4</ele><time>2026-04-26T07:23:29.952Z</time></trkpt><trkpt lat="43.0512614" lon="13.1734002"><ele>673.0</ele><time>2026-04-26T07:23:30.956Z</time></trkpt><trkpt lat="43.0511704" lon="13.1733089"><ele>673.0</ele><time>2026-04-26T07:23:31.952Z</time></trkpt><trkpt lat="43.0510634" lon="13.1732309"><ele>673.0</ele><time>2026-04-26T07:23:32.954Z</time></trkpt><trkpt lat="43.0509452" lon="13.1731583"><ele>673.0</ele><time>2026-04-26T07:23:33.955Z</time></trkpt><trkpt lat="43.0508181" lon="13.1730869"><ele>673.0</ele><time>2026-04-26T07:23:34.956Z</time></trkpt><trkpt lat="43.050685" lon="13.1730131"><ele>669.5</ele><time>2026-04-26T07:23:35.953Z</time></trkpt><trkpt lat="43.0505484" lon="13.1729372"><ele>666.0</ele><time>2026-04-26T07:23:36.949Z</time></trkpt><trkpt lat="43.0504108" lon="13.1728615"><ele>662.5</ele><time>2026-04-26T07:23:37.956Z</time></trkpt><trkpt lat="43.0502728" lon="13.1727843"><ele>659.0</ele><time>2026-04-26T07:23:38.949Z</time></trkpt><trkpt lat="43.0501323" lon="13.1727076"><ele>659.0</ele><time>2026-04-26T07:23:39.951Z</time></trkpt><trkpt lat="43.0499891" lon="13.1726331"><ele>659.0</ele><time>2026-04-26T07:23:40.953Z</time></trkpt><trkpt lat="43.0498445" lon="13.1725613"><ele>659.0</ele><time>2026-04-26T07:23:41.949Z</time></trkpt><trkpt lat="43.0496996" lon="13.1724933"><ele>660.5</ele><time>2026-04-26T07:23:42.95Z</time></trkpt><trkpt lat="43.0495591" lon="13.1724325"><ele>662.0</ele><time>2026-04-26T07:23:43.954Z</time></trkpt><trkpt lat="43.0494185" lon="13.1723784"><ele>663.5</ele><time>2026-04-26T07:23:44.951Z</time></trkpt><trkpt lat="43.0492793" lon="13.1723278"><ele>665.0</ele><time>2026-04-26T07:23:45.952Z</time></trkpt><trkpt lat="43.0491438" lon="13.1722755"><ele>663.75</ele><time>2026-04-26T07:23:46.954Z</time></trkpt><trkpt lat="43.0490072" lon="13.1722171"><ele>662.5</ele><time>2026-04-26T07:23:47.951Z</time></trkpt><trkpt lat="43.0488677" lon="13.1721504"><ele>661.25</ele><time>2026-04-26T07:23:48.965Z</time></trkpt><trkpt lat="43.0487281" lon="13.1720742"><ele>660.0</ele><time>2026-04-26T07:23:49.953Z</time></trkpt><trkpt lat="43.0485885" lon="13.1719907"><ele>660.0</ele><time>2026-04-26T07:23:50.953Z</time></trkpt><trkpt lat="43.0484458" lon="13.1719042"><ele>660.0</ele><time>2026-04-26T07:23:51.951Z</time></trkpt><trkpt lat="43.0483" lon="13.1718194"><ele>660.0</ele><time>2026-04-26T07:23:52.946Z</time></trkpt><trkpt lat="43.0481518" lon="13.1717362"><ele>662.0</ele><time>2026-04-26T07:23:53.953Z</time></trkpt><trkpt lat="43.0480001" lon="13.1716553"><ele>664.0</ele><time>2026-04-26T07:23:54.948Z</time></trkpt><trkpt lat="43.0478469" lon="13.1715742"><ele>666.0</ele><time>2026-04-26T07:23:55.95Z</time></trkpt><trkpt lat="43.0476928" lon="13.1714898"><ele>664.0</ele><time>2026-04-26T07:23:56.954Z</time></trkpt><trkpt lat="43.0475382" lon="13.1714002"><ele>662.0</ele><time>2026-04-26T07:23:57.955Z</time></trkpt><trkpt lat="43.0473846" lon="13.1713025"><ele>660.0</ele><time>2026-04-26T07:23:58.95Z</time></trkpt><trkpt lat="43.0472341" lon="13.1711935"><ele>660.0</ele><time>2026-04-26T07:23:59.953Z</time></trkpt><trkpt lat="43.0470892" lon="13.1710702"><ele>660.0</ele><time>2026-04-26T07:24:00.952Z</time></trkpt><trkpt lat="43.0469493" lon="13.1709347"><ele>660.0</ele><time>2026-04-26T07:24:01.952Z</time></trkpt><trkpt lat="43.046812" lon="13.1707943"><ele>657.6666666666666</ele><time>2026-04-26T07:24:02.949Z</time></trkpt><trkpt lat="43.0466751" lon="13.1706544"><ele>655.3333333333333</ele><time>2026-04-26T07:24:03.952Z</time></trkpt><trkpt lat="43.046536" lon="13.1705192"><ele>653.0</ele><time>2026-04-26T07:24:04.957Z</time></trkpt><trkpt lat="43.046394" lon="13.170393"><ele>653.0</ele><time>2026-04-26T07:24:05.952Z</time></trkpt><trkpt lat="43.0462452" lon="13.1702845"><ele>653.0</ele><time>2026-04-26T07:24:06.954Z</time></trkpt><trkpt lat="43.0460862" lon="13.1702034"><ele>653.0</ele><time>2026-04-26T07:24:07.961Z</time></trkpt><trkpt lat="43.045921" lon="13.1701491"><ele>653.3333333333333</ele><time>2026-04-26T07:24:08.952Z</time></trkpt><trkpt lat="43.0457528" lon="13.1701136"><ele>653.6666666666666</ele><time>2026-04-26T07:24:09.952Z</time></trkpt><trkpt lat="43.0455834" lon="13.1700833"><ele>654.0</ele><time>2026-04-26T07:24:10.957Z</time></trkpt><trkpt lat="43.0454127" lon="13.1700488"><ele>654.0</ele><time>2026-04-26T07:24:11.951Z</time></trkpt><trkpt lat="43.0452422" lon="13.1700052"><ele>654.0</ele><time>2026-04-26T07:24:12.952Z</time></trkpt><trkpt lat="43.0450718" lon="13.1699546"><ele>654.0</ele><time>2026-04-26T07:24:13.953Z</time></trkpt><trkpt lat="43.0449008" lon="13.1698994"><ele>652.6666666666666</ele><time>2026-04-26T07:24:14.95Z</time></trkpt><trkpt lat="43.0447296" lon="13.1698411"><ele>651.3333333333333</ele><time>2026-04-26T07:24:15.949Z</time></trkpt><trkpt lat="43.0445588" lon="13.1697793"><ele>650.0</ele><time>2026-04-26T07:24:16.952Z</time></trkpt><trkpt lat="43.044389" lon="13.1697142"><ele>650.0</ele><time>2026-04-26T07:24:17.952Z</time></trkpt><trkpt lat="43.0442201" lon="13.1696481"><ele>650.0</ele><time>2026-04-26T07:24:18.949Z</time></trkpt><trkpt lat="43.0440557" lon="13.1695814"><ele>650.0</ele><time>2026-04-26T07:24:19.95Z</time></trkpt><trkpt lat="43.0438901" lon="13.1694979"><ele>651.6666666666666</ele><time>2026-04-26T07:24:20.95Z</time></trkpt><trkpt lat="43.043727" lon="13.1694012"><ele>653.3333333333334</ele><time>2026-04-26T07:24:21.949Z</time></trkpt><trkpt lat="43.0435685" lon="13.1692968"><ele>655.0</ele><time>2026-04-26T07:24:22.951Z</time></trkpt><trkpt lat="43.0434117" lon="13.1691865"><ele>656.3333333333334</ele><time>2026-04-26T07:24:23.955Z</time></trkpt><trkpt lat="43.0432523" lon="13.1690744"><ele>657.6666666666666</ele><time>2026-04-26T07:24:24.952Z</time></trkpt><trkpt lat="43.0430959" lon="13.1689646"><ele>659.0</ele><time>2026-04-26T07:24:25.948Z</time></trkpt><trkpt lat="43.0429374" lon="13.1688538"><ele>659.0</ele><time>2026-04-26T07:24:26.953Z</time></trkpt><trkpt lat="43.0427786" lon="13.1687398"><ele>659.0</ele><time>2026-04-26T07:24:27.951Z</time></trkpt><trkpt lat="43.0426201" lon="13.168622"><ele>659.0</ele><time>2026-04-26T07:24:28.95Z</time></trkpt><trkpt lat="43.04246" lon="13.1685065"><ele>658.6666666666666</ele><time>2026-04-26T07:24:29.953Z</time></trkpt><trkpt lat="43.0422987" lon="13.1683938"><ele>658.3333333333334</ele><time>2026-04-26T07:24:30.953Z</time></trkpt><trkpt lat="43.0421352" lon="13.168283"><ele>658.0</ele><time>2026-04-26T07:24:31.959Z</time></trkpt><trkpt lat="43.0419725" lon="13.1681712"><ele>658.0</ele><time>2026-04-26T07:24:32.949Z</time></trkpt><trkpt lat="43.0418086" lon="13.1680592"><ele>658.0</ele><time>2026-04-26T07:24:33.954Z</time></trkpt><trkpt lat="43.0416415" lon="13.1679587"><ele>658.0</ele><time>2026-04-26T07:24:34.95Z</time></trkpt><trkpt lat="43.0414709" lon="13.1678729"><ele>657.6666666666667</ele><time>2026-04-26T07:24:35.952Z</time></trkpt><trkpt lat="43.0412963" lon="13.1677981"><ele>657.3333333333334</ele><time>2026-04-26T07:24:36.953Z</time></trkpt><trkpt lat="43.0411206" lon="13.1677307"><ele>657.0</ele><time>2026-04-26T07:24:37.955Z</time></trkpt><trkpt lat="43.0409445" lon="13.1676656"><ele>657.0</ele><time>2026-04-26T07:24:38.952Z</time></trkpt><trkpt lat="43.0407697" lon="13.1676004"><ele>657.0</ele><time>2026-04-26T07:24:39.958Z</time></trkpt><trkpt lat="43.0405957" lon="13.1675361"><ele>657.0</ele><time>2026-04-26T07:24:40.954Z</time></trkpt><trkpt lat="43.0404243" lon="13.1674726"><ele>657.0</ele><time>2026-04-26T07:24:41.959Z</time></trkpt><trkpt lat="43.0402552" lon="13.1674108"><ele>657.0</ele><time>2026-04-26T07:24:42.95Z</time></trkpt><trkpt lat="43.0400887" lon="13.1673541"><ele>657.0</ele><time>2026-04-26T07:24:43.955Z</time></trkpt><trkpt lat="43.0399267" lon="13.1672947"><ele>655.6666666666666</ele><time>2026-04-26T07:24:44.951Z</time></trkpt><trkpt lat="43.0397768" lon="13.1672259"><ele>654.3333333333333</ele><time>2026-04-26T07:24:45.95Z</time></trkpt><trkpt lat="43.0396365" lon="13.1671441"><ele>653.0</ele><time>2026-04-26T07:24:46.951Z</time></trkpt><trkpt lat="43.0395082" lon="13.1670401"><ele>653.0</ele><time>2026-04-26T07:24:47.954Z</time></trkpt><trkpt lat="43.0393954" lon="13.1669107"><ele>653.0</ele><time>2026-04-26T07:24:48.949Z</time></trkpt><trkpt lat="43.039295" lon="13.1667659"><ele>653.0</ele><time>2026-04-26T07:24:49.948Z</time></trkpt><trkpt lat="43.0391972" lon="13.1666161"><ele>653.0</ele><time>2026-04-26T07:24:50.951Z</time></trkpt><trkpt lat="43.0390984" lon="13.1664672"><ele>653.5</ele><time>2026-04-26T07:24:51.95Z</time></trkpt><trkpt lat="43.0389972" lon="13.1663317"><ele>654.0</ele><time>2026-04-26T07:24:52.954Z</time></trkpt><trkpt lat="43.0388915" lon="13.1662157"><ele>654.5</ele><time>2026-04-26T07:24:53.956Z</time></trkpt><trkpt lat="43.0387928" lon="13.1661277"><ele>655.0</ele><time>2026-04-26T07:24:54.953Z</time></trkpt><trkpt lat="43.0387085" lon="13.1660477"><ele>655.0</ele><time>2026-04-26T07:24:55.955Z</time></trkpt><trkpt lat="43.03864" lon="13.165962"><ele>655.0</ele><time>2026-04-26T07:24:56.954Z</time></trkpt><trkpt lat="43.0386134" lon="13.1658652"><ele>655.0</ele><time>2026-04-26T07:24:57.959Z</time></trkpt><trkpt lat="43.0386183" lon="13.1657695"><ele>655.0</ele><time>2026-04-26T07:24:58.95Z</time></trkpt><trkpt lat="43.0386758" lon="13.1656478"><ele>655.0</ele><time>2026-04-26T07:25:00.955Z</time></trkpt><trkpt lat="43.0387251" lon="13.1655495"><ele>655.0</ele><time>2026-04-26T07:25:02.955Z</time></trkpt><trkpt lat="43.0387351" lon="13.1654233"><ele>652.6</ele><time>2026-04-26T07:25:05.952Z</time></trkpt><trkpt lat="43.0387025" lon="13.1653022"><ele>650.2</ele><time>2026-04-26T07:25:07.956Z</time></trkpt><trkpt lat="43.0386062" lon="13.1651614"><ele>647.8</ele><time>2026-04-26T07:25:09.954Z</time></trkpt><trkpt lat="43.0385093" lon="13.1651366"><ele>645.4</ele><time>2026-04-26T07:25:10.954Z</time></trkpt><trkpt lat="43.038401" lon="13.1651364"><ele>643.0</ele><time>2026-04-26T07:25:11.954Z</time></trkpt><trkpt lat="43.0382965" lon="13.1651105"><ele>642.25</ele><time>2026-04-26T07:25:12.957Z</time></trkpt><trkpt lat="43.0381974" lon="13.1650364"><ele>641.5</ele><time>2026-04-26T07:25:13.959Z</time></trkpt><trkpt lat="43.0381173" lon="13.1649157"><ele>640.75</ele><time>2026-04-26T07:25:14.954Z</time></trkpt><trkpt lat="43.0380416" lon="13.1647835"><ele>640.0</ele><time>2026-04-26T07:25:15.954Z</time></trkpt><trkpt lat="43.0379643" lon="13.1646469"><ele>640.0</ele><time>2026-04-26T07:25:16.952Z</time></trkpt><trkpt lat="43.037881" lon="13.1645059"><ele>640.0</ele><time>2026-04-26T07:25:17.954Z</time></trkpt><trkpt lat="43.0377958" lon="13.1643602"><ele>640.0</ele><time>2026-04-26T07:25:18.953Z</time></trkpt><trkpt lat="43.0377139" lon="13.1642198"><ele>640.0</ele><time>2026-04-26T07:25:19.952Z</time></trkpt><trkpt lat="43.0376503" lon="13.1640814"><ele>645.25</ele><time>2026-04-26T07:25:20.952Z</time></trkpt><trkpt lat="43.0376114" lon="13.1639439"><ele>650.5</ele><time>2026-04-26T07:25:21.956Z</time></trkpt><trkpt lat="43.0376409" lon="13.1638192"><ele>655.75</ele><time>2026-04-26T07:25:22.949Z</time></trkpt><trkpt lat="43.0377047" lon="13.1636696"><ele>661.0</ele><time>2026-04-26T07:25:23.959Z</time></trkpt><trkpt lat="43.0378095" lon="13.1635411"><ele>661.0</ele><time>2026-04-26T07:25:24.954Z</time></trkpt><trkpt lat="43.0379094" lon="13.1633906"><ele>661.0</ele><time>2026-04-26T07:25:25.954Z</time></trkpt><trkpt lat="43.0380194" lon="13.163218"><ele>661.0</ele><time>2026-04-26T07:25:26.953Z</time></trkpt><trkpt lat="43.0381238" lon="13.163025"><ele>663.6666666666667</ele><time>2026-04-26T07:25:27.95Z</time></trkpt><trkpt lat="43.0382279" lon="13.162812"><ele>666.3333333333334</ele><time>2026-04-26T07:25:28.951Z</time></trkpt><trkpt lat="43.0383395" lon="13.1626046"><ele>669.0</ele><time>2026-04-26T07:25:29.954Z</time></trkpt><trkpt lat="43.0384734" lon="13.1624212"><ele>678.0</ele><time>2026-04-26T07:25:30.949Z</time></trkpt><trkpt lat="43.0386254" lon="13.1622774"><ele>687.0</ele><time>2026-04-26T07:25:31.954Z</time></trkpt><trkpt lat="43.038795" lon="13.1621667"><ele>696.0</ele><time>2026-04-26T07:25:32.958Z</time></trkpt><trkpt lat="43.0389739" lon="13.1620626"><ele>690.6666666666666</ele><time>2026-04-26T07:25:33.953Z</time></trkpt><trkpt lat="43.0391492" lon="13.161939"><ele>685.3333333333333</ele><time>2026-04-26T07:25:34.955Z</time></trkpt><trkpt lat="43.0393206" lon="13.1618036"><ele>680.0</ele><time>2026-04-26T07:25:35.953Z</time></trkpt><trkpt lat="43.0394878" lon="13.1616667"><ele>680.0</ele><time>2026-04-26T07:25:36.954Z</time></trkpt><trkpt lat="43.0396571" lon="13.1615382"><ele>680.0</ele><time>2026-04-26T07:25:37.956Z</time></trkpt><trkpt lat="43.0398282" lon="13.1614242"><ele>680.0</ele><time>2026-04-26T07:25:38.949Z</time></trkpt><trkpt lat="43.0400071" lon="13.1613353"><ele>686.6666666666666</ele><time>2026-04-26T07:25:39.957Z</time></trkpt><trkpt lat="43.040196" lon="13.1612809"><ele>693.3333333333334</ele><time>2026-04-26T07:25:40.949Z</time></trkpt><trkpt lat="43.0403903" lon="13.1612562"><ele>700.0</ele><time>2026-04-26T07:25:41.955Z</time></trkpt><trkpt lat="43.0405902" lon="13.1612432"><ele>700.0</ele><time>2026-04-26T07:25:42.945Z</time></trkpt><trkpt lat="43.0407865" lon="13.1612329"><ele>700.0</ele><time>2026-04-26T07:25:43.954Z</time></trkpt><trkpt lat="43.0409671" lon="13.1612361"><ele>700.0</ele><time>2026-04-26T07:25:44.952Z</time></trkpt><trkpt lat="43.0411254" lon="13.1612578"><ele>699.6</ele><time>2026-04-26T07:25:45.952Z</time></trkpt><trkpt lat="43.0412595" lon="13.1612845"><ele>699.2</ele><time>2026-04-26T07:25:46.954Z</time></trkpt><trkpt lat="43.0413666" lon="13.1612951"><ele>698.8</ele><time>2026-04-26T07:25:47.951Z</time></trkpt><trkpt lat="43.0414454" lon="13.1612565"><ele>698.4</ele><time>2026-04-26T07:25:48.95Z</time></trkpt><trkpt lat="43.0414814" lon="13.1611723"><ele>698.0</ele><time>2026-04-26T07:25:49.952Z</time></trkpt><trkpt lat="43.0415056" lon="13.1610839"><ele>698.0</ele><time>2026-04-26T07:25:50.953Z</time></trkpt><trkpt lat="43.0414238" lon="13.1610151"><ele>698.0</ele><time>2026-04-26T07:25:51.95Z</time></trkpt><trkpt lat="43.041295" lon="13.1609873"><ele>698.0</ele><time>2026-04-26T07:25:52.954Z</time></trkpt><trkpt lat="43.0411436" lon="13.1609577"><ele>698.0</ele><time>2026-04-26T07:25:53.955Z</time></trkpt><trkpt lat="43.0409728" lon="13.160915"><ele>698.6666666666666</ele><time>2026-04-26T07:25:54.949Z</time></trkpt><trkpt lat="43.0407849" lon="13.1608785"><ele>699.3333333333334</ele><time>2026-04-26T07:25:55.949Z</time></trkpt><trkpt lat="43.0405881" lon="13.1608369"><ele>700.0</ele><time>2026-04-26T07:25:56.95Z</time></trkpt><trkpt lat="43.0403886" lon="13.1607982"><ele>700.0</ele><time>2026-04-26T07:25:57.953Z</time></trkpt><trkpt lat="43.0401833" lon="13.1607862"><ele>700.0</ele><time>2026-04-26T07:25:58.951Z</time></trkpt><trkpt lat="43.0399794" lon="13.1607839"><ele>700.0</ele><time>2026-04-26T07:25:59.951Z</time></trkpt><trkpt lat="43.0397773" lon="13.1608059"><ele>701.0</ele><time>2026-04-26T07:26:00.951Z</time></trkpt><trkpt lat="43.0395813" lon="13.1608372"><ele>702.0</ele><time>2026-04-26T07:26:01.947Z</time></trkpt><trkpt lat="43.0393884" lon="13.1608742"><ele>703.0</ele><time>2026-04-26T07:26:02.953Z</time></trkpt><trkpt lat="43.0392" lon="13.1609108"><ele>705.3333333333334</ele><time>2026-04-26T07:26:03.948Z</time></trkpt><trkpt lat="43.03901" lon="13.1609339"><ele>707.6666666666666</ele><time>2026-04-26T07:26:04.955Z</time></trkpt><trkpt lat="43.0388162" lon="13.1609224"><ele>710.0</ele><time>2026-04-26T07:26:05.946Z</time></trkpt><trkpt lat="43.0386147" lon="13.1609024"><ele>710.0</ele><time>2026-04-26T07:26:06.952Z</time></trkpt><trkpt lat="43.0384109" lon="13.1608827"><ele>710.0</ele><time>2026-04-26T07:26:07.954Z</time></trkpt><trkpt lat="43.0382162" lon="13.1608692"><ele>710.0</ele><time>2026-04-26T07:26:08.954Z</time></trkpt><trkpt lat="43.0380293" lon="13.1608422"><ele>709.0</ele><time>2026-04-26T07:26:09.951Z</time></trkpt><trkpt lat="43.037849" lon="13.1607839"><ele>708.0</ele><time>2026-04-26T07:26:10.952Z</time></trkpt><trkpt lat="43.0376966" lon="13.1606736"><ele>707.0</ele><time>2026-04-26T07:26:11.953Z</time></trkpt><trkpt lat="43.0375717" lon="13.1605169"><ele>706.3333333333333</ele><time>2026-04-26T07:26:12.959Z</time></trkpt><trkpt lat="43.0374695" lon="13.1603197"><ele>705.6666666666666</ele><time>2026-04-26T07:26:13.95Z</time></trkpt><trkpt lat="43.0373766" lon="13.1601129"><ele>705.0</ele><time>2026-04-26T07:26:14.957Z</time></trkpt><trkpt lat="43.0372753" lon="13.1599116"><ele>709.3333333333334</ele><time>2026-04-26T07:26:15.956Z</time></trkpt><trkpt lat="43.037168" lon="13.1597113"><ele>713.6666666666667</ele><time>2026-04-26T07:26:16.955Z</time></trkpt><trkpt lat="43.037057" lon="13.1595108"><ele>718.0</ele><time>2026-04-26T07:26:17.953Z</time></trkpt><trkpt lat="43.036943" lon="13.1593129"><ele>718.0</ele><time>2026-04-26T07:26:18.954Z</time></trkpt><trkpt lat="43.0368314" lon="13.1591237"><ele>718.0</ele><time>2026-04-26T07:26:19.953Z</time></trkpt><trkpt lat="43.0367297" lon="13.1589509"><ele>718.0</ele><time>2026-04-26T07:26:20.953Z</time></trkpt><trkpt lat="43.0366338" lon="13.1588"><ele>716.2</ele><time>2026-04-26T07:26:21.954Z</time></trkpt><trkpt lat="43.0365643" lon="13.1586505"><ele>714.4</ele><time>2026-04-26T07:26:22.954Z</time></trkpt><trkpt lat="43.0365115" lon="13.1585131"><ele>712.6</ele><time>2026-04-26T07:26:23.958Z</time></trkpt><trkpt lat="43.0364664" lon="13.1583858"><ele>710.8000000000001</ele><time>2026-04-26T07:26:24.951Z</time></trkpt><trkpt lat="43.0364308" lon="13.15826"><ele>709.0</ele><time>2026-04-26T07:26:25.953Z</time></trkpt><trkpt lat="43.0364154" lon="13.1581391"><ele>712.1428571428572</ele><time>2026-04-26T07:26:26.953Z</time></trkpt><trkpt lat="43.0364072" lon="13.1580102"><ele>715.2857142857143</ele><time>2026-04-26T07:26:27.96Z</time></trkpt><trkpt lat="43.0363894" lon="13.1578958"><ele>718.4285714285714</ele><time>2026-04-26T07:26:28.951Z</time></trkpt><trkpt lat="43.0363769" lon="13.1578075"><ele>721.5714285714287</ele><time>2026-04-26T07:26:29.953Z</time></trkpt><trkpt lat="43.0363645" lon="13.1577229"><ele>724.7142857142857</ele><time>2026-04-26T07:26:30.955Z</time></trkpt><trkpt lat="43.0363541" lon="13.157636"><ele>727.8571428571429</ele><time>2026-04-26T07:26:31.957Z</time></trkpt><trkpt lat="43.0363431" lon="13.1575492"><ele>731.0</ele><time>2026-04-26T07:26:32.949Z</time></trkpt><trkpt lat="43.0363306" lon="13.1574598"><ele>731.0</ele><time>2026-04-26T07:26:33.954Z</time></trkpt><trkpt lat="43.036318" lon="13.1573701"><ele>731.0</ele><time>2026-04-26T07:26:34.955Z</time></trkpt><trkpt lat="43.0363074" lon="13.1572757"><ele>731.0</ele><time>2026-04-26T07:26:35.954Z</time></trkpt><trkpt lat="43.0363041" lon="13.1571738"><ele>731.0</ele><time>2026-04-26T07:26:36.951Z</time></trkpt><trkpt lat="43.0363141" lon="13.1570761"><ele>731.0</ele><time>2026-04-26T07:26:37.947Z</time></trkpt><trkpt lat="43.0363329" lon="13.1569592"><ele>731.0</ele><time>2026-04-26T07:26:38.953Z</time></trkpt><trkpt lat="43.0363498" lon="13.1568335"><ele>732.0</ele><time>2026-04-26T07:26:39.961Z</time></trkpt><trkpt lat="43.0363772" lon="13.156697"><ele>733.0</ele><time>2026-04-26T07:26:40.955Z</time></trkpt><trkpt lat="43.0364057" lon="13.156552"><ele>734.0</ele><time>2026-04-26T07:26:41.959Z</time></trkpt><trkpt lat="43.0364358" lon="13.15641"><ele>735.0</ele><time>2026-04-26T07:26:42.95Z</time></trkpt><trkpt lat="43.0364581" lon="13.1562727"><ele>736.0</ele><time>2026-04-26T07:26:43.954Z</time></trkpt><trkpt lat="43.036482" lon="13.1561443"><ele>736.0</ele><time>2026-04-26T07:26:44.952Z</time></trkpt><trkpt lat="43.0365048" lon="13.1560231"><ele>736.0</ele><time>2026-04-26T07:26:45.958Z</time></trkpt><trkpt lat="43.0365289" lon="13.1559003"><ele>736.0</ele><time>2026-04-26T07:26:46.962Z</time></trkpt><trkpt lat="43.0365517" lon="13.1557782"><ele>736.0</ele><time>2026-04-26T07:26:47.956Z</time></trkpt><trkpt lat="43.0365717" lon="13.1556589"><ele>736.0</ele><time>2026-04-26T07:26:48.961Z</time></trkpt><trkpt lat="43.0365939" lon="13.1555436"><ele>736.5</ele><time>2026-04-26T07:26:49.955Z</time></trkpt><trkpt lat="43.0366132" lon="13.1554352"><ele>737.0</ele><time>2026-04-26T07:26:50.949Z</time></trkpt><trkpt lat="43.0366291" lon="13.1553296"><ele>737.5</ele><time>2026-04-26T07:26:51.95Z</time></trkpt><trkpt lat="43.0366468" lon="13.1552233"><ele>738.0</ele><time>2026-04-26T07:26:52.95Z</time></trkpt><trkpt lat="43.0366697" lon="13.1551144"><ele>738.5</ele><time>2026-04-26T07:26:53.955Z</time></trkpt><trkpt lat="43.0366929" lon="13.1550074"><ele>739.0</ele><time>2026-04-26T07:26:54.964Z</time></trkpt><trkpt lat="43.0367141" lon="13.1548992"><ele>738.5</ele><time>2026-04-26T07:26:55.951Z</time></trkpt><trkpt lat="43.036736" lon="13.1547926"><ele>738.0</ele><time>2026-04-26T07:26:56.956Z</time></trkpt><trkpt lat="43.0367591" lon="13.1546849"><ele>737.5</ele><time>2026-04-26T07:26:57.951Z</time></trkpt><trkpt lat="43.0367837" lon="13.1545857"><ele>737.0</ele><time>2026-04-26T07:26:58.952Z</time></trkpt><trkpt lat="43.0368111" lon="13.1544759"><ele>736.5</ele><time>2026-04-26T07:26:59.955Z</time></trkpt><trkpt lat="43.0368425" lon="13.1543702"><ele>736.0</ele><time>2026-04-26T07:27:00.953Z</time></trkpt><trkpt lat="43.0368838" lon="13.1542685"><ele>736.0</ele><time>2026-04-26T07:27:01.956Z</time></trkpt><trkpt lat="43.0369301" lon="13.1541675"><ele>736.0</ele><time>2026-04-26T07:27:02.955Z</time></trkpt><trkpt lat="43.0369741" lon="13.154067"><ele>736.0</ele><time>2026-04-26T07:27:03.959Z</time></trkpt><trkpt lat="43.0370099" lon="13.1539708"><ele>736.0</ele><time>2026-04-26T07:27:04.956Z</time></trkpt><trkpt lat="43.0370398" lon="13.1538772"><ele>736.0</ele><time>2026-04-26T07:27:05.959Z</time></trkpt><trkpt lat="43.0370657" lon="13.1537846"><ele>736.0</ele><time>2026-04-26T07:27:06.953Z</time></trkpt><trkpt lat="43.0370863" lon="13.153691"><ele>735.4</ele><time>2026-04-26T07:27:07.95Z</time></trkpt><trkpt lat="43.0371124" lon="13.1535348"><ele>734.8</ele><time>2026-04-26T07:27:09.956Z</time></trkpt><trkpt lat="43.0371487" lon="13.1533747"><ele>734.1999999999999</ele><time>2026-04-26T07:27:11.959Z</time></trkpt><trkpt lat="43.0372418" lon="13.1533173"><ele>733.5999999999999</ele><time>2026-04-26T07:27:13.95Z</time></trkpt><trkpt lat="43.0373449" lon="13.1533055"><ele>733.0</ele><time>2026-04-26T07:27:15.954Z</time></trkpt><trkpt lat="43.0374713" lon="13.1533359"><ele>733.0</ele><time>2026-04-26T07:27:17.952Z</time></trkpt><trkpt lat="43.0375466" lon="13.1533717"><ele>733.0</ele><time>2026-04-26T07:27:18.957Z</time></trkpt><trkpt lat="43.0376291" lon="13.1534146"><ele>733.0</ele><time>2026-04-26T07:27:19.96Z</time></trkpt><trkpt lat="43.0377073" lon="13.1534556"><ele>733.0</ele><time>2026-04-26T07:27:20.961Z</time></trkpt><trkpt lat="43.0377806" lon="13.1534834"><ele>733.0</ele><time>2026-04-26T07:27:21.959Z</time></trkpt><trkpt lat="43.0378415" lon="13.1535071"><ele>733.0</ele><time>2026-04-26T07:27:22.96Z</time></trkpt><trkpt lat="43.0379697" lon="13.1535233"><ele>733.0</ele><time>2026-04-26T07:27:24.955Z</time></trkpt><trkpt lat="43.0380439" lon="13.1535092"><ele>733.0</ele><time>2026-04-26T07:27:25.954Z</time></trkpt><trkpt lat="43.0381211" lon="13.1534793"><ele>733.0</ele><time>2026-04-26T07:27:26.952Z</time></trkpt><trkpt lat="43.0381976" lon="13.1534319"><ele>733.0</ele><time>2026-04-26T07:27:27.961Z</time></trkpt><trkpt lat="43.0382626" lon="13.1533755"><ele>733.0</ele><time>2026-04-26T07:27:28.955Z</time></trkpt><trkpt lat="43.0383141" lon="13.1533124"><ele>733.0</ele><time>2026-04-26T07:27:29.959Z</time></trkpt><trkpt lat="43.0383828" lon="13.1531758"><ele>731.8333333333334</ele><time>2026-04-26T07:27:31.96Z</time></trkpt><trkpt lat="43.0384177" lon="13.1530863"><ele>730.6666666666667</ele><time>2026-04-26T07:27:32.963Z</time></trkpt><trkpt lat="43.0384505" lon="13.1529779"><ele>729.5</ele><time>2026-04-26T07:27:33.955Z</time></trkpt><trkpt lat="43.0384757" lon="13.152865"><ele>728.3333333333334</ele><time>2026-04-26T07:27:34.962Z</time></trkpt><trkpt lat="43.0384957" lon="13.1527415"><ele>727.1666666666666</ele><time>2026-04-26T07:27:35.958Z</time></trkpt><trkpt lat="43.0385117" lon="13.152607"><ele>726.0</ele><time>2026-04-26T07:27:36.954Z</time></trkpt><trkpt lat="43.0385266" lon="13.152473"><ele>726.3333333333334</ele><time>2026-04-26T07:27:37.962Z</time></trkpt><trkpt lat="43.0385409" lon="13.1523459"><ele>726.6666666666666</ele><time>2026-04-26T07:27:38.954Z</time></trkpt><trkpt lat="43.0385552" lon="13.1522273"><ele>727.0</ele><time>2026-04-26T07:27:39.956Z</time></trkpt><trkpt lat="43.0385704" lon="13.1521143"><ele>727.3333333333333</ele><time>2026-04-26T07:27:40.959Z</time></trkpt><trkpt lat="43.0385888" lon="13.1520008"><ele>727.6666666666666</ele><time>2026-04-26T07:27:41.96Z</time></trkpt><trkpt lat="43.0386083" lon="13.1518909"><ele>728.0</ele><time>2026-04-26T07:27:42.958Z</time></trkpt><trkpt lat="43.0386284" lon="13.1517911"><ele>728.0</ele><time>2026-04-26T07:27:43.959Z</time></trkpt><trkpt lat="43.0386462" lon="13.1516989"><ele>728.0</ele><time>2026-04-26T07:27:44.959Z</time></trkpt><trkpt lat="43.0386632" lon="13.1516106"><ele>728.0</ele><time>2026-04-26T07:27:45.95Z</time></trkpt><trkpt lat="43.0386774" lon="13.1515249"><ele>728.0</ele><time>2026-04-26T07:27:46.957Z</time></trkpt><trkpt lat="43.0386846" lon="13.1513799"><ele>728.0</ele><time>2026-04-26T07:27:48.954Z</time></trkpt><trkpt lat="43.0386601" lon="13.1512499"><ele>728.0</ele><time>2026-04-26T07:27:50.954Z</time></trkpt><trkpt lat="43.038588" lon="13.1511178"><ele>728.1666666666666</ele><time>2026-04-26T07:27:52.953Z</time></trkpt><trkpt lat="43.0385379" lon="13.1510421"><ele>728.3333333333333</ele><time>2026-04-26T07:27:53.959Z</time></trkpt><trkpt lat="43.0384949" lon="13.1509641"><ele>728.5</ele><time>2026-04-26T07:27:54.958Z</time></trkpt><trkpt lat="43.0384611" lon="13.1508825"><ele>728.6666666666666</ele><time>2026-04-26T07:27:55.955Z</time></trkpt><trkpt lat="43.0384442" lon="13.1507907"><ele>728.8333333333334</ele><time>2026-04-26T07:27:56.956Z</time></trkpt><trkpt lat="43.0384396" lon="13.1506962"><ele>729.0</ele><time>2026-04-26T07:27:57.956Z</time></trkpt><trkpt lat="43.0384726" lon="13.1505321"><ele>729.0</ele><time>2026-04-26T07:27:59.955Z</time></trkpt><trkpt lat="43.0384976" lon="13.1504498"><ele>729.0</ele><time>2026-04-26T07:28:00.954Z</time></trkpt><trkpt lat="43.0385225" lon="13.1503659"><ele>729.0</ele><time>2026-04-26T07:28:01.954Z</time></trkpt><trkpt lat="43.0385471" lon="13.1502855"><ele>729.0</ele><time>2026-04-26T07:28:02.956Z</time></trkpt><trkpt lat="43.0385734" lon="13.1502032"><ele>729.0</ele><time>2026-04-26T07:28:03.951Z</time></trkpt><trkpt lat="43.0386037" lon="13.1501148"><ele>729.0</ele><time>2026-04-26T07:28:04.952Z</time></trkpt><trkpt lat="43.0386397" lon="13.1500105"><ele>729.0</ele><time>2026-04-26T07:28:05.954Z</time></trkpt><trkpt lat="43.0386854" lon="13.1498956"><ele>730.8333333333334</ele><time>2026-04-26T07:28:06.958Z</time></trkpt><trkpt lat="43.0387331" lon="13.1497856"><ele>732.6666666666666</ele><time>2026-04-26T07:28:07.958Z</time></trkpt><trkpt lat="43.0387923" lon="13.1496865"><ele>734.5</ele><time>2026-04-26T07:28:08.954Z</time></trkpt><trkpt lat="43.038856" lon="13.1496002"><ele>736.3333333333333</ele><time>2026-04-26T07:28:09.966Z</time></trkpt><trkpt lat="43.03891" lon="13.1495271"><ele>738.1666666666666</ele><time>2026-04-26T07:28:10.954Z</time></trkpt><trkpt lat="43.0389555" lon="13.1494557"><ele>740.0</ele><time>2026-04-26T07:28:11.954Z</time></trkpt><trkpt lat="43.0389934" lon="13.1493861"><ele>740.0</ele><time>2026-04-26T07:28:12.951Z</time></trkpt><trkpt lat="43.0390189" lon="13.1492433"><ele>740.0</ele><time>2026-04-26T07:28:14.954Z</time></trkpt><trkpt lat="43.0389963" lon="13.1490813"><ele>740.0</ele><time>2026-04-26T07:28:16.955Z</time></trkpt><trkpt lat="43.0389718" lon="13.148997"><ele>740.0</ele><time>2026-04-26T07:28:17.955Z</time></trkpt><trkpt lat="43.0389388" lon="13.1489145"><ele>740.0</ele><time>2026-04-26T07:28:18.953Z</time></trkpt><trkpt lat="43.0389087" lon="13.1488301"><ele>740.0</ele><time>2026-04-26T07:28:19.957Z</time></trkpt><trkpt lat="43.0388693" lon="13.1487572"><ele>739.4</ele><time>2026-04-26T07:28:20.951Z</time></trkpt><trkpt lat="43.038827" lon="13.1486819"><ele>738.8</ele><time>2026-04-26T07:28:21.962Z</time></trkpt><trkpt lat="43.0387906" lon="13.1486023"><ele>738.2</ele><time>2026-04-26T07:28:22.954Z</time></trkpt><trkpt lat="43.0387264" lon="13.1484682"><ele>737.6</ele><time>2026-04-26T07:28:24.956Z</time></trkpt><trkpt lat="43.0386783" lon="13.1483411"><ele>737.0</ele><time>2026-04-26T07:28:26.956Z</time></trkpt><trkpt lat="43.038672" lon="13.148177"><ele>737.0</ele><time>2026-04-26T07:28:28.953Z</time></trkpt><trkpt lat="43.0386909" lon="13.1480827"><ele>737.0</ele><time>2026-04-26T07:28:29.952Z</time></trkpt><trkpt lat="43.0387306" lon="13.1479949"><ele>737.0</ele><time>2026-04-26T07:28:30.95Z</time></trkpt><trkpt lat="43.0387874" lon="13.1479147"><ele>737.0</ele><time>2026-04-26T07:28:31.952Z</time></trkpt><trkpt lat="43.0388563" lon="13.1478391"><ele>737.0</ele><time>2026-04-26T07:28:32.953Z</time></trkpt><trkpt lat="43.0389378" lon="13.147769"><ele>737.0</ele><time>2026-04-26T07:28:33.955Z</time></trkpt><trkpt lat="43.0390212" lon="13.1477014"><ele>737.0</ele><time>2026-04-26T07:28:34.951Z</time></trkpt><trkpt lat="43.0390962" lon="13.1476405"><ele>737.0</ele><time>2026-04-26T07:28:35.958Z</time></trkpt><trkpt lat="43.0391666" lon="13.1475794"><ele>737.0</ele><time>2026-04-26T07:28:36.957Z</time></trkpt><trkpt lat="43.0392306" lon="13.1475182"><ele>737.0</ele><time>2026-04-26T07:28:37.958Z</time></trkpt><trkpt lat="43.0392866" lon="13.1474566"><ele>737.0</ele><time>2026-04-26T07:28:38.958Z</time></trkpt><trkpt lat="43.0393708" lon="13.1473305"><ele>737.0</ele><time>2026-04-26T07:28:40.959Z</time></trkpt><trkpt lat="43.03941" lon="13.1472579"><ele>735.8333333333333</ele><time>2026-04-26T07:28:41.959Z</time></trkpt><trkpt lat="43.0394491" lon="13.1471797"><ele>734.6666666666666</ele><time>2026-04-26T07:28:42.96Z</time></trkpt><trkpt lat="43.0394842" lon="13.147108"><ele>733.5</ele><time>2026-04-26T07:28:43.955Z</time></trkpt><trkpt lat="43.039547" lon="13.1469782"><ele>732.3333333333334</ele><time>2026-04-26T07:28:45.959Z</time></trkpt><trkpt lat="43.0396016" lon="13.1468701"><ele>731.1666666666667</ele><time>2026-04-26T07:28:47.959Z</time></trkpt><trkpt lat="43.0396518" lon="13.1467728"><ele>730.0</ele><time>2026-04-26T07:28:49.958Z</time></trkpt><trkpt lat="43.039692" lon="13.1466875"><ele>730.0</ele><time>2026-04-26T07:28:51.953Z</time></trkpt><trkpt lat="43.039743" lon="13.1465903"><ele>730.0</ele><time>2026-04-26T07:28:54.956Z</time></trkpt><trkpt lat="43.0397909" lon="13.1465033"><ele>730.0</ele><time>2026-04-26T07:28:57.959Z</time></trkpt><trkpt lat="43.0398345" lon="13.146418"><ele>730.0</ele><time>2026-04-26T07:29:00.96Z</time></trkpt><trkpt lat="43.0398544" lon="13.1463252"><ele>730.0</ele><time>2026-04-26T07:29:02.959Z</time></trkpt><trkpt lat="43.0398024" lon="13.1462384"><ele>730.0</ele><time>2026-04-26T07:29:04.959Z</time></trkpt><trkpt lat="43.0397561" lon="13.1461214"><ele>730.6666666666667</ele><time>2026-04-26T07:29:06.959Z</time></trkpt><trkpt lat="43.0397806" lon="13.1459772"><ele>731.3333333333334</ele><time>2026-04-26T07:29:08.956Z</time></trkpt><trkpt lat="43.0398432" lon="13.1458466"><ele>732.0</ele><time>2026-04-26T07:29:10.957Z</time></trkpt><trkpt lat="43.0398815" lon="13.1457749"><ele>732.6666666666666</ele><time>2026-04-26T07:29:11.964Z</time></trkpt><trkpt lat="43.0399228" lon="13.1456997"><ele>733.3333333333333</ele><time>2026-04-26T07:29:12.955Z</time></trkpt><trkpt lat="43.0399594" lon="13.1456256"><ele>734.0</ele><time>2026-04-26T07:29:13.959Z</time></trkpt><trkpt lat="43.0399948" lon="13.1455514"><ele>730.0</ele><time>2026-04-26T07:29:14.956Z</time></trkpt><trkpt lat="43.0400303" lon="13.1454649"><ele>726.0</ele><time>2026-04-26T07:29:15.975Z</time></trkpt><trkpt lat="43.0400624" lon="13.1453599"><ele>722.0</ele><time>2026-04-26T07:29:16.957Z</time></trkpt><trkpt lat="43.0400816" lon="13.1452529"><ele>718.0</ele><time>2026-04-26T07:29:17.955Z</time></trkpt><trkpt lat="43.0400883" lon="13.1451499"><ele>714.0</ele><time>2026-04-26T07:29:18.955Z</time></trkpt><trkpt lat="43.0400942" lon="13.1450507"><ele>710.0</ele><time>2026-04-26T07:29:19.958Z</time></trkpt><trkpt lat="43.040074" lon="13.1449613"><ele>710.0</ele><time>2026-04-26T07:29:20.953Z</time></trkpt><trkpt lat="43.040047" lon="13.1448822"><ele>710.0</ele><time>2026-04-26T07:29:21.966Z</time></trkpt><trkpt lat="43.0399742" lon="13.1447405"><ele>710.0</ele><time>2026-04-26T07:29:23.975Z</time></trkpt><trkpt lat="43.0399357" lon="13.144669"><ele>710.0</ele><time>2026-04-26T07:29:24.96Z</time></trkpt><trkpt lat="43.0398968" lon="13.1445964"><ele>710.0</ele><time>2026-04-26T07:29:25.959Z</time></trkpt><trkpt lat="43.0398569" lon="13.1445256"><ele>710.0</ele><time>2026-04-26T07:29:26.954Z</time></trkpt><trkpt lat="43.0398262" lon="13.144444"><ele>709.4</ele><time>2026-04-26T07:29:27.964Z</time></trkpt><trkpt lat="43.0398136" lon="13.1443573"><ele>708.8</ele><time>2026-04-26T07:29:28.959Z</time></trkpt><trkpt lat="43.0398242" lon="13.1442692"><ele>708.2</ele><time>2026-04-26T07:29:29.96Z</time></trkpt><trkpt lat="43.0398937" lon="13.1441478"><ele>707.6</ele><time>2026-04-26T07:29:31.957Z</time></trkpt><trkpt lat="43.0400131" lon="13.1440601"><ele>707.0</ele><time>2026-04-26T07:29:33.955Z</time></trkpt><trkpt lat="43.0400938" lon="13.14402"><ele>710.1666666666666</ele><time>2026-04-26T07:29:34.961Z</time></trkpt><trkpt lat="43.0401696" lon="13.1439865"><ele>713.3333333333333</ele><time>2026-04-26T07:29:35.962Z</time></trkpt><trkpt lat="43.0402388" lon="13.1439544"><ele>716.5</ele><time>2026-04-26T07:29:36.964Z</time></trkpt><trkpt lat="43.040307" lon="13.1439218"><ele>719.6666666666666</ele><time>2026-04-26T07:29:37.959Z</time></trkpt><trkpt lat="43.0403744" lon="13.1438893"><ele>722.8333333333334</ele><time>2026-04-26T07:29:38.963Z</time></trkpt><trkpt lat="43.0404443" lon="13.143853"><ele>726.0</ele><time>2026-04-26T07:29:39.964Z</time></trkpt><trkpt lat="43.0405181" lon="13.1438148"><ele>726.0</ele><time>2026-04-26T07:29:40.956Z</time></trkpt><trkpt lat="43.0405975" lon="13.1437717"><ele>726.0</ele><time>2026-04-26T07:29:41.957Z</time></trkpt><trkpt lat="43.0406826" lon="13.1437255"><ele>726.0</ele><time>2026-04-26T07:29:42.958Z</time></trkpt><trkpt lat="43.0407722" lon="13.1436782"><ele>726.0</ele><time>2026-04-26T07:29:43.967Z</time></trkpt><trkpt lat="43.040861" lon="13.1436312"><ele>726.0</ele><time>2026-04-26T07:29:44.955Z</time></trkpt><trkpt lat="43.0409405" lon="13.1435882"><ele>725.2857142857142</ele><time>2026-04-26T07:29:45.956Z</time></trkpt><trkpt lat="43.0410155" lon="13.1435473"><ele>724.5714285714286</ele><time>2026-04-26T07:29:46.97Z</time></trkpt><trkpt lat="43.0410858" lon="13.1435086"><ele>723.8571428571429</ele><time>2026-04-26T07:29:47.959Z</time></trkpt><trkpt lat="43.0411579" lon="13.1434859"><ele>723.1428571428571</ele><time>2026-04-26T07:29:48.958Z</time></trkpt><trkpt lat="43.0412269" lon="13.1434834"><ele>722.4285714285714</ele><time>2026-04-26T07:29:49.957Z</time></trkpt><trkpt lat="43.041297" lon="13.1435002"><ele>721.7142857142857</ele><time>2026-04-26T07:29:50.963Z</time></trkpt><trkpt lat="43.0413638" lon="13.1435373"><ele>721.0</ele><time>2026-04-26T07:29:51.958Z</time></trkpt><trkpt lat="43.0414254" lon="13.1435972"><ele>721.0</ele><time>2026-04-26T07:29:52.96Z</time></trkpt><trkpt lat="43.0414784" lon="13.1436764"><ele>721.0</ele><time>2026-04-26T07:29:53.962Z</time></trkpt><trkpt lat="43.0415188" lon="13.1437608"><ele>721.0</ele><time>2026-04-26T07:29:54.959Z</time></trkpt><trkpt lat="43.0415542" lon="13.1438476"><ele>721.0</ele><time>2026-04-26T07:29:55.956Z</time></trkpt><trkpt lat="43.041591" lon="13.1439406"><ele>721.0</ele><time>2026-04-26T07:29:56.962Z</time></trkpt><trkpt lat="43.0416341" lon="13.1440394"><ele>721.0</ele><time>2026-04-26T07:29:57.958Z</time></trkpt><trkpt lat="43.0416842" lon="13.1441542"><ele>720.8</ele><time>2026-04-26T07:29:58.954Z</time></trkpt><trkpt lat="43.041741" lon="13.1442864"><ele>720.5999999999999</ele><time>2026-04-26T07:29:59.963Z</time></trkpt><trkpt lat="43.0417957" lon="13.1444219"><ele>720.4</ele><time>2026-04-26T07:30:00.956Z</time></trkpt><trkpt lat="43.0418407" lon="13.1445436"><ele>720.2</ele><time>2026-04-26T07:30:01.955Z</time></trkpt><trkpt lat="43.0418814" lon="13.1446515"><ele>720.0</ele><time>2026-04-26T07:30:02.957Z</time></trkpt><trkpt lat="43.0419208" lon="13.1447562"><ele>720.0</ele><time>2026-04-26T07:30:03.952Z</time></trkpt><trkpt lat="43.0419618" lon="13.1448603"><ele>720.0</ele><time>2026-04-26T07:30:04.957Z</time></trkpt><trkpt lat="43.0420069" lon="13.1449607"><ele>720.0</ele><time>2026-04-26T07:30:05.957Z</time></trkpt><trkpt lat="43.0420587" lon="13.1450576"><ele>720.0</ele><time>2026-04-26T07:30:06.956Z</time></trkpt><trkpt lat="43.0421158" lon="13.1451516"><ele>720.0</ele><time>2026-04-26T07:30:07.954Z</time></trkpt><trkpt lat="43.0421757" lon="13.1452394"><ele>720.0</ele><time>2026-04-26T07:30:08.963Z</time></trkpt><trkpt lat="43.0422276" lon="13.145318"><ele>719.2857142857142</ele><time>2026-04-26T07:30:09.959Z</time></trkpt><trkpt lat="43.0422798" lon="13.1453807"><ele>718.5714285714287</ele><time>2026-04-26T07:30:10.958Z</time></trkpt><trkpt lat="43.0423322" lon="13.1454297"><ele>717.8571428571429</ele><time>2026-04-26T07:30:11.959Z</time></trkpt><trkpt lat="43.0423934" lon="13.145471"><ele>717.1428571428571</ele><time>2026-04-26T07:30:12.96Z</time></trkpt><trkpt lat="43.042462" lon="13.1455032"><ele>716.4285714285713</ele><time>2026-04-26T07:30:13.965Z</time></trkpt><trkpt lat="43.0425376" lon="13.1455277"><ele>715.7142857142858</ele><time>2026-04-26T07:30:14.965Z</time></trkpt><trkpt lat="43.0426191" lon="13.1455386"><ele>715.0</ele><time>2026-04-26T07:30:15.967Z</time></trkpt><trkpt lat="43.0427045" lon="13.1455378"><ele>718.0</ele><time>2026-04-26T07:30:16.969Z</time></trkpt><trkpt lat="43.0427905" lon="13.145521"><ele>721.0</ele><time>2026-04-26T07:30:17.972Z</time></trkpt><trkpt lat="43.042873" lon="13.145487"><ele>724.0</ele><time>2026-04-26T07:30:18.959Z</time></trkpt><trkpt lat="43.0429545" lon="13.1454496"><ele>727.0</ele><time>2026-04-26T07:30:19.967Z</time></trkpt><trkpt lat="43.043036" lon="13.145416"><ele>730.0</ele><time>2026-04-26T07:30:20.956Z</time></trkpt><trkpt lat="43.043117" lon="13.1453826"><ele>733.0</ele><time>2026-04-26T07:30:21.963Z</time></trkpt><trkpt lat="43.0431975" lon="13.1453469"><ele>733.0</ele><time>2026-04-26T07:30:22.961Z</time></trkpt><trkpt lat="43.0432787" lon="13.1453117"><ele>733.0</ele><time>2026-04-26T07:30:23.959Z</time></trkpt><trkpt lat="43.0433557" lon="13.1452773"><ele>733.0</ele><time>2026-04-26T07:30:24.958Z</time></trkpt><trkpt lat="43.0434205" lon="13.145253"><ele>733.0</ele><time>2026-04-26T07:30:25.961Z</time></trkpt><trkpt lat="43.0435177" lon="13.1452099"><ele>733.0</ele><time>2026-04-26T07:30:27.958Z</time></trkpt><trkpt lat="43.0436115" lon="13.1451517"><ele>733.0</ele><time>2026-04-26T07:30:29.961Z</time></trkpt><trkpt lat="43.0436853" lon="13.1450298"><ele>736.5</ele><time>2026-04-26T07:30:31.962Z</time></trkpt><trkpt lat="43.0436578" lon="13.1448637"><ele>740.0</ele><time>2026-04-26T07:30:33.963Z</time></trkpt><trkpt lat="43.0436067" lon="13.1448064"><ele>743.5</ele><time>2026-04-26T07:30:34.962Z</time></trkpt><trkpt lat="43.0435442" lon="13.144771"><ele>747.0</ele><time>2026-04-26T07:30:35.962Z</time></trkpt><trkpt lat="43.0434792" lon="13.1447491"><ele>750.5</ele><time>2026-04-26T07:30:36.961Z</time></trkpt><trkpt lat="43.0434102" lon="13.1447321"><ele>754.0</ele><time>2026-04-26T07:30:37.967Z</time></trkpt><trkpt lat="43.0433374" lon="13.1447109"><ele>752.1666666666667</ele><time>2026-04-26T07:30:38.963Z</time></trkpt><trkpt lat="43.0432566" lon="13.1446885"><ele>750.3333333333334</ele><time>2026-04-26T07:30:39.97Z</time></trkpt><trkpt lat="43.0431718" lon="13.1446651"><ele>748.5</ele><time>2026-04-26T07:30:40.973Z</time></trkpt><trkpt lat="43.0430858" lon="13.1446295"><ele>746.6666666666666</ele><time>2026-04-26T07:30:41.974Z</time></trkpt><trkpt lat="43.0430061" lon="13.1445891"><ele>744.8333333333333</ele><time>2026-04-26T07:30:42.974Z</time></trkpt><trkpt lat="43.0429416" lon="13.1445395"><ele>743.0</ele><time>2026-04-26T07:30:43.964Z</time></trkpt><trkpt lat="43.0428656" lon="13.144451"><ele>743.0</ele><time>2026-04-26T07:30:45.971Z</time></trkpt><trkpt lat="43.0428267" lon="13.1443341"><ele>743.0</ele><time>2026-04-26T07:30:47.96Z</time></trkpt><trkpt lat="43.0428724" lon="13.1442132"><ele>743.0</ele><time>2026-04-26T07:30:49.965Z</time></trkpt><trkpt lat="43.0429765" lon="13.1441814"><ele>743.0</ele><time>2026-04-26T07:30:51.972Z</time></trkpt><trkpt lat="43.0430419" lon="13.1441908"><ele>743.0</ele><time>2026-04-26T07:30:52.963Z</time></trkpt><trkpt lat="43.043112" lon="13.1442056"><ele>743.0</ele><time>2026-04-26T07:30:53.963Z</time></trkpt><trkpt lat="43.0431965" lon="13.1442196"><ele>743.0</ele><time>2026-04-26T07:30:54.961Z</time></trkpt><trkpt lat="43.0432877" lon="13.1442348"><ele>743.0</ele><time>2026-04-26T07:30:55.961Z</time></trkpt><trkpt lat="43.0433735" lon="13.1442468"><ele>743.0</ele><time>2026-04-26T07:30:56.964Z</time></trkpt><trkpt lat="43.0434519" lon="13.1442553"><ele>743.0</ele><time>2026-04-26T07:30:57.963Z</time></trkpt><trkpt lat="43.0435253" lon="13.1442611"><ele>743.0</ele><time>2026-04-26T07:30:58.965Z</time></trkpt><trkpt lat="43.0435988" lon="13.1442655"><ele>743.0</ele><time>2026-04-26T07:30:59.976Z</time></trkpt><trkpt lat="43.0436783" lon="13.1442614"><ele>744.8333333333333</ele><time>2026-04-26T07:31:00.968Z</time></trkpt><trkpt lat="43.0437623" lon="13.1442491"><ele>746.6666666666666</ele><time>2026-04-26T07:31:01.968Z</time></trkpt><trkpt lat="43.0438471" lon="13.1442166"><ele>748.5</ele><time>2026-04-26T07:31:02.969Z</time></trkpt><trkpt lat="43.0439224" lon="13.1441661"><ele>750.3333333333334</ele><time>2026-04-26T07:31:03.974Z</time></trkpt><trkpt lat="43.0439905" lon="13.1441053"><ele>752.1666666666667</ele><time>2026-04-26T07:31:04.966Z</time></trkpt><trkpt lat="43.044057" lon="13.1440461"><ele>754.0</ele><time>2026-04-26T07:31:05.963Z</time></trkpt><trkpt lat="43.0441222" lon="13.1439891"><ele>756.0</ele><time>2026-04-26T07:31:06.963Z</time></trkpt><trkpt lat="43.0441752" lon="13.143938"><ele>758.0</ele><time>2026-04-26T07:31:07.966Z</time></trkpt><trkpt lat="43.044256" lon="13.1438563"><ele>760.0</ele><time>2026-04-26T07:31:09.981Z</time></trkpt><trkpt lat="43.0443195" lon="13.1437879"><ele>762.0</ele><time>2026-04-26T07:31:11.962Z</time></trkpt><trkpt lat="43.0443859" lon="13.143725"><ele>764.0</ele><time>2026-04-26T07:31:14.971Z</time></trkpt><trkpt lat="43.0444299" lon="13.1436354"><ele>766.0</ele><time>2026-04-26T07:31:16.963Z</time></trkpt><trkpt lat="43.0443918" lon="13.1434768"><ele>766.0</ele><time>2026-04-26T07:31:18.976Z</time></trkpt><trkpt lat="43.0443606" lon="13.1433943"><ele>766.0</ele><time>2026-04-26T07:31:19.966Z</time></trkpt><trkpt lat="43.0443263" lon="13.1433182"><ele>766.0</ele><time>2026-04-26T07:31:20.967Z</time></trkpt><trkpt lat="43.044261" lon="13.1431978"><ele>766.0</ele><time>2026-04-26T07:31:22.961Z</time></trkpt><trkpt lat="43.044174" lon="13.1431182"><ele>766.0</ele><time>2026-04-26T07:31:24.961Z</time></trkpt><trkpt lat="43.0440954" lon="13.143102"><ele>766.0</ele><time>2026-04-26T07:31:25.965Z</time></trkpt><trkpt lat="43.0439852" lon="13.143128"><ele>767.0</ele><time>2026-04-26T07:31:26.962Z</time></trkpt><trkpt lat="43.0438529" lon="13.1431829"><ele>768.0</ele><time>2026-04-26T07:31:27.962Z</time></trkpt><trkpt lat="43.0437014" lon="13.1432433"><ele>769.0</ele><time>2026-04-26T07:31:28.966Z</time></trkpt><trkpt lat="43.0435587" lon="13.1432932"><ele>770.0</ele><time>2026-04-26T07:31:29.959Z</time></trkpt><trkpt lat="43.0434352" lon="13.1433346"><ele>770.0000000000001</ele><time>2026-04-26T07:31:30.963Z</time></trkpt><trkpt lat="43.04333" lon="13.1433728"><ele>770.0</ele><time>2026-04-26T07:31:31.968Z</time></trkpt><trkpt lat="43.0432418" lon="13.1434096"><ele>770.0</ele><time>2026-04-26T07:31:32.955Z</time></trkpt><trkpt lat="43.0431675" lon="13.1434458"><ele>770.0</ele><time>2026-04-26T07:31:33.957Z</time></trkpt><trkpt lat="43.0430939" lon="13.1434803"><ele>770.0000000000001</ele><time>2026-04-26T07:31:34.964Z</time></trkpt><trkpt lat="43.0430195" lon="13.1435062"><ele>770.0</ele><time>2026-04-26T07:31:35.969Z</time></trkpt><trkpt lat="43.0429436" lon="13.1435165"><ele>770.0000000000001</ele><time>2026-04-26T07:31:36.961Z</time></trkpt><trkpt lat="43.0428715" lon="13.1435065"><ele>770.0</ele><time>2026-04-26T07:31:37.963Z</time></trkpt><trkpt lat="43.0428105" lon="13.1434708"><ele>770.0</ele><time>2026-04-26T07:31:38.966Z</time></trkpt><trkpt lat="43.0427232" lon="13.1433589"><ele>770.0</ele><time>2026-04-26T07:31:40.964Z</time></trkpt><trkpt lat="43.0426877" lon="13.1432618"><ele>770.0000000000001</ele><time>2026-04-26T07:31:41.975Z</time></trkpt><trkpt lat="43.0426539" lon="13.1431267"><ele>770.0</ele><time>2026-04-26T07:31:42.968Z</time></trkpt><trkpt lat="43.0426284" lon="13.1429737"><ele>770.0</ele><time>2026-04-26T07:31:43.962Z</time></trkpt><trkpt lat="43.0426091" lon="13.1427871"><ele>770.0</ele><time>2026-04-26T07:31:44.971Z</time></trkpt><trkpt lat="43.0425946" lon="13.1425714"><ele>770.0</ele><time>2026-04-26T07:31:45.966Z</time></trkpt><trkpt lat="43.0425894" lon="13.1423349"><ele>772.3333333333334</ele><time>2026-04-26T07:31:46.959Z</time></trkpt><trkpt lat="43.0425962" lon="13.1420881"><ele>774.6666666666667</ele><time>2026-04-26T07:31:47.962Z</time></trkpt><trkpt lat="43.0426077" lon="13.1418426"><ele>777.0</ele><time>2026-04-26T07:31:48.96Z</time></trkpt><trkpt lat="43.0426201" lon="13.14162"><ele>775.75</ele><time>2026-04-26T07:31:49.965Z</time></trkpt><trkpt lat="43.0426286" lon="13.1414279"><ele>774.5</ele><time>2026-04-26T07:31:50.957Z</time></trkpt><trkpt lat="43.0426103" lon="13.1412382"><ele>773.25</ele><time>2026-04-26T07:31:51.962Z</time></trkpt><trkpt lat="43.0425506" lon="13.1410689"><ele>772.0</ele><time>2026-04-26T07:31:52.962Z</time></trkpt><trkpt lat="43.0424487" lon="13.1409328"><ele>772.0</ele><time>2026-04-26T07:31:53.963Z</time></trkpt><trkpt lat="43.0423279" lon="13.1408156"><ele>772.0</ele><time>2026-04-26T07:31:54.96Z</time></trkpt><trkpt lat="43.0422118" lon="13.1407084"><ele>772.0</ele><time>2026-04-26T07:31:55.959Z</time></trkpt><trkpt lat="43.0421426" lon="13.1405738"><ele>772.0</ele><time>2026-04-26T07:31:56.964Z</time></trkpt><trkpt lat="43.0421006" lon="13.140409"><ele>775.0</ele><time>2026-04-26T07:31:57.968Z</time></trkpt><trkpt lat="43.0420512" lon="13.1402215"><ele>778.0</ele><time>2026-04-26T07:31:58.968Z</time></trkpt><trkpt lat="43.0419978" lon="13.1399997"><ele>781.0</ele><time>2026-04-26T07:31:59.963Z</time></trkpt><trkpt lat="43.0419516" lon="13.1397779"><ele>783.0</ele><time>2026-04-26T07:32:00.962Z</time></trkpt><trkpt lat="43.0419143" lon="13.1395825"><ele>785.0</ele><time>2026-04-26T07:32:01.963Z</time></trkpt><trkpt lat="43.0418631" lon="13.13942"><ele>787.0</ele><time>2026-04-26T07:32:02.961Z</time></trkpt><trkpt lat="43.0417758" lon="13.1392895"><ele>789.0</ele><time>2026-04-26T07:32:03.963Z</time></trkpt><trkpt lat="43.041653" lon="13.1391986"><ele>789.25</ele><time>2026-04-26T07:32:04.961Z</time></trkpt><trkpt lat="43.0415342" lon="13.1391249"><ele>789.5</ele><time>2026-04-26T07:32:05.969Z</time></trkpt><trkpt lat="43.0414471" lon="13.1390143"><ele>789.75</ele><time>2026-04-26T07:32:06.97Z</time></trkpt><trkpt lat="43.0414058" lon="13.1388628"><ele>790.0</ele><time>2026-04-26T07:32:07.96Z</time></trkpt><trkpt lat="43.0413999" lon="13.1386837"><ele>790.0</ele><time>2026-04-26T07:32:08.956Z</time></trkpt><trkpt lat="43.0414018" lon="13.1384852"><ele>790.0</ele><time>2026-04-26T07:32:09.965Z</time></trkpt><trkpt lat="43.0414072" lon="13.1382744"><ele>790.0</ele><time>2026-04-26T07:32:10.963Z</time></trkpt><trkpt lat="43.0413992" lon="13.1380658"><ele>791.0</ele><time>2026-04-26T07:32:11.967Z</time></trkpt><trkpt lat="43.04138" lon="13.1378567"><ele>792.0</ele><time>2026-04-26T07:32:12.964Z</time></trkpt><trkpt lat="43.0413627" lon="13.1376476"><ele>793.0</ele><time>2026-04-26T07:32:13.965Z</time></trkpt><trkpt lat="43.0413471" lon="13.1374235"><ele>794.6666666666666</ele><time>2026-04-26T07:32:14.962Z</time></trkpt><trkpt lat="43.0413354" lon="13.1371925"><ele>796.3333333333333</ele><time>2026-04-26T07:32:15.96Z</time></trkpt><trkpt lat="43.041326" lon="13.1369546"><ele>798.0</ele><time>2026-04-26T07:32:16.967Z</time></trkpt><trkpt lat="43.04132" lon="13.1367265"><ele>798.0</ele><time>2026-04-26T07:32:17.971Z</time></trkpt><trkpt lat="43.0413187" lon="13.1365162"><ele>798.0</ele><time>2026-04-26T07:32:18.961Z</time></trkpt><trkpt lat="43.0413188" lon="13.1363142"><ele>798.0</ele><time>2026-04-26T07:32:19.965Z</time></trkpt><trkpt lat="43.0413271" lon="13.1361306"><ele>798.0</ele><time>2026-04-26T07:32:20.962Z</time></trkpt><trkpt lat="43.0413724" lon="13.135955"><ele>798.0</ele><time>2026-04-26T07:32:21.962Z</time></trkpt><trkpt lat="43.0414573" lon="13.1357872"><ele>798.0</ele><time>2026-04-26T07:32:22.96Z</time></trkpt><trkpt lat="43.0415646" lon="13.1356343"><ele>798.0</ele><time>2026-04-26T07:32:23.961Z</time></trkpt><trkpt lat="43.0416569" lon="13.1354614"><ele>802.0</ele><time>2026-04-26T07:32:24.964Z</time></trkpt><trkpt lat="43.041712" lon="13.13525"><ele>806.0</ele><time>2026-04-26T07:32:25.959Z</time></trkpt><trkpt lat="43.0417343" lon="13.1350101"><ele>810.0</ele><time>2026-04-26T07:32:26.962Z</time></trkpt><trkpt lat="43.0417538" lon="13.1347557"><ele>810.6666666666667</ele><time>2026-04-26T07:32:27.967Z</time></trkpt><trkpt lat="43.0418022" lon="13.1345028"><ele>811.3333333333334</ele><time>2026-04-26T07:32:28.964Z</time></trkpt><trkpt lat="43.0418693" lon="13.1342726"><ele>812.0</ele><time>2026-04-26T07:32:29.964Z</time></trkpt><trkpt lat="43.0419306" lon="13.1340786"><ele>813.25</ele><time>2026-04-26T07:32:30.963Z</time></trkpt><trkpt lat="43.0419965" lon="13.1339157"><ele>814.5</ele><time>2026-04-26T07:32:31.967Z</time></trkpt><trkpt lat="43.0420815" lon="13.133793"><ele>815.75</ele><time>2026-04-26T07:32:32.965Z</time></trkpt><trkpt lat="43.0421787" lon="13.1336938"><ele>817.0</ele><time>2026-04-26T07:32:33.972Z</time></trkpt><trkpt lat="43.0422701" lon="13.1335832"><ele>817.0</ele><time>2026-04-26T07:32:34.962Z</time></trkpt><trkpt lat="43.0423484" lon="13.1334501"><ele>817.0</ele><time>2026-04-26T07:32:35.962Z</time></trkpt><trkpt lat="43.0424153" lon="13.1333061"><ele>817.0</ele><time>2026-04-26T07:32:36.955Z</time></trkpt><trkpt lat="43.0424616" lon="13.1331477"><ele>817.0</ele><time>2026-04-26T07:32:37.968Z</time></trkpt><trkpt lat="43.0424859" lon="13.1329774"><ele>817.75</ele><time>2026-04-26T07:32:38.954Z</time></trkpt><trkpt lat="43.0424871" lon="13.1328147"><ele>818.5</ele><time>2026-04-26T07:32:39.96Z</time></trkpt><trkpt lat="43.0424567" lon="13.1326692"><ele>819.25</ele><time>2026-04-26T07:32:40.956Z</time></trkpt><trkpt lat="43.0424089" lon="13.1325314"><ele>820.0</ele><time>2026-04-26T07:32:41.958Z</time></trkpt><trkpt lat="43.0422955" lon="13.1324319"><ele>822.0</ele><time>2026-04-26T07:32:42.964Z</time></trkpt><trkpt lat="43.0421928" lon="13.1323265"><ele>824.0</ele><time>2026-04-26T07:32:43.966Z</time></trkpt><trkpt lat="43.042137" lon="13.1321872"><ele>826.0</ele><time>2026-04-26T07:32:44.961Z</time></trkpt><trkpt lat="43.0421078" lon="13.1320173"><ele>828.0</ele><time>2026-04-26T07:32:45.958Z</time></trkpt><trkpt lat="43.0420981" lon="13.1318258"><ele>828.0</ele><time>2026-04-26T07:32:46.955Z</time></trkpt><trkpt lat="43.042106" lon="13.131618"><ele>828.0</ele><time>2026-04-26T07:32:47.967Z</time></trkpt><trkpt lat="43.0421234" lon="13.131394"><ele>828.0</ele><time>2026-04-26T07:32:48.964Z</time></trkpt><trkpt lat="43.0421312" lon="13.1311713"><ele>830.25</ele><time>2026-04-26T07:32:49.964Z</time></trkpt><trkpt lat="43.0421238" lon="13.1309706"><ele>832.5</ele><time>2026-04-26T07:32:50.96Z</time></trkpt><trkpt lat="43.0420956" lon="13.1307946"><ele>834.75</ele><time>2026-04-26T07:32:51.957Z</time></trkpt><trkpt lat="43.0420377" lon="13.1306565"><ele>837.0</ele><time>2026-04-26T07:32:52.963Z</time></trkpt><trkpt lat="43.0419569" lon="13.1305635"><ele>837.6</ele><time>2026-04-26T07:32:53.966Z</time></trkpt><trkpt lat="43.0418616" lon="13.130528"><ele>838.2</ele><time>2026-04-26T07:32:54.959Z</time></trkpt><trkpt lat="43.0417609" lon="13.1305622"><ele>838.8</ele><time>2026-04-26T07:32:55.96Z</time></trkpt><trkpt lat="43.0416703" lon="13.1306511"><ele>839.4</ele><time>2026-04-26T07:32:56.96Z</time></trkpt><trkpt lat="43.0415767" lon="13.1307443"><ele>840.0</ele><time>2026-04-26T07:32:57.97Z</time></trkpt><trkpt lat="43.0414673" lon="13.1308008"><ele>840.0</ele><time>2026-04-26T07:32:58.966Z</time></trkpt><trkpt lat="43.041342" lon="13.1308212"><ele>840.0</ele><time>2026-04-26T07:32:59.964Z</time></trkpt><trkpt lat="43.0412013" lon="13.1308158"><ele>840.0</ele><time>2026-04-26T07:33:00.975Z</time></trkpt><trkpt lat="43.0410512" lon="13.1307867"><ele>840.0</ele><time>2026-04-26T07:33:01.964Z</time></trkpt><trkpt lat="43.0408919" lon="13.1307405"><ele>842.6666666666667</ele><time>2026-04-26T07:33:02.955Z</time></trkpt><trkpt lat="43.040723" lon="13.1306965"><ele>845.3333333333334</ele><time>2026-04-26T07:33:03.958Z</time></trkpt><trkpt lat="43.0405542" lon="13.1306669"><ele>848.0</ele><time>2026-04-26T07:33:04.955Z</time></trkpt><trkpt lat="43.0403985" lon="13.1306399"><ele>848.0</ele><time>2026-04-26T07:33:05.961Z</time></trkpt><trkpt lat="43.0402508" lon="13.1306026"><ele>848.0</ele><time>2026-04-26T07:33:06.969Z</time></trkpt><trkpt lat="43.0401193" lon="13.1305344"><ele>848.0</ele><time>2026-04-26T07:33:07.962Z</time></trkpt><trkpt lat="43.0399978" lon="13.1304235"><ele>848.0</ele><time>2026-04-26T07:33:08.96Z</time></trkpt><trkpt lat="43.0398768" lon="13.1302753"><ele>848.3333333333334</ele><time>2026-04-26T07:33:09.962Z</time></trkpt><trkpt lat="43.0397433" lon="13.1301148"><ele>848.6666666666667</ele><time>2026-04-26T07:33:10.959Z</time></trkpt><trkpt lat="43.0395975" lon="13.1299387"><ele>849.0</ele><time>2026-04-26T07:33:11.963Z</time></trkpt><trkpt lat="43.0394409" lon="13.1297516"><ele>849.0</ele><time>2026-04-26T07:33:12.96Z</time></trkpt><trkpt lat="43.0392784" lon="13.1295542"><ele>849.0</ele><time>2026-04-26T07:33:13.971Z</time></trkpt><trkpt lat="43.0391099" lon="13.1293502"><ele>849.0</ele><time>2026-04-26T07:33:14.964Z</time></trkpt><trkpt lat="43.0389398" lon="13.1291445"><ele>850.3333333333333</ele><time>2026-04-26T07:33:15.959Z</time></trkpt><trkpt lat="43.0387718" lon="13.1289401"><ele>851.6666666666666</ele><time>2026-04-26T07:33:16.968Z</time></trkpt><trkpt lat="43.0386109" lon="13.1287434"><ele>853.0</ele><time>2026-04-26T07:33:17.964Z</time></trkpt><trkpt lat="43.0384564" lon="13.1285543"><ele>853.0</ele><time>2026-04-26T07:33:18.96Z</time></trkpt><trkpt lat="43.0383134" lon="13.1283819"><ele>853.0</ele><time>2026-04-26T07:33:19.963Z</time></trkpt><trkpt lat="43.0381802" lon="13.1282167"><ele>853.0</ele><time>2026-04-26T07:33:20.956Z</time></trkpt><trkpt lat="43.0380604" lon="13.128044"><ele>854.6666666666666</ele><time>2026-04-26T07:33:21.97Z</time></trkpt><trkpt lat="43.03795" lon="13.1278598"><ele>856.3333333333333</ele><time>2026-04-26T07:33:22.957Z</time></trkpt><trkpt lat="43.03784" lon="13.1276666"><ele>858.0</ele><time>2026-04-26T07:33:23.96Z</time></trkpt><trkpt lat="43.0377293" lon="13.1274721"><ele>858.0</ele><time>2026-04-26T07:33:24.964Z</time></trkpt><trkpt lat="43.0376178" lon="13.1272842"><ele>858.0</ele><time>2026-04-26T07:33:25.966Z</time></trkpt><trkpt lat="43.0375049" lon="13.1270995"><ele>858.0</ele><time>2026-04-26T07:33:26.969Z</time></trkpt><trkpt lat="43.0373842" lon="13.1269108"><ele>858.0</ele><time>2026-04-26T07:33:27.964Z</time></trkpt><trkpt lat="43.0372643" lon="13.1267108"><ele>858.0</ele><time>2026-04-26T07:33:28.962Z</time></trkpt><trkpt lat="43.0371556" lon="13.1264919"><ele>858.0</ele><time>2026-04-26T07:33:29.97Z</time></trkpt><trkpt lat="43.0370669" lon="13.1262499"><ele>858.0</ele><time>2026-04-26T07:33:30.966Z</time></trkpt><trkpt lat="43.0369988" lon="13.1259966"><ele>858.0</ele><time>2026-04-26T07:33:31.961Z</time></trkpt><trkpt lat="43.0369406" lon="13.1257446"><ele>858.0</ele><time>2026-04-26T07:33:32.963Z</time></trkpt><trkpt lat="43.0368844" lon="13.1255064"><ele>857.3333333333333</ele><time>2026-04-26T07:33:33.966Z</time></trkpt><trkpt lat="43.0368275" lon="13.1252841"><ele>856.6666666666666</ele><time>2026-04-26T07:33:34.975Z</time></trkpt><trkpt lat="43.0367881" lon="13.125068"><ele>856.0</ele><time>2026-04-26T07:33:35.966Z</time></trkpt><trkpt lat="43.0367843" lon="13.1248492"><ele>856.0</ele><time>2026-04-26T07:33:36.956Z</time></trkpt><trkpt lat="43.036812" lon="13.1246378"><ele>856.0</ele><time>2026-04-26T07:33:37.97Z</time></trkpt><trkpt lat="43.0368551" lon="13.1244353"><ele>856.0</ele><time>2026-04-26T07:33:38.965Z</time></trkpt><trkpt lat="43.0369013" lon="13.1242466"><ele>856.0</ele><time>2026-04-26T07:33:39.963Z</time></trkpt><trkpt lat="43.0369407" lon="13.124085"><ele>855.9999999999999</ele><time>2026-04-26T07:33:40.96Z</time></trkpt><trkpt lat="43.0369697" lon="13.123951"><ele>855.9999999999999</ele><time>2026-04-26T07:33:41.965Z</time></trkpt><trkpt lat="43.0369832" lon="13.1238384"><ele>856.0</ele><time>2026-04-26T07:33:42.971Z</time></trkpt><trkpt lat="43.036967" lon="13.1237418"><ele>856.0</ele><time>2026-04-26T07:33:43.966Z</time></trkpt><trkpt lat="43.0369344" lon="13.1236537"><ele>856.0</ele><time>2026-04-26T07:33:44.96Z</time></trkpt><trkpt lat="43.0368546" lon="13.1235823"><ele>856.0</ele><time>2026-04-26T07:33:45.968Z</time></trkpt><trkpt lat="43.036765" lon="13.1235085"><ele>856.0</ele><time>2026-04-26T07:33:46.964Z</time></trkpt><trkpt lat="43.036661" lon="13.1234184"><ele>856.0</ele><time>2026-04-26T07:33:47.961Z</time></trkpt><trkpt lat="43.0365429" lon="13.1233062"><ele>858.0</ele><time>2026-04-26T07:33:48.96Z</time></trkpt><trkpt lat="43.0364174" lon="13.1231733"><ele>860.0</ele><time>2026-04-26T07:33:49.97Z</time></trkpt><trkpt lat="43.0362889" lon="13.1230244"><ele>862.0</ele><time>2026-04-26T07:33:50.965Z</time></trkpt><trkpt lat="43.0361517" lon="13.1228663"><ele>862.0</ele><time>2026-04-26T07:33:51.972Z</time></trkpt><trkpt lat="43.0360151" lon="13.1226977"><ele>862.0</ele><time>2026-04-26T07:33:52.96Z</time></trkpt><trkpt lat="43.0358744" lon="13.1225221"><ele>862.0</ele><time>2026-04-26T07:33:53.967Z</time></trkpt><trkpt lat="43.0357288" lon="13.1223399"><ele>864.0</ele><time>2026-04-26T07:33:54.972Z</time></trkpt><trkpt lat="43.0355803" lon="13.1221555"><ele>866.0</ele><time>2026-04-26T07:33:55.964Z</time></trkpt><trkpt lat="43.0354284" lon="13.1219628"><ele>868.0</ele><time>2026-04-26T07:33:56.969Z</time></trkpt><trkpt lat="43.0352739" lon="13.1217631"><ele>868.3333333333333</ele><time>2026-04-26T07:33:57.963Z</time></trkpt><trkpt lat="43.0351163" lon="13.1215595"><ele>868.6666666666667</ele><time>2026-04-26T07:33:58.964Z</time></trkpt><trkpt lat="43.0349567" lon="13.121352"><ele>869.0</ele><time>2026-04-26T07:33:59.965Z</time></trkpt><trkpt lat="43.0347958" lon="13.1211426"><ele>871.3333333333334</ele><time>2026-04-26T07:34:00.959Z</time></trkpt><trkpt lat="43.0346316" lon="13.1209335"><ele>873.6666666666667</ele><time>2026-04-26T07:34:01.962Z</time></trkpt><trkpt lat="43.0344669" lon="13.1207244"><ele>876.0</ele><time>2026-04-26T07:34:02.975Z</time></trkpt><trkpt lat="43.0343022" lon="13.1205135"><ele>880.0</ele><time>2026-04-26T07:34:03.963Z</time></trkpt><trkpt lat="43.0341359" lon="13.1203061"><ele>884.0</ele><time>2026-04-26T07:34:04.964Z</time></trkpt><trkpt lat="43.0339689" lon="13.1201002"><ele>885.0</ele><time>2026-04-26T07:34:05.961Z</time></trkpt><trkpt lat="43.0338055" lon="13.1198963"><ele>886.0</ele><time>2026-04-26T07:34:06.963Z</time></trkpt><trkpt lat="43.0336457" lon="13.1196956"><ele>887.0</ele><time>2026-04-26T07:34:07.967Z</time></trkpt><trkpt lat="43.0334845" lon="13.1194939"><ele>887.0</ele><time>2026-04-26T07:34:08.967Z</time></trkpt><trkpt lat="43.0333234" lon="13.1192895"><ele>887.0</ele><time>2026-04-26T07:34:09.971Z</time></trkpt><trkpt lat="43.0331602" lon="13.1190821"><ele>887.0</ele><time>2026-04-26T07:34:10.965Z</time></trkpt><trkpt lat="43.0329944" lon="13.1188729"><ele>890.0</ele><time>2026-04-26T07:34:11.97Z</time></trkpt><trkpt lat="43.032827" lon="13.1186606"><ele>893.0</ele><time>2026-04-26T07:34:12.972Z</time></trkpt><trkpt lat="43.0326589" lon="13.1184482"><ele>893.0</ele><time>2026-04-26T07:34:13.963Z</time></trkpt><trkpt lat="43.032489" lon="13.1182342"><ele>893.0</ele><time>2026-04-26T07:34:14.972Z</time></trkpt><trkpt lat="43.0323173" lon="13.1180187"><ele>897.5</ele><time>2026-04-26T07:34:15.967Z</time></trkpt><trkpt lat="43.0321437" lon="13.1178044"><ele>902.0</ele><time>2026-04-26T07:34:16.965Z</time></trkpt><trkpt lat="43.0319693" lon="13.1175908"><ele>899.0</ele><time>2026-04-26T07:34:17.965Z</time></trkpt><trkpt lat="43.0317941" lon="13.117374"><ele>896.0</ele><time>2026-04-26T07:34:18.972Z</time></trkpt><trkpt lat="43.0316213" lon="13.117154"><ele>902.0</ele><time>2026-04-26T07:34:19.967Z</time></trkpt><trkpt lat="43.0314485" lon="13.1169359"><ele>908.0</ele><time>2026-04-26T07:34:20.966Z</time></trkpt><trkpt lat="43.0312874" lon="13.1167289"><ele>903.0</ele><time>2026-04-26T07:34:21.97Z</time></trkpt><trkpt lat="43.0311429" lon="13.1165375"><ele>898.0</ele><time>2026-04-26T07:34:22.966Z</time></trkpt><trkpt lat="43.0310157" lon="13.1163631"><ele>893.0</ele><time>2026-04-26T07:34:23.97Z</time></trkpt><trkpt lat="43.0308982" lon="13.1162135"><ele>890.6666666666667</ele><time>2026-04-26T07:34:24.971Z</time></trkpt><trkpt lat="43.0307774" lon="13.1161002"><ele>888.3333333333333</ele><time>2026-04-26T07:34:25.966Z</time></trkpt><trkpt lat="43.0306397" lon="13.1160236"><ele>886.0</ele><time>2026-04-26T07:34:26.963Z</time></trkpt><trkpt lat="43.0304815" lon="13.1159853"><ele>886.0</ele><time>2026-04-26T07:34:27.968Z</time></trkpt><trkpt lat="43.0303115" lon="13.1159925"><ele>886.0</ele><time>2026-04-26T07:34:28.969Z</time></trkpt><trkpt lat="43.0301327" lon="13.1160461"><ele>886.0</ele><time>2026-04-26T07:34:29.962Z</time></trkpt><trkpt lat="43.0299445" lon="13.1161143"><ele>879.6666666666666</ele><time>2026-04-26T07:34:30.961Z</time></trkpt><trkpt lat="43.0297474" lon="13.1161814"><ele>873.3333333333333</ele><time>2026-04-26T07:34:31.961Z</time></trkpt><trkpt lat="43.0295525" lon="13.1162632"><ele>867.0</ele><time>2026-04-26T07:34:32.966Z</time></trkpt><trkpt lat="43.029352" lon="13.1163562"><ele>864.0</ele><time>2026-04-26T07:34:33.969Z</time></trkpt><trkpt lat="43.0291357" lon="13.1164546"><ele>861.0</ele><time>2026-04-26T07:34:34.968Z</time></trkpt><trkpt lat="43.0289215" lon="13.1165392"><ele>875.0</ele><time>2026-04-26T07:34:35.963Z</time></trkpt><trkpt lat="43.0287025" lon="13.1166071"><ele>889.0</ele><time>2026-04-26T07:34:36.971Z</time></trkpt><trkpt lat="43.0284871" lon="13.1166763"><ele>903.0</ele><time>2026-04-26T07:34:37.963Z</time></trkpt><trkpt lat="43.0282702" lon="13.1167308"><ele>903.3333333333333</ele><time>2026-04-26T07:34:38.963Z</time></trkpt><trkpt lat="43.0280529" lon="13.1167687"><ele>903.6666666666666</ele><time>2026-04-26T07:34:39.961Z</time></trkpt><trkpt lat="43.0278405" lon="13.1167943"><ele>904.0</ele><time>2026-04-26T07:34:40.965Z</time></trkpt><trkpt lat="43.0276261" lon="13.116822"><ele>902.6666666666666</ele><time>2026-04-26T07:34:41.971Z</time></trkpt><trkpt lat="43.0274114" lon="13.1168486"><ele>901.3333333333333</ele><time>2026-04-26T07:34:42.967Z</time></trkpt><trkpt lat="43.0271937" lon="13.1168737"><ele>900.0</ele><time>2026-04-26T07:34:43.965Z</time></trkpt><trkpt lat="43.0269766" lon="13.1168946"><ele>900.0</ele><time>2026-04-26T07:34:44.964Z</time></trkpt><trkpt lat="43.0267613" lon="13.1169162"><ele>900.0</ele><time>2026-04-26T07:34:45.961Z</time></trkpt><trkpt lat="43.0265482" lon="13.1169355"><ele>900.0</ele><time>2026-04-26T07:34:46.968Z</time></trkpt><trkpt lat="43.0263362" lon="13.1169512"><ele>901.6666666666667</ele><time>2026-04-26T07:34:47.962Z</time></trkpt><trkpt lat="43.0261246" lon="13.116959"><ele>903.3333333333334</ele><time>2026-04-26T07:34:48.956Z</time></trkpt><trkpt lat="43.0259137" lon="13.1169563"><ele>905.0</ele><time>2026-04-26T07:34:49.962Z</time></trkpt><trkpt lat="43.0257016" lon="13.1169424"><ele>909.0</ele><time>2026-04-26T07:34:50.959Z</time></trkpt><trkpt lat="43.0254894" lon="13.1169134"><ele>913.0</ele><time>2026-04-26T07:34:51.96Z</time></trkpt><trkpt lat="43.0252759" lon="13.1168775"><ele>917.0</ele><time>2026-04-26T07:34:52.958Z</time></trkpt><trkpt lat="43.0250629" lon="13.1168398"><ele>919.6666666666667</ele><time>2026-04-26T07:34:53.956Z</time></trkpt><trkpt lat="43.0248475" lon="13.1167968"><ele>922.3333333333333</ele><time>2026-04-26T07:34:54.973Z</time></trkpt><trkpt lat="43.0246319" lon="13.1167475"><ele>925.0</ele><time>2026-04-26T07:34:55.957Z</time></trkpt><trkpt lat="43.0244242" lon="13.1167045"><ele>925.0</ele><time>2026-04-26T07:34:56.961Z</time></trkpt><trkpt lat="43.0242129" lon="13.1166858"><ele>925.0</ele><time>2026-04-26T07:34:57.957Z</time></trkpt><trkpt lat="43.0240009" lon="13.1166963"><ele>925.0</ele><time>2026-04-26T07:34:58.96Z</time></trkpt><trkpt lat="43.023798" lon="13.1167283"><ele>923.6666666666666</ele><time>2026-04-26T07:34:59.956Z</time></trkpt><trkpt lat="43.0235849" lon="13.1167712"><ele>922.3333333333333</ele><time>2026-04-26T07:35:00.954Z</time></trkpt><trkpt lat="43.0233686" lon="13.1168121"><ele>921.0</ele><time>2026-04-26T07:35:01.954Z</time></trkpt><trkpt lat="43.0231525" lon="13.1168506"><ele>920.6666666666667</ele><time>2026-04-26T07:35:02.961Z</time></trkpt><trkpt lat="43.0229351" lon="13.116895"><ele>920.3333333333334</ele><time>2026-04-26T07:35:03.959Z</time></trkpt><trkpt lat="43.0227162" lon="13.1169555"><ele>920.0</ele><time>2026-04-26T07:35:04.958Z</time></trkpt><trkpt lat="43.0224959" lon="13.1170287"><ele>924.0</ele><time>2026-04-26T07:35:05.959Z</time></trkpt><trkpt lat="43.0222742" lon="13.1171014"><ele>928.0</ele><time>2026-04-26T07:35:06.955Z</time></trkpt><trkpt lat="43.022056" lon="13.1171819"><ele>928.0</ele><time>2026-04-26T07:35:07.955Z</time></trkpt><trkpt lat="43.0218488" lon="13.1172739"><ele>928.0</ele><time>2026-04-26T07:35:08.97Z</time></trkpt><trkpt lat="43.0216621" lon="13.1173706"><ele>928.0</ele><time>2026-04-26T07:35:09.956Z</time></trkpt><trkpt lat="43.0214864" lon="13.117472"><ele>933.3333333333333</ele><time>2026-04-26T07:35:10.955Z</time></trkpt><trkpt lat="43.0213235" lon="13.1175954"><ele>938.6666666666667</ele><time>2026-04-26T07:35:11.963Z</time></trkpt><trkpt lat="43.021169" lon="13.1177427"><ele>944.0</ele><time>2026-04-26T07:35:12.96Z</time></trkpt><trkpt lat="43.021021" lon="13.1179062"><ele>944.0</ele><time>2026-04-26T07:35:13.957Z</time></trkpt><trkpt lat="43.0208809" lon="13.118057"><ele>944.0</ele><time>2026-04-26T07:35:14.96Z</time></trkpt><trkpt lat="43.0207474" lon="13.1181912"><ele>944.0</ele><time>2026-04-26T07:35:15.965Z</time></trkpt><trkpt lat="43.020625" lon="13.118312"><ele>946.75</ele><time>2026-04-26T07:35:16.959Z</time></trkpt><trkpt lat="43.0205129" lon="13.1184231"><ele>949.5</ele><time>2026-04-26T07:35:17.958Z</time></trkpt><trkpt lat="43.0204106" lon="13.1185236"><ele>952.25</ele><time>2026-04-26T07:35:18.958Z</time></trkpt><trkpt lat="43.0203142" lon="13.1186032"><ele>955.0</ele><time>2026-04-26T07:35:19.961Z</time></trkpt><trkpt lat="43.0202165" lon="13.1186427"><ele>955.0</ele><time>2026-04-26T07:35:20.956Z</time></trkpt><trkpt lat="43.020121" lon="13.1186286"><ele>955.0</ele><time>2026-04-26T07:35:21.96Z</time></trkpt><trkpt lat="43.0200394" lon="13.1185652"><ele>955.0</ele><time>2026-04-26T07:35:22.963Z</time></trkpt><trkpt lat="43.0199805" lon="13.1184678"><ele>955.0</ele><time>2026-04-26T07:35:23.961Z</time></trkpt><trkpt lat="43.0199485" lon="13.1183528"><ele>955.0</ele><time>2026-04-26T07:35:24.961Z</time></trkpt><trkpt lat="43.0199402" lon="13.1182264"><ele>958.0</ele><time>2026-04-26T07:35:25.962Z</time></trkpt><trkpt lat="43.0199545" lon="13.1180941"><ele>961.0</ele><time>2026-04-26T07:35:26.963Z</time></trkpt><trkpt lat="43.0199855" lon="13.1179562"><ele>964.0</ele><time>2026-04-26T07:35:27.965Z</time></trkpt><trkpt lat="43.0200329" lon="13.1178061"><ele>967.0</ele><time>2026-04-26T07:35:28.963Z</time></trkpt><trkpt lat="43.0201004" lon="13.117645"><ele>967.0</ele><time>2026-04-26T07:35:29.967Z</time></trkpt><trkpt lat="43.0201844" lon="13.1174854"><ele>967.0</ele><time>2026-04-26T07:35:30.97Z</time></trkpt><trkpt lat="43.0202756" lon="13.1173356"><ele>967.0</ele><time>2026-04-26T07:35:31.96Z</time></trkpt><trkpt lat="43.0203654" lon="13.1172037"><ele>967.0</ele><time>2026-04-26T07:35:32.961Z</time></trkpt><trkpt lat="43.0204529" lon="13.1170762"><ele>971.75</ele><time>2026-04-26T07:35:33.963Z</time></trkpt><trkpt lat="43.0205382" lon="13.1169441"><ele>976.5</ele><time>2026-04-26T07:35:34.956Z</time></trkpt><trkpt lat="43.020621" lon="13.1168082"><ele>981.25</ele><time>2026-04-26T07:35:35.961Z</time></trkpt><trkpt lat="43.0206964" lon="13.1166732"><ele>986.0</ele><time>2026-04-26T07:35:36.962Z</time></trkpt><trkpt lat="43.020761" lon="13.1165463"><ele>982.75</ele><time>2026-04-26T07:35:37.964Z</time></trkpt><trkpt lat="43.0208192" lon="13.1164179"><ele>979.5</ele><time>2026-04-26T07:35:38.968Z</time></trkpt><trkpt lat="43.0208782" lon="13.1162818"><ele>976.25</ele><time>2026-04-26T07:35:39.965Z</time></trkpt><trkpt lat="43.0209405" lon="13.1161314"><ele>973.0</ele><time>2026-04-26T07:35:40.964Z</time></trkpt><trkpt lat="43.0210087" lon="13.1159662"><ele>973.0</ele><time>2026-04-26T07:35:41.973Z</time></trkpt><trkpt lat="43.0210785" lon="13.1157897"><ele>973.0</ele><time>2026-04-26T07:35:42.966Z</time></trkpt><trkpt lat="43.0211408" lon="13.1156082"><ele>973.0</ele><time>2026-04-26T07:35:43.96Z</time></trkpt><trkpt lat="43.0211739" lon="13.1154284"><ele>973.0</ele><time>2026-04-26T07:35:44.961Z</time></trkpt><trkpt lat="43.0211715" lon="13.1152346"><ele>975.3333333333333</ele><time>2026-04-26T07:35:45.97Z</time></trkpt><trkpt lat="43.0211469" lon="13.115024"><ele>977.6666666666667</ele><time>2026-04-26T07:35:46.965Z</time></trkpt><trkpt lat="43.021118" lon="13.1147997"><ele>980.0</ele><time>2026-04-26T07:35:47.963Z</time></trkpt><trkpt lat="43.0210833" lon="13.1145656"><ele>980.3333333333334</ele><time>2026-04-26T07:35:48.957Z</time></trkpt><trkpt lat="43.0210513" lon="13.1143473"><ele>980.6666666666667</ele><time>2026-04-26T07:35:49.959Z</time></trkpt><trkpt lat="43.021047" lon="13.1141335"><ele>981.0</ele><time>2026-04-26T07:35:50.971Z</time></trkpt><trkpt lat="43.0210895" lon="13.1139257"><ele>983.6666666666667</ele><time>2026-04-26T07:35:51.963Z</time></trkpt><trkpt lat="43.0211724" lon="13.11373"><ele>986.3333333333334</ele><time>2026-04-26T07:35:52.962Z</time></trkpt><trkpt lat="43.0212759" lon="13.1135502"><ele>989.0</ele><time>2026-04-26T07:35:53.967Z</time></trkpt><trkpt lat="43.0213628" lon="13.1133889"><ele>988.25</ele><time>2026-04-26T07:35:54.962Z</time></trkpt><trkpt lat="43.021434" lon="13.1132332"><ele>987.5</ele><time>2026-04-26T07:35:55.96Z</time></trkpt><trkpt lat="43.0214819" lon="13.1130809"><ele>986.75</ele><time>2026-04-26T07:35:56.968Z</time></trkpt><trkpt lat="43.0215045" lon="13.1129321"><ele>986.0</ele><time>2026-04-26T07:35:57.965Z</time></trkpt><trkpt lat="43.0215048" lon="13.1127812"><ele>986.0</ele><time>2026-04-26T07:35:58.961Z</time></trkpt><trkpt lat="43.0214832" lon="13.1126269"><ele>986.0</ele><time>2026-04-26T07:35:59.963Z</time></trkpt><trkpt lat="43.0214405" lon="13.1124719"><ele>986.0</ele><time>2026-04-26T07:36:00.963Z</time></trkpt><trkpt lat="43.021371" lon="13.1123137"><ele>986.0</ele><time>2026-04-26T07:36:01.963Z</time></trkpt><trkpt lat="43.0212822" lon="13.1121475"><ele>983.0</ele><time>2026-04-26T07:36:02.964Z</time></trkpt><trkpt lat="43.021183" lon="13.1119684"><ele>980.0</ele><time>2026-04-26T07:36:03.969Z</time></trkpt><trkpt lat="43.0210741" lon="13.1117786"><ele>977.0</ele><time>2026-04-26T07:36:04.967Z</time></trkpt><trkpt lat="43.0209556" lon="13.1115844"><ele>977.3333333333334</ele><time>2026-04-26T07:36:05.995Z</time></trkpt><trkpt lat="43.0208306" lon="13.1113888"><ele>977.6666666666667</ele><time>2026-04-26T07:36:06.971Z</time></trkpt><trkpt lat="43.0207089" lon="13.111206"><ele>978.0</ele><time>2026-04-26T07:36:07.963Z</time></trkpt><trkpt lat="43.0205889" lon="13.1110326"><ele>978.0</ele><time>2026-04-26T07:36:08.964Z</time></trkpt><trkpt lat="43.0204676" lon="13.1108667"><ele>978.0</ele><time>2026-04-26T07:36:09.97Z</time></trkpt><trkpt lat="43.0203455" lon="13.1107144"><ele>978.0</ele><time>2026-04-26T07:36:10.965Z</time></trkpt><trkpt lat="43.0202197" lon="13.110579"><ele>975.6666666666667</ele><time>2026-04-26T07:36:11.965Z</time></trkpt><trkpt lat="43.0200834" lon="13.1104661"><ele>973.3333333333334</ele><time>2026-04-26T07:36:12.969Z</time></trkpt><trkpt lat="43.0199262" lon="13.1103823"><ele>971.0</ele><time>2026-04-26T07:36:13.959Z</time></trkpt><trkpt lat="43.0197543" lon="13.1103156"><ele>971.0</ele><time>2026-04-26T07:36:14.964Z</time></trkpt><trkpt lat="43.0195728" lon="13.1102465"><ele>971.0</ele><time>2026-04-26T07:36:15.966Z</time></trkpt><trkpt lat="43.0193829" lon="13.1101727"><ele>971.0</ele><time>2026-04-26T07:36:16.963Z</time></trkpt><trkpt lat="43.0191852" lon="13.1100972"><ele>972.6666666666667</ele><time>2026-04-26T07:36:17.96Z</time></trkpt><trkpt lat="43.0189846" lon="13.1100205"><ele>974.3333333333333</ele><time>2026-04-26T07:36:18.962Z</time></trkpt><trkpt lat="43.0187904" lon="13.1099429"><ele>976.0</ele><time>2026-04-26T07:36:19.967Z</time></trkpt><trkpt lat="43.0186083" lon="13.1098629"><ele>968.3333333333333</ele><time>2026-04-26T07:36:20.964Z</time></trkpt><trkpt lat="43.0184364" lon="13.1097843"><ele>960.6666666666667</ele><time>2026-04-26T07:36:21.968Z</time></trkpt><trkpt lat="43.0182733" lon="13.1097135"><ele>953.0</ele><time>2026-04-26T07:36:22.964Z</time></trkpt><trkpt lat="43.0181155" lon="13.1096614"><ele>948.3333333333334</ele><time>2026-04-26T07:36:23.965Z</time></trkpt><trkpt lat="43.0179539" lon="13.1096461"><ele>943.6666666666667</ele><time>2026-04-26T07:36:24.964Z</time></trkpt><trkpt lat="43.017789" lon="13.1096778"><ele>939.0</ele><time>2026-04-26T07:36:25.96Z</time></trkpt><trkpt lat="43.0176261" lon="13.1097535"><ele>941.0</ele><time>2026-04-26T07:36:26.963Z</time></trkpt><trkpt lat="43.0174728" lon="13.1098542"><ele>943.0</ele><time>2026-04-26T07:36:27.958Z</time></trkpt><trkpt lat="43.0173326" lon="13.1099548"><ele>945.0</ele><time>2026-04-26T07:36:28.96Z</time></trkpt><trkpt lat="43.0172066" lon="13.1100484"><ele>951.25</ele><time>2026-04-26T07:36:29.974Z</time></trkpt><trkpt lat="43.017089" lon="13.110134"><ele>957.5</ele><time>2026-04-26T07:36:30.967Z</time></trkpt><trkpt lat="43.016978" lon="13.1102036"><ele>963.75</ele><time>2026-04-26T07:36:31.966Z</time></trkpt><trkpt lat="43.0168679" lon="13.1102396"><ele>970.0</ele><time>2026-04-26T07:36:32.964Z</time></trkpt><trkpt lat="43.0167676" lon="13.1102183"><ele>970.0</ele><time>2026-04-26T07:36:33.972Z</time></trkpt><trkpt lat="43.0166943" lon="13.1101391"><ele>970.0</ele><time>2026-04-26T07:36:34.965Z</time></trkpt><trkpt lat="43.016642" lon="13.1100135"><ele>970.0</ele><time>2026-04-26T07:36:35.961Z</time></trkpt><trkpt lat="43.0165878" lon="13.109864"><ele>970.0</ele><time>2026-04-26T07:36:36.962Z</time></trkpt><trkpt lat="43.0165141" lon="13.1097039"><ele>968.6666666666666</ele><time>2026-04-26T07:36:37.966Z</time></trkpt><trkpt lat="43.0164191" lon="13.1095468"><ele>967.3333333333333</ele><time>2026-04-26T07:36:38.96Z</time></trkpt><trkpt lat="43.0163006" lon="13.1094082"><ele>966.0</ele><time>2026-04-26T07:36:39.961Z</time></trkpt><trkpt lat="43.0161621" lon="13.1093004"><ele>966.0</ele><time>2026-04-26T07:36:40.973Z</time></trkpt><trkpt lat="43.0160174" lon="13.1092044"><ele>966.0</ele><time>2026-04-26T07:36:41.962Z</time></trkpt><trkpt lat="43.0158441" lon="13.1091702"><ele>966.0</ele><time>2026-04-26T07:36:42.96Z</time></trkpt><trkpt lat="43.0156593" lon="13.109169"><ele>964.3333333333333</ele><time>2026-04-26T07:36:43.961Z</time></trkpt><trkpt lat="43.0154691" lon="13.1091919"><ele>962.6666666666666</ele><time>2026-04-26T07:36:44.97Z</time></trkpt><trkpt lat="43.0152754" lon="13.1092325"><ele>961.0</ele><time>2026-04-26T07:36:45.967Z</time></trkpt><trkpt lat="43.0150747" lon="13.1092825"><ele>958.6666666666666</ele><time>2026-04-26T07:36:46.961Z</time></trkpt><trkpt lat="43.0148771" lon="13.1093393"><ele>956.3333333333333</ele><time>2026-04-26T07:36:47.969Z</time></trkpt><trkpt lat="43.0146837" lon="13.1093895"><ele>954.0</ele><time>2026-04-26T07:36:48.96Z</time></trkpt><trkpt lat="43.0144865" lon="13.1094302"><ele>954.0</ele><time>2026-04-26T07:36:49.966Z</time></trkpt><trkpt lat="43.0142845" lon="13.1094798"><ele>954.0</ele><time>2026-04-26T07:36:50.959Z</time></trkpt><trkpt lat="43.0140816" lon="13.1095521"><ele>954.0</ele><time>2026-04-26T07:36:51.97Z</time></trkpt><trkpt lat="43.013888" lon="13.109638"><ele>951.3333333333333</ele><time>2026-04-26T07:36:52.97Z</time></trkpt><trkpt lat="43.0136968" lon="13.1097065"><ele>948.6666666666666</ele><time>2026-04-26T07:36:53.965Z</time></trkpt><trkpt lat="43.0134978" lon="13.10975"><ele>946.0</ele><time>2026-04-26T07:36:54.959Z</time></trkpt><trkpt lat="43.0133014" lon="13.1097814"><ele>939.3333333333333</ele><time>2026-04-26T07:36:55.966Z</time></trkpt><trkpt lat="43.0131118" lon="13.109809"><ele>932.6666666666667</ele><time>2026-04-26T07:36:56.961Z</time></trkpt><trkpt lat="43.0129278" lon="13.109834"><ele>926.0</ele><time>2026-04-26T07:36:57.961Z</time></trkpt><trkpt lat="43.0127501" lon="13.1098564"><ele>927.6666666666667</ele><time>2026-04-26T07:36:58.961Z</time></trkpt><trkpt lat="43.0125756" lon="13.1099185"><ele>929.3333333333333</ele><time>2026-04-26T07:36:59.958Z</time></trkpt><trkpt lat="43.0123921" lon="13.1100164"><ele>931.0</ele><time>2026-04-26T07:37:00.96Z</time></trkpt><trkpt lat="43.0122135" lon="13.110137"><ele>931.0</ele><time>2026-04-26T07:37:01.963Z</time></trkpt><trkpt lat="43.0120439" lon="13.1102515"><ele>931.0</ele><time>2026-04-26T07:37:02.963Z</time></trkpt><trkpt lat="43.0118753" lon="13.1103543"><ele>931.0</ele><time>2026-04-26T07:37:03.963Z</time></trkpt><trkpt lat="43.011713" lon="13.1104579"><ele>928.6666666666666</ele><time>2026-04-26T07:37:04.959Z</time></trkpt><trkpt lat="43.0115568" lon="13.1105857"><ele>926.3333333333333</ele><time>2026-04-26T07:37:05.959Z</time></trkpt><trkpt lat="43.0114074" lon="13.1107389"><ele>924.0</ele><time>2026-04-26T07:37:06.963Z</time></trkpt><trkpt lat="43.0112605" lon="13.1109121"><ele>924.0</ele><time>2026-04-26T07:37:07.955Z</time></trkpt><trkpt lat="43.0111256" lon="13.1111065"><ele>924.0</ele><time>2026-04-26T07:37:08.955Z</time></trkpt><trkpt lat="43.0109989" lon="13.1113161"><ele>924.0</ele><time>2026-04-26T07:37:09.965Z</time></trkpt><trkpt lat="43.0108771" lon="13.1115282"><ele>927.0</ele><time>2026-04-26T07:37:10.953Z</time></trkpt><trkpt lat="43.0107582" lon="13.1117266"><ele>930.0</ele><time>2026-04-26T07:37:11.963Z</time></trkpt><trkpt lat="43.0106484" lon="13.1119117"><ele>933.0</ele><time>2026-04-26T07:37:12.957Z</time></trkpt><trkpt lat="43.0105534" lon="13.1120792"><ele>933.0</ele><time>2026-04-26T07:37:13.961Z</time></trkpt><trkpt lat="43.0104744" lon="13.1122191"><ele>933.0</ele><time>2026-04-26T07:37:14.959Z</time></trkpt><trkpt lat="43.0104037" lon="13.112333"><ele>933.0</ele><time>2026-04-26T07:37:15.953Z</time></trkpt><trkpt lat="43.0103244" lon="13.1123971"><ele>933.0</ele><time>2026-04-26T07:37:16.959Z</time></trkpt><trkpt lat="43.010235" lon="13.1123914"><ele>933.0</ele><time>2026-04-26T07:37:17.952Z</time></trkpt><trkpt lat="43.0101279" lon="13.1123589"><ele>933.0</ele><time>2026-04-26T07:37:18.956Z</time></trkpt><trkpt lat="43.010004" lon="13.1122572"><ele>933.0</ele><time>2026-04-26T07:37:19.959Z</time></trkpt><trkpt lat="43.0098533" lon="13.1121742"><ele>933.0</ele><time>2026-04-26T07:37:20.957Z</time></trkpt><trkpt lat="43.0097047" lon="13.1121052"><ele>940.3333333333333</ele><time>2026-04-26T07:37:21.958Z</time></trkpt><trkpt lat="43.0095631" lon="13.1120112"><ele>947.6666666666666</ele><time>2026-04-26T07:37:22.959Z</time></trkpt><trkpt lat="43.0094367" lon="13.1118772"><ele>955.0</ele><time>2026-04-26T07:37:23.958Z</time></trkpt><trkpt lat="43.0093263" lon="13.1117459"><ele>955.0</ele><time>2026-04-26T07:37:24.96Z</time></trkpt><trkpt lat="43.0092196" lon="13.111629"><ele>955.0</ele><time>2026-04-26T07:37:25.959Z</time></trkpt><trkpt lat="43.0091142" lon="13.1115447"><ele>955.0</ele><time>2026-04-26T07:37:26.956Z</time></trkpt><trkpt lat="43.0089942" lon="13.1115028"><ele>955.0</ele><time>2026-04-26T07:37:27.958Z</time></trkpt><trkpt lat="43.0088466" lon="13.1115061"><ele>952.0</ele><time>2026-04-26T07:37:28.957Z</time></trkpt><trkpt lat="43.0086835" lon="13.1115273"><ele>949.0</ele><time>2026-04-26T07:37:29.961Z</time></trkpt><trkpt lat="43.0085027" lon="13.1115519"><ele>946.0</ele><time>2026-04-26T07:37:30.959Z</time></trkpt><trkpt lat="43.0083167" lon="13.1115841"><ele>946.0</ele><time>2026-04-26T07:37:31.965Z</time></trkpt><trkpt lat="43.0081362" lon="13.1116165"><ele>946.0</ele><time>2026-04-26T07:37:32.958Z</time></trkpt><trkpt lat="43.0079521" lon="13.1116672"><ele>946.0</ele><time>2026-04-26T07:37:33.962Z</time></trkpt><trkpt lat="43.0077652" lon="13.1117412"><ele>946.0</ele><time>2026-04-26T07:37:34.953Z</time></trkpt><trkpt lat="43.0075727" lon="13.1118255"><ele>946.0</ele><time>2026-04-26T07:37:35.962Z</time></trkpt><trkpt lat="43.0073738" lon="13.1119165"><ele>946.0</ele><time>2026-04-26T07:37:36.955Z</time></trkpt><trkpt lat="43.0071711" lon="13.1120119"><ele>944.6666666666666</ele><time>2026-04-26T07:37:37.958Z</time></trkpt><trkpt lat="43.006972" lon="13.1121009"><ele>943.3333333333333</ele><time>2026-04-26T07:37:38.958Z</time></trkpt><trkpt lat="43.006776" lon="13.1121758"><ele>942.0</ele><time>2026-04-26T07:37:39.957Z</time></trkpt><trkpt lat="43.0065756" lon="13.112231"><ele>942.0</ele><time>2026-04-26T07:37:40.954Z</time></trkpt><trkpt lat="43.0063721" lon="13.1122774"><ele>942.0</ele><time>2026-04-26T07:37:41.962Z</time></trkpt><trkpt lat="43.0061638" lon="13.1123282"><ele>942.0</ele><time>2026-04-26T07:37:42.963Z</time></trkpt><trkpt lat="43.005952" lon="13.1123816"><ele>943.3333333333333</ele><time>2026-04-26T07:37:43.957Z</time></trkpt><trkpt lat="43.0057368" lon="13.1124331"><ele>944.6666666666666</ele><time>2026-04-26T07:37:44.958Z</time></trkpt><trkpt lat="43.0055205" lon="13.1124841"><ele>946.0</ele><time>2026-04-26T07:37:45.957Z</time></trkpt><trkpt lat="43.0053041" lon="13.1125338"><ele>946.0</ele><time>2026-04-26T07:37:46.956Z</time></trkpt><trkpt lat="43.0050882" lon="13.1125843"><ele>946.0</ele><time>2026-04-26T07:37:47.958Z</time></trkpt><trkpt lat="43.0048726" lon="13.1126386"><ele>946.0</ele><time>2026-04-26T07:37:48.963Z</time></trkpt><trkpt lat="43.0046539" lon="13.1126908"><ele>946.0</ele><time>2026-04-26T07:37:49.961Z</time></trkpt><trkpt lat="43.0044323" lon="13.1127324"><ele>946.0</ele><time>2026-04-26T07:37:50.96Z</time></trkpt><trkpt lat="43.0042104" lon="13.1127561"><ele>946.0</ele><time>2026-04-26T07:37:51.953Z</time></trkpt><trkpt lat="43.0039924" lon="13.1127689"><ele>946.0</ele><time>2026-04-26T07:37:52.962Z</time></trkpt><trkpt lat="43.0037783" lon="13.1127888"><ele>946.0</ele><time>2026-04-26T07:37:53.957Z</time></trkpt><trkpt lat="43.0035755" lon="13.1128169"><ele>946.0</ele><time>2026-04-26T07:37:54.958Z</time></trkpt><trkpt lat="43.0033874" lon="13.1128465"><ele>949.3333333333333</ele><time>2026-04-26T07:37:55.954Z</time></trkpt><trkpt lat="43.0032124" lon="13.1128755"><ele>952.6666666666667</ele><time>2026-04-26T07:37:56.956Z</time></trkpt><trkpt lat="43.0030453" lon="13.1128896"><ele>956.0</ele><time>2026-04-26T07:37:57.955Z</time></trkpt><trkpt lat="43.0028786" lon="13.1128653"><ele>956.0</ele><time>2026-04-26T07:37:58.959Z</time></trkpt><trkpt lat="43.0027132" lon="13.1128036"><ele>956.0</ele><time>2026-04-26T07:37:59.956Z</time></trkpt><trkpt lat="43.0025489" lon="13.1127159"><ele>956.0</ele><time>2026-04-26T07:38:00.959Z</time></trkpt><trkpt lat="43.002386" lon="13.1126226"><ele>956.25</ele><time>2026-04-26T07:38:01.956Z</time></trkpt><trkpt lat="43.0022376" lon="13.1125405"><ele>956.5</ele><time>2026-04-26T07:38:02.957Z</time></trkpt><trkpt lat="43.0020988" lon="13.112484"><ele>956.75</ele><time>2026-04-26T07:38:03.958Z</time></trkpt><trkpt lat="43.0019588" lon="13.1124715"><ele>957.0</ele><time>2026-04-26T07:38:04.953Z</time></trkpt><trkpt lat="43.0018113" lon="13.112508"><ele>954.0</ele><time>2026-04-26T07:38:05.954Z</time></trkpt><trkpt lat="43.0016623" lon="13.1125922"><ele>951.0</ele><time>2026-04-26T07:38:06.959Z</time></trkpt><trkpt lat="43.0015186" lon="13.1127225"><ele>948.0</ele><time>2026-04-26T07:38:07.959Z</time></trkpt><trkpt lat="43.0013783" lon="13.1128812"><ele>948.0</ele><time>2026-04-26T07:38:08.955Z</time></trkpt><trkpt lat="43.0012368" lon="13.1130441"><ele>948.0</ele><time>2026-04-26T07:38:09.958Z</time></trkpt><trkpt lat="43.0010979" lon="13.1131896"><ele>948.0</ele><time>2026-04-26T07:38:10.968Z</time></trkpt><trkpt lat="43.0009584" lon="13.1133347"><ele>952.3333333333333</ele><time>2026-04-26T07:38:11.954Z</time></trkpt><trkpt lat="43.0008145" lon="13.1134822"><ele>956.6666666666666</ele><time>2026-04-26T07:38:12.969Z</time></trkpt><trkpt lat="43.0006558" lon="13.1136196"><ele>961.0</ele><time>2026-04-26T07:38:13.955Z</time></trkpt><trkpt lat="43.0004909" lon="13.1137324"><ele>961.0</ele><time>2026-04-26T07:38:14.956Z</time></trkpt><trkpt lat="43.0003369" lon="13.1138287"><ele>961.0</ele><time>2026-04-26T07:38:15.96Z</time></trkpt><trkpt lat="43.0001904" lon="13.1139392"><ele>961.0</ele><time>2026-04-26T07:38:16.96Z</time></trkpt><trkpt lat="43.0000578" lon="13.1140897"><ele>964.6666666666666</ele><time>2026-04-26T07:38:17.955Z</time></trkpt><trkpt lat="42.99995" lon="13.1142663"><ele>968.3333333333333</ele><time>2026-04-26T07:38:18.962Z</time></trkpt><trkpt lat="42.9998543" lon="13.114433"><ele>972.0</ele><time>2026-04-26T07:38:19.955Z</time></trkpt><trkpt lat="42.999757" lon="13.1145816"><ele>972.0</ele><time>2026-04-26T07:38:20.962Z</time></trkpt><trkpt lat="42.9996552" lon="13.1147138"><ele>972.0</ele><time>2026-04-26T07:38:21.96Z</time></trkpt><trkpt lat="42.9995466" lon="13.1148057"><ele>972.0</ele><time>2026-04-26T07:38:22.959Z</time></trkpt><trkpt lat="42.9994257" lon="13.1148441"><ele>972.0</ele><time>2026-04-26T07:38:23.961Z</time></trkpt><trkpt lat="42.9992961" lon="13.1148384"><ele>971.5</ele><time>2026-04-26T07:38:24.959Z</time></trkpt><trkpt lat="42.9991576" lon="13.1148049"><ele>971.0</ele><time>2026-04-26T07:38:25.969Z</time></trkpt><trkpt lat="42.999015" lon="13.1147474"><ele>970.5</ele><time>2026-04-26T07:38:26.96Z</time></trkpt><trkpt lat="42.9988745" lon="13.114666"><ele>970.0</ele><time>2026-04-26T07:38:27.966Z</time></trkpt><trkpt lat="42.9987436" lon="13.1145552"><ele>970.0</ele><time>2026-04-26T07:38:28.957Z</time></trkpt><trkpt lat="42.9986232" lon="13.1144137"><ele>970.0</ele><time>2026-04-26T07:38:29.958Z</time></trkpt><trkpt lat="42.9985131" lon="13.1142528"><ele>970.0</ele><time>2026-04-26T07:38:30.958Z</time></trkpt><trkpt lat="42.9984181" lon="13.1140999"><ele>970.2</ele><time>2026-04-26T07:38:31.953Z</time></trkpt><trkpt lat="42.9983374" lon="13.1139684"><ele>970.4</ele><time>2026-04-26T07:38:32.959Z</time></trkpt><trkpt lat="42.9982668" lon="13.1138522"><ele>970.5999999999999</ele><time>2026-04-26T07:38:33.965Z</time></trkpt><trkpt lat="42.9982018" lon="13.1137472"><ele>970.8</ele><time>2026-04-26T07:38:34.96Z</time></trkpt><trkpt lat="42.9981328" lon="13.1136463"><ele>971.0</ele><time>2026-04-26T07:38:35.972Z</time></trkpt><trkpt lat="42.9980577" lon="13.1135462"><ele>973.25</ele><time>2026-04-26T07:38:36.959Z</time></trkpt><trkpt lat="42.9979795" lon="13.1134381"><ele>975.5</ele><time>2026-04-26T07:38:37.96Z</time></trkpt><trkpt lat="42.9978974" lon="13.1133312"><ele>977.75</ele><time>2026-04-26T07:38:38.956Z</time></trkpt><trkpt lat="42.9978083" lon="13.1132337"><ele>980.0</ele><time>2026-04-26T07:38:39.967Z</time></trkpt><trkpt lat="42.9977099" lon="13.1131279"><ele>980.25</ele><time>2026-04-26T07:38:40.961Z</time></trkpt><trkpt lat="42.9976124" lon="13.1130015"><ele>980.5</ele><time>2026-04-26T07:38:41.97Z</time></trkpt><trkpt lat="42.9975135" lon="13.1128564"><ele>980.75</ele><time>2026-04-26T07:38:42.958Z</time></trkpt><trkpt lat="42.997412" lon="13.1126963"><ele>981.0</ele><time>2026-04-26T07:38:43.962Z</time></trkpt><trkpt lat="42.9973105" lon="13.1125244"><ele>976.3333333333333</ele><time>2026-04-26T07:38:44.963Z</time></trkpt><trkpt lat="42.9972074" lon="13.1123497"><ele>971.6666666666666</ele><time>2026-04-26T07:38:45.963Z</time></trkpt><trkpt lat="42.9971015" lon="13.1121859"><ele>967.0</ele><time>2026-04-26T07:38:46.965Z</time></trkpt><trkpt lat="42.9969865" lon="13.1120326"><ele>967.0</ele><time>2026-04-26T07:38:47.974Z</time></trkpt><trkpt lat="42.9968583" lon="13.111893"><ele>967.0</ele><time>2026-04-26T07:38:48.963Z</time></trkpt><trkpt lat="42.9967204" lon="13.1117692"><ele>967.0</ele><time>2026-04-26T07:38:49.962Z</time></trkpt><trkpt lat="42.9965783" lon="13.111651"><ele>964.3333333333333</ele><time>2026-04-26T07:38:50.968Z</time></trkpt><trkpt lat="42.9964365" lon="13.1115364"><ele>961.6666666666667</ele><time>2026-04-26T07:38:51.965Z</time></trkpt><trkpt lat="42.9963001" lon="13.1114305"><ele>959.0</ele><time>2026-04-26T07:38:52.959Z</time></trkpt><trkpt lat="42.9961636" lon="13.1113325"><ele>959.0</ele><time>2026-04-26T07:38:53.962Z</time></trkpt><trkpt lat="42.9960273" lon="13.11125"><ele>959.0</ele><time>2026-04-26T07:38:54.959Z</time></trkpt><trkpt lat="42.995893" lon="13.1111897"><ele>959.0</ele><time>2026-04-26T07:38:55.966Z</time></trkpt><trkpt lat="42.995759" lon="13.1111709"><ele>959.0</ele><time>2026-04-26T07:38:56.971Z</time></trkpt><trkpt lat="42.9956162" lon="13.1112026"><ele>957.3333333333334</ele><time>2026-04-26T07:38:57.962Z</time></trkpt><trkpt lat="42.9954628" lon="13.111247"><ele>955.6666666666667</ele><time>2026-04-26T07:38:58.956Z</time></trkpt><trkpt lat="42.9952805" lon="13.111262"><ele>954.0</ele><time>2026-04-26T07:38:59.96Z</time></trkpt><trkpt lat="42.9950843" lon="13.1112313"><ele>951.3333333333333</ele><time>2026-04-26T07:39:00.961Z</time></trkpt><trkpt lat="42.9948978" lon="13.1111635"><ele>948.6666666666666</ele><time>2026-04-26T07:39:01.962Z</time></trkpt><trkpt lat="42.9947228" lon="13.1110887"><ele>946.0</ele><time>2026-04-26T07:39:02.958Z</time></trkpt><trkpt lat="42.9945518" lon="13.1110433"><ele>946.0</ele><time>2026-04-26T07:39:03.962Z</time></trkpt><trkpt lat="42.9943795" lon="13.1110347"><ele>946.0</ele><time>2026-04-26T07:39:04.959Z</time></trkpt><trkpt lat="42.9942157" lon="13.1110513"><ele>946.0</ele><time>2026-04-26T07:39:05.957Z</time></trkpt><trkpt lat="42.9940565" lon="13.1110638"><ele>944.6666666666666</ele><time>2026-04-26T07:39:06.951Z</time></trkpt><trkpt lat="42.993894" lon="13.1110108"><ele>943.3333333333333</ele><time>2026-04-26T07:39:07.957Z</time></trkpt><trkpt lat="42.9937451" lon="13.1109442"><ele>942.0</ele><time>2026-04-26T07:39:08.958Z</time></trkpt><trkpt lat="42.9935957" lon="13.1109078"><ele>942.0</ele><time>2026-04-26T07:39:09.956Z</time></trkpt><trkpt lat="42.993442" lon="13.1109515"><ele>942.0</ele><time>2026-04-26T07:39:10.954Z</time></trkpt><trkpt lat="42.9932883" lon="13.1109914"><ele>942.0</ele><time>2026-04-26T07:39:11.955Z</time></trkpt><trkpt lat="42.9931087" lon="13.1110785"><ele>939.0</ele><time>2026-04-26T07:39:12.957Z</time></trkpt><trkpt lat="42.9929132" lon="13.1111469"><ele>936.0</ele><time>2026-04-26T07:39:13.951Z</time></trkpt><trkpt lat="42.9927158" lon="13.1112122"><ele>933.0</ele><time>2026-04-26T07:39:14.956Z</time></trkpt><trkpt lat="42.992511" lon="13.1112712"><ele>927.6666666666667</ele><time>2026-04-26T07:39:15.954Z</time></trkpt><trkpt lat="42.9922957" lon="13.1113244"><ele>922.3333333333334</ele><time>2026-04-26T07:39:16.952Z</time></trkpt><trkpt lat="42.9920913" lon="13.1113812"><ele>917.0</ele><time>2026-04-26T07:39:17.955Z</time></trkpt><trkpt lat="42.991897" lon="13.1114419"><ele>917.0</ele><time>2026-04-26T07:39:18.957Z</time></trkpt><trkpt lat="42.9917125" lon="13.1115039"><ele>917.0</ele><time>2026-04-26T07:39:19.954Z</time></trkpt><trkpt lat="42.9915426" lon="13.1115603"><ele>917.0</ele><time>2026-04-26T07:39:20.955Z</time></trkpt><trkpt lat="42.9913849" lon="13.1116074"><ele>923.0</ele><time>2026-04-26T07:39:21.951Z</time></trkpt><trkpt lat="42.9912371" lon="13.1116442"><ele>929.0</ele><time>2026-04-26T07:39:22.96Z</time></trkpt><trkpt lat="42.9911048" lon="13.1116912"><ele>935.0</ele><time>2026-04-26T07:39:23.957Z</time></trkpt><trkpt lat="42.9909931" lon="13.1117795"><ele>941.0</ele><time>2026-04-26T07:39:24.959Z</time></trkpt><trkpt lat="42.9909094" lon="13.1119142"><ele>941.0</ele><time>2026-04-26T07:39:25.959Z</time></trkpt><trkpt lat="42.9908563" lon="13.1120672"><ele>940.9999999999999</ele><time>2026-04-26T07:39:26.955Z</time></trkpt><trkpt lat="42.9908102" lon="13.1122027"><ele>940.9999999999999</ele><time>2026-04-26T07:39:27.964Z</time></trkpt><trkpt lat="42.9907493" lon="13.1123048"><ele>941.0</ele><time>2026-04-26T07:39:28.959Z</time></trkpt><trkpt lat="42.9906698" lon="13.112346"><ele>941.0</ele><time>2026-04-26T07:39:29.959Z</time></trkpt><trkpt lat="42.9905747" lon="13.1123172"><ele>936.0</ele><time>2026-04-26T07:39:30.962Z</time></trkpt><trkpt lat="42.9904668" lon="13.1122439"><ele>931.0</ele><time>2026-04-26T07:39:31.96Z</time></trkpt><trkpt lat="42.9903421" lon="13.112154"><ele>926.0</ele><time>2026-04-26T07:39:32.955Z</time></trkpt><trkpt lat="42.9902123" lon="13.1120575"><ele>921.0</ele><time>2026-04-26T07:39:33.965Z</time></trkpt><trkpt lat="42.9900798" lon="13.1119623"><ele>919.0</ele><time>2026-04-26T07:39:34.965Z</time></trkpt><trkpt lat="42.9899476" lon="13.1118869"><ele>917.0</ele><time>2026-04-26T07:39:35.962Z</time></trkpt><trkpt lat="42.9898034" lon="13.1118421"><ele>915.0</ele><time>2026-04-26T07:39:36.961Z</time></trkpt><trkpt lat="42.989649" lon="13.1118282"><ele>913.0</ele><time>2026-04-26T07:39:37.961Z</time></trkpt><trkpt lat="42.9895035" lon="13.1118346"><ele>913.0</ele><time>2026-04-26T07:39:38.966Z</time></trkpt><trkpt lat="42.9893711" lon="13.1118572"><ele>913.0</ele><time>2026-04-26T07:39:39.959Z</time></trkpt><trkpt lat="42.9892491" lon="13.1118966"><ele>913.0</ele><time>2026-04-26T07:39:40.976Z</time></trkpt><trkpt lat="42.9891502" lon="13.1120007"><ele>913.0</ele><time>2026-04-26T07:39:41.963Z</time></trkpt><trkpt lat="42.9890738" lon="13.1121461"><ele>916.6666666666666</ele><time>2026-04-26T07:39:42.957Z</time></trkpt><trkpt lat="42.9890034" lon="13.1123244"><ele>920.3333333333333</ele><time>2026-04-26T07:39:43.959Z</time></trkpt><trkpt lat="42.9889387" lon="13.1125205"><ele>924.0</ele><time>2026-04-26T07:39:44.962Z</time></trkpt><trkpt lat="42.9888698" lon="13.1127356"><ele>924.0</ele><time>2026-04-26T07:39:45.958Z</time></trkpt><trkpt lat="42.9888036" lon="13.1129637"><ele>924.0</ele><time>2026-04-26T07:39:46.961Z</time></trkpt><trkpt lat="42.9887513" lon="13.1131834"><ele>924.0</ele><time>2026-04-26T07:39:47.956Z</time></trkpt><trkpt lat="42.9886995" lon="13.1133921"><ele>930.6666666666667</ele><time>2026-04-26T07:39:48.959Z</time></trkpt><trkpt lat="42.9886211" lon="13.1135912"><ele>937.3333333333334</ele><time>2026-04-26T07:39:49.957Z</time></trkpt><trkpt lat="42.9885153" lon="13.1137709"><ele>944.0</ele><time>2026-04-26T07:39:50.965Z</time></trkpt><trkpt lat="42.9884037" lon="13.1139358"><ele>940.5</ele><time>2026-04-26T07:39:51.954Z</time></trkpt><trkpt lat="42.9883021" lon="13.1140949"><ele>937.0</ele><time>2026-04-26T07:39:52.958Z</time></trkpt><trkpt lat="42.9882105" lon="13.1142419"><ele>933.5</ele><time>2026-04-26T07:39:53.957Z</time></trkpt><trkpt lat="42.9881302" lon="13.114368"><ele>930.0</ele><time>2026-04-26T07:39:54.954Z</time></trkpt><trkpt lat="42.9880551" lon="13.1144655"><ele>930.0</ele><time>2026-04-26T07:39:55.968Z</time></trkpt><trkpt lat="42.987977" lon="13.1145156"><ele>930.0</ele><time>2026-04-26T07:39:56.959Z</time></trkpt><trkpt lat="42.9879056" lon="13.1144996"><ele>930.0</ele><time>2026-04-26T07:39:57.961Z</time></trkpt><trkpt lat="42.9878313" lon="13.1144672"><ele>930.0</ele><time>2026-04-26T07:39:58.962Z</time></trkpt><trkpt lat="42.9877946" lon="13.1143208"><ele>930.0</ele><time>2026-04-26T07:39:59.96Z</time></trkpt><trkpt lat="42.9877815" lon="13.1141465"><ele>925.0</ele><time>2026-04-26T07:40:00.963Z</time></trkpt><trkpt lat="42.9877819" lon="13.113944"><ele>920.0</ele><time>2026-04-26T07:40:01.959Z</time></trkpt><trkpt lat="42.987788" lon="13.1137628"><ele>915.0</ele><time>2026-04-26T07:40:02.957Z</time></trkpt><trkpt lat="42.98777" lon="13.1135937"><ele>910.0</ele><time>2026-04-26T07:40:03.964Z</time></trkpt><trkpt lat="42.9877183" lon="13.113424"><ele>910.0</ele><time>2026-04-26T07:40:04.961Z</time></trkpt><trkpt lat="42.9876413" lon="13.1132434"><ele>910.0</ele><time>2026-04-26T07:40:05.957Z</time></trkpt><trkpt lat="42.9875479" lon="13.1130522"><ele>910.0</ele><time>2026-04-26T07:40:06.956Z</time></trkpt><trkpt lat="42.987437" lon="13.1128624"><ele>911.6666666666666</ele><time>2026-04-26T07:40:07.962Z</time></trkpt><trkpt lat="42.9873147" lon="13.1126835"><ele>913.3333333333333</ele><time>2026-04-26T07:40:08.957Z</time></trkpt><trkpt lat="42.9871907" lon="13.1125114"><ele>915.0</ele><time>2026-04-26T07:40:09.956Z</time></trkpt><trkpt lat="42.9870767" lon="13.1123216"><ele>907.0</ele><time>2026-04-26T07:40:10.967Z</time></trkpt><trkpt lat="42.9869831" lon="13.1121168"><ele>899.0</ele><time>2026-04-26T07:40:11.961Z</time></trkpt><trkpt lat="42.9869259" lon="13.1119124"><ele>891.0</ele><time>2026-04-26T07:40:12.958Z</time></trkpt><trkpt lat="42.9868913" lon="13.111726"><ele>893.5</ele><time>2026-04-26T07:40:13.965Z</time></trkpt><trkpt lat="42.9868434" lon="13.111566"><ele>896.0</ele><time>2026-04-26T07:40:14.962Z</time></trkpt><trkpt lat="42.9867613" lon="13.1114358"><ele>898.5</ele><time>2026-04-26T07:40:15.959Z</time></trkpt><trkpt lat="42.9866389" lon="13.1113413"><ele>901.0</ele><time>2026-04-26T07:40:16.954Z</time></trkpt><trkpt lat="42.9864882" lon="13.111275"><ele>901.0</ele><time>2026-04-26T07:40:17.961Z</time></trkpt><trkpt lat="42.9863209" lon="13.1112227"><ele>901.0</ele><time>2026-04-26T07:40:18.964Z</time></trkpt><trkpt lat="42.9861394" lon="13.1111817"><ele>901.0</ele><time>2026-04-26T07:40:19.964Z</time></trkpt><trkpt lat="42.9859481" lon="13.1111653"><ele>902.6666666666666</ele><time>2026-04-26T07:40:20.956Z</time></trkpt><trkpt lat="42.9857482" lon="13.1111839"><ele>904.3333333333333</ele><time>2026-04-26T07:40:21.959Z</time></trkpt><trkpt lat="42.9855474" lon="13.1112289"><ele>906.0</ele><time>2026-04-26T07:40:22.959Z</time></trkpt><trkpt lat="42.9853526" lon="13.1112872"><ele>906.0</ele><time>2026-04-26T07:40:23.974Z</time></trkpt><trkpt lat="42.9851707" lon="13.111352"><ele>906.0</ele><time>2026-04-26T07:40:24.956Z</time></trkpt><trkpt lat="42.9849939" lon="13.1114277"><ele>906.0</ele><time>2026-04-26T07:40:25.96Z</time></trkpt><trkpt lat="42.9848164" lon="13.1115154"><ele>920.3333333333333</ele><time>2026-04-26T07:40:26.96Z</time></trkpt><trkpt lat="42.9846359" lon="13.1116132"><ele>934.6666666666666</ele><time>2026-04-26T07:40:27.954Z</time></trkpt><trkpt lat="42.9844545" lon="13.1117227"><ele>949.0</ele><time>2026-04-26T07:40:28.959Z</time></trkpt><trkpt lat="42.9842706" lon="13.1118366"><ele>942.0</ele><time>2026-04-26T07:40:29.958Z</time></trkpt><trkpt lat="42.9840863" lon="13.1119568"><ele>935.0</ele><time>2026-04-26T07:40:30.955Z</time></trkpt><trkpt lat="42.9839128" lon="13.1120817"><ele>928.0</ele><time>2026-04-26T07:40:31.959Z</time></trkpt><trkpt lat="42.9837462" lon="13.1122077"><ele>928.0</ele><time>2026-04-26T07:40:32.96Z</time></trkpt><trkpt lat="42.9835819" lon="13.1123294"><ele>928.0</ele><time>2026-04-26T07:40:33.951Z</time></trkpt><trkpt lat="42.9834194" lon="13.1124486"><ele>928.0</ele><time>2026-04-26T07:40:34.957Z</time></trkpt><trkpt lat="42.9832579" lon="13.1125729"><ele>932.6666666666666</ele><time>2026-04-26T07:40:35.958Z</time></trkpt><trkpt lat="42.9831021" lon="13.1127157"><ele>937.3333333333333</ele><time>2026-04-26T07:40:36.961Z</time></trkpt><trkpt lat="42.9829502" lon="13.1128797"><ele>942.0</ele><time>2026-04-26T07:40:37.959Z</time></trkpt><trkpt lat="42.9827952" lon="13.1130481"><ele>942.0</ele><time>2026-04-26T07:40:38.96Z</time></trkpt><trkpt lat="42.9826367" lon="13.1132132"><ele>942.0</ele><time>2026-04-26T07:40:39.961Z</time></trkpt><trkpt lat="42.9824761" lon="13.1133755"><ele>942.0</ele><time>2026-04-26T07:40:40.952Z</time></trkpt><trkpt lat="42.9823135" lon="13.1135351"><ele>943.6666666666667</ele><time>2026-04-26T07:40:41.957Z</time></trkpt><trkpt lat="42.9821499" lon="13.1136944"><ele>945.3333333333334</ele><time>2026-04-26T07:40:42.958Z</time></trkpt><trkpt lat="42.9819837" lon="13.1138584"><ele>947.0</ele><time>2026-04-26T07:40:43.961Z</time></trkpt><trkpt lat="42.9818199" lon="13.1140303"><ele>949.0</ele><time>2026-04-26T07:40:44.96Z</time></trkpt><trkpt lat="42.9816594" lon="13.1142187"><ele>951.0</ele><time>2026-04-26T07:40:45.956Z</time></trkpt><trkpt lat="42.9814987" lon="13.1144138"><ele>953.0</ele><time>2026-04-26T07:40:46.958Z</time></trkpt><trkpt lat="42.9813344" lon="13.1146082"><ele>953.0</ele><time>2026-04-26T07:40:47.957Z</time></trkpt><trkpt lat="42.9811656" lon="13.1147984"><ele>953.0</ele><time>2026-04-26T07:40:48.961Z</time></trkpt><trkpt lat="42.9809979" lon="13.114979"><ele>953.0</ele><time>2026-04-26T07:40:49.959Z</time></trkpt><trkpt lat="42.980845" lon="13.115155"><ele>953.0</ele><time>2026-04-26T07:40:50.955Z</time></trkpt><trkpt lat="42.9807023" lon="13.1153439"><ele>953.0</ele><time>2026-04-26T07:40:51.956Z</time></trkpt><trkpt lat="42.9805524" lon="13.1155266"><ele>953.0</ele><time>2026-04-26T07:40:52.954Z</time></trkpt><trkpt lat="42.9803872" lon="13.1156899"><ele>953.3333333333334</ele><time>2026-04-26T07:40:53.955Z</time></trkpt><trkpt lat="42.980219" lon="13.1158594"><ele>953.6666666666667</ele><time>2026-04-26T07:40:54.956Z</time></trkpt><trkpt lat="42.9800563" lon="13.1160482"><ele>954.0</ele><time>2026-04-26T07:40:55.955Z</time></trkpt><trkpt lat="42.9798988" lon="13.1162507"><ele>954.0</ele><time>2026-04-26T07:40:56.962Z</time></trkpt><trkpt lat="42.9797442" lon="13.1164526"><ele>954.0</ele><time>2026-04-26T07:40:57.954Z</time></trkpt><trkpt lat="42.9795984" lon="13.1166337"><ele>954.0</ele><time>2026-04-26T07:40:58.951Z</time></trkpt><trkpt lat="42.9794679" lon="13.1167928"><ele>962.75</ele><time>2026-04-26T07:40:59.955Z</time></trkpt><trkpt lat="42.9793608" lon="13.1169395"><ele>971.5</ele><time>2026-04-26T07:41:00.957Z</time></trkpt><trkpt lat="42.979287" lon="13.1170878"><ele>980.25</ele><time>2026-04-26T07:41:01.955Z</time></trkpt><trkpt lat="42.979262" lon="13.1172519"><ele>989.0</ele><time>2026-04-26T07:41:02.954Z</time></trkpt><trkpt lat="42.9792806" lon="13.1174429"><ele>994.5</ele><time>2026-04-26T07:41:03.957Z</time></trkpt><trkpt lat="42.9792985" lon="13.1176499"><ele>1000.0</ele><time>2026-04-26T07:41:04.954Z</time></trkpt><trkpt lat="42.9793083" lon="13.1178387"><ele>1005.5</ele><time>2026-04-26T07:41:05.956Z</time></trkpt><trkpt lat="42.9793046" lon="13.1179993"><ele>1011.0</ele><time>2026-04-26T07:41:06.956Z</time></trkpt><trkpt lat="42.9792686" lon="13.1181247"><ele>1011.0</ele><time>2026-04-26T07:41:07.956Z</time></trkpt><trkpt lat="42.9791987" lon="13.1181908"><ele>1010.9999999999999</ele><time>2026-04-26T07:41:08.959Z</time></trkpt><trkpt lat="42.9791128" lon="13.1181871"><ele>1010.9999999999999</ele><time>2026-04-26T07:41:09.956Z</time></trkpt><trkpt lat="42.9790139" lon="13.1181225"><ele>1011.0</ele><time>2026-04-26T07:41:10.954Z</time></trkpt><trkpt lat="42.9788982" lon="13.1180366"><ele>1011.0</ele><time>2026-04-26T07:41:11.954Z</time></trkpt><trkpt lat="42.9787566" lon="13.1179613"><ele>1000.0</ele><time>2026-04-26T07:41:12.962Z</time></trkpt><trkpt lat="42.9786171" lon="13.1179051"><ele>989.0</ele><time>2026-04-26T07:41:13.96Z</time></trkpt><trkpt lat="42.9784795" lon="13.1178823"><ele>978.0</ele><time>2026-04-26T07:41:14.958Z</time></trkpt><trkpt lat="42.9783395" lon="13.1179093"><ele>967.0</ele><time>2026-04-26T07:41:15.958Z</time></trkpt><trkpt lat="42.9781987" lon="13.1179598"><ele>970.6666666666666</ele><time>2026-04-26T07:41:16.967Z</time></trkpt><trkpt lat="42.9780901" lon="13.1180847"><ele>974.3333333333333</ele><time>2026-04-26T07:41:17.963Z</time></trkpt><trkpt lat="42.9779808" lon="13.1182631"><ele>978.0</ele><time>2026-04-26T07:41:18.955Z</time></trkpt><trkpt lat="42.9778807" lon="13.1184747"><ele>978.0</ele><time>2026-04-26T07:41:19.96Z</time></trkpt><trkpt lat="42.9777978" lon="13.1187135"><ele>978.0</ele><time>2026-04-26T07:41:20.959Z</time></trkpt><trkpt lat="42.9777207" lon="13.1189714"><ele>978.0</ele><time>2026-04-26T07:41:21.959Z</time></trkpt><trkpt lat="42.977649" lon="13.1192393"><ele>975.6666666666667</ele><time>2026-04-26T07:41:22.955Z</time></trkpt><trkpt lat="42.9775849" lon="13.1194984"><ele>973.3333333333334</ele><time>2026-04-26T07:41:23.959Z</time></trkpt><trkpt lat="42.977525" lon="13.1197491"><ele>971.0</ele><time>2026-04-26T07:41:24.954Z</time></trkpt><trkpt lat="42.977462" lon="13.1199978"><ele>971.0</ele><time>2026-04-26T07:41:25.962Z</time></trkpt><trkpt lat="42.9773961" lon="13.120254"><ele>971.0</ele><time>2026-04-26T07:41:26.958Z</time></trkpt><trkpt lat="42.9773353" lon="13.1205244"><ele>971.0</ele><time>2026-04-26T07:41:27.979Z</time></trkpt><trkpt lat="42.9772872" lon="13.1208052"><ele>973.6666666666667</ele><time>2026-04-26T07:41:28.957Z</time></trkpt><trkpt lat="42.9772446" lon="13.1210875"><ele>976.3333333333333</ele><time>2026-04-26T07:41:29.961Z</time></trkpt><trkpt lat="42.9772022" lon="13.1213618"><ele>979.0</ele><time>2026-04-26T07:41:30.959Z</time></trkpt><trkpt lat="42.9771672" lon="13.1216404"><ele>982.0</ele><time>2026-04-26T07:41:31.958Z</time></trkpt><trkpt lat="42.9771454" lon="13.1219118"><ele>985.0</ele><time>2026-04-26T07:41:32.957Z</time></trkpt><trkpt lat="42.9771281" lon="13.1221701"><ele>988.0</ele><time>2026-04-26T07:41:33.956Z</time></trkpt><trkpt lat="42.9771076" lon="13.1224139"><ele>990.3333333333333</ele><time>2026-04-26T07:41:34.96Z</time></trkpt><trkpt lat="42.9770849" lon="13.1226459"><ele>992.6666666666667</ele><time>2026-04-26T07:41:35.955Z</time></trkpt><trkpt lat="42.9770631" lon="13.1228646"><ele>995.0</ele><time>2026-04-26T07:41:36.956Z</time></trkpt><trkpt lat="42.9770414" lon="13.1230581"><ele>995.0000000000001</ele><time>2026-04-26T07:41:37.956Z</time></trkpt><trkpt lat="42.9770191" lon="13.1232142"><ele>995.0</ele><time>2026-04-26T07:41:38.956Z</time></trkpt><trkpt lat="42.9769975" lon="13.1233332"><ele>995.0</ele><time>2026-04-26T07:41:39.955Z</time></trkpt><trkpt lat="42.9769449" lon="13.1233864"><ele>995.0</ele><time>2026-04-26T07:41:40.952Z</time></trkpt><trkpt lat="42.9768851" lon="13.1234161"><ele>995.0000000000001</ele><time>2026-04-26T07:41:41.958Z</time></trkpt><trkpt lat="42.9768314" lon="13.1233429"><ele>995.0</ele><time>2026-04-26T07:41:42.957Z</time></trkpt><trkpt lat="42.9768072" lon="13.1232243"><ele>995.0</ele><time>2026-04-26T07:41:43.957Z</time></trkpt><trkpt lat="42.9767987" lon="13.1230864"><ele>995.0</ele><time>2026-04-26T07:41:44.964Z</time></trkpt><trkpt lat="42.9767866" lon="13.1229407"><ele>995.0</ele><time>2026-04-26T07:41:45.96Z</time></trkpt><trkpt lat="42.9767704" lon="13.1228013"><ele>995.0</ele><time>2026-04-26T07:41:46.96Z</time></trkpt><trkpt lat="42.9767506" lon="13.122657"><ele>995.0</ele><time>2026-04-26T07:41:47.961Z</time></trkpt><trkpt lat="42.9767265" lon="13.1225127"><ele>993.6</ele><time>2026-04-26T07:41:48.964Z</time></trkpt><trkpt lat="42.9767043" lon="13.1223788"><ele>992.2</ele><time>2026-04-26T07:41:49.964Z</time></trkpt><trkpt lat="42.9766825" lon="13.1222598"><ele>990.8</ele><time>2026-04-26T07:41:50.953Z</time></trkpt><trkpt lat="42.9766586" lon="13.1221406"><ele>989.4</ele><time>2026-04-26T07:41:51.96Z</time></trkpt><trkpt lat="42.9766299" lon="13.1220066"><ele>988.0</ele><time>2026-04-26T07:41:52.96Z</time></trkpt><trkpt lat="42.9765982" lon="13.1218521"><ele>983.75</ele><time>2026-04-26T07:41:53.957Z</time></trkpt><trkpt lat="42.976568" lon="13.121673"><ele>979.5</ele><time>2026-04-26T07:41:54.957Z</time></trkpt><trkpt lat="42.9765388" lon="13.1214738"><ele>975.25</ele><time>2026-04-26T07:41:55.962Z</time></trkpt><trkpt lat="42.9765086" lon="13.1212581"><ele>971.0</ele><time>2026-04-26T07:41:56.958Z</time></trkpt><trkpt lat="42.976476" lon="13.121025"><ele>970.0</ele><time>2026-04-26T07:41:57.957Z</time></trkpt><trkpt lat="42.976444" lon="13.120779"><ele>969.0</ele><time>2026-04-26T07:41:58.97Z</time></trkpt><trkpt lat="42.9764146" lon="13.1205197"><ele>968.0</ele><time>2026-04-26T07:41:59.96Z</time></trkpt><trkpt lat="42.9763943" lon="13.120251"><ele>965.3333333333334</ele><time>2026-04-26T07:42:00.96Z</time></trkpt><trkpt lat="42.9763822" lon="13.1199767"><ele>962.6666666666667</ele><time>2026-04-26T07:42:01.96Z</time></trkpt><trkpt lat="42.9763684" lon="13.1196989"><ele>960.0</ele><time>2026-04-26T07:42:02.957Z</time></trkpt><trkpt lat="42.9763522" lon="13.1194212"><ele>960.0</ele><time>2026-04-26T07:42:03.964Z</time></trkpt><trkpt lat="42.9763386" lon="13.1191629"><ele>960.0</ele><time>2026-04-26T07:42:04.96Z</time></trkpt><trkpt lat="42.9763302" lon="13.1189257"><ele>960.0</ele><time>2026-04-26T07:42:05.96Z</time></trkpt><trkpt lat="42.9763223" lon="13.1187023"><ele>959.3333333333333</ele><time>2026-04-26T07:42:06.956Z</time></trkpt><trkpt lat="42.9762962" lon="13.1184877"><ele>958.6666666666666</ele><time>2026-04-26T07:42:07.96Z</time></trkpt><trkpt lat="42.9762403" lon="13.1182796"><ele>958.0</ele><time>2026-04-26T07:42:08.959Z</time></trkpt><trkpt lat="42.9761555" lon="13.1180736"><ele>960.0</ele><time>2026-04-26T07:42:09.966Z</time></trkpt><trkpt lat="42.9760539" lon="13.1178755"><ele>962.0</ele><time>2026-04-26T07:42:10.962Z</time></trkpt><trkpt lat="42.9759514" lon="13.1177018"><ele>964.0</ele><time>2026-04-26T07:42:11.964Z</time></trkpt><trkpt lat="42.9758654" lon="13.1175418"><ele>968.0</ele><time>2026-04-26T07:42:12.958Z</time></trkpt><trkpt lat="42.9758175" lon="13.1173781"><ele>972.0</ele><time>2026-04-26T07:42:13.961Z</time></trkpt><trkpt lat="42.9758273" lon="13.117222"><ele>976.0</ele><time>2026-04-26T07:42:14.961Z</time></trkpt><trkpt lat="42.9758916" lon="13.1170774"><ele>980.0</ele><time>2026-04-26T07:42:15.954Z</time></trkpt><trkpt lat="42.9759915" lon="13.1169399"><ele>980.0</ele><time>2026-04-26T07:42:16.963Z</time></trkpt><trkpt lat="42.9761019" lon="13.1167931"><ele>980.0</ele><time>2026-04-26T07:42:17.954Z</time></trkpt><trkpt lat="42.9762171" lon="13.1166293"><ele>980.0</ele><time>2026-04-26T07:42:18.955Z</time></trkpt><trkpt lat="42.9763295" lon="13.1164745"><ele>983.0</ele><time>2026-04-26T07:42:19.955Z</time></trkpt><trkpt lat="42.9764322" lon="13.1163321"><ele>986.0</ele><time>2026-04-26T07:42:20.956Z</time></trkpt><trkpt lat="42.9765181" lon="13.116188"><ele>989.0</ele><time>2026-04-26T07:42:21.962Z</time></trkpt><trkpt lat="42.9765778" lon="13.1160312"><ele>992.0</ele><time>2026-04-26T07:42:22.964Z</time></trkpt><trkpt lat="42.9766052" lon="13.1158523"><ele>994.0</ele><time>2026-04-26T07:42:23.962Z</time></trkpt><trkpt lat="42.9766144" lon="13.1156596"><ele>996.0</ele><time>2026-04-26T07:42:24.963Z</time></trkpt><trkpt lat="42.9766236" lon="13.1154684"><ele>998.0</ele><time>2026-04-26T07:42:25.963Z</time></trkpt><trkpt lat="42.9766144" lon="13.1152639"><ele>1000.0</ele><time>2026-04-26T07:42:26.963Z</time></trkpt><trkpt lat="42.9766026" lon="13.1150714"><ele>999.25</ele><time>2026-04-26T07:42:27.957Z</time></trkpt><trkpt lat="42.976609" lon="13.1148877"><ele>998.5</ele><time>2026-04-26T07:42:28.959Z</time></trkpt><trkpt lat="42.9766584" lon="13.1147355"><ele>997.75</ele><time>2026-04-26T07:42:29.964Z</time></trkpt><trkpt lat="42.9767464" lon="13.1146123"><ele>997.0</ele><time>2026-04-26T07:42:30.963Z</time></trkpt><trkpt lat="42.9768445" lon="13.1144875"><ele>995.5</ele><time>2026-04-26T07:42:31.96Z</time></trkpt><trkpt lat="42.9769569" lon="13.1143483"><ele>994.0</ele><time>2026-04-26T07:42:32.963Z</time></trkpt><trkpt lat="42.9770736" lon="13.1142138"><ele>992.5</ele><time>2026-04-26T07:42:33.959Z</time></trkpt><trkpt lat="42.977185" lon="13.1140868"><ele>991.0</ele><time>2026-04-26T07:42:34.969Z</time></trkpt><trkpt lat="42.9772889" lon="13.1139595"><ele>990.25</ele><time>2026-04-26T07:42:35.971Z</time></trkpt><trkpt lat="42.9773905" lon="13.1138411"><ele>989.5</ele><time>2026-04-26T07:42:36.959Z</time></trkpt><trkpt lat="42.9774607" lon="13.1136912"><ele>988.75</ele><time>2026-04-26T07:42:37.965Z</time></trkpt><trkpt lat="42.9775053" lon="13.1135137"><ele>988.0</ele><time>2026-04-26T07:42:38.965Z</time></trkpt><trkpt lat="42.9775324" lon="13.1133058"><ele>986.25</ele><time>2026-04-26T07:42:39.961Z</time></trkpt><trkpt lat="42.9775353" lon="13.1130932"><ele>984.5</ele><time>2026-04-26T07:42:40.968Z</time></trkpt><trkpt lat="42.9775261" lon="13.1128902"><ele>982.75</ele><time>2026-04-26T07:42:41.964Z</time></trkpt><trkpt lat="42.977513" lon="13.1126938"><ele>981.0</ele><time>2026-04-26T07:42:42.967Z</time></trkpt><trkpt lat="42.9775035" lon="13.1125053"><ele>979.1999999999999</ele><time>2026-04-26T07:42:43.964Z</time></trkpt><trkpt lat="42.9775012" lon="13.112335"><ele>977.3999999999999</ele><time>2026-04-26T07:42:44.963Z</time></trkpt><trkpt lat="42.9775014" lon="13.1121748"><ele>975.6</ele><time>2026-04-26T07:42:45.964Z</time></trkpt><trkpt lat="42.9774991" lon="13.1120335"><ele>973.8</ele><time>2026-04-26T07:42:46.967Z</time></trkpt><trkpt lat="42.9774912" lon="13.11192"><ele>972.0</ele><time>2026-04-26T07:42:47.96Z</time></trkpt><trkpt lat="42.9774534" lon="13.1118276"><ele>972.0</ele><time>2026-04-26T07:42:48.956Z</time></trkpt><trkpt lat="42.977377" lon="13.1117882"><ele>972.0</ele><time>2026-04-26T07:42:49.96Z</time></trkpt><trkpt lat="42.9772684" lon="13.1118164"><ele>972.0</ele><time>2026-04-26T07:42:50.965Z</time></trkpt><trkpt lat="42.977139" lon="13.1118939"><ele>972.0</ele><time>2026-04-26T07:42:51.965Z</time></trkpt><trkpt lat="42.9769899" lon="13.111987"><ele>972.0</ele><time>2026-04-26T07:42:52.969Z</time></trkpt><trkpt lat="42.9768264" lon="13.1120873"><ele>972.0</ele><time>2026-04-26T07:42:53.962Z</time></trkpt><trkpt lat="42.9766687" lon="13.1121944"><ele>972.0</ele><time>2026-04-26T07:42:54.959Z</time></trkpt><trkpt lat="42.9765084" lon="13.112308"><ele>971.3333333333333</ele><time>2026-04-26T07:42:55.963Z</time></trkpt><trkpt lat="42.9763452" lon="13.1124087"><ele>970.6666666666666</ele><time>2026-04-26T07:42:56.963Z</time></trkpt><trkpt lat="42.9761791" lon="13.1124823"><ele>970.0</ele><time>2026-04-26T07:42:57.966Z</time></trkpt><trkpt lat="42.9760137" lon="13.1125469"><ele>963.6666666666666</ele><time>2026-04-26T07:42:58.964Z</time></trkpt><trkpt lat="42.9758489" lon="13.1126261"><ele>957.3333333333333</ele><time>2026-04-26T07:42:59.96Z</time></trkpt><trkpt lat="42.9756875" lon="13.1127143"><ele>951.0</ele><time>2026-04-26T07:43:00.958Z</time></trkpt><trkpt lat="42.9755307" lon="13.1128007"><ele>951.0</ele><time>2026-04-26T07:43:01.959Z</time></trkpt><trkpt lat="42.9753781" lon="13.1128923"><ele>951.0</ele><time>2026-04-26T07:43:02.959Z</time></trkpt><trkpt lat="42.9752296" lon="13.1130035"><ele>951.0</ele><time>2026-04-26T07:43:03.961Z</time></trkpt><trkpt lat="42.9750859" lon="13.1131461"><ele>951.0</ele><time>2026-04-26T07:43:04.963Z</time></trkpt><trkpt lat="42.9749468" lon="13.1133179"><ele>951.0</ele><time>2026-04-26T07:43:05.959Z</time></trkpt><trkpt lat="42.9748116" lon="13.1134995"><ele>951.0</ele><time>2026-04-26T07:43:06.961Z</time></trkpt><trkpt lat="42.9746801" lon="13.1136694"><ele>951.0</ele><time>2026-04-26T07:43:07.958Z</time></trkpt><trkpt lat="42.9745513" lon="13.1138167"><ele>951.0</ele><time>2026-04-26T07:43:08.971Z</time></trkpt><trkpt lat="42.9744337" lon="13.1139327"><ele>951.0</ele><time>2026-04-26T07:43:09.959Z</time></trkpt><trkpt lat="42.974333" lon="13.1140231"><ele>951.0</ele><time>2026-04-26T07:43:10.957Z</time></trkpt><trkpt lat="42.9742494" lon="13.1141002"><ele>952.0</ele><time>2026-04-26T07:43:11.96Z</time></trkpt><trkpt lat="42.974182" lon="13.1141579"><ele>952.9999999999999</ele><time>2026-04-26T07:43:12.957Z</time></trkpt><trkpt lat="42.97412" lon="13.114184"><ele>953.9999999999999</ele><time>2026-04-26T07:43:13.962Z</time></trkpt><trkpt lat="42.974051" lon="13.114116"><ele>955.0</ele><time>2026-04-26T07:43:15.959Z</time></trkpt><trkpt lat="42.9740905" lon="13.1139559"><ele>956.0</ele><time>2026-04-26T07:43:17.958Z</time></trkpt><trkpt lat="42.9741551" lon="13.1138575"><ele>954.75</ele><time>2026-04-26T07:43:18.957Z</time></trkpt><trkpt lat="42.9742457" lon="13.1137595"><ele>953.5</ele><time>2026-04-26T07:43:19.976Z</time></trkpt><trkpt lat="42.974345" lon="13.1136302"><ele>952.25</ele><time>2026-04-26T07:43:20.958Z</time></trkpt><trkpt lat="42.9744332" lon="13.1134562"><ele>951.0</ele><time>2026-04-26T07:43:21.958Z</time></trkpt><trkpt lat="42.9745051" lon="13.1132605"><ele>949.6666666666667</ele><time>2026-04-26T07:43:22.961Z</time></trkpt><trkpt lat="42.9745915" lon="13.1130485"><ele>948.3333333333334</ele><time>2026-04-26T07:43:23.96Z</time></trkpt><trkpt lat="42.9746972" lon="13.1128554"><ele>947.0</ele><time>2026-04-26T07:43:24.957Z</time></trkpt><trkpt lat="42.9748177" lon="13.1126914"><ele>947.0</ele><time>2026-04-26T07:43:25.956Z</time></trkpt><trkpt lat="42.9749425" lon="13.1125464"><ele>947.0</ele><time>2026-04-26T07:43:26.959Z</time></trkpt><trkpt lat="42.9750604" lon="13.1123926"><ele>947.0</ele><time>2026-04-26T07:43:27.962Z</time></trkpt><trkpt lat="42.9751717" lon="13.1122047"><ele>943.6666666666667</ele><time>2026-04-26T07:43:28.958Z</time></trkpt><trkpt lat="42.9752699" lon="13.1120003"><ele>940.3333333333333</ele><time>2026-04-26T07:43:29.957Z</time></trkpt><trkpt lat="42.9753599" lon="13.1118085"><ele>937.0</ele><time>2026-04-26T07:43:30.958Z</time></trkpt><trkpt lat="42.9754424" lon="13.1116362"><ele>938.5</ele><time>2026-04-26T07:43:31.961Z</time></trkpt><trkpt lat="42.9754993" lon="13.1114657"><ele>940.0</ele><time>2026-04-26T07:43:32.956Z</time></trkpt><trkpt lat="42.9755069" lon="13.1112935"><ele>941.5</ele><time>2026-04-26T07:43:33.958Z</time></trkpt><trkpt lat="42.975483" lon="13.111133"><ele>943.0</ele><time>2026-04-26T07:43:34.962Z</time></trkpt><trkpt lat="42.9754758" lon="13.1109952"><ele>943.0</ele><time>2026-04-26T07:43:35.959Z</time></trkpt><trkpt lat="42.9755084" lon="13.1108962"><ele>943.0</ele><time>2026-04-26T07:43:36.963Z</time></trkpt><trkpt lat="42.9756371" lon="13.1108487"><ele>943.0</ele><time>2026-04-26T07:43:38.956Z</time></trkpt><trkpt lat="42.9757367" lon="13.1108444"><ele>943.0</ele><time>2026-04-26T07:43:39.964Z</time></trkpt><trkpt lat="42.975842" lon="13.1108142"><ele>943.0</ele><time>2026-04-26T07:43:40.959Z</time></trkpt><trkpt lat="42.9759428" lon="13.1107285"><ele>941.25</ele><time>2026-04-26T07:43:41.958Z</time></trkpt><trkpt lat="42.9760409" lon="13.1106064"><ele>939.5</ele><time>2026-04-26T07:43:42.959Z</time></trkpt><trkpt lat="42.976127" lon="13.1104462"><ele>937.75</ele><time>2026-04-26T07:43:43.966Z</time></trkpt><trkpt lat="42.9762203" lon="13.1102698"><ele>936.0</ele><time>2026-04-26T07:43:44.962Z</time></trkpt><trkpt lat="42.9762981" lon="13.1100713"><ele>940.0</ele><time>2026-04-26T07:43:45.952Z</time></trkpt><trkpt lat="42.9763449" lon="13.1098491"><ele>944.0</ele><time>2026-04-26T07:43:46.965Z</time></trkpt><trkpt lat="42.9763952" lon="13.1096287"><ele>948.0</ele><time>2026-04-26T07:43:47.961Z</time></trkpt><trkpt lat="42.9764678" lon="13.1094237"><ele>948.0</ele><time>2026-04-26T07:43:48.968Z</time></trkpt><trkpt lat="42.9765791" lon="13.1092279"><ele>948.0</ele><time>2026-04-26T07:43:49.962Z</time></trkpt><trkpt lat="42.9766985" lon="13.109029"><ele>948.0</ele><time>2026-04-26T07:43:50.964Z</time></trkpt><trkpt lat="42.9768027" lon="13.1087928"><ele>948.6666666666667</ele><time>2026-04-26T07:43:51.966Z</time></trkpt><trkpt lat="42.9768942" lon="13.1085252"><ele>949.3333333333334</ele><time>2026-04-26T07:43:52.969Z</time></trkpt><trkpt lat="42.9769794" lon="13.1082523"><ele>950.0</ele><time>2026-04-26T07:43:53.967Z</time></trkpt><trkpt lat="42.9770678" lon="13.1079927"><ele>950.0</ele><time>2026-04-26T07:43:54.962Z</time></trkpt><trkpt lat="42.9771758" lon="13.1077493"><ele>950.0</ele><time>2026-04-26T07:43:55.965Z</time></trkpt><trkpt lat="42.9773005" lon="13.1075207"><ele>950.0</ele><time>2026-04-26T07:43:56.959Z</time></trkpt><trkpt lat="42.977442" lon="13.1073075"><ele>951.6666666666667</ele><time>2026-04-26T07:43:57.962Z</time></trkpt><trkpt lat="42.9775988" lon="13.1071087"><ele>953.3333333333333</ele><time>2026-04-26T07:43:58.963Z</time></trkpt><trkpt lat="42.9777699" lon="13.1069186"><ele>955.0</ele><time>2026-04-26T07:43:59.959Z</time></trkpt><trkpt lat="42.9779469" lon="13.1067306"><ele>956.0</ele><time>2026-04-26T07:44:00.973Z</time></trkpt><trkpt lat="42.9781217" lon="13.1065468"><ele>957.0</ele><time>2026-04-26T07:44:01.969Z</time></trkpt><trkpt lat="42.9782826" lon="13.1063745"><ele>958.0</ele><time>2026-04-26T07:44:02.962Z</time></trkpt><trkpt lat="42.9784309" lon="13.1062101"><ele>958.0</ele><time>2026-04-26T07:44:03.962Z</time></trkpt><trkpt lat="42.9785705" lon="13.1060432"><ele>958.0</ele><time>2026-04-26T07:44:04.964Z</time></trkpt><trkpt lat="42.9786965" lon="13.1058645"><ele>958.0</ele><time>2026-04-26T07:44:05.954Z</time></trkpt><trkpt lat="42.9787997" lon="13.1056729"><ele>961.3333333333333</ele><time>2026-04-26T07:44:06.962Z</time></trkpt><trkpt lat="42.9788758" lon="13.1054789"><ele>964.6666666666667</ele><time>2026-04-26T07:44:07.96Z</time></trkpt><trkpt lat="42.9789271" lon="13.1052857"><ele>968.0</ele><time>2026-04-26T07:44:08.962Z</time></trkpt><trkpt lat="42.9789545" lon="13.1050857"><ele>968.0</ele><time>2026-04-26T07:44:09.955Z</time></trkpt><trkpt lat="42.9789586" lon="13.1048787"><ele>968.0</ele><time>2026-04-26T07:44:10.957Z</time></trkpt><trkpt lat="42.9789468" lon="13.1046564"><ele>968.0</ele><time>2026-04-26T07:44:11.958Z</time></trkpt><trkpt lat="42.978926" lon="13.1044353"><ele>968.0</ele><time>2026-04-26T07:44:12.958Z</time></trkpt><trkpt lat="42.9788835" lon="13.1042282"><ele>968.0</ele><time>2026-04-26T07:44:13.961Z</time></trkpt><trkpt lat="42.9788023" lon="13.1040337"><ele>968.0</ele><time>2026-04-26T07:44:14.958Z</time></trkpt><trkpt lat="42.9786813" lon="13.1038528"><ele>968.3333333333334</ele><time>2026-04-26T07:44:15.969Z</time></trkpt><trkpt lat="42.9785422" lon="13.1036694"><ele>968.6666666666667</ele><time>2026-04-26T07:44:16.963Z</time></trkpt><trkpt lat="42.9784067" lon="13.1034557"><ele>969.0</ele><time>2026-04-26T07:44:17.958Z</time></trkpt><trkpt lat="42.9782814" lon="13.1032271"><ele>969.0</ele><time>2026-04-26T07:44:18.963Z</time></trkpt><trkpt lat="42.9781788" lon="13.1030013"><ele>969.0</ele><time>2026-04-26T07:44:19.962Z</time></trkpt><trkpt lat="42.9781076" lon="13.1027752"><ele>969.0</ele><time>2026-04-26T07:44:20.959Z</time></trkpt><trkpt lat="42.9780843" lon="13.1025452"><ele>970.6666666666667</ele><time>2026-04-26T07:44:21.959Z</time></trkpt><trkpt lat="42.9781158" lon="13.1023124"><ele>972.3333333333334</ele><time>2026-04-26T07:44:22.964Z</time></trkpt><trkpt lat="42.9781886" lon="13.102082"><ele>974.0</ele><time>2026-04-26T07:44:23.962Z</time></trkpt><trkpt lat="42.9782715" lon="13.1018434"><ele>971.6666666666667</ele><time>2026-04-26T07:44:24.967Z</time></trkpt><trkpt lat="42.9783526" lon="13.1015946"><ele>969.3333333333333</ele><time>2026-04-26T07:44:25.959Z</time></trkpt><trkpt lat="42.9784392" lon="13.1013548"><ele>967.0</ele><time>2026-04-26T07:44:26.96Z</time></trkpt><trkpt lat="42.978534" lon="13.1011429"><ele>967.0</ele><time>2026-04-26T07:44:27.957Z</time></trkpt><trkpt lat="42.9786216" lon="13.1009325"><ele>967.0</ele><time>2026-04-26T07:44:28.958Z</time></trkpt><trkpt lat="42.9786925" lon="13.1007097"><ele>967.0</ele><time>2026-04-26T07:44:29.962Z</time></trkpt><trkpt lat="42.9787401" lon="13.1004913"><ele>968.3333333333333</ele><time>2026-04-26T07:44:30.965Z</time></trkpt><trkpt lat="42.9787573" lon="13.100282"><ele>969.6666666666667</ele><time>2026-04-26T07:44:31.963Z</time></trkpt><trkpt lat="42.9787402" lon="13.1000723"><ele>971.0</ele><time>2026-04-26T07:44:32.964Z</time></trkpt><trkpt lat="42.9786897" lon="13.099865"><ele>971.6666666666667</ele><time>2026-04-26T07:44:33.967Z</time></trkpt><trkpt lat="42.9786154" lon="13.0996568"><ele>972.3333333333333</ele><time>2026-04-26T07:44:34.967Z</time></trkpt><trkpt lat="42.9785289" lon="13.0994359"><ele>973.0</ele><time>2026-04-26T07:44:35.971Z</time></trkpt><trkpt lat="42.9784344" lon="13.0992008"><ele>974.6666666666666</ele><time>2026-04-26T07:44:36.968Z</time></trkpt><trkpt lat="42.9783294" lon="13.09896"><ele>976.3333333333333</ele><time>2026-04-26T07:44:37.979Z</time></trkpt><trkpt lat="42.9782057" lon="13.0987235"><ele>978.0</ele><time>2026-04-26T07:44:38.966Z</time></trkpt><trkpt lat="42.978063" lon="13.0984971"><ele>978.0</ele><time>2026-04-26T07:44:39.963Z</time></trkpt><trkpt lat="42.9779096" lon="13.0982751"><ele>978.0</ele><time>2026-04-26T07:44:40.964Z</time></trkpt><trkpt lat="42.9777482" lon="13.0980586"><ele>977.5</ele><time>2026-04-26T07:44:41.959Z</time></trkpt><trkpt lat="42.9775777" lon="13.0978541"><ele>977.0</ele><time>2026-04-26T07:44:42.964Z</time></trkpt><trkpt lat="42.9773988" lon="13.0976646"><ele>979.0</ele><time>2026-04-26T07:44:43.961Z</time></trkpt><trkpt lat="42.9772107" lon="13.0974967"><ele>981.0</ele><time>2026-04-26T07:44:44.956Z</time></trkpt><trkpt lat="42.9770209" lon="13.0973498"><ele>983.0</ele><time>2026-04-26T07:44:45.956Z</time></trkpt><trkpt lat="42.9768438" lon="13.0972153"><ele>985.6666666666667</ele><time>2026-04-26T07:44:46.964Z</time></trkpt><trkpt lat="42.9766832" lon="13.0970831"><ele>988.3333333333333</ele><time>2026-04-26T07:44:47.963Z</time></trkpt><trkpt lat="42.9765291" lon="13.0969521"><ele>991.0</ele><time>2026-04-26T07:44:48.961Z</time></trkpt><trkpt lat="42.9763834" lon="13.0968316"><ele>991.0</ele><time>2026-04-26T07:44:49.969Z</time></trkpt><trkpt lat="42.9762542" lon="13.0967148"><ele>991.0</ele><time>2026-04-26T07:44:50.967Z</time></trkpt><trkpt lat="42.9761443" lon="13.0965704"><ele>991.0</ele><time>2026-04-26T07:44:51.969Z</time></trkpt><trkpt lat="42.9760623" lon="13.0963848"><ele>993.3333333333333</ele><time>2026-04-26T07:44:52.966Z</time></trkpt><trkpt lat="42.9760011" lon="13.0961744"><ele>995.6666666666667</ele><time>2026-04-26T07:44:53.962Z</time></trkpt><trkpt lat="42.9759405" lon="13.0959584"><ele>998.0</ele><time>2026-04-26T07:44:54.964Z</time></trkpt><trkpt lat="42.9758841" lon="13.0957725"><ele>1000.4</ele><time>2026-04-26T07:44:55.972Z</time></trkpt><trkpt lat="42.9758376" lon="13.0956208"><ele>1002.8</ele><time>2026-04-26T07:44:56.96Z</time></trkpt><trkpt lat="42.9758191" lon="13.095491"><ele>1005.2</ele><time>2026-04-26T07:44:57.958Z</time></trkpt><trkpt lat="42.9758432" lon="13.0953999"><ele>1007.6</ele><time>2026-04-26T07:44:58.958Z</time></trkpt><trkpt lat="42.9759699" lon="13.0953625"><ele>1010.0</ele><time>2026-04-26T07:45:00.959Z</time></trkpt><trkpt lat="42.9760682" lon="13.0954361"><ele>1010.25</ele><time>2026-04-26T07:45:01.959Z</time></trkpt><trkpt lat="42.9761873" lon="13.0955099"><ele>1010.5</ele><time>2026-04-26T07:45:02.966Z</time></trkpt><trkpt lat="42.9763254" lon="13.095586"><ele>1010.75</ele><time>2026-04-26T07:45:03.968Z</time></trkpt><trkpt lat="42.9764788" lon="13.0956558"><ele>1011.0</ele><time>2026-04-26T07:45:04.973Z</time></trkpt><trkpt lat="42.9766287" lon="13.0957245"><ele>1008.5</ele><time>2026-04-26T07:45:05.96Z</time></trkpt><trkpt lat="42.9767672" lon="13.0957581"><ele>1006.0</ele><time>2026-04-26T07:45:06.96Z</time></trkpt><trkpt lat="42.9768987" lon="13.095758"><ele>1003.5</ele><time>2026-04-26T07:45:07.953Z</time></trkpt><trkpt lat="42.9770129" lon="13.0957111"><ele>1001.0</ele><time>2026-04-26T07:45:08.972Z</time></trkpt><trkpt lat="42.9771043" lon="13.0956074"><ele>1001.0</ele><time>2026-04-26T07:45:09.961Z</time></trkpt><trkpt lat="42.977171" lon="13.0954549"><ele>1001.0</ele><time>2026-04-26T07:45:10.963Z</time></trkpt><trkpt lat="42.9772146" lon="13.0952664"><ele>1001.0</ele><time>2026-04-26T07:45:11.964Z</time></trkpt><trkpt lat="42.9772487" lon="13.0950559"><ele>1001.0</ele><time>2026-04-26T07:45:12.961Z</time></trkpt><trkpt lat="42.9772921" lon="13.094833"><ele>1004.0</ele><time>2026-04-26T07:45:13.965Z</time></trkpt><trkpt lat="42.9773468" lon="13.0946169"><ele>1007.0</ele><time>2026-04-26T07:45:14.964Z</time></trkpt><trkpt lat="42.9774111" lon="13.0944289"><ele>1010.0</ele><time>2026-04-26T07:45:15.96Z</time></trkpt><trkpt lat="42.9774968" lon="13.0942782"><ele>1008.75</ele><time>2026-04-26T07:45:16.962Z</time></trkpt><trkpt lat="42.9775915" lon="13.0941491"><ele>1007.5</ele><time>2026-04-26T07:45:17.966Z</time></trkpt><trkpt lat="42.9776909" lon="13.0940083"><ele>1006.25</ele><time>2026-04-26T07:45:18.963Z</time></trkpt><trkpt lat="42.9777574" lon="13.0938341"><ele>1005.0</ele><time>2026-04-26T07:45:19.96Z</time></trkpt><trkpt lat="42.9777969" lon="13.0936442"><ele>1005.0</ele><time>2026-04-26T07:45:20.967Z</time></trkpt><trkpt lat="42.9778056" lon="13.0934572"><ele>1005.0</ele><time>2026-04-26T07:45:21.96Z</time></trkpt><trkpt lat="42.9777896" lon="13.0932762"><ele>1005.0</ele><time>2026-04-26T07:45:22.963Z</time></trkpt><trkpt lat="42.9777492" lon="13.0931152"><ele>1005.0</ele><time>2026-04-26T07:45:23.967Z</time></trkpt><trkpt lat="42.9776802" lon="13.0929733"><ele>1005.75</ele><time>2026-04-26T07:45:24.961Z</time></trkpt><trkpt lat="42.9775838" lon="13.0928484"><ele>1006.5</ele><time>2026-04-26T07:45:25.961Z</time></trkpt><trkpt lat="42.9774617" lon="13.092734"><ele>1007.25</ele><time>2026-04-26T07:45:26.97Z</time></trkpt><trkpt lat="42.9773281" lon="13.0926257"><ele>1008.0</ele><time>2026-04-26T07:45:27.968Z</time></trkpt><trkpt lat="42.9772007" lon="13.092516"><ele>1003.0</ele><time>2026-04-26T07:45:28.964Z</time></trkpt><trkpt lat="42.9770812" lon="13.0923717"><ele>998.0</ele><time>2026-04-26T07:45:29.968Z</time></trkpt><trkpt lat="42.9769815" lon="13.0921981"><ele>993.0</ele><time>2026-04-26T07:45:30.96Z</time></trkpt><trkpt lat="42.9768813" lon="13.092032"><ele>993.0</ele><time>2026-04-26T07:45:31.965Z</time></trkpt><trkpt lat="42.9768136" lon="13.0918466"><ele>993.0</ele><time>2026-04-26T07:45:32.966Z</time></trkpt><trkpt lat="42.9767692" lon="13.0916549"><ele>993.0</ele><time>2026-04-26T07:45:33.966Z</time></trkpt><trkpt lat="42.976734" lon="13.0914561"><ele>993.0</ele><time>2026-04-26T07:45:34.961Z</time></trkpt><trkpt lat="42.9766633" lon="13.0912561"><ele>990.3333333333333</ele><time>2026-04-26T07:45:35.967Z</time></trkpt><trkpt lat="42.9765621" lon="13.0910533"><ele>987.6666666666666</ele><time>2026-04-26T07:45:36.965Z</time></trkpt><trkpt lat="42.9764657" lon="13.0908402"><ele>985.0</ele><time>2026-04-26T07:45:37.961Z</time></trkpt><trkpt lat="42.9763888" lon="13.0906107"><ele>977.6666666666666</ele><time>2026-04-26T07:45:38.978Z</time></trkpt><trkpt lat="42.976318" lon="13.0903852"><ele>970.3333333333333</ele><time>2026-04-26T07:45:39.963Z</time></trkpt><trkpt lat="42.9762417" lon="13.0901675"><ele>963.0</ele><time>2026-04-26T07:45:40.957Z</time></trkpt><trkpt lat="42.9761583" lon="13.0899609"><ele>957.0</ele><time>2026-04-26T07:45:41.966Z</time></trkpt><trkpt lat="42.9760682" lon="13.0897713"><ele>951.0</ele><time>2026-04-26T07:45:42.968Z</time></trkpt><trkpt lat="42.9759713" lon="13.0895993"><ele>945.0</ele><time>2026-04-26T07:45:43.962Z</time></trkpt><trkpt lat="42.9758748" lon="13.0894614"><ele>949.0</ele><time>2026-04-26T07:45:44.964Z</time></trkpt><trkpt lat="42.9757691" lon="13.0893604"><ele>953.0</ele><time>2026-04-26T07:45:45.968Z</time></trkpt><trkpt lat="42.9756322" lon="13.0893095"><ele>957.0</ele><time>2026-04-26T07:45:46.97Z</time></trkpt><trkpt lat="42.9754915" lon="13.0893172"><ele>961.0</ele><time>2026-04-26T07:45:47.962Z</time></trkpt><trkpt lat="42.9753764" lon="13.089372"><ele>961.0</ele><time>2026-04-26T07:45:48.96Z</time></trkpt><trkpt lat="42.9752894" lon="13.0894194"><ele>960.9999999999999</ele><time>2026-04-26T07:45:49.96Z</time></trkpt><trkpt lat="42.975219" lon="13.0894217"><ele>960.9999999999999</ele><time>2026-04-26T07:45:50.964Z</time></trkpt><trkpt lat="42.975175" lon="13.0892805"><ele>961.0</ele><time>2026-04-26T07:45:52.955Z</time></trkpt><trkpt lat="42.9751907" lon="13.0891553"><ele>961.0</ele><time>2026-04-26T07:45:53.963Z</time></trkpt><trkpt lat="42.9752346" lon="13.0890064"><ele>959.0</ele><time>2026-04-26T07:45:54.968Z</time></trkpt><trkpt lat="42.9752094" lon="13.0888578"><ele>957.0</ele><time>2026-04-26T07:45:55.963Z</time></trkpt><trkpt lat="42.9751342" lon="13.0887464"><ele>955.0</ele><time>2026-04-26T07:45:56.958Z</time></trkpt><trkpt lat="42.9750078" lon="13.0886792"><ele>953.0</ele><time>2026-04-26T07:45:57.954Z</time></trkpt><trkpt lat="42.9748456" lon="13.0886297"><ele>953.0</ele><time>2026-04-26T07:45:58.964Z</time></trkpt><trkpt lat="42.9746701" lon="13.088577"><ele>953.0</ele><time>2026-04-26T07:45:59.958Z</time></trkpt><trkpt lat="42.9744899" lon="13.0885281"><ele>953.0</ele><time>2026-04-26T07:46:00.967Z</time></trkpt><trkpt lat="42.9743215" lon="13.0884914"><ele>953.25</ele><time>2026-04-26T07:46:01.968Z</time></trkpt><trkpt lat="42.9741683" lon="13.0884636"><ele>953.5</ele><time>2026-04-26T07:46:02.953Z</time></trkpt><trkpt lat="42.9740303" lon="13.0884621"><ele>953.75</ele><time>2026-04-26T07:46:03.963Z</time></trkpt><trkpt lat="42.9739083" lon="13.088517"><ele>954.0</ele><time>2026-04-26T07:46:04.958Z</time></trkpt><trkpt lat="42.9738104" lon="13.0886085"><ele>954.0</ele><time>2026-04-26T07:46:05.957Z</time></trkpt><trkpt lat="42.9737266" lon="13.0886803"><ele>954.0000000000001</ele><time>2026-04-26T07:46:06.962Z</time></trkpt><trkpt lat="42.9736453" lon="13.0887189"><ele>954.0000000000001</ele><time>2026-04-26T07:46:07.972Z</time></trkpt><trkpt lat="42.9735631" lon="13.0886623"><ele>954.0</ele><time>2026-04-26T07:46:08.956Z</time></trkpt><trkpt lat="42.9734848" lon="13.0885409"><ele>954.0</ele><time>2026-04-26T07:46:09.977Z</time></trkpt><trkpt lat="42.973409" lon="13.0883856"><ele>948.5</ele><time>2026-04-26T07:46:10.961Z</time></trkpt><trkpt lat="42.9733392" lon="13.0882299"><ele>943.0</ele><time>2026-04-26T07:46:11.959Z</time></trkpt><trkpt lat="42.9732769" lon="13.088085"><ele>937.5</ele><time>2026-04-26T07:46:12.96Z</time></trkpt><trkpt lat="42.9731884" lon="13.0879648"><ele>932.0</ele><time>2026-04-26T07:46:13.968Z</time></trkpt><trkpt lat="42.9730656" lon="13.0878795"><ele>932.0</ele><time>2026-04-26T07:46:14.96Z</time></trkpt><trkpt lat="42.972918" lon="13.0878181"><ele>932.0</ele><time>2026-04-26T07:46:15.959Z</time></trkpt><trkpt lat="42.9727538" lon="13.0877762"><ele>932.0</ele><time>2026-04-26T07:46:16.956Z</time></trkpt><trkpt lat="42.9725679" lon="13.0877651"><ele>932.3333333333334</ele><time>2026-04-26T07:46:17.96Z</time></trkpt><trkpt lat="42.9723791" lon="13.0877696"><ele>932.6666666666667</ele><time>2026-04-26T07:46:18.957Z</time></trkpt><trkpt lat="42.972198" lon="13.0877705"><ele>933.0</ele><time>2026-04-26T07:46:19.954Z</time></trkpt><trkpt lat="42.9720254" lon="13.0877766"><ele>933.0</ele><time>2026-04-26T07:46:20.962Z</time></trkpt><trkpt lat="42.9718563" lon="13.0877874"><ele>933.0</ele><time>2026-04-26T07:46:21.955Z</time></trkpt><trkpt lat="42.9716914" lon="13.0878037"><ele>933.0</ele><time>2026-04-26T07:46:22.977Z</time></trkpt><trkpt lat="42.9715266" lon="13.0878234"><ele>929.3333333333333</ele><time>2026-04-26T07:46:23.956Z</time></trkpt><trkpt lat="42.9713483" lon="13.0878235"><ele>925.6666666666666</ele><time>2026-04-26T07:46:24.963Z</time></trkpt><trkpt lat="42.9711581" lon="13.0878006"><ele>922.0</ele><time>2026-04-26T07:46:25.966Z</time></trkpt><trkpt lat="42.9709592" lon="13.0877693"><ele>921.0</ele><time>2026-04-26T07:46:26.961Z</time></trkpt><trkpt lat="42.9707625" lon="13.0877415"><ele>920.0</ele><time>2026-04-26T07:46:27.956Z</time></trkpt><trkpt lat="42.9705714" lon="13.0877141"><ele>919.0</ele><time>2026-04-26T07:46:28.963Z</time></trkpt><trkpt lat="42.9703905" lon="13.0876887"><ele>919.0</ele><time>2026-04-26T07:46:29.96Z</time></trkpt><trkpt lat="42.9702165" lon="13.0876547"><ele>919.0</ele><time>2026-04-26T07:46:30.958Z</time></trkpt><trkpt lat="42.9700578" lon="13.0876078"><ele>919.0</ele><time>2026-04-26T07:46:31.967Z</time></trkpt><trkpt lat="42.969914" lon="13.0875475"><ele>919.0</ele><time>2026-04-26T07:46:32.965Z</time></trkpt><trkpt lat="42.9697844" lon="13.0874572"><ele>919.0</ele><time>2026-04-26T07:46:33.963Z</time></trkpt><trkpt lat="42.9696737" lon="13.0873244"><ele>919.0</ele><time>2026-04-26T07:46:34.957Z</time></trkpt><trkpt lat="42.9695839" lon="13.0871567"><ele>919.0</ele><time>2026-04-26T07:46:35.965Z</time></trkpt><trkpt lat="42.9695169" lon="13.0869659"><ele>912.3333333333333</ele><time>2026-04-26T07:46:36.952Z</time></trkpt><trkpt lat="42.9694781" lon="13.0867653"><ele>905.6666666666667</ele><time>2026-04-26T07:46:37.963Z</time></trkpt><trkpt lat="42.9694598" lon="13.0865521"><ele>899.0</ele><time>2026-04-26T07:46:38.965Z</time></trkpt><trkpt lat="42.9694586" lon="13.0863199"><ele>896.3333333333334</ele><time>2026-04-26T07:46:39.966Z</time></trkpt><trkpt lat="42.9694771" lon="13.0860753"><ele>893.6666666666667</ele><time>2026-04-26T07:46:40.963Z</time></trkpt><trkpt lat="42.9695091" lon="13.085826"><ele>891.0</ele><time>2026-04-26T07:46:41.966Z</time></trkpt><trkpt lat="42.969548" lon="13.0855843"><ele>890.3333333333333</ele><time>2026-04-26T07:46:42.96Z</time></trkpt><trkpt lat="42.9695934" lon="13.085349"><ele>889.6666666666666</ele><time>2026-04-26T07:46:43.964Z</time></trkpt><trkpt lat="42.9696497" lon="13.0851271"><ele>889.0</ele><time>2026-04-26T07:46:44.955Z</time></trkpt><trkpt lat="42.9697209" lon="13.0849226"><ele>887.6666666666666</ele><time>2026-04-26T07:46:45.963Z</time></trkpt><trkpt lat="42.9698112" lon="13.0847394"><ele>886.3333333333333</ele><time>2026-04-26T07:46:46.966Z</time></trkpt><trkpt lat="42.9699205" lon="13.0845823"><ele>885.0</ele><time>2026-04-26T07:46:47.964Z</time></trkpt><trkpt lat="42.9700428" lon="13.0844437"><ele>881.75</ele><time>2026-04-26T07:46:48.958Z</time></trkpt><trkpt lat="42.9701633" lon="13.0843207"><ele>878.5</ele><time>2026-04-26T07:46:49.959Z</time></trkpt><trkpt lat="42.9702684" lon="13.0842127"><ele>875.25</ele><time>2026-04-26T07:46:50.969Z</time></trkpt><trkpt lat="42.9703548" lon="13.0841086"><ele>872.0</ele><time>2026-04-26T07:46:51.96Z</time></trkpt><trkpt lat="42.9704314" lon="13.0840187"><ele>869.8</ele><time>2026-04-26T07:46:52.962Z</time></trkpt><trkpt lat="42.9704558" lon="13.0838816"><ele>867.6</ele><time>2026-04-26T07:46:53.964Z</time></trkpt><trkpt lat="42.9704193" lon="13.0837585"><ele>865.3999999999999</ele><time>2026-04-26T07:46:54.964Z</time></trkpt><trkpt lat="42.9703434" lon="13.0836655"><ele>863.1999999999999</ele><time>2026-04-26T07:46:55.966Z</time></trkpt><trkpt lat="42.9702289" lon="13.0835981"><ele>861.0</ele><time>2026-04-26T07:46:56.955Z</time></trkpt><trkpt lat="42.9700831" lon="13.0835406"><ele>862.3333333333333</ele><time>2026-04-26T07:46:57.965Z</time></trkpt><trkpt lat="42.9699149" lon="13.0835086"><ele>863.6666666666666</ele><time>2026-04-26T07:46:58.954Z</time></trkpt><trkpt lat="42.9697281" lon="13.0835039"><ele>865.0</ele><time>2026-04-26T07:46:59.967Z</time></trkpt><trkpt lat="42.9695448" lon="13.0834912"><ele>865.0</ele><time>2026-04-26T07:47:00.963Z</time></trkpt><trkpt lat="42.9693586" lon="13.0834548"><ele>865.0</ele><time>2026-04-26T07:47:01.963Z</time></trkpt><trkpt lat="42.9691765" lon="13.0834027"><ele>865.0</ele><time>2026-04-26T07:47:02.961Z</time></trkpt><trkpt lat="42.968999" lon="13.0833446"><ele>863.3333333333333</ele><time>2026-04-26T07:47:03.966Z</time></trkpt><trkpt lat="42.9688308" lon="13.0832794"><ele>861.6666666666667</ele><time>2026-04-26T07:47:04.958Z</time></trkpt><trkpt lat="42.9686855" lon="13.0831994"><ele>860.0</ele><time>2026-04-26T07:47:05.96Z</time></trkpt><trkpt lat="42.9685635" lon="13.0831108"><ele>858.4</ele><time>2026-04-26T07:47:06.965Z</time></trkpt><trkpt lat="42.9684635" lon="13.0830255"><ele>856.8</ele><time>2026-04-26T07:47:07.958Z</time></trkpt><trkpt lat="42.9683903" lon="13.0829339"><ele>855.2</ele><time>2026-04-26T07:47:08.956Z</time></trkpt><trkpt lat="42.968353" lon="13.0828211"><ele>853.6</ele><time>2026-04-26T07:47:09.959Z</time></trkpt><trkpt lat="42.9683678" lon="13.0826923"><ele>852.0</ele><time>2026-04-26T07:47:10.966Z</time></trkpt><trkpt lat="42.9684234" lon="13.0825525"><ele>844.75</ele><time>2026-04-26T07:47:11.956Z</time></trkpt><trkpt lat="42.9684981" lon="13.0823858"><ele>837.5</ele><time>2026-04-26T07:47:12.959Z</time></trkpt><trkpt lat="42.9685636" lon="13.0822084"><ele>830.25</ele><time>2026-04-26T07:47:13.958Z</time></trkpt><trkpt lat="42.968616" lon="13.0820334"><ele>823.0</ele><time>2026-04-26T07:47:14.962Z</time></trkpt><trkpt lat="42.9686547" lon="13.0818646"><ele>823.0</ele><time>2026-04-26T07:47:15.958Z</time></trkpt><trkpt lat="42.9686804" lon="13.0817081"><ele>823.0</ele><time>2026-04-26T07:47:16.96Z</time></trkpt><trkpt lat="42.9686702" lon="13.0815567"><ele>823.0</ele><time>2026-04-26T07:47:17.96Z</time></trkpt><trkpt lat="42.968643" lon="13.0814093"><ele>823.0</ele><time>2026-04-26T07:47:18.956Z</time></trkpt><trkpt lat="42.9685398" lon="13.081294"><ele>822.25</ele><time>2026-04-26T07:47:19.957Z</time></trkpt><trkpt lat="42.9684167" lon="13.0811998"><ele>821.5</ele><time>2026-04-26T07:47:20.964Z</time></trkpt><trkpt lat="42.9682848" lon="13.0811119"><ele>820.75</ele><time>2026-04-26T07:47:21.966Z</time></trkpt><trkpt lat="42.9681699" lon="13.0809954"><ele>820.0</ele><time>2026-04-26T07:47:22.958Z</time></trkpt><trkpt lat="42.9680871" lon="13.0808477"><ele>814.75</ele><time>2026-04-26T07:47:23.959Z</time></trkpt><trkpt lat="42.9680229" lon="13.0806953"><ele>809.5</ele><time>2026-04-26T07:47:24.958Z</time></trkpt><trkpt lat="42.9679434" lon="13.0805648"><ele>804.25</ele><time>2026-04-26T07:47:25.959Z</time></trkpt><trkpt lat="42.9678496" lon="13.0804532"><ele>799.0</ele><time>2026-04-26T07:47:26.957Z</time></trkpt><trkpt lat="42.9677178" lon="13.0803889"><ele>799.0</ele><time>2026-04-26T07:47:27.959Z</time></trkpt><trkpt lat="42.967586" lon="13.0803372"><ele>799.0</ele><time>2026-04-26T07:47:28.959Z</time></trkpt><trkpt lat="42.9674557" lon="13.080295"><ele>799.0</ele><time>2026-04-26T07:47:29.963Z</time></trkpt><trkpt lat="42.967331" lon="13.0802611"><ele>799.0</ele><time>2026-04-26T07:47:30.961Z</time></trkpt><trkpt lat="42.9672086" lon="13.0802373"><ele>800.1666666666666</ele><time>2026-04-26T07:47:31.958Z</time></trkpt><trkpt lat="42.9671024" lon="13.080234"><ele>801.3333333333333</ele><time>2026-04-26T07:47:32.956Z</time></trkpt><trkpt lat="42.9670131" lon="13.0802439"><ele>802.5</ele><time>2026-04-26T07:47:33.959Z</time></trkpt><trkpt lat="42.9669487" lon="13.0802493"><ele>803.6666666666667</ele><time>2026-04-26T07:47:34.964Z</time></trkpt><trkpt lat="42.9668697" lon="13.0802627"><ele>804.8333333333334</ele><time>2026-04-26T07:47:36.96Z</time></trkpt><trkpt lat="42.9667806" lon="13.0802635"><ele>806.0</ele><time>2026-04-26T07:47:39.964Z</time></trkpt><trkpt lat="42.9666792" lon="13.0802471"><ele>806.5</ele><time>2026-04-26T07:47:41.955Z</time></trkpt><trkpt lat="42.9665885" lon="13.0802449"><ele>807.0</ele><time>2026-04-26T07:47:42.96Z</time></trkpt><trkpt lat="42.9664692" lon="13.0802286"><ele>807.5</ele><time>2026-04-26T07:47:43.957Z</time></trkpt><trkpt lat="42.9663269" lon="13.080188"><ele>808.0</ele><time>2026-04-26T07:47:44.955Z</time></trkpt><trkpt lat="42.9661744" lon="13.0801266"><ele>808.0</ele><time>2026-04-26T07:47:45.953Z</time></trkpt><trkpt lat="42.9660107" lon="13.0800628"><ele>808.0</ele><time>2026-04-26T07:47:46.963Z</time></trkpt><trkpt lat="42.9658351" lon="13.0800134"><ele>808.0</ele><time>2026-04-26T07:47:47.96Z</time></trkpt><trkpt lat="42.9656584" lon="13.0799691"><ele>807.5</ele><time>2026-04-26T07:47:48.96Z</time></trkpt><trkpt lat="42.9654947" lon="13.079927"><ele>807.0</ele><time>2026-04-26T07:47:49.958Z</time></trkpt><trkpt lat="42.9653533" lon="13.0798974"><ele>806.5</ele><time>2026-04-26T07:47:50.963Z</time></trkpt><trkpt lat="42.9652332" lon="13.0798904"><ele>806.0</ele><time>2026-04-26T07:47:51.964Z</time></trkpt><trkpt lat="42.9651305" lon="13.0799249"><ele>806.75</ele><time>2026-04-26T07:47:52.958Z</time></trkpt><trkpt lat="42.9650515" lon="13.0800281"><ele>807.5</ele><time>2026-04-26T07:47:53.96Z</time></trkpt><trkpt lat="42.9650124" lon="13.0801976"><ele>808.25</ele><time>2026-04-26T07:47:54.959Z</time></trkpt><trkpt lat="42.9650271" lon="13.0804066"><ele>809.0</ele><time>2026-04-26T07:47:55.968Z</time></trkpt><trkpt lat="42.9650828" lon="13.0806097"><ele>809.5</ele><time>2026-04-26T07:47:56.959Z</time></trkpt><trkpt lat="42.9651243" lon="13.0807901"><ele>810.0</ele><time>2026-04-26T07:47:57.958Z</time></trkpt><trkpt lat="42.9651359" lon="13.080953"><ele>810.5</ele><time>2026-04-26T07:47:58.958Z</time></trkpt><trkpt lat="42.9651026" lon="13.0810902"><ele>811.0</ele><time>2026-04-26T07:47:59.968Z</time></trkpt><trkpt lat="42.9650221" lon="13.0811756"><ele>811.0</ele><time>2026-04-26T07:48:00.961Z</time></trkpt><trkpt lat="42.9649003" lon="13.0811954"><ele>811.0</ele><time>2026-04-26T07:48:01.96Z</time></trkpt><trkpt lat="42.964765" lon="13.0811868"><ele>811.0</ele><time>2026-04-26T07:48:02.963Z</time></trkpt><trkpt lat="42.9646064" lon="13.0811183"><ele>811.0</ele><time>2026-04-26T07:48:03.96Z</time></trkpt><trkpt lat="42.964408" lon="13.0810994"><ele>807.0</ele><time>2026-04-26T07:48:04.957Z</time></trkpt><trkpt lat="42.9641929" lon="13.0811369"><ele>803.0</ele><time>2026-04-26T07:48:05.955Z</time></trkpt><trkpt lat="42.9639815" lon="13.0812266"><ele>799.0</ele><time>2026-04-26T07:48:06.959Z</time></trkpt><trkpt lat="42.9637611" lon="13.0813388"><ele>799.0</ele><time>2026-04-26T07:48:07.956Z</time></trkpt><trkpt lat="42.9635355" lon="13.0814345"><ele>799.0</ele><time>2026-04-26T07:48:08.956Z</time></trkpt><trkpt lat="42.9632819" lon="13.0814714"><ele>795.5</ele><time>2026-04-26T07:48:09.958Z</time></trkpt><trkpt lat="42.9630272" lon="13.0814947"><ele>792.0</ele><time>2026-04-26T07:48:10.974Z</time></trkpt><trkpt lat="42.9627747" lon="13.0815371"><ele>792.0</ele><time>2026-04-26T07:48:11.968Z</time></trkpt><trkpt lat="42.9625358" lon="13.0815986"><ele>792.0</ele><time>2026-04-26T07:48:12.958Z</time></trkpt><trkpt lat="42.9623201" lon="13.0816501"><ele>792.3333333333333</ele><time>2026-04-26T07:48:13.952Z</time></trkpt><trkpt lat="42.9621433" lon="13.0816687"><ele>792.6666666666666</ele><time>2026-04-26T07:48:14.96Z</time></trkpt><trkpt lat="42.9619901" lon="13.0816704"><ele>793.0</ele><time>2026-04-26T07:48:15.951Z</time></trkpt><trkpt lat="42.9618642" lon="13.0816835"><ele>793.0</ele><time>2026-04-26T07:48:16.956Z</time></trkpt><trkpt lat="42.9617651" lon="13.0817518"><ele>793.0</ele><time>2026-04-26T07:48:17.951Z</time></trkpt><trkpt lat="42.9617214" lon="13.081863"><ele>793.0</ele><time>2026-04-26T07:48:18.955Z</time></trkpt><trkpt lat="42.9617328" lon="13.0819975"><ele>793.0</ele><time>2026-04-26T07:48:19.962Z</time></trkpt><trkpt lat="42.9617972" lon="13.0821582"><ele>793.0</ele><time>2026-04-26T07:48:20.955Z</time></trkpt><trkpt lat="42.9619443" lon="13.0822948"><ele>793.0</ele><time>2026-04-26T07:48:21.956Z</time></trkpt><trkpt lat="42.9620741" lon="13.0824294"><ele>793.0</ele><time>2026-04-26T07:48:22.958Z</time></trkpt><trkpt lat="42.9621667" lon="13.0825728"><ele>793.0</ele><time>2026-04-26T07:48:23.959Z</time></trkpt><trkpt lat="42.9622062" lon="13.0827622"><ele>793.0</ele><time>2026-04-26T07:48:24.957Z</time></trkpt><trkpt lat="42.9621875" lon="13.0829755"><ele>795.0</ele><time>2026-04-26T07:48:25.955Z</time></trkpt><trkpt lat="42.9621161" lon="13.0831836"><ele>797.0</ele><time>2026-04-26T07:48:26.957Z</time></trkpt><trkpt lat="42.9620401" lon="13.0833807"><ele>799.0</ele><time>2026-04-26T07:48:27.955Z</time></trkpt><trkpt lat="42.961932" lon="13.0834988"><ele>800.25</ele><time>2026-04-26T07:48:28.952Z</time></trkpt><trkpt lat="42.9618043" lon="13.0835731"><ele>801.5</ele><time>2026-04-26T07:48:29.954Z</time></trkpt><trkpt lat="42.9616769" lon="13.0835666"><ele>802.75</ele><time>2026-04-26T07:48:30.954Z</time></trkpt><trkpt lat="42.9615515" lon="13.0834735"><ele>804.0</ele><time>2026-04-26T07:48:31.955Z</time></trkpt><trkpt lat="42.961429" lon="13.0833084"><ele>795.3333333333333</ele><time>2026-04-26T07:48:32.951Z</time></trkpt><trkpt lat="42.9612927" lon="13.0831279"><ele>786.6666666666666</ele><time>2026-04-26T07:48:33.952Z</time></trkpt><trkpt lat="42.9611229" lon="13.0829684"><ele>778.0</ele><time>2026-04-26T07:48:34.96Z</time></trkpt><trkpt lat="42.9609229" lon="13.0828583"><ele>772.6666666666666</ele><time>2026-04-26T07:48:35.96Z</time></trkpt><trkpt lat="42.9607297" lon="13.0827952"><ele>767.3333333333333</ele><time>2026-04-26T07:48:36.969Z</time></trkpt><trkpt lat="42.9605274" lon="13.082776"><ele>762.0</ele><time>2026-04-26T07:48:37.955Z</time></trkpt><trkpt lat="42.9603164" lon="13.0827708"><ele>762.0</ele><time>2026-04-26T07:48:38.958Z</time></trkpt><trkpt lat="42.9600845" lon="13.0828613"><ele>762.0</ele><time>2026-04-26T07:48:39.958Z</time></trkpt><trkpt lat="42.9598529" lon="13.0829096"><ele>759.0</ele><time>2026-04-26T07:48:40.959Z</time></trkpt><trkpt lat="42.9596295" lon="13.0829061"><ele>756.0</ele><time>2026-04-26T07:48:41.974Z</time></trkpt><trkpt lat="42.9594349" lon="13.0828694"><ele>753.0</ele><time>2026-04-26T07:48:42.951Z</time></trkpt><trkpt lat="42.9592616" lon="13.0828336"><ele>751.0</ele><time>2026-04-26T07:48:43.956Z</time></trkpt><trkpt lat="42.9590985" lon="13.0828448"><ele>749.0</ele><time>2026-04-26T07:48:44.955Z</time></trkpt><trkpt lat="42.9589357" lon="13.0829236"><ele>747.0</ele><time>2026-04-26T07:48:45.959Z</time></trkpt><trkpt lat="42.9587984" lon="13.0830679"><ele>752.6666666666666</ele><time>2026-04-26T07:48:46.957Z</time></trkpt><trkpt lat="42.9587035" lon="13.0832793"><ele>758.3333333333333</ele><time>2026-04-26T07:48:47.958Z</time></trkpt><trkpt lat="42.9586307" lon="13.0835013"><ele>764.0</ele><time>2026-04-26T07:48:48.959Z</time></trkpt><trkpt lat="42.958531" lon="13.0836872"><ele>764.0</ele><time>2026-04-26T07:48:49.959Z</time></trkpt><trkpt lat="42.9584161" lon="13.0838721"><ele>764.0</ele><time>2026-04-26T07:48:50.958Z</time></trkpt><trkpt lat="42.9582295" lon="13.0839835"><ele>764.0</ele><time>2026-04-26T07:48:51.951Z</time></trkpt><trkpt lat="42.9580501" lon="13.0840715"><ele>761.0</ele><time>2026-04-26T07:48:52.959Z</time></trkpt><trkpt lat="42.957905" lon="13.0840906"><ele>758.0</ele><time>2026-04-26T07:48:53.956Z</time></trkpt><trkpt lat="42.9577819" lon="13.0840707"><ele>755.0</ele><time>2026-04-26T07:48:54.954Z</time></trkpt><trkpt lat="42.9576937" lon="13.084039"><ele>752.0</ele><time>2026-04-26T07:48:55.958Z</time></trkpt><trkpt lat="42.9576315" lon="13.083977"><ele>749.0</ele><time>2026-04-26T07:48:57.953Z</time></trkpt><trkpt lat="42.9575493" lon="13.0838713"><ele>746.75</ele><time>2026-04-26T07:49:39.97Z</time></trkpt><trkpt lat="42.9574741" lon="13.0838243"><ele>744.5</ele><time>2026-04-26T07:49:40.969Z</time></trkpt><trkpt lat="42.9573639" lon="13.0837438"><ele>742.25</ele><time>2026-04-26T07:49:41.959Z</time></trkpt><trkpt lat="42.9572422" lon="13.0836111"><ele>740.0</ele><time>2026-04-26T07:49:42.958Z</time></trkpt><trkpt lat="42.9571172" lon="13.0834343"><ele>735.0</ele><time>2026-04-26T07:49:43.958Z</time></trkpt><trkpt lat="42.9570035" lon="13.0832482"><ele>730.0</ele><time>2026-04-26T07:49:44.957Z</time></trkpt><trkpt lat="42.9569014" lon="13.0830728"><ele>725.0</ele><time>2026-04-26T07:49:45.955Z</time></trkpt><trkpt lat="42.9567953" lon="13.082935"><ele>723.0</ele><time>2026-04-26T07:49:46.963Z</time></trkpt><trkpt lat="42.9566703" lon="13.0828523"><ele>721.0</ele><time>2026-04-26T07:49:47.959Z</time></trkpt><trkpt lat="42.9565208" lon="13.0828391"><ele>719.0</ele><time>2026-04-26T07:49:48.956Z</time></trkpt><trkpt lat="42.9563701" lon="13.0828586"><ele>717.0</ele><time>2026-04-26T07:49:49.96Z</time></trkpt><trkpt lat="42.9562145" lon="13.0829911"><ele>717.0</ele><time>2026-04-26T07:49:50.953Z</time></trkpt><trkpt lat="42.9560816" lon="13.0831969"><ele>717.0</ele><time>2026-04-26T07:49:51.961Z</time></trkpt><trkpt lat="42.9559626" lon="13.0834169"><ele>717.0</ele><time>2026-04-26T07:49:52.969Z</time></trkpt><trkpt lat="42.9559069" lon="13.0836237"><ele>725.3333333333334</ele><time>2026-04-26T07:49:53.959Z</time></trkpt><trkpt lat="42.9558877" lon="13.0838215"><ele>733.6666666666667</ele><time>2026-04-26T07:49:54.958Z</time></trkpt><trkpt lat="42.9558922" lon="13.08403"><ele>742.0</ele><time>2026-04-26T07:49:55.952Z</time></trkpt><trkpt lat="42.9559799" lon="13.0842387"><ele>744.25</ele><time>2026-04-26T07:49:56.959Z</time></trkpt><trkpt lat="42.9560746" lon="13.0844135"><ele>746.5</ele><time>2026-04-26T07:49:57.961Z</time></trkpt><trkpt lat="42.9561858" lon="13.0845165"><ele>748.75</ele><time>2026-04-26T07:49:58.953Z</time></trkpt><trkpt lat="42.9562637" lon="13.0846157"><ele>751.0</ele><time>2026-04-26T07:49:59.956Z</time></trkpt><trkpt lat="42.9562967" lon="13.0847318"><ele>751.0</ele><time>2026-04-26T07:50:00.953Z</time></trkpt><trkpt lat="42.9562775" lon="13.0848557"><ele>751.0</ele><time>2026-04-26T07:50:01.953Z</time></trkpt><trkpt lat="42.956202" lon="13.0849494"><ele>751.0</ele><time>2026-04-26T07:50:02.953Z</time></trkpt><trkpt lat="42.9560702" lon="13.0850167"><ele>751.0</ele><time>2026-04-26T07:50:03.957Z</time></trkpt><trkpt lat="42.9559034" lon="13.0850757"><ele>744.5</ele><time>2026-04-26T07:50:04.953Z</time></trkpt><trkpt lat="42.9557405" lon="13.0851322"><ele>738.0</ele><time>2026-04-26T07:50:05.954Z</time></trkpt><trkpt lat="42.9556025" lon="13.0851407"><ele>731.5</ele><time>2026-04-26T07:50:06.955Z</time></trkpt><trkpt lat="42.955472" lon="13.0850787"><ele>725.0</ele><time>2026-04-26T07:50:07.959Z</time></trkpt><trkpt lat="42.9553418" lon="13.0849444"><ele>723.6666666666666</ele><time>2026-04-26T07:50:08.954Z</time></trkpt><trkpt lat="42.9552123" lon="13.0847531"><ele>722.3333333333334</ele><time>2026-04-26T07:50:09.96Z</time></trkpt><trkpt lat="42.9550713" lon="13.0845397"><ele>721.0</ele><time>2026-04-26T07:50:10.955Z</time></trkpt><trkpt lat="42.9549442" lon="13.0843228"><ele>713.6666666666667</ele><time>2026-04-26T07:50:11.957Z</time></trkpt><trkpt lat="42.954846" lon="13.0840891"><ele>706.3333333333334</ele><time>2026-04-26T07:50:12.951Z</time></trkpt><trkpt lat="42.9547599" lon="13.0838683"><ele>699.0</ele><time>2026-04-26T07:50:13.956Z</time></trkpt><trkpt lat="42.9547128" lon="13.0836608"><ele>699.0</ele><time>2026-04-26T07:50:14.953Z</time></trkpt><trkpt lat="42.9546295" lon="13.083484"><ele>699.0</ele><time>2026-04-26T07:50:15.959Z</time></trkpt><trkpt lat="42.9545021" lon="13.0833768"><ele>699.0</ele><time>2026-04-26T07:50:16.956Z</time></trkpt><trkpt lat="42.954353" lon="13.0833324"><ele>699.0</ele><time>2026-04-26T07:50:17.963Z</time></trkpt><trkpt lat="42.9541763" lon="13.0833428"><ele>699.0</ele><time>2026-04-26T07:50:18.957Z</time></trkpt><trkpt lat="42.9539855" lon="13.0833782"><ele>699.0</ele><time>2026-04-26T07:50:19.958Z</time></trkpt><trkpt lat="42.9537818" lon="13.0833962"><ele>699.0</ele><time>2026-04-26T07:50:20.956Z</time></trkpt><trkpt lat="42.953579" lon="13.0833664"><ele>699.0</ele><time>2026-04-26T07:50:21.961Z</time></trkpt><trkpt lat="42.9533775" lon="13.0833307"><ele>699.0</ele><time>2026-04-26T07:50:22.962Z</time></trkpt><trkpt lat="42.9531921" lon="13.0832042"><ele>695.0</ele><time>2026-04-26T07:50:23.959Z</time></trkpt><trkpt lat="42.9530153" lon="13.0831161"><ele>691.0</ele><time>2026-04-26T07:50:24.954Z</time></trkpt><trkpt lat="42.952823" lon="13.0830695"><ele>687.0</ele><time>2026-04-26T07:50:25.958Z</time></trkpt><trkpt lat="42.9526164" lon="13.0830931"><ele>684.6666666666666</ele><time>2026-04-26T07:50:26.95Z</time></trkpt><trkpt lat="42.9524112" lon="13.0831131"><ele>682.3333333333333</ele><time>2026-04-26T07:50:27.959Z</time></trkpt><trkpt lat="42.9522075" lon="13.083172"><ele>680.0</ele><time>2026-04-26T07:50:28.959Z</time></trkpt><trkpt lat="42.9520075" lon="13.0832217"><ele>682.0</ele><time>2026-04-26T07:50:29.956Z</time></trkpt><trkpt lat="42.951799" lon="13.0832713"><ele>684.0</ele><time>2026-04-26T07:50:30.959Z</time></trkpt><trkpt lat="42.9515931" lon="13.0833329"><ele>686.0</ele><time>2026-04-26T07:50:31.957Z</time></trkpt><trkpt lat="42.951385" lon="13.0833351"><ele>686.0</ele><time>2026-04-26T07:50:32.956Z</time></trkpt><trkpt lat="42.9511815" lon="13.083321"><ele>686.0</ele><time>2026-04-26T07:50:33.95Z</time></trkpt><trkpt lat="42.9509867" lon="13.0832746"><ele>686.0</ele><time>2026-04-26T07:50:34.957Z</time></trkpt><trkpt lat="42.9507932" lon="13.0832669"><ele>684.3333333333333</ele><time>2026-04-26T07:50:35.956Z</time></trkpt><trkpt lat="42.950594" lon="13.0833074"><ele>682.6666666666666</ele><time>2026-04-26T07:50:36.958Z</time></trkpt><trkpt lat="42.9503921" lon="13.083361"><ele>681.0</ele><time>2026-04-26T07:50:37.954Z</time></trkpt><trkpt lat="42.9501963" lon="13.0834034"><ele>677.6666666666666</ele><time>2026-04-26T07:50:38.959Z</time></trkpt><trkpt lat="42.9500107" lon="13.0834091"><ele>674.3333333333333</ele><time>2026-04-26T07:50:39.958Z</time></trkpt><trkpt lat="42.9498153" lon="13.0834375"><ele>671.0</ele><time>2026-04-26T07:50:40.958Z</time></trkpt><trkpt lat="42.9496092" lon="13.0834965"><ele>671.0</ele><time>2026-04-26T07:50:41.957Z</time></trkpt><trkpt lat="42.9494254" lon="13.083626"><ele>671.0</ele><time>2026-04-26T07:50:42.956Z</time></trkpt><trkpt lat="42.9492482" lon="13.0837653"><ele>671.0</ele><time>2026-04-26T07:50:43.956Z</time></trkpt><trkpt lat="42.9490708" lon="13.0838747"><ele>668.6666666666666</ele><time>2026-04-26T07:50:44.954Z</time></trkpt><trkpt lat="42.9488749" lon="13.0839794"><ele>666.3333333333334</ele><time>2026-04-26T07:50:45.954Z</time></trkpt><trkpt lat="42.9486668" lon="13.0840277"><ele>664.0</ele><time>2026-04-26T07:50:46.961Z</time></trkpt><trkpt lat="42.9484553" lon="13.0840671"><ele>661.0</ele><time>2026-04-26T07:50:47.953Z</time></trkpt><trkpt lat="42.9482428" lon="13.0840805"><ele>658.0</ele><time>2026-04-26T07:50:48.959Z</time></trkpt><trkpt lat="42.9480365" lon="13.084052"><ele>655.0</ele><time>2026-04-26T07:50:49.957Z</time></trkpt><trkpt lat="42.9478322" lon="13.0839901"><ele>655.0</ele><time>2026-04-26T07:50:50.962Z</time></trkpt><trkpt lat="42.9476395" lon="13.0838925"><ele>655.0</ele><time>2026-04-26T07:50:51.971Z</time></trkpt><trkpt lat="42.9474596" lon="13.0837776"><ele>655.0</ele><time>2026-04-26T07:50:52.962Z</time></trkpt><trkpt lat="42.9472832" lon="13.083666"><ele>654.3333333333334</ele><time>2026-04-26T07:50:53.964Z</time></trkpt><trkpt lat="42.9471108" lon="13.083565"><ele>653.6666666666666</ele><time>2026-04-26T07:50:54.965Z</time></trkpt><trkpt lat="42.9469398" lon="13.0834669"><ele>653.0</ele><time>2026-04-26T07:50:55.964Z</time></trkpt><trkpt lat="42.9467701" lon="13.0833797"><ele>652.0</ele><time>2026-04-26T07:50:56.958Z</time></trkpt><trkpt lat="42.9466023" lon="13.0833107"><ele>651.0</ele><time>2026-04-26T07:50:57.964Z</time></trkpt><trkpt lat="42.9464339" lon="13.0832672"><ele>650.0</ele><time>2026-04-26T07:50:58.966Z</time></trkpt><trkpt lat="42.9462642" lon="13.0832522"><ele>650.0</ele><time>2026-04-26T07:50:59.97Z</time></trkpt><trkpt lat="42.9460942" lon="13.0832602"><ele>650.0</ele><time>2026-04-26T07:51:00.963Z</time></trkpt><trkpt lat="42.9459304" lon="13.0832738"><ele>650.0</ele><time>2026-04-26T07:51:01.957Z</time></trkpt><trkpt lat="42.9457731" lon="13.0832868"><ele>649.25</ele><time>2026-04-26T07:51:02.961Z</time></trkpt><trkpt lat="42.9456252" lon="13.0832999"><ele>648.5</ele><time>2026-04-26T07:51:03.964Z</time></trkpt><trkpt lat="42.9454842" lon="13.0833127"><ele>647.75</ele><time>2026-04-26T07:51:04.958Z</time></trkpt><trkpt lat="42.9453442" lon="13.0833274"><ele>647.0</ele><time>2026-04-26T07:51:05.958Z</time></trkpt><trkpt lat="42.9451996" lon="13.0833425"><ele>647.0</ele><time>2026-04-26T07:51:06.957Z</time></trkpt><trkpt lat="42.9450528" lon="13.0833556"><ele>647.0</ele><time>2026-04-26T07:51:07.955Z</time></trkpt><trkpt lat="42.9449057" lon="13.0833697"><ele>647.0</ele><time>2026-04-26T07:51:08.961Z</time></trkpt><trkpt lat="42.9447589" lon="13.0833896"><ele>647.0</ele><time>2026-04-26T07:51:09.951Z</time></trkpt><trkpt lat="42.944619" lon="13.0834077"><ele>646.25</ele><time>2026-04-26T07:51:10.96Z</time></trkpt><trkpt lat="42.9444869" lon="13.0834235"><ele>645.5</ele><time>2026-04-26T07:51:11.975Z</time></trkpt><trkpt lat="42.9443624" lon="13.0834353"><ele>644.75</ele><time>2026-04-26T07:51:12.955Z</time></trkpt><trkpt lat="42.944244" lon="13.0834436"><ele>644.0</ele><time>2026-04-26T07:51:13.954Z</time></trkpt><trkpt lat="42.9441313" lon="13.0834542"><ele>643.0</ele><time>2026-04-26T07:51:14.962Z</time></trkpt><trkpt lat="42.9440213" lon="13.0834652"><ele>642.0</ele><time>2026-04-26T07:51:15.983Z</time></trkpt><trkpt lat="42.94391" lon="13.0834739"><ele>641.0</ele><time>2026-04-26T07:51:16.962Z</time></trkpt><trkpt lat="42.9437959" lon="13.0834785"><ele>640.0</ele><time>2026-04-26T07:51:17.956Z</time></trkpt><trkpt lat="42.9436752" lon="13.0834812"><ele>640.0</ele><time>2026-04-26T07:51:18.967Z</time></trkpt><trkpt lat="42.9435465" lon="13.0834913"><ele>640.0</ele><time>2026-04-26T07:51:19.958Z</time></trkpt><trkpt lat="42.9434143" lon="13.0834957"><ele>640.0</ele><time>2026-04-26T07:51:20.955Z</time></trkpt><trkpt lat="42.943279" lon="13.0835002"><ele>640.0</ele><time>2026-04-26T07:51:21.993Z</time></trkpt><trkpt lat="42.9431287" lon="13.0834877"><ele>639.25</ele><time>2026-04-26T07:51:23.04Z</time></trkpt><trkpt lat="42.9429786" lon="13.0834727"><ele>638.5</ele><time>2026-04-26T07:51:23.973Z</time></trkpt><trkpt lat="42.9428463" lon="13.083484"><ele>637.75</ele><time>2026-04-26T07:51:24.965Z</time></trkpt><trkpt lat="42.9426939" lon="13.0835"><ele>637.0</ele><time>2026-04-26T07:51:25.971Z</time></trkpt><trkpt lat="42.9425515" lon="13.0834753"><ele>637.0</ele><time>2026-04-26T07:51:26.979Z</time></trkpt><trkpt lat="42.9424206" lon="13.0834619"><ele>637.0</ele><time>2026-04-26T07:51:27.968Z</time></trkpt><trkpt lat="42.9422886" lon="13.0834497"><ele>637.0</ele><time>2026-04-26T07:51:28.956Z</time></trkpt><trkpt lat="42.9421511" lon="13.0834316"><ele>637.0</ele><time>2026-04-26T07:51:29.972Z</time></trkpt><trkpt lat="42.9420074" lon="13.0834116"><ele>637.0</ele><time>2026-04-26T07:51:30.966Z</time></trkpt><trkpt lat="42.9418613" lon="13.0833863"><ele>637.0</ele><time>2026-04-26T07:51:31.965Z</time></trkpt><trkpt lat="42.9417158" lon="13.0833613"><ele>637.0</ele><time>2026-04-26T07:51:32.962Z</time></trkpt><trkpt lat="42.9415751" lon="13.0833333"><ele>637.0</ele><time>2026-04-26T07:51:33.968Z</time></trkpt><trkpt lat="42.9414347" lon="13.0833029"><ele>636.75</ele><time>2026-04-26T07:51:34.974Z</time></trkpt><trkpt lat="42.9412979" lon="13.0832702"><ele>636.5</ele><time>2026-04-26T07:51:35.971Z</time></trkpt><trkpt lat="42.9411637" lon="13.0832355"><ele>636.25</ele><time>2026-04-26T07:51:36.958Z</time></trkpt><trkpt lat="42.9410298" lon="13.0831951"><ele>636.0</ele><time>2026-04-26T07:51:37.97Z</time></trkpt><trkpt lat="42.9408934" lon="13.083153"><ele>635.75</ele><time>2026-04-26T07:51:38.963Z</time></trkpt><trkpt lat="42.9407565" lon="13.0831104"><ele>635.5</ele><time>2026-04-26T07:51:39.959Z</time></trkpt><trkpt lat="42.9406172" lon="13.0830671"><ele>635.25</ele><time>2026-04-26T07:51:40.956Z</time></trkpt><trkpt lat="42.940477" lon="13.0830195"><ele>635.0</ele><time>2026-04-26T07:51:41.963Z</time></trkpt><trkpt lat="42.9403333" lon="13.0829703"><ele>635.0</ele><time>2026-04-26T07:51:42.959Z</time></trkpt><trkpt lat="42.9401891" lon="13.08292"><ele>635.0</ele><time>2026-04-26T07:51:43.957Z</time></trkpt><trkpt lat="42.9400391" lon="13.0828532"><ele>635.0</ele><time>2026-04-26T07:51:44.963Z</time></trkpt><trkpt lat="42.9398842" lon="13.0827785"><ele>634.3333333333333</ele><time>2026-04-26T07:51:45.961Z</time></trkpt><trkpt lat="42.9397219" lon="13.0826983"><ele>633.6666666666666</ele><time>2026-04-26T07:51:46.965Z</time></trkpt><trkpt lat="42.9395573" lon="13.0826269"><ele>633.0</ele><time>2026-04-26T07:51:47.962Z</time></trkpt><trkpt lat="42.9393979" lon="13.0825557"><ele>633.0</ele><time>2026-04-26T07:51:48.956Z</time></trkpt><trkpt lat="42.9392369" lon="13.0824923"><ele>633.0</ele><time>2026-04-26T07:51:49.961Z</time></trkpt><trkpt lat="42.9390766" lon="13.0824412"><ele>633.0</ele><time>2026-04-26T07:51:50.965Z</time></trkpt><trkpt lat="42.9389207" lon="13.0823963"><ele>636.6666666666666</ele><time>2026-04-26T07:51:51.968Z</time></trkpt><trkpt lat="42.9387682" lon="13.0823551"><ele>640.3333333333333</ele><time>2026-04-26T07:51:52.962Z</time></trkpt><trkpt lat="42.9386144" lon="13.0823192"><ele>644.0</ele><time>2026-04-26T07:51:53.961Z</time></trkpt><trkpt lat="42.9384617" lon="13.0822861"><ele>641.0</ele><time>2026-04-26T07:51:54.967Z</time></trkpt><trkpt lat="42.9383083" lon="13.0822561"><ele>638.0</ele><time>2026-04-26T07:51:55.96Z</time></trkpt><trkpt lat="42.938157" lon="13.0822362"><ele>635.0</ele><time>2026-04-26T07:51:56.958Z</time></trkpt><trkpt lat="42.9380076" lon="13.0821979"><ele>635.0</ele><time>2026-04-26T07:51:57.959Z</time></trkpt><trkpt lat="42.9378679" lon="13.0821703"><ele>635.0</ele><time>2026-04-26T07:51:58.965Z</time></trkpt><trkpt lat="42.9377346" lon="13.0821353"><ele>635.0</ele><time>2026-04-26T07:51:59.963Z</time></trkpt><trkpt lat="42.9376077" lon="13.0821084"><ele>635.0</ele><time>2026-04-26T07:52:00.964Z</time></trkpt><trkpt lat="42.9374893" lon="13.082085"><ele>633.2</ele><time>2026-04-26T07:52:01.959Z</time></trkpt><trkpt lat="42.9373788" lon="13.0820629"><ele>631.4</ele><time>2026-04-26T07:52:02.957Z</time></trkpt><trkpt lat="42.9372714" lon="13.0820484"><ele>629.6</ele><time>2026-04-26T07:52:03.958Z</time></trkpt><trkpt lat="42.9371665" lon="13.0820386"><ele>627.8</ele><time>2026-04-26T07:52:04.968Z</time></trkpt><trkpt lat="42.9370641" lon="13.0820328"><ele>626.0</ele><time>2026-04-26T07:52:05.965Z</time></trkpt><trkpt lat="42.9369579" lon="13.0820323"><ele>626.0</ele><time>2026-04-26T07:52:06.95Z</time></trkpt><trkpt lat="42.9368414" lon="13.082033"><ele>626.0</ele><time>2026-04-26T07:52:07.955Z</time></trkpt><trkpt lat="42.9367192" lon="13.0820345"><ele>626.0</ele><time>2026-04-26T07:52:08.95Z</time></trkpt><trkpt lat="42.9365941" lon="13.082035"><ele>626.0</ele><time>2026-04-26T07:52:09.955Z</time></trkpt><trkpt lat="42.9364763" lon="13.082034"><ele>624.2</ele><time>2026-04-26T07:52:10.955Z</time></trkpt><trkpt lat="42.936365" lon="13.0820331"><ele>622.4000000000001</ele><time>2026-04-26T07:52:11.951Z</time></trkpt><trkpt lat="42.9362596" lon="13.0820335"><ele>620.6</ele><time>2026-04-26T07:52:12.961Z</time></trkpt><trkpt lat="42.9361622" lon="13.0820335"><ele>618.8000000000001</ele><time>2026-04-26T07:52:13.948Z</time></trkpt><trkpt lat="42.9360706" lon="13.0820338"><ele>617.0</ele><time>2026-04-26T07:52:14.952Z</time></trkpt><trkpt lat="42.93598" lon="13.0820335"><ele>617.0</ele><time>2026-04-26T07:52:15.957Z</time></trkpt><trkpt lat="42.9358898" lon="13.0820366"><ele>617.0</ele><time>2026-04-26T07:52:16.958Z</time></trkpt><trkpt lat="42.9357972" lon="13.0820391"><ele>617.0</ele><time>2026-04-26T07:52:17.955Z</time></trkpt><trkpt lat="42.9357129" lon="13.0820411"><ele>617.0</ele><time>2026-04-26T07:52:18.952Z</time></trkpt><trkpt lat="42.9356333" lon="13.0820418"><ele>617.0</ele><time>2026-04-26T07:52:19.956Z</time></trkpt><trkpt lat="42.9355479" lon="13.0820415"><ele>617.0</ele><time>2026-04-26T07:52:20.956Z</time></trkpt><trkpt lat="42.9354527" lon="13.0820421"><ele>616.25</ele><time>2026-04-26T07:52:21.956Z</time></trkpt><trkpt lat="42.9353472" lon="13.0820391"><ele>615.5</ele><time>2026-04-26T07:52:22.954Z</time></trkpt><trkpt lat="42.9352312" lon="13.0820337"><ele>614.75</ele><time>2026-04-26T07:52:23.955Z</time></trkpt><trkpt lat="42.9351019" lon="13.0820314"><ele>614.0</ele><time>2026-04-26T07:52:24.954Z</time></trkpt><trkpt lat="42.9349604" lon="13.0820284"><ele>613.25</ele><time>2026-04-26T07:52:25.953Z</time></trkpt><trkpt lat="42.9348146" lon="13.082022"><ele>612.5</ele><time>2026-04-26T07:52:26.954Z</time></trkpt><trkpt lat="42.9346765" lon="13.0820091"><ele>611.75</ele><time>2026-04-26T07:52:27.951Z</time></trkpt><trkpt lat="42.9345451" lon="13.0820002"><ele>611.0</ele><time>2026-04-26T07:52:28.953Z</time></trkpt><trkpt lat="42.9344095" lon="13.0819954"><ele>611.0</ele><time>2026-04-26T07:52:29.95Z</time></trkpt><trkpt lat="42.9342718" lon="13.08199"><ele>611.0</ele><time>2026-04-26T07:52:30.954Z</time></trkpt><trkpt lat="42.9341356" lon="13.0819972"><ele>611.0</ele><time>2026-04-26T07:52:31.954Z</time></trkpt><trkpt lat="42.934001" lon="13.082029"><ele>611.0</ele><time>2026-04-26T07:52:32.953Z</time></trkpt><trkpt lat="42.9338693" lon="13.082085"><ele>611.0</ele><time>2026-04-26T07:52:33.952Z</time></trkpt><trkpt lat="42.933747" lon="13.0821613"><ele>611.0</ele><time>2026-04-26T07:52:34.954Z</time></trkpt><trkpt lat="42.9336372" lon="13.0822664"><ele>611.0</ele><time>2026-04-26T07:52:35.952Z</time></trkpt><trkpt lat="42.9335434" lon="13.0823929"><ele>611.0</ele><time>2026-04-26T07:52:36.948Z</time></trkpt><trkpt lat="42.933466" lon="13.0825284"><ele>610.75</ele><time>2026-04-26T07:52:37.955Z</time></trkpt><trkpt lat="42.933389" lon="13.0826644"><ele>610.5</ele><time>2026-04-26T07:52:38.96Z</time></trkpt><trkpt lat="42.9333124" lon="13.0827893"><ele>610.25</ele><time>2026-04-26T07:52:39.951Z</time></trkpt><trkpt lat="42.9332395" lon="13.0829122"><ele>610.0</ele><time>2026-04-26T07:52:40.957Z</time></trkpt><trkpt lat="42.9331691" lon="13.0830369"><ele>610.0</ele><time>2026-04-26T07:52:41.958Z</time></trkpt><trkpt lat="42.9330978" lon="13.0831625"><ele>610.0</ele><time>2026-04-26T07:52:42.953Z</time></trkpt><trkpt lat="42.9330291" lon="13.0832883"><ele>610.0</ele><time>2026-04-26T07:52:43.953Z</time></trkpt><trkpt lat="42.9329635" lon="13.083408"><ele>610.0</ele><time>2026-04-26T07:52:44.95Z</time></trkpt><trkpt lat="42.9329007" lon="13.083536"><ele>609.6</ele><time>2026-04-26T07:52:45.956Z</time></trkpt><trkpt lat="42.9328378" lon="13.0836623"><ele>609.2</ele><time>2026-04-26T07:52:46.954Z</time></trkpt><trkpt lat="42.9327655" lon="13.0837864"><ele>608.8</ele><time>2026-04-26T07:52:47.955Z</time></trkpt><trkpt lat="42.9326912" lon="13.0839024"><ele>608.4</ele><time>2026-04-26T07:52:48.962Z</time></trkpt><trkpt lat="42.9326239" lon="13.0840149"><ele>608.0</ele><time>2026-04-26T07:52:49.952Z</time></trkpt><trkpt lat="42.932554" lon="13.084135"><ele>608.0</ele><time>2026-04-26T07:52:50.956Z</time></trkpt><trkpt lat="42.9324925" lon="13.0842443"><ele>608.0</ele><time>2026-04-26T07:52:51.958Z</time></trkpt><trkpt lat="42.9324332" lon="13.0843486"><ele>608.0</ele><time>2026-04-26T07:52:52.954Z</time></trkpt><trkpt lat="42.932388" lon="13.084436"><ele>608.0</ele><time>2026-04-26T07:52:53.951Z</time></trkpt><trkpt lat="42.9323189" lon="13.084549"><ele>608.0</ele><time>2026-04-26T07:52:55.952Z</time></trkpt><trkpt lat="42.9322366" lon="13.0845896"><ele>608.0</ele><time>2026-04-26T07:52:57.954Z</time></trkpt><trkpt lat="42.9321561" lon="13.0845513"><ele>608.0</ele><time>2026-04-26T07:52:59.953Z</time></trkpt><trkpt lat="42.932085" lon="13.0844973"><ele>608.0</ele><time>2026-04-26T07:53:01.954Z</time></trkpt><trkpt lat="42.9320084" lon="13.0844321"><ele>608.0</ele><time>2026-04-26T07:53:03.962Z</time></trkpt><trkpt lat="42.9319384" lon="13.084381"><ele>608.0</ele><time>2026-04-26T07:53:04.955Z</time></trkpt><trkpt lat="42.931859" lon="13.0843222"><ele>608.0</ele><time>2026-04-26T07:53:05.959Z</time></trkpt><trkpt lat="42.9317941" lon="13.0842664"><ele>608.0</ele><time>2026-04-26T07:53:06.961Z</time></trkpt><trkpt lat="42.9317368" lon="13.0842288"><ele>608.0</ele><time>2026-04-26T07:53:07.953Z</time></trkpt><trkpt lat="42.9316137" lon="13.0842603"><ele>608.0</ele><time>2026-04-26T07:53:09.955Z</time></trkpt><trkpt lat="42.9315634" lon="13.084325"><ele>608.0</ele><time>2026-04-26T07:53:10.958Z</time></trkpt><trkpt lat="42.9315157" lon="13.0844169"><ele>608.0</ele><time>2026-04-26T07:53:11.963Z</time></trkpt><trkpt lat="42.9314883" lon="13.0845426"><ele>608.0</ele><time>2026-04-26T07:53:12.955Z</time></trkpt><trkpt lat="42.9314524" lon="13.0846824"><ele>608.1999999999999</ele><time>2026-04-26T07:53:13.956Z</time></trkpt><trkpt lat="42.9314194" lon="13.0848312"><ele>608.4</ele><time>2026-04-26T07:53:14.959Z</time></trkpt><trkpt lat="42.9313883" lon="13.0849798"><ele>608.5999999999999</ele><time>2026-04-26T07:53:15.959Z</time></trkpt><trkpt lat="42.9313598" lon="13.0851144"><ele>608.8</ele><time>2026-04-26T07:53:16.954Z</time></trkpt><trkpt lat="42.931324" lon="13.0852357"><ele>609.0</ele><time>2026-04-26T07:53:17.959Z</time></trkpt><trkpt lat="42.9313045" lon="13.0853561"><ele>609.0</ele><time>2026-04-26T07:53:18.956Z</time></trkpt><trkpt lat="42.931275" lon="13.0854732"><ele>609.0</ele><time>2026-04-26T07:53:19.958Z</time></trkpt><trkpt lat="42.9312534" lon="13.0855664"><ele>609.0</ele><time>2026-04-26T07:53:20.956Z</time></trkpt><trkpt lat="42.9312297" lon="13.0856896"><ele>609.0</ele><time>2026-04-26T07:53:22.959Z</time></trkpt><trkpt lat="42.9311804" lon="13.0857442"><ele>609.0</ele><time>2026-04-26T07:53:24.962Z</time></trkpt><trkpt lat="42.9310812" lon="13.0857665"><ele>609.0</ele><time>2026-04-26T07:53:26.96Z</time></trkpt><trkpt lat="42.9310129" lon="13.0857611"><ele>609.2</ele><time>2026-04-26T07:53:27.955Z</time></trkpt><trkpt lat="42.9309251" lon="13.0857802"><ele>609.4</ele><time>2026-04-26T07:53:28.956Z</time></trkpt><trkpt lat="42.9308272" lon="13.0858267"><ele>609.6</ele><time>2026-04-26T07:53:29.951Z</time></trkpt><trkpt lat="42.9307433" lon="13.0858929"><ele>609.8</ele><time>2026-04-26T07:53:30.959Z</time></trkpt><trkpt lat="42.9306589" lon="13.0859619"><ele>610.0</ele><time>2026-04-26T07:53:31.958Z</time></trkpt><trkpt lat="42.930573" lon="13.0860322"><ele>610.8</ele><time>2026-04-26T07:53:32.955Z</time></trkpt><trkpt lat="42.9304909" lon="13.0861008"><ele>611.6</ele><time>2026-04-26T07:53:33.954Z</time></trkpt><trkpt lat="42.9304041" lon="13.0861735"><ele>612.4</ele><time>2026-04-26T07:53:34.953Z</time></trkpt><trkpt lat="42.9303169" lon="13.0862501"><ele>613.2</ele><time>2026-04-26T07:53:35.955Z</time></trkpt><trkpt lat="42.9302345" lon="13.0863235"><ele>614.0</ele><time>2026-04-26T07:53:36.953Z</time></trkpt><trkpt lat="42.9301531" lon="13.0863918"><ele>614.0</ele><time>2026-04-26T07:53:37.96Z</time></trkpt><trkpt lat="42.930075" lon="13.0864565"><ele>614.0</ele><time>2026-04-26T07:53:38.954Z</time></trkpt><trkpt lat="42.9299914" lon="13.0865253"><ele>614.0</ele><time>2026-04-26T07:53:39.955Z</time></trkpt><trkpt lat="42.9299087" lon="13.086593"><ele>614.0</ele><time>2026-04-26T07:53:40.952Z</time></trkpt><trkpt lat="42.9298339" lon="13.0866575"><ele>614.0</ele><time>2026-04-26T07:53:41.953Z</time></trkpt><trkpt lat="42.9297645" lon="13.0867231"><ele>614.1666666666666</ele><time>2026-04-26T07:53:42.952Z</time></trkpt><trkpt lat="42.9296981" lon="13.0867974"><ele>614.3333333333333</ele><time>2026-04-26T07:53:43.958Z</time></trkpt><trkpt lat="42.9296418" lon="13.08688"><ele>614.5</ele><time>2026-04-26T07:53:44.954Z</time></trkpt><trkpt lat="42.9295977" lon="13.0869656"><ele>614.6666666666666</ele><time>2026-04-26T07:53:45.958Z</time></trkpt><trkpt lat="42.9295614" lon="13.0870549"><ele>614.8333333333334</ele><time>2026-04-26T07:53:46.955Z</time></trkpt><trkpt lat="42.9295294" lon="13.0871481"><ele>615.0</ele><time>2026-04-26T07:53:47.954Z</time></trkpt><trkpt lat="42.9294991" lon="13.0872492"><ele>615.0</ele><time>2026-04-26T07:53:48.958Z</time></trkpt><trkpt lat="42.9294681" lon="13.0873546"><ele>615.0</ele><time>2026-04-26T07:53:49.951Z</time></trkpt><trkpt lat="42.929439" lon="13.0874603"><ele>615.0</ele><time>2026-04-26T07:53:50.948Z</time></trkpt><trkpt lat="42.9294125" lon="13.0875669"><ele>615.0</ele><time>2026-04-26T07:53:51.955Z</time></trkpt><trkpt lat="42.9293857" lon="13.0876745"><ele>615.0</ele><time>2026-04-26T07:53:52.958Z</time></trkpt><trkpt lat="42.929362" lon="13.0877811"><ele>615.0</ele><time>2026-04-26T07:53:53.957Z</time></trkpt><trkpt lat="42.9293403" lon="13.0878884"><ele>614.8</ele><time>2026-04-26T07:53:54.956Z</time></trkpt><trkpt lat="42.9293237" lon="13.0879966"><ele>614.6</ele><time>2026-04-26T07:53:55.951Z</time></trkpt><trkpt lat="42.9293117" lon="13.0881127"><ele>614.4</ele><time>2026-04-26T07:53:56.958Z</time></trkpt><trkpt lat="42.9293012" lon="13.0882501"><ele>614.2</ele><time>2026-04-26T07:53:57.954Z</time></trkpt><trkpt lat="42.9292896" lon="13.0883989"><ele>614.0</ele><time>2026-04-26T07:53:58.952Z</time></trkpt><trkpt lat="42.9292708" lon="13.0885561"><ele>614.0</ele><time>2026-04-26T07:53:59.957Z</time></trkpt><trkpt lat="42.9292408" lon="13.0887139"><ele>614.0</ele><time>2026-04-26T07:54:00.953Z</time></trkpt><trkpt lat="42.9291947" lon="13.0888832"><ele>614.0</ele><time>2026-04-26T07:54:01.954Z</time></trkpt><trkpt lat="42.929146" lon="13.089061"><ele>614.0</ele><time>2026-04-26T07:54:02.957Z</time></trkpt><trkpt lat="42.9290862" lon="13.0892664"><ele>615.0</ele><time>2026-04-26T07:54:03.954Z</time></trkpt><trkpt lat="42.9290304" lon="13.0894986"><ele>616.0</ele><time>2026-04-26T07:54:04.96Z</time></trkpt><trkpt lat="42.9289761" lon="13.0897265"><ele>617.0</ele><time>2026-04-26T07:54:05.963Z</time></trkpt><trkpt lat="42.9289316" lon="13.089933"><ele>617.0</ele><time>2026-04-26T07:54:06.954Z</time></trkpt><trkpt lat="42.9288894" lon="13.0901222"><ele>617.0</ele><time>2026-04-26T07:54:07.961Z</time></trkpt><trkpt lat="42.9288171" lon="13.0902991"><ele>617.0</ele><time>2026-04-26T07:54:08.963Z</time></trkpt><trkpt lat="42.9287102" lon="13.0904429"><ele>617.0</ele><time>2026-04-26T07:54:09.961Z</time></trkpt><trkpt lat="42.9285844" lon="13.0905943"><ele>617.0</ele><time>2026-04-26T07:54:10.953Z</time></trkpt><trkpt lat="42.9284814" lon="13.0907498"><ele>617.0</ele><time>2026-04-26T07:54:11.951Z</time></trkpt><trkpt lat="42.9284017" lon="13.0909167"><ele>617.0</ele><time>2026-04-26T07:54:12.963Z</time></trkpt><trkpt lat="42.928348" lon="13.0910836"><ele>617.0</ele><time>2026-04-26T07:54:13.95Z</time></trkpt><trkpt lat="42.9283114" lon="13.0912451"><ele>617.5</ele><time>2026-04-26T07:54:14.955Z</time></trkpt><trkpt lat="42.9282754" lon="13.0914034"><ele>618.0</ele><time>2026-04-26T07:54:15.957Z</time></trkpt><trkpt lat="42.9282067" lon="13.0915186"><ele>618.5</ele><time>2026-04-26T07:54:16.955Z</time></trkpt><trkpt lat="42.9280997" lon="13.0915994"><ele>619.0</ele><time>2026-04-26T07:54:17.959Z</time></trkpt><trkpt lat="42.928005" lon="13.09169"><ele>619.0</ele><time>2026-04-26T07:54:18.952Z</time></trkpt><trkpt lat="42.927888" lon="13.0917852"><ele>619.0</ele><time>2026-04-26T07:54:19.954Z</time></trkpt><trkpt lat="42.9277727" lon="13.0918861"><ele>619.0</ele><time>2026-04-26T07:54:20.954Z</time></trkpt><trkpt lat="42.9276627" lon="13.0919968"><ele>619.0</ele><time>2026-04-26T07:54:21.961Z</time></trkpt><trkpt lat="42.9275655" lon="13.0921172"><ele>621.0</ele><time>2026-04-26T07:54:22.959Z</time></trkpt><trkpt lat="42.9274863" lon="13.0922362"><ele>623.0</ele><time>2026-04-26T07:54:23.956Z</time></trkpt><trkpt lat="42.9274232" lon="13.0923574"><ele>625.0</ele><time>2026-04-26T07:54:24.953Z</time></trkpt><trkpt lat="42.9273724" lon="13.0924869"><ele>627.0</ele><time>2026-04-26T07:54:25.95Z</time></trkpt><trkpt lat="42.927337" lon="13.0926131"><ele>629.0</ele><time>2026-04-26T07:54:26.952Z</time></trkpt><trkpt lat="42.927313" lon="13.0927317"><ele>629.0</ele><time>2026-04-26T07:54:27.949Z</time></trkpt><trkpt lat="42.9272963" lon="13.092842"><ele>629.0</ele><time>2026-04-26T07:54:28.955Z</time></trkpt><trkpt lat="42.9272807" lon="13.0929601"><ele>629.0</ele><time>2026-04-26T07:54:29.954Z</time></trkpt><trkpt lat="42.9272863" lon="13.0931054"><ele>629.0</ele><time>2026-04-26T07:54:30.955Z</time></trkpt><trkpt lat="42.9272991" lon="13.0932664"><ele>629.0</ele><time>2026-04-26T07:54:31.953Z</time></trkpt><trkpt lat="42.9273142" lon="13.0934403"><ele>629.75</ele><time>2026-04-26T07:54:32.968Z</time></trkpt><trkpt lat="42.9273213" lon="13.0936232"><ele>630.5</ele><time>2026-04-26T07:54:33.953Z</time></trkpt><trkpt lat="42.9273151" lon="13.0938075"><ele>631.25</ele><time>2026-04-26T07:54:34.955Z</time></trkpt><trkpt lat="42.9272736" lon="13.0939881"><ele>632.0</ele><time>2026-04-26T07:54:35.954Z</time></trkpt><trkpt lat="42.9272015" lon="13.0941488"><ele>635.5</ele><time>2026-04-26T07:54:36.954Z</time></trkpt><trkpt lat="42.9271192" lon="13.0942985"><ele>639.0</ele><time>2026-04-26T07:54:37.953Z</time></trkpt><trkpt lat="42.9270389" lon="13.0944434"><ele>642.5</ele><time>2026-04-26T07:54:38.95Z</time></trkpt><trkpt lat="42.9269532" lon="13.0946041"><ele>646.0</ele><time>2026-04-26T07:54:39.955Z</time></trkpt><trkpt lat="42.9268748" lon="13.0947683"><ele>644.0</ele><time>2026-04-26T07:54:40.958Z</time></trkpt><trkpt lat="42.9268097" lon="13.0949227"><ele>642.0</ele><time>2026-04-26T07:54:41.946Z</time></trkpt><trkpt lat="42.9267544" lon="13.0950648"><ele>640.0</ele><time>2026-04-26T07:54:42.954Z</time></trkpt><trkpt lat="42.9267017" lon="13.0952042"><ele>638.0</ele><time>2026-04-26T07:54:43.953Z</time></trkpt><trkpt lat="42.9266486" lon="13.0953442"><ele>638.0</ele><time>2026-04-26T07:54:44.955Z</time></trkpt><trkpt lat="42.9265961" lon="13.0954892"><ele>638.0</ele><time>2026-04-26T07:54:45.954Z</time></trkpt><trkpt lat="42.9265613" lon="13.095641"><ele>638.0</ele><time>2026-04-26T07:54:46.954Z</time></trkpt><trkpt lat="42.9265515" lon="13.095806"><ele>638.0</ele><time>2026-04-26T07:54:47.95Z</time></trkpt><trkpt lat="42.9265634" lon="13.0959761"><ele>640.0</ele><time>2026-04-26T07:54:48.956Z</time></trkpt><trkpt lat="42.9265839" lon="13.096136"><ele>642.0</ele><time>2026-04-26T07:54:49.954Z</time></trkpt><trkpt lat="42.9266031" lon="13.0962977"><ele>644.0</ele><time>2026-04-26T07:54:50.954Z</time></trkpt><trkpt lat="42.926624" lon="13.0964802"><ele>646.0</ele><time>2026-04-26T07:54:51.958Z</time></trkpt><trkpt lat="42.92664" lon="13.0966812"><ele>647.6666666666667</ele><time>2026-04-26T07:54:52.958Z</time></trkpt><trkpt lat="42.9266372" lon="13.0968951"><ele>649.3333333333334</ele><time>2026-04-26T07:54:53.955Z</time></trkpt><trkpt lat="42.9266072" lon="13.0971346"><ele>651.0</ele><time>2026-04-26T07:54:54.953Z</time></trkpt><trkpt lat="42.9265449" lon="13.0973959"><ele>651.6666666666666</ele><time>2026-04-26T07:54:55.954Z</time></trkpt><trkpt lat="42.9264706" lon="13.0976747"><ele>652.3333333333333</ele><time>2026-04-26T07:54:56.954Z</time></trkpt><trkpt lat="42.9263961" lon="13.097974"><ele>653.0</ele><time>2026-04-26T07:54:57.955Z</time></trkpt><trkpt lat="42.9263173" lon="13.0982557"><ele>655.3333333333333</ele><time>2026-04-26T07:54:58.951Z</time></trkpt><trkpt lat="42.9262289" lon="13.0985124"><ele>657.6666666666666</ele><time>2026-04-26T07:54:59.949Z</time></trkpt><trkpt lat="42.9261353" lon="13.098727"><ele>660.0</ele><time>2026-04-26T07:55:00.95Z</time></trkpt><trkpt lat="42.9260574" lon="13.098905"><ele>660.0</ele><time>2026-04-26T07:55:01.951Z</time></trkpt><trkpt lat="42.9259872" lon="13.0990328"><ele>660.0</ele><time>2026-04-26T07:55:02.954Z</time></trkpt><trkpt lat="42.9259309" lon="13.0991725"><ele>660.0</ele><time>2026-04-26T07:55:03.95Z</time></trkpt><trkpt lat="42.9259051" lon="13.0993362"><ele>660.0</ele><time>2026-04-26T07:55:04.955Z</time></trkpt><trkpt lat="42.9259216" lon="13.0995362"><ele>664.3333333333334</ele><time>2026-04-26T07:55:05.953Z</time></trkpt><trkpt lat="42.9259599" lon="13.0997646"><ele>668.6666666666667</ele><time>2026-04-26T07:55:06.95Z</time></trkpt><trkpt lat="42.9259973" lon="13.1000049"><ele>673.0</ele><time>2026-04-26T07:55:07.95Z</time></trkpt><trkpt lat="42.9260294" lon="13.1002645"><ele>674.6666666666667</ele><time>2026-04-26T07:55:08.954Z</time></trkpt><trkpt lat="42.9260182" lon="13.1005449"><ele>676.3333333333334</ele><time>2026-04-26T07:55:09.955Z</time></trkpt><trkpt lat="42.9259589" lon="13.1008236"><ele>678.0</ele><time>2026-04-26T07:55:10.948Z</time></trkpt><trkpt lat="42.9258737" lon="13.1011112"><ele>665.0</ele><time>2026-04-26T07:55:11.954Z</time></trkpt><trkpt lat="42.9257699" lon="13.1014108"><ele>652.0</ele><time>2026-04-26T07:55:12.956Z</time></trkpt><trkpt lat="42.925643" lon="13.1016973"><ele>652.0</ele><time>2026-04-26T07:55:13.951Z</time></trkpt><trkpt lat="42.9254853" lon="13.1019651"><ele>652.0</ele><time>2026-04-26T07:55:14.95Z</time></trkpt><trkpt lat="42.9253195" lon="13.1022354"><ele>649.5</ele><time>2026-04-26T07:55:15.954Z</time></trkpt><trkpt lat="42.9251551" lon="13.1025087"><ele>647.0</ele><time>2026-04-26T07:55:16.95Z</time></trkpt><trkpt lat="42.9250048" lon="13.1027434"><ele>647.0</ele><time>2026-04-26T07:55:17.968Z</time></trkpt><trkpt lat="42.9248662" lon="13.1029476"><ele>647.0</ele><time>2026-04-26T07:55:18.95Z</time></trkpt><trkpt lat="42.9247411" lon="13.1031335"><ele>647.0</ele><time>2026-04-26T07:55:19.949Z</time></trkpt><trkpt lat="42.9246242" lon="13.1033097"><ele>652.0</ele><time>2026-04-26T07:55:20.951Z</time></trkpt><trkpt lat="42.9245147" lon="13.1034914"><ele>657.0</ele><time>2026-04-26T07:55:21.952Z</time></trkpt><trkpt lat="42.9243992" lon="13.1036999"><ele>662.0</ele><time>2026-04-26T07:55:22.947Z</time></trkpt><trkpt lat="42.9242753" lon="13.1039286"><ele>657.3333333333333</ele><time>2026-04-26T07:55:23.953Z</time></trkpt><trkpt lat="42.9241523" lon="13.104176"><ele>652.6666666666666</ele><time>2026-04-26T07:55:24.947Z</time></trkpt><trkpt lat="42.9240316" lon="13.1044405"><ele>648.0</ele><time>2026-04-26T07:55:25.95Z</time></trkpt><trkpt lat="42.9239078" lon="13.1046951"><ele>650.3333333333334</ele><time>2026-04-26T07:55:26.95Z</time></trkpt><trkpt lat="42.9237643" lon="13.1049141"><ele>652.6666666666667</ele><time>2026-04-26T07:55:27.949Z</time></trkpt><trkpt lat="42.9235956" lon="13.105092"><ele>655.0</ele><time>2026-04-26T07:55:28.949Z</time></trkpt><trkpt lat="42.9234209" lon="13.1052411"><ele>656.0</ele><time>2026-04-26T07:55:29.953Z</time></trkpt><trkpt lat="42.9232546" lon="13.1053875"><ele>657.0</ele><time>2026-04-26T07:55:30.949Z</time></trkpt><trkpt lat="42.9230989" lon="13.1055553"><ele>658.0</ele><time>2026-04-26T07:55:31.951Z</time></trkpt><trkpt lat="42.9229606" lon="13.1057467"><ele>658.0</ele><time>2026-04-26T07:55:32.949Z</time></trkpt><trkpt lat="42.9228374" lon="13.1059531"><ele>658.0</ele><time>2026-04-26T07:55:33.95Z</time></trkpt><trkpt lat="42.9227233" lon="13.1061558"><ele>658.0</ele><time>2026-04-26T07:55:34.948Z</time></trkpt><trkpt lat="42.9226136" lon="13.1063495"><ele>655.3333333333334</ele><time>2026-04-26T07:55:35.95Z</time></trkpt><trkpt lat="42.9225091" lon="13.1065438"><ele>652.6666666666666</ele><time>2026-04-26T07:55:36.951Z</time></trkpt><trkpt lat="42.9224075" lon="13.1067433"><ele>650.0</ele><time>2026-04-26T07:55:37.946Z</time></trkpt><trkpt lat="42.9223093" lon="13.1069489"><ele>650.0</ele><time>2026-04-26T07:55:38.954Z</time></trkpt><trkpt lat="42.9222173" lon="13.1071663"><ele>650.0</ele><time>2026-04-26T07:55:39.952Z</time></trkpt><trkpt lat="42.9221291" lon="13.1073905"><ele>650.0</ele><time>2026-04-26T07:55:40.949Z</time></trkpt><trkpt lat="42.92204" lon="13.107619"><ele>657.6666666666666</ele><time>2026-04-26T07:55:41.949Z</time></trkpt><trkpt lat="42.9219472" lon="13.1078498"><ele>665.3333333333334</ele><time>2026-04-26T07:55:42.95Z</time></trkpt><trkpt lat="42.9218489" lon="13.1080815"><ele>673.0</ele><time>2026-04-26T07:55:43.951Z</time></trkpt><trkpt lat="42.9217353" lon="13.1083072"><ele>666.3333333333334</ele><time>2026-04-26T07:55:44.958Z</time></trkpt><trkpt lat="42.9216035" lon="13.1085233"><ele>659.6666666666666</ele><time>2026-04-26T07:55:45.95Z</time></trkpt><trkpt lat="42.9214611" lon="13.1087324"><ele>653.0</ele><time>2026-04-26T07:55:46.953Z</time></trkpt><trkpt lat="42.9213167" lon="13.1089415"><ele>659.6666666666666</ele><time>2026-04-26T07:55:47.954Z</time></trkpt><trkpt lat="42.9211776" lon="13.1091532"><ele>666.3333333333334</ele><time>2026-04-26T07:55:48.954Z</time></trkpt><trkpt lat="42.9210525" lon="13.1093632"><ele>673.0</ele><time>2026-04-26T07:55:49.951Z</time></trkpt><trkpt lat="42.9209454" lon="13.1095916"><ele>667.3333333333334</ele><time>2026-04-26T07:55:50.951Z</time></trkpt><trkpt lat="42.9208434" lon="13.1098279"><ele>661.6666666666666</ele><time>2026-04-26T07:55:51.955Z</time></trkpt><trkpt lat="42.9207778" lon="13.1101077"><ele>656.0</ele><time>2026-04-26T07:55:52.948Z</time></trkpt><trkpt lat="42.92071" lon="13.1103969"><ele>656.0</ele><time>2026-04-26T07:55:53.952Z</time></trkpt><trkpt lat="42.9206337" lon="13.1106948"><ele>656.0</ele><time>2026-04-26T07:55:54.949Z</time></trkpt><trkpt lat="42.9205575" lon="13.11099"><ele>664.5</ele><time>2026-04-26T07:55:55.957Z</time></trkpt><trkpt lat="42.9204952" lon="13.1112925"><ele>673.0</ele><time>2026-04-26T07:55:56.949Z</time></trkpt><trkpt lat="42.9204536" lon="13.1115993"><ele>676.5</ele><time>2026-04-26T07:55:57.949Z</time></trkpt><trkpt lat="42.9204393" lon="13.1119167"><ele>680.0</ele><time>2026-04-26T07:55:58.947Z</time></trkpt><trkpt lat="42.9204425" lon="13.1122376"><ele>681.0</ele><time>2026-04-26T07:55:59.949Z</time></trkpt><trkpt lat="42.920448" lon="13.1125618"><ele>682.0</ele><time>2026-04-26T07:56:00.944Z</time></trkpt><trkpt lat="42.9204391" lon="13.1128863"><ele>682.0</ele><time>2026-04-26T07:56:01.946Z</time></trkpt><trkpt lat="42.9204178" lon="13.1132104"><ele>682.0</ele><time>2026-04-26T07:56:02.948Z</time></trkpt><trkpt lat="42.9203884" lon="13.1135332"><ele>682.0</ele><time>2026-04-26T07:56:03.949Z</time></trkpt><trkpt lat="42.9203589" lon="13.1138574"><ele>682.0</ele><time>2026-04-26T07:56:04.948Z</time></trkpt><trkpt lat="42.9203287" lon="13.1141801"><ele>682.0</ele><time>2026-04-26T07:56:05.952Z</time></trkpt><trkpt lat="42.920287" lon="13.1144986"><ele>682.0</ele><time>2026-04-26T07:56:06.953Z</time></trkpt><trkpt lat="42.9202216" lon="13.114801"><ele>685.0</ele><time>2026-04-26T07:56:07.946Z</time></trkpt><trkpt lat="42.9201223" lon="13.1150797"><ele>688.0</ele><time>2026-04-26T07:56:08.945Z</time></trkpt><trkpt lat="42.9200087" lon="13.1153374"><ele>691.0</ele><time>2026-04-26T07:56:09.948Z</time></trkpt><trkpt lat="42.9199146" lon="13.1155908"><ele>683.0</ele><time>2026-04-26T07:56:10.949Z</time></trkpt><trkpt lat="42.9198475" lon="13.1158625"><ele>675.0</ele><time>2026-04-26T07:56:11.951Z</time></trkpt><trkpt lat="42.919809" lon="13.1161554"><ele>667.0</ele><time>2026-04-26T07:56:12.952Z</time></trkpt><trkpt lat="42.9198019" lon="13.1164637"><ele>668.5</ele><time>2026-04-26T07:56:13.948Z</time></trkpt><trkpt lat="42.919804" lon="13.1167806"><ele>670.0</ele><time>2026-04-26T07:56:14.948Z</time></trkpt><trkpt lat="42.9198012" lon="13.117091"><ele>671.5</ele><time>2026-04-26T07:56:15.945Z</time></trkpt><trkpt lat="42.9197412" lon="13.1174092"><ele>673.0</ele><time>2026-04-26T07:56:16.95Z</time></trkpt><trkpt lat="42.9196663" lon="13.1177261"><ele>673.0</ele><time>2026-04-26T07:56:17.951Z</time></trkpt><trkpt lat="42.9195809" lon="13.1180375"><ele>673.0</ele><time>2026-04-26T07:56:18.948Z</time></trkpt><trkpt lat="42.9194772" lon="13.1183391"><ele>668.0</ele><time>2026-04-26T07:56:19.95Z</time></trkpt><trkpt lat="42.9193443" lon="13.1186326"><ele>663.0</ele><time>2026-04-26T07:56:20.947Z</time></trkpt><trkpt lat="42.9192045" lon="13.1189216"><ele>665.5</ele><time>2026-04-26T07:56:21.95Z</time></trkpt><trkpt lat="42.9190711" lon="13.1192163"><ele>668.0</ele><time>2026-04-26T07:56:22.954Z</time></trkpt><trkpt lat="42.9189411" lon="13.1195177"><ele>668.0</ele><time>2026-04-26T07:56:23.951Z</time></trkpt><trkpt lat="42.9188374" lon="13.1198379"><ele>668.0</ele><time>2026-04-26T07:56:24.947Z</time></trkpt><trkpt lat="42.9187454" lon="13.1201573"><ele>672.5</ele><time>2026-04-26T07:56:25.953Z</time></trkpt><trkpt lat="42.9186558" lon="13.1204654"><ele>677.0</ele><time>2026-04-26T07:56:26.952Z</time></trkpt><trkpt lat="42.9185657" lon="13.1207472"><ele>673.3333333333333</ele><time>2026-04-26T07:56:27.946Z</time></trkpt><trkpt lat="42.9184723" lon="13.1210094"><ele>669.6666666666666</ele><time>2026-04-26T07:56:28.951Z</time></trkpt><trkpt lat="42.91836" lon="13.1212605"><ele>666.0</ele><time>2026-04-26T07:56:29.947Z</time></trkpt><trkpt lat="42.9182305" lon="13.1215056"><ele>667.6666666666666</ele><time>2026-04-26T07:56:30.946Z</time></trkpt><trkpt lat="42.9180945" lon="13.1217476"><ele>669.3333333333333</ele><time>2026-04-26T07:56:31.95Z</time></trkpt><trkpt lat="42.9179511" lon="13.1219683"><ele>671.0</ele><time>2026-04-26T07:56:32.946Z</time></trkpt><trkpt lat="42.9177848" lon="13.1221469"><ele>671.0</ele><time>2026-04-26T07:56:33.953Z</time></trkpt><trkpt lat="42.9175905" lon="13.1222699"><ele>671.0</ele><time>2026-04-26T07:56:34.952Z</time></trkpt><trkpt lat="42.917376" lon="13.1223374"><ele>671.0</ele><time>2026-04-26T07:56:35.953Z</time></trkpt><trkpt lat="42.917152" lon="13.1223784"><ele>671.0</ele><time>2026-04-26T07:56:36.951Z</time></trkpt><trkpt lat="42.916931" lon="13.1224145"><ele>671.0</ele><time>2026-04-26T07:56:37.948Z</time></trkpt><trkpt lat="42.9167203" lon="13.1224606"><ele>671.0</ele><time>2026-04-26T07:56:38.955Z</time></trkpt><trkpt lat="42.9165154" lon="13.1225438"><ele>670.5</ele><time>2026-04-26T07:56:39.952Z</time></trkpt><trkpt lat="42.916317" lon="13.1226778"><ele>670.0</ele><time>2026-04-26T07:56:40.947Z</time></trkpt><trkpt lat="42.9161266" lon="13.1228567"><ele>670.0</ele><time>2026-04-26T07:56:41.947Z</time></trkpt><trkpt lat="42.9159417" lon="13.1230631"><ele>670.0</ele><time>2026-04-26T07:56:42.955Z</time></trkpt><trkpt lat="42.9157587" lon="13.1232849"><ele>672.5</ele><time>2026-04-26T07:56:43.951Z</time></trkpt><trkpt lat="42.915572" lon="13.1235064"><ele>675.0</ele><time>2026-04-26T07:56:44.946Z</time></trkpt><trkpt lat="42.9153799" lon="13.1237268"><ele>675.0</ele><time>2026-04-26T07:56:45.949Z</time></trkpt><trkpt lat="42.9151969" lon="13.1239349"><ele>675.0</ele><time>2026-04-26T07:56:46.951Z</time></trkpt><trkpt lat="42.9150331" lon="13.1241276"><ele>675.3333333333334</ele><time>2026-04-26T07:56:47.952Z</time></trkpt><trkpt lat="42.9148764" lon="13.1243126"><ele>675.6666666666667</ele><time>2026-04-26T07:56:48.95Z</time></trkpt><trkpt lat="42.9147302" lon="13.1244817"><ele>676.0</ele><time>2026-04-26T07:56:49.951Z</time></trkpt><trkpt lat="42.9145979" lon="13.1246352"><ele>676.0</ele><time>2026-04-26T07:56:50.949Z</time></trkpt><trkpt lat="42.9144871" lon="13.1247945"><ele>676.0</ele><time>2026-04-26T07:56:51.952Z</time></trkpt><trkpt lat="42.9144136" lon="13.1249832"><ele>676.0</ele><time>2026-04-26T07:56:52.954Z</time></trkpt><trkpt lat="42.9143886" lon="13.12521"><ele>683.0</ele><time>2026-04-26T07:56:53.952Z</time></trkpt><trkpt lat="42.9143939" lon="13.1254583"><ele>690.0</ele><time>2026-04-26T07:56:54.966Z</time></trkpt><trkpt lat="42.9143873" lon="13.1257192"><ele>697.0</ele><time>2026-04-26T07:56:55.949Z</time></trkpt><trkpt lat="42.9143382" lon="13.1259814"><ele>695.3333333333334</ele><time>2026-04-26T07:56:56.952Z</time></trkpt><trkpt lat="42.9142329" lon="13.1262298"><ele>693.6666666666666</ele><time>2026-04-26T07:56:57.947Z</time></trkpt><trkpt lat="42.9140901" lon="13.1264635"><ele>692.0</ele><time>2026-04-26T07:56:58.95Z</time></trkpt><trkpt lat="42.913924" lon="13.1266939"><ele>692.0</ele><time>2026-04-26T07:56:59.951Z</time></trkpt><trkpt lat="42.9137466" lon="13.1269332"><ele>692.0</ele><time>2026-04-26T07:57:00.949Z</time></trkpt><trkpt lat="42.9135725" lon="13.1271757"><ele>688.0</ele><time>2026-04-26T07:57:01.95Z</time></trkpt><trkpt lat="42.9134083" lon="13.1274082"><ele>684.0</ele><time>2026-04-26T07:57:02.948Z</time></trkpt><trkpt lat="42.9132467" lon="13.1276377"><ele>684.0</ele><time>2026-04-26T07:57:03.948Z</time></trkpt><trkpt lat="42.9130806" lon="13.1278596"><ele>684.0</ele><time>2026-04-26T07:57:04.957Z</time></trkpt><trkpt lat="42.9129108" lon="13.1280684"><ele>686.0</ele><time>2026-04-26T07:57:05.954Z</time></trkpt><trkpt lat="42.91274" lon="13.1282494"><ele>688.0</ele><time>2026-04-26T07:57:06.956Z</time></trkpt><trkpt lat="42.9125556" lon="13.1283901"><ele>690.0</ele><time>2026-04-26T07:57:07.956Z</time></trkpt><trkpt lat="42.912352" lon="13.1284821"><ele>690.0</ele><time>2026-04-26T07:57:08.958Z</time></trkpt><trkpt lat="42.912138" lon="13.1285378"><ele>690.0</ele><time>2026-04-26T07:57:09.95Z</time></trkpt><trkpt lat="42.911919" lon="13.1285814"><ele>690.0</ele><time>2026-04-26T07:57:10.948Z</time></trkpt><trkpt lat="42.9116969" lon="13.1286247"><ele>690.6666666666666</ele><time>2026-04-26T07:57:11.95Z</time></trkpt><trkpt lat="42.9114786" lon="13.1286662"><ele>691.3333333333333</ele><time>2026-04-26T07:57:12.949Z</time></trkpt><trkpt lat="42.9112751" lon="13.1287027"><ele>692.0</ele><time>2026-04-26T07:57:13.95Z</time></trkpt><trkpt lat="42.9110786" lon="13.128752"><ele>693.6666666666666</ele><time>2026-04-26T07:57:14.942Z</time></trkpt><trkpt lat="42.9108821" lon="13.1288335"><ele>695.3333333333334</ele><time>2026-04-26T07:57:15.953Z</time></trkpt><trkpt lat="42.9106893" lon="13.1289539"><ele>697.0</ele><time>2026-04-26T07:57:16.953Z</time></trkpt><trkpt lat="42.91051" lon="13.1291156"><ele>697.0</ele><time>2026-04-26T07:57:17.952Z</time></trkpt><trkpt lat="42.9103478" lon="13.1293085"><ele>697.0</ele><time>2026-04-26T07:57:18.956Z</time></trkpt><trkpt lat="42.9102011" lon="13.1295048"><ele>697.0</ele><time>2026-04-26T07:57:19.944Z</time></trkpt><trkpt lat="42.9100464" lon="13.129672"><ele>698.0</ele><time>2026-04-26T07:57:20.946Z</time></trkpt><trkpt lat="42.9098674" lon="13.1297997"><ele>699.0</ele><time>2026-04-26T07:57:21.95Z</time></trkpt><trkpt lat="42.9096668" lon="13.1298744"><ele>700.0</ele><time>2026-04-26T07:57:22.945Z</time></trkpt><trkpt lat="42.9094571" lon="13.1299092"><ele>700.0</ele><time>2026-04-26T07:57:23.952Z</time></trkpt><trkpt lat="42.9092516" lon="13.1299365"><ele>700.0</ele><time>2026-04-26T07:57:24.943Z</time></trkpt><trkpt lat="42.909053" lon="13.1299965"><ele>700.0</ele><time>2026-04-26T07:57:25.947Z</time></trkpt><trkpt lat="42.9088575" lon="13.130101"><ele>699.0</ele><time>2026-04-26T07:57:26.946Z</time></trkpt><trkpt lat="42.908675" lon="13.1302294"><ele>698.0</ele><time>2026-04-26T07:57:27.948Z</time></trkpt><trkpt lat="42.9085065" lon="13.1303576"><ele>697.0</ele><time>2026-04-26T07:57:28.973Z</time></trkpt><trkpt lat="42.9083624" lon="13.1305078"><ele>697.0</ele><time>2026-04-26T07:57:29.947Z</time></trkpt><trkpt lat="42.9082519" lon="13.1307044"><ele>697.0</ele><time>2026-04-26T07:57:30.948Z</time></trkpt><trkpt lat="42.9081865" lon="13.130946"><ele>697.0</ele><time>2026-04-26T07:57:31.946Z</time></trkpt><trkpt lat="42.9081497" lon="13.1312118"><ele>697.0</ele><time>2026-04-26T07:57:32.945Z</time></trkpt><trkpt lat="42.90811" lon="13.1314711"><ele>697.0</ele><time>2026-04-26T07:57:33.943Z</time></trkpt><trkpt lat="42.9080329" lon="13.1317117"><ele>697.0</ele><time>2026-04-26T07:57:34.943Z</time></trkpt><trkpt lat="42.9079059" lon="13.1319068"><ele>695.6666666666667</ele><time>2026-04-26T07:57:35.95Z</time></trkpt><trkpt lat="42.907736" lon="13.1320521"><ele>694.3333333333334</ele><time>2026-04-26T07:57:36.948Z</time></trkpt><trkpt lat="42.9075412" lon="13.1321677"><ele>693.0</ele><time>2026-04-26T07:57:37.948Z</time></trkpt><trkpt lat="42.9073354" lon="13.132274"><ele>693.0</ele><time>2026-04-26T07:57:38.95Z</time></trkpt><trkpt lat="42.907139" lon="13.1323722"><ele>693.0</ele><time>2026-04-26T07:57:39.948Z</time></trkpt><trkpt lat="42.9069615" lon="13.1324804"><ele>693.0</ele><time>2026-04-26T07:57:40.951Z</time></trkpt><trkpt lat="42.9068134" lon="13.1326194"><ele>694.0</ele><time>2026-04-26T07:57:41.946Z</time></trkpt><trkpt lat="42.9067078" lon="13.1328078"><ele>695.0</ele><time>2026-04-26T07:57:42.945Z</time></trkpt><trkpt lat="42.9066547" lon="13.1330434"><ele>696.0</ele><time>2026-04-26T07:57:43.949Z</time></trkpt><trkpt lat="42.9066117" lon="13.1332873"><ele>699.6666666666666</ele><time>2026-04-26T07:57:44.941Z</time></trkpt><trkpt lat="42.9065937" lon="13.1335666"><ele>703.3333333333333</ele><time>2026-04-26T07:57:45.947Z</time></trkpt><trkpt lat="42.9065211" lon="13.1338449"><ele>707.0</ele><time>2026-04-26T07:57:46.95Z</time></trkpt><trkpt lat="42.9064136" lon="13.1341187"><ele>712.0</ele><time>2026-04-26T07:57:47.941Z</time></trkpt><trkpt lat="42.9063013" lon="13.1343875"><ele>717.0</ele><time>2026-04-26T07:57:48.948Z</time></trkpt><trkpt lat="42.9061707" lon="13.1346554"><ele>707.0</ele><time>2026-04-26T07:57:49.946Z</time></trkpt><trkpt lat="42.9060295" lon="13.1349191"><ele>697.0</ele><time>2026-04-26T07:57:50.955Z</time></trkpt><trkpt lat="42.905877" lon="13.1351797"><ele>697.0</ele><time>2026-04-26T07:57:51.951Z</time></trkpt><trkpt lat="42.9057227" lon="13.1354357"><ele>697.0</ele><time>2026-04-26T07:57:52.948Z</time></trkpt><trkpt lat="42.9055759" lon="13.1356946"><ele>708.0</ele><time>2026-04-26T07:57:53.953Z</time></trkpt><trkpt lat="42.905454" lon="13.135976"><ele>719.0</ele><time>2026-04-26T07:57:54.955Z</time></trkpt><trkpt lat="42.9053556" lon="13.1362709"><ele>730.0</ele><time>2026-04-26T07:57:55.942Z</time></trkpt><trkpt lat="42.905259" lon="13.1365637"><ele>741.0</ele><time>2026-04-26T07:57:56.945Z</time></trkpt><trkpt lat="42.9051655" lon="13.1368689"><ele>741.0</ele><time>2026-04-26T07:57:57.945Z</time></trkpt><trkpt lat="42.9050819" lon="13.1371529"><ele>741.0</ele><time>2026-04-26T07:57:58.95Z</time></trkpt><trkpt lat="42.9049954" lon="13.1374167"><ele>741.0</ele><time>2026-04-26T07:57:59.95Z</time></trkpt><trkpt lat="42.9048775" lon="13.1376511"><ele>740.0</ele><time>2026-04-26T07:58:00.946Z</time></trkpt><trkpt lat="42.9047316" lon="13.1378636"><ele>739.0</ele><time>2026-04-26T07:58:01.947Z</time></trkpt><trkpt lat="42.9045824" lon="13.1380753"><ele>738.0</ele><time>2026-04-26T07:58:02.946Z</time></trkpt><trkpt lat="42.9044385" lon="13.138308"><ele>738.0</ele><time>2026-04-26T07:58:03.946Z</time></trkpt><trkpt lat="42.9043106" lon="13.1385403"><ele>738.0</ele><time>2026-04-26T07:58:04.947Z</time></trkpt><trkpt lat="42.9041797" lon="13.1387561"><ele>738.0</ele><time>2026-04-26T07:58:05.952Z</time></trkpt><trkpt lat="42.9040165" lon="13.1389495"><ele>732.0</ele><time>2026-04-26T07:58:06.948Z</time></trkpt><trkpt lat="42.9038429" lon="13.1391293"><ele>726.0</ele><time>2026-04-26T07:58:07.951Z</time></trkpt><trkpt lat="42.9036356" lon="13.1392679"><ele>720.0</ele><time>2026-04-26T07:58:08.946Z</time></trkpt><trkpt lat="42.9034404" lon="13.1394281"><ele>713.0</ele><time>2026-04-26T07:58:09.944Z</time></trkpt><trkpt lat="42.903255" lon="13.1396203"><ele>706.0</ele><time>2026-04-26T07:58:10.946Z</time></trkpt><trkpt lat="42.9030717" lon="13.1398166"><ele>706.0</ele><time>2026-04-26T07:58:11.947Z</time></trkpt><trkpt lat="42.9028956" lon="13.1399962"><ele>706.0</ele><time>2026-04-26T07:58:12.95Z</time></trkpt><trkpt lat="42.9027306" lon="13.1401564"><ele>706.0</ele><time>2026-04-26T07:58:13.943Z</time></trkpt><trkpt lat="42.9025772" lon="13.1403078"><ele>706.0</ele><time>2026-04-26T07:58:14.95Z</time></trkpt><trkpt lat="42.9024366" lon="13.1404746"><ele>706.0</ele><time>2026-04-26T07:58:15.949Z</time></trkpt><trkpt lat="42.9023229" lon="13.1406705"><ele>706.0</ele><time>2026-04-26T07:58:16.946Z</time></trkpt><trkpt lat="42.9022473" lon="13.1409117"><ele>709.6666666666667</ele><time>2026-04-26T07:58:17.944Z</time></trkpt><trkpt lat="42.9021956" lon="13.1411781"><ele>713.3333333333334</ele><time>2026-04-26T07:58:18.945Z</time></trkpt><trkpt lat="42.9021472" lon="13.1414592"><ele>717.0</ele><time>2026-04-26T07:58:19.943Z</time></trkpt><trkpt lat="42.902079" lon="13.1417407"><ele>722.5</ele><time>2026-04-26T07:58:20.948Z</time></trkpt><trkpt lat="42.9019882" lon="13.1420199"><ele>728.0</ele><time>2026-04-26T07:58:21.947Z</time></trkpt><trkpt lat="42.9018806" lon="13.1422949"><ele>734.5</ele><time>2026-04-26T07:58:22.953Z</time></trkpt><trkpt lat="42.9017588" lon="13.1425622"><ele>741.0</ele><time>2026-04-26T07:58:23.949Z</time></trkpt><trkpt lat="42.9016147" lon="13.1428074"><ele>738.0</ele><time>2026-04-26T07:58:24.946Z</time></trkpt><trkpt lat="42.9014453" lon="13.1430122"><ele>735.0</ele><time>2026-04-26T07:58:25.943Z</time></trkpt><trkpt lat="42.9012668" lon="13.1431933"><ele>732.0</ele><time>2026-04-26T07:58:26.95Z</time></trkpt><trkpt lat="42.9010978" lon="13.1433687"><ele>732.0</ele><time>2026-04-26T07:58:27.945Z</time></trkpt><trkpt lat="42.9009465" lon="13.1435624"><ele>732.0</ele><time>2026-04-26T07:58:28.945Z</time></trkpt><trkpt lat="42.9008091" lon="13.1437775"><ele>732.0</ele><time>2026-04-26T07:58:29.946Z</time></trkpt><trkpt lat="42.9006803" lon="13.1440055"><ele>730.0</ele><time>2026-04-26T07:58:30.946Z</time></trkpt><trkpt lat="42.9005487" lon="13.1442302"><ele>728.0</ele><time>2026-04-26T07:58:31.946Z</time></trkpt><trkpt lat="42.9004196" lon="13.1444697"><ele>726.0</ele><time>2026-04-26T07:58:32.945Z</time></trkpt><trkpt lat="42.9002825" lon="13.1447001"><ele>724.0</ele><time>2026-04-26T07:58:33.95Z</time></trkpt><trkpt lat="42.9001393" lon="13.1449215"><ele>722.0</ele><time>2026-04-26T07:58:34.948Z</time></trkpt><trkpt lat="42.8999849" lon="13.1451323"><ele>720.0</ele><time>2026-04-26T07:58:35.951Z</time></trkpt><trkpt lat="42.8998228" lon="13.1453128"><ele>720.0</ele><time>2026-04-26T07:58:36.944Z</time></trkpt><trkpt lat="42.8996646" lon="13.1454674"><ele>720.0</ele><time>2026-04-26T07:58:37.948Z</time></trkpt><trkpt lat="42.8995021" lon="13.1456115"><ele>720.0</ele><time>2026-04-26T07:58:38.95Z</time></trkpt><trkpt lat="42.8993389" lon="13.1457602"><ele>720.6666666666666</ele><time>2026-04-26T07:58:39.948Z</time></trkpt><trkpt lat="42.8991824" lon="13.14593"><ele>721.3333333333333</ele><time>2026-04-26T07:58:40.952Z</time></trkpt><trkpt lat="42.8990385" lon="13.1461286"><ele>722.0</ele><time>2026-04-26T07:58:41.947Z</time></trkpt><trkpt lat="42.8989059" lon="13.1463461"><ele>723.6666666666666</ele><time>2026-04-26T07:58:42.951Z</time></trkpt><trkpt lat="42.8987809" lon="13.1465691"><ele>725.3333333333334</ele><time>2026-04-26T07:58:43.946Z</time></trkpt><trkpt lat="42.898663" lon="13.1467841"><ele>727.0</ele><time>2026-04-26T07:58:44.948Z</time></trkpt><trkpt lat="42.8985466" lon="13.1469954"><ele>727.0</ele><time>2026-04-26T07:58:45.954Z</time></trkpt><trkpt lat="42.8984224" lon="13.1472036"><ele>727.0</ele><time>2026-04-26T07:58:46.952Z</time></trkpt><trkpt lat="42.8982855" lon="13.1474009"><ele>727.0</ele><time>2026-04-26T07:58:47.971Z</time></trkpt><trkpt lat="42.8981349" lon="13.1475848"><ele>725.6666666666667</ele><time>2026-04-26T07:58:48.951Z</time></trkpt><trkpt lat="42.8979748" lon="13.1477554"><ele>724.3333333333334</ele><time>2026-04-26T07:58:49.954Z</time></trkpt><trkpt lat="42.8978091" lon="13.14791"><ele>723.0</ele><time>2026-04-26T07:58:50.945Z</time></trkpt><trkpt lat="42.8976473" lon="13.148048"><ele>722.6666666666666</ele><time>2026-04-26T07:58:51.958Z</time></trkpt><trkpt lat="42.8974899" lon="13.1481847"><ele>722.3333333333333</ele><time>2026-04-26T07:58:52.949Z</time></trkpt><trkpt lat="42.8973401" lon="13.1483363"><ele>722.0</ele><time>2026-04-26T07:58:53.949Z</time></trkpt><trkpt lat="42.8972056" lon="13.148512"><ele>723.6666666666666</ele><time>2026-04-26T07:58:54.955Z</time></trkpt><trkpt lat="42.8970916" lon="13.148714"><ele>725.3333333333334</ele><time>2026-04-26T07:58:55.951Z</time></trkpt><trkpt lat="42.896997" lon="13.148936"><ele>727.0</ele><time>2026-04-26T07:58:56.954Z</time></trkpt><trkpt lat="42.8969161" lon="13.1491699"><ele>726.0</ele><time>2026-04-26T07:58:57.945Z</time></trkpt><trkpt lat="42.8968401" lon="13.1494064"><ele>725.0</ele><time>2026-04-26T07:58:58.946Z</time></trkpt><trkpt lat="42.8967602" lon="13.1496414"><ele>724.0</ele><time>2026-04-26T07:58:59.951Z</time></trkpt><trkpt lat="42.8966754" lon="13.1498723"><ele>726.0</ele><time>2026-04-26T07:59:00.952Z</time></trkpt><trkpt lat="42.8965796" lon="13.1500965"><ele>728.0</ele><time>2026-04-26T07:59:01.955Z</time></trkpt><trkpt lat="42.8964695" lon="13.1503085"><ele>730.0</ele><time>2026-04-26T07:59:02.95Z</time></trkpt><trkpt lat="42.8963468" lon="13.1505051"><ele>730.0</ele><time>2026-04-26T07:59:03.952Z</time></trkpt><trkpt lat="42.8962162" lon="13.1506944"><ele>730.0</ele><time>2026-04-26T07:59:04.951Z</time></trkpt><trkpt lat="42.8960833" lon="13.1508803"><ele>730.0</ele><time>2026-04-26T07:59:05.953Z</time></trkpt><trkpt lat="42.8959544" lon="13.1510537"><ele>728.0</ele><time>2026-04-26T07:59:06.948Z</time></trkpt><trkpt lat="42.895834" lon="13.1512139"><ele>726.0</ele><time>2026-04-26T07:59:07.948Z</time></trkpt><trkpt lat="42.8957244" lon="13.1513591"><ele>724.0</ele><time>2026-04-26T07:59:08.941Z</time></trkpt><trkpt lat="42.8956223" lon="13.1514916"><ele>728.0</ele><time>2026-04-26T07:59:09.949Z</time></trkpt><trkpt lat="42.8955254" lon="13.1516121"><ele>732.0</ele><time>2026-04-26T07:59:10.946Z</time></trkpt><trkpt lat="42.8954232" lon="13.1517151"><ele>736.0</ele><time>2026-04-26T07:59:11.947Z</time></trkpt><trkpt lat="42.8953086" lon="13.1517902"><ele>740.0</ele><time>2026-04-26T07:59:12.948Z</time></trkpt><trkpt lat="42.8951929" lon="13.1518382"><ele>737.8</ele><time>2026-04-26T07:59:13.947Z</time></trkpt><trkpt lat="42.8950849" lon="13.1518735"><ele>735.6</ele><time>2026-04-26T07:59:14.954Z</time></trkpt><trkpt lat="42.8949869" lon="13.1519036"><ele>733.4000000000001</ele><time>2026-04-26T07:59:15.949Z</time></trkpt><trkpt lat="42.8948901" lon="13.1519319"><ele>731.2</ele><time>2026-04-26T07:59:16.954Z</time></trkpt><trkpt lat="42.8947879" lon="13.1519599"><ele>729.0</ele><time>2026-04-26T07:59:17.946Z</time></trkpt><trkpt lat="42.8946749" lon="13.1519875"><ele>729.0</ele><time>2026-04-26T07:59:18.955Z</time></trkpt><trkpt lat="42.8945521" lon="13.1520205"><ele>729.0</ele><time>2026-04-26T07:59:19.95Z</time></trkpt><trkpt lat="42.8944256" lon="13.1520669"><ele>729.0</ele><time>2026-04-26T07:59:20.949Z</time></trkpt><trkpt lat="42.8942974" lon="13.1521356"><ele>729.0</ele><time>2026-04-26T07:59:21.955Z</time></trkpt><trkpt lat="42.8941687" lon="13.1522272"><ele>729.5</ele><time>2026-04-26T07:59:22.95Z</time></trkpt><trkpt lat="42.8940443" lon="13.1523325"><ele>730.0</ele><time>2026-04-26T07:59:23.953Z</time></trkpt><trkpt lat="42.8939322" lon="13.1524385"><ele>730.5</ele><time>2026-04-26T07:59:24.952Z</time></trkpt><trkpt lat="42.8938289" lon="13.1525382"><ele>731.0</ele><time>2026-04-26T07:59:25.95Z</time></trkpt><trkpt lat="42.8937295" lon="13.1526331"><ele>731.0</ele><time>2026-04-26T07:59:26.958Z</time></trkpt><trkpt lat="42.8936269" lon="13.1527307"><ele>731.0</ele><time>2026-04-26T07:59:27.954Z</time></trkpt><trkpt lat="42.8935224" lon="13.1528331"><ele>731.0</ele><time>2026-04-26T07:59:28.955Z</time></trkpt><trkpt lat="42.8934179" lon="13.1529365"><ele>731.0</ele><time>2026-04-26T07:59:29.953Z</time></trkpt><trkpt lat="42.8933196" lon="13.153034"><ele>731.0</ele><time>2026-04-26T07:59:30.951Z</time></trkpt><trkpt lat="42.8932274" lon="13.153124"><ele>731.0</ele><time>2026-04-26T07:59:31.952Z</time></trkpt><trkpt lat="42.8931356" lon="13.1532108"><ele>731.0</ele><time>2026-04-26T07:59:32.951Z</time></trkpt><trkpt lat="42.8930405" lon="13.1533013"><ele>731.0</ele><time>2026-04-26T07:59:33.953Z</time></trkpt><trkpt lat="42.8929439" lon="13.1533978"><ele>731.0</ele><time>2026-04-26T07:59:34.95Z</time></trkpt><trkpt lat="42.8928448" lon="13.1534965"><ele>731.0</ele><time>2026-04-26T07:59:35.96Z</time></trkpt><trkpt lat="42.8927418" lon="13.1535941"><ele>731.0</ele><time>2026-04-26T07:59:36.955Z</time></trkpt><trkpt lat="42.8926376" lon="13.1536813"><ele>731.0</ele><time>2026-04-26T07:59:37.954Z</time></trkpt><trkpt lat="42.8925329" lon="13.153751"><ele>730.75</ele><time>2026-04-26T07:59:38.949Z</time></trkpt><trkpt lat="42.8924244" lon="13.1537989"><ele>730.5</ele><time>2026-04-26T07:59:39.95Z</time></trkpt><trkpt lat="42.8923144" lon="13.1538277"><ele>730.25</ele><time>2026-04-26T07:59:40.95Z</time></trkpt><trkpt lat="42.8921987" lon="13.153844"><ele>730.0</ele><time>2026-04-26T07:59:41.949Z</time></trkpt><trkpt lat="42.8920774" lon="13.1538479"><ele>730.0</ele><time>2026-04-26T07:59:42.95Z</time></trkpt><trkpt lat="42.8919567" lon="13.1538369"><ele>730.0</ele><time>2026-04-26T07:59:43.953Z</time></trkpt><trkpt lat="42.8918487" lon="13.1538114"><ele>730.0</ele><time>2026-04-26T07:59:44.954Z</time></trkpt><trkpt lat="42.8917563" lon="13.153777"><ele>730.0</ele><time>2026-04-26T07:59:45.953Z</time></trkpt><trkpt lat="42.8916757" lon="13.1537378"><ele>730.0</ele><time>2026-04-26T07:59:46.959Z</time></trkpt><trkpt lat="42.891608" lon="13.1537005"><ele>730.3333333333334</ele><time>2026-04-26T07:59:47.95Z</time></trkpt><trkpt lat="42.8915445" lon="13.1536634"><ele>730.6666666666667</ele><time>2026-04-26T07:59:48.953Z</time></trkpt><trkpt lat="42.891476" lon="13.1536218"><ele>731.0</ele><time>2026-04-26T07:59:49.954Z</time></trkpt><trkpt lat="42.8913993" lon="13.1535744"><ele>731.3333333333334</ele><time>2026-04-26T07:59:50.956Z</time></trkpt><trkpt lat="42.8913128" lon="13.1535196"><ele>731.6666666666666</ele><time>2026-04-26T07:59:51.95Z</time></trkpt><trkpt lat="42.8912172" lon="13.1534578"><ele>732.0</ele><time>2026-04-26T07:59:52.95Z</time></trkpt><trkpt lat="42.891114" lon="13.1533885"><ele>732.0</ele><time>2026-04-26T07:59:53.954Z</time></trkpt><trkpt lat="42.891005" lon="13.1533126"><ele>732.0</ele><time>2026-04-26T07:59:54.958Z</time></trkpt><trkpt lat="42.8908881" lon="13.153236"><ele>732.0</ele><time>2026-04-26T07:59:55.948Z</time></trkpt><trkpt lat="42.8907636" lon="13.153161"><ele>732.0</ele><time>2026-04-26T07:59:56.957Z</time></trkpt><trkpt lat="42.8906331" lon="13.1530844"><ele>733.6666666666666</ele><time>2026-04-26T07:59:57.951Z</time></trkpt><trkpt lat="42.8904969" lon="13.1530042"><ele>735.3333333333333</ele><time>2026-04-26T07:59:58.956Z</time></trkpt><trkpt lat="42.8903562" lon="13.1529189"><ele>737.0</ele><time>2026-04-26T07:59:59.95Z</time></trkpt><trkpt lat="42.8902102" lon="13.1528336"><ele>738.5</ele><time>2026-04-26T08:00:00.951Z</time></trkpt><trkpt lat="42.8900667" lon="13.1527517"><ele>740.0</ele><time>2026-04-26T08:00:01.951Z</time></trkpt><trkpt lat="42.8899345" lon="13.1526773"><ele>741.5</ele><time>2026-04-26T08:00:02.954Z</time></trkpt><trkpt lat="42.8898116" lon="13.1526145"><ele>743.0</ele><time>2026-04-26T08:00:03.956Z</time></trkpt><trkpt lat="42.889689" lon="13.152563"><ele>743.0</ele><time>2026-04-26T08:00:04.953Z</time></trkpt><trkpt lat="42.8895607" lon="13.152515"><ele>743.0</ele><time>2026-04-26T08:00:05.954Z</time></trkpt><trkpt lat="42.8894276" lon="13.1524642"><ele>743.0</ele><time>2026-04-26T08:00:06.948Z</time></trkpt><trkpt lat="42.8892932" lon="13.1524098"><ele>743.0</ele><time>2026-04-26T08:00:07.95Z</time></trkpt><trkpt lat="42.889167" lon="13.152354"><ele>744.5</ele><time>2026-04-26T08:00:08.955Z</time></trkpt><trkpt lat="42.8890482" lon="13.1522959"><ele>746.0</ele><time>2026-04-26T08:00:09.95Z</time></trkpt><trkpt lat="42.8889378" lon="13.152237"><ele>747.5</ele><time>2026-04-26T08:00:10.959Z</time></trkpt><trkpt lat="42.888828" lon="13.15218"><ele>749.0</ele><time>2026-04-26T08:00:11.953Z</time></trkpt><trkpt lat="42.8887054" lon="13.1521314"><ele>749.0</ele><time>2026-04-26T08:00:12.956Z</time></trkpt><trkpt lat="42.8885643" lon="13.1521021"><ele>749.0</ele><time>2026-04-26T08:00:13.962Z</time></trkpt><trkpt lat="42.8884122" lon="13.1520669"><ele>749.0</ele><time>2026-04-26T08:00:14.953Z</time></trkpt><trkpt lat="42.8882679" lon="13.1520447"><ele>749.0</ele><time>2026-04-26T08:00:15.954Z</time></trkpt><trkpt lat="42.8881328" lon="13.1520191"><ele>748.5</ele><time>2026-04-26T08:00:16.955Z</time></trkpt><trkpt lat="42.8880054" lon="13.1520006"><ele>748.0</ele><time>2026-04-26T08:00:17.955Z</time></trkpt><trkpt lat="42.887878" lon="13.1519918"><ele>747.5</ele><time>2026-04-26T08:00:18.953Z</time></trkpt><trkpt lat="42.8877481" lon="13.151999"><ele>747.0</ele><time>2026-04-26T08:00:19.957Z</time></trkpt><trkpt lat="42.8876158" lon="13.1520104"><ele>747.5</ele><time>2026-04-26T08:00:20.95Z</time></trkpt><trkpt lat="42.8874821" lon="13.1520246"><ele>748.0</ele><time>2026-04-26T08:00:21.959Z</time></trkpt><trkpt lat="42.8873464" lon="13.1520423"><ele>748.5</ele><time>2026-04-26T08:00:22.957Z</time></trkpt><trkpt lat="42.8872199" lon="13.1520643"><ele>749.0</ele><time>2026-04-26T08:00:23.951Z</time></trkpt><trkpt lat="42.8870968" lon="13.1520899"><ele>749.0</ele><time>2026-04-26T08:00:24.953Z</time></trkpt><trkpt lat="42.8869773" lon="13.15211"><ele>749.0</ele><time>2026-04-26T08:00:25.953Z</time></trkpt><trkpt lat="42.886881" lon="13.1521018"><ele>749.0</ele><time>2026-04-26T08:00:26.952Z</time></trkpt><trkpt lat="42.8867899" lon="13.1520737"><ele>749.0</ele><time>2026-04-26T08:00:27.955Z</time></trkpt><trkpt lat="42.8867005" lon="13.1520268"><ele>749.0</ele><time>2026-04-26T08:00:28.955Z</time></trkpt><trkpt lat="42.8866031" lon="13.1519731"><ele>750.4000000000001</ele><time>2026-04-26T08:00:29.952Z</time></trkpt><trkpt lat="42.8864962" lon="13.1519279"><ele>751.8</ele><time>2026-04-26T08:00:30.954Z</time></trkpt><trkpt lat="42.8863909" lon="13.1519032"><ele>753.2</ele><time>2026-04-26T08:00:31.947Z</time></trkpt><trkpt lat="42.8862913" lon="13.151897"><ele>754.5999999999999</ele><time>2026-04-26T08:00:32.953Z</time></trkpt><trkpt lat="42.8862044" lon="13.1518854"><ele>756.0</ele><time>2026-04-26T08:00:33.95Z</time></trkpt><trkpt lat="42.8861104" lon="13.1518549"><ele>756.0</ele><time>2026-04-26T08:00:34.958Z</time></trkpt><trkpt lat="42.8860316" lon="13.1517954"><ele>756.0</ele><time>2026-04-26T08:00:35.952Z</time></trkpt><trkpt lat="42.885946" lon="13.1517695"><ele>756.0</ele><time>2026-04-26T08:00:36.956Z</time></trkpt><trkpt lat="42.8858523" lon="13.1517711"><ele>756.0</ele><time>2026-04-26T08:00:37.949Z</time></trkpt><trkpt lat="42.8857508" lon="13.1517816"><ele>756.0</ele><time>2026-04-26T08:00:38.958Z</time></trkpt><trkpt lat="42.8856424" lon="13.1518193"><ele>756.1999999999999</ele><time>2026-04-26T08:00:39.953Z</time></trkpt><trkpt lat="42.8855379" lon="13.151883"><ele>756.4</ele><time>2026-04-26T08:00:40.955Z</time></trkpt><trkpt lat="42.8854533" lon="13.1519598"><ele>756.6</ele><time>2026-04-26T08:00:41.963Z</time></trkpt><trkpt lat="42.8853739" lon="13.1520367"><ele>756.8</ele><time>2026-04-26T08:00:42.954Z</time></trkpt><trkpt lat="42.8852839" lon="13.1521075"><ele>757.0</ele><time>2026-04-26T08:00:43.958Z</time></trkpt><trkpt lat="42.8851843" lon="13.152163"><ele>758.2</ele><time>2026-04-26T08:00:44.953Z</time></trkpt><trkpt lat="42.8850812" lon="13.152204"><ele>759.4000000000001</ele><time>2026-04-26T08:00:45.954Z</time></trkpt><trkpt lat="42.8849767" lon="13.1522423"><ele>760.5999999999999</ele><time>2026-04-26T08:00:46.954Z</time></trkpt><trkpt lat="42.8848703" lon="13.1522747"><ele>761.8</ele><time>2026-04-26T08:00:47.951Z</time></trkpt><trkpt lat="42.8847612" lon="13.1523174"><ele>763.0</ele><time>2026-04-26T08:00:48.953Z</time></trkpt><trkpt lat="42.884656" lon="13.1523489"><ele>763.0</ele><time>2026-04-26T08:00:49.953Z</time></trkpt><trkpt lat="42.8845469" lon="13.1523609"><ele>763.0</ele><time>2026-04-26T08:00:50.955Z</time></trkpt><trkpt lat="42.8844382" lon="13.1523653"><ele>763.0</ele><time>2026-04-26T08:00:51.952Z</time></trkpt><trkpt lat="42.8843291" lon="13.1523559"><ele>763.0</ele><time>2026-04-26T08:00:52.951Z</time></trkpt><trkpt lat="42.884217" lon="13.1523295"><ele>763.0</ele><time>2026-04-26T08:00:53.953Z</time></trkpt><trkpt lat="42.8841066" lon="13.1522905"><ele>764.75</ele><time>2026-04-26T08:00:54.951Z</time></trkpt><trkpt lat="42.8839965" lon="13.152254"><ele>766.5</ele><time>2026-04-26T08:00:55.951Z</time></trkpt><trkpt lat="42.8838859" lon="13.1522185"><ele>768.25</ele><time>2026-04-26T08:00:56.957Z</time></trkpt><trkpt lat="42.8837768" lon="13.1521755"><ele>770.0</ele><time>2026-04-26T08:00:57.954Z</time></trkpt><trkpt lat="42.8836705" lon="13.152121"><ele>770.0</ele><time>2026-04-26T08:00:58.946Z</time></trkpt><trkpt lat="42.8835634" lon="13.1520627"><ele>770.0</ele><time>2026-04-26T08:00:59.952Z</time></trkpt><trkpt lat="42.8834557" lon="13.1519933"><ele>770.0</ele><time>2026-04-26T08:01:00.952Z</time></trkpt><trkpt lat="42.883347" lon="13.151919"><ele>770.0</ele><time>2026-04-26T08:01:01.95Z</time></trkpt><trkpt lat="42.8832378" lon="13.1518391"><ele>770.25</ele><time>2026-04-26T08:01:02.962Z</time></trkpt><trkpt lat="42.8831312" lon="13.1517514"><ele>770.5</ele><time>2026-04-26T08:01:03.952Z</time></trkpt><trkpt lat="42.8830243" lon="13.1516511"><ele>770.75</ele><time>2026-04-26T08:01:04.949Z</time></trkpt><trkpt lat="42.8829187" lon="13.1515385"><ele>771.0</ele><time>2026-04-26T08:01:05.954Z</time></trkpt><trkpt lat="42.8828145" lon="13.1514178"><ele>772.25</ele><time>2026-04-26T08:01:06.947Z</time></trkpt><trkpt lat="42.8827025" lon="13.1512877"><ele>773.5</ele><time>2026-04-26T08:01:07.949Z</time></trkpt><trkpt lat="42.8825944" lon="13.1511493"><ele>774.75</ele><time>2026-04-26T08:01:08.947Z</time></trkpt><trkpt lat="42.8824946" lon="13.1510186"><ele>776.0</ele><time>2026-04-26T08:01:09.96Z</time></trkpt><trkpt lat="42.8823985" lon="13.150902"><ele>776.0</ele><time>2026-04-26T08:01:10.954Z</time></trkpt><trkpt lat="42.8823022" lon="13.1507942"><ele>776.0</ele><time>2026-04-26T08:01:11.954Z</time></trkpt><trkpt lat="42.8821996" lon="13.150689"><ele>776.0</ele><time>2026-04-26T08:01:12.954Z</time></trkpt><trkpt lat="42.8821003" lon="13.1505919"><ele>776.0</ele><time>2026-04-26T08:01:13.953Z</time></trkpt><trkpt lat="42.8820018" lon="13.1505038"><ele>778.25</ele><time>2026-04-26T08:01:14.957Z</time></trkpt><trkpt lat="42.8818961" lon="13.1504316"><ele>780.5</ele><time>2026-04-26T08:01:15.952Z</time></trkpt><trkpt lat="42.8817937" lon="13.1503405"><ele>782.75</ele><time>2026-04-26T08:01:16.956Z</time></trkpt><trkpt lat="42.8816836" lon="13.1502709"><ele>785.0</ele><time>2026-04-26T08:01:17.953Z</time></trkpt><trkpt lat="42.8815694" lon="13.1502263"><ele>785.0</ele><time>2026-04-26T08:01:18.957Z</time></trkpt><trkpt lat="42.881444" lon="13.1502021"><ele>785.0</ele><time>2026-04-26T08:01:19.956Z</time></trkpt><trkpt lat="42.8813175" lon="13.1501769"><ele>785.0</ele><time>2026-04-26T08:01:20.954Z</time></trkpt><trkpt lat="42.8811889" lon="13.1501481"><ele>785.0</ele><time>2026-04-26T08:01:21.953Z</time></trkpt><trkpt lat="42.8810614" lon="13.150117"><ele>785.0</ele><time>2026-04-26T08:01:22.955Z</time></trkpt><trkpt lat="42.8809331" lon="13.1500829"><ele>785.0</ele><time>2026-04-26T08:01:23.955Z</time></trkpt><trkpt lat="42.8808146" lon="13.1500522"><ele>785.0</ele><time>2026-04-26T08:01:24.95Z</time></trkpt><trkpt lat="42.880696" lon="13.1500314"><ele>785.0</ele><time>2026-04-26T08:01:25.952Z</time></trkpt><trkpt lat="42.8805735" lon="13.1500308"><ele>785.25</ele><time>2026-04-26T08:01:26.955Z</time></trkpt><trkpt lat="42.880448" lon="13.1500496"><ele>785.5</ele><time>2026-04-26T08:01:27.956Z</time></trkpt><trkpt lat="42.8803208" lon="13.1500905"><ele>785.75</ele><time>2026-04-26T08:01:28.953Z</time></trkpt><trkpt lat="42.8801908" lon="13.1501325"><ele>786.0</ele><time>2026-04-26T08:01:29.955Z</time></trkpt><trkpt lat="42.8800574" lon="13.1501729"><ele>788.25</ele><time>2026-04-26T08:01:30.955Z</time></trkpt><trkpt lat="42.8799205" lon="13.1502225"><ele>790.5</ele><time>2026-04-26T08:01:31.955Z</time></trkpt><trkpt lat="42.8797848" lon="13.1502803"><ele>792.75</ele><time>2026-04-26T08:01:32.952Z</time></trkpt><trkpt lat="42.8796487" lon="13.15033"><ele>795.0</ele><time>2026-04-26T08:01:33.96Z</time></trkpt><trkpt lat="42.8795119" lon="13.1503922"><ele>795.0</ele><time>2026-04-26T08:01:34.952Z</time></trkpt><trkpt lat="42.8793727" lon="13.1504458"><ele>795.0</ele><time>2026-04-26T08:01:35.955Z</time></trkpt><trkpt lat="42.8792318" lon="13.1504804"><ele>795.0</ele><time>2026-04-26T08:01:36.956Z</time></trkpt><trkpt lat="42.879089" lon="13.1504867"><ele>795.0</ele><time>2026-04-26T08:01:37.953Z</time></trkpt><trkpt lat="42.8789456" lon="13.1504919"><ele>800.5</ele><time>2026-04-26T08:01:38.956Z</time></trkpt><trkpt lat="42.8788" lon="13.1504667"><ele>806.0</ele><time>2026-04-26T08:01:39.953Z</time></trkpt><trkpt lat="42.8786604" lon="13.150431"><ele>811.5</ele><time>2026-04-26T08:01:40.952Z</time></trkpt><trkpt lat="42.8785307" lon="13.1503795"><ele>817.0</ele><time>2026-04-26T08:01:41.957Z</time></trkpt><trkpt lat="42.8783866" lon="13.1503859"><ele>822.3333333333333</ele><time>2026-04-26T08:01:42.951Z</time></trkpt><trkpt lat="42.8782372" lon="13.1504194"><ele>827.6666666666667</ele><time>2026-04-26T08:01:43.964Z</time></trkpt><trkpt lat="42.8780862" lon="13.150449"><ele>833.0</ele><time>2026-04-26T08:01:44.953Z</time></trkpt><trkpt lat="42.8779308" lon="13.1504858"><ele>833.0</ele><time>2026-04-26T08:01:45.96Z</time></trkpt><trkpt lat="42.8777758" lon="13.1505315"><ele>833.0</ele><time>2026-04-26T08:01:46.954Z</time></trkpt><trkpt lat="42.8776268" lon="13.1505887"><ele>833.0</ele><time>2026-04-26T08:01:47.956Z</time></trkpt><trkpt lat="42.8774819" lon="13.150648"><ele>824.6666666666667</ele><time>2026-04-26T08:01:48.954Z</time></trkpt><trkpt lat="42.8773381" lon="13.150715"><ele>816.3333333333333</ele><time>2026-04-26T08:01:49.954Z</time></trkpt><trkpt lat="42.8772011" lon="13.1508024"><ele>808.0</ele><time>2026-04-26T08:01:50.954Z</time></trkpt><trkpt lat="42.8770786" lon="13.1509139"><ele>808.0</ele><time>2026-04-26T08:01:51.956Z</time></trkpt><trkpt lat="42.8769523" lon="13.1510447"><ele>808.0</ele><time>2026-04-26T08:01:52.954Z</time></trkpt><trkpt lat="42.8768088" lon="13.1511654"><ele>808.0</ele><time>2026-04-26T08:01:53.955Z</time></trkpt><trkpt lat="42.8766567" lon="13.1512816"><ele>807.0</ele><time>2026-04-26T08:01:54.957Z</time></trkpt><trkpt lat="42.8765172" lon="13.1514117"><ele>806.0</ele><time>2026-04-26T08:01:55.954Z</time></trkpt><trkpt lat="42.8763956" lon="13.1515443"><ele>805.0</ele><time>2026-04-26T08:01:56.953Z</time></trkpt><trkpt lat="42.8762863" lon="13.1516662"><ele>805.0</ele><time>2026-04-26T08:01:57.955Z</time></trkpt><trkpt lat="42.876169" lon="13.1517637"><ele>805.0</ele><time>2026-04-26T08:01:58.954Z</time></trkpt><trkpt lat="42.8760368" lon="13.1518491"><ele>805.0</ele><time>2026-04-26T08:01:59.956Z</time></trkpt><trkpt lat="42.8759133" lon="13.1519249"><ele>805.0</ele><time>2026-04-26T08:02:00.953Z</time></trkpt><trkpt lat="42.8757992" lon="13.1519974"><ele>806.4</ele><time>2026-04-26T08:02:01.954Z</time></trkpt><trkpt lat="42.8756945" lon="13.1520322"><ele>807.8</ele><time>2026-04-26T08:02:02.95Z</time></trkpt><trkpt lat="42.8756221" lon="13.1520632"><ele>809.2</ele><time>2026-04-26T08:02:03.957Z</time></trkpt><trkpt lat="42.8755021" lon="13.1520698"><ele>810.6</ele><time>2026-04-26T08:02:05.953Z</time></trkpt><trkpt lat="42.8754231" lon="13.1520622"><ele>812.0</ele><time>2026-04-26T08:02:06.953Z</time></trkpt><trkpt lat="42.8753297" lon="13.1520514"><ele>812.0</ele><time>2026-04-26T08:02:07.953Z</time></trkpt><trkpt lat="42.875234" lon="13.1520504"><ele>812.0</ele><time>2026-04-26T08:02:08.962Z</time></trkpt><trkpt lat="42.8751292" lon="13.1520607"><ele>812.0</ele><time>2026-04-26T08:02:09.953Z</time></trkpt><trkpt lat="42.8750205" lon="13.1520759"><ele>812.0</ele><time>2026-04-26T08:02:10.955Z</time></trkpt><trkpt lat="42.8749018" lon="13.1521007"><ele>812.0</ele><time>2026-04-26T08:02:11.956Z</time></trkpt><trkpt lat="42.8747813" lon="13.1521381"><ele>814.75</ele><time>2026-04-26T08:02:12.952Z</time></trkpt><trkpt lat="42.8746589" lon="13.1521913"><ele>817.5</ele><time>2026-04-26T08:02:13.957Z</time></trkpt><trkpt lat="42.8745297" lon="13.1522486"><ele>820.25</ele><time>2026-04-26T08:02:14.951Z</time></trkpt><trkpt lat="42.8744052" lon="13.15229"><ele>823.0</ele><time>2026-04-26T08:02:15.954Z</time></trkpt><trkpt lat="42.8742809" lon="13.1523191"><ele>823.5</ele><time>2026-04-26T08:02:16.952Z</time></trkpt><trkpt lat="42.8741554" lon="13.1523414"><ele>824.0</ele><time>2026-04-26T08:02:17.952Z</time></trkpt><trkpt lat="42.8740295" lon="13.1523602"><ele>824.5</ele><time>2026-04-26T08:02:18.953Z</time></trkpt><trkpt lat="42.8738901" lon="13.1523814"><ele>825.0</ele><time>2026-04-26T08:02:19.953Z</time></trkpt><trkpt lat="42.8737466" lon="13.1523928"><ele>825.0</ele><time>2026-04-26T08:02:20.951Z</time></trkpt><trkpt lat="42.8736181" lon="13.1523881"><ele>825.0</ele><time>2026-04-26T08:02:21.952Z</time></trkpt><trkpt lat="42.8735103" lon="13.152378"><ele>825.0</ele><time>2026-04-26T08:02:22.95Z</time></trkpt><trkpt lat="42.8734131" lon="13.1523582"><ele>825.0</ele><time>2026-04-26T08:02:23.952Z</time></trkpt><trkpt lat="42.8733122" lon="13.1523206"><ele>825.0</ele><time>2026-04-26T08:02:24.95Z</time></trkpt><trkpt lat="42.873197" lon="13.1522508"><ele>826.4</ele><time>2026-04-26T08:02:25.949Z</time></trkpt><trkpt lat="42.8730747" lon="13.1521837"><ele>827.8</ele><time>2026-04-26T08:02:26.955Z</time></trkpt><trkpt lat="42.8729673" lon="13.152137"><ele>829.2</ele><time>2026-04-26T08:02:27.955Z</time></trkpt><trkpt lat="42.8728793" lon="13.1521068"><ele>830.6</ele><time>2026-04-26T08:02:28.947Z</time></trkpt><trkpt lat="42.8728059" lon="13.1520862"><ele>832.0</ele><time>2026-04-26T08:02:29.952Z</time></trkpt><trkpt lat="42.8727027" lon="13.1520699"><ele>832.0</ele><time>2026-04-26T08:02:31.951Z</time></trkpt><trkpt lat="42.8726123" lon="13.1520737"><ele>832.0</ele><time>2026-04-26T08:02:33.949Z</time></trkpt><trkpt lat="42.8724674" lon="13.1520854"><ele>832.0</ele><time>2026-04-26T08:02:40.948Z</time></trkpt><trkpt lat="42.8723884" lon="13.1520775"><ele>832.0</ele><time>2026-04-26T08:02:41.947Z</time></trkpt><trkpt lat="42.8722862" lon="13.1520578"><ele>832.0</ele><time>2026-04-26T08:02:42.949Z</time></trkpt><trkpt lat="42.8721557" lon="13.1520184"><ele>832.0</ele><time>2026-04-26T08:02:43.952Z</time></trkpt><trkpt lat="42.872007" lon="13.1519617"><ele>832.0</ele><time>2026-04-26T08:02:44.95Z</time></trkpt><trkpt lat="42.8718556" lon="13.1519039"><ele>832.0</ele><time>2026-04-26T08:02:45.951Z</time></trkpt><trkpt lat="42.8717174" lon="13.1518229"><ele>834.3333333333333</ele><time>2026-04-26T08:02:46.952Z</time></trkpt><trkpt lat="42.8715802" lon="13.1517282"><ele>836.6666666666667</ele><time>2026-04-26T08:02:47.957Z</time></trkpt><trkpt lat="42.8714372" lon="13.1516183"><ele>839.0</ele><time>2026-04-26T08:02:48.949Z</time></trkpt><trkpt lat="42.8713038" lon="13.1514988"><ele>845.0</ele><time>2026-04-26T08:02:49.951Z</time></trkpt><trkpt lat="42.8711693" lon="13.1514052"><ele>851.0</ele><time>2026-04-26T08:02:50.95Z</time></trkpt><trkpt lat="42.8710376" lon="13.1513457"><ele>857.0</ele><time>2026-04-26T08:02:51.952Z</time></trkpt><trkpt lat="42.8709187" lon="13.1513015"><ele>863.0</ele><time>2026-04-26T08:02:52.955Z</time></trkpt><trkpt lat="42.8708193" lon="13.151259"><ele>863.0</ele><time>2026-04-26T08:02:53.95Z</time></trkpt><trkpt lat="42.870727" lon="13.1511875"><ele>863.0</ele><time>2026-04-26T08:02:54.95Z</time></trkpt><trkpt lat="42.8706194" lon="13.1510864"><ele>863.0</ele><time>2026-04-26T08:02:55.95Z</time></trkpt><trkpt lat="42.8705077" lon="13.1510035"><ele>863.0</ele><time>2026-04-26T08:02:56.952Z</time></trkpt><trkpt lat="42.8703908" lon="13.1509515"><ele>863.0</ele><time>2026-04-26T08:02:57.948Z</time></trkpt><trkpt lat="42.8702578" lon="13.1509222"><ele>863.0</ele><time>2026-04-26T08:02:58.953Z</time></trkpt><trkpt lat="42.8701163" lon="13.1509184"><ele>863.0</ele><time>2026-04-26T08:02:59.951Z</time></trkpt><trkpt lat="42.869963" lon="13.1509455"><ele>863.0</ele><time>2026-04-26T08:03:00.949Z</time></trkpt><trkpt lat="42.8698177" lon="13.1509835"><ele>861.75</ele><time>2026-04-26T08:03:01.951Z</time></trkpt><trkpt lat="42.8696931" lon="13.1510135"><ele>860.5</ele><time>2026-04-26T08:03:02.951Z</time></trkpt><trkpt lat="42.8695728" lon="13.1510245"><ele>859.25</ele><time>2026-04-26T08:03:03.955Z</time></trkpt><trkpt lat="42.8694467" lon="13.1510024"><ele>858.0</ele><time>2026-04-26T08:03:04.954Z</time></trkpt><trkpt lat="42.869319" lon="13.1509559"><ele>859.3333333333333</ele><time>2026-04-26T08:03:05.949Z</time></trkpt><trkpt lat="42.8691811" lon="13.1508956"><ele>860.6666666666666</ele><time>2026-04-26T08:03:06.951Z</time></trkpt><trkpt lat="42.8690372" lon="13.1508392"><ele>862.0</ele><time>2026-04-26T08:03:07.953Z</time></trkpt><trkpt lat="42.8688831" lon="13.1508023"><ele>862.0</ele><time>2026-04-26T08:03:08.955Z</time></trkpt><trkpt lat="42.8687545" lon="13.1507541"><ele>862.0</ele><time>2026-04-26T08:03:09.948Z</time></trkpt><trkpt lat="42.8686177" lon="13.150685"><ele>862.0</ele><time>2026-04-26T08:03:10.952Z</time></trkpt><trkpt lat="42.868492" lon="13.1505934"><ele>862.0</ele><time>2026-04-26T08:03:11.951Z</time></trkpt><trkpt lat="42.8683766" lon="13.1505143"><ele>866.4000000000001</ele><time>2026-04-26T08:03:12.954Z</time></trkpt><trkpt lat="42.8682776" lon="13.1504533"><ele>870.8000000000001</ele><time>2026-04-26T08:03:13.951Z</time></trkpt><trkpt lat="42.8681784" lon="13.1504182"><ele>875.2</ele><time>2026-04-26T08:03:14.954Z</time></trkpt><trkpt lat="42.8680774" lon="13.1504141"><ele>879.6</ele><time>2026-04-26T08:03:15.961Z</time></trkpt><trkpt lat="42.867967" lon="13.1504461"><ele>884.0</ele><time>2026-04-26T08:03:16.949Z</time></trkpt><trkpt lat="42.8678468" lon="13.1504957"><ele>884.0</ele><time>2026-04-26T08:03:17.957Z</time></trkpt><trkpt lat="42.8677299" lon="13.1506194"><ele>884.0</ele><time>2026-04-26T08:03:18.953Z</time></trkpt><trkpt lat="42.8675949" lon="13.1507535"><ele>884.0</ele><time>2026-04-26T08:03:19.947Z</time></trkpt><trkpt lat="42.8674649" lon="13.1508739"><ele>881.75</ele><time>2026-04-26T08:03:20.951Z</time></trkpt><trkpt lat="42.8673502" lon="13.150973"><ele>879.5</ele><time>2026-04-26T08:03:21.947Z</time></trkpt><trkpt lat="42.867247" lon="13.1510513"><ele>877.25</ele><time>2026-04-26T08:03:22.951Z</time></trkpt><trkpt lat="42.8671524" lon="13.1511194"><ele>875.0</ele><time>2026-04-26T08:03:23.949Z</time></trkpt><trkpt lat="42.8670412" lon="13.1511826"><ele>875.0</ele><time>2026-04-26T08:03:24.952Z</time></trkpt><trkpt lat="42.8669163" lon="13.1512352"><ele>875.0</ele><time>2026-04-26T08:03:25.951Z</time></trkpt><trkpt lat="42.8667801" lon="13.1512818"><ele>875.0</ele><time>2026-04-26T08:03:26.954Z</time></trkpt><trkpt lat="42.8666419" lon="13.1513116"><ele>875.0</ele><time>2026-04-26T08:03:27.95Z</time></trkpt><trkpt lat="42.86649" lon="13.1513264"><ele>878.6666666666667</ele><time>2026-04-26T08:03:28.95Z</time></trkpt><trkpt lat="42.8663319" lon="13.1513367"><ele>882.3333333333333</ele><time>2026-04-26T08:03:29.95Z</time></trkpt><trkpt lat="42.8661715" lon="13.15135"><ele>886.0</ele><time>2026-04-26T08:03:30.948Z</time></trkpt><trkpt lat="42.8660203" lon="13.1513853"><ele>886.3333333333333</ele><time>2026-04-26T08:03:31.955Z</time></trkpt><trkpt lat="42.8658621" lon="13.1514519"><ele>886.6666666666667</ele><time>2026-04-26T08:03:32.956Z</time></trkpt><trkpt lat="42.8657046" lon="13.1515221"><ele>887.0</ele><time>2026-04-26T08:03:33.947Z</time></trkpt><trkpt lat="42.8655409" lon="13.1515834"><ele>887.0</ele><time>2026-04-26T08:03:34.958Z</time></trkpt><trkpt lat="42.8653861" lon="13.1516385"><ele>887.0</ele><time>2026-04-26T08:03:35.952Z</time></trkpt><trkpt lat="42.8652454" lon="13.1516842"><ele>887.0</ele><time>2026-04-26T08:03:36.955Z</time></trkpt><trkpt lat="42.8651049" lon="13.151738"><ele>890.25</ele><time>2026-04-26T08:03:37.947Z</time></trkpt><trkpt lat="42.8649735" lon="13.1517876"><ele>893.5</ele><time>2026-04-26T08:03:38.955Z</time></trkpt><trkpt lat="42.8648535" lon="13.151837"><ele>896.75</ele><time>2026-04-26T08:03:39.952Z</time></trkpt><trkpt lat="42.8647392" lon="13.1518565"><ele>900.0</ele><time>2026-04-26T08:03:40.951Z</time></trkpt><trkpt lat="42.8646231" lon="13.1518698"><ele>900.0</ele><time>2026-04-26T08:03:41.954Z</time></trkpt><trkpt lat="42.8645132" lon="13.1518636"><ele>900.0</ele><time>2026-04-26T08:03:42.955Z</time></trkpt><trkpt lat="42.8644013" lon="13.1518275"><ele>900.0</ele><time>2026-04-26T08:03:43.952Z</time></trkpt><trkpt lat="42.8642901" lon="13.1517939"><ele>900.0</ele><time>2026-04-26T08:03:44.949Z</time></trkpt><trkpt lat="42.8641712" lon="13.1517755"><ele>902.0</ele><time>2026-04-26T08:03:45.949Z</time></trkpt><trkpt lat="42.8640443" lon="13.1517454"><ele>904.0</ele><time>2026-04-26T08:03:46.952Z</time></trkpt><trkpt lat="42.8639125" lon="13.151741"><ele>906.0</ele><time>2026-04-26T08:03:47.952Z</time></trkpt><trkpt lat="42.8637843" lon="13.1517619"><ele>908.0</ele><time>2026-04-26T08:03:48.952Z</time></trkpt><trkpt lat="42.863651" lon="13.1517867"><ele>908.0000000000001</ele><time>2026-04-26T08:03:49.947Z</time></trkpt><trkpt lat="42.8635452" lon="13.1518426"><ele>908.0</ele><time>2026-04-26T08:03:50.95Z</time></trkpt><trkpt lat="42.8634539" lon="13.1518828"><ele>908.0</ele><time>2026-04-26T08:03:51.953Z</time></trkpt><trkpt lat="42.8633737" lon="13.1518963"><ele>908.0</ele><time>2026-04-26T08:03:52.956Z</time></trkpt><trkpt lat="42.8633003" lon="13.1518999"><ele>908.0000000000001</ele><time>2026-04-26T08:03:53.955Z</time></trkpt><trkpt lat="42.8632337" lon="13.1518966"><ele>908.0</ele><time>2026-04-26T08:03:54.953Z</time></trkpt><trkpt lat="42.8631607" lon="13.1518848"><ele>909.5999999999999</ele><time>2026-04-26T08:03:55.945Z</time></trkpt><trkpt lat="42.8630806" lon="13.1518827"><ele>911.1999999999999</ele><time>2026-04-26T08:03:56.949Z</time></trkpt><trkpt lat="42.8629889" lon="13.1519029"><ele>912.8</ele><time>2026-04-26T08:03:57.952Z</time></trkpt><trkpt lat="42.8628933" lon="13.1519229"><ele>914.4</ele><time>2026-04-26T08:03:58.946Z</time></trkpt><trkpt lat="42.8627932" lon="13.1519324"><ele>916.0</ele><time>2026-04-26T08:03:59.947Z</time></trkpt><trkpt lat="42.8626784" lon="13.1519275"><ele>919.25</ele><time>2026-04-26T08:04:00.951Z</time></trkpt><trkpt lat="42.862564" lon="13.1519287"><ele>922.5</ele><time>2026-04-26T08:04:01.953Z</time></trkpt><trkpt lat="42.8624406" lon="13.151926"><ele>925.75</ele><time>2026-04-26T08:04:02.948Z</time></trkpt><trkpt lat="42.8623035" lon="13.1519325"><ele>929.0</ele><time>2026-04-26T08:04:03.955Z</time></trkpt><trkpt lat="42.8621642" lon="13.1519282"><ele>929.0</ele><time>2026-04-26T08:04:04.947Z</time></trkpt><trkpt lat="42.8620581" lon="13.1519231"><ele>929.0000000000001</ele><time>2026-04-26T08:04:05.949Z</time></trkpt><trkpt lat="42.8619579" lon="13.1519062"><ele>929.0000000000001</ele><time>2026-04-26T08:04:06.95Z</time></trkpt><trkpt lat="42.8618634" lon="13.1519046"><ele>929.0</ele><time>2026-04-26T08:04:07.95Z</time></trkpt><trkpt lat="42.8617584" lon="13.1519408"><ele>929.0</ele><time>2026-04-26T08:04:08.95Z</time></trkpt><trkpt lat="42.8616554" lon="13.1519873"><ele>929.5</ele><time>2026-04-26T08:04:09.953Z</time></trkpt><trkpt lat="42.8615486" lon="13.1520296"><ele>930.0</ele><time>2026-04-26T08:04:10.952Z</time></trkpt><trkpt lat="42.8614419" lon="13.1520649"><ele>930.5</ele><time>2026-04-26T08:04:11.949Z</time></trkpt><trkpt lat="42.8613174" lon="13.1520929"><ele>931.0</ele><time>2026-04-26T08:04:12.952Z</time></trkpt><trkpt lat="42.861176" lon="13.1521222"><ele>931.0</ele><time>2026-04-26T08:04:13.951Z</time></trkpt><trkpt lat="42.8610287" lon="13.1521419"><ele>931.0</ele><time>2026-04-26T08:04:14.951Z</time></trkpt><trkpt lat="42.8608781" lon="13.1521644"><ele>931.0</ele><time>2026-04-26T08:04:15.951Z</time></trkpt><trkpt lat="42.8607278" lon="13.1521792"><ele>933.25</ele><time>2026-04-26T08:04:16.951Z</time></trkpt><trkpt lat="42.8605915" lon="13.1522035"><ele>935.5</ele><time>2026-04-26T08:04:17.95Z</time></trkpt><trkpt lat="42.8604606" lon="13.1522459"><ele>937.75</ele><time>2026-04-26T08:04:18.952Z</time></trkpt><trkpt lat="42.860334" lon="13.1522909"><ele>940.0</ele><time>2026-04-26T08:04:19.949Z</time></trkpt><trkpt lat="42.8602122" lon="13.1523488"><ele>943.5</ele><time>2026-04-26T08:04:20.947Z</time></trkpt><trkpt lat="42.8600952" lon="13.152406"><ele>947.0</ele><time>2026-04-26T08:04:21.948Z</time></trkpt><trkpt lat="42.8599909" lon="13.1524833"><ele>950.5</ele><time>2026-04-26T08:04:22.948Z</time></trkpt><trkpt lat="42.8598828" lon="13.1525621"><ele>954.0</ele><time>2026-04-26T08:04:23.954Z</time></trkpt><trkpt lat="42.8597609" lon="13.1526099"><ele>954.0</ele><time>2026-04-26T08:04:24.947Z</time></trkpt><trkpt lat="42.8596401" lon="13.1526651"><ele>954.0</ele><time>2026-04-26T08:04:25.952Z</time></trkpt><trkpt lat="42.8595246" lon="13.1527235"><ele>954.0</ele><time>2026-04-26T08:04:26.951Z</time></trkpt><trkpt lat="42.8594074" lon="13.1527938"><ele>954.0</ele><time>2026-04-26T08:04:27.95Z</time></trkpt><trkpt lat="42.8592902" lon="13.1528687"><ele>957.25</ele><time>2026-04-26T08:04:28.953Z</time></trkpt><trkpt lat="42.8591761" lon="13.15295"><ele>960.5</ele><time>2026-04-26T08:04:29.947Z</time></trkpt><trkpt lat="42.8590669" lon="13.1530289"><ele>963.75</ele><time>2026-04-26T08:04:30.946Z</time></trkpt><trkpt lat="42.8589665" lon="13.1531041"><ele>967.0</ele><time>2026-04-26T08:04:31.946Z</time></trkpt><trkpt lat="42.8588693" lon="13.1531504"><ele>967.0</ele><time>2026-04-26T08:04:32.954Z</time></trkpt><trkpt lat="42.8587542" lon="13.1531903"><ele>967.0</ele><time>2026-04-26T08:04:33.949Z</time></trkpt><trkpt lat="42.8586506" lon="13.1532267"><ele>967.0</ele><time>2026-04-26T08:04:34.95Z</time></trkpt><trkpt lat="42.8585719" lon="13.1532677"><ele>967.0</ele><time>2026-04-26T08:04:35.948Z</time></trkpt><trkpt lat="42.8585079" lon="13.1533386"><ele>967.0</ele><time>2026-04-26T08:04:36.951Z</time></trkpt><trkpt lat="42.8584452" lon="13.1534193"><ele>971.9999999999999</ele><time>2026-04-26T08:04:37.946Z</time></trkpt><trkpt lat="42.8584011" lon="13.1535388"><ele>977.0</ele><time>2026-04-26T08:04:38.949Z</time></trkpt><trkpt lat="42.85837" lon="13.1536436"><ele>982.0</ele><time>2026-04-26T08:04:39.948Z</time></trkpt><trkpt lat="42.8583494" lon="13.1537355"><ele>987.0</ele><time>2026-04-26T08:04:40.947Z</time></trkpt><trkpt lat="42.8583467" lon="13.1538282"><ele>991.9999999999999</ele><time>2026-04-26T08:04:41.95Z</time></trkpt><trkpt lat="42.8583614" lon="13.1539192"><ele>997.0</ele><time>2026-04-26T08:04:42.945Z</time></trkpt><trkpt lat="42.8583885" lon="13.1540147"><ele>995.8333333333333</ele><time>2026-04-26T08:04:43.949Z</time></trkpt><trkpt lat="42.8584257" lon="13.1541057"><ele>994.6666666666666</ele><time>2026-04-26T08:04:44.952Z</time></trkpt><trkpt lat="42.8584657" lon="13.1541908"><ele>993.5</ele><time>2026-04-26T08:04:45.949Z</time></trkpt><trkpt lat="42.858521" lon="13.1542517"><ele>992.3333333333333</ele><time>2026-04-26T08:04:46.956Z</time></trkpt><trkpt lat="42.8586039" lon="13.154288"><ele>991.1666666666666</ele><time>2026-04-26T08:04:47.949Z</time></trkpt><trkpt lat="42.8586928" lon="13.1543095"><ele>990.0</ele><time>2026-04-26T08:04:48.95Z</time></trkpt><trkpt lat="42.8588016" lon="13.1543132"><ele>989.6</ele><time>2026-04-26T08:04:49.948Z</time></trkpt><trkpt lat="42.8589246" lon="13.1543355"><ele>989.2</ele><time>2026-04-26T08:04:50.943Z</time></trkpt><trkpt lat="42.8590252" lon="13.1543592"><ele>988.8</ele><time>2026-04-26T08:04:51.947Z</time></trkpt><trkpt lat="42.8590933" lon="13.1543714"><ele>988.4</ele><time>2026-04-26T08:04:52.95Z</time></trkpt><trkpt lat="42.8592062" lon="13.1543023"><ele>988.0</ele><time>2026-04-26T08:04:54.954Z</time></trkpt><trkpt lat="42.859292" lon="13.154255"><ele>986.8333333333333</ele><time>2026-04-26T08:04:55.958Z</time></trkpt><trkpt lat="42.859371" lon="13.1542097"><ele>985.6666666666666</ele><time>2026-04-26T08:04:56.953Z</time></trkpt><trkpt lat="42.859446" lon="13.1541519"><ele>984.5</ele><time>2026-04-26T08:04:57.955Z</time></trkpt><trkpt lat="42.8595209" lon="13.1540969"><ele>983.3333333333333</ele><time>2026-04-26T08:04:58.951Z</time></trkpt><trkpt lat="42.8595963" lon="13.15404"><ele>982.1666666666666</ele><time>2026-04-26T08:04:59.951Z</time></trkpt><trkpt lat="42.8596715" lon="13.153981"><ele>981.0</ele><time>2026-04-26T08:05:00.949Z</time></trkpt><trkpt lat="42.8597483" lon="13.1539163"><ele>981.0</ele><time>2026-04-26T08:05:01.949Z</time></trkpt><trkpt lat="42.8598186" lon="13.1538495"><ele>981.0</ele><time>2026-04-26T08:05:02.95Z</time></trkpt><trkpt lat="42.8598825" lon="13.1537809"><ele>981.0</ele><time>2026-04-26T08:05:03.951Z</time></trkpt><trkpt lat="42.8599371" lon="13.1537132"><ele>981.0</ele><time>2026-04-26T08:05:04.946Z</time></trkpt><trkpt lat="42.8600185" lon="13.1536175"><ele>981.0</ele><time>2026-04-26T08:05:06.951Z</time></trkpt><trkpt lat="42.8600888" lon="13.1536356"><ele>981.0</ele><time>2026-04-26T08:05:08.953Z</time></trkpt><trkpt lat="42.8601293" lon="13.1537014"><ele>981.0</ele><time>2026-04-26T08:05:10.949Z</time></trkpt><trkpt lat="42.8601237" lon="13.1537878"><ele>980.9999999999999</ele><time>2026-04-26T08:05:12.947Z</time></trkpt><trkpt lat="42.8600512" lon="13.1538826"><ele>980.9999999999999</ele><time>2026-04-26T08:05:14.955Z</time></trkpt><trkpt lat="42.8599877" lon="13.153948"><ele>981.0</ele><time>2026-04-26T08:05:15.952Z</time></trkpt><trkpt lat="42.8599123" lon="13.1540274"><ele>981.0</ele><time>2026-04-26T08:05:16.948Z</time></trkpt><trkpt lat="42.8598249" lon="13.1541259"><ele>988.5</ele><time>2026-04-26T08:05:17.953Z</time></trkpt><trkpt lat="42.8597244" lon="13.1542461"><ele>996.0</ele><time>2026-04-26T08:05:18.95Z</time></trkpt><trkpt lat="42.8596231" lon="13.1543742"><ele>1003.5</ele><time>2026-04-26T08:05:19.955Z</time></trkpt><trkpt lat="42.8595275" lon="13.1544931"><ele>1011.0</ele><time>2026-04-26T08:05:20.945Z</time></trkpt><trkpt lat="42.8594281" lon="13.1546111"><ele>1011.0</ele><time>2026-04-26T08:05:21.952Z</time></trkpt><trkpt lat="42.8593343" lon="13.1547143"><ele>1011.0</ele><time>2026-04-26T08:05:22.944Z</time></trkpt><trkpt lat="42.8592434" lon="13.1548087"><ele>1011.0</ele><time>2026-04-26T08:05:23.948Z</time></trkpt><trkpt lat="42.8591591" lon="13.1549073"><ele>1011.0</ele><time>2026-04-26T08:05:24.951Z</time></trkpt><trkpt lat="42.8590853" lon="13.1550254"><ele>1012.1666666666666</ele><time>2026-04-26T08:05:25.95Z</time></trkpt><trkpt lat="42.8590234" lon="13.1551431"><ele>1013.3333333333333</ele><time>2026-04-26T08:05:26.952Z</time></trkpt><trkpt lat="42.8589611" lon="13.1552356"><ele>1014.5</ele><time>2026-04-26T08:05:27.952Z</time></trkpt><trkpt lat="42.8588958" lon="13.155291"><ele>1015.6666666666666</ele><time>2026-04-26T08:05:28.946Z</time></trkpt><trkpt lat="42.8588203" lon="13.155317"><ele>1016.8333333333333</ele><time>2026-04-26T08:05:29.947Z</time></trkpt><trkpt lat="42.8587364" lon="13.1553299"><ele>1018.0</ele><time>2026-04-26T08:05:30.947Z</time></trkpt><trkpt lat="42.8586336" lon="13.155345"><ele>1018.0</ele><time>2026-04-26T08:05:31.949Z</time></trkpt><trkpt lat="42.8585176" lon="13.1553565"><ele>1018.0</ele><time>2026-04-26T08:05:32.955Z</time></trkpt><trkpt lat="42.858389" lon="13.1553833"><ele>1018.0</ele><time>2026-04-26T08:05:33.948Z</time></trkpt><trkpt lat="42.8582438" lon="13.1554083"><ele>1018.0</ele><time>2026-04-26T08:05:34.949Z</time></trkpt><trkpt lat="42.8580934" lon="13.1554243"><ele>1015.25</ele><time>2026-04-26T08:05:35.946Z</time></trkpt><trkpt lat="42.8579653" lon="13.1554354"><ele>1012.5</ele><time>2026-04-26T08:05:36.948Z</time></trkpt><trkpt lat="42.8578464" lon="13.1554529"><ele>1009.75</ele><time>2026-04-26T08:05:37.952Z</time></trkpt><trkpt lat="42.8577393" lon="13.1554877"><ele>1007.0</ele><time>2026-04-26T08:05:38.95Z</time></trkpt><trkpt lat="42.8576478" lon="13.1555225"><ele>1009.6</ele><time>2026-04-26T08:05:39.95Z</time></trkpt><trkpt lat="42.8575646" lon="13.1555348"><ele>1012.2</ele><time>2026-04-26T08:05:40.957Z</time></trkpt><trkpt lat="42.8574839" lon="13.155513"><ele>1014.8</ele><time>2026-04-26T08:05:41.95Z</time></trkpt><trkpt lat="42.8574076" lon="13.1554522"><ele>1017.4</ele><time>2026-04-26T08:05:42.95Z</time></trkpt><trkpt lat="42.8573428" lon="13.1553512"><ele>1020.0</ele><time>2026-04-26T08:05:43.952Z</time></trkpt><trkpt lat="42.8572908" lon="13.1552359"><ele>1020.0</ele><time>2026-04-26T08:05:44.949Z</time></trkpt><trkpt lat="42.8572403" lon="13.1551406"><ele>1020.0</ele><time>2026-04-26T08:05:45.95Z</time></trkpt><trkpt lat="42.8571789" lon="13.1550657"><ele>1020.0</ele><time>2026-04-26T08:05:46.948Z</time></trkpt><trkpt lat="42.8571169" lon="13.1550136"><ele>1020.0</ele><time>2026-04-26T08:05:47.955Z</time></trkpt><trkpt lat="42.8570181" lon="13.1549765"><ele>1020.0</ele><time>2026-04-26T08:05:48.955Z</time></trkpt><trkpt lat="42.8568846" lon="13.1549641"><ele>1026.0</ele><time>2026-04-26T08:05:49.948Z</time></trkpt><trkpt lat="42.8567353" lon="13.1549451"><ele>1032.0</ele><time>2026-04-26T08:05:50.948Z</time></trkpt><trkpt lat="42.8565756" lon="13.1549182"><ele>1038.0</ele><time>2026-04-26T08:05:51.95Z</time></trkpt><trkpt lat="42.8564467" lon="13.154906"><ele>1044.0</ele><time>2026-04-26T08:05:52.947Z</time></trkpt><trkpt lat="42.8563268" lon="13.1548966"><ele>1044.0</ele><time>2026-04-26T08:05:53.947Z</time></trkpt><trkpt lat="42.8562138" lon="13.1548936"><ele>1044.0</ele><time>2026-04-26T08:05:54.946Z</time></trkpt><trkpt lat="42.8561061" lon="13.1548907"><ele>1044.0</ele><time>2026-04-26T08:05:55.957Z</time></trkpt><trkpt lat="42.8559961" lon="13.1548931"><ele>1044.0</ele><time>2026-04-26T08:05:56.948Z</time></trkpt><trkpt lat="42.8558886" lon="13.1548973"><ele>1044.0</ele><time>2026-04-26T08:05:57.95Z</time></trkpt><trkpt lat="42.8557849" lon="13.1549019"><ele>1045.0</ele><time>2026-04-26T08:05:58.947Z</time></trkpt><trkpt lat="42.8556832" lon="13.1549205"><ele>1046.0</ele><time>2026-04-26T08:05:59.945Z</time></trkpt><trkpt lat="42.8555861" lon="13.1549585"><ele>1047.0</ele><time>2026-04-26T08:06:00.953Z</time></trkpt><trkpt lat="42.8554848" lon="13.1550071"><ele>1048.0</ele><time>2026-04-26T08:06:01.954Z</time></trkpt><trkpt lat="42.8553741" lon="13.1550604"><ele>1049.0</ele><time>2026-04-26T08:06:02.953Z</time></trkpt><trkpt lat="42.8552439" lon="13.1551049"><ele>1050.0</ele><time>2026-04-26T08:06:03.965Z</time></trkpt><trkpt lat="42.8551083" lon="13.1551458"><ele>1051.0</ele><time>2026-04-26T08:06:04.949Z</time></trkpt><trkpt lat="42.8549746" lon="13.1552002"><ele>1052.0</ele><time>2026-04-26T08:06:05.949Z</time></trkpt><trkpt lat="42.8548527" lon="13.1552398"><ele>1053.0</ele><time>2026-04-26T08:06:06.945Z</time></trkpt><trkpt lat="42.8547525" lon="13.1552637"><ele>1053.0</ele><time>2026-04-26T08:06:07.954Z</time></trkpt><trkpt lat="42.8546594" lon="13.1552896"><ele>1053.0</ele><time>2026-04-26T08:06:08.951Z</time></trkpt><trkpt lat="42.8545888" lon="13.1553082"><ele>1053.0</ele><time>2026-04-26T08:06:09.948Z</time></trkpt><trkpt lat="42.8545014" lon="13.155282"><ele>1053.0</ele><time>2026-04-26T08:06:10.949Z</time></trkpt><trkpt lat="42.8544001" lon="13.1552285"><ele>1053.0</ele><time>2026-04-26T08:06:11.949Z</time></trkpt><trkpt lat="42.8542947" lon="13.1551525"><ele>1056.2</ele><time>2026-04-26T08:06:12.948Z</time></trkpt><trkpt lat="42.854197" lon="13.1551303"><ele>1059.4</ele><time>2026-04-26T08:06:13.957Z</time></trkpt><trkpt lat="42.8540922" lon="13.1551057"><ele>1062.6000000000001</ele><time>2026-04-26T08:06:14.949Z</time></trkpt><trkpt lat="42.8539794" lon="13.1551185"><ele>1065.8</ele><time>2026-04-26T08:06:15.945Z</time></trkpt><trkpt lat="42.8538654" lon="13.1551419"><ele>1069.0</ele><time>2026-04-26T08:06:16.951Z</time></trkpt><trkpt lat="42.8537494" lon="13.155171"><ele>1069.0</ele><time>2026-04-26T08:06:17.951Z</time></trkpt><trkpt lat="42.8536463" lon="13.1552147"><ele>1069.0</ele><time>2026-04-26T08:06:18.948Z</time></trkpt><trkpt lat="42.8535368" lon="13.155232"><ele>1069.0</ele><time>2026-04-26T08:06:19.957Z</time></trkpt><trkpt lat="42.8534206" lon="13.155232"><ele>1069.0</ele><time>2026-04-26T08:06:20.95Z</time></trkpt><trkpt lat="42.8533101" lon="13.1552234"><ele>1069.0</ele><time>2026-04-26T08:06:21.946Z</time></trkpt><trkpt lat="42.8532208" lon="13.1552165"><ele>1071.857142857143</ele><time>2026-04-26T08:06:22.949Z</time></trkpt><trkpt lat="42.8531374" lon="13.1552249"><ele>1074.7142857142858</ele><time>2026-04-26T08:06:23.948Z</time></trkpt><trkpt lat="42.8530609" lon="13.1552521"><ele>1077.5714285714287</ele><time>2026-04-26T08:06:24.95Z</time></trkpt><trkpt lat="42.8529861" lon="13.1552353"><ele>1080.4285714285716</ele><time>2026-04-26T08:06:25.948Z</time></trkpt><trkpt lat="42.8529229" lon="13.1552714"><ele>1083.2857142857142</ele><time>2026-04-26T08:06:26.949Z</time></trkpt><trkpt lat="42.852858" lon="13.1553215"><ele>1086.1428571428573</ele><time>2026-04-26T08:06:27.951Z</time></trkpt><trkpt lat="42.8527924" lon="13.1553389"><ele>1089.0</ele><time>2026-04-26T08:06:28.956Z</time></trkpt><trkpt lat="42.8527335" lon="13.1554658"><ele>1089.0</ele><time>2026-04-26T08:06:30.954Z</time></trkpt><trkpt lat="42.8527128" lon="13.1556192"><ele>1089.0</ele><time>2026-04-26T08:06:32.953Z</time></trkpt><trkpt lat="42.8527469" lon="13.1557566"><ele>1089.0</ele><time>2026-04-26T08:06:34.946Z</time></trkpt><trkpt lat="42.8528251" lon="13.1558531"><ele>1089.0</ele><time>2026-04-26T08:06:36.951Z</time></trkpt><trkpt lat="42.8528792" lon="13.1558979"><ele>1089.0</ele><time>2026-04-26T08:06:37.947Z</time></trkpt><trkpt lat="42.8529802" lon="13.1559586"><ele>1089.1666666666667</ele><time>2026-04-26T08:06:39.954Z</time></trkpt><trkpt lat="42.853042" lon="13.1559862"><ele>1089.3333333333333</ele><time>2026-04-26T08:06:40.946Z</time></trkpt><trkpt lat="42.8531149" lon="13.1560226"><ele>1089.5</ele><time>2026-04-26T08:06:41.953Z</time></trkpt><trkpt lat="42.8531938" lon="13.1560302"><ele>1089.6666666666665</ele><time>2026-04-26T08:06:42.947Z</time></trkpt><trkpt lat="42.8532784" lon="13.1560438"><ele>1089.8333333333333</ele><time>2026-04-26T08:06:43.946Z</time></trkpt><trkpt lat="42.853382" lon="13.1560404"><ele>1090.0</ele><time>2026-04-26T08:06:44.949Z</time></trkpt><trkpt lat="42.8534884" lon="13.1560277"><ele>1090.0</ele><time>2026-04-26T08:06:45.952Z</time></trkpt><trkpt lat="42.8535785" lon="13.1560333"><ele>1090.0</ele><time>2026-04-26T08:06:46.95Z</time></trkpt><trkpt lat="42.8536612" lon="13.1560463"><ele>1090.0</ele><time>2026-04-26T08:06:47.954Z</time></trkpt><trkpt lat="42.8537315" lon="13.1560666"><ele>1090.0</ele><time>2026-04-26T08:06:48.946Z</time></trkpt><trkpt lat="42.853809" lon="13.1561538"><ele>1090.0</ele><time>2026-04-26T08:06:50.947Z</time></trkpt><trkpt lat="42.8538047" lon="13.1562635"><ele>1090.0</ele><time>2026-04-26T08:06:52.951Z</time></trkpt><trkpt lat="42.8537362" lon="13.1563321"><ele>1090.0</ele><time>2026-04-26T08:06:54.946Z</time></trkpt><trkpt lat="42.8536663" lon="13.1563359"><ele>1090.0</ele><time>2026-04-26T08:06:55.95Z</time></trkpt><trkpt lat="42.8535902" lon="13.1563403"><ele>1090.0</ele><time>2026-04-26T08:06:56.947Z</time></trkpt><trkpt lat="42.8534726" lon="13.156331"><ele>1090.0</ele><time>2026-04-26T08:06:57.948Z</time></trkpt><trkpt lat="42.8533376" lon="13.1563237"><ele>1090.0</ele><time>2026-04-26T08:06:58.975Z</time></trkpt><trkpt lat="42.8532068" lon="13.1563083"><ele>1090.8</ele><time>2026-04-26T08:06:59.946Z</time></trkpt><trkpt lat="42.8530906" lon="13.1562897"><ele>1091.6</ele><time>2026-04-26T08:07:00.949Z</time></trkpt><trkpt lat="42.8529818" lon="13.1562744"><ele>1092.4</ele><time>2026-04-26T08:07:01.946Z</time></trkpt><trkpt lat="42.8528876" lon="13.1562681"><ele>1093.2</ele><time>2026-04-26T08:07:02.946Z</time></trkpt><trkpt lat="42.8527911" lon="13.1562424"><ele>1094.0</ele><time>2026-04-26T08:07:03.954Z</time></trkpt><trkpt lat="42.8526885" lon="13.1562168"><ele>1096.5</ele><time>2026-04-26T08:07:04.952Z</time></trkpt><trkpt lat="42.8525867" lon="13.1561894"><ele>1099.0</ele><time>2026-04-26T08:07:05.955Z</time></trkpt><trkpt lat="42.852479" lon="13.1561618"><ele>1101.5</ele><time>2026-04-26T08:07:06.948Z</time></trkpt><trkpt lat="42.852361" lon="13.1561189"><ele>1104.0</ele><time>2026-04-26T08:07:07.95Z</time></trkpt><trkpt lat="42.8522482" lon="13.156088"><ele>1104.0</ele><time>2026-04-26T08:07:08.948Z</time></trkpt><trkpt lat="42.8521225" lon="13.1560683"><ele>1104.0</ele><time>2026-04-26T08:07:09.948Z</time></trkpt><trkpt lat="42.8519857" lon="13.156034"><ele>1104.0</ele><time>2026-04-26T08:07:10.952Z</time></trkpt><trkpt lat="42.8518526" lon="13.1559979"><ele>1104.0</ele><time>2026-04-26T08:07:11.95Z</time></trkpt><trkpt lat="42.8517568" lon="13.1559728"><ele>1110.0</ele><time>2026-04-26T08:07:12.948Z</time></trkpt><trkpt lat="42.8516558" lon="13.1559291"><ele>1116.0</ele><time>2026-04-26T08:07:13.953Z</time></trkpt><trkpt lat="42.8515474" lon="13.1558765"><ele>1122.0</ele><time>2026-04-26T08:07:14.952Z</time></trkpt><trkpt lat="42.851439" lon="13.1558271"><ele>1128.0</ele><time>2026-04-26T08:07:15.954Z</time></trkpt><trkpt lat="42.8513276" lon="13.1557889"><ele>1128.0</ele><time>2026-04-26T08:07:16.948Z</time></trkpt><trkpt lat="42.8512211" lon="13.1557545"><ele>1128.0</ele><time>2026-04-26T08:07:17.949Z</time></trkpt><trkpt lat="42.8511304" lon="13.1557142"><ele>1128.0</ele><time>2026-04-26T08:07:18.958Z</time></trkpt><trkpt lat="42.8510624" lon="13.1556745"><ele>1128.0</ele><time>2026-04-26T08:07:19.954Z</time></trkpt><trkpt lat="42.8510057" lon="13.1556201"><ele>1128.0</ele><time>2026-04-26T08:07:20.949Z</time></trkpt><trkpt lat="42.8509575" lon="13.1555275"><ele>1128.0</ele><time>2026-04-26T08:07:21.952Z</time></trkpt><trkpt lat="42.8509043" lon="13.1554103"><ele>1129.8333333333333</ele><time>2026-04-26T08:07:22.95Z</time></trkpt><trkpt lat="42.8508458" lon="13.1553127"><ele>1131.6666666666667</ele><time>2026-04-26T08:07:23.945Z</time></trkpt><trkpt lat="42.8507816" lon="13.1552295"><ele>1133.5</ele><time>2026-04-26T08:07:24.948Z</time></trkpt><trkpt lat="42.8507202" lon="13.1551803"><ele>1135.3333333333335</ele><time>2026-04-26T08:07:25.953Z</time></trkpt><trkpt lat="42.8506455" lon="13.1551421"><ele>1137.1666666666667</ele><time>2026-04-26T08:07:26.95Z</time></trkpt><trkpt lat="42.8505695" lon="13.1551063"><ele>1139.0</ele><time>2026-04-26T08:07:27.954Z</time></trkpt><trkpt lat="42.8504523" lon="13.1550711"><ele>1139.0</ele><time>2026-04-26T08:07:28.948Z</time></trkpt><trkpt lat="42.8503533" lon="13.1550414"><ele>1139.0</ele><time>2026-04-26T08:07:29.95Z</time></trkpt><trkpt lat="42.8502623" lon="13.1550359"><ele>1139.0</ele><time>2026-04-26T08:07:30.956Z</time></trkpt><trkpt lat="42.8501593" lon="13.1549424"><ele>1139.0</ele><time>2026-04-26T08:07:32.955Z</time></trkpt><trkpt lat="42.8500972" lon="13.154785"><ele>1139.0</ele><time>2026-04-26T08:07:34.95Z</time></trkpt><trkpt lat="42.8500736" lon="13.1546886"><ele>1142.2</ele><time>2026-04-26T08:07:35.954Z</time></trkpt><trkpt lat="42.8500709" lon="13.1545848"><ele>1145.4</ele><time>2026-04-26T08:07:36.949Z</time></trkpt><trkpt lat="42.8500724" lon="13.1544276"><ele>1148.6</ele><time>2026-04-26T08:07:37.957Z</time></trkpt><trkpt lat="42.8500617" lon="13.1542641"><ele>1151.8</ele><time>2026-04-26T08:07:38.948Z</time></trkpt><trkpt lat="42.850063" lon="13.1541148"><ele>1155.0</ele><time>2026-04-26T08:07:39.95Z</time></trkpt><trkpt lat="42.850067" lon="13.1539945"><ele>1165.5</ele><time>2026-04-26T08:07:40.949Z</time></trkpt><trkpt lat="42.8500763" lon="13.1538853"><ele>1176.0</ele><time>2026-04-26T08:07:41.956Z</time></trkpt><trkpt lat="42.8501155" lon="13.153772"><ele>1186.5</ele><time>2026-04-26T08:07:43.953Z</time></trkpt><trkpt lat="42.850218" lon="13.1536985"><ele>1197.0</ele><time>2026-04-26T08:07:45.947Z</time></trkpt><trkpt lat="42.8502832" lon="13.1536623"><ele>1207.5</ele><time>2026-04-26T08:07:46.957Z</time></trkpt><trkpt lat="42.8503699" lon="13.1536471"><ele>1218.0</ele><time>2026-04-26T08:07:47.95Z</time></trkpt><trkpt lat="42.8504641" lon="13.1536612"><ele>1218.0</ele><time>2026-04-26T08:07:48.951Z</time></trkpt><trkpt lat="42.8505569" lon="13.1537374"><ele>1218.0</ele><time>2026-04-26T08:07:49.949Z</time></trkpt><trkpt lat="42.8506404" lon="13.1538349"><ele>1218.0</ele><time>2026-04-26T08:07:50.95Z</time></trkpt><trkpt lat="42.8507298" lon="13.1538477"><ele>1218.0</ele><time>2026-04-26T08:07:51.952Z</time></trkpt><trkpt lat="42.8508236" lon="13.1538641"><ele>1218.0</ele><time>2026-04-26T08:07:52.952Z</time></trkpt><trkpt lat="42.8509233" lon="13.1538842"><ele>1217.2</ele><time>2026-04-26T08:07:53.956Z</time></trkpt><trkpt lat="42.8510192" lon="13.1539192"><ele>1216.4</ele><time>2026-04-26T08:07:54.952Z</time></trkpt><trkpt lat="42.8511115" lon="13.1539335"><ele>1215.6000000000001</ele><time>2026-04-26T08:07:55.954Z</time></trkpt><trkpt lat="42.8512038" lon="13.153914"><ele>1214.8</ele><time>2026-04-26T08:07:56.952Z</time></trkpt><trkpt lat="42.8513079" lon="13.153893"><ele>1214.0</ele><time>2026-04-26T08:07:57.958Z</time></trkpt><trkpt lat="42.8514173" lon="13.1538719"><ele>1214.0</ele><time>2026-04-26T08:07:58.952Z</time></trkpt><trkpt lat="42.8515171" lon="13.1538524"><ele>1214.0</ele><time>2026-04-26T08:07:59.951Z</time></trkpt><trkpt lat="42.8516076" lon="13.1538741"><ele>1214.0</ele><time>2026-04-26T08:08:00.948Z</time></trkpt><trkpt lat="42.8517007" lon="13.1539114"><ele>1214.0</ele><time>2026-04-26T08:08:01.954Z</time></trkpt><trkpt lat="42.8517908" lon="13.1539477"><ele>1214.0</ele><time>2026-04-26T08:08:02.95Z</time></trkpt><trkpt lat="42.8518736" lon="13.1539969"><ele>1212.3333333333335</ele><time>2026-04-26T08:08:03.949Z</time></trkpt><trkpt lat="42.8519514" lon="13.1540355"><ele>1210.6666666666667</ele><time>2026-04-26T08:08:04.948Z</time></trkpt><trkpt lat="42.8520444" lon="13.1541072"><ele>1209.0</ele><time>2026-04-26T08:08:06.948Z</time></trkpt><trkpt lat="42.8521066" lon="13.1541395"><ele>1207.3333333333333</ele><time>2026-04-26T08:08:09.946Z</time></trkpt><trkpt lat="42.8521886" lon="13.1540991"><ele>1205.6666666666665</ele><time>2026-04-26T08:09:59.95Z</time></trkpt><trkpt lat="42.852285" lon="13.1540602"><ele>1204.0</ele><time>2026-04-26T08:10:01.956Z</time></trkpt><trkpt lat="42.8523457" lon="13.1540332"><ele>1204.0</ele><time>2026-04-26T08:10:02.952Z</time></trkpt><trkpt lat="42.8524168" lon="13.1540001"><ele>1204.0</ele><time>2026-04-26T08:10:03.957Z</time></trkpt><trkpt lat="42.8524985" lon="13.1539525"><ele>1204.0</ele><time>2026-04-26T08:10:04.953Z</time></trkpt><trkpt lat="42.8525805" lon="13.1538984"><ele>1204.0</ele><time>2026-04-26T08:10:05.954Z</time></trkpt><trkpt lat="42.8526591" lon="13.153843"><ele>1204.0</ele><time>2026-04-26T08:10:06.96Z</time></trkpt><trkpt lat="42.8527337" lon="13.1537801"><ele>1204.0</ele><time>2026-04-26T08:10:07.953Z</time></trkpt><trkpt lat="42.8527968" lon="13.1537061"><ele>1197.4</ele><time>2026-04-26T08:10:08.968Z</time></trkpt><trkpt lat="42.8528506" lon="13.1536106"><ele>1190.8000000000002</ele><time>2026-04-26T08:10:09.954Z</time></trkpt><trkpt lat="42.852904" lon="13.1534888"><ele>1184.1999999999998</ele><time>2026-04-26T08:10:10.959Z</time></trkpt><trkpt lat="42.8529448" lon="13.1533722"><ele>1177.6</ele><time>2026-04-26T08:10:11.952Z</time></trkpt><trkpt lat="42.8529739" lon="13.1532734"><ele>1171.0</ele><time>2026-04-26T08:10:12.955Z</time></trkpt><trkpt lat="42.8529983" lon="13.1531165"><ele>1171.0</ele><time>2026-04-26T08:10:14.957Z</time></trkpt><trkpt lat="42.8529781" lon="13.1529837"><ele>1171.0</ele><time>2026-04-26T08:10:16.954Z</time></trkpt><trkpt lat="42.8529105" lon="13.152891"><ele>1171.0</ele><time>2026-04-26T08:10:18.955Z</time></trkpt><trkpt lat="42.8527992" lon="13.1528095"><ele>1171.0</ele><time>2026-04-26T08:10:20.958Z</time></trkpt><trkpt lat="42.8527403" lon="13.1527627"><ele>1171.0</ele><time>2026-04-26T08:10:21.951Z</time></trkpt><trkpt lat="42.8526748" lon="13.1527114"><ele>1177.0</ele><time>2026-04-26T08:10:22.953Z</time></trkpt><trkpt lat="42.8526087" lon="13.1526526"><ele>1183.0</ele><time>2026-04-26T08:10:23.952Z</time></trkpt><trkpt lat="42.8525455" lon="13.1525876"><ele>1189.0</ele><time>2026-04-26T08:10:24.959Z</time></trkpt><trkpt lat="42.8524881" lon="13.1525151"><ele>1195.0</ele><time>2026-04-26T08:10:25.947Z</time></trkpt><trkpt lat="42.8524371" lon="13.1524378"><ele>1201.0</ele><time>2026-04-26T08:10:26.957Z</time></trkpt><trkpt lat="42.8523962" lon="13.1523552"><ele>1207.0</ele><time>2026-04-26T08:10:27.96Z</time></trkpt><trkpt lat="42.8523513" lon="13.1522596"><ele>1207.8333333333333</ele><time>2026-04-26T08:10:28.953Z</time></trkpt><trkpt lat="42.852326" lon="13.1521762"><ele>1208.6666666666665</ele><time>2026-04-26T08:10:29.967Z</time></trkpt><trkpt lat="42.8522884" lon="13.1520262"><ele>1209.5</ele><time>2026-04-26T08:10:31.957Z</time></trkpt><trkpt lat="42.8523062" lon="13.1518747"><ele>1210.3333333333333</ele><time>2026-04-26T08:10:33.955Z</time></trkpt><trkpt lat="42.8523355" lon="13.1517843"><ele>1211.1666666666667</ele><time>2026-04-26T08:10:34.953Z</time></trkpt><trkpt lat="42.8523825" lon="13.1516994"><ele>1212.0</ele><time>2026-04-26T08:10:35.958Z</time></trkpt><trkpt lat="42.852473" lon="13.1516614"><ele>1212.0</ele><time>2026-04-26T08:10:36.959Z</time></trkpt><trkpt lat="42.8525588" lon="13.1516594"><ele>1212.0</ele><time>2026-04-26T08:10:37.952Z</time></trkpt><trkpt lat="42.8526411" lon="13.1516649"><ele>1212.0</ele><time>2026-04-26T08:10:38.954Z</time></trkpt><trkpt lat="42.8527267" lon="13.1516828"><ele>1212.0</ele><time>2026-04-26T08:10:39.952Z</time></trkpt><trkpt lat="42.8528152" lon="13.1516933"><ele>1212.0</ele><time>2026-04-26T08:10:40.953Z</time></trkpt><trkpt lat="42.8529022" lon="13.1517054"><ele>1212.0</ele><time>2026-04-26T08:10:41.954Z</time></trkpt><trkpt lat="42.8529666" lon="13.1517125"><ele>1214.2</ele><time>2026-04-26T08:10:42.953Z</time></trkpt><trkpt lat="42.8530876" lon="13.1517105"><ele>1216.4</ele><time>2026-04-26T08:10:44.958Z</time></trkpt><trkpt lat="42.8532102" lon="13.1516563"><ele>1218.6</ele><time>2026-04-26T08:10:46.957Z</time></trkpt><trkpt lat="42.8532744" lon="13.1516065"><ele>1220.8</ele><time>2026-04-26T08:10:47.955Z</time></trkpt><trkpt lat="42.8533373" lon="13.1515393"><ele>1223.0</ele><time>2026-04-26T08:10:48.954Z</time></trkpt><trkpt lat="42.8533967" lon="13.151454"><ele>1223.0</ele><time>2026-04-26T08:10:49.957Z</time></trkpt><trkpt lat="42.8534503" lon="13.151343"><ele>1223.0</ele><time>2026-04-26T08:10:50.953Z</time></trkpt><trkpt lat="42.8535067" lon="13.1512212"><ele>1223.0</ele><time>2026-04-26T08:10:51.96Z</time></trkpt><trkpt lat="42.8535615" lon="13.1510858"><ele>1223.0</ele><time>2026-04-26T08:10:52.952Z</time></trkpt><trkpt lat="42.8536191" lon="13.1509669"><ele>1223.0</ele><time>2026-04-26T08:10:53.954Z</time></trkpt><trkpt lat="42.8536746" lon="13.1508505"><ele>1221.8333333333335</ele><time>2026-04-26T08:10:54.953Z</time></trkpt><trkpt lat="42.8537403" lon="13.1507624"><ele>1220.6666666666667</ele><time>2026-04-26T08:10:55.952Z</time></trkpt><trkpt lat="42.8538141" lon="13.1507094"><ele>1219.5</ele><time>2026-04-26T08:10:56.952Z</time></trkpt><trkpt lat="42.8538807" lon="13.1506778"><ele>1218.3333333333333</ele><time>2026-04-26T08:10:57.951Z</time></trkpt><trkpt lat="42.8539483" lon="13.1506666"><ele>1217.1666666666665</ele><time>2026-04-26T08:10:58.954Z</time></trkpt><trkpt lat="42.8540346" lon="13.1506716"><ele>1216.0</ele><time>2026-04-26T08:10:59.956Z</time></trkpt><trkpt lat="42.854113" lon="13.1507016"><ele>1216.0</ele><time>2026-04-26T08:11:00.955Z</time></trkpt><trkpt lat="42.8542039" lon="13.1507439"><ele>1216.0</ele><time>2026-04-26T08:11:01.955Z</time></trkpt><trkpt lat="42.8543064" lon="13.1507893"><ele>1216.0</ele><time>2026-04-26T08:11:02.953Z</time></trkpt><trkpt lat="42.8544395" lon="13.1507939"><ele>1216.0</ele><time>2026-04-26T08:11:03.954Z</time></trkpt><trkpt lat="42.8545829" lon="13.1507706"><ele>1215.6</ele><time>2026-04-26T08:11:04.954Z</time></trkpt><trkpt lat="42.8547131" lon="13.1507555"><ele>1215.1999999999998</ele><time>2026-04-26T08:11:05.955Z</time></trkpt><trkpt lat="42.8548188" lon="13.1507188"><ele>1214.8000000000002</ele><time>2026-04-26T08:11:06.953Z</time></trkpt><trkpt lat="42.8549164" lon="13.1506855"><ele>1214.4</ele><time>2026-04-26T08:11:07.954Z</time></trkpt><trkpt lat="42.8550026" lon="13.150637"><ele>1214.0</ele><time>2026-04-26T08:11:08.957Z</time></trkpt><trkpt lat="42.8550652" lon="13.150595"><ele>1213.0</ele><time>2026-04-26T08:11:09.96Z</time></trkpt><trkpt lat="42.8551466" lon="13.1505128"><ele>1212.0</ele><time>2026-04-26T08:11:11.954Z</time></trkpt><trkpt lat="42.8551807" lon="13.1503879"><ele>1211.0</ele><time>2026-04-26T08:11:13.954Z</time></trkpt><trkpt lat="42.855164" lon="13.1502537"><ele>1210.0</ele><time>2026-04-26T08:11:15.955Z</time></trkpt><trkpt lat="42.8550966" lon="13.1501337"><ele>1209.0</ele><time>2026-04-26T08:11:17.961Z</time></trkpt><trkpt lat="42.8550461" lon="13.1500307"><ele>1213.1666666666667</ele><time>2026-04-26T08:11:19.96Z</time></trkpt><trkpt lat="42.8550123" lon="13.1499322"><ele>1217.3333333333333</ele><time>2026-04-26T08:11:22.958Z</time></trkpt><trkpt lat="42.8549938" lon="13.1498476"><ele>1221.5</ele><time>2026-04-26T08:11:24.958Z</time></trkpt><trkpt lat="42.8549827" lon="13.1497623"><ele>1225.6666666666665</ele><time>2026-04-26T08:11:26.958Z</time></trkpt><trkpt lat="42.8549962" lon="13.1496619"><ele>1229.8333333333333</ele><time>2026-04-26T08:11:28.96Z</time></trkpt><trkpt lat="42.8550454" lon="13.1495292"><ele>1234.0</ele><time>2026-04-26T08:11:30.963Z</time></trkpt><trkpt lat="42.8550921" lon="13.1494614"><ele>1232.8</ele><time>2026-04-26T08:11:31.963Z</time></trkpt><trkpt lat="42.8551503" lon="13.149389"><ele>1231.6000000000001</ele><time>2026-04-26T08:11:32.958Z</time></trkpt><trkpt lat="42.8552184" lon="13.1493126"><ele>1230.4</ele><time>2026-04-26T08:11:33.959Z</time></trkpt><trkpt lat="42.8552925" lon="13.1492358"><ele>1229.2</ele><time>2026-04-26T08:11:34.957Z</time></trkpt><trkpt lat="42.8553705" lon="13.1491524"><ele>1228.0</ele><time>2026-04-26T08:11:35.953Z</time></trkpt><trkpt lat="42.8554506" lon="13.1490544"><ele>1235.75</ele><time>2026-04-26T08:11:36.958Z</time></trkpt><trkpt lat="42.8555322" lon="13.1489411"><ele>1243.5</ele><time>2026-04-26T08:11:37.96Z</time></trkpt><trkpt lat="42.8556174" lon="13.14882"><ele>1251.25</ele><time>2026-04-26T08:11:38.964Z</time></trkpt><trkpt lat="42.8557034" lon="13.1487013"><ele>1259.0</ele><time>2026-04-26T08:11:39.964Z</time></trkpt><trkpt lat="42.8557919" lon="13.1485959"><ele>1259.0</ele><time>2026-04-26T08:11:40.959Z</time></trkpt><trkpt lat="42.8558786" lon="13.1484928"><ele>1259.0</ele><time>2026-04-26T08:11:41.966Z</time></trkpt><trkpt lat="42.8559615" lon="13.1484054"><ele>1259.0</ele><time>2026-04-26T08:11:42.963Z</time></trkpt><trkpt lat="42.8560437" lon="13.1483218"><ele>1259.0</ele><time>2026-04-26T08:11:43.963Z</time></trkpt><trkpt lat="42.8561245" lon="13.1482368"><ele>1259.0</ele><time>2026-04-26T08:11:44.961Z</time></trkpt><trkpt lat="42.8562001" lon="13.1481543"><ele>1262.2</ele><time>2026-04-26T08:11:45.964Z</time></trkpt><trkpt lat="42.8562752" lon="13.1480683"><ele>1265.4</ele><time>2026-04-26T08:11:46.963Z</time></trkpt><trkpt lat="42.8563495" lon="13.1479838"><ele>1268.6</ele><time>2026-04-26T08:11:47.966Z</time></trkpt><trkpt lat="42.8564218" lon="13.1478995"><ele>1271.8</ele><time>2026-04-26T08:11:48.958Z</time></trkpt><trkpt lat="42.8564944" lon="13.1478187"><ele>1275.0</ele><time>2026-04-26T08:11:49.955Z</time></trkpt><trkpt lat="42.8565662" lon="13.1477616"><ele>1275.0</ele><time>2026-04-26T08:11:50.962Z</time></trkpt><trkpt lat="42.8566384" lon="13.147716"><ele>1275.0</ele><time>2026-04-26T08:11:51.959Z</time></trkpt><trkpt lat="42.8567111" lon="13.1476816"><ele>1275.0</ele><time>2026-04-26T08:11:52.955Z</time></trkpt><trkpt lat="42.8567826" lon="13.1476579"><ele>1275.0</ele><time>2026-04-26T08:11:53.957Z</time></trkpt><trkpt lat="42.8568605" lon="13.1476433"><ele>1275.0</ele><time>2026-04-26T08:11:54.958Z</time></trkpt><trkpt lat="42.8569353" lon="13.1476198"><ele>1275.0</ele><time>2026-04-26T08:11:55.965Z</time></trkpt><trkpt lat="42.857009" lon="13.1475882"><ele>1277.0</ele><time>2026-04-26T08:11:56.959Z</time></trkpt><trkpt lat="42.8570816" lon="13.1475518"><ele>1279.0</ele><time>2026-04-26T08:11:57.956Z</time></trkpt><trkpt lat="42.8571421" lon="13.1475065"><ele>1281.0</ele><time>2026-04-26T08:11:58.958Z</time></trkpt><trkpt lat="42.8572075" lon="13.1474498"><ele>1283.0</ele><time>2026-04-26T08:11:59.964Z</time></trkpt><trkpt lat="42.8572685" lon="13.1473884"><ele>1285.0</ele><time>2026-04-26T08:12:00.96Z</time></trkpt><trkpt lat="42.8573257" lon="13.1473288"><ele>1287.0</ele><time>2026-04-26T08:12:01.962Z</time></trkpt><trkpt lat="42.8573696" lon="13.1472609"><ele>1289.0</ele><time>2026-04-26T08:12:02.958Z</time></trkpt><trkpt lat="42.8574184" lon="13.1471809"><ele>1289.0</ele><time>2026-04-26T08:12:03.965Z</time></trkpt><trkpt lat="42.8574681" lon="13.1470965"><ele>1289.0</ele><time>2026-04-26T08:12:04.959Z</time></trkpt><trkpt lat="42.8575153" lon="13.1470054"><ele>1289.0</ele><time>2026-04-26T08:12:05.952Z</time></trkpt><trkpt lat="42.8575779" lon="13.1469091"><ele>1289.0</ele><time>2026-04-26T08:12:06.961Z</time></trkpt><trkpt lat="42.8576442" lon="13.1468209"><ele>1289.0</ele><time>2026-04-26T08:12:07.958Z</time></trkpt><trkpt lat="42.8577175" lon="13.1467397"><ele>1289.0</ele><time>2026-04-26T08:12:08.966Z</time></trkpt><trkpt lat="42.8577917" lon="13.1466538"><ele>1286.1666666666667</ele><time>2026-04-26T08:12:09.956Z</time></trkpt><trkpt lat="42.857866" lon="13.1465776"><ele>1283.3333333333335</ele><time>2026-04-26T08:12:10.959Z</time></trkpt><trkpt lat="42.8579373" lon="13.1465004"><ele>1280.5</ele><time>2026-04-26T08:12:11.955Z</time></trkpt><trkpt lat="42.8579931" lon="13.1464401"><ele>1277.6666666666667</ele><time>2026-04-26T08:12:12.958Z</time></trkpt><trkpt lat="42.8580429" lon="13.1463735"><ele>1274.8333333333333</ele><time>2026-04-26T08:12:13.964Z</time></trkpt><trkpt lat="42.8580829" lon="13.1462983"><ele>1272.0</ele><time>2026-04-26T08:12:14.96Z</time></trkpt><trkpt lat="42.8581152" lon="13.1462245"><ele>1272.0</ele><time>2026-04-26T08:12:15.958Z</time></trkpt><trkpt lat="42.8581498" lon="13.1461412"><ele>1272.0</ele><time>2026-04-26T08:12:16.957Z</time></trkpt><trkpt lat="42.858205" lon="13.1460571"><ele>1272.0</ele><time>2026-04-26T08:12:17.955Z</time></trkpt><trkpt lat="42.8582554" lon="13.1459725"><ele>1272.0</ele><time>2026-04-26T08:12:18.959Z</time></trkpt><trkpt lat="42.8583082" lon="13.145886"><ele>1272.0</ele><time>2026-04-26T08:12:19.951Z</time></trkpt><trkpt lat="42.8583457" lon="13.1458045"><ele>1272.0</ele><time>2026-04-26T08:12:20.955Z</time></trkpt><trkpt lat="42.8584167" lon="13.1456689"><ele>1270.8</ele><time>2026-04-26T08:12:22.955Z</time></trkpt><trkpt lat="42.8584768" lon="13.1455414"><ele>1269.6</ele><time>2026-04-26T08:12:24.963Z</time></trkpt><trkpt lat="42.8585164" lon="13.1453816"><ele>1268.3999999999999</ele><time>2026-04-26T08:12:26.954Z</time></trkpt><trkpt lat="42.8585097" lon="13.1452957"><ele>1267.2</ele><time>2026-04-26T08:12:27.963Z</time></trkpt><trkpt lat="42.8584991" lon="13.1451335"><ele>1266.0</ele><time>2026-04-26T08:12:29.96Z</time></trkpt><trkpt lat="42.8584856" lon="13.1449827"><ele>1276.8</ele><time>2026-04-26T08:12:31.962Z</time></trkpt><trkpt lat="42.8584778" lon="13.1448686"><ele>1287.6</ele><time>2026-04-26T08:12:33.968Z</time></trkpt><trkpt lat="42.858546" lon="13.1447911"><ele>1298.4</ele><time>2026-04-26T08:12:36.962Z</time></trkpt><trkpt lat="42.8586478" lon="13.1447672"><ele>1309.2</ele><time>2026-04-26T08:12:38.963Z</time></trkpt><trkpt lat="42.8587778" lon="13.144771"><ele>1320.0</ele><time>2026-04-26T08:12:40.954Z</time></trkpt><trkpt lat="42.8588411" lon="13.1447784"><ele>1320.0</ele><time>2026-04-26T08:12:41.959Z</time></trkpt><trkpt lat="42.8589526" lon="13.1447823"><ele>1320.0</ele><time>2026-04-26T08:12:43.956Z</time></trkpt><trkpt lat="42.85903" lon="13.1447873"><ele>1320.0</ele><time>2026-04-26T08:12:44.954Z</time></trkpt><trkpt lat="42.8591182" lon="13.1448158"><ele>1320.0</ele><time>2026-04-26T08:12:45.962Z</time></trkpt><trkpt lat="42.8592049" lon="13.1448439"><ele>1320.0</ele><time>2026-04-26T08:12:46.956Z</time></trkpt><trkpt lat="42.8592989" lon="13.144866"><ele>1322.2</ele><time>2026-04-26T08:12:47.967Z</time></trkpt><trkpt lat="42.859402" lon="13.144848"><ele>1324.4</ele><time>2026-04-26T08:12:48.96Z</time></trkpt><trkpt lat="42.8594933" lon="13.1448402"><ele>1326.6</ele><time>2026-04-26T08:12:49.965Z</time></trkpt><trkpt lat="42.8595863" lon="13.1448347"><ele>1328.8</ele><time>2026-04-26T08:12:50.964Z</time></trkpt><trkpt lat="42.8596811" lon="13.1448415"><ele>1331.0</ele><time>2026-04-26T08:12:51.959Z</time></trkpt><trkpt lat="42.8597781" lon="13.1448617"><ele>1331.0</ele><time>2026-04-26T08:12:52.965Z</time></trkpt><trkpt lat="42.8598666" lon="13.1448737"><ele>1331.0</ele><time>2026-04-26T08:12:53.965Z</time></trkpt><trkpt lat="42.8599434" lon="13.1449007"><ele>1331.0</ele><time>2026-04-26T08:12:54.967Z</time></trkpt><trkpt lat="42.860013" lon="13.1449283"><ele>1331.0</ele><time>2026-04-26T08:12:55.959Z</time></trkpt><trkpt lat="42.8600895" lon="13.1449625"><ele>1331.0</ele><time>2026-04-26T08:12:56.961Z</time></trkpt><trkpt lat="42.8601678" lon="13.1449967"><ele>1331.0</ele><time>2026-04-26T08:12:57.963Z</time></trkpt><trkpt lat="42.8602566" lon="13.1450308"><ele>1323.0</ele><time>2026-04-26T08:12:58.962Z</time></trkpt><trkpt lat="42.860345" lon="13.1450663"><ele>1315.0</ele><time>2026-04-26T08:12:59.972Z</time></trkpt><trkpt lat="42.8604328" lon="13.1450966"><ele>1307.0</ele><time>2026-04-26T08:13:00.958Z</time></trkpt><trkpt lat="42.8605223" lon="13.1451217"><ele>1299.0</ele><time>2026-04-26T08:13:01.959Z</time></trkpt><trkpt lat="42.8606076" lon="13.1451338"><ele>1291.0</ele><time>2026-04-26T08:13:02.965Z</time></trkpt><trkpt lat="42.860686" lon="13.1451433"><ele>1283.0</ele><time>2026-04-26T08:13:03.972Z</time></trkpt><trkpt lat="42.8607611" lon="13.1451449"><ele>1283.0</ele><time>2026-04-26T08:13:04.966Z</time></trkpt><trkpt lat="42.8608337" lon="13.1451481"><ele>1283.0</ele><time>2026-04-26T08:13:05.962Z</time></trkpt><trkpt lat="42.8609034" lon="13.1451427"><ele>1283.0</ele><time>2026-04-26T08:13:06.963Z</time></trkpt><trkpt lat="42.8609685" lon="13.1451389"><ele>1283.0</ele><time>2026-04-26T08:13:07.968Z</time></trkpt><trkpt lat="42.861073" lon="13.1451091"><ele>1283.0</ele><time>2026-04-26T08:13:09.958Z</time></trkpt><trkpt lat="42.861172" lon="13.1450474"><ele>1283.0</ele><time>2026-04-26T08:13:11.974Z</time></trkpt><trkpt lat="42.8612616" lon="13.1449695"><ele>1287.6000000000001</ele><time>2026-04-26T08:13:13.963Z</time></trkpt><trkpt lat="42.8613651" lon="13.144869"><ele>1292.2</ele><time>2026-04-26T08:13:15.956Z</time></trkpt><trkpt lat="42.8614168" lon="13.1448176"><ele>1296.8</ele><time>2026-04-26T08:13:16.972Z</time></trkpt><trkpt lat="42.8615069" lon="13.1447428"><ele>1301.4</ele><time>2026-04-26T08:13:18.967Z</time></trkpt><trkpt lat="42.8616121" lon="13.1446898"><ele>1306.0</ele><time>2026-04-26T08:13:20.963Z</time></trkpt><trkpt lat="42.8616965" lon="13.1446344"><ele>1300.3999999999999</ele><time>2026-04-26T08:13:22.967Z</time></trkpt><trkpt lat="42.8617851" lon="13.1445706"><ele>1294.8</ele><time>2026-04-26T08:13:24.97Z</time></trkpt><trkpt lat="42.8618731" lon="13.1444776"><ele>1289.1999999999998</ele><time>2026-04-26T08:13:26.969Z</time></trkpt><trkpt lat="42.8619561" lon="13.1443604"><ele>1283.6</ele><time>2026-04-26T08:13:28.971Z</time></trkpt><trkpt lat="42.8620361" lon="13.1442627"><ele>1278.0</ele><time>2026-04-26T08:13:30.959Z</time></trkpt><trkpt lat="42.8621362" lon="13.1442068"><ele>1278.0</ele><time>2026-04-26T08:13:32.956Z</time></trkpt><trkpt lat="42.8622018" lon="13.1441887"><ele>1278.0</ele><time>2026-04-26T08:13:33.963Z</time></trkpt><trkpt lat="42.8622751" lon="13.1441861"><ele>1278.0</ele><time>2026-04-26T08:13:34.969Z</time></trkpt><trkpt lat="42.8623784" lon="13.1441891"><ele>1278.0</ele><time>2026-04-26T08:13:35.959Z</time></trkpt><trkpt lat="42.8624738" lon="13.1441983"><ele>1278.0</ele><time>2026-04-26T08:13:36.959Z</time></trkpt><trkpt lat="42.8625574" lon="13.1442112"><ele>1278.0</ele><time>2026-04-26T08:13:37.966Z</time></trkpt><trkpt lat="42.8626297" lon="13.1442167"><ele>1278.6666666666667</ele><time>2026-04-26T08:13:38.966Z</time></trkpt><trkpt lat="42.8627122" lon="13.1442122"><ele>1279.3333333333333</ele><time>2026-04-26T08:13:39.969Z</time></trkpt><trkpt lat="42.8627933" lon="13.1442143"><ele>1280.0</ele><time>2026-04-26T08:13:40.967Z</time></trkpt><trkpt lat="42.8628705" lon="13.1442188"><ele>1280.6666666666665</ele><time>2026-04-26T08:13:41.966Z</time></trkpt><trkpt lat="42.8629488" lon="13.144231"><ele>1281.3333333333333</ele><time>2026-04-26T08:13:42.959Z</time></trkpt><trkpt lat="42.8630264" lon="13.1442421"><ele>1282.0</ele><time>2026-04-26T08:13:43.962Z</time></trkpt><trkpt lat="42.8631025" lon="13.1442486"><ele>1282.0</ele><time>2026-04-26T08:13:44.964Z</time></trkpt><trkpt lat="42.8631841" lon="13.1442547"><ele>1282.0</ele><time>2026-04-26T08:13:45.959Z</time></trkpt><trkpt lat="42.8632707" lon="13.1442578"><ele>1282.0</ele><time>2026-04-26T08:13:46.959Z</time></trkpt><trkpt lat="42.8633631" lon="13.1442612"><ele>1282.0</ele><time>2026-04-26T08:13:47.966Z</time></trkpt><trkpt lat="42.8634587" lon="13.144267"><ele>1282.0</ele><time>2026-04-26T08:13:48.962Z</time></trkpt><trkpt lat="42.8635526" lon="13.1442598"><ele>1280.1999999999998</ele><time>2026-04-26T08:13:49.961Z</time></trkpt><trkpt lat="42.8636497" lon="13.1442372"><ele>1278.3999999999999</ele><time>2026-04-26T08:13:50.963Z</time></trkpt><trkpt lat="42.8637474" lon="13.1442021"><ele>1276.6</ele><time>2026-04-26T08:13:51.969Z</time></trkpt><trkpt lat="42.8638476" lon="13.1441737"><ele>1274.8</ele><time>2026-04-26T08:13:52.968Z</time></trkpt><trkpt lat="42.8639443" lon="13.1441451"><ele>1273.0</ele><time>2026-04-26T08:13:53.966Z</time></trkpt><trkpt lat="42.8640455" lon="13.1441476"><ele>1273.0</ele><time>2026-04-26T08:13:54.96Z</time></trkpt><trkpt lat="42.8641416" lon="13.1441599"><ele>1273.0</ele><time>2026-04-26T08:13:55.963Z</time></trkpt><trkpt lat="42.864232" lon="13.144169"><ele>1273.0</ele><time>2026-04-26T08:13:56.968Z</time></trkpt><trkpt lat="42.8643152" lon="13.1441716"><ele>1273.0</ele><time>2026-04-26T08:13:57.962Z</time></trkpt><trkpt lat="42.8643892" lon="13.1441588"><ele>1273.0</ele><time>2026-04-26T08:13:58.963Z</time></trkpt><trkpt lat="42.86445" lon="13.1441305"><ele>1273.0</ele><time>2026-04-26T08:13:59.956Z</time></trkpt><trkpt lat="42.8645047" lon="13.1440866"><ele>1272.2857142857142</ele><time>2026-04-26T08:14:00.962Z</time></trkpt><trkpt lat="42.8645512" lon="13.1440231"><ele>1271.5714285714287</ele><time>2026-04-26T08:14:01.975Z</time></trkpt><trkpt lat="42.8645892" lon="13.1439482"><ele>1270.857142857143</ele><time>2026-04-26T08:14:02.963Z</time></trkpt><trkpt lat="42.8646243" lon="13.1438722"><ele>1270.142857142857</ele><time>2026-04-26T08:14:03.96Z</time></trkpt><trkpt lat="42.8646629" lon="13.1437931"><ele>1269.4285714285713</ele><time>2026-04-26T08:14:04.965Z</time></trkpt><trkpt lat="42.8647009" lon="13.14371"><ele>1268.7142857142858</ele><time>2026-04-26T08:14:05.968Z</time></trkpt><trkpt lat="42.8647384" lon="13.1436178"><ele>1268.0</ele><time>2026-04-26T08:14:06.965Z</time></trkpt><trkpt lat="42.8647771" lon="13.1435166"><ele>1268.0</ele><time>2026-04-26T08:14:07.964Z</time></trkpt><trkpt lat="42.86482" lon="13.1434114"><ele>1268.0</ele><time>2026-04-26T08:14:08.962Z</time></trkpt><trkpt lat="42.8648685" lon="13.1433037"><ele>1268.0</ele><time>2026-04-26T08:14:09.959Z</time></trkpt><trkpt lat="42.8649102" lon="13.143195"><ele>1268.0</ele><time>2026-04-26T08:14:10.965Z</time></trkpt><trkpt lat="42.8649483" lon="13.1430803"><ele>1268.0</ele><time>2026-04-26T08:14:11.962Z</time></trkpt><trkpt lat="42.8649747" lon="13.142965"><ele>1269.6666666666667</ele><time>2026-04-26T08:14:12.96Z</time></trkpt><trkpt lat="42.8649884" lon="13.1428491"><ele>1271.3333333333335</ele><time>2026-04-26T08:14:13.959Z</time></trkpt><trkpt lat="42.8649939" lon="13.1427339"><ele>1273.0</ele><time>2026-04-26T08:14:14.967Z</time></trkpt><trkpt lat="42.8649976" lon="13.1426216"><ele>1274.6666666666667</ele><time>2026-04-26T08:14:15.955Z</time></trkpt><trkpt lat="42.8649876" lon="13.1425058"><ele>1276.3333333333333</ele><time>2026-04-26T08:14:16.964Z</time></trkpt><trkpt lat="42.8649761" lon="13.1423903"><ele>1278.0</ele><time>2026-04-26T08:14:17.967Z</time></trkpt><trkpt lat="42.8649651" lon="13.1422737"><ele>1278.8</ele><time>2026-04-26T08:14:18.965Z</time></trkpt><trkpt lat="42.8649562" lon="13.1421516"><ele>1279.6</ele><time>2026-04-26T08:14:19.959Z</time></trkpt><trkpt lat="42.8649433" lon="13.1420294"><ele>1280.3999999999999</ele><time>2026-04-26T08:14:20.967Z</time></trkpt><trkpt lat="42.864931" lon="13.1419055"><ele>1281.1999999999998</ele><time>2026-04-26T08:14:21.967Z</time></trkpt><trkpt lat="42.8649116" lon="13.1417811"><ele>1282.0</ele><time>2026-04-26T08:14:22.959Z</time></trkpt><trkpt lat="42.8648937" lon="13.1416492"><ele>1282.8333333333333</ele><time>2026-04-26T08:14:23.955Z</time></trkpt><trkpt lat="42.8648803" lon="13.1415172"><ele>1283.6666666666665</ele><time>2026-04-26T08:14:24.962Z</time></trkpt><trkpt lat="42.8648673" lon="13.1413978"><ele>1284.5</ele><time>2026-04-26T08:14:25.967Z</time></trkpt><trkpt lat="42.8648687" lon="13.1412788"><ele>1285.3333333333333</ele><time>2026-04-26T08:14:26.96Z</time></trkpt><trkpt lat="42.8648665" lon="13.1411637"><ele>1286.1666666666667</ele><time>2026-04-26T08:14:27.955Z</time></trkpt><trkpt lat="42.8648518" lon="13.1410588"><ele>1287.0</ele><time>2026-04-26T08:14:28.96Z</time></trkpt><trkpt lat="42.8648268" lon="13.1409642"><ele>1287.0</ele><time>2026-04-26T08:14:29.958Z</time></trkpt><trkpt lat="42.8647955" lon="13.140866"><ele>1287.0</ele><time>2026-04-26T08:14:30.958Z</time></trkpt><trkpt lat="42.8647702" lon="13.1407856"><ele>1287.0</ele><time>2026-04-26T08:14:31.967Z</time></trkpt><trkpt lat="42.8647528" lon="13.1407028"><ele>1287.0</ele><time>2026-04-26T08:14:32.959Z</time></trkpt><trkpt lat="42.8647403" lon="13.1405755"><ele>1287.0</ele><time>2026-04-26T08:14:34.966Z</time></trkpt><trkpt lat="42.8647885" lon="13.1404829"><ele>1287.0</ele><time>2026-04-26T08:14:36.955Z</time></trkpt><trkpt lat="42.8648835" lon="13.1404424"><ele>1292.1666666666667</ele><time>2026-04-26T08:14:38.961Z</time></trkpt><trkpt lat="42.8649528" lon="13.1404342"><ele>1297.3333333333333</ele><time>2026-04-26T08:14:39.956Z</time></trkpt><trkpt lat="42.8650327" lon="13.1404257"><ele>1302.5</ele><time>2026-04-26T08:14:40.964Z</time></trkpt><trkpt lat="42.8651119" lon="13.1404234"><ele>1307.6666666666665</ele><time>2026-04-26T08:14:41.963Z</time></trkpt><trkpt lat="42.8651904" lon="13.1404251"><ele>1312.8333333333333</ele><time>2026-04-26T08:14:42.956Z</time></trkpt><trkpt lat="42.8652641" lon="13.140436"><ele>1318.0</ele><time>2026-04-26T08:14:43.964Z</time></trkpt><trkpt lat="42.8653339" lon="13.1404519"><ele>1318.8333333333333</ele><time>2026-04-26T08:14:44.96Z</time></trkpt><trkpt lat="42.8654065" lon="13.1404536"><ele>1319.6666666666665</ele><time>2026-04-26T08:14:45.96Z</time></trkpt><trkpt lat="42.865489" lon="13.1404586"><ele>1320.5</ele><time>2026-04-26T08:14:46.964Z</time></trkpt><trkpt lat="42.8655898" lon="13.1404817"><ele>1321.3333333333333</ele><time>2026-04-26T08:14:47.956Z</time></trkpt><trkpt lat="42.8656809" lon="13.1405102"><ele>1322.1666666666667</ele><time>2026-04-26T08:14:48.953Z</time></trkpt><trkpt lat="42.8657707" lon="13.140517"><ele>1323.0</ele><time>2026-04-26T08:14:49.967Z</time></trkpt><trkpt lat="42.8658693" lon="13.1405191"><ele>1324.0</ele><time>2026-04-26T08:14:50.958Z</time></trkpt><trkpt lat="42.8659611" lon="13.1405227"><ele>1325.0</ele><time>2026-04-26T08:14:51.958Z</time></trkpt><trkpt lat="42.8660457" lon="13.1405258"><ele>1326.0</ele><time>2026-04-26T08:14:52.959Z</time></trkpt><trkpt lat="42.8661314" lon="13.1405348"><ele>1327.0</ele><time>2026-04-26T08:14:53.955Z</time></trkpt><trkpt lat="42.8662051" lon="13.1405413"><ele>1328.0</ele><time>2026-04-26T08:14:54.963Z</time></trkpt><trkpt lat="42.8663342" lon="13.1405537"><ele>1328.0</ele><time>2026-04-26T08:14:56.958Z</time></trkpt><trkpt lat="42.8664009" lon="13.1405769"><ele>1328.0</ele><time>2026-04-26T08:14:57.961Z</time></trkpt><trkpt lat="42.8665056" lon="13.1406139"><ele>1328.0</ele><time>2026-04-26T08:14:59.962Z</time></trkpt><trkpt lat="42.8665969" lon="13.1406435"><ele>1328.0</ele><time>2026-04-26T08:15:01.963Z</time></trkpt><trkpt lat="42.8666912" lon="13.1406753"><ele>1328.0</ele><time>2026-04-26T08:15:03.961Z</time></trkpt><trkpt lat="42.8667796" lon="13.1407"><ele>1327.0</ele><time>2026-04-26T08:15:05.967Z</time></trkpt><trkpt lat="42.8668843" lon="13.1407081"><ele>1326.0</ele><time>2026-04-26T08:15:07.96Z</time></trkpt><trkpt lat="42.8669506" lon="13.1407009"><ele>1325.0</ele><time>2026-04-26T08:15:08.959Z</time></trkpt><trkpt lat="42.8670133" lon="13.1406836"><ele>1324.0</ele><time>2026-04-26T08:15:09.966Z</time></trkpt><trkpt lat="42.8670748" lon="13.1406567"><ele>1323.0</ele><time>2026-04-26T08:15:10.966Z</time></trkpt><trkpt lat="42.8671396" lon="13.1406219"><ele>1322.0</ele><time>2026-04-26T08:15:11.962Z</time></trkpt><trkpt lat="42.8672054" lon="13.1405795"><ele>1321.0</ele><time>2026-04-26T08:15:12.964Z</time></trkpt><trkpt lat="42.8672706" lon="13.1405292"><ele>1321.0</ele><time>2026-04-26T08:15:13.963Z</time></trkpt><trkpt lat="42.8673362" lon="13.1404822"><ele>1321.0</ele><time>2026-04-26T08:15:14.959Z</time></trkpt><trkpt lat="42.8674033" lon="13.1404423"><ele>1321.0</ele><time>2026-04-26T08:15:15.962Z</time></trkpt><trkpt lat="42.8674639" lon="13.1404091"><ele>1321.0</ele><time>2026-04-26T08:15:16.958Z</time></trkpt><trkpt lat="42.8675785" lon="13.1403472"><ele>1321.0</ele><time>2026-04-26T08:15:18.963Z</time></trkpt><trkpt lat="42.8676475" lon="13.1403192"><ele>1321.0</ele><time>2026-04-26T08:15:19.962Z</time></trkpt><trkpt lat="42.8677195" lon="13.1402901"><ele>1318.3333333333333</ele><time>2026-04-26T08:15:20.964Z</time></trkpt><trkpt lat="42.8677903" lon="13.1402525"><ele>1315.6666666666665</ele><time>2026-04-26T08:15:21.956Z</time></trkpt><trkpt lat="42.8678633" lon="13.1401974"><ele>1313.0</ele><time>2026-04-26T08:15:22.96Z</time></trkpt><trkpt lat="42.8679316" lon="13.1401385"><ele>1310.3333333333333</ele><time>2026-04-26T08:15:23.969Z</time></trkpt><trkpt lat="42.8679984" lon="13.1400764"><ele>1307.6666666666667</ele><time>2026-04-26T08:15:24.97Z</time></trkpt><trkpt lat="42.8680703" lon="13.1400091"><ele>1305.0</ele><time>2026-04-26T08:15:25.961Z</time></trkpt><trkpt lat="42.8681457" lon="13.1399441"><ele>1306.2</ele><time>2026-04-26T08:15:26.968Z</time></trkpt><trkpt lat="42.8682197" lon="13.1398773"><ele>1307.4</ele><time>2026-04-26T08:15:27.958Z</time></trkpt><trkpt lat="42.8682947" lon="13.1398163"><ele>1308.6</ele><time>2026-04-26T08:15:28.956Z</time></trkpt><trkpt lat="42.8683684" lon="13.1397545"><ele>1309.8</ele><time>2026-04-26T08:15:29.966Z</time></trkpt><trkpt lat="42.8684462" lon="13.1396876"><ele>1311.0</ele><time>2026-04-26T08:15:30.97Z</time></trkpt><trkpt lat="42.8685287" lon="13.1396213"><ele>1311.0</ele><time>2026-04-26T08:15:31.963Z</time></trkpt><trkpt lat="42.8686145" lon="13.1395555"><ele>1311.0</ele><time>2026-04-26T08:15:32.961Z</time></trkpt><trkpt lat="42.8687064" lon="13.1394842"><ele>1311.0</ele><time>2026-04-26T08:15:33.964Z</time></trkpt><trkpt lat="42.8687942" lon="13.1394135"><ele>1311.0</ele><time>2026-04-26T08:15:34.971Z</time></trkpt><trkpt lat="42.8688709" lon="13.1393447"><ele>1311.0</ele><time>2026-04-26T08:15:35.971Z</time></trkpt><trkpt lat="42.8689448" lon="13.1392789"><ele>1311.0</ele><time>2026-04-26T08:15:36.967Z</time></trkpt><trkpt lat="42.8690119" lon="13.1392105"><ele>1311.0</ele><time>2026-04-26T08:15:37.964Z</time></trkpt><trkpt lat="42.8690693" lon="13.1391324"><ele>1311.0</ele><time>2026-04-26T08:15:38.966Z</time></trkpt><trkpt lat="42.8691177" lon="13.1390431"><ele>1311.0</ele><time>2026-04-26T08:15:39.968Z</time></trkpt><trkpt lat="42.8691541" lon="13.1389492"><ele>1311.0</ele><time>2026-04-26T08:15:40.97Z</time></trkpt><trkpt lat="42.8691894" lon="13.1388523"><ele>1311.0</ele><time>2026-04-26T08:15:41.97Z</time></trkpt><trkpt lat="42.8692156" lon="13.1387482"><ele>1309.5</ele><time>2026-04-26T08:15:42.962Z</time></trkpt><trkpt lat="42.869237" lon="13.1386502"><ele>1308.0</ele><time>2026-04-26T08:15:43.968Z</time></trkpt><trkpt lat="42.8692486" lon="13.1385447"><ele>1306.5</ele><time>2026-04-26T08:15:44.966Z</time></trkpt><trkpt lat="42.8692605" lon="13.1384298"><ele>1305.0</ele><time>2026-04-26T08:15:45.967Z</time></trkpt><trkpt lat="42.8692665" lon="13.1383054"><ele>1303.5</ele><time>2026-04-26T08:15:46.967Z</time></trkpt><trkpt lat="42.8692748" lon="13.1381835"><ele>1302.0</ele><time>2026-04-26T08:15:47.965Z</time></trkpt><trkpt lat="42.8692842" lon="13.1380689"><ele>1302.0</ele><time>2026-04-26T08:15:48.973Z</time></trkpt><trkpt lat="42.869299" lon="13.1379614"><ele>1302.0</ele><time>2026-04-26T08:15:49.963Z</time></trkpt><trkpt lat="42.8693078" lon="13.1378731"><ele>1302.0</ele><time>2026-04-26T08:15:50.966Z</time></trkpt><trkpt lat="42.8693156" lon="13.1377785"><ele>1302.0</ele><time>2026-04-26T08:15:51.97Z</time></trkpt><trkpt lat="42.8693246" lon="13.1376886"><ele>1302.0</ele><time>2026-04-26T08:15:52.969Z</time></trkpt><trkpt lat="42.8693525" lon="13.1375834"><ele>1302.0</ele><time>2026-04-26T08:15:53.96Z</time></trkpt><trkpt lat="42.8693861" lon="13.1374761"><ele>1302.0</ele><time>2026-04-26T08:15:54.956Z</time></trkpt><trkpt lat="42.8694207" lon="13.1373459"><ele>1305.0</ele><time>2026-04-26T08:15:55.966Z</time></trkpt><trkpt lat="42.8694528" lon="13.1372147"><ele>1308.0</ele><time>2026-04-26T08:15:56.967Z</time></trkpt><trkpt lat="42.869494" lon="13.1370791"><ele>1311.0</ele><time>2026-04-26T08:15:57.96Z</time></trkpt><trkpt lat="42.8695414" lon="13.1369521"><ele>1314.0</ele><time>2026-04-26T08:15:58.978Z</time></trkpt><trkpt lat="42.8695909" lon="13.1368421"><ele>1317.0</ele><time>2026-04-26T08:15:59.959Z</time></trkpt><trkpt lat="42.8696375" lon="13.1367268"><ele>1317.0</ele><time>2026-04-26T08:16:00.959Z</time></trkpt><trkpt lat="42.8696779" lon="13.1366295"><ele>1317.0</ele><time>2026-04-26T08:16:01.965Z</time></trkpt><trkpt lat="42.8697081" lon="13.1365279"><ele>1317.0</ele><time>2026-04-26T08:16:02.976Z</time></trkpt><trkpt lat="42.8697336" lon="13.1364262"><ele>1317.0</ele><time>2026-04-26T08:16:03.961Z</time></trkpt><trkpt lat="42.8697383" lon="13.1363088"><ele>1317.0</ele><time>2026-04-26T08:16:04.96Z</time></trkpt><trkpt lat="42.8697287" lon="13.1361897"><ele>1317.0</ele><time>2026-04-26T08:16:05.962Z</time></trkpt><trkpt lat="42.8697111" lon="13.1360742"><ele>1317.6666666666667</ele><time>2026-04-26T08:16:06.962Z</time></trkpt><trkpt lat="42.8696798" lon="13.135972"><ele>1318.3333333333333</ele><time>2026-04-26T08:16:07.966Z</time></trkpt><trkpt lat="42.869638" lon="13.1358817"><ele>1319.0</ele><time>2026-04-26T08:16:08.959Z</time></trkpt><trkpt lat="42.86958" lon="13.1358082"><ele>1319.6666666666665</ele><time>2026-04-26T08:16:09.968Z</time></trkpt><trkpt lat="42.869507" lon="13.1357487"><ele>1320.3333333333333</ele><time>2026-04-26T08:16:10.972Z</time></trkpt><trkpt lat="42.8694233" lon="13.135683"><ele>1321.0</ele><time>2026-04-26T08:16:11.97Z</time></trkpt><trkpt lat="42.8693246" lon="13.1356298"><ele>1326.0</ele><time>2026-04-26T08:16:12.967Z</time></trkpt><trkpt lat="42.8692435" lon="13.1355853"><ele>1331.0</ele><time>2026-04-26T08:16:13.964Z</time></trkpt><trkpt lat="42.8691692" lon="13.135547"><ele>1336.0</ele><time>2026-04-26T08:16:14.96Z</time></trkpt><trkpt lat="42.8691007" lon="13.1355081"><ele>1341.0</ele><time>2026-04-26T08:16:15.967Z</time></trkpt><trkpt lat="42.8690445" lon="13.1354683"><ele>1346.0</ele><time>2026-04-26T08:16:16.97Z</time></trkpt><trkpt lat="42.8689717" lon="13.1354104"><ele>1351.0</ele><time>2026-04-26T08:16:18.962Z</time></trkpt><trkpt lat="42.8689383" lon="13.135323"><ele>1351.0</ele><time>2026-04-26T08:16:20.97Z</time></trkpt><trkpt lat="42.8689501" lon="13.1352113"><ele>1351.0</ele><time>2026-04-26T08:16:22.96Z</time></trkpt><trkpt lat="42.8689933" lon="13.1351158"><ele>1351.0</ele><time>2026-04-26T08:16:24.962Z</time></trkpt><trkpt lat="42.8691055" lon="13.1350332"><ele>1351.0</ele><time>2026-04-26T08:16:26.963Z</time></trkpt><trkpt lat="42.8691848" lon="13.1349909"><ele>1351.0</ele><time>2026-04-26T08:16:27.962Z</time></trkpt><trkpt lat="42.869263" lon="13.134947"><ele>1350.8333333333333</ele><time>2026-04-26T08:16:28.966Z</time></trkpt><trkpt lat="42.8693387" lon="13.1349049"><ele>1350.6666666666665</ele><time>2026-04-26T08:16:29.966Z</time></trkpt><trkpt lat="42.8694137" lon="13.1348401"><ele>1350.5</ele><time>2026-04-26T08:16:30.96Z</time></trkpt><trkpt lat="42.8694801" lon="13.1347796"><ele>1350.3333333333333</ele><time>2026-04-26T08:16:31.959Z</time></trkpt><trkpt lat="42.8695396" lon="13.1347101"><ele>1350.1666666666667</ele><time>2026-04-26T08:16:32.959Z</time></trkpt><trkpt lat="42.8696056" lon="13.1346328"><ele>1350.0</ele><time>2026-04-26T08:16:33.965Z</time></trkpt><trkpt lat="42.869682" lon="13.1345569"><ele>1350.0</ele><time>2026-04-26T08:16:34.96Z</time></trkpt><trkpt lat="42.8697581" lon="13.1344895"><ele>1350.0</ele><time>2026-04-26T08:16:35.964Z</time></trkpt><trkpt lat="42.8698319" lon="13.1344298"><ele>1350.0</ele><time>2026-04-26T08:16:36.96Z</time></trkpt><trkpt lat="42.8699039" lon="13.1343658"><ele>1350.0</ele><time>2026-04-26T08:16:37.961Z</time></trkpt><trkpt lat="42.8699767" lon="13.1343044"><ele>1350.0</ele><time>2026-04-26T08:16:38.967Z</time></trkpt><trkpt lat="42.8700486" lon="13.1342474"><ele>1350.0</ele><time>2026-04-26T08:16:39.966Z</time></trkpt><trkpt lat="42.8701209" lon="13.1341899"><ele>1348.8333333333333</ele><time>2026-04-26T08:16:40.959Z</time></trkpt><trkpt lat="42.870194" lon="13.1341434"><ele>1347.6666666666667</ele><time>2026-04-26T08:16:41.963Z</time></trkpt><trkpt lat="42.8702747" lon="13.1341111"><ele>1346.5</ele><time>2026-04-26T08:16:42.971Z</time></trkpt><trkpt lat="42.870355" lon="13.1340954"><ele>1345.3333333333335</ele><time>2026-04-26T08:16:43.964Z</time></trkpt><trkpt lat="42.870436" lon="13.1340917"><ele>1344.1666666666667</ele><time>2026-04-26T08:16:44.959Z</time></trkpt><trkpt lat="42.8705172" lon="13.1340962"><ele>1343.0</ele><time>2026-04-26T08:16:45.963Z</time></trkpt><trkpt lat="42.8706035" lon="13.1340972"><ele>1343.0</ele><time>2026-04-26T08:16:46.969Z</time></trkpt><trkpt lat="42.8706922" lon="13.1340897"><ele>1343.0</ele><time>2026-04-26T08:16:47.967Z</time></trkpt><trkpt lat="42.8707828" lon="13.1340729"><ele>1343.0</ele><time>2026-04-26T08:16:48.963Z</time></trkpt><trkpt lat="42.87087" lon="13.1340393"><ele>1343.0</ele><time>2026-04-26T08:16:49.962Z</time></trkpt><trkpt lat="42.8709669" lon="13.1339854"><ele>1343.0</ele><time>2026-04-26T08:16:50.969Z</time></trkpt><trkpt lat="42.8710644" lon="13.1339258"><ele>1344.4</ele><time>2026-04-26T08:16:51.964Z</time></trkpt><trkpt lat="42.8711636" lon="13.1338606"><ele>1345.8000000000002</ele><time>2026-04-26T08:16:52.963Z</time></trkpt><trkpt lat="42.871253" lon="13.1337949"><ele>1347.2</ele><time>2026-04-26T08:16:53.964Z</time></trkpt><trkpt lat="42.871324" lon="13.1337376"><ele>1348.6</ele><time>2026-04-26T08:16:54.969Z</time></trkpt><trkpt lat="42.871381" lon="13.1336903"><ele>1350.0</ele><time>2026-04-26T08:16:55.959Z</time></trkpt><trkpt lat="42.8714756" lon="13.1335932"><ele>1350.0</ele><time>2026-04-26T08:16:57.972Z</time></trkpt><trkpt lat="42.87154" lon="13.1334561"><ele>1350.0</ele><time>2026-04-26T08:16:59.959Z</time></trkpt><trkpt lat="42.8715433" lon="13.133288"><ele>1350.0</ele><time>2026-04-26T08:17:01.962Z</time></trkpt><trkpt lat="42.8714708" lon="13.1331456"><ele>1350.0</ele><time>2026-04-26T08:17:03.973Z</time></trkpt><trkpt lat="42.8714099" lon="13.1330844"><ele>1350.0</ele><time>2026-04-26T08:17:04.958Z</time></trkpt><trkpt lat="42.871342" lon="13.1330183"><ele>1348.6666666666667</ele><time>2026-04-26T08:17:05.96Z</time></trkpt><trkpt lat="42.8712673" lon="13.1329542"><ele>1347.3333333333333</ele><time>2026-04-26T08:17:06.967Z</time></trkpt><trkpt lat="42.8712033" lon="13.1328912"><ele>1346.0</ele><time>2026-04-26T08:17:07.96Z</time></trkpt><trkpt lat="42.8711466" lon="13.1328203"><ele>1344.6666666666665</ele><time>2026-04-26T08:17:08.961Z</time></trkpt><trkpt lat="42.871106" lon="13.1327496"><ele>1343.3333333333333</ele><time>2026-04-26T08:17:09.962Z</time></trkpt><trkpt lat="42.8710611" lon="13.1326053"><ele>1342.0</ele><time>2026-04-26T08:17:11.962Z</time></trkpt><trkpt lat="42.8710526" lon="13.1325195"><ele>1342.0</ele><time>2026-04-26T08:17:12.961Z</time></trkpt><trkpt lat="42.8710494" lon="13.1324201"><ele>1342.0</ele><time>2026-04-26T08:17:13.956Z</time></trkpt><trkpt lat="42.8710452" lon="13.1323134"><ele>1342.0</ele><time>2026-04-26T08:17:14.957Z</time></trkpt><trkpt lat="42.8710489" lon="13.1321876"><ele>1342.0</ele><time>2026-04-26T08:17:15.961Z</time></trkpt><trkpt lat="42.8710534" lon="13.132064"><ele>1342.0</ele><time>2026-04-26T08:17:16.963Z</time></trkpt><trkpt lat="42.8710771" lon="13.1319314"><ele>1342.0</ele><time>2026-04-26T08:17:17.958Z</time></trkpt><trkpt lat="42.8711014" lon="13.1318022"><ele>1343.6</ele><time>2026-04-26T08:17:18.959Z</time></trkpt><trkpt lat="42.8711318" lon="13.1316753"><ele>1345.1999999999998</ele><time>2026-04-26T08:17:19.958Z</time></trkpt><trkpt lat="42.8711609" lon="13.1315454"><ele>1346.8</ele><time>2026-04-26T08:17:20.963Z</time></trkpt><trkpt lat="42.8711855" lon="13.1314095"><ele>1348.4</ele><time>2026-04-26T08:17:21.958Z</time></trkpt><trkpt lat="42.8712102" lon="13.1312625"><ele>1350.0</ele><time>2026-04-26T08:17:22.952Z</time></trkpt><trkpt lat="42.8712395" lon="13.131102"><ele>1352.0</ele><time>2026-04-26T08:17:23.96Z</time></trkpt><trkpt lat="42.871265" lon="13.1309505"><ele>1354.0</ele><time>2026-04-26T08:17:24.961Z</time></trkpt><trkpt lat="42.8713113" lon="13.1307969"><ele>1356.0</ele><time>2026-04-26T08:17:25.955Z</time></trkpt><trkpt lat="42.8713537" lon="13.1306464"><ele>1358.0</ele><time>2026-04-26T08:17:26.961Z</time></trkpt><trkpt lat="42.8714034" lon="13.1305011"><ele>1360.0</ele><time>2026-04-26T08:17:27.967Z</time></trkpt><trkpt lat="42.8714526" lon="13.1303615"><ele>1362.0</ele><time>2026-04-26T08:17:28.964Z</time></trkpt><trkpt lat="42.8715002" lon="13.1302314"><ele>1364.0</ele><time>2026-04-26T08:17:29.972Z</time></trkpt><trkpt lat="42.8715369" lon="13.1301178"><ele>1366.0</ele><time>2026-04-26T08:17:30.964Z</time></trkpt><trkpt lat="42.8715682" lon="13.1300031"><ele>1368.0</ele><time>2026-04-26T08:17:31.967Z</time></trkpt><trkpt lat="42.8715987" lon="13.129884"><ele>1368.5</ele><time>2026-04-26T08:17:32.964Z</time></trkpt><trkpt lat="42.8716177" lon="13.1297682"><ele>1369.0</ele><time>2026-04-26T08:17:33.962Z</time></trkpt><trkpt lat="42.8716291" lon="13.1296477"><ele>1369.5</ele><time>2026-04-26T08:17:34.978Z</time></trkpt><trkpt lat="42.8716313" lon="13.1295365"><ele>1370.0</ele><time>2026-04-26T08:17:35.969Z</time></trkpt><trkpt lat="42.8716244" lon="13.1294294"><ele>1370.5</ele><time>2026-04-26T08:17:36.967Z</time></trkpt><trkpt lat="42.8716086" lon="13.1293299"><ele>1371.0</ele><time>2026-04-26T08:17:37.969Z</time></trkpt><trkpt lat="42.8715757" lon="13.1292349"><ele>1371.0</ele><time>2026-04-26T08:17:38.966Z</time></trkpt><trkpt lat="42.8715213" lon="13.129138"><ele>1371.0</ele><time>2026-04-26T08:17:39.964Z</time></trkpt><trkpt lat="42.8714519" lon="13.1290482"><ele>1371.0</ele><time>2026-04-26T08:17:40.967Z</time></trkpt><trkpt lat="42.8713827" lon="13.1289579"><ele>1371.0</ele><time>2026-04-26T08:17:41.961Z</time></trkpt><trkpt lat="42.8713002" lon="13.1288913"><ele>1371.0</ele><time>2026-04-26T08:17:42.964Z</time></trkpt><trkpt lat="42.871224" lon="13.1288403"><ele>1370.6666666666667</ele><time>2026-04-26T08:17:43.962Z</time></trkpt><trkpt lat="42.8711543" lon="13.1287985"><ele>1370.3333333333333</ele><time>2026-04-26T08:17:44.964Z</time></trkpt><trkpt lat="42.8710788" lon="13.12876"><ele>1370.0</ele><time>2026-04-26T08:17:45.967Z</time></trkpt><trkpt lat="42.8709953" lon="13.1287266"><ele>1369.6666666666665</ele><time>2026-04-26T08:17:46.972Z</time></trkpt><trkpt lat="42.8709096" lon="13.1286977"><ele>1369.3333333333333</ele><time>2026-04-26T08:17:47.963Z</time></trkpt><trkpt lat="42.8708231" lon="13.128676"><ele>1369.0</ele><time>2026-04-26T08:17:48.963Z</time></trkpt><trkpt lat="42.8707278" lon="13.1286607"><ele>1369.0</ele><time>2026-04-26T08:17:49.958Z</time></trkpt><trkpt lat="42.8706299" lon="13.1286399"><ele>1369.0</ele><time>2026-04-26T08:17:50.963Z</time></trkpt><trkpt lat="42.8705264" lon="13.1286076"><ele>1369.0</ele><time>2026-04-26T08:17:51.961Z</time></trkpt><trkpt lat="42.8704323" lon="13.1285709"><ele>1369.0</ele><time>2026-04-26T08:17:52.958Z</time></trkpt><trkpt lat="42.8703546" lon="13.1285296"><ele>1369.0</ele><time>2026-04-26T08:17:53.955Z</time></trkpt><trkpt lat="42.8702972" lon="13.1284719"><ele>1369.0</ele><time>2026-04-26T08:17:54.958Z</time></trkpt><trkpt lat="42.8702543" lon="13.1283228"><ele>1369.0</ele><time>2026-04-26T08:17:56.967Z</time></trkpt><trkpt lat="42.8702692" lon="13.1282367"><ele>1369.0</ele><time>2026-04-26T08:17:57.968Z</time></trkpt><trkpt lat="42.87031" lon="13.1281471"><ele>1369.0</ele><time>2026-04-26T08:17:58.959Z</time></trkpt><trkpt lat="42.870366" lon="13.1280504"><ele>1369.0</ele><time>2026-04-26T08:17:59.965Z</time></trkpt><trkpt lat="42.8704267" lon="13.127949"><ele>1369.0</ele><time>2026-04-26T08:18:00.961Z</time></trkpt><trkpt lat="42.8704871" lon="13.127842"><ele>1369.6</ele><time>2026-04-26T08:18:01.96Z</time></trkpt><trkpt lat="42.8705523" lon="13.1277345"><ele>1370.2</ele><time>2026-04-26T08:18:02.963Z</time></trkpt><trkpt lat="42.8706212" lon="13.1276232"><ele>1370.8</ele><time>2026-04-26T08:18:03.963Z</time></trkpt><trkpt lat="42.8706902" lon="13.1275142"><ele>1371.3999999999999</ele><time>2026-04-26T08:18:04.964Z</time></trkpt><trkpt lat="42.8707609" lon="13.1274089"><ele>1372.0</ele><time>2026-04-26T08:18:05.967Z</time></trkpt><trkpt lat="42.8708315" lon="13.1273208"><ele>1374.6</ele><time>2026-04-26T08:18:06.963Z</time></trkpt><trkpt lat="42.8709084" lon="13.127246"><ele>1377.1999999999998</ele><time>2026-04-26T08:18:07.959Z</time></trkpt><trkpt lat="42.8709954" lon="13.1271858"><ele>1379.8</ele><time>2026-04-26T08:18:08.958Z</time></trkpt><trkpt lat="42.8710861" lon="13.1271427"><ele>1382.4</ele><time>2026-04-26T08:18:09.957Z</time></trkpt><trkpt lat="42.8711804" lon="13.1271165"><ele>1385.0</ele><time>2026-04-26T08:18:10.961Z</time></trkpt><trkpt lat="42.8712777" lon="13.1270978"><ele>1385.0</ele><time>2026-04-26T08:18:11.96Z</time></trkpt><trkpt lat="42.8713755" lon="13.1270731"><ele>1385.0</ele><time>2026-04-26T08:18:12.963Z</time></trkpt><trkpt lat="42.8714721" lon="13.1270405"><ele>1385.0</ele><time>2026-04-26T08:18:13.961Z</time></trkpt><trkpt lat="42.8715647" lon="13.1270029"><ele>1385.0</ele><time>2026-04-26T08:18:14.964Z</time></trkpt><trkpt lat="42.8716569" lon="13.1269666"><ele>1385.0</ele><time>2026-04-26T08:18:15.958Z</time></trkpt><trkpt lat="42.8717544" lon="13.1269304"><ele>1383.4</ele><time>2026-04-26T08:18:16.958Z</time></trkpt><trkpt lat="42.8718564" lon="13.1268927"><ele>1381.8</ele><time>2026-04-26T08:18:17.961Z</time></trkpt><trkpt lat="42.8719617" lon="13.1268559"><ele>1380.1999999999998</ele><time>2026-04-26T08:18:18.969Z</time></trkpt><trkpt lat="42.8720691" lon="13.1268223"><ele>1378.6</ele><time>2026-04-26T08:18:19.96Z</time></trkpt><trkpt lat="42.8721689" lon="13.126789"><ele>1377.0</ele><time>2026-04-26T08:18:20.962Z</time></trkpt><trkpt lat="42.8722685" lon="13.1267552"><ele>1377.0</ele><time>2026-04-26T08:18:21.963Z</time></trkpt><trkpt lat="42.8723707" lon="13.1267152"><ele>1377.0</ele><time>2026-04-26T08:18:22.956Z</time></trkpt><trkpt lat="42.8724752" lon="13.1266654"><ele>1377.0</ele><time>2026-04-26T08:18:23.959Z</time></trkpt><trkpt lat="42.8725699" lon="13.1266053"><ele>1377.0</ele><time>2026-04-26T08:18:24.967Z</time></trkpt><trkpt lat="42.8726564" lon="13.1265344"><ele>1377.0</ele><time>2026-04-26T08:18:25.963Z</time></trkpt><trkpt lat="42.872739" lon="13.1264496"><ele>1374.1999999999998</ele><time>2026-04-26T08:18:26.969Z</time></trkpt><trkpt lat="42.8728113" lon="13.1263569"><ele>1371.4</ele><time>2026-04-26T08:18:27.968Z</time></trkpt><trkpt lat="42.8728734" lon="13.126254"><ele>1368.6</ele><time>2026-04-26T08:18:28.964Z</time></trkpt><trkpt lat="42.8729177" lon="13.1261422"><ele>1365.8000000000002</ele><time>2026-04-26T08:18:29.973Z</time></trkpt><trkpt lat="42.8729433" lon="13.1260117"><ele>1363.0</ele><time>2026-04-26T08:18:30.966Z</time></trkpt><trkpt lat="42.8729503" lon="13.1258562"><ele>1360.8000000000002</ele><time>2026-04-26T08:18:31.97Z</time></trkpt><trkpt lat="42.872941" lon="13.125702"><ele>1358.6</ele><time>2026-04-26T08:18:32.964Z</time></trkpt><trkpt lat="42.8729153" lon="13.1255618"><ele>1356.4</ele><time>2026-04-26T08:18:33.979Z</time></trkpt><trkpt lat="42.8728741" lon="13.1254322"><ele>1354.1999999999998</ele><time>2026-04-26T08:18:34.97Z</time></trkpt><trkpt lat="42.8728248" lon="13.1253142"><ele>1352.0</ele><time>2026-04-26T08:18:35.965Z</time></trkpt><trkpt lat="42.8727754" lon="13.1252104"><ele>1352.0</ele><time>2026-04-26T08:18:36.972Z</time></trkpt><trkpt lat="42.8727276" lon="13.1251055"><ele>1352.0</ele><time>2026-04-26T08:18:37.969Z</time></trkpt><trkpt lat="42.8726925" lon="13.1249986"><ele>1352.0</ele><time>2026-04-26T08:18:38.971Z</time></trkpt><trkpt lat="42.8726696" lon="13.1248866"><ele>1352.0</ele><time>2026-04-26T08:18:39.972Z</time></trkpt><trkpt lat="42.8726545" lon="13.1247669"><ele>1352.0</ele><time>2026-04-26T08:18:40.964Z</time></trkpt><trkpt lat="42.8726474" lon="13.1246431"><ele>1352.0</ele><time>2026-04-26T08:18:41.965Z</time></trkpt><trkpt lat="42.8726512" lon="13.1245286"><ele>1353.1999999999998</ele><time>2026-04-26T08:18:42.969Z</time></trkpt><trkpt lat="42.8726617" lon="13.1244076"><ele>1354.4</ele><time>2026-04-26T08:18:43.971Z</time></trkpt><trkpt lat="42.8726856" lon="13.1242779"><ele>1355.6</ele><time>2026-04-26T08:18:44.968Z</time></trkpt><trkpt lat="42.8727233" lon="13.1241425"><ele>1356.8000000000002</ele><time>2026-04-26T08:18:45.959Z</time></trkpt><trkpt lat="42.8727654" lon="13.1240091"><ele>1358.0</ele><time>2026-04-26T08:18:46.964Z</time></trkpt><trkpt lat="42.8728028" lon="13.1238823"><ele>1361.5</ele><time>2026-04-26T08:18:47.973Z</time></trkpt><trkpt lat="42.8728405" lon="13.12376"><ele>1365.0</ele><time>2026-04-26T08:18:48.966Z</time></trkpt><trkpt lat="42.8728848" lon="13.123656"><ele>1368.5</ele><time>2026-04-26T08:18:49.971Z</time></trkpt><trkpt lat="42.8729341" lon="13.1235759"><ele>1372.0</ele><time>2026-04-26T08:18:50.966Z</time></trkpt><trkpt lat="42.8729893" lon="13.1235137"><ele>1375.5</ele><time>2026-04-26T08:18:51.962Z</time></trkpt><trkpt lat="42.8730531" lon="13.1234531"><ele>1379.0</ele><time>2026-04-26T08:18:52.964Z</time></trkpt><trkpt lat="42.8731223" lon="13.1233969"><ele>1379.0</ele><time>2026-04-26T08:18:53.959Z</time></trkpt><trkpt lat="42.8731935" lon="13.1233477"><ele>1379.0</ele><time>2026-04-26T08:18:54.956Z</time></trkpt><trkpt lat="42.8732681" lon="13.123301"><ele>1379.0</ele><time>2026-04-26T08:18:55.958Z</time></trkpt><trkpt lat="42.873345" lon="13.1232613"><ele>1379.0</ele><time>2026-04-26T08:18:56.963Z</time></trkpt><trkpt lat="42.8734258" lon="13.1232287"><ele>1379.0</ele><time>2026-04-26T08:18:57.959Z</time></trkpt><trkpt lat="42.8735132" lon="13.1232063"><ele>1379.0</ele><time>2026-04-26T08:18:58.96Z</time></trkpt><trkpt lat="42.8736069" lon="13.1231893"><ele>1384.0</ele><time>2026-04-26T08:18:59.96Z</time></trkpt><trkpt lat="42.8737055" lon="13.1231809"><ele>1389.0</ele><time>2026-04-26T08:19:00.96Z</time></trkpt><trkpt lat="42.8738074" lon="13.1231763"><ele>1394.0</ele><time>2026-04-26T08:19:01.97Z</time></trkpt><trkpt lat="42.8739113" lon="13.123174"><ele>1399.0</ele><time>2026-04-26T08:19:02.958Z</time></trkpt><trkpt lat="42.8740135" lon="13.123171"><ele>1404.0</ele><time>2026-04-26T08:19:03.967Z</time></trkpt><trkpt lat="42.8741148" lon="13.1231653"><ele>1404.0</ele><time>2026-04-26T08:19:04.96Z</time></trkpt><trkpt lat="42.8742125" lon="13.123155"><ele>1404.0</ele><time>2026-04-26T08:19:05.963Z</time></trkpt><trkpt lat="42.8743112" lon="13.1231371"><ele>1404.0</ele><time>2026-04-26T08:19:06.958Z</time></trkpt><trkpt lat="42.8744153" lon="13.1231241"><ele>1404.0</ele><time>2026-04-26T08:19:07.962Z</time></trkpt><trkpt lat="42.8745205" lon="13.1231331"><ele>1404.0</ele><time>2026-04-26T08:19:08.962Z</time></trkpt><trkpt lat="42.8746293" lon="13.1231576"><ele>1403.6</ele><time>2026-04-26T08:19:09.968Z</time></trkpt><trkpt lat="42.8747402" lon="13.1231957"><ele>1403.2</ele><time>2026-04-26T08:19:10.959Z</time></trkpt><trkpt lat="42.8748528" lon="13.1232413"><ele>1402.8</ele><time>2026-04-26T08:19:11.962Z</time></trkpt><trkpt lat="42.8749589" lon="13.1232812"><ele>1402.3999999999999</ele><time>2026-04-26T08:19:12.959Z</time></trkpt><trkpt lat="42.8750579" lon="13.1233149"><ele>1402.0</ele><time>2026-04-26T08:19:13.966Z</time></trkpt><trkpt lat="42.8751572" lon="13.1233417"><ele>1397.1666666666665</ele><time>2026-04-26T08:19:14.967Z</time></trkpt><trkpt lat="42.8752496" lon="13.1233547"><ele>1392.3333333333333</ele><time>2026-04-26T08:19:15.965Z</time></trkpt><trkpt lat="42.87534" lon="13.1233596"><ele>1387.5</ele><time>2026-04-26T08:19:16.962Z</time></trkpt><trkpt lat="42.8754281" lon="13.1233538"><ele>1382.6666666666667</ele><time>2026-04-26T08:19:17.963Z</time></trkpt><trkpt lat="42.8755112" lon="13.1233349"><ele>1377.8333333333335</ele><time>2026-04-26T08:19:18.968Z</time></trkpt><trkpt lat="42.8755953" lon="13.1233133"><ele>1373.0</ele><time>2026-04-26T08:19:19.961Z</time></trkpt><trkpt lat="42.8756744" lon="13.1232487"><ele>1372.4</ele><time>2026-04-26T08:19:20.958Z</time></trkpt><trkpt lat="42.8757478" lon="13.1231671"><ele>1371.8000000000002</ele><time>2026-04-26T08:19:21.964Z</time></trkpt><trkpt lat="42.8758083" lon="13.1230646"><ele>1371.2</ele><time>2026-04-26T08:19:22.962Z</time></trkpt><trkpt lat="42.8758571" lon="13.1229438"><ele>1370.6</ele><time>2026-04-26T08:19:23.967Z</time></trkpt><trkpt lat="42.8758984" lon="13.1228071"><ele>1370.0</ele><time>2026-04-26T08:19:24.967Z</time></trkpt><trkpt lat="42.8759473" lon="13.1226704"><ele>1370.0</ele><time>2026-04-26T08:19:25.972Z</time></trkpt><trkpt lat="42.8759972" lon="13.1225383"><ele>1370.0</ele><time>2026-04-26T08:19:26.968Z</time></trkpt><trkpt lat="42.8760738" lon="13.122446"><ele>1370.0</ele><time>2026-04-26T08:19:27.968Z</time></trkpt><trkpt lat="42.8761567" lon="13.1223647"><ele>1370.0</ele><time>2026-04-26T08:19:28.96Z</time></trkpt><trkpt lat="42.8762435" lon="13.1222893"><ele>1370.0</ele><time>2026-04-26T08:19:29.965Z</time></trkpt><trkpt lat="42.8763389" lon="13.1222054"><ele>1374.2</ele><time>2026-04-26T08:19:30.964Z</time></trkpt><trkpt lat="42.8764293" lon="13.1221268"><ele>1378.4</ele><time>2026-04-26T08:19:31.966Z</time></trkpt><trkpt lat="42.8765182" lon="13.1220599"><ele>1382.6</ele><time>2026-04-26T08:19:32.969Z</time></trkpt><trkpt lat="42.8766021" lon="13.1220117"><ele>1386.8</ele><time>2026-04-26T08:19:33.968Z</time></trkpt><trkpt lat="42.8766834" lon="13.1219845"><ele>1391.0</ele><time>2026-04-26T08:19:34.972Z</time></trkpt><trkpt lat="42.8767653" lon="13.1219785"><ele>1390.3333333333335</ele><time>2026-04-26T08:19:35.96Z</time></trkpt><trkpt lat="42.8768503" lon="13.1219926"><ele>1389.6666666666667</ele><time>2026-04-26T08:19:36.966Z</time></trkpt><trkpt lat="42.8769395" lon="13.1220227"><ele>1389.0</ele><time>2026-04-26T08:19:37.966Z</time></trkpt><trkpt lat="42.877027" lon="13.1220582"><ele>1388.3333333333333</ele><time>2026-04-26T08:19:38.972Z</time></trkpt><trkpt lat="42.8771139" lon="13.1220923"><ele>1387.6666666666665</ele><time>2026-04-26T08:19:39.96Z</time></trkpt><trkpt lat="42.8772014" lon="13.1221188"><ele>1387.0</ele><time>2026-04-26T08:19:40.953Z</time></trkpt><trkpt lat="42.8772883" lon="13.122123"><ele>1387.0</ele><time>2026-04-26T08:19:41.959Z</time></trkpt><trkpt lat="42.8773729" lon="13.1220987"><ele>1387.0</ele><time>2026-04-26T08:19:42.959Z</time></trkpt><trkpt lat="42.8774636" lon="13.1220422"><ele>1387.0</ele><time>2026-04-26T08:19:43.961Z</time></trkpt><trkpt lat="42.8775615" lon="13.1219576"><ele>1387.0</ele><time>2026-04-26T08:19:44.964Z</time></trkpt><trkpt lat="42.8776518" lon="13.1218729"><ele>1387.0</ele><time>2026-04-26T08:19:45.972Z</time></trkpt><trkpt lat="42.8777442" lon="13.1217948"><ele>1387.6</ele><time>2026-04-26T08:19:46.972Z</time></trkpt><trkpt lat="42.8778352" lon="13.1217207"><ele>1388.1999999999998</ele><time>2026-04-26T08:19:47.966Z</time></trkpt><trkpt lat="42.877919" lon="13.121655"><ele>1388.8</ele><time>2026-04-26T08:19:48.974Z</time></trkpt><trkpt lat="42.878004" lon="13.1215867"><ele>1389.4</ele><time>2026-04-26T08:19:49.966Z</time></trkpt><trkpt lat="42.8780885" lon="13.1215119"><ele>1390.0</ele><time>2026-04-26T08:19:50.963Z</time></trkpt><trkpt lat="42.8781739" lon="13.1214318"><ele>1390.0</ele><time>2026-04-26T08:19:51.964Z</time></trkpt><trkpt lat="42.8782608" lon="13.1213466"><ele>1390.0</ele><time>2026-04-26T08:19:52.969Z</time></trkpt><trkpt lat="42.8783504" lon="13.12126"><ele>1390.0</ele><time>2026-04-26T08:19:53.959Z</time></trkpt><trkpt lat="42.8784424" lon="13.1211733"><ele>1390.0</ele><time>2026-04-26T08:19:54.971Z</time></trkpt><trkpt lat="42.8785326" lon="13.1210821"><ele>1390.0</ele><time>2026-04-26T08:19:55.959Z</time></trkpt><trkpt lat="42.8786203" lon="13.1209864"><ele>1389.75</ele><time>2026-04-26T08:19:56.97Z</time></trkpt><trkpt lat="42.8787047" lon="13.1208917"><ele>1389.5</ele><time>2026-04-26T08:19:57.959Z</time></trkpt><trkpt lat="42.8787926" lon="13.1208007"><ele>1389.25</ele><time>2026-04-26T08:19:58.964Z</time></trkpt><trkpt lat="42.8788934" lon="13.1206988"><ele>1389.0</ele><time>2026-04-26T08:19:59.976Z</time></trkpt><trkpt lat="42.8790103" lon="13.1205832"><ele>1389.0</ele><time>2026-04-26T08:20:00.971Z</time></trkpt><trkpt lat="42.8791275" lon="13.1204692"><ele>1389.0</ele><time>2026-04-26T08:20:01.977Z</time></trkpt><trkpt lat="42.8792297" lon="13.1203699"><ele>1389.0</ele><time>2026-04-26T08:20:02.975Z</time></trkpt><trkpt lat="42.8793207" lon="13.1202902"><ele>1389.0</ele><time>2026-04-26T08:20:03.958Z</time></trkpt><trkpt lat="42.8793953" lon="13.120226"><ele>1389.0</ele><time>2026-04-26T08:20:04.971Z</time></trkpt><trkpt lat="42.8794506" lon="13.1201753"><ele>1389.0</ele><time>2026-04-26T08:20:05.972Z</time></trkpt><trkpt lat="42.8795147" lon="13.1201498"><ele>1389.0</ele><time>2026-04-26T08:20:07.964Z</time></trkpt><trkpt lat="42.8795067" lon="13.1202371"><ele>1389.0</ele><time>2026-04-26T08:20:11.962Z</time></trkpt><trkpt lat="42.8794115" lon="13.1202476"><ele>1389.0</ele><time>2026-04-26T08:20:13.959Z</time></trkpt><trkpt lat="42.8793307" lon="13.1202731"><ele>1389.0</ele><time>2026-04-26T08:20:15.963Z</time></trkpt><trkpt lat="42.8792397" lon="13.1203619"><ele>1389.0</ele><time>2026-04-26T08:20:17.972Z</time></trkpt><trkpt lat="42.879168" lon="13.1204349"><ele>1389.0</ele><time>2026-04-26T08:20:19.971Z</time></trkpt><trkpt lat="42.8790889" lon="13.1204893"><ele>1389.0</ele><time>2026-04-26T08:20:21.972Z</time></trkpt><trkpt lat="42.8790309" lon="13.1205477"><ele>1389.0</ele><time>2026-04-26T08:20:23.968Z</time></trkpt><trkpt lat="42.8790881" lon="13.1205939"><ele>1389.0</ele><time>2026-04-26T08:20:28.961Z</time></trkpt><trkpt lat="42.8791947" lon="13.1204587"><ele>1389.0</ele><time>2026-04-26T08:41:40.971Z</time></trkpt><trkpt lat="42.8792656" lon="13.1203942"><ele>1389.0</ele><time>2026-04-26T08:41:41.969Z</time></trkpt><trkpt lat="42.8793495" lon="13.1203164"><ele>1389.0</ele><time>2026-04-26T08:41:42.971Z</time></trkpt><trkpt lat="42.8794446" lon="13.1202163"><ele>1389.0</ele><time>2026-04-26T08:41:43.97Z</time></trkpt><trkpt lat="42.8795483" lon="13.1201025"><ele>1389.0</ele><time>2026-04-26T08:41:44.973Z</time></trkpt><trkpt lat="42.8796805" lon="13.1199648"><ele>1389.5</ele><time>2026-04-26T08:41:45.978Z</time></trkpt><trkpt lat="42.8798002" lon="13.1198395"><ele>1390.0</ele><time>2026-04-26T08:41:46.966Z</time></trkpt><trkpt lat="42.8799194" lon="13.1197136"><ele>1390.5</ele><time>2026-04-26T08:41:47.967Z</time></trkpt><trkpt lat="42.8800259" lon="13.1195899"><ele>1391.0</ele><time>2026-04-26T08:41:48.972Z</time></trkpt><trkpt lat="42.880139" lon="13.1194554"><ele>1393.75</ele><time>2026-04-26T08:41:49.974Z</time></trkpt><trkpt lat="42.8802461" lon="13.1193271"><ele>1396.5</ele><time>2026-04-26T08:41:50.963Z</time></trkpt><trkpt lat="42.8803494" lon="13.1192096"><ele>1399.25</ele><time>2026-04-26T08:41:51.963Z</time></trkpt><trkpt lat="42.8804529" lon="13.1190867"><ele>1402.0</ele><time>2026-04-26T08:41:52.968Z</time></trkpt><trkpt lat="42.8805547" lon="13.1189639"><ele>1402.0</ele><time>2026-04-26T08:41:53.98Z</time></trkpt><trkpt lat="42.8806448" lon="13.1188534"><ele>1402.0</ele><time>2026-04-26T08:41:54.963Z</time></trkpt><trkpt lat="42.8807207" lon="13.1187612"><ele>1402.0</ele><time>2026-04-26T08:41:55.971Z</time></trkpt><trkpt lat="42.8807891" lon="13.1186621"><ele>1402.0</ele><time>2026-04-26T08:41:56.97Z</time></trkpt><trkpt lat="42.880866" lon="13.1185696"><ele>1402.0</ele><time>2026-04-26T08:41:57.961Z</time></trkpt><trkpt lat="42.880958" lon="13.1184679"><ele>1404.5</ele><time>2026-04-26T08:41:58.967Z</time></trkpt><trkpt lat="42.881057" lon="13.1183592"><ele>1407.0</ele><time>2026-04-26T08:41:59.968Z</time></trkpt><trkpt lat="42.881152" lon="13.1182505"><ele>1409.5</ele><time>2026-04-26T08:42:00.963Z</time></trkpt><trkpt lat="42.8812545" lon="13.1181449"><ele>1412.0</ele><time>2026-04-26T08:42:01.972Z</time></trkpt><trkpt lat="42.8813586" lon="13.1180399"><ele>1412.0</ele><time>2026-04-26T08:42:02.969Z</time></trkpt><trkpt lat="42.881463" lon="13.1179405"><ele>1412.0</ele><time>2026-04-26T08:42:03.968Z</time></trkpt><trkpt lat="42.8815685" lon="13.1178307"><ele>1412.0</ele><time>2026-04-26T08:42:04.964Z</time></trkpt><trkpt lat="42.8816713" lon="13.1177022"><ele>1412.0</ele><time>2026-04-26T08:42:05.968Z</time></trkpt><trkpt lat="42.8817826" lon="13.1175564"><ele>1416.25</ele><time>2026-04-26T08:42:06.967Z</time></trkpt><trkpt lat="42.8819023" lon="13.1174034"><ele>1420.5</ele><time>2026-04-26T08:42:07.969Z</time></trkpt><trkpt lat="42.8820096" lon="13.1172622"><ele>1424.75</ele><time>2026-04-26T08:42:08.966Z</time></trkpt><trkpt lat="42.882105" lon="13.1171395"><ele>1429.0</ele><time>2026-04-26T08:42:09.962Z</time></trkpt><trkpt lat="42.8821916" lon="13.1170262"><ele>1429.0</ele><time>2026-04-26T08:42:10.96Z</time></trkpt><trkpt lat="42.8822705" lon="13.116916"><ele>1429.0</ele><time>2026-04-26T08:42:11.965Z</time></trkpt><trkpt lat="42.8823381" lon="13.1168037"><ele>1429.0</ele><time>2026-04-26T08:42:12.962Z</time></trkpt><trkpt lat="42.8824013" lon="13.1166871"><ele>1429.0</ele><time>2026-04-26T08:42:13.961Z</time></trkpt><trkpt lat="42.8824736" lon="13.1165732"><ele>1429.0</ele><time>2026-04-26T08:42:14.962Z</time></trkpt><trkpt lat="42.8825538" lon="13.1164637"><ele>1430.75</ele><time>2026-04-26T08:42:15.964Z</time></trkpt><trkpt lat="42.8826431" lon="13.1163577"><ele>1432.5</ele><time>2026-04-26T08:42:16.967Z</time></trkpt><trkpt lat="42.8827308" lon="13.116253"><ele>1434.25</ele><time>2026-04-26T08:42:17.965Z</time></trkpt><trkpt lat="42.8828294" lon="13.116162"><ele>1436.0</ele><time>2026-04-26T08:42:18.958Z</time></trkpt><trkpt lat="42.8829305" lon="13.116088"><ele>1436.0</ele><time>2026-04-26T08:42:19.959Z</time></trkpt><trkpt lat="42.8830434" lon="13.116021"><ele>1436.0</ele><time>2026-04-26T08:42:20.966Z</time></trkpt><trkpt lat="42.8831702" lon="13.1159587"><ele>1436.0</ele><time>2026-04-26T08:42:21.959Z</time></trkpt><trkpt lat="42.8832927" lon="13.1159034"><ele>1436.0</ele><time>2026-04-26T08:42:22.97Z</time></trkpt><trkpt lat="42.8834087" lon="13.1158391"><ele>1434.75</ele><time>2026-04-26T08:42:23.962Z</time></trkpt><trkpt lat="42.8835266" lon="13.11576"><ele>1433.5</ele><time>2026-04-26T08:42:24.961Z</time></trkpt><trkpt lat="42.8836391" lon="13.1156756"><ele>1432.25</ele><time>2026-04-26T08:42:25.967Z</time></trkpt><trkpt lat="42.883755" lon="13.1155948"><ele>1431.0</ele><time>2026-04-26T08:42:26.965Z</time></trkpt><trkpt lat="42.8838694" lon="13.1155216"><ele>1431.0</ele><time>2026-04-26T08:42:27.962Z</time></trkpt><trkpt lat="42.8839802" lon="13.1154555"><ele>1431.0</ele><time>2026-04-26T08:42:28.963Z</time></trkpt><trkpt lat="42.8840918" lon="13.1154011"><ele>1431.0</ele><time>2026-04-26T08:42:29.967Z</time></trkpt><trkpt lat="42.8842082" lon="13.1153551"><ele>1431.0</ele><time>2026-04-26T08:42:30.966Z</time></trkpt><trkpt lat="42.8843316" lon="13.1153121"><ele>1434.75</ele><time>2026-04-26T08:42:31.963Z</time></trkpt><trkpt lat="42.8844601" lon="13.1152653"><ele>1438.5</ele><time>2026-04-26T08:42:32.959Z</time></trkpt><trkpt lat="42.8845866" lon="13.1152166"><ele>1442.25</ele><time>2026-04-26T08:42:33.965Z</time></trkpt><trkpt lat="42.8847085" lon="13.1151696"><ele>1446.0</ele><time>2026-04-26T08:42:34.965Z</time></trkpt><trkpt lat="42.8848276" lon="13.1151256"><ele>1446.0</ele><time>2026-04-26T08:42:35.964Z</time></trkpt><trkpt lat="42.8849474" lon="13.1150874"><ele>1446.0</ele><time>2026-04-26T08:42:36.968Z</time></trkpt><trkpt lat="42.8850629" lon="13.1150643"><ele>1446.0</ele><time>2026-04-26T08:42:37.968Z</time></trkpt><trkpt lat="42.885184" lon="13.1150523"><ele>1446.0</ele><time>2026-04-26T08:42:38.971Z</time></trkpt><trkpt lat="42.8853145" lon="13.1150493"><ele>1447.75</ele><time>2026-04-26T08:42:39.973Z</time></trkpt><trkpt lat="42.8854488" lon="13.1150516"><ele>1449.5</ele><time>2026-04-26T08:42:40.966Z</time></trkpt><trkpt lat="42.885574" lon="13.1150581"><ele>1451.25</ele><time>2026-04-26T08:42:41.977Z</time></trkpt><trkpt lat="42.8856961" lon="13.1150727"><ele>1453.0</ele><time>2026-04-26T08:42:42.968Z</time></trkpt><trkpt lat="42.8858096" lon="13.115098"><ele>1453.0</ele><time>2026-04-26T08:42:43.965Z</time></trkpt><trkpt lat="42.8859172" lon="13.1151366"><ele>1453.0</ele><time>2026-04-26T08:42:44.963Z</time></trkpt><trkpt lat="42.8860168" lon="13.1151817"><ele>1453.0</ele><time>2026-04-26T08:42:45.965Z</time></trkpt><trkpt lat="42.8861087" lon="13.1152347"><ele>1453.0</ele><time>2026-04-26T08:42:46.97Z</time></trkpt><trkpt lat="42.8861967" lon="13.1153026"><ele>1453.0</ele><time>2026-04-26T08:42:47.962Z</time></trkpt><trkpt lat="42.8862803" lon="13.1153866"><ele>1453.8000000000002</ele><time>2026-04-26T08:42:48.977Z</time></trkpt><trkpt lat="42.8863639" lon="13.115483"><ele>1454.6</ele><time>2026-04-26T08:42:49.97Z</time></trkpt><trkpt lat="42.8864484" lon="13.1155808"><ele>1455.4</ele><time>2026-04-26T08:42:50.965Z</time></trkpt><trkpt lat="42.8865348" lon="13.1156732"><ele>1456.1999999999998</ele><time>2026-04-26T08:42:51.974Z</time></trkpt><trkpt lat="42.8866271" lon="13.1157529"><ele>1457.0</ele><time>2026-04-26T08:42:52.967Z</time></trkpt><trkpt lat="42.8867127" lon="13.1158282"><ele>1460.5</ele><time>2026-04-26T08:42:53.962Z</time></trkpt><trkpt lat="42.8867861" lon="13.1158854"><ele>1464.0</ele><time>2026-04-26T08:42:54.97Z</time></trkpt><trkpt lat="42.8868283" lon="13.1159535"><ele>1467.5</ele><time>2026-04-26T08:42:55.97Z</time></trkpt><trkpt lat="42.8868726" lon="13.1160166"><ele>1471.0</ele><time>2026-04-26T08:42:56.959Z</time></trkpt><trkpt lat="42.886883" lon="13.116103"><ele>1474.5</ele><time>2026-04-26T08:42:57.968Z</time></trkpt><trkpt lat="42.8869108" lon="13.1162448"><ele>1478.0</ele><time>2026-04-26T08:42:59.963Z</time></trkpt><trkpt lat="42.8869661" lon="13.1163129"><ele>1478.0</ele><time>2026-04-26T08:43:01.962Z</time></trkpt><trkpt lat="42.8870285" lon="13.1163302"><ele>1478.0</ele><time>2026-04-26T08:43:02.959Z</time></trkpt><trkpt lat="42.8871009" lon="13.11629"><ele>1478.0</ele><time>2026-04-26T08:43:03.962Z</time></trkpt><trkpt lat="42.8872003" lon="13.1162755"><ele>1478.0</ele><time>2026-04-26T08:43:04.96Z</time></trkpt><trkpt lat="42.8872938" lon="13.1163036"><ele>1478.0</ele><time>2026-04-26T08:43:05.959Z</time></trkpt><trkpt lat="42.8873631" lon="13.1163195"><ele>1478.0</ele><time>2026-04-26T08:43:06.963Z</time></trkpt><trkpt lat="42.8874948" lon="13.1162921"><ele>1478.0</ele><time>2026-04-26T08:43:08.962Z</time></trkpt><trkpt lat="42.8875793" lon="13.1162472"><ele>1478.0</ele><time>2026-04-26T08:43:09.961Z</time></trkpt><trkpt lat="42.8876621" lon="13.1161896"><ele>1478.0</ele><time>2026-04-26T08:43:10.957Z</time></trkpt><trkpt lat="42.8877302" lon="13.1161163"><ele>1478.0</ele><time>2026-04-26T08:43:11.96Z</time></trkpt><trkpt lat="42.88778" lon="13.1160279"><ele>1478.0</ele><time>2026-04-26T08:43:12.971Z</time></trkpt><trkpt lat="42.887835" lon="13.1159584"><ele>1478.0</ele><time>2026-04-26T08:43:13.959Z</time></trkpt><trkpt lat="42.887892" lon="13.1159048"><ele>1479.4</ele><time>2026-04-26T08:43:14.962Z</time></trkpt><trkpt lat="42.8879628" lon="13.1158536"><ele>1480.8000000000002</ele><time>2026-04-26T08:43:15.958Z</time></trkpt><trkpt lat="42.8880475" lon="13.1157963"><ele>1482.2</ele><time>2026-04-26T08:43:16.964Z</time></trkpt><trkpt lat="42.8881419" lon="13.1157388"><ele>1483.6</ele><time>2026-04-26T08:43:17.961Z</time></trkpt><trkpt lat="42.8882341" lon="13.1156727"><ele>1485.0</ele><time>2026-04-26T08:43:18.963Z</time></trkpt><trkpt lat="42.8883268" lon="13.1155963"><ele>1484.4</ele><time>2026-04-26T08:43:19.963Z</time></trkpt><trkpt lat="42.8884155" lon="13.1155142"><ele>1483.8</ele><time>2026-04-26T08:43:20.96Z</time></trkpt><trkpt lat="42.8885029" lon="13.1154313"><ele>1483.1999999999998</ele><time>2026-04-26T08:43:21.966Z</time></trkpt><trkpt lat="42.8885889" lon="13.1153484"><ele>1482.6</ele><time>2026-04-26T08:43:22.971Z</time></trkpt><trkpt lat="42.888668" lon="13.1152731"><ele>1482.0</ele><time>2026-04-26T08:43:23.964Z</time></trkpt><trkpt lat="42.8887444" lon="13.1151941"><ele>1482.0</ele><time>2026-04-26T08:43:24.964Z</time></trkpt><trkpt lat="42.8888174" lon="13.1151066"><ele>1482.0</ele><time>2026-04-26T08:43:25.961Z</time></trkpt><trkpt lat="42.8888841" lon="13.1150063"><ele>1482.0</ele><time>2026-04-26T08:43:26.964Z</time></trkpt><trkpt lat="42.8889469" lon="13.1149002"><ele>1482.0</ele><time>2026-04-26T08:43:27.967Z</time></trkpt><trkpt lat="42.8890064" lon="13.1147927"><ele>1482.0</ele><time>2026-04-26T08:43:28.96Z</time></trkpt><trkpt lat="42.8890651" lon="13.1146798"><ele>1482.6</ele><time>2026-04-26T08:43:29.959Z</time></trkpt><trkpt lat="42.8891211" lon="13.1145636"><ele>1483.1999999999998</ele><time>2026-04-26T08:43:30.967Z</time></trkpt><trkpt lat="42.8891745" lon="13.114453"><ele>1483.8</ele><time>2026-04-26T08:43:31.962Z</time></trkpt><trkpt lat="42.8892271" lon="13.1143415"><ele>1484.4</ele><time>2026-04-26T08:43:32.965Z</time></trkpt><trkpt lat="42.889276" lon="13.1142371"><ele>1485.0</ele><time>2026-04-26T08:43:33.96Z</time></trkpt><trkpt lat="42.8893232" lon="13.1141396"><ele>1482.3333333333333</ele><time>2026-04-26T08:43:34.967Z</time></trkpt><trkpt lat="42.8893678" lon="13.1140615"><ele>1479.6666666666667</ele><time>2026-04-26T08:43:35.963Z</time></trkpt><trkpt lat="42.8894102" lon="13.1139963"><ele>1477.0</ele><time>2026-04-26T08:43:36.968Z</time></trkpt><trkpt lat="42.8894946" lon="13.1138911"><ele>1474.3333333333335</ele><time>2026-04-26T08:43:38.97Z</time></trkpt><trkpt lat="42.889549" lon="13.1138363"><ele>1471.6666666666667</ele><time>2026-04-26T08:43:39.968Z</time></trkpt><trkpt lat="42.8896108" lon="13.1137769"><ele>1469.0</ele><time>2026-04-26T08:43:40.972Z</time></trkpt><trkpt lat="42.8896797" lon="13.1137167"><ele>1469.0</ele><time>2026-04-26T08:43:41.971Z</time></trkpt><trkpt lat="42.8897537" lon="13.1136592"><ele>1469.0</ele><time>2026-04-26T08:43:42.963Z</time></trkpt><trkpt lat="42.8898355" lon="13.1136071"><ele>1469.0</ele><time>2026-04-26T08:43:43.964Z</time></trkpt><trkpt lat="42.8899243" lon="13.1135586"><ele>1469.0</ele><time>2026-04-26T08:43:44.976Z</time></trkpt><trkpt lat="42.8900178" lon="13.113507"><ele>1469.0</ele><time>2026-04-26T08:43:45.968Z</time></trkpt><trkpt lat="42.8901145" lon="13.1134515"><ele>1469.4</ele><time>2026-04-26T08:43:46.967Z</time></trkpt><trkpt lat="42.8902066" lon="13.1133983"><ele>1469.8000000000002</ele><time>2026-04-26T08:43:47.966Z</time></trkpt><trkpt lat="42.8902953" lon="13.1133449"><ele>1470.1999999999998</ele><time>2026-04-26T08:43:48.965Z</time></trkpt><trkpt lat="42.8903816" lon="13.1132925"><ele>1470.6</ele><time>2026-04-26T08:43:49.977Z</time></trkpt><trkpt lat="42.8904636" lon="13.1132457"><ele>1471.0</ele><time>2026-04-26T08:43:50.962Z</time></trkpt><trkpt lat="42.8905455" lon="13.1132028"><ele>1470.3333333333333</ele><time>2026-04-26T08:43:51.958Z</time></trkpt><trkpt lat="42.8906273" lon="13.1131669"><ele>1469.6666666666665</ele><time>2026-04-26T08:43:52.971Z</time></trkpt><trkpt lat="42.8907134" lon="13.1131352"><ele>1469.0</ele><time>2026-04-26T08:43:53.969Z</time></trkpt><trkpt lat="42.8908002" lon="13.1131087"><ele>1468.3333333333333</ele><time>2026-04-26T08:43:54.967Z</time></trkpt><trkpt lat="42.8908873" lon="13.113093"><ele>1467.6666666666667</ele><time>2026-04-26T08:43:55.968Z</time></trkpt><trkpt lat="42.890974" lon="13.1130878"><ele>1467.0</ele><time>2026-04-26T08:43:56.968Z</time></trkpt><trkpt lat="42.8910653" lon="13.1130882"><ele>1466.3333333333333</ele><time>2026-04-26T08:43:57.966Z</time></trkpt><trkpt lat="42.891155" lon="13.1130927"><ele>1465.6666666666667</ele><time>2026-04-26T08:43:58.972Z</time></trkpt><trkpt lat="42.8912399" lon="13.1131031"><ele>1465.0</ele><time>2026-04-26T08:43:59.966Z</time></trkpt><trkpt lat="42.8913282" lon="13.113125"><ele>1464.3333333333335</ele><time>2026-04-26T08:44:00.979Z</time></trkpt><trkpt lat="42.8914132" lon="13.1131583"><ele>1463.6666666666667</ele><time>2026-04-26T08:44:01.969Z</time></trkpt><trkpt lat="42.8914972" lon="13.1132079"><ele>1463.0</ele><time>2026-04-26T08:44:02.973Z</time></trkpt><trkpt lat="42.8915832" lon="13.1132664"><ele>1463.0</ele><time>2026-04-26T08:44:03.966Z</time></trkpt><trkpt lat="42.8916678" lon="13.113317"><ele>1463.0</ele><time>2026-04-26T08:44:04.971Z</time></trkpt><trkpt lat="42.891752" lon="13.1133558"><ele>1463.0</ele><time>2026-04-26T08:44:05.959Z</time></trkpt><trkpt lat="42.8918375" lon="13.1133798"><ele>1463.0</ele><time>2026-04-26T08:44:06.973Z</time></trkpt><trkpt lat="42.8919305" lon="13.1133841"><ele>1463.0</ele><time>2026-04-26T08:44:07.964Z</time></trkpt><trkpt lat="42.8920294" lon="13.1133887"><ele>1461.6000000000001</ele><time>2026-04-26T08:44:08.974Z</time></trkpt><trkpt lat="42.8921348" lon="13.1133557"><ele>1460.2</ele><time>2026-04-26T08:44:09.964Z</time></trkpt><trkpt lat="42.8922395" lon="13.1133293"><ele>1458.8</ele><time>2026-04-26T08:44:10.969Z</time></trkpt><trkpt lat="42.8923414" lon="13.1133026"><ele>1457.4</ele><time>2026-04-26T08:44:11.975Z</time></trkpt><trkpt lat="42.8924369" lon="13.1132751"><ele>1456.0</ele><time>2026-04-26T08:44:12.975Z</time></trkpt><trkpt lat="42.8925259" lon="13.1132532"><ele>1451.1666666666665</ele><time>2026-04-26T08:44:13.982Z</time></trkpt><trkpt lat="42.8925982" lon="13.1132368"><ele>1446.3333333333333</ele><time>2026-04-26T08:44:14.975Z</time></trkpt><trkpt lat="42.8926933" lon="13.1132233"><ele>1441.5</ele><time>2026-04-26T08:44:16.965Z</time></trkpt><trkpt lat="42.8927699" lon="13.1132195"><ele>1436.6666666666667</ele><time>2026-04-26T08:44:19.969Z</time></trkpt><trkpt lat="42.8928291" lon="13.1131796"><ele>1431.8333333333335</ele><time>2026-04-26T08:45:13.968Z</time></trkpt><trkpt lat="42.8929404" lon="13.1131358"><ele>1427.0</ele><time>2026-04-26T08:45:15.969Z</time></trkpt><trkpt lat="42.8930179" lon="13.1131174"><ele>1427.0</ele><time>2026-04-26T08:45:16.972Z</time></trkpt><trkpt lat="42.8930978" lon="13.1130998"><ele>1427.0</ele><time>2026-04-26T08:45:17.959Z</time></trkpt><trkpt lat="42.8931851" lon="13.1130821"><ele>1427.0</ele><time>2026-04-26T08:45:18.958Z</time></trkpt><trkpt lat="42.8932752" lon="13.1130637"><ele>1427.0</ele><time>2026-04-26T08:45:19.967Z</time></trkpt><trkpt lat="42.8933699" lon="13.1130494"><ele>1427.0</ele><time>2026-04-26T08:45:20.961Z</time></trkpt><trkpt lat="42.8934603" lon="13.1130357"><ele>1427.0</ele><time>2026-04-26T08:45:21.958Z</time></trkpt><trkpt lat="42.8935546" lon="13.11304"><ele>1425.3999999999999</ele><time>2026-04-26T08:45:22.964Z</time></trkpt><trkpt lat="42.8936447" lon="13.1130531"><ele>1423.8</ele><time>2026-04-26T08:45:23.966Z</time></trkpt><trkpt lat="42.8937324" lon="13.113073"><ele>1422.2</ele><time>2026-04-26T08:45:24.967Z</time></trkpt><trkpt lat="42.8938209" lon="13.1130975"><ele>1420.6</ele><time>2026-04-26T08:45:25.963Z</time></trkpt><trkpt lat="42.8939109" lon="13.1131235"><ele>1419.0</ele><time>2026-04-26T08:45:26.968Z</time></trkpt><trkpt lat="42.8940005" lon="13.1131497"><ele>1419.0</ele><time>2026-04-26T08:45:27.963Z</time></trkpt><trkpt lat="42.8940942" lon="13.1131617"><ele>1419.0</ele><time>2026-04-26T08:45:28.962Z</time></trkpt><trkpt lat="42.8941888" lon="13.1131654"><ele>1419.0</ele><time>2026-04-26T08:45:29.965Z</time></trkpt><trkpt lat="42.8942804" lon="13.1131662"><ele>1419.0</ele><time>2026-04-26T08:45:30.962Z</time></trkpt><trkpt lat="42.8943774" lon="13.1131643"><ele>1419.0</ele><time>2026-04-26T08:45:31.963Z</time></trkpt><trkpt lat="42.8944713" lon="13.1131616"><ele>1420.8333333333333</ele><time>2026-04-26T08:45:32.961Z</time></trkpt><trkpt lat="42.8945614" lon="13.1131588"><ele>1422.6666666666667</ele><time>2026-04-26T08:45:33.965Z</time></trkpt><trkpt lat="42.8946477" lon="13.1131674"><ele>1424.5</ele><time>2026-04-26T08:45:34.972Z</time></trkpt><trkpt lat="42.894736" lon="13.1131764"><ele>1426.3333333333335</ele><time>2026-04-26T08:45:35.968Z</time></trkpt><trkpt lat="42.8947998" lon="13.1131895"><ele>1428.1666666666667</ele><time>2026-04-26T08:45:36.963Z</time></trkpt><trkpt lat="42.8948758" lon="13.1132291"><ele>1430.0</ele><time>2026-04-26T08:45:37.968Z</time></trkpt><trkpt lat="42.8949452" lon="13.1132669"><ele>1430.0</ele><time>2026-04-26T08:45:38.967Z</time></trkpt><trkpt lat="42.895016" lon="13.1133161"><ele>1430.0</ele><time>2026-04-26T08:45:39.966Z</time></trkpt><trkpt lat="42.8950778" lon="13.1133595"><ele>1430.0</ele><time>2026-04-26T08:45:40.973Z</time></trkpt><trkpt lat="42.8951458" lon="13.1133678"><ele>1430.0</ele><time>2026-04-26T08:45:41.964Z</time></trkpt><trkpt lat="42.8952266" lon="13.1133066"><ele>1430.0</ele><time>2026-04-26T08:45:42.962Z</time></trkpt><trkpt lat="42.8953062" lon="13.1132327"><ele>1430.0</ele><time>2026-04-26T08:45:43.968Z</time></trkpt><trkpt lat="42.8953884" lon="13.1131521"><ele>1425.4</ele><time>2026-04-26T08:45:44.965Z</time></trkpt><trkpt lat="42.8954742" lon="13.1130732"><ele>1420.8</ele><time>2026-04-26T08:45:45.967Z</time></trkpt><trkpt lat="42.8955598" lon="13.1129965"><ele>1416.1999999999998</ele><time>2026-04-26T08:45:46.966Z</time></trkpt><trkpt lat="42.8956347" lon="13.112911"><ele>1411.6</ele><time>2026-04-26T08:45:47.96Z</time></trkpt><trkpt lat="42.8957081" lon="13.1128307"><ele>1407.0</ele><time>2026-04-26T08:45:48.968Z</time></trkpt><trkpt lat="42.8957872" lon="13.1127561"><ele>1407.0</ele><time>2026-04-26T08:45:49.967Z</time></trkpt><trkpt lat="42.8958755" lon="13.1126907"><ele>1407.0</ele><time>2026-04-26T08:45:50.961Z</time></trkpt><trkpt lat="42.8959613" lon="13.1126266"><ele>1407.0</ele><time>2026-04-26T08:45:51.965Z</time></trkpt><trkpt lat="42.8960516" lon="13.1125707"><ele>1407.0</ele><time>2026-04-26T08:45:52.97Z</time></trkpt><trkpt lat="42.8961426" lon="13.1125143"><ele>1407.0</ele><time>2026-04-26T08:45:53.971Z</time></trkpt><trkpt lat="42.8962336" lon="13.1124539"><ele>1404.0</ele><time>2026-04-26T08:45:54.966Z</time></trkpt><trkpt lat="42.8963248" lon="13.1123923"><ele>1401.0</ele><time>2026-04-26T08:45:55.968Z</time></trkpt><trkpt lat="42.896414" lon="13.1123349"><ele>1398.0</ele><time>2026-04-26T08:45:56.963Z</time></trkpt><trkpt lat="42.8965037" lon="13.1122737"><ele>1395.0</ele><time>2026-04-26T08:45:57.962Z</time></trkpt><trkpt lat="42.8965891" lon="13.1122151"><ele>1392.0</ele><time>2026-04-26T08:45:58.965Z</time></trkpt><trkpt lat="42.8966791" lon="13.1121579"><ele>1391.3999999999999</ele><time>2026-04-26T08:45:59.966Z</time></trkpt><trkpt lat="42.896767" lon="13.112104"><ele>1390.8</ele><time>2026-04-26T08:46:00.994Z</time></trkpt><trkpt lat="42.8968598" lon="13.1120527"><ele>1390.2</ele><time>2026-04-26T08:46:01.975Z</time></trkpt><trkpt lat="42.8969582" lon="13.1120051"><ele>1389.6</ele><time>2026-04-26T08:46:02.969Z</time></trkpt><trkpt lat="42.8970535" lon="13.1119688"><ele>1389.0</ele><time>2026-04-26T08:46:03.976Z</time></trkpt><trkpt lat="42.8971461" lon="13.1119382"><ele>1389.0</ele><time>2026-04-26T08:46:04.971Z</time></trkpt><trkpt lat="42.897235" lon="13.111906"><ele>1389.0</ele><time>2026-04-26T08:46:05.974Z</time></trkpt><trkpt lat="42.8973207" lon="13.1118753"><ele>1389.0</ele><time>2026-04-26T08:46:06.974Z</time></trkpt><trkpt lat="42.8974063" lon="13.1118446"><ele>1389.0</ele><time>2026-04-26T08:46:07.971Z</time></trkpt><trkpt lat="42.8974938" lon="13.1118253"><ele>1389.0</ele><time>2026-04-26T08:46:08.971Z</time></trkpt><trkpt lat="42.8975795" lon="13.1118142"><ele>1389.0</ele><time>2026-04-26T08:46:09.971Z</time></trkpt><trkpt lat="42.897664" lon="13.1118025"><ele>1387.6666666666667</ele><time>2026-04-26T08:46:10.967Z</time></trkpt><trkpt lat="42.8977527" lon="13.1117926"><ele>1386.3333333333333</ele><time>2026-04-26T08:46:11.968Z</time></trkpt><trkpt lat="42.8978432" lon="13.1117811"><ele>1385.0</ele><time>2026-04-26T08:46:12.967Z</time></trkpt><trkpt lat="42.8979276" lon="13.1117655"><ele>1383.6666666666665</ele><time>2026-04-26T08:46:13.971Z</time></trkpt><trkpt lat="42.8980118" lon="13.111748"><ele>1382.3333333333333</ele><time>2026-04-26T08:46:14.972Z</time></trkpt><trkpt lat="42.8980983" lon="13.1117332"><ele>1381.0</ele><time>2026-04-26T08:46:15.968Z</time></trkpt><trkpt lat="42.898185" lon="13.11173"><ele>1381.0</ele><time>2026-04-26T08:46:16.968Z</time></trkpt><trkpt lat="42.8982711" lon="13.1117433"><ele>1381.0</ele><time>2026-04-26T08:46:17.97Z</time></trkpt><trkpt lat="42.8983538" lon="13.1117731"><ele>1381.0</ele><time>2026-04-26T08:46:18.968Z</time></trkpt><trkpt lat="42.8984399" lon="13.1118098"><ele>1381.0</ele><time>2026-04-26T08:46:19.972Z</time></trkpt><trkpt lat="42.8985263" lon="13.1118532"><ele>1381.0</ele><time>2026-04-26T08:46:20.968Z</time></trkpt><trkpt lat="42.8986141" lon="13.1119013"><ele>1381.0</ele><time>2026-04-26T08:46:21.971Z</time></trkpt><trkpt lat="42.8986971" lon="13.1119458"><ele>1378.8333333333333</ele><time>2026-04-26T08:46:22.968Z</time></trkpt><trkpt lat="42.8987782" lon="13.1119874"><ele>1376.6666666666665</ele><time>2026-04-26T08:46:23.967Z</time></trkpt><trkpt lat="42.8988556" lon="13.1120261"><ele>1374.5</ele><time>2026-04-26T08:46:24.966Z</time></trkpt><trkpt lat="42.8989289" lon="13.1120633"><ele>1372.3333333333333</ele><time>2026-04-26T08:46:25.969Z</time></trkpt><trkpt lat="42.8989983" lon="13.1121004"><ele>1370.1666666666667</ele><time>2026-04-26T08:46:26.967Z</time></trkpt><trkpt lat="42.8990654" lon="13.1121363"><ele>1368.0</ele><time>2026-04-26T08:46:27.974Z</time></trkpt><trkpt lat="42.8991282" lon="13.1121637"><ele>1368.0</ele><time>2026-04-26T08:46:28.97Z</time></trkpt><trkpt lat="42.8992421" lon="13.1121844"><ele>1368.0</ele><time>2026-04-26T08:46:30.967Z</time></trkpt><trkpt lat="42.8993269" lon="13.1121309"><ele>1368.0</ele><time>2026-04-26T08:46:32.971Z</time></trkpt><trkpt lat="42.8993696" lon="13.1120178"><ele>1368.0</ele><time>2026-04-26T08:46:34.974Z</time></trkpt><trkpt lat="42.8993595" lon="13.1118522"><ele>1368.0</ele><time>2026-04-26T08:46:36.974Z</time></trkpt><trkpt lat="42.8993416" lon="13.1117508"><ele>1367.0</ele><time>2026-04-26T08:46:37.976Z</time></trkpt><trkpt lat="42.8993021" lon="13.1116418"><ele>1366.0</ele><time>2026-04-26T08:46:38.969Z</time></trkpt><trkpt lat="42.899262" lon="13.1115294"><ele>1365.0</ele><time>2026-04-26T08:46:39.965Z</time></trkpt><trkpt lat="42.8992185" lon="13.1114167"><ele>1364.0</ele><time>2026-04-26T08:46:40.968Z</time></trkpt><trkpt lat="42.8991787" lon="13.1113073"><ele>1363.0</ele><time>2026-04-26T08:46:41.971Z</time></trkpt><trkpt lat="42.8991445" lon="13.1111943"><ele>1363.0</ele><time>2026-04-26T08:46:42.967Z</time></trkpt><trkpt lat="42.8991137" lon="13.1110747"><ele>1363.0</ele><time>2026-04-26T08:46:43.966Z</time></trkpt><trkpt lat="42.8990829" lon="13.110953"><ele>1363.0</ele><time>2026-04-26T08:46:44.965Z</time></trkpt><trkpt lat="42.8990524" lon="13.1108378"><ele>1363.0</ele><time>2026-04-26T08:46:45.964Z</time></trkpt><trkpt lat="42.8990183" lon="13.1107273"><ele>1363.0</ele><time>2026-04-26T08:46:46.966Z</time></trkpt><trkpt lat="42.8989761" lon="13.1106219"><ele>1362.0</ele><time>2026-04-26T08:46:47.967Z</time></trkpt><trkpt lat="42.8989238" lon="13.1105247"><ele>1361.0</ele><time>2026-04-26T08:46:48.971Z</time></trkpt><trkpt lat="42.8988544" lon="13.1104403"><ele>1360.0</ele><time>2026-04-26T08:46:49.968Z</time></trkpt><trkpt lat="42.8987706" lon="13.1103719"><ele>1359.0</ele><time>2026-04-26T08:46:50.972Z</time></trkpt><trkpt lat="42.8986803" lon="13.1103076"><ele>1358.0</ele><time>2026-04-26T08:46:51.968Z</time></trkpt><trkpt lat="42.8985871" lon="13.1102484"><ele>1358.0</ele><time>2026-04-26T08:46:52.973Z</time></trkpt><trkpt lat="42.8984906" lon="13.1101914"><ele>1358.0</ele><time>2026-04-26T08:46:53.968Z</time></trkpt><trkpt lat="42.8983933" lon="13.1101354"><ele>1358.0</ele><time>2026-04-26T08:46:54.985Z</time></trkpt><trkpt lat="42.898295" lon="13.110079"><ele>1358.0</ele><time>2026-04-26T08:46:55.97Z</time></trkpt><trkpt lat="42.8981999" lon="13.1100205"><ele>1358.0</ele><time>2026-04-26T08:46:56.971Z</time></trkpt><trkpt lat="42.8981119" lon="13.1099617"><ele>1355.8000000000002</ele><time>2026-04-26T08:46:57.97Z</time></trkpt><trkpt lat="42.8980243" lon="13.1098977"><ele>1353.6</ele><time>2026-04-26T08:46:58.974Z</time></trkpt><trkpt lat="42.8979396" lon="13.1098373"><ele>1351.4</ele><time>2026-04-26T08:46:59.975Z</time></trkpt><trkpt lat="42.8978588" lon="13.109766"><ele>1349.1999999999998</ele><time>2026-04-26T08:47:00.969Z</time></trkpt><trkpt lat="42.89778" lon="13.1096989"><ele>1347.0</ele><time>2026-04-26T08:47:01.967Z</time></trkpt><trkpt lat="42.8977017" lon="13.1096319"><ele>1347.0</ele><time>2026-04-26T08:47:02.972Z</time></trkpt><trkpt lat="42.8976171" lon="13.1095585"><ele>1347.0</ele><time>2026-04-26T08:47:03.974Z</time></trkpt><trkpt lat="42.8975342" lon="13.1094856"><ele>1347.0</ele><time>2026-04-26T08:47:04.969Z</time></trkpt><trkpt lat="42.897451" lon="13.1094186"><ele>1347.0</ele><time>2026-04-26T08:47:05.967Z</time></trkpt><trkpt lat="42.8973702" lon="13.1093526"><ele>1347.0</ele><time>2026-04-26T08:47:06.968Z</time></trkpt><trkpt lat="42.8972926" lon="13.1092848"><ele>1347.3999999999999</ele><time>2026-04-26T08:47:07.975Z</time></trkpt><trkpt lat="42.8972125" lon="13.1092153"><ele>1347.8</ele><time>2026-04-26T08:47:08.971Z</time></trkpt><trkpt lat="42.8971355" lon="13.1091474"><ele>1348.2</ele><time>2026-04-26T08:47:09.969Z</time></trkpt><trkpt lat="42.8970592" lon="13.1090787"><ele>1348.6</ele><time>2026-04-26T08:47:10.974Z</time></trkpt><trkpt lat="42.896986" lon="13.1090131"><ele>1349.0</ele><time>2026-04-26T08:47:11.973Z</time></trkpt><trkpt lat="42.8969173" lon="13.108945"><ele>1347.1666666666667</ele><time>2026-04-26T08:47:12.969Z</time></trkpt><trkpt lat="42.8968491" lon="13.1088743"><ele>1345.3333333333335</ele><time>2026-04-26T08:47:13.967Z</time></trkpt><trkpt lat="42.8967803" lon="13.1088073"><ele>1343.5</ele><time>2026-04-26T08:47:14.967Z</time></trkpt><trkpt lat="42.8967072" lon="13.1087489"><ele>1341.6666666666667</ele><time>2026-04-26T08:47:15.969Z</time></trkpt><trkpt lat="42.8966295" lon="13.1087118"><ele>1339.8333333333333</ele><time>2026-04-26T08:47:16.971Z</time></trkpt><trkpt lat="42.8965461" lon="13.1087004"><ele>1338.0</ele><time>2026-04-26T08:47:17.969Z</time></trkpt><trkpt lat="42.8964632" lon="13.108718"><ele>1337.6000000000001</ele><time>2026-04-26T08:47:18.973Z</time></trkpt><trkpt lat="42.89638" lon="13.1087588"><ele>1337.2</ele><time>2026-04-26T08:47:19.976Z</time></trkpt><trkpt lat="42.8962966" lon="13.1088071"><ele>1336.8</ele><time>2026-04-26T08:47:20.968Z</time></trkpt><trkpt lat="42.896212" lon="13.1088592"><ele>1336.4</ele><time>2026-04-26T08:47:21.966Z</time></trkpt><trkpt lat="42.8961251" lon="13.1089179"><ele>1336.0</ele><time>2026-04-26T08:47:22.967Z</time></trkpt><trkpt lat="42.8960369" lon="13.1089788"><ele>1336.0</ele><time>2026-04-26T08:47:23.969Z</time></trkpt><trkpt lat="42.895956" lon="13.1090319"><ele>1336.0</ele><time>2026-04-26T08:47:24.971Z</time></trkpt><trkpt lat="42.8958846" lon="13.1090781"><ele>1336.0</ele><time>2026-04-26T08:47:25.976Z</time></trkpt><trkpt lat="42.8958205" lon="13.1091171"><ele>1336.0</ele><time>2026-04-26T08:47:26.966Z</time></trkpt><trkpt lat="42.8957601" lon="13.1091474"><ele>1336.0</ele><time>2026-04-26T08:47:27.97Z</time></trkpt><trkpt lat="42.8956432" lon="13.1091594"><ele>1336.0</ele><time>2026-04-26T08:47:29.968Z</time></trkpt><trkpt lat="42.8955449" lon="13.1090855"><ele>1334.6</ele><time>2026-04-26T08:47:31.965Z</time></trkpt><trkpt lat="42.8954975" lon="13.1089397"><ele>1333.1999999999998</ele><time>2026-04-26T08:47:33.971Z</time></trkpt><trkpt lat="42.8955028" lon="13.1088498"><ele>1331.8000000000002</ele><time>2026-04-26T08:47:34.97Z</time></trkpt><trkpt lat="42.8955239" lon="13.1087457"><ele>1330.4</ele><time>2026-04-26T08:47:35.968Z</time></trkpt><trkpt lat="42.8955568" lon="13.1086294"><ele>1329.0</ele><time>2026-04-26T08:47:36.967Z</time></trkpt><trkpt lat="42.895596" lon="13.1085076"><ele>1329.0</ele><time>2026-04-26T08:47:37.972Z</time></trkpt><trkpt lat="42.8956363" lon="13.1083775"><ele>1329.0</ele><time>2026-04-26T08:47:38.976Z</time></trkpt><trkpt lat="42.8956714" lon="13.1082455"><ele>1329.0</ele><time>2026-04-26T08:47:39.968Z</time></trkpt><trkpt lat="42.8957086" lon="13.108107"><ele>1329.0</ele><time>2026-04-26T08:47:40.97Z</time></trkpt><trkpt lat="42.8957473" lon="13.107963"><ele>1329.0</ele><time>2026-04-26T08:47:41.968Z</time></trkpt><trkpt lat="42.8957862" lon="13.1078183"><ele>1327.6</ele><time>2026-04-26T08:47:42.966Z</time></trkpt><trkpt lat="42.8958256" lon="13.107681"><ele>1326.2</ele><time>2026-04-26T08:47:43.963Z</time></trkpt><trkpt lat="42.8958658" lon="13.1075438"><ele>1324.8</ele><time>2026-04-26T08:47:44.967Z</time></trkpt><trkpt lat="42.8959084" lon="13.1074059"><ele>1323.3999999999999</ele><time>2026-04-26T08:47:45.966Z</time></trkpt><trkpt lat="42.8959506" lon="13.107273"><ele>1322.0</ele><time>2026-04-26T08:47:46.971Z</time></trkpt><trkpt lat="42.8959932" lon="13.1071431"><ele>1321.3999999999999</ele><time>2026-04-26T08:47:47.977Z</time></trkpt><trkpt lat="42.8960368" lon="13.107018"><ele>1320.8</ele><time>2026-04-26T08:47:48.967Z</time></trkpt><trkpt lat="42.8960864" lon="13.1068925"><ele>1320.2</ele><time>2026-04-26T08:47:49.977Z</time></trkpt><trkpt lat="42.8961457" lon="13.1067697"><ele>1319.6</ele><time>2026-04-26T08:47:50.97Z</time></trkpt><trkpt lat="42.8962124" lon="13.1066533"><ele>1319.0</ele><time>2026-04-26T08:47:51.967Z</time></trkpt><trkpt lat="42.896283" lon="13.1065485"><ele>1317.4</ele><time>2026-04-26T08:47:52.987Z</time></trkpt><trkpt lat="42.8963553" lon="13.1064529"><ele>1315.8000000000002</ele><time>2026-04-26T08:47:53.97Z</time></trkpt><trkpt lat="42.8964304" lon="13.1063578"><ele>1314.1999999999998</ele><time>2026-04-26T08:47:54.964Z</time></trkpt><trkpt lat="42.8965089" lon="13.1062614"><ele>1312.6</ele><time>2026-04-26T08:47:55.984Z</time></trkpt><trkpt lat="42.8965841" lon="13.1061637"><ele>1311.0</ele><time>2026-04-26T08:47:56.971Z</time></trkpt><trkpt lat="42.8966567" lon="13.1060713"><ele>1311.0</ele><time>2026-04-26T08:47:57.967Z</time></trkpt><trkpt lat="42.8967302" lon="13.1059795"><ele>1311.0</ele><time>2026-04-26T08:47:58.966Z</time></trkpt><trkpt lat="42.8968016" lon="13.1058921"><ele>1311.0</ele><time>2026-04-26T08:47:59.985Z</time></trkpt><trkpt lat="42.8968756" lon="13.1058008"><ele>1311.0</ele><time>2026-04-26T08:48:00.975Z</time></trkpt><trkpt lat="42.8969531" lon="13.1057044"><ele>1311.0</ele><time>2026-04-26T08:48:01.966Z</time></trkpt><trkpt lat="42.8970356" lon="13.1056052"><ele>1310.75</ele><time>2026-04-26T08:48:02.976Z</time></trkpt><trkpt lat="42.8971213" lon="13.1055022"><ele>1310.5</ele><time>2026-04-26T08:48:03.969Z</time></trkpt><trkpt lat="42.8972105" lon="13.1054"><ele>1310.25</ele><time>2026-04-26T08:48:04.973Z</time></trkpt><trkpt lat="42.8973024" lon="13.1053015"><ele>1310.0</ele><time>2026-04-26T08:48:05.965Z</time></trkpt><trkpt lat="42.8973916" lon="13.1052125"><ele>1310.0</ele><time>2026-04-26T08:48:06.969Z</time></trkpt><trkpt lat="42.8974829" lon="13.1051327"><ele>1310.0</ele><time>2026-04-26T08:48:07.968Z</time></trkpt><trkpt lat="42.8975727" lon="13.1050608"><ele>1310.0</ele><time>2026-04-26T08:48:08.97Z</time></trkpt><trkpt lat="42.8976641" lon="13.1049886"><ele>1310.0</ele><time>2026-04-26T08:48:09.964Z</time></trkpt><trkpt lat="42.8977577" lon="13.1049166"><ele>1310.0</ele><time>2026-04-26T08:48:10.963Z</time></trkpt><trkpt lat="42.8978496" lon="13.1048474"><ele>1309.4</ele><time>2026-04-26T08:48:11.968Z</time></trkpt><trkpt lat="42.8979399" lon="13.1047787"><ele>1308.8</ele><time>2026-04-26T08:48:12.964Z</time></trkpt><trkpt lat="42.898029" lon="13.1047126"><ele>1308.1999999999998</ele><time>2026-04-26T08:48:13.957Z</time></trkpt><trkpt lat="42.8981131" lon="13.1046537"><ele>1307.6</ele><time>2026-04-26T08:48:14.963Z</time></trkpt><trkpt lat="42.8982034" lon="13.1045945"><ele>1307.0</ele><time>2026-04-26T08:48:15.967Z</time></trkpt><trkpt lat="42.8982975" lon="13.1045313"><ele>1307.0</ele><time>2026-04-26T08:48:16.963Z</time></trkpt><trkpt lat="42.8983984" lon="13.1044622"><ele>1307.0</ele><time>2026-04-26T08:48:17.967Z</time></trkpt><trkpt lat="42.8984975" lon="13.1043952"><ele>1307.0</ele><time>2026-04-26T08:48:18.961Z</time></trkpt><trkpt lat="42.8985964" lon="13.1043303"><ele>1307.0</ele><time>2026-04-26T08:48:19.96Z</time></trkpt><trkpt lat="42.8986948" lon="13.1042779"><ele>1307.0</ele><time>2026-04-26T08:48:20.965Z</time></trkpt><trkpt lat="42.8987934" lon="13.1042324"><ele>1306.8</ele><time>2026-04-26T08:48:21.97Z</time></trkpt><trkpt lat="42.8988984" lon="13.1041855"><ele>1306.6</ele><time>2026-04-26T08:48:22.976Z</time></trkpt><trkpt lat="42.8990037" lon="13.1041471"><ele>1306.3999999999999</ele><time>2026-04-26T08:48:23.969Z</time></trkpt><trkpt lat="42.8991097" lon="13.1041107"><ele>1306.1999999999998</ele><time>2026-04-26T08:48:24.97Z</time></trkpt><trkpt lat="42.8992111" lon="13.1040685"><ele>1306.0</ele><time>2026-04-26T08:48:25.966Z</time></trkpt><trkpt lat="42.8993145" lon="13.104029"><ele>1302.6</ele><time>2026-04-26T08:48:26.965Z</time></trkpt><trkpt lat="42.8994194" lon="13.1039932"><ele>1299.1999999999998</ele><time>2026-04-26T08:48:27.964Z</time></trkpt><trkpt lat="42.8995251" lon="13.1039603"><ele>1295.8000000000002</ele><time>2026-04-26T08:48:28.965Z</time></trkpt><trkpt lat="42.8996379" lon="13.1039303"><ele>1292.4</ele><time>2026-04-26T08:48:29.965Z</time></trkpt><trkpt lat="42.89975" lon="13.1039002"><ele>1289.0</ele><time>2026-04-26T08:48:30.963Z</time></trkpt><trkpt lat="42.8998572" lon="13.1038613"><ele>1289.0</ele><time>2026-04-26T08:48:31.968Z</time></trkpt><trkpt lat="42.8999638" lon="13.1038189"><ele>1289.0</ele><time>2026-04-26T08:48:32.964Z</time></trkpt><trkpt lat="42.9000758" lon="13.1037853"><ele>1289.0</ele><time>2026-04-26T08:48:33.966Z</time></trkpt><trkpt lat="42.9001912" lon="13.1037687"><ele>1289.0</ele><time>2026-04-26T08:48:34.963Z</time></trkpt><trkpt lat="42.9003097" lon="13.1037695"><ele>1286.6000000000001</ele><time>2026-04-26T08:48:35.969Z</time></trkpt><trkpt lat="42.9004207" lon="13.1037866"><ele>1284.2</ele><time>2026-04-26T08:48:36.969Z</time></trkpt><trkpt lat="42.9005292" lon="13.1038052"><ele>1281.8000000000002</ele><time>2026-04-26T08:48:37.966Z</time></trkpt><trkpt lat="42.9006259" lon="13.1038397"><ele>1279.4</ele><time>2026-04-26T08:48:38.97Z</time></trkpt><trkpt lat="42.9007313" lon="13.1038886"><ele>1277.0</ele><time>2026-04-26T08:48:39.97Z</time></trkpt><trkpt lat="42.9008412" lon="13.1039479"><ele>1274.75</ele><time>2026-04-26T08:48:40.969Z</time></trkpt><trkpt lat="42.9009484" lon="13.1040068"><ele>1272.5</ele><time>2026-04-26T08:48:41.963Z</time></trkpt><trkpt lat="42.9010551" lon="13.1040676"><ele>1270.25</ele><time>2026-04-26T08:48:42.968Z</time></trkpt><trkpt lat="42.9011607" lon="13.1041421"><ele>1268.0</ele><time>2026-04-26T08:48:43.973Z</time></trkpt><trkpt lat="42.9012601" lon="13.1042281"><ele>1268.0</ele><time>2026-04-26T08:48:44.967Z</time></trkpt><trkpt lat="42.9013489" lon="13.104318"><ele>1268.0</ele><time>2026-04-26T08:48:45.964Z</time></trkpt><trkpt lat="42.9014401" lon="13.1044053"><ele>1268.0</ele><time>2026-04-26T08:48:46.966Z</time></trkpt><trkpt lat="42.9015339" lon="13.104482"><ele>1268.0</ele><time>2026-04-26T08:48:47.963Z</time></trkpt><trkpt lat="42.9016337" lon="13.1045469"><ele>1268.0</ele><time>2026-04-26T08:48:48.974Z</time></trkpt><trkpt lat="42.9017405" lon="13.1046001"><ele>1265.75</ele><time>2026-04-26T08:48:49.968Z</time></trkpt><trkpt lat="42.9018629" lon="13.1046487"><ele>1263.5</ele><time>2026-04-26T08:48:50.964Z</time></trkpt><trkpt lat="42.9019908" lon="13.1046855"><ele>1261.25</ele><time>2026-04-26T08:48:51.963Z</time></trkpt><trkpt lat="42.9021122" lon="13.1047064"><ele>1259.0</ele><time>2026-04-26T08:48:52.97Z</time></trkpt><trkpt lat="42.9022267" lon="13.1047148"><ele>1259.0</ele><time>2026-04-26T08:48:53.968Z</time></trkpt><trkpt lat="42.9023285" lon="13.1047188"><ele>1259.0</ele><time>2026-04-26T08:48:54.969Z</time></trkpt><trkpt lat="42.9024261" lon="13.1047286"><ele>1259.0</ele><time>2026-04-26T08:48:55.964Z</time></trkpt><trkpt lat="42.9025174" lon="13.1047518"><ele>1259.0</ele><time>2026-04-26T08:48:56.971Z</time></trkpt><trkpt lat="42.9026102" lon="13.1048017"><ele>1259.0</ele><time>2026-04-26T08:48:57.966Z</time></trkpt><trkpt lat="42.9027016" lon="13.1048733"><ele>1261.4</ele><time>2026-04-26T08:48:58.969Z</time></trkpt><trkpt lat="42.9027879" lon="13.1049412"><ele>1263.8000000000002</ele><time>2026-04-26T08:48:59.967Z</time></trkpt><trkpt lat="42.9028808" lon="13.1049955"><ele>1266.1999999999998</ele><time>2026-04-26T08:49:00.964Z</time></trkpt><trkpt lat="42.9029826" lon="13.105026"><ele>1268.6</ele><time>2026-04-26T08:49:01.966Z</time></trkpt><trkpt lat="42.9030936" lon="13.1050382"><ele>1271.0</ele><time>2026-04-26T08:49:02.967Z</time></trkpt><trkpt lat="42.903214" lon="13.1050328"><ele>1271.0</ele><time>2026-04-26T08:49:03.964Z</time></trkpt><trkpt lat="42.9033327" lon="13.105015"><ele>1271.0</ele><time>2026-04-26T08:49:04.961Z</time></trkpt><trkpt lat="42.9034424" lon="13.1049786"><ele>1271.0</ele><time>2026-04-26T08:49:05.97Z</time></trkpt><trkpt lat="42.9035537" lon="13.1049263"><ele>1271.0</ele><time>2026-04-26T08:49:06.969Z</time></trkpt><trkpt lat="42.9036679" lon="13.1048674"><ele>1266.5</ele><time>2026-04-26T08:49:07.97Z</time></trkpt><trkpt lat="42.9037835" lon="13.1048082"><ele>1262.0</ele><time>2026-04-26T08:49:08.965Z</time></trkpt><trkpt lat="42.9039022" lon="13.1047453"><ele>1257.5</ele><time>2026-04-26T08:49:09.971Z</time></trkpt><trkpt lat="42.9040171" lon="13.1046802"><ele>1253.0</ele><time>2026-04-26T08:49:10.967Z</time></trkpt><trkpt lat="42.9041273" lon="13.1046153"><ele>1253.0</ele><time>2026-04-26T08:49:11.969Z</time></trkpt><trkpt lat="42.9042313" lon="13.1045498"><ele>1253.0</ele><time>2026-04-26T08:49:12.969Z</time></trkpt><trkpt lat="42.9043312" lon="13.1044814"><ele>1253.0</ele><time>2026-04-26T08:49:13.967Z</time></trkpt><trkpt lat="42.9044339" lon="13.1044055"><ele>1253.0</ele><time>2026-04-26T08:49:14.969Z</time></trkpt><trkpt lat="42.9045364" lon="13.1043282"><ele>1251.75</ele><time>2026-04-26T08:49:15.964Z</time></trkpt><trkpt lat="42.9046376" lon="13.1042362"><ele>1250.5</ele><time>2026-04-26T08:49:16.967Z</time></trkpt><trkpt lat="42.9047419" lon="13.1041321"><ele>1249.25</ele><time>2026-04-26T08:49:17.972Z</time></trkpt><trkpt lat="42.9048357" lon="13.1040194"><ele>1248.0</ele><time>2026-04-26T08:49:18.968Z</time></trkpt><trkpt lat="42.9049201" lon="13.1038983"><ele>1248.0</ele><time>2026-04-26T08:49:19.963Z</time></trkpt><trkpt lat="42.9049983" lon="13.1037834"><ele>1248.0</ele><time>2026-04-26T08:49:20.968Z</time></trkpt><trkpt lat="42.9050832" lon="13.1036762"><ele>1248.0</ele><time>2026-04-26T08:49:21.971Z</time></trkpt><trkpt lat="42.9051791" lon="13.1035819"><ele>1248.0</ele><time>2026-04-26T08:49:22.971Z</time></trkpt><trkpt lat="42.9052879" lon="13.1034986"><ele>1248.5</ele><time>2026-04-26T08:49:23.965Z</time></trkpt><trkpt lat="42.9054019" lon="13.1034199"><ele>1249.0</ele><time>2026-04-26T08:49:24.969Z</time></trkpt><trkpt lat="42.9055184" lon="13.1033438"><ele>1249.5</ele><time>2026-04-26T08:49:25.964Z</time></trkpt><trkpt lat="42.9056292" lon="13.1032766"><ele>1250.0</ele><time>2026-04-26T08:49:26.967Z</time></trkpt><trkpt lat="42.9057367" lon="13.1032272"><ele>1244.75</ele><time>2026-04-26T08:49:27.968Z</time></trkpt><trkpt lat="42.9058449" lon="13.1031992"><ele>1239.5</ele><time>2026-04-26T08:49:28.971Z</time></trkpt><trkpt lat="42.9059605" lon="13.1031902"><ele>1234.25</ele><time>2026-04-26T08:49:29.971Z</time></trkpt><trkpt lat="42.9060777" lon="13.1032011"><ele>1229.0</ele><time>2026-04-26T08:49:30.964Z</time></trkpt><trkpt lat="42.9061936" lon="13.1032272"><ele>1231.4</ele><time>2026-04-26T08:49:31.974Z</time></trkpt><trkpt lat="42.9063038" lon="13.1032643"><ele>1233.8000000000002</ele><time>2026-04-26T08:49:32.967Z</time></trkpt><trkpt lat="42.9064025" lon="13.1033124"><ele>1236.1999999999998</ele><time>2026-04-26T08:49:33.968Z</time></trkpt><trkpt lat="42.9064932" lon="13.1033704"><ele>1238.6</ele><time>2026-04-26T08:49:34.975Z</time></trkpt><trkpt lat="42.9065689" lon="13.1034349"><ele>1241.0</ele><time>2026-04-26T08:49:35.977Z</time></trkpt><trkpt lat="42.906629" lon="13.1035084"><ele>1241.0</ele><time>2026-04-26T08:49:36.966Z</time></trkpt><trkpt lat="42.9066711" lon="13.1035997"><ele>1241.0</ele><time>2026-04-26T08:49:37.975Z</time></trkpt><trkpt lat="42.9066936" lon="13.103705"><ele>1241.0</ele><time>2026-04-26T08:49:38.975Z</time></trkpt><trkpt lat="42.906697" lon="13.1038238"><ele>1241.0</ele><time>2026-04-26T08:49:39.969Z</time></trkpt><trkpt lat="42.9066828" lon="13.1039554"><ele>1241.0</ele><time>2026-04-26T08:49:40.999Z</time></trkpt><trkpt lat="42.9066669" lon="13.1040842"><ele>1241.0</ele><time>2026-04-26T08:49:41.98Z</time></trkpt><trkpt lat="42.906637" lon="13.104218"><ele>1242.3333333333335</ele><time>2026-04-26T08:49:42.97Z</time></trkpt><trkpt lat="42.9066049" lon="13.104345"><ele>1243.6666666666667</ele><time>2026-04-26T08:49:43.966Z</time></trkpt><trkpt lat="42.9065993" lon="13.1044534"><ele>1245.0</ele><time>2026-04-26T08:49:44.969Z</time></trkpt><trkpt lat="42.9065991" lon="13.1045629"><ele>1246.3333333333333</ele><time>2026-04-26T08:49:45.961Z</time></trkpt><trkpt lat="42.9066148" lon="13.104662"><ele>1247.6666666666665</ele><time>2026-04-26T08:49:46.967Z</time></trkpt><trkpt lat="42.9066276" lon="13.1047516"><ele>1249.0</ele><time>2026-04-26T08:49:47.975Z</time></trkpt><trkpt lat="42.9066799" lon="13.1048241"><ele>1249.0</ele><time>2026-04-26T08:49:48.971Z</time></trkpt><trkpt lat="42.9067313" lon="13.104882"><ele>1249.0</ele><time>2026-04-26T08:49:49.963Z</time></trkpt><trkpt lat="42.9068697" lon="13.1048689"><ele>1249.0</ele><time>2026-04-26T08:49:51.965Z</time></trkpt><trkpt lat="42.9069539" lon="13.1048145"><ele>1249.0</ele><time>2026-04-26T08:49:52.971Z</time></trkpt><trkpt lat="42.9070504" lon="13.1047499"><ele>1249.0</ele><time>2026-04-26T08:49:53.97Z</time></trkpt><trkpt lat="42.9071587" lon="13.1046667"><ele>1247.5</ele><time>2026-04-26T08:49:54.964Z</time></trkpt><trkpt lat="42.9072638" lon="13.1045798"><ele>1246.0</ele><time>2026-04-26T08:49:55.963Z</time></trkpt><trkpt lat="42.9073711" lon="13.104484"><ele>1244.5</ele><time>2026-04-26T08:49:56.966Z</time></trkpt><trkpt lat="42.9074773" lon="13.1043733"><ele>1243.0</ele><time>2026-04-26T08:49:57.961Z</time></trkpt><trkpt lat="42.9075747" lon="13.1042555"><ele>1244.5</ele><time>2026-04-26T08:49:58.963Z</time></trkpt><trkpt lat="42.9076646" lon="13.104142"><ele>1246.0</ele><time>2026-04-26T08:49:59.967Z</time></trkpt><trkpt lat="42.9077373" lon="13.1040107"><ele>1247.5</ele><time>2026-04-26T08:50:00.967Z</time></trkpt><trkpt lat="42.9078096" lon="13.1038709"><ele>1249.0</ele><time>2026-04-26T08:50:01.963Z</time></trkpt><trkpt lat="42.9078756" lon="13.1037448"><ele>1245.8</ele><time>2026-04-26T08:50:02.962Z</time></trkpt><trkpt lat="42.9079444" lon="13.1036403"><ele>1242.6000000000001</ele><time>2026-04-26T08:50:03.965Z</time></trkpt><trkpt lat="42.9080195" lon="13.1035608"><ele>1239.4</ele><time>2026-04-26T08:50:04.96Z</time></trkpt><trkpt lat="42.9081089" lon="13.1035015"><ele>1236.2</ele><time>2026-04-26T08:50:05.963Z</time></trkpt><trkpt lat="42.9082109" lon="13.1034531"><ele>1233.0</ele><time>2026-04-26T08:50:06.967Z</time></trkpt><trkpt lat="42.9083172" lon="13.1034049"><ele>1233.5</ele><time>2026-04-26T08:50:07.97Z</time></trkpt><trkpt lat="42.9084293" lon="13.103348"><ele>1234.0</ele><time>2026-04-26T08:50:08.967Z</time></trkpt><trkpt lat="42.9085399" lon="13.1032891"><ele>1234.5</ele><time>2026-04-26T08:50:09.966Z</time></trkpt><trkpt lat="42.9086484" lon="13.1032355"><ele>1235.0</ele><time>2026-04-26T08:50:10.97Z</time></trkpt><trkpt lat="42.9087549" lon="13.103191"><ele>1232.0</ele><time>2026-04-26T08:50:11.971Z</time></trkpt><trkpt lat="42.9088593" lon="13.1031581"><ele>1229.0</ele><time>2026-04-26T08:50:12.971Z</time></trkpt><trkpt lat="42.9089646" lon="13.1031422"><ele>1226.0</ele><time>2026-04-26T08:50:13.972Z</time></trkpt><trkpt lat="42.9090668" lon="13.1031358"><ele>1223.0</ele><time>2026-04-26T08:50:14.97Z</time></trkpt><trkpt lat="42.9091753" lon="13.1031307"><ele>1220.0</ele><time>2026-04-26T08:50:15.969Z</time></trkpt><trkpt lat="42.909286" lon="13.1031323"><ele>1218.0</ele><time>2026-04-26T08:50:16.968Z</time></trkpt><trkpt lat="42.9093894" lon="13.1031399"><ele>1216.0</ele><time>2026-04-26T08:50:17.967Z</time></trkpt><trkpt lat="42.9094867" lon="13.1031533"><ele>1214.0</ele><time>2026-04-26T08:50:18.975Z</time></trkpt><trkpt lat="42.9095763" lon="13.1031677"><ele>1212.0</ele><time>2026-04-26T08:50:19.972Z</time></trkpt><trkpt lat="42.9096546" lon="13.1031985"><ele>1210.0</ele><time>2026-04-26T08:50:20.967Z</time></trkpt><trkpt lat="42.9097304" lon="13.1032435"><ele>1212.1666666666665</ele><time>2026-04-26T08:50:21.967Z</time></trkpt><trkpt lat="42.9097939" lon="13.1033"><ele>1214.3333333333333</ele><time>2026-04-26T08:50:22.973Z</time></trkpt><trkpt lat="42.9098508" lon="13.103377"><ele>1216.5</ele><time>2026-04-26T08:50:23.968Z</time></trkpt><trkpt lat="42.9098982" lon="13.1034657"><ele>1218.6666666666667</ele><time>2026-04-26T08:50:24.966Z</time></trkpt><trkpt lat="42.9099434" lon="13.1035501"><ele>1220.8333333333335</ele><time>2026-04-26T08:50:25.967Z</time></trkpt><trkpt lat="42.9099679" lon="13.1036513"><ele>1223.0</ele><time>2026-04-26T08:50:26.97Z</time></trkpt><trkpt lat="42.9099876" lon="13.1037685"><ele>1223.0</ele><time>2026-04-26T08:50:27.966Z</time></trkpt><trkpt lat="42.9099993" lon="13.1038948"><ele>1223.0</ele><time>2026-04-26T08:50:28.966Z</time></trkpt><trkpt lat="42.9100037" lon="13.1040105"><ele>1223.0</ele><time>2026-04-26T08:50:29.969Z</time></trkpt><trkpt lat="42.909998" lon="13.1041222"><ele>1223.0</ele><time>2026-04-26T08:50:30.965Z</time></trkpt><trkpt lat="42.9099799" lon="13.1042352"><ele>1223.0</ele><time>2026-04-26T08:50:31.969Z</time></trkpt><trkpt lat="42.9099546" lon="13.1043441"><ele>1223.0</ele><time>2026-04-26T08:50:32.968Z</time></trkpt><trkpt lat="42.9099304" lon="13.1044517"><ele>1223.0</ele><time>2026-04-26T08:50:33.982Z</time></trkpt><trkpt lat="42.9099106" lon="13.1045543"><ele>1223.0</ele><time>2026-04-26T08:50:34.973Z</time></trkpt><trkpt lat="42.9099032" lon="13.1046519"><ele>1223.0</ele><time>2026-04-26T08:50:35.978Z</time></trkpt><trkpt lat="42.9099113" lon="13.1047511"><ele>1223.0</ele><time>2026-04-26T08:50:36.98Z</time></trkpt><trkpt lat="42.9099391" lon="13.1048518"><ele>1223.0</ele><time>2026-04-26T08:50:37.975Z</time></trkpt><trkpt lat="42.909983" lon="13.1049745"><ele>1223.0</ele><time>2026-04-26T08:50:38.967Z</time></trkpt><trkpt lat="42.9100363" lon="13.1051094"><ele>1216.8</ele><time>2026-04-26T08:50:39.971Z</time></trkpt><trkpt lat="42.9100892" lon="13.1052371"><ele>1210.6</ele><time>2026-04-26T08:50:40.977Z</time></trkpt><trkpt lat="42.9101346" lon="13.1053634"><ele>1204.4</ele><time>2026-04-26T08:50:41.969Z</time></trkpt><trkpt lat="42.9101719" lon="13.1054893"><ele>1198.2</ele><time>2026-04-26T08:50:42.97Z</time></trkpt><trkpt lat="42.9102005" lon="13.1056202"><ele>1192.0</ele><time>2026-04-26T08:50:43.97Z</time></trkpt><trkpt lat="42.9102213" lon="13.1057652"><ele>1192.0</ele><time>2026-04-26T08:50:44.969Z</time></trkpt><trkpt lat="42.9102376" lon="13.105914"><ele>1192.0</ele><time>2026-04-26T08:50:45.967Z</time></trkpt><trkpt lat="42.9102495" lon="13.1060566"><ele>1192.0</ele><time>2026-04-26T08:50:46.967Z</time></trkpt><trkpt lat="42.9102599" lon="13.1061895"><ele>1192.0</ele><time>2026-04-26T08:50:47.97Z</time></trkpt><trkpt lat="42.9102708" lon="13.1063173"><ele>1192.0</ele><time>2026-04-26T08:50:48.972Z</time></trkpt><trkpt lat="42.9102795" lon="13.1064558"><ele>1192.6</ele><time>2026-04-26T08:50:49.971Z</time></trkpt><trkpt lat="42.9102815" lon="13.1065884"><ele>1193.2</ele><time>2026-04-26T08:50:50.968Z</time></trkpt><trkpt lat="42.910269" lon="13.1067194"><ele>1193.8</ele><time>2026-04-26T08:50:51.971Z</time></trkpt><trkpt lat="42.9102368" lon="13.1068566"><ele>1194.4</ele><time>2026-04-26T08:50:52.964Z</time></trkpt><trkpt lat="42.9101896" lon="13.1069803"><ele>1195.0</ele><time>2026-04-26T08:50:53.97Z</time></trkpt><trkpt lat="42.9101346" lon="13.1070915"><ele>1195.0</ele><time>2026-04-26T08:50:54.971Z</time></trkpt><trkpt lat="42.9100817" lon="13.1071953"><ele>1195.0</ele><time>2026-04-26T08:50:55.973Z</time></trkpt><trkpt lat="42.9100329" lon="13.1072845"><ele>1195.0</ele><time>2026-04-26T08:50:56.972Z</time></trkpt><trkpt lat="42.9099965" lon="13.1073851"><ele>1195.0</ele><time>2026-04-26T08:50:57.965Z</time></trkpt><trkpt lat="42.9099612" lon="13.1074872"><ele>1195.0</ele><time>2026-04-26T08:50:58.974Z</time></trkpt><trkpt lat="42.9099389" lon="13.1075986"><ele>1195.0</ele><time>2026-04-26T08:50:59.968Z</time></trkpt><trkpt lat="42.9099239" lon="13.107693"><ele>1197.2</ele><time>2026-04-26T08:51:00.967Z</time></trkpt><trkpt lat="42.909941" lon="13.1078349"><ele>1199.4</ele><time>2026-04-26T08:51:02.97Z</time></trkpt><trkpt lat="42.9100126" lon="13.1079117"><ele>1201.6</ele><time>2026-04-26T08:51:04.962Z</time></trkpt><trkpt lat="42.910104" lon="13.1079046"><ele>1203.8</ele><time>2026-04-26T08:51:06.981Z</time></trkpt><trkpt lat="42.9101805" lon="13.1078092"><ele>1206.0</ele><time>2026-04-26T08:51:08.961Z</time></trkpt><trkpt lat="42.9102113" lon="13.1077304"><ele>1206.0</ele><time>2026-04-26T08:51:09.965Z</time></trkpt><trkpt lat="42.9102285" lon="13.1076375"><ele>1206.0</ele><time>2026-04-26T08:51:10.966Z</time></trkpt><trkpt lat="42.9102326" lon="13.1075225"><ele>1206.0</ele><time>2026-04-26T08:51:11.964Z</time></trkpt><trkpt lat="42.9102361" lon="13.1074017"><ele>1206.0</ele><time>2026-04-26T08:51:12.964Z</time></trkpt><trkpt lat="42.910256" lon="13.1072948"><ele>1206.0</ele><time>2026-04-26T08:51:13.968Z</time></trkpt><trkpt lat="42.9103063" lon="13.1071816"><ele>1206.0</ele><time>2026-04-26T08:51:14.967Z</time></trkpt><trkpt lat="42.9103913" lon="13.1070493"><ele>1203.25</ele><time>2026-04-26T08:51:15.965Z</time></trkpt><trkpt lat="42.910485" lon="13.1069159"><ele>1200.5</ele><time>2026-04-26T08:51:16.971Z</time></trkpt><trkpt lat="42.910567" lon="13.1067951"><ele>1197.75</ele><time>2026-04-26T08:51:17.976Z</time></trkpt><trkpt lat="42.9106381" lon="13.1066848"><ele>1195.0</ele><time>2026-04-26T08:51:18.968Z</time></trkpt><trkpt lat="42.9106982" lon="13.1065876"><ele>1194.5</ele><time>2026-04-26T08:51:19.964Z</time></trkpt><trkpt lat="42.9107481" lon="13.1064915"><ele>1194.0</ele><time>2026-04-26T08:51:20.974Z</time></trkpt><trkpt lat="42.9107893" lon="13.1063972"><ele>1193.5</ele><time>2026-04-26T08:51:21.971Z</time></trkpt><trkpt lat="42.9108243" lon="13.1063099"><ele>1193.0</ele><time>2026-04-26T08:51:22.985Z</time></trkpt><trkpt lat="42.9108514" lon="13.1062292"><ele>1192.5</ele><time>2026-04-26T08:51:23.967Z</time></trkpt><trkpt lat="42.910896" lon="13.1060858"><ele>1192.0</ele><time>2026-04-26T08:51:25.971Z</time></trkpt><trkpt lat="42.9109329" lon="13.1059383"><ele>1189.6666666666665</ele><time>2026-04-26T08:51:27.97Z</time></trkpt><trkpt lat="42.9109708" lon="13.105776"><ele>1187.3333333333333</ele><time>2026-04-26T08:51:29.972Z</time></trkpt><trkpt lat="42.9109956" lon="13.1056737"><ele>1185.0</ele><time>2026-04-26T08:51:30.975Z</time></trkpt><trkpt lat="42.9110209" lon="13.1055641"><ele>1182.6666666666667</ele><time>2026-04-26T08:51:31.969Z</time></trkpt><trkpt lat="42.9110432" lon="13.1054582"><ele>1180.3333333333335</ele><time>2026-04-26T08:51:32.961Z</time></trkpt><trkpt lat="42.9110582" lon="13.1053549"><ele>1178.0</ele><time>2026-04-26T08:51:33.967Z</time></trkpt><trkpt lat="42.9110709" lon="13.1052447"><ele>1175.6666666666667</ele><time>2026-04-26T08:51:34.971Z</time></trkpt><trkpt lat="42.9110795" lon="13.1051339"><ele>1173.3333333333335</ele><time>2026-04-26T08:51:35.969Z</time></trkpt><trkpt lat="42.911078" lon="13.1050202"><ele>1171.0</ele><time>2026-04-26T08:51:36.966Z</time></trkpt><trkpt lat="42.9110638" lon="13.1049095"><ele>1168.6666666666667</ele><time>2026-04-26T08:51:37.972Z</time></trkpt><trkpt lat="42.9110489" lon="13.1048017"><ele>1166.3333333333333</ele><time>2026-04-26T08:51:38.964Z</time></trkpt><trkpt lat="42.9110194" lon="13.1047044"><ele>1164.0</ele><time>2026-04-26T08:51:39.964Z</time></trkpt><trkpt lat="42.9109984" lon="13.1046002"><ele>1163.6666666666667</ele><time>2026-04-26T08:51:40.971Z</time></trkpt><trkpt lat="42.9109742" lon="13.1044989"><ele>1163.3333333333333</ele><time>2026-04-26T08:51:41.972Z</time></trkpt><trkpt lat="42.9109932" lon="13.1043908"><ele>1163.0</ele><time>2026-04-26T08:51:42.963Z</time></trkpt><trkpt lat="42.9110247" lon="13.1042745"><ele>1162.6666666666665</ele><time>2026-04-26T08:51:43.97Z</time></trkpt><trkpt lat="42.9110636" lon="13.1041511"><ele>1162.3333333333333</ele><time>2026-04-26T08:51:44.971Z</time></trkpt><trkpt lat="42.911103" lon="13.1040279"><ele>1162.0</ele><time>2026-04-26T08:51:45.984Z</time></trkpt><trkpt lat="42.911141" lon="13.1039062"><ele>1162.0</ele><time>2026-04-26T08:51:46.968Z</time></trkpt><trkpt lat="42.9111813" lon="13.1037817"><ele>1162.0</ele><time>2026-04-26T08:51:47.972Z</time></trkpt><trkpt lat="42.9112281" lon="13.1036598"><ele>1162.0</ele><time>2026-04-26T08:51:48.975Z</time></trkpt><trkpt lat="42.911278" lon="13.1035429"><ele>1162.0</ele><time>2026-04-26T08:51:49.978Z</time></trkpt><trkpt lat="42.9113254" lon="13.1034317"><ele>1162.0</ele><time>2026-04-26T08:51:50.968Z</time></trkpt><trkpt lat="42.9113659" lon="13.1033206"><ele>1161.3333333333333</ele><time>2026-04-26T08:51:51.965Z</time></trkpt><trkpt lat="42.9113976" lon="13.1032138"><ele>1160.6666666666665</ele><time>2026-04-26T08:51:52.971Z</time></trkpt><trkpt lat="42.9114183" lon="13.1031044"><ele>1160.0</ele><time>2026-04-26T08:51:53.986Z</time></trkpt><trkpt lat="42.9114249" lon="13.103001"><ele>1159.3333333333333</ele><time>2026-04-26T08:51:54.971Z</time></trkpt><trkpt lat="42.9114212" lon="13.1029108"><ele>1158.6666666666667</ele><time>2026-04-26T08:51:55.977Z</time></trkpt><trkpt lat="42.9114079" lon="13.1027947"><ele>1158.0</ele><time>2026-04-26T08:51:57.97Z</time></trkpt><trkpt lat="42.911388" lon="13.1026953"><ele>1158.0</ele><time>2026-04-26T08:52:01.968Z</time></trkpt><trkpt lat="42.9113615" lon="13.1025928"><ele>1158.0</ele><time>2026-04-26T08:52:04.974Z</time></trkpt><trkpt lat="42.9113321" lon="13.1024714"><ele>1158.0</ele><time>2026-04-26T08:52:06.967Z</time></trkpt><trkpt lat="42.9112899" lon="13.1023482"><ele>1158.0</ele><time>2026-04-26T08:52:08.967Z</time></trkpt><trkpt lat="42.9112385" lon="13.1022094"><ele>1158.0</ele><time>2026-04-26T08:52:10.966Z</time></trkpt><trkpt lat="42.9112041" lon="13.1021193"><ele>1154.6666666666667</ele><time>2026-04-26T08:52:11.972Z</time></trkpt><trkpt lat="42.9111662" lon="13.1020238"><ele>1151.3333333333333</ele><time>2026-04-26T08:52:12.973Z</time></trkpt><trkpt lat="42.9111287" lon="13.1019314"><ele>1148.0</ele><time>2026-04-26T08:52:13.968Z</time></trkpt><trkpt lat="42.9110916" lon="13.1018411"><ele>1144.6666666666665</ele><time>2026-04-26T08:52:14.978Z</time></trkpt><trkpt lat="42.9110569" lon="13.1017524"><ele>1141.3333333333333</ele><time>2026-04-26T08:52:15.968Z</time></trkpt><trkpt lat="42.9110195" lon="13.1016574"><ele>1138.0</ele><time>2026-04-26T08:52:16.967Z</time></trkpt><trkpt lat="42.9109844" lon="13.1015631"><ele>1135.6666666666665</ele><time>2026-04-26T08:52:17.959Z</time></trkpt><trkpt lat="42.9109507" lon="13.1014709"><ele>1133.3333333333333</ele><time>2026-04-26T08:52:18.965Z</time></trkpt><trkpt lat="42.9109203" lon="13.101376"><ele>1131.0</ele><time>2026-04-26T08:52:19.965Z</time></trkpt><trkpt lat="42.910895" lon="13.1012771"><ele>1128.6666666666667</ele><time>2026-04-26T08:52:20.963Z</time></trkpt><trkpt lat="42.9108785" lon="13.1011737"><ele>1126.3333333333335</ele><time>2026-04-26T08:52:21.97Z</time></trkpt><trkpt lat="42.9108741" lon="13.1010638"><ele>1124.0</ele><time>2026-04-26T08:52:22.974Z</time></trkpt><trkpt lat="42.9108867" lon="13.1009579"><ele>1124.0</ele><time>2026-04-26T08:52:23.975Z</time></trkpt><trkpt lat="42.9109123" lon="13.1008545"><ele>1124.0</ele><time>2026-04-26T08:52:24.967Z</time></trkpt><trkpt lat="42.9109491" lon="13.1007496"><ele>1124.0</ele><time>2026-04-26T08:52:25.965Z</time></trkpt><trkpt lat="42.9109828" lon="13.1006497"><ele>1124.0</ele><time>2026-04-26T08:52:26.968Z</time></trkpt><trkpt lat="42.9110134" lon="13.1005582"><ele>1124.0</ele><time>2026-04-26T08:52:27.968Z</time></trkpt><trkpt lat="42.9110239" lon="13.1004572"><ele>1124.0</ele><time>2026-04-26T08:52:28.97Z</time></trkpt><trkpt lat="42.9110235" lon="13.1003548"><ele>1123.6666666666667</ele><time>2026-04-26T08:52:29.967Z</time></trkpt><trkpt lat="42.9110215" lon="13.1002544"><ele>1123.3333333333335</ele><time>2026-04-26T08:52:30.966Z</time></trkpt><trkpt lat="42.910997" lon="13.100138"><ele>1123.0</ele><time>2026-04-26T08:52:31.968Z</time></trkpt><trkpt lat="42.9109571" lon="13.100032"><ele>1122.6666666666667</ele><time>2026-04-26T08:52:32.968Z</time></trkpt><trkpt lat="42.9109065" lon="13.0999312"><ele>1122.3333333333333</ele><time>2026-04-26T08:52:33.969Z</time></trkpt><trkpt lat="42.9108537" lon="13.0998443"><ele>1122.0</ele><time>2026-04-26T08:52:34.966Z</time></trkpt><trkpt lat="42.9108" lon="13.0997626"><ele>1122.0</ele><time>2026-04-26T08:52:35.97Z</time></trkpt><trkpt lat="42.9107489" lon="13.0996866"><ele>1122.0</ele><time>2026-04-26T08:52:36.971Z</time></trkpt><trkpt lat="42.9107004" lon="13.0996223"><ele>1122.0</ele><time>2026-04-26T08:52:37.963Z</time></trkpt><trkpt lat="42.9106507" lon="13.0995657"><ele>1122.0</ele><time>2026-04-26T08:52:38.969Z</time></trkpt><trkpt lat="42.9106" lon="13.0994557"><ele>1122.0</ele><time>2026-04-26T08:52:40.968Z</time></trkpt><trkpt lat="42.9106384" lon="13.0993808"><ele>1122.0</ele><time>2026-04-26T08:52:42.963Z</time></trkpt><trkpt lat="42.9107273" lon="13.0993663"><ele>1122.0</ele><time>2026-04-26T08:52:44.97Z</time></trkpt><trkpt lat="42.9108151" lon="13.0993744"><ele>1122.0</ele><time>2026-04-26T08:52:46.964Z</time></trkpt><trkpt lat="42.9109426" lon="13.0993924"><ele>1122.0</ele><time>2026-04-26T08:52:48.971Z</time></trkpt><trkpt lat="42.9110179" lon="13.0993979"><ele>1122.0</ele><time>2026-04-26T08:52:49.96Z</time></trkpt><trkpt lat="42.9110894" lon="13.0994013"><ele>1122.0</ele><time>2026-04-26T08:52:50.959Z</time></trkpt><trkpt lat="42.9111605" lon="13.099409"><ele>1122.0</ele><time>2026-04-26T08:52:51.969Z</time></trkpt><trkpt lat="42.9112361" lon="13.0994279"><ele>1121.7142857142858</ele><time>2026-04-26T08:52:52.964Z</time></trkpt><trkpt lat="42.9113048" lon="13.0994629"><ele>1121.4285714285713</ele><time>2026-04-26T08:52:53.963Z</time></trkpt><trkpt lat="42.9113703" lon="13.0995159"><ele>1121.142857142857</ele><time>2026-04-26T08:52:54.96Z</time></trkpt><trkpt lat="42.9114318" lon="13.0995808"><ele>1120.857142857143</ele><time>2026-04-26T08:52:55.961Z</time></trkpt><trkpt lat="42.9114838" lon="13.0996559"><ele>1120.5714285714284</ele><time>2026-04-26T08:52:56.959Z</time></trkpt><trkpt lat="42.9115255" lon="13.0997406"><ele>1120.2857142857142</ele><time>2026-04-26T08:52:57.968Z</time></trkpt><trkpt lat="42.9115495" lon="13.0998307"><ele>1120.0</ele><time>2026-04-26T08:52:58.97Z</time></trkpt><trkpt lat="42.9115718" lon="13.0999208"><ele>1120.0</ele><time>2026-04-26T08:52:59.967Z</time></trkpt><trkpt lat="42.9115701" lon="13.1000199"><ele>1120.0</ele><time>2026-04-26T08:53:00.967Z</time></trkpt><trkpt lat="42.9115743" lon="13.100118"><ele>1120.0</ele><time>2026-04-26T08:53:01.961Z</time></trkpt><trkpt lat="42.9115917" lon="13.1002153"><ele>1120.0</ele><time>2026-04-26T08:53:02.962Z</time></trkpt><trkpt lat="42.9116344" lon="13.1003058"><ele>1120.0</ele><time>2026-04-26T08:53:03.964Z</time></trkpt><trkpt lat="42.9116956" lon="13.1003885"><ele>1120.0</ele><time>2026-04-26T08:53:04.962Z</time></trkpt><trkpt lat="42.9117701" lon="13.1004686"><ele>1118.0</ele><time>2026-04-26T08:53:05.965Z</time></trkpt><trkpt lat="42.9118394" lon="13.1005521"><ele>1116.0</ele><time>2026-04-26T08:53:06.973Z</time></trkpt><trkpt lat="42.9119033" lon="13.1006366"><ele>1114.0</ele><time>2026-04-26T08:53:07.963Z</time></trkpt><trkpt lat="42.9119612" lon="13.1007246"><ele>1112.0</ele><time>2026-04-26T08:53:08.961Z</time></trkpt><trkpt lat="42.9120163" lon="13.1008119"><ele>1110.0</ele><time>2026-04-26T08:53:09.967Z</time></trkpt><trkpt lat="42.912073" lon="13.1008964"><ele>1108.0</ele><time>2026-04-26T08:53:10.965Z</time></trkpt><trkpt lat="42.9121392" lon="13.1009675"><ele>1108.0</ele><time>2026-04-26T08:53:11.968Z</time></trkpt><trkpt lat="42.9122183" lon="13.1010229"><ele>1108.0</ele><time>2026-04-26T08:53:12.969Z</time></trkpt><trkpt lat="42.912302" lon="13.1010544"><ele>1108.0</ele><time>2026-04-26T08:53:13.966Z</time></trkpt><trkpt lat="42.9123904" lon="13.1010668"><ele>1108.0</ele><time>2026-04-26T08:53:14.962Z</time></trkpt><trkpt lat="42.9124869" lon="13.1010578"><ele>1108.0</ele><time>2026-04-26T08:53:15.959Z</time></trkpt><trkpt lat="42.9125896" lon="13.1010353"><ele>1105.2</ele><time>2026-04-26T08:53:16.968Z</time></trkpt><trkpt lat="42.9126892" lon="13.1010127"><ele>1102.4</ele><time>2026-04-26T08:53:17.959Z</time></trkpt><trkpt lat="42.9127856" lon="13.1009902"><ele>1099.6000000000001</ele><time>2026-04-26T08:53:18.967Z</time></trkpt><trkpt lat="42.9128789" lon="13.1009701"><ele>1096.8</ele><time>2026-04-26T08:53:19.961Z</time></trkpt><trkpt lat="42.9129693" lon="13.1009539"><ele>1094.0</ele><time>2026-04-26T08:53:20.971Z</time></trkpt><trkpt lat="42.9130571" lon="13.1009476"><ele>1094.0</ele><time>2026-04-26T08:53:21.961Z</time></trkpt><trkpt lat="42.9131425" lon="13.1009532"><ele>1094.0</ele><time>2026-04-26T08:53:22.967Z</time></trkpt><trkpt lat="42.9132241" lon="13.1009599"><ele>1094.0</ele><time>2026-04-26T08:53:23.968Z</time></trkpt><trkpt lat="42.9133012" lon="13.1009741"><ele>1094.0</ele><time>2026-04-26T08:53:24.963Z</time></trkpt><trkpt lat="42.9133751" lon="13.1009849"><ele>1094.0</ele><time>2026-04-26T08:53:25.965Z</time></trkpt><trkpt lat="42.9134412" lon="13.1009925"><ele>1094.0</ele><time>2026-04-26T08:53:26.962Z</time></trkpt><trkpt lat="42.9135562" lon="13.1010097"><ele>1088.6000000000001</ele><time>2026-04-26T08:53:28.965Z</time></trkpt><trkpt lat="42.9136565" lon="13.1010483"><ele>1083.2</ele><time>2026-04-26T08:53:30.964Z</time></trkpt><trkpt lat="42.9137153" lon="13.1011455"><ele>1077.8000000000002</ele><time>2026-04-26T08:53:32.968Z</time></trkpt><trkpt lat="42.9137329" lon="13.101269"><ele>1072.4</ele><time>2026-04-26T08:53:34.964Z</time></trkpt><trkpt lat="42.913726" lon="13.1013977"><ele>1067.0</ele><time>2026-04-26T08:53:36.966Z</time></trkpt><trkpt lat="42.9137128" lon="13.1015402"><ele>1069.2</ele><time>2026-04-26T08:53:38.958Z</time></trkpt><trkpt lat="42.9137002" lon="13.1016972"><ele>1071.4</ele><time>2026-04-26T08:53:40.966Z</time></trkpt><trkpt lat="42.9136892" lon="13.101866"><ele>1073.6</ele><time>2026-04-26T08:53:42.962Z</time></trkpt><trkpt lat="42.9136711" lon="13.1019499"><ele>1075.8</ele><time>2026-04-26T08:53:43.964Z</time></trkpt><trkpt lat="42.9136188" lon="13.1020953"><ele>1078.0</ele><time>2026-04-26T08:53:45.963Z</time></trkpt><trkpt lat="42.9135622" lon="13.1022378"><ele>1078.0</ele><time>2026-04-26T08:53:47.96Z</time></trkpt><trkpt lat="42.9135217" lon="13.1023748"><ele>1078.0</ele><time>2026-04-26T08:53:49.963Z</time></trkpt><trkpt lat="42.9135227" lon="13.1025026"><ele>1078.0</ele><time>2026-04-26T08:53:51.961Z</time></trkpt><trkpt lat="42.9135722" lon="13.1025997"><ele>1078.0</ele><time>2026-04-26T08:53:53.966Z</time></trkpt><trkpt lat="42.9136507" lon="13.1026347"><ele>1078.0</ele><time>2026-04-26T08:53:55.964Z</time></trkpt><trkpt lat="42.9137651" lon="13.1025946"><ele>1078.0</ele><time>2026-04-26T08:53:57.968Z</time></trkpt><trkpt lat="42.913839" lon="13.1025314"><ele>1078.0</ele><time>2026-04-26T08:53:58.956Z</time></trkpt><trkpt lat="42.9139182" lon="13.1024555"><ele>1078.0</ele><time>2026-04-26T08:53:59.969Z</time></trkpt><trkpt lat="42.9140067" lon="13.1023458"><ele>1078.0</ele><time>2026-04-26T08:54:00.963Z</time></trkpt><trkpt lat="42.9140927" lon="13.1022449"><ele>1078.0</ele><time>2026-04-26T08:54:01.963Z</time></trkpt><trkpt lat="42.9141716" lon="13.1021468"><ele>1076.4</ele><time>2026-04-26T08:54:02.961Z</time></trkpt><trkpt lat="42.914246" lon="13.1020582"><ele>1074.8</ele><time>2026-04-26T08:54:03.963Z</time></trkpt><trkpt lat="42.9143196" lon="13.1019909"><ele>1073.2</ele><time>2026-04-26T08:54:04.968Z</time></trkpt><trkpt lat="42.9143963" lon="13.101949"><ele>1071.6</ele><time>2026-04-26T08:54:05.966Z</time></trkpt><trkpt lat="42.9144847" lon="13.1019277"><ele>1070.0</ele><time>2026-04-26T08:54:06.965Z</time></trkpt><trkpt lat="42.9145879" lon="13.1019239"><ele>1070.0</ele><time>2026-04-26T08:54:07.969Z</time></trkpt><trkpt lat="42.9147122" lon="13.1019381"><ele>1070.0</ele><time>2026-04-26T08:54:08.963Z</time></trkpt><trkpt lat="42.9148435" lon="13.1019614"><ele>1070.0</ele><time>2026-04-26T08:54:09.963Z</time></trkpt><trkpt lat="42.9149648" lon="13.101985"><ele>1070.0</ele><time>2026-04-26T08:54:10.968Z</time></trkpt><trkpt lat="42.915077" lon="13.1020059"><ele>1068.6</ele><time>2026-04-26T08:54:11.962Z</time></trkpt><trkpt lat="42.9151855" lon="13.1020277"><ele>1067.2</ele><time>2026-04-26T08:54:12.964Z</time></trkpt><trkpt lat="42.9152944" lon="13.1020525"><ele>1065.8</ele><time>2026-04-26T08:54:13.963Z</time></trkpt><trkpt lat="42.9153996" lon="13.1020837"><ele>1064.4</ele><time>2026-04-26T08:54:14.968Z</time></trkpt><trkpt lat="42.9155007" lon="13.1021214"><ele>1063.0</ele><time>2026-04-26T08:54:15.972Z</time></trkpt><trkpt lat="42.9155989" lon="13.1021652"><ele>1063.0</ele><time>2026-04-26T08:54:16.962Z</time></trkpt><trkpt lat="42.9156901" lon="13.1022117"><ele>1063.0</ele><time>2026-04-26T08:54:17.964Z</time></trkpt><trkpt lat="42.9157786" lon="13.1022627"><ele>1063.0</ele><time>2026-04-26T08:54:18.964Z</time></trkpt><trkpt lat="42.9158582" lon="13.102326"><ele>1063.0</ele><time>2026-04-26T08:54:19.966Z</time></trkpt><trkpt lat="42.9159241" lon="13.1023962"><ele>1063.0</ele><time>2026-04-26T08:54:20.96Z</time></trkpt><trkpt lat="42.9159824" lon="13.1024613"><ele>1063.0</ele><time>2026-04-26T08:54:21.96Z</time></trkpt><trkpt lat="42.9160463" lon="13.1025097"><ele>1063.7142857142858</ele><time>2026-04-26T08:54:22.961Z</time></trkpt><trkpt lat="42.9161161" lon="13.102536"><ele>1064.4285714285716</ele><time>2026-04-26T08:54:23.96Z</time></trkpt><trkpt lat="42.9161884" lon="13.1025415"><ele>1065.1428571428573</ele><time>2026-04-26T08:54:24.967Z</time></trkpt><trkpt lat="42.9162634" lon="13.1025353"><ele>1065.857142857143</ele><time>2026-04-26T08:54:25.96Z</time></trkpt><trkpt lat="42.916336" lon="13.1025224"><ele>1066.5714285714287</ele><time>2026-04-26T08:54:26.971Z</time></trkpt><trkpt lat="42.9164053" lon="13.1025052"><ele>1067.2857142857144</ele><time>2026-04-26T08:54:27.963Z</time></trkpt><trkpt lat="42.9164709" lon="13.1024873"><ele>1068.0</ele><time>2026-04-26T08:54:28.964Z</time></trkpt><trkpt lat="42.9165351" lon="13.1024712"><ele>1068.0</ele><time>2026-04-26T08:54:29.967Z</time></trkpt><trkpt lat="42.9166555" lon="13.1024651"><ele>1068.0</ele><time>2026-04-26T08:54:31.962Z</time></trkpt><trkpt lat="42.9167195" lon="13.1024797"><ele>1068.0</ele><time>2026-04-26T08:54:32.965Z</time></trkpt><trkpt lat="42.9167911" lon="13.1025096"><ele>1068.0</ele><time>2026-04-26T08:54:33.966Z</time></trkpt><trkpt lat="42.9168639" lon="13.1025491"><ele>1068.0</ele><time>2026-04-26T08:54:34.966Z</time></trkpt><trkpt lat="42.9169345" lon="13.1025916"><ele>1068.0</ele><time>2026-04-26T08:54:35.962Z</time></trkpt><trkpt lat="42.9170018" lon="13.1026307"><ele>1065.857142857143</ele><time>2026-04-26T08:54:36.975Z</time></trkpt><trkpt lat="42.9170675" lon="13.102666"><ele>1063.7142857142858</ele><time>2026-04-26T08:54:37.97Z</time></trkpt><trkpt lat="42.9171332" lon="13.1027009"><ele>1061.5714285714284</ele><time>2026-04-26T08:54:38.968Z</time></trkpt><trkpt lat="42.917205" lon="13.1027386"><ele>1059.4285714285716</ele><time>2026-04-26T08:54:39.969Z</time></trkpt><trkpt lat="42.9172758" lon="13.1027726"><ele>1057.2857142857142</ele><time>2026-04-26T08:54:40.967Z</time></trkpt><trkpt lat="42.9173479" lon="13.102811"><ele>1055.142857142857</ele><time>2026-04-26T08:54:41.968Z</time></trkpt><trkpt lat="42.9174169" lon="13.1028519"><ele>1053.0</ele><time>2026-04-26T08:54:42.966Z</time></trkpt><trkpt lat="42.9174869" lon="13.102893"><ele>1053.0</ele><time>2026-04-26T08:54:43.967Z</time></trkpt><trkpt lat="42.9175578" lon="13.1029372"><ele>1053.0</ele><time>2026-04-26T08:54:44.966Z</time></trkpt><trkpt lat="42.9176252" lon="13.102982"><ele>1053.0</ele><time>2026-04-26T08:54:45.968Z</time></trkpt><trkpt lat="42.9176877" lon="13.1030247"><ele>1053.0</ele><time>2026-04-26T08:54:46.969Z</time></trkpt><trkpt lat="42.9177449" lon="13.1030726"><ele>1053.0</ele><time>2026-04-26T08:54:47.961Z</time></trkpt><trkpt lat="42.9177969" lon="13.1031256"><ele>1053.0</ele><time>2026-04-26T08:54:48.966Z</time></trkpt><trkpt lat="42.9178883" lon="13.1032104"><ele>1048.8</ele><time>2026-04-26T08:54:50.961Z</time></trkpt><trkpt lat="42.9179709" lon="13.103216"><ele>1044.6</ele><time>2026-04-26T08:54:52.97Z</time></trkpt><trkpt lat="42.9180275" lon="13.1031387"><ele>1040.4</ele><time>2026-04-26T08:54:54.97Z</time></trkpt><trkpt lat="42.9180248" lon="13.1030179"><ele>1036.2</ele><time>2026-04-26T08:54:56.971Z</time></trkpt><trkpt lat="42.9179689" lon="13.1028852"><ele>1032.0</ele><time>2026-04-26T08:54:58.976Z</time></trkpt><trkpt lat="42.9178937" lon="13.1027471"><ele>1032.0</ele><time>2026-04-26T08:55:00.963Z</time></trkpt><trkpt lat="42.9178561" lon="13.1026757"><ele>1032.0</ele><time>2026-04-26T08:55:01.963Z</time></trkpt><trkpt lat="42.9177871" lon="13.1025311"><ele>1032.0</ele><time>2026-04-26T08:55:03.97Z</time></trkpt><trkpt lat="42.9177591" lon="13.1024538"><ele>1032.0</ele><time>2026-04-26T08:55:04.969Z</time></trkpt><trkpt lat="42.9177384" lon="13.1023698"><ele>1032.0</ele><time>2026-04-26T08:55:05.968Z</time></trkpt><trkpt lat="42.9177255" lon="13.1022844"><ele>1032.0</ele><time>2026-04-26T08:55:06.965Z</time></trkpt><trkpt lat="42.9177192" lon="13.1021161"><ele>1030.4</ele><time>2026-04-26T08:55:08.968Z</time></trkpt><trkpt lat="42.9177175" lon="13.1020297"><ele>1028.8000000000002</ele><time>2026-04-26T08:55:09.963Z</time></trkpt><trkpt lat="42.9177131" lon="13.1018729"><ele>1027.2</ele><time>2026-04-26T08:55:11.969Z</time></trkpt><trkpt lat="42.9176934" lon="13.1017371"><ele>1025.6000000000001</ele><time>2026-04-26T08:55:13.962Z</time></trkpt><trkpt lat="42.9176414" lon="13.1016152"><ele>1024.0</ele><time>2026-04-26T08:55:15.969Z</time></trkpt><trkpt lat="42.9175616" lon="13.1014823"><ele>1023.9999999999999</ele><time>2026-04-26T08:55:17.966Z</time></trkpt><trkpt lat="42.9175182" lon="13.1014119"><ele>1024.0</ele><time>2026-04-26T08:55:18.973Z</time></trkpt><trkpt lat="42.9174779" lon="13.1013416"><ele>1024.0</ele><time>2026-04-26T08:55:19.968Z</time></trkpt><trkpt lat="42.9174022" lon="13.1012094"><ele>1024.0</ele><time>2026-04-26T08:55:21.966Z</time></trkpt><trkpt lat="42.917362" lon="13.1011431"><ele>1023.9999999999999</ele><time>2026-04-26T08:55:22.978Z</time></trkpt><trkpt lat="42.917279" lon="13.1010275"><ele>1024.0</ele><time>2026-04-26T08:55:24.97Z</time></trkpt><trkpt lat="42.9171798" lon="13.1009385"><ele>1024.0</ele><time>2026-04-26T08:55:26.964Z</time></trkpt><trkpt lat="42.9170757" lon="13.1008842"><ele>1024.0</ele><time>2026-04-26T08:55:28.968Z</time></trkpt><trkpt lat="42.9169729" lon="13.1008632"><ele>1024.0</ele><time>2026-04-26T08:55:30.973Z</time></trkpt><trkpt lat="42.9168768" lon="13.1008455"><ele>1024.0</ele><time>2026-04-26T08:55:32.961Z</time></trkpt><trkpt lat="42.9167903" lon="13.100789"><ele>1024.0</ele><time>2026-04-26T08:55:34.965Z</time></trkpt><trkpt lat="42.9167371" lon="13.1006741"><ele>1022.0</ele><time>2026-04-26T08:55:36.968Z</time></trkpt><trkpt lat="42.9167181" lon="13.1005197"><ele>1020.0000000000001</ele><time>2026-04-26T08:55:38.964Z</time></trkpt><trkpt lat="42.9167001" lon="13.1003618"><ele>1018.0000000000001</ele><time>2026-04-26T08:55:40.966Z</time></trkpt><trkpt lat="42.9166826" lon="13.1002165"><ele>1016.0</ele><time>2026-04-26T08:55:42.964Z</time></trkpt><trkpt lat="42.9166382" lon="13.1001"><ele>1014.0</ele><time>2026-04-26T08:55:44.966Z</time></trkpt><trkpt lat="42.9165307" lon="13.1000395"><ele>1014.0</ele><time>2026-04-26T08:55:46.966Z</time></trkpt><trkpt lat="42.9164613" lon="13.100038"><ele>1014.0</ele><time>2026-04-26T08:55:47.968Z</time></trkpt><trkpt lat="42.916396" lon="13.1000482"><ele>1014.0</ele><time>2026-04-26T08:55:48.963Z</time></trkpt><trkpt lat="42.9162814" lon="13.1000685"><ele>1014.0</ele><time>2026-04-26T08:55:50.965Z</time></trkpt><trkpt lat="42.9161831" lon="13.1000631"><ele>1014.0</ele><time>2026-04-26T08:55:52.965Z</time></trkpt><trkpt lat="42.916115" lon="13.0999908"><ele>1014.0</ele><time>2026-04-26T08:55:54.964Z</time></trkpt><trkpt lat="42.9161281" lon="13.0998809"><ele>1010.3333333333334</ele><time>2026-04-26T08:55:56.963Z</time></trkpt><trkpt lat="42.9162005" lon="13.0998169"><ele>1006.6666666666667</ele><time>2026-04-26T08:55:58.968Z</time></trkpt><trkpt lat="42.9163187" lon="13.09977"><ele>1003.0</ele><time>2026-04-26T08:56:00.961Z</time></trkpt><trkpt lat="42.9163873" lon="13.0997395"><ele>999.3333333333334</ele><time>2026-04-26T08:56:01.974Z</time></trkpt><trkpt lat="42.91646" lon="13.0997075"><ele>995.6666666666667</ele><time>2026-04-26T08:56:02.965Z</time></trkpt><trkpt lat="42.9165356" lon="13.0996789"><ele>992.0</ele><time>2026-04-26T08:56:03.968Z</time></trkpt><trkpt lat="42.916611" lon="13.0996602"><ele>992.0</ele><time>2026-04-26T08:56:04.96Z</time></trkpt><trkpt lat="42.9166849" lon="13.0996513"><ele>992.0000000000001</ele><time>2026-04-26T08:56:05.966Z</time></trkpt><trkpt lat="42.9167576" lon="13.099649"><ele>992.0</ele><time>2026-04-26T08:56:06.964Z</time></trkpt><trkpt lat="42.9168302" lon="13.0996519"><ele>992.0</ele><time>2026-04-26T08:56:07.969Z</time></trkpt><trkpt lat="42.9169018" lon="13.0996642"><ele>992.0000000000001</ele><time>2026-04-26T08:56:08.966Z</time></trkpt><trkpt lat="42.9169703" lon="13.0996919"><ele>992.0</ele><time>2026-04-26T08:56:09.959Z</time></trkpt><trkpt lat="42.9170371" lon="13.0997196"><ele>992.0</ele><time>2026-04-26T08:56:10.96Z</time></trkpt><trkpt lat="42.9171028" lon="13.0997528"><ele>991.4285714285714</ele><time>2026-04-26T08:56:11.961Z</time></trkpt><trkpt lat="42.9171758" lon="13.099765"><ele>990.8571428571429</ele><time>2026-04-26T08:56:12.962Z</time></trkpt><trkpt lat="42.917247" lon="13.0997587"><ele>990.2857142857143</ele><time>2026-04-26T08:56:13.976Z</time></trkpt><trkpt lat="42.9173188" lon="13.09974"><ele>989.7142857142858</ele><time>2026-04-26T08:56:14.967Z</time></trkpt><trkpt lat="42.9173901" lon="13.0997169"><ele>989.1428571428571</ele><time>2026-04-26T08:56:15.967Z</time></trkpt><trkpt lat="42.9174616" lon="13.0996886"><ele>988.5714285714287</ele><time>2026-04-26T08:56:16.967Z</time></trkpt><trkpt lat="42.9175352" lon="13.0996594"><ele>988.0</ele><time>2026-04-26T08:56:17.962Z</time></trkpt><trkpt lat="42.9176114" lon="13.0996311"><ele>986.8571428571429</ele><time>2026-04-26T08:56:18.964Z</time></trkpt><trkpt lat="42.917684" lon="13.0996038"><ele>985.7142857142857</ele><time>2026-04-26T08:56:19.976Z</time></trkpt><trkpt lat="42.9177547" lon="13.0995724"><ele>984.5714285714286</ele><time>2026-04-26T08:56:20.963Z</time></trkpt><trkpt lat="42.9178235" lon="13.0995485"><ele>983.4285714285714</ele><time>2026-04-26T08:56:21.963Z</time></trkpt><trkpt lat="42.9178937" lon="13.0995257"><ele>982.2857142857142</ele><time>2026-04-26T08:56:22.965Z</time></trkpt><trkpt lat="42.9179604" lon="13.0995051"><ele>981.1428571428571</ele><time>2026-04-26T08:56:23.964Z</time></trkpt><trkpt lat="42.9180314" lon="13.0994899"><ele>980.0</ele><time>2026-04-26T08:56:24.964Z</time></trkpt><trkpt lat="42.9181025" lon="13.0994822"><ele>980.0</ele><time>2026-04-26T08:56:25.96Z</time></trkpt><trkpt lat="42.9181759" lon="13.0994847"><ele>980.0</ele><time>2026-04-26T08:56:26.965Z</time></trkpt><trkpt lat="42.9182466" lon="13.0994981"><ele>980.0</ele><time>2026-04-26T08:56:27.963Z</time></trkpt><trkpt lat="42.9183176" lon="13.0995202"><ele>980.0</ele><time>2026-04-26T08:56:28.961Z</time></trkpt><trkpt lat="42.9183896" lon="13.0995461"><ele>980.0</ele><time>2026-04-26T08:56:29.967Z</time></trkpt><trkpt lat="42.9184623" lon="13.0995722"><ele>980.0</ele><time>2026-04-26T08:56:30.963Z</time></trkpt><trkpt lat="42.9185387" lon="13.0995937"><ele>980.0</ele><time>2026-04-26T08:56:31.967Z</time></trkpt><trkpt lat="42.9186217" lon="13.0996115"><ele>977.6666666666667</ele><time>2026-04-26T08:56:32.959Z</time></trkpt><trkpt lat="42.9187011" lon="13.0996301"><ele>975.3333333333334</ele><time>2026-04-26T08:56:33.962Z</time></trkpt><trkpt lat="42.9187797" lon="13.0996485"><ele>973.0</ele><time>2026-04-26T08:56:34.967Z</time></trkpt><trkpt lat="42.9188554" lon="13.0996677"><ele>970.6666666666667</ele><time>2026-04-26T08:56:35.965Z</time></trkpt><trkpt lat="42.9189319" lon="13.0996903"><ele>968.3333333333334</ele><time>2026-04-26T08:56:36.961Z</time></trkpt><trkpt lat="42.9190097" lon="13.0997177"><ele>966.0</ele><time>2026-04-26T08:56:37.967Z</time></trkpt><trkpt lat="42.9190877" lon="13.0997479"><ele>966.0</ele><time>2026-04-26T08:56:38.972Z</time></trkpt><trkpt lat="42.9191674" lon="13.099786"><ele>966.0</ele><time>2026-04-26T08:56:39.965Z</time></trkpt><trkpt lat="42.9192448" lon="13.0998254"><ele>966.0</ele><time>2026-04-26T08:56:40.962Z</time></trkpt><trkpt lat="42.919319" lon="13.0998628"><ele>966.0</ele><time>2026-04-26T08:56:41.961Z</time></trkpt><trkpt lat="42.9193915" lon="13.0998984"><ele>966.0</ele><time>2026-04-26T08:56:42.964Z</time></trkpt><trkpt lat="42.9194627" lon="13.0999335"><ele>966.0</ele><time>2026-04-26T08:56:43.963Z</time></trkpt><trkpt lat="42.9195397" lon="13.0999726"><ele>966.1666666666666</ele><time>2026-04-26T08:56:44.963Z</time></trkpt><trkpt lat="42.9196162" lon="13.1000139"><ele>966.3333333333333</ele><time>2026-04-26T08:56:45.962Z</time></trkpt><trkpt lat="42.9196949" lon="13.1000608"><ele>966.5</ele><time>2026-04-26T08:56:46.962Z</time></trkpt><trkpt lat="42.9197742" lon="13.1001167"><ele>966.6666666666666</ele><time>2026-04-26T08:56:47.959Z</time></trkpt><trkpt lat="42.9198522" lon="13.1001783"><ele>966.8333333333333</ele><time>2026-04-26T08:56:48.962Z</time></trkpt><trkpt lat="42.9199357" lon="13.1002388"><ele>967.0</ele><time>2026-04-26T08:56:49.965Z</time></trkpt><trkpt lat="42.9200213" lon="13.1002972"><ele>964.4999999999999</ele><time>2026-04-26T08:56:50.967Z</time></trkpt><trkpt lat="42.9201075" lon="13.1003541"><ele>962.0</ele><time>2026-04-26T08:56:51.967Z</time></trkpt><trkpt lat="42.9201932" lon="13.1004107"><ele>959.5</ele><time>2026-04-26T08:56:52.965Z</time></trkpt><trkpt lat="42.9202706" lon="13.1004682"><ele>957.0</ele><time>2026-04-26T08:56:53.967Z</time></trkpt><trkpt lat="42.920341" lon="13.100519"><ele>954.4999999999999</ele><time>2026-04-26T08:56:54.971Z</time></trkpt><trkpt lat="42.9204069" lon="13.1005613"><ele>952.0</ele><time>2026-04-26T08:56:55.963Z</time></trkpt><trkpt lat="42.9204676" lon="13.1005896"><ele>952.0</ele><time>2026-04-26T08:56:56.961Z</time></trkpt><trkpt lat="42.9205854" lon="13.1006019"><ele>952.0</ele><time>2026-04-26T08:56:58.962Z</time></trkpt><trkpt lat="42.9206977" lon="13.1005803"><ele>952.0</ele><time>2026-04-26T08:57:00.965Z</time></trkpt><trkpt lat="42.9207917" lon="13.1005289"><ele>952.0</ele><time>2026-04-26T08:57:02.96Z</time></trkpt><trkpt lat="42.9208551" lon="13.1004087"><ele>952.0</ele><time>2026-04-26T08:57:04.966Z</time></trkpt><trkpt lat="42.9208413" lon="13.1002368"><ele>952.0</ele><time>2026-04-26T08:57:06.967Z</time></trkpt><trkpt lat="42.9208157" lon="13.1001562"><ele>952.0</ele><time>2026-04-26T08:57:07.981Z</time></trkpt><trkpt lat="42.9207755" lon="13.1000869"><ele>952.0</ele><time>2026-04-26T08:57:08.955Z</time></trkpt><trkpt lat="42.9207203" lon="13.1000269"><ele>952.0</ele><time>2026-04-26T08:57:09.962Z</time></trkpt><trkpt lat="42.9206534" lon="13.099978"><ele>952.0</ele><time>2026-04-26T08:57:10.972Z</time></trkpt><trkpt lat="42.9205894" lon="13.0999299"><ele>952.0</ele><time>2026-04-26T08:57:11.971Z</time></trkpt><trkpt lat="42.9205247" lon="13.0998984"><ele>952.0</ele><time>2026-04-26T08:57:12.959Z</time></trkpt><trkpt lat="42.9204141" lon="13.0998363"><ele>949.6</ele><time>2026-04-26T08:57:14.966Z</time></trkpt><trkpt lat="42.9203183" lon="13.0997637"><ele>947.2</ele><time>2026-04-26T08:57:16.957Z</time></trkpt><trkpt lat="42.9202396" lon="13.0996243"><ele>944.8</ele><time>2026-04-26T08:57:18.963Z</time></trkpt><trkpt lat="42.9202123" lon="13.0995384"><ele>942.4</ele><time>2026-04-26T08:57:19.966Z</time></trkpt><trkpt lat="42.9201822" lon="13.0994424"><ele>940.0</ele><time>2026-04-26T08:57:20.962Z</time></trkpt><trkpt lat="42.9201465" lon="13.0993525"><ele>939.9999999999999</ele><time>2026-04-26T08:57:21.961Z</time></trkpt><trkpt lat="42.920106" lon="13.0992709"><ele>940.0</ele><time>2026-04-26T08:57:22.964Z</time></trkpt><trkpt lat="42.9200606" lon="13.099185"><ele>940.0</ele><time>2026-04-26T08:57:23.963Z</time></trkpt><trkpt lat="42.9200128" lon="13.0991023"><ele>940.0</ele><time>2026-04-26T08:57:24.963Z</time></trkpt><trkpt lat="42.9199633" lon="13.0990242"><ele>939.9999999999999</ele><time>2026-04-26T08:57:25.962Z</time></trkpt><trkpt lat="42.9199118" lon="13.0989479"><ele>940.0</ele><time>2026-04-26T08:57:26.958Z</time></trkpt><trkpt lat="42.9198604" lon="13.0988724"><ele>938.9999999999999</ele><time>2026-04-26T08:57:27.958Z</time></trkpt><trkpt lat="42.9198131" lon="13.0987892"><ele>938.0</ele><time>2026-04-26T08:57:28.962Z</time></trkpt><trkpt lat="42.9197737" lon="13.0986959"><ele>937.0</ele><time>2026-04-26T08:57:29.959Z</time></trkpt><trkpt lat="42.9197367" lon="13.098592"><ele>936.0</ele><time>2026-04-26T08:57:30.964Z</time></trkpt><trkpt lat="42.9196917" lon="13.0984837"><ele>934.9999999999999</ele><time>2026-04-26T08:57:31.96Z</time></trkpt><trkpt lat="42.9196368" lon="13.0983909"><ele>934.0</ele><time>2026-04-26T08:57:32.967Z</time></trkpt><trkpt lat="42.9195711" lon="13.0983168"><ele>931.1666666666666</ele><time>2026-04-26T08:57:33.959Z</time></trkpt><trkpt lat="42.9195048" lon="13.0982511"><ele>928.3333333333333</ele><time>2026-04-26T08:57:34.959Z</time></trkpt><trkpt lat="42.9194471" lon="13.0981788"><ele>925.5</ele><time>2026-04-26T08:57:35.963Z</time></trkpt><trkpt lat="42.9194018" lon="13.0980953"><ele>922.6666666666667</ele><time>2026-04-26T08:57:36.962Z</time></trkpt><trkpt lat="42.9193676" lon="13.0980096"><ele>919.8333333333334</ele><time>2026-04-26T08:57:37.964Z</time></trkpt><trkpt lat="42.9193323" lon="13.0979274"><ele>917.0</ele><time>2026-04-26T08:57:38.962Z</time></trkpt><trkpt lat="42.919284" lon="13.0978501"><ele>919.2857142857142</ele><time>2026-04-26T08:57:39.965Z</time></trkpt><trkpt lat="42.9192232" lon="13.0977845"><ele>921.5714285714286</ele><time>2026-04-26T08:57:40.961Z</time></trkpt><trkpt lat="42.919156" lon="13.0977311"><ele>923.8571428571429</ele><time>2026-04-26T08:57:41.968Z</time></trkpt><trkpt lat="42.919086" lon="13.0976861"><ele>926.1428571428571</ele><time>2026-04-26T08:57:42.956Z</time></trkpt><trkpt lat="42.9190161" lon="13.0976604"><ele>928.4285714285713</ele><time>2026-04-26T08:57:43.963Z</time></trkpt><trkpt lat="42.9189472" lon="13.0976549"><ele>930.7142857142857</ele><time>2026-04-26T08:57:44.961Z</time></trkpt><trkpt lat="42.9188777" lon="13.0976651"><ele>933.0</ele><time>2026-04-26T08:57:45.961Z</time></trkpt><trkpt lat="42.9188081" lon="13.0976815"><ele>933.0</ele><time>2026-04-26T08:57:46.962Z</time></trkpt><trkpt lat="42.9186936" lon="13.0976903"><ele>933.0</ele><time>2026-04-26T08:57:48.964Z</time></trkpt><trkpt lat="42.9186144" lon="13.097607"><ele>933.0</ele><time>2026-04-26T08:57:50.959Z</time></trkpt><trkpt lat="42.9185954" lon="13.0975175"><ele>933.0</ele><time>2026-04-26T08:57:51.968Z</time></trkpt><trkpt lat="42.9185863" lon="13.0974043"><ele>933.0</ele><time>2026-04-26T08:57:52.963Z</time></trkpt><trkpt lat="42.918581" lon="13.0972694"><ele>930.0</ele><time>2026-04-26T08:57:53.959Z</time></trkpt><trkpt lat="42.9185719" lon="13.0971514"><ele>927.0</ele><time>2026-04-26T08:57:54.967Z</time></trkpt><trkpt lat="42.9185615" lon="13.0970247"><ele>924.0</ele><time>2026-04-26T08:57:55.967Z</time></trkpt><trkpt lat="42.918554" lon="13.0968889"><ele>921.0</ele><time>2026-04-26T08:57:56.958Z</time></trkpt><trkpt lat="42.9185549" lon="13.096762"><ele>918.0</ele><time>2026-04-26T08:57:57.959Z</time></trkpt><trkpt lat="42.9185564" lon="13.0966468"><ele>918.5</ele><time>2026-04-26T08:57:58.96Z</time></trkpt><trkpt lat="42.9185614" lon="13.0965445"><ele>919.0</ele><time>2026-04-26T08:57:59.962Z</time></trkpt><trkpt lat="42.9185649" lon="13.0964449"><ele>919.5</ele><time>2026-04-26T08:58:00.965Z</time></trkpt><trkpt lat="42.9185301" lon="13.0963445"><ele>920.0</ele><time>2026-04-26T08:58:01.96Z</time></trkpt><trkpt lat="42.9184768" lon="13.0962403"><ele>920.5</ele><time>2026-04-26T08:58:02.97Z</time></trkpt><trkpt lat="42.9184089" lon="13.0961373"><ele>921.0</ele><time>2026-04-26T08:58:03.966Z</time></trkpt><trkpt lat="42.9183352" lon="13.0960385"><ele>921.0</ele><time>2026-04-26T08:58:04.964Z</time></trkpt><trkpt lat="42.9182605" lon="13.0959539"><ele>920.9999999999999</ele><time>2026-04-26T08:58:05.962Z</time></trkpt><trkpt lat="42.9181846" lon="13.0958713"><ele>920.9999999999999</ele><time>2026-04-26T08:58:06.962Z</time></trkpt><trkpt lat="42.9181049" lon="13.095796"><ele>921.0</ele><time>2026-04-26T08:58:07.962Z</time></trkpt><trkpt lat="42.9180202" lon="13.0957308"><ele>921.0</ele><time>2026-04-26T08:58:08.965Z</time></trkpt><trkpt lat="42.9179289" lon="13.0956724"><ele>917.5999999999999</ele><time>2026-04-26T08:58:09.988Z</time></trkpt><trkpt lat="42.9178338" lon="13.0956233"><ele>914.1999999999999</ele><time>2026-04-26T08:58:10.966Z</time></trkpt><trkpt lat="42.9177372" lon="13.0955841"><ele>910.8000000000001</ele><time>2026-04-26T08:58:11.978Z</time></trkpt><trkpt lat="42.9176465" lon="13.0955473"><ele>907.4000000000001</ele><time>2026-04-26T08:58:12.965Z</time></trkpt><trkpt lat="42.9175544" lon="13.0955178"><ele>904.0</ele><time>2026-04-26T08:58:13.955Z</time></trkpt><trkpt lat="42.9174576" lon="13.0954964"><ele>904.0</ele><time>2026-04-26T08:58:14.964Z</time></trkpt><trkpt lat="42.9173584" lon="13.0954919"><ele>904.0000000000001</ele><time>2026-04-26T08:58:15.964Z</time></trkpt><trkpt lat="42.9172568" lon="13.0955003"><ele>904.0000000000001</ele><time>2026-04-26T08:58:16.97Z</time></trkpt><trkpt lat="42.9171597" lon="13.0955099"><ele>904.0</ele><time>2026-04-26T08:58:17.961Z</time></trkpt><trkpt lat="42.9170685" lon="13.0955118"><ele>904.0</ele><time>2026-04-26T08:58:18.963Z</time></trkpt><trkpt lat="42.9169863" lon="13.0955053"><ele>903.9999999999999</ele><time>2026-04-26T08:58:19.964Z</time></trkpt><trkpt lat="42.9169073" lon="13.0954808"><ele>904.0</ele><time>2026-04-26T08:58:20.96Z</time></trkpt><trkpt lat="42.9168343" lon="13.0954293"><ele>904.0</ele><time>2026-04-26T08:58:21.961Z</time></trkpt><trkpt lat="42.9167649" lon="13.0953595"><ele>904.0</ele><time>2026-04-26T08:58:22.966Z</time></trkpt><trkpt lat="42.916692" lon="13.0952823"><ele>903.9999999999999</ele><time>2026-04-26T08:58:23.957Z</time></trkpt><trkpt lat="42.9166159" lon="13.0951995"><ele>904.0</ele><time>2026-04-26T08:58:24.962Z</time></trkpt><trkpt lat="42.9165423" lon="13.0951155"><ele>905.1666666666666</ele><time>2026-04-26T08:58:25.96Z</time></trkpt><trkpt lat="42.9164722" lon="13.0950331"><ele>906.3333333333333</ele><time>2026-04-26T08:58:26.964Z</time></trkpt><trkpt lat="42.9164016" lon="13.0949591"><ele>907.5</ele><time>2026-04-26T08:58:27.965Z</time></trkpt><trkpt lat="42.9163282" lon="13.0948906"><ele>908.6666666666667</ele><time>2026-04-26T08:58:28.963Z</time></trkpt><trkpt lat="42.9162561" lon="13.0948323"><ele>909.8333333333334</ele><time>2026-04-26T08:58:29.962Z</time></trkpt><trkpt lat="42.9161819" lon="13.0947786"><ele>911.0</ele><time>2026-04-26T08:58:30.966Z</time></trkpt><trkpt lat="42.9161064" lon="13.0947326"><ele>908.1999999999999</ele><time>2026-04-26T08:58:31.964Z</time></trkpt><trkpt lat="42.9160341" lon="13.0946886"><ele>905.3999999999999</ele><time>2026-04-26T08:58:32.966Z</time></trkpt><trkpt lat="42.9159707" lon="13.0946423"><ele>902.6</ele><time>2026-04-26T08:58:33.97Z</time></trkpt><trkpt lat="42.9158825" lon="13.094542"><ele>899.8</ele><time>2026-04-26T08:58:35.964Z</time></trkpt><trkpt lat="42.9159177" lon="13.0944204"><ele>897.0</ele><time>2026-04-26T08:58:37.965Z</time></trkpt><trkpt lat="42.9160413" lon="13.0943881"><ele>895.8</ele><time>2026-04-26T08:58:39.962Z</time></trkpt><trkpt lat="42.9161237" lon="13.0944115"><ele>894.6</ele><time>2026-04-26T08:58:40.958Z</time></trkpt><trkpt lat="42.916213" lon="13.0944509"><ele>893.3999999999999</ele><time>2026-04-26T08:58:41.965Z</time></trkpt><trkpt lat="42.9163061" lon="13.0944973"><ele>892.1999999999999</ele><time>2026-04-26T08:58:42.961Z</time></trkpt><trkpt lat="42.9163952" lon="13.0945395"><ele>891.0</ele><time>2026-04-26T08:58:43.959Z</time></trkpt><trkpt lat="42.9164793" lon="13.0945793"><ele>891.0</ele><time>2026-04-26T08:58:44.959Z</time></trkpt><trkpt lat="42.9165643" lon="13.0946203"><ele>891.0</ele><time>2026-04-26T08:58:45.959Z</time></trkpt><trkpt lat="42.9166457" lon="13.094657"><ele>891.0</ele><time>2026-04-26T08:58:46.966Z</time></trkpt><trkpt lat="42.9167282" lon="13.0946863"><ele>891.0</ele><time>2026-04-26T08:58:47.96Z</time></trkpt><trkpt lat="42.9168122" lon="13.0947106"><ele>891.0</ele><time>2026-04-26T08:58:48.958Z</time></trkpt><trkpt lat="42.916897" lon="13.0947368"><ele>891.0</ele><time>2026-04-26T08:58:49.966Z</time></trkpt><trkpt lat="42.9169732" lon="13.0947878"><ele>889.0</ele><time>2026-04-26T08:58:50.958Z</time></trkpt><trkpt lat="42.917045" lon="13.094834"><ele>887.0</ele><time>2026-04-26T08:58:51.96Z</time></trkpt><trkpt lat="42.9171174" lon="13.0948656"><ele>885.0</ele><time>2026-04-26T08:58:52.962Z</time></trkpt><trkpt lat="42.9171959" lon="13.0948843"><ele>883.0</ele><time>2026-04-26T08:58:53.963Z</time></trkpt><trkpt lat="42.9172729" lon="13.0948632"><ele>881.0</ele><time>2026-04-26T08:58:54.961Z</time></trkpt><trkpt lat="42.9173577" lon="13.0948332"><ele>879.0</ele><time>2026-04-26T08:58:55.957Z</time></trkpt><trkpt lat="42.9174458" lon="13.0947996"><ele>879.0</ele><time>2026-04-26T08:58:56.962Z</time></trkpt><trkpt lat="42.917545" lon="13.0947663"><ele>879.0000000000001</ele><time>2026-04-26T08:58:57.958Z</time></trkpt><trkpt lat="42.9176506" lon="13.0947364"><ele>879.0000000000001</ele><time>2026-04-26T08:58:58.96Z</time></trkpt><trkpt lat="42.9177575" lon="13.0947149"><ele>879.0</ele><time>2026-04-26T08:58:59.959Z</time></trkpt><trkpt lat="42.9178656" lon="13.094705"><ele>879.0</ele><time>2026-04-26T08:59:00.963Z</time></trkpt><trkpt lat="42.9179727" lon="13.0946949"><ele>878.8000000000001</ele><time>2026-04-26T08:59:01.96Z</time></trkpt><trkpt lat="42.9180796" lon="13.0946789"><ele>878.6000000000001</ele><time>2026-04-26T08:59:02.967Z</time></trkpt><trkpt lat="42.9181862" lon="13.0946574"><ele>878.4</ele><time>2026-04-26T08:59:03.958Z</time></trkpt><trkpt lat="42.91829" lon="13.0946318"><ele>878.2</ele><time>2026-04-26T08:59:04.965Z</time></trkpt><trkpt lat="42.9183946" lon="13.0946005"><ele>878.0</ele><time>2026-04-26T08:59:05.959Z</time></trkpt><trkpt lat="42.9184969" lon="13.0945636"><ele>877.4</ele><time>2026-04-26T08:59:06.964Z</time></trkpt><trkpt lat="42.9186027" lon="13.0945232"><ele>876.8</ele><time>2026-04-26T08:59:07.962Z</time></trkpt><trkpt lat="42.9187102" lon="13.0944886"><ele>876.2</ele><time>2026-04-26T08:59:08.958Z</time></trkpt><trkpt lat="42.9188175" lon="13.0944666"><ele>875.6</ele><time>2026-04-26T08:59:09.967Z</time></trkpt><trkpt lat="42.9189224" lon="13.0944481"><ele>875.0</ele><time>2026-04-26T08:59:10.96Z</time></trkpt><trkpt lat="42.9190205" lon="13.094426"><ele>875.0000000000001</ele><time>2026-04-26T08:59:11.957Z</time></trkpt><trkpt lat="42.919109" lon="13.0944019"><ele>875.0</ele><time>2026-04-26T08:59:12.963Z</time></trkpt><trkpt lat="42.9191907" lon="13.0943783"><ele>875.0</ele><time>2026-04-26T08:59:13.96Z</time></trkpt><trkpt lat="42.9192673" lon="13.0943597"><ele>875.0</ele><time>2026-04-26T08:59:14.96Z</time></trkpt><trkpt lat="42.9193419" lon="13.0943563"><ele>875.0000000000001</ele><time>2026-04-26T08:59:15.971Z</time></trkpt><trkpt lat="42.9194169" lon="13.0943786"><ele>875.0</ele><time>2026-04-26T08:59:16.96Z</time></trkpt><trkpt lat="42.9194866" lon="13.0944273"><ele>872.5000000000001</ele><time>2026-04-26T08:59:17.959Z</time></trkpt><trkpt lat="42.9195552" lon="13.0944884"><ele>870.0</ele><time>2026-04-26T08:59:18.963Z</time></trkpt><trkpt lat="42.9196303" lon="13.0945546"><ele>867.5</ele><time>2026-04-26T08:59:19.96Z</time></trkpt><trkpt lat="42.9197044" lon="13.0946314"><ele>865.0</ele><time>2026-04-26T08:59:20.961Z</time></trkpt><trkpt lat="42.9197746" lon="13.0947122"><ele>862.5000000000001</ele><time>2026-04-26T08:59:21.956Z</time></trkpt><trkpt lat="42.9198301" lon="13.0947856"><ele>860.0</ele><time>2026-04-26T08:59:22.96Z</time></trkpt><trkpt lat="42.9198773" lon="13.0948483"><ele>860.0</ele><time>2026-04-26T08:59:23.959Z</time></trkpt><trkpt lat="42.9199777" lon="13.0949151"><ele>860.0</ele><time>2026-04-26T08:59:25.955Z</time></trkpt><trkpt lat="42.9201034" lon="13.094896"><ele>860.0</ele><time>2026-04-26T08:59:27.96Z</time></trkpt><trkpt lat="42.9201894" lon="13.0948635"><ele>860.0</ele><time>2026-04-26T08:59:28.959Z</time></trkpt><trkpt lat="42.9202766" lon="13.0948292"><ele>860.0</ele><time>2026-04-26T08:59:29.96Z</time></trkpt><trkpt lat="42.920365" lon="13.0947895"><ele>858.5000000000001</ele><time>2026-04-26T08:59:30.958Z</time></trkpt><trkpt lat="42.920458" lon="13.0947486"><ele>857.0</ele><time>2026-04-26T08:59:31.963Z</time></trkpt><trkpt lat="42.9205498" lon="13.0947094"><ele>855.5</ele><time>2026-04-26T08:59:32.966Z</time></trkpt><trkpt lat="42.9206358" lon="13.094685"><ele>854.0</ele><time>2026-04-26T08:59:33.959Z</time></trkpt><trkpt lat="42.9207134" lon="13.0946876"><ele>852.5000000000001</ele><time>2026-04-26T08:59:34.967Z</time></trkpt><trkpt lat="42.9207823" lon="13.0947162"><ele>851.0</ele><time>2026-04-26T08:59:35.964Z</time></trkpt><trkpt lat="42.9208478" lon="13.0947612"><ele>850.5714285714286</ele><time>2026-04-26T08:59:36.964Z</time></trkpt><trkpt lat="42.9209096" lon="13.0948103"><ele>850.1428571428571</ele><time>2026-04-26T08:59:37.96Z</time></trkpt><trkpt lat="42.9209712" lon="13.0948543"><ele>849.7142857142858</ele><time>2026-04-26T08:59:38.957Z</time></trkpt><trkpt lat="42.9210321" lon="13.0948985"><ele>849.2857142857142</ele><time>2026-04-26T08:59:39.966Z</time></trkpt><trkpt lat="42.9210966" lon="13.0949389"><ele>848.8571428571428</ele><time>2026-04-26T08:59:40.964Z</time></trkpt><trkpt lat="42.9211612" lon="13.0949685"><ele>848.4285714285714</ele><time>2026-04-26T08:59:41.958Z</time></trkpt><trkpt lat="42.9212314" lon="13.0949725"><ele>848.0</ele><time>2026-04-26T08:59:42.964Z</time></trkpt><trkpt lat="42.9213017" lon="13.0949493"><ele>848.0</ele><time>2026-04-26T08:59:43.961Z</time></trkpt><trkpt lat="42.9213616" lon="13.0948999"><ele>848.0</ele><time>2026-04-26T08:59:44.963Z</time></trkpt><trkpt lat="42.9214131" lon="13.0948335"><ele>848.0</ele><time>2026-04-26T08:59:45.958Z</time></trkpt><trkpt lat="42.9214488" lon="13.0947513"><ele>848.0</ele><time>2026-04-26T08:59:46.958Z</time></trkpt><trkpt lat="42.9214804" lon="13.0946664"><ele>848.0</ele><time>2026-04-26T08:59:47.96Z</time></trkpt><trkpt lat="42.9215191" lon="13.0945876"><ele>848.0</ele><time>2026-04-26T08:59:48.959Z</time></trkpt><trkpt lat="42.9215751" lon="13.094524"><ele>848.0</ele><time>2026-04-26T08:59:49.958Z</time></trkpt><trkpt lat="42.9216571" lon="13.0944623"><ele>847.2</ele><time>2026-04-26T08:59:50.961Z</time></trkpt><trkpt lat="42.9217568" lon="13.0944055"><ele>846.4</ele><time>2026-04-26T08:59:51.962Z</time></trkpt><trkpt lat="42.9218601" lon="13.0943571"><ele>845.6</ele><time>2026-04-26T08:59:52.959Z</time></trkpt><trkpt lat="42.9219681" lon="13.0943084"><ele>844.8000000000001</ele><time>2026-04-26T08:59:53.962Z</time></trkpt><trkpt lat="42.9220701" lon="13.0942643"><ele>844.0</ele><time>2026-04-26T08:59:54.96Z</time></trkpt><trkpt lat="42.9221685" lon="13.0942273"><ele>844.0</ele><time>2026-04-26T08:59:55.96Z</time></trkpt><trkpt lat="42.9222671" lon="13.0941951"><ele>844.0</ele><time>2026-04-26T08:59:56.964Z</time></trkpt><trkpt lat="42.922363" lon="13.0941706"><ele>844.0</ele><time>2026-04-26T08:59:57.961Z</time></trkpt><trkpt lat="42.9224588" lon="13.0941493"><ele>844.0</ele><time>2026-04-26T08:59:58.959Z</time></trkpt><trkpt lat="42.9225552" lon="13.0941288"><ele>844.0</ele><time>2026-04-26T08:59:59.962Z</time></trkpt><trkpt lat="42.9226516" lon="13.0941078"><ele>840.4000000000001</ele><time>2026-04-26T09:00:00.969Z</time></trkpt><trkpt lat="42.9227472" lon="13.094083"><ele>836.8</ele><time>2026-04-26T09:00:01.959Z</time></trkpt><trkpt lat="42.9228487" lon="13.0940441"><ele>833.2</ele><time>2026-04-26T09:00:02.962Z</time></trkpt><trkpt lat="42.9229564" lon="13.0939943"><ele>829.5999999999999</ele><time>2026-04-26T09:00:03.962Z</time></trkpt><trkpt lat="42.9230679" lon="13.0939554"><ele>826.0</ele><time>2026-04-26T09:00:04.966Z</time></trkpt><trkpt lat="42.9231764" lon="13.0939191"><ele>826.0</ele><time>2026-04-26T09:00:05.962Z</time></trkpt><trkpt lat="42.9232828" lon="13.0939018"><ele>826.0</ele><time>2026-04-26T09:00:06.959Z</time></trkpt><trkpt lat="42.9233815" lon="13.0938915"><ele>826.0</ele><time>2026-04-26T09:00:07.963Z</time></trkpt><trkpt lat="42.9234789" lon="13.0938909"><ele>826.0</ele><time>2026-04-26T09:00:08.962Z</time></trkpt><trkpt lat="42.9235716" lon="13.0939056"><ele>826.0</ele><time>2026-04-26T09:00:09.964Z</time></trkpt><trkpt lat="42.9236547" lon="13.0939294"><ele>824.5999999999999</ele><time>2026-04-26T09:00:10.967Z</time></trkpt><trkpt lat="42.9237261" lon="13.0939543"><ele>823.2</ele><time>2026-04-26T09:00:11.965Z</time></trkpt><trkpt lat="42.9238413" lon="13.0939681"><ele>821.8</ele><time>2026-04-26T09:00:13.959Z</time></trkpt><trkpt lat="42.9239231" lon="13.0938925"><ele>820.4000000000001</ele><time>2026-04-26T09:00:15.959Z</time></trkpt><trkpt lat="42.923924" lon="13.0937491"><ele>819.0</ele><time>2026-04-26T09:00:17.958Z</time></trkpt><trkpt lat="42.9238832" lon="13.0936787"><ele>819.0</ele><time>2026-04-26T09:00:18.963Z</time></trkpt><trkpt lat="42.9238339" lon="13.0936043"><ele>819.0</ele><time>2026-04-26T09:00:19.962Z</time></trkpt><trkpt lat="42.9237355" lon="13.0935766"><ele>819.0</ele><time>2026-04-26T09:00:20.961Z</time></trkpt><trkpt lat="42.9236172" lon="13.0935683"><ele>819.0</ele><time>2026-04-26T09:00:21.963Z</time></trkpt><trkpt lat="42.9235064" lon="13.093565"><ele>819.0</ele><time>2026-04-26T09:00:22.97Z</time></trkpt><trkpt lat="42.9234031" lon="13.0935581"><ele>820.4000000000001</ele><time>2026-04-26T09:00:23.969Z</time></trkpt><trkpt lat="42.9233018" lon="13.0935517"><ele>821.8</ele><time>2026-04-26T09:00:24.962Z</time></trkpt><trkpt lat="42.9231976" lon="13.0935543"><ele>823.2</ele><time>2026-04-26T09:00:25.969Z</time></trkpt><trkpt lat="42.9230874" lon="13.0935613"><ele>824.5999999999999</ele><time>2026-04-26T09:00:26.96Z</time></trkpt><trkpt lat="42.9229759" lon="13.0935718"><ele>826.0</ele><time>2026-04-26T09:00:27.959Z</time></trkpt><trkpt lat="42.9228647" lon="13.093582"><ele>826.0</ele><time>2026-04-26T09:00:28.961Z</time></trkpt><trkpt lat="42.9227531" lon="13.0935887"><ele>826.0</ele><time>2026-04-26T09:00:29.958Z</time></trkpt><trkpt lat="42.9226397" lon="13.0935935"><ele>826.0</ele><time>2026-04-26T09:00:30.962Z</time></trkpt><trkpt lat="42.9225263" lon="13.0935976"><ele>826.0</ele><time>2026-04-26T09:00:31.968Z</time></trkpt><trkpt lat="42.9224174" lon="13.0936035"><ele>826.0</ele><time>2026-04-26T09:00:32.961Z</time></trkpt><trkpt lat="42.922308" lon="13.0936143"><ele>825.8</ele><time>2026-04-26T09:00:33.961Z</time></trkpt><trkpt lat="42.9221966" lon="13.0936311"><ele>825.5999999999999</ele><time>2026-04-26T09:00:34.96Z</time></trkpt><trkpt lat="42.922089" lon="13.0936518"><ele>825.4</ele><time>2026-04-26T09:00:35.955Z</time></trkpt><trkpt lat="42.9219888" lon="13.0936736"><ele>825.2</ele><time>2026-04-26T09:00:36.963Z</time></trkpt><trkpt lat="42.9218969" lon="13.0936969"><ele>825.0</ele><time>2026-04-26T09:00:37.96Z</time></trkpt><trkpt lat="42.9218091" lon="13.0937219"><ele>825.3333333333334</ele><time>2026-04-26T09:00:38.959Z</time></trkpt><trkpt lat="42.9217278" lon="13.0937475"><ele>825.6666666666667</ele><time>2026-04-26T09:00:39.957Z</time></trkpt><trkpt lat="42.9216584" lon="13.0937666"><ele>826.0</ele><time>2026-04-26T09:00:40.966Z</time></trkpt><trkpt lat="42.9215633" lon="13.0937462"><ele>826.3333333333334</ele><time>2026-04-26T09:00:42.962Z</time></trkpt><trkpt lat="42.9214855" lon="13.093606"><ele>826.6666666666667</ele><time>2026-04-26T09:00:44.958Z</time></trkpt><trkpt lat="42.9214457" lon="13.0935278"><ele>827.0</ele><time>2026-04-26T09:00:45.959Z</time></trkpt><trkpt lat="42.9213924" lon="13.0934665"><ele>827.0</ele><time>2026-04-26T09:00:46.966Z</time></trkpt><trkpt lat="42.9213303" lon="13.0934405"><ele>827.0</ele><time>2026-04-26T09:00:47.958Z</time></trkpt><trkpt lat="42.9212583" lon="13.0934173"><ele>827.0</ele><time>2026-04-26T09:00:48.984Z</time></trkpt><trkpt lat="42.9211453" lon="13.0934584"><ele>827.0</ele><time>2026-04-26T09:00:49.966Z</time></trkpt><trkpt lat="42.9210294" lon="13.0934884"><ele>827.0</ele><time>2026-04-26T09:00:50.961Z</time></trkpt><trkpt lat="42.9209234" lon="13.0935034"><ele>827.0000000000001</ele><time>2026-04-26T09:00:51.96Z</time></trkpt><trkpt lat="42.9208234" lon="13.0935055"><ele>827.0</ele><time>2026-04-26T09:00:52.961Z</time></trkpt><trkpt lat="42.9207337" lon="13.093501"><ele>827.0</ele><time>2026-04-26T09:00:53.959Z</time></trkpt><trkpt lat="42.9206473" lon="13.0934949"><ele>827.0</ele><time>2026-04-26T09:00:54.96Z</time></trkpt><trkpt lat="42.9205647" lon="13.0934925"><ele>827.0000000000001</ele><time>2026-04-26T09:00:55.959Z</time></trkpt><trkpt lat="42.9204898" lon="13.0934779"><ele>827.0</ele><time>2026-04-26T09:00:56.959Z</time></trkpt><trkpt lat="42.9204226" lon="13.0934364"><ele>827.0000000000001</ele><time>2026-04-26T09:00:57.967Z</time></trkpt><trkpt lat="42.920365" lon="13.0933611"><ele>827.0</ele><time>2026-04-26T09:00:58.961Z</time></trkpt><trkpt lat="42.9203007" lon="13.0932776"><ele>827.0</ele><time>2026-04-26T09:00:59.972Z</time></trkpt><trkpt lat="42.9202513" lon="13.0931703"><ele>827.0</ele><time>2026-04-26T09:01:00.961Z</time></trkpt><trkpt lat="42.9201985" lon="13.0930693"><ele>827.0000000000001</ele><time>2026-04-26T09:01:01.962Z</time></trkpt><trkpt lat="42.9201409" lon="13.0929758"><ele>827.0</ele><time>2026-04-26T09:01:02.96Z</time></trkpt><trkpt lat="42.9200715" lon="13.0928847"><ele>825.6</ele><time>2026-04-26T09:01:03.964Z</time></trkpt><trkpt lat="42.9199898" lon="13.0928123"><ele>824.2</ele><time>2026-04-26T09:01:04.966Z</time></trkpt><trkpt lat="42.9198932" lon="13.0927468"><ele>822.8</ele><time>2026-04-26T09:01:05.964Z</time></trkpt><trkpt lat="42.9197975" lon="13.0926651"><ele>821.4</ele><time>2026-04-26T09:01:06.961Z</time></trkpt><trkpt lat="42.9197038" lon="13.0925666"><ele>820.0</ele><time>2026-04-26T09:01:07.959Z</time></trkpt><trkpt lat="42.9196145" lon="13.0924714"><ele>819.6</ele><time>2026-04-26T09:01:08.961Z</time></trkpt><trkpt lat="42.9195322" lon="13.0923822"><ele>819.2</ele><time>2026-04-26T09:01:09.956Z</time></trkpt><trkpt lat="42.9194558" lon="13.0922983"><ele>818.8</ele><time>2026-04-26T09:01:10.959Z</time></trkpt><trkpt lat="42.9193792" lon="13.0922134"><ele>818.4</ele><time>2026-04-26T09:01:11.964Z</time></trkpt><trkpt lat="42.9192983" lon="13.0921312"><ele>818.0</ele><time>2026-04-26T09:01:12.958Z</time></trkpt><trkpt lat="42.919219" lon="13.0920527"><ele>818.0</ele><time>2026-04-26T09:01:13.962Z</time></trkpt><trkpt lat="42.9191347" lon="13.0919745"><ele>818.0</ele><time>2026-04-26T09:01:14.963Z</time></trkpt><trkpt lat="42.9190541" lon="13.0919025"><ele>818.0</ele><time>2026-04-26T09:01:15.959Z</time></trkpt><trkpt lat="42.9189716" lon="13.0918343"><ele>818.0</ele><time>2026-04-26T09:01:16.963Z</time></trkpt><trkpt lat="42.9188825" lon="13.0917692"><ele>818.0</ele><time>2026-04-26T09:01:17.961Z</time></trkpt><trkpt lat="42.9187948" lon="13.0917145"><ele>818.0</ele><time>2026-04-26T09:01:18.966Z</time></trkpt><trkpt lat="42.9187051" lon="13.0916654"><ele>818.0</ele><time>2026-04-26T09:01:19.956Z</time></trkpt><trkpt lat="42.91861" lon="13.0916195"><ele>818.0</ele><time>2026-04-26T09:01:20.96Z</time></trkpt><trkpt lat="42.9185121" lon="13.0915724"><ele>818.0</ele><time>2026-04-26T09:01:21.959Z</time></trkpt><trkpt lat="42.9184174" lon="13.0915277"><ele>818.0</ele><time>2026-04-26T09:01:22.957Z</time></trkpt><trkpt lat="42.9183266" lon="13.0914702"><ele>812.5999999999999</ele><time>2026-04-26T09:01:23.958Z</time></trkpt><trkpt lat="42.9182304" lon="13.0914243"><ele>807.1999999999999</ele><time>2026-04-26T09:01:24.964Z</time></trkpt><trkpt lat="42.9181261" lon="13.0913844"><ele>801.8</ele><time>2026-04-26T09:01:25.956Z</time></trkpt><trkpt lat="42.9180186" lon="13.0913517"><ele>796.4</ele><time>2026-04-26T09:01:26.957Z</time></trkpt><trkpt lat="42.9179103" lon="13.0913256"><ele>791.0</ele><time>2026-04-26T09:01:27.973Z</time></trkpt><trkpt lat="42.9178028" lon="13.0912985"><ele>791.0</ele><time>2026-04-26T09:01:28.96Z</time></trkpt><trkpt lat="42.9176956" lon="13.0912738"><ele>791.0</ele><time>2026-04-26T09:01:29.965Z</time></trkpt><trkpt lat="42.917591" lon="13.0912479"><ele>791.0</ele><time>2026-04-26T09:01:30.967Z</time></trkpt><trkpt lat="42.9174917" lon="13.0912197"><ele>791.0</ele><time>2026-04-26T09:01:31.957Z</time></trkpt><trkpt lat="42.9174016" lon="13.0911927"><ele>791.0</ele><time>2026-04-26T09:01:32.967Z</time></trkpt><trkpt lat="42.9173208" lon="13.0911664"><ele>792.0000000000001</ele><time>2026-04-26T09:01:33.96Z</time></trkpt><trkpt lat="42.9172487" lon="13.0911409"><ele>793.0</ele><time>2026-04-26T09:01:34.959Z</time></trkpt><trkpt lat="42.9171872" lon="13.0911061"><ele>794.0</ele><time>2026-04-26T09:01:35.959Z</time></trkpt><trkpt lat="42.9171228" lon="13.0909906"><ele>795.0</ele><time>2026-04-26T09:01:37.957Z</time></trkpt><trkpt lat="42.9171449" lon="13.0908765"><ele>796.0000000000001</ele><time>2026-04-26T09:01:39.958Z</time></trkpt><trkpt lat="42.9172095" lon="13.0908593"><ele>797.0</ele><time>2026-04-26T09:01:40.97Z</time></trkpt><trkpt lat="42.9172885" lon="13.0908764"><ele>797.0</ele><time>2026-04-26T09:01:41.959Z</time></trkpt><trkpt lat="42.9173831" lon="13.0909271"><ele>797.0</ele><time>2026-04-26T09:01:42.958Z</time></trkpt><trkpt lat="42.9174741" lon="13.0909974"><ele>797.0</ele><time>2026-04-26T09:01:43.964Z</time></trkpt><trkpt lat="42.917568" lon="13.0910531"><ele>797.0</ele><time>2026-04-26T09:01:44.962Z</time></trkpt><trkpt lat="42.9176732" lon="13.0910779"><ele>797.0</ele><time>2026-04-26T09:01:45.959Z</time></trkpt><trkpt lat="42.9177861" lon="13.0910772"><ele>795.8</ele><time>2026-04-26T09:01:46.963Z</time></trkpt><trkpt lat="42.917893" lon="13.091058"><ele>794.6</ele><time>2026-04-26T09:01:47.959Z</time></trkpt><trkpt lat="42.9179961" lon="13.0910341"><ele>793.4</ele><time>2026-04-26T09:01:48.961Z</time></trkpt><trkpt lat="42.9180938" lon="13.0910038"><ele>792.1999999999999</ele><time>2026-04-26T09:01:49.959Z</time></trkpt><trkpt lat="42.918189" lon="13.0909681"><ele>791.0</ele><time>2026-04-26T09:01:50.956Z</time></trkpt><trkpt lat="42.9182872" lon="13.0909295"><ele>791.0</ele><time>2026-04-26T09:01:51.959Z</time></trkpt><trkpt lat="42.918392" lon="13.0908839"><ele>791.0</ele><time>2026-04-26T09:01:52.954Z</time></trkpt><trkpt lat="42.9184955" lon="13.0908371"><ele>791.0</ele><time>2026-04-26T09:01:53.959Z</time></trkpt><trkpt lat="42.9185964" lon="13.0907895"><ele>791.0</ele><time>2026-04-26T09:01:54.968Z</time></trkpt><trkpt lat="42.9186987" lon="13.0907417"><ele>791.0</ele><time>2026-04-26T09:01:55.957Z</time></trkpt><trkpt lat="42.918801" lon="13.090694"><ele>786.8</ele><time>2026-04-26T09:01:56.955Z</time></trkpt><trkpt lat="42.9188988" lon="13.09065"><ele>782.5999999999999</ele><time>2026-04-26T09:01:57.958Z</time></trkpt><trkpt lat="42.9189953" lon="13.0906162"><ele>778.4</ele><time>2026-04-26T09:01:58.956Z</time></trkpt><trkpt lat="42.9190968" lon="13.0905912"><ele>774.2</ele><time>2026-04-26T09:01:59.984Z</time></trkpt><trkpt lat="42.9192011" lon="13.0905775"><ele>770.0</ele><time>2026-04-26T09:02:00.963Z</time></trkpt><trkpt lat="42.9193055" lon="13.0905718"><ele>770.0</ele><time>2026-04-26T09:02:01.963Z</time></trkpt><trkpt lat="42.9194054" lon="13.0905669"><ele>770.0</ele><time>2026-04-26T09:02:02.967Z</time></trkpt><trkpt lat="42.9195023" lon="13.0905599"><ele>770.0</ele><time>2026-04-26T09:02:03.962Z</time></trkpt><trkpt lat="42.9196015" lon="13.0905502"><ele>770.0</ele><time>2026-04-26T09:02:04.96Z</time></trkpt><trkpt lat="42.919697" lon="13.0905455"><ele>770.0</ele><time>2026-04-26T09:02:05.967Z</time></trkpt><trkpt lat="42.9197892" lon="13.090551"><ele>770.0000000000001</ele><time>2026-04-26T09:02:06.968Z</time></trkpt><trkpt lat="42.9198769" lon="13.0905711"><ele>770.0</ele><time>2026-04-26T09:02:07.957Z</time></trkpt><trkpt lat="42.9199574" lon="13.0906074"><ele>770.0</ele><time>2026-04-26T09:02:08.957Z</time></trkpt><trkpt lat="42.9200325" lon="13.0906637"><ele>770.0</ele><time>2026-04-26T09:02:09.961Z</time></trkpt><trkpt lat="42.9201051" lon="13.0907273"><ele>770.0000000000001</ele><time>2026-04-26T09:02:10.963Z</time></trkpt><trkpt lat="42.9201737" lon="13.0908027"><ele>770.0</ele><time>2026-04-26T09:02:11.959Z</time></trkpt><trkpt lat="42.9202435" lon="13.0908705"><ele>770.0</ele><time>2026-04-26T09:02:12.962Z</time></trkpt><trkpt lat="42.9203139" lon="13.0909389"><ele>770.0</ele><time>2026-04-26T09:02:13.957Z</time></trkpt><trkpt lat="42.9204054" lon="13.0909794"><ele>770.0</ele><time>2026-04-26T09:02:14.96Z</time></trkpt><trkpt lat="42.9204939" lon="13.0910134"><ele>770.0</ele><time>2026-04-26T09:02:15.96Z</time></trkpt><trkpt lat="42.9206006" lon="13.0910108"><ele>770.0</ele><time>2026-04-26T09:02:16.963Z</time></trkpt><trkpt lat="42.9207137" lon="13.0910026"><ele>770.0</ele><time>2026-04-26T09:02:17.959Z</time></trkpt><trkpt lat="42.9208199" lon="13.0909916"><ele>770.0</ele><time>2026-04-26T09:02:18.97Z</time></trkpt><trkpt lat="42.9209329" lon="13.0909749"><ele>770.0</ele><time>2026-04-26T09:02:19.964Z</time></trkpt><trkpt lat="42.9210472" lon="13.0909561"><ele>770.0</ele><time>2026-04-26T09:02:20.964Z</time></trkpt><trkpt lat="42.9211614" lon="13.090926"><ele>769.25</ele><time>2026-04-26T09:02:21.966Z</time></trkpt><trkpt lat="42.9212727" lon="13.0908877"><ele>768.5</ele><time>2026-04-26T09:02:22.962Z</time></trkpt><trkpt lat="42.9213863" lon="13.0908396"><ele>767.75</ele><time>2026-04-26T09:02:23.959Z</time></trkpt><trkpt lat="42.9214975" lon="13.090785"><ele>767.0</ele><time>2026-04-26T09:02:24.963Z</time></trkpt><trkpt lat="42.9216074" lon="13.0907318"><ele>762.8</ele><time>2026-04-26T09:02:25.96Z</time></trkpt><trkpt lat="42.9217092" lon="13.0906925"><ele>758.6</ele><time>2026-04-26T09:02:26.964Z</time></trkpt><trkpt lat="42.9218126" lon="13.0906639"><ele>754.4</ele><time>2026-04-26T09:02:27.96Z</time></trkpt><trkpt lat="42.9219147" lon="13.090638"><ele>750.1999999999999</ele><time>2026-04-26T09:02:28.957Z</time></trkpt><trkpt lat="42.9220152" lon="13.0906169"><ele>746.0</ele><time>2026-04-26T09:02:29.962Z</time></trkpt><trkpt lat="42.9221139" lon="13.0905954"><ele>745.5999999999999</ele><time>2026-04-26T09:02:30.964Z</time></trkpt><trkpt lat="42.9222123" lon="13.0905942"><ele>745.2</ele><time>2026-04-26T09:02:31.964Z</time></trkpt><trkpt lat="42.9223068" lon="13.0906131"><ele>744.8</ele><time>2026-04-26T09:02:32.965Z</time></trkpt><trkpt lat="42.922399" lon="13.0906546"><ele>744.4000000000001</ele><time>2026-04-26T09:02:33.964Z</time></trkpt><trkpt lat="42.9224864" lon="13.090712"><ele>744.0</ele><time>2026-04-26T09:02:34.963Z</time></trkpt><trkpt lat="42.9225695" lon="13.090783"><ele>744.0</ele><time>2026-04-26T09:02:35.956Z</time></trkpt><trkpt lat="42.9226471" lon="13.0908605"><ele>744.0</ele><time>2026-04-26T09:02:36.964Z</time></trkpt><trkpt lat="42.9227236" lon="13.0909357"><ele>744.0</ele><time>2026-04-26T09:02:37.962Z</time></trkpt><trkpt lat="42.9228012" lon="13.0910107"><ele>744.0</ele><time>2026-04-26T09:02:38.966Z</time></trkpt><trkpt lat="42.9228791" lon="13.0910736"><ele>744.0</ele><time>2026-04-26T09:02:39.959Z</time></trkpt><trkpt lat="42.9229631" lon="13.0911099"><ele>744.0</ele><time>2026-04-26T09:02:40.96Z</time></trkpt><trkpt lat="42.9230527" lon="13.091117"><ele>744.0</ele><time>2026-04-26T09:02:41.96Z</time></trkpt><trkpt lat="42.9231475" lon="13.0910951"><ele>744.0</ele><time>2026-04-26T09:02:42.961Z</time></trkpt><trkpt lat="42.9232505" lon="13.0910557"><ele>744.0</ele><time>2026-04-26T09:02:43.962Z</time></trkpt><trkpt lat="42.9233634" lon="13.0910043"><ele>744.0</ele><time>2026-04-26T09:02:44.961Z</time></trkpt><trkpt lat="42.9234811" lon="13.0909518"><ele>746.25</ele><time>2026-04-26T09:02:45.955Z</time></trkpt><trkpt lat="42.9236008" lon="13.0909045"><ele>748.5</ele><time>2026-04-26T09:02:46.959Z</time></trkpt><trkpt lat="42.9237181" lon="13.0908619"><ele>750.75</ele><time>2026-04-26T09:02:47.956Z</time></trkpt><trkpt lat="42.9238326" lon="13.0908178"><ele>753.0</ele><time>2026-04-26T09:02:48.959Z</time></trkpt><trkpt lat="42.9239431" lon="13.0907709"><ele>745.0</ele><time>2026-04-26T09:02:49.965Z</time></trkpt><trkpt lat="42.9240547" lon="13.0907219"><ele>737.0</ele><time>2026-04-26T09:02:50.958Z</time></trkpt><trkpt lat="42.9241681" lon="13.0906751"><ele>729.0</ele><time>2026-04-26T09:02:51.96Z</time></trkpt><trkpt lat="42.9242862" lon="13.0906301"><ele>721.0</ele><time>2026-04-26T09:02:52.962Z</time></trkpt><trkpt lat="42.9244064" lon="13.0905856"><ele>720.25</ele><time>2026-04-26T09:02:53.957Z</time></trkpt><trkpt lat="42.9245227" lon="13.0905425"><ele>719.5</ele><time>2026-04-26T09:02:54.955Z</time></trkpt><trkpt lat="42.9246358" lon="13.0904953"><ele>718.75</ele><time>2026-04-26T09:02:55.965Z</time></trkpt><trkpt lat="42.924747" lon="13.0904475"><ele>718.0</ele><time>2026-04-26T09:02:56.965Z</time></trkpt><trkpt lat="42.9248563" lon="13.0904023"><ele>718.0</ele><time>2026-04-26T09:02:57.966Z</time></trkpt><trkpt lat="42.9249637" lon="13.0903561"><ele>718.0</ele><time>2026-04-26T09:02:58.961Z</time></trkpt><trkpt lat="42.9250688" lon="13.0903115"><ele>718.0</ele><time>2026-04-26T09:02:59.956Z</time></trkpt><trkpt lat="42.9251764" lon="13.0902678"><ele>718.0</ele><time>2026-04-26T09:03:00.969Z</time></trkpt><trkpt lat="42.9252835" lon="13.0902283"><ele>718.0</ele><time>2026-04-26T09:03:01.966Z</time></trkpt><trkpt lat="42.9253886" lon="13.0901897"><ele>718.4</ele><time>2026-04-26T09:03:02.96Z</time></trkpt><trkpt lat="42.9254919" lon="13.0901462"><ele>718.8</ele><time>2026-04-26T09:03:03.964Z</time></trkpt><trkpt lat="42.9255965" lon="13.0901049"><ele>719.2</ele><time>2026-04-26T09:03:04.966Z</time></trkpt><trkpt lat="42.9256994" lon="13.0900792"><ele>719.6</ele><time>2026-04-26T09:03:05.965Z</time></trkpt><trkpt lat="42.9258039" lon="13.0900736"><ele>720.0</ele><time>2026-04-26T09:03:06.967Z</time></trkpt><trkpt lat="42.9259053" lon="13.0900867"><ele>716.5</ele><time>2026-04-26T09:03:07.973Z</time></trkpt><trkpt lat="42.9260031" lon="13.0901062"><ele>713.0</ele><time>2026-04-26T09:03:08.965Z</time></trkpt><trkpt lat="42.9260953" lon="13.0901294"><ele>709.5</ele><time>2026-04-26T09:03:09.963Z</time></trkpt><trkpt lat="42.9261824" lon="13.0901546"><ele>706.0</ele><time>2026-04-26T09:03:10.963Z</time></trkpt><trkpt lat="42.9262615" lon="13.0901933"><ele>702.5</ele><time>2026-04-26T09:03:11.966Z</time></trkpt><trkpt lat="42.9263246" lon="13.0902595"><ele>699.0</ele><time>2026-04-26T09:03:12.974Z</time></trkpt><trkpt lat="42.926368" lon="13.090348"><ele>699.0</ele><time>2026-04-26T09:03:13.962Z</time></trkpt><trkpt lat="42.9264" lon="13.0904597"><ele>699.0</ele><time>2026-04-26T09:03:14.96Z</time></trkpt><trkpt lat="42.9264182" lon="13.0905776"><ele>699.0</ele><time>2026-04-26T09:03:15.962Z</time></trkpt><trkpt lat="42.9264282" lon="13.0906999"><ele>699.0</ele><time>2026-04-26T09:03:16.956Z</time></trkpt><trkpt lat="42.9264383" lon="13.0908258"><ele>699.0</ele><time>2026-04-26T09:03:17.955Z</time></trkpt><trkpt lat="42.9264309" lon="13.0909633"><ele>699.4000000000001</ele><time>2026-04-26T09:03:18.958Z</time></trkpt><trkpt lat="42.9264224" lon="13.0910912"><ele>699.8</ele><time>2026-04-26T09:03:19.959Z</time></trkpt><trkpt lat="42.9264087" lon="13.0912161"><ele>700.2</ele><time>2026-04-26T09:03:20.968Z</time></trkpt><trkpt lat="42.9263983" lon="13.0913428"><ele>700.5999999999999</ele><time>2026-04-26T09:03:21.958Z</time></trkpt><trkpt lat="42.9263901" lon="13.0914712"><ele>701.0</ele><time>2026-04-26T09:03:22.957Z</time></trkpt><trkpt lat="42.9263783" lon="13.0915976"><ele>699.5</ele><time>2026-04-26T09:03:23.965Z</time></trkpt><trkpt lat="42.9263673" lon="13.0917166"><ele>698.0</ele><time>2026-04-26T09:03:24.957Z</time></trkpt><trkpt lat="42.9263568" lon="13.0918301"><ele>696.5</ele><time>2026-04-26T09:03:25.96Z</time></trkpt><trkpt lat="42.9263458" lon="13.091933"><ele>695.0</ele><time>2026-04-26T09:03:26.964Z</time></trkpt><trkpt lat="42.9263346" lon="13.0920231"><ele>693.5</ele><time>2026-04-26T09:03:27.963Z</time></trkpt><trkpt lat="42.9263226" lon="13.0921491"><ele>692.0</ele><time>2026-04-26T09:03:29.968Z</time></trkpt><trkpt lat="42.9263772" lon="13.092221"><ele>692.0</ele><time>2026-04-26T09:03:32.957Z</time></trkpt><trkpt lat="42.9264392" lon="13.0921393"><ele>692.0</ele><time>2026-04-26T09:03:35.962Z</time></trkpt><trkpt lat="42.9264514" lon="13.0919924"><ele>692.0</ele><time>2026-04-26T09:03:37.963Z</time></trkpt><trkpt lat="42.9264602" lon="13.0918722"><ele>692.0</ele><time>2026-04-26T09:03:38.956Z</time></trkpt><trkpt lat="42.9264788" lon="13.0917498"><ele>692.0</ele><time>2026-04-26T09:03:39.961Z</time></trkpt><trkpt lat="42.9265038" lon="13.0916314"><ele>693.5</ele><time>2026-04-26T09:03:40.964Z</time></trkpt><trkpt lat="42.926533" lon="13.0915203"><ele>695.0</ele><time>2026-04-26T09:03:41.964Z</time></trkpt><trkpt lat="42.9265605" lon="13.0914064"><ele>696.5</ele><time>2026-04-26T09:03:42.963Z</time></trkpt><trkpt lat="42.9265871" lon="13.0912943"><ele>698.0</ele><time>2026-04-26T09:03:43.954Z</time></trkpt><trkpt lat="42.9266151" lon="13.0911788"><ele>699.5</ele><time>2026-04-26T09:03:44.96Z</time></trkpt><trkpt lat="42.9266453" lon="13.0910701"><ele>701.0</ele><time>2026-04-26T09:03:45.963Z</time></trkpt><trkpt lat="42.9266798" lon="13.090963"><ele>701.0</ele><time>2026-04-26T09:03:46.964Z</time></trkpt><trkpt lat="42.9267211" lon="13.0908512"><ele>701.0</ele><time>2026-04-26T09:03:47.954Z</time></trkpt><trkpt lat="42.9267626" lon="13.0907349"><ele>701.0</ele><time>2026-04-26T09:03:48.961Z</time></trkpt><trkpt lat="42.9267982" lon="13.0906162"><ele>701.0</ele><time>2026-04-26T09:03:49.959Z</time></trkpt><trkpt lat="42.9268293" lon="13.0904909"><ele>701.0</ele><time>2026-04-26T09:03:50.966Z</time></trkpt><trkpt lat="42.9268577" lon="13.0903648"><ele>697.5</ele><time>2026-04-26T09:03:51.959Z</time></trkpt><trkpt lat="42.9268831" lon="13.090239"><ele>694.0</ele><time>2026-04-26T09:03:52.958Z</time></trkpt><trkpt lat="42.926903" lon="13.0901175"><ele>690.5</ele><time>2026-04-26T09:03:53.955Z</time></trkpt><trkpt lat="42.926918" lon="13.0899996"><ele>687.0</ele><time>2026-04-26T09:03:54.958Z</time></trkpt><trkpt lat="42.9269279" lon="13.0898829"><ele>683.5</ele><time>2026-04-26T09:03:55.955Z</time></trkpt><trkpt lat="42.926933" lon="13.0897689"><ele>680.0</ele><time>2026-04-26T09:03:56.962Z</time></trkpt><trkpt lat="42.9269363" lon="13.0896575"><ele>680.0</ele><time>2026-04-26T09:03:57.964Z</time></trkpt><trkpt lat="42.9269416" lon="13.0895535"><ele>680.0</ele><time>2026-04-26T09:03:58.962Z</time></trkpt><trkpt lat="42.9269492" lon="13.0894603"><ele>680.0</ele><time>2026-04-26T09:03:59.962Z</time></trkpt><trkpt lat="42.9269621" lon="13.089323"><ele>680.0</ele><time>2026-04-26T09:04:01.955Z</time></trkpt><trkpt lat="42.9269793" lon="13.0892246"><ele>680.0</ele><time>2026-04-26T09:04:04.96Z</time></trkpt><trkpt lat="42.9270271" lon="13.0891544"><ele>680.0</ele><time>2026-04-26T09:04:07.962Z</time></trkpt><trkpt lat="42.9270963" lon="13.0890916"><ele>678.8333333333333</ele><time>2026-04-26T09:04:09.962Z</time></trkpt><trkpt lat="42.9271575" lon="13.0890411"><ele>677.6666666666666</ele><time>2026-04-26T09:04:10.955Z</time></trkpt><trkpt lat="42.9272334" lon="13.0889864"><ele>676.5</ele><time>2026-04-26T09:04:11.962Z</time></trkpt><trkpt lat="42.9273238" lon="13.088931"><ele>675.3333333333334</ele><time>2026-04-26T09:04:12.958Z</time></trkpt><trkpt lat="42.9274123" lon="13.0888762"><ele>674.1666666666667</ele><time>2026-04-26T09:04:13.962Z</time></trkpt><trkpt lat="42.9274918" lon="13.0888149"><ele>673.0</ele><time>2026-04-26T09:04:14.97Z</time></trkpt><trkpt lat="42.9275706" lon="13.0887488"><ele>671.5</ele><time>2026-04-26T09:04:15.958Z</time></trkpt><trkpt lat="42.9276378" lon="13.0886882"><ele>670.0</ele><time>2026-04-26T09:04:16.96Z</time></trkpt><trkpt lat="42.9276989" lon="13.0886393"><ele>668.5</ele><time>2026-04-26T09:04:17.96Z</time></trkpt><trkpt lat="42.9277679" lon="13.0885917"><ele>667.0</ele><time>2026-04-26T09:04:18.956Z</time></trkpt><trkpt lat="42.9278503" lon="13.088548"><ele>665.5</ele><time>2026-04-26T09:04:19.958Z</time></trkpt><trkpt lat="42.9279396" lon="13.0885134"><ele>664.0</ele><time>2026-04-26T09:04:20.959Z</time></trkpt><trkpt lat="42.9280329" lon="13.0884909"><ele>664.0</ele><time>2026-04-26T09:04:21.963Z</time></trkpt><trkpt lat="42.9281244" lon="13.088481"><ele>664.0</ele><time>2026-04-26T09:04:22.956Z</time></trkpt><trkpt lat="42.9282133" lon="13.0884928"><ele>664.0</ele><time>2026-04-26T09:04:23.964Z</time></trkpt><trkpt lat="42.9282875" lon="13.0885262"><ele>664.0</ele><time>2026-04-26T09:04:24.96Z</time></trkpt><trkpt lat="42.9283528" lon="13.0885572"><ele>664.0</ele><time>2026-04-26T09:04:25.966Z</time></trkpt><trkpt lat="42.9284445" lon="13.0885568"><ele>664.0</ele><time>2026-04-26T09:04:27.961Z</time></trkpt><trkpt lat="42.9284135" lon="13.0884265"><ele>664.0</ele><time>2026-04-26T09:04:29.959Z</time></trkpt><trkpt lat="42.9283711" lon="13.0883435"><ele>664.0</ele><time>2026-04-26T09:04:30.962Z</time></trkpt><trkpt lat="42.9282968" lon="13.0882557"><ele>664.0</ele><time>2026-04-26T09:04:31.962Z</time></trkpt><trkpt lat="42.9282033" lon="13.0881964"><ele>664.0</ele><time>2026-04-26T09:04:32.962Z</time></trkpt><trkpt lat="42.9281004" lon="13.0881393"><ele>664.0</ele><time>2026-04-26T09:04:33.962Z</time></trkpt><trkpt lat="42.9279936" lon="13.0880804"><ele>660.4000000000001</ele><time>2026-04-26T09:04:34.956Z</time></trkpt><trkpt lat="42.9278866" lon="13.0880344"><ele>656.8</ele><time>2026-04-26T09:04:35.959Z</time></trkpt><trkpt lat="42.9277818" lon="13.0879975"><ele>653.2</ele><time>2026-04-26T09:04:36.963Z</time></trkpt><trkpt lat="42.9276791" lon="13.0879612"><ele>649.5999999999999</ele><time>2026-04-26T09:04:37.961Z</time></trkpt><trkpt lat="42.9275748" lon="13.0879204"><ele>646.0</ele><time>2026-04-26T09:04:38.957Z</time></trkpt><trkpt lat="42.9274711" lon="13.0878772"><ele>646.0</ele><time>2026-04-26T09:04:39.971Z</time></trkpt><trkpt lat="42.9273674" lon="13.0878283"><ele>646.0</ele><time>2026-04-26T09:04:40.959Z</time></trkpt><trkpt lat="42.9272702" lon="13.0877762"><ele>646.0</ele><time>2026-04-26T09:04:41.955Z</time></trkpt><trkpt lat="42.9271741" lon="13.0877213"><ele>646.0</ele><time>2026-04-26T09:04:42.967Z</time></trkpt><trkpt lat="42.9270746" lon="13.0876817"><ele>646.0</ele><time>2026-04-26T09:04:43.959Z</time></trkpt><trkpt lat="42.9269705" lon="13.0876432"><ele>646.0</ele><time>2026-04-26T09:04:44.961Z</time></trkpt><trkpt lat="42.9268601" lon="13.0876307"><ele>646.0</ele><time>2026-04-26T09:04:45.956Z</time></trkpt><trkpt lat="42.9267533" lon="13.0876283"><ele>646.0</ele><time>2026-04-26T09:04:46.964Z</time></trkpt><trkpt lat="42.9266632" lon="13.0876352"><ele>646.0</ele><time>2026-04-26T09:04:47.96Z</time></trkpt><trkpt lat="42.9265848" lon="13.0876418"><ele>646.0</ele><time>2026-04-26T09:04:48.955Z</time></trkpt><trkpt lat="42.9265179" lon="13.0876432"><ele>646.0</ele><time>2026-04-26T09:04:49.956Z</time></trkpt><trkpt lat="42.9264443" lon="13.0875777"><ele>646.0</ele><time>2026-04-26T09:04:51.966Z</time></trkpt><trkpt lat="42.9264899" lon="13.0874771"><ele>646.0</ele><time>2026-04-26T09:04:53.962Z</time></trkpt><trkpt lat="42.9266095" lon="13.0874002"><ele>646.0</ele><time>2026-04-26T09:04:55.96Z</time></trkpt><trkpt lat="42.9267019" lon="13.0873613"><ele>646.0</ele><time>2026-04-26T09:04:56.964Z</time></trkpt><trkpt lat="42.9267996" lon="13.0873233"><ele>643.0</ele><time>2026-04-26T09:04:57.962Z</time></trkpt><trkpt lat="42.9269006" lon="13.0872951"><ele>640.0</ele><time>2026-04-26T09:04:58.966Z</time></trkpt><trkpt lat="42.9270007" lon="13.0872669"><ele>637.0</ele><time>2026-04-26T09:04:59.961Z</time></trkpt><trkpt lat="42.9271009" lon="13.087242"><ele>634.0</ele><time>2026-04-26T09:05:00.959Z</time></trkpt><trkpt lat="42.9272021" lon="13.0872151"><ele>631.0</ele><time>2026-04-26T09:05:01.967Z</time></trkpt><trkpt lat="42.9273028" lon="13.0871859"><ele>631.0</ele><time>2026-04-26T09:05:02.958Z</time></trkpt><trkpt lat="42.9274039" lon="13.0871571"><ele>631.0</ele><time>2026-04-26T09:05:03.96Z</time></trkpt><trkpt lat="42.9275029" lon="13.0871285"><ele>631.0</ele><time>2026-04-26T09:05:04.958Z</time></trkpt><trkpt lat="42.9276031" lon="13.0871013"><ele>631.0</ele><time>2026-04-26T09:05:05.963Z</time></trkpt><trkpt lat="42.9277034" lon="13.0870731"><ele>631.0</ele><time>2026-04-26T09:05:06.967Z</time></trkpt><trkpt lat="42.9278031" lon="13.0870401"><ele>629.6</ele><time>2026-04-26T09:05:07.957Z</time></trkpt><trkpt lat="42.9279027" lon="13.0870083"><ele>628.2</ele><time>2026-04-26T09:05:08.955Z</time></trkpt><trkpt lat="42.9279993" lon="13.0869785"><ele>626.8</ele><time>2026-04-26T09:05:09.954Z</time></trkpt><trkpt lat="42.9280941" lon="13.0869508"><ele>625.4</ele><time>2026-04-26T09:05:10.959Z</time></trkpt><trkpt lat="42.9281843" lon="13.086928"><ele>624.0</ele><time>2026-04-26T09:05:11.967Z</time></trkpt><trkpt lat="42.9282628" lon="13.0869141"><ele>624.0</ele><time>2026-04-26T09:05:12.959Z</time></trkpt><trkpt lat="42.9283317" lon="13.086911"><ele>624.0</ele><time>2026-04-26T09:05:13.957Z</time></trkpt><trkpt lat="42.9284379" lon="13.0869241"><ele>624.0</ele><time>2026-04-26T09:05:15.966Z</time></trkpt><trkpt lat="42.9285145" lon="13.0869476"><ele>624.0</ele><time>2026-04-26T09:05:17.96Z</time></trkpt><trkpt lat="42.9285991" lon="13.0870258"><ele>624.0</ele><time>2026-04-26T09:05:20.965Z</time></trkpt><trkpt lat="42.9286343" lon="13.0870991"><ele>624.0</ele><time>2026-04-26T09:05:21.964Z</time></trkpt><trkpt lat="42.9286763" lon="13.0871855"><ele>623.3333333333334</ele><time>2026-04-26T09:05:22.956Z</time></trkpt><trkpt lat="42.9287253" lon="13.0872751"><ele>622.6666666666666</ele><time>2026-04-26T09:05:23.955Z</time></trkpt><trkpt lat="42.9287856" lon="13.0873526"><ele>622.0</ele><time>2026-04-26T09:05:24.956Z</time></trkpt><trkpt lat="42.9288617" lon="13.0874132"><ele>621.3333333333333</ele><time>2026-04-26T09:05:25.959Z</time></trkpt><trkpt lat="42.9289406" lon="13.0874554"><ele>620.6666666666666</ele><time>2026-04-26T09:05:26.962Z</time></trkpt><trkpt lat="42.9290194" lon="13.0874974"><ele>620.0</ele><time>2026-04-26T09:05:27.967Z</time></trkpt><trkpt lat="42.9291029" lon="13.0875254"><ele>620.0</ele><time>2026-04-26T09:05:28.967Z</time></trkpt><trkpt lat="42.9291741" lon="13.0875482"><ele>620.0</ele><time>2026-04-26T09:05:29.956Z</time></trkpt><trkpt lat="42.9292677" lon="13.0875843"><ele>620.0</ele><time>2026-04-26T09:05:31.962Z</time></trkpt><trkpt lat="42.929332" lon="13.0876005"><ele>620.0</ele><time>2026-04-26T09:05:41.966Z</time></trkpt><trkpt lat="42.9294131" lon="13.0875615"><ele>620.0</ele><time>2026-04-26T09:05:47.967Z</time></trkpt><trkpt lat="42.9294653" lon="13.0874245"><ele>620.0</ele><time>2026-04-26T09:05:49.959Z</time></trkpt><trkpt lat="42.9294966" lon="13.0873163"><ele>619.0</ele><time>2026-04-26T09:05:50.959Z</time></trkpt><trkpt lat="42.9295359" lon="13.0871921"><ele>618.0</ele><time>2026-04-26T09:05:51.964Z</time></trkpt><trkpt lat="42.9295771" lon="13.0870639"><ele>617.0</ele><time>2026-04-26T09:05:52.957Z</time></trkpt><trkpt lat="42.9296284" lon="13.0869553"><ele>616.0</ele><time>2026-04-26T09:05:53.958Z</time></trkpt><trkpt lat="42.9296891" lon="13.0868587"><ele>615.0</ele><time>2026-04-26T09:05:54.959Z</time></trkpt><trkpt lat="42.9297667" lon="13.0867634"><ele>615.0</ele><time>2026-04-26T09:05:55.962Z</time></trkpt><trkpt lat="42.929864" lon="13.0866712"><ele>615.0</ele><time>2026-04-26T09:05:56.959Z</time></trkpt><trkpt lat="42.9299713" lon="13.0865771"><ele>615.0</ele><time>2026-04-26T09:05:57.962Z</time></trkpt><trkpt lat="42.9300865" lon="13.0864769"><ele>615.0</ele><time>2026-04-26T09:05:58.959Z</time></trkpt><trkpt lat="42.9301988" lon="13.086378"><ele>614.75</ele><time>2026-04-26T09:05:59.959Z</time></trkpt><trkpt lat="42.9303031" lon="13.0862831"><ele>614.5</ele><time>2026-04-26T09:06:00.964Z</time></trkpt><trkpt lat="42.9304016" lon="13.0861957"><ele>614.25</ele><time>2026-04-26T09:06:01.962Z</time></trkpt><trkpt lat="42.9304952" lon="13.0861163"><ele>614.0</ele><time>2026-04-26T09:06:02.958Z</time></trkpt><trkpt lat="42.9305815" lon="13.0860395"><ele>614.0</ele><time>2026-04-26T09:06:03.966Z</time></trkpt><trkpt lat="42.9306624" lon="13.0859695"><ele>614.0</ele><time>2026-04-26T09:06:04.967Z</time></trkpt><trkpt lat="42.93074" lon="13.0859056"><ele>614.0</ele><time>2026-04-26T09:06:05.965Z</time></trkpt><trkpt lat="42.9308147" lon="13.0858531"><ele>614.0</ele><time>2026-04-26T09:06:06.964Z</time></trkpt><trkpt lat="42.9308891" lon="13.0858196"><ele>614.0</ele><time>2026-04-26T09:06:07.968Z</time></trkpt><trkpt lat="42.9309574" lon="13.0858042"><ele>614.0</ele><time>2026-04-26T09:06:08.959Z</time></trkpt><trkpt lat="42.9310689" lon="13.0858128"><ele>613.2</ele><time>2026-04-26T09:06:10.964Z</time></trkpt><trkpt lat="42.9311265" lon="13.0858549"><ele>612.4</ele><time>2026-04-26T09:06:12.967Z</time></trkpt><trkpt lat="42.9311546" lon="13.0859941"><ele>611.6</ele><time>2026-04-26T09:06:15.957Z</time></trkpt><trkpt lat="42.9311291" lon="13.086157"><ele>610.8</ele><time>2026-04-26T09:06:17.96Z</time></trkpt><trkpt lat="42.9311074" lon="13.0863069"><ele>610.0</ele><time>2026-04-26T09:06:19.963Z</time></trkpt><trkpt lat="42.9311151" lon="13.0864285"><ele>610.0</ele><time>2026-04-26T09:06:21.955Z</time></trkpt><trkpt lat="42.9311598" lon="13.086503"><ele>610.0</ele><time>2026-04-26T09:06:23.963Z</time></trkpt><trkpt lat="42.9312334" lon="13.0865002"><ele>610.0</ele><time>2026-04-26T09:06:25.964Z</time></trkpt><trkpt lat="42.9313057" lon="13.0864347"><ele>610.0</ele><time>2026-04-26T09:06:27.964Z</time></trkpt><trkpt lat="42.9313755" lon="13.0863222"><ele>610.0</ele><time>2026-04-26T09:06:29.964Z</time></trkpt><trkpt lat="42.9314407" lon="13.0861995"><ele>610.0</ele><time>2026-04-26T09:06:31.963Z</time></trkpt><trkpt lat="42.9315077" lon="13.0860793"><ele>610.0</ele><time>2026-04-26T09:06:33.965Z</time></trkpt><trkpt lat="42.9315751" lon="13.0859522"><ele>610.0</ele><time>2026-04-26T09:06:35.965Z</time></trkpt><trkpt lat="42.9316459" lon="13.0858127"><ele>610.0</ele><time>2026-04-26T09:06:37.959Z</time></trkpt><trkpt lat="42.9316832" lon="13.0857434"><ele>610.0</ele><time>2026-04-26T09:06:38.959Z</time></trkpt><trkpt lat="42.931722" lon="13.0856735"><ele>609.8</ele><time>2026-04-26T09:06:39.966Z</time></trkpt><trkpt lat="42.9317967" lon="13.0855412"><ele>609.6</ele><time>2026-04-26T09:06:41.958Z</time></trkpt><trkpt lat="42.9318607" lon="13.0854282"><ele>609.4</ele><time>2026-04-26T09:06:43.961Z</time></trkpt><trkpt lat="42.9319151" lon="13.0853353"><ele>609.2</ele><time>2026-04-26T09:06:45.963Z</time></trkpt><trkpt lat="42.931974" lon="13.085237"><ele>609.0</ele><time>2026-04-26T09:06:47.962Z</time></trkpt><trkpt lat="42.9320304" lon="13.0851331"><ele>609.0</ele><time>2026-04-26T09:06:49.969Z</time></trkpt><trkpt lat="42.9320779" lon="13.0850468"><ele>609.0</ele><time>2026-04-26T09:06:51.965Z</time></trkpt><trkpt lat="42.9321237" lon="13.0849657"><ele>609.0</ele><time>2026-04-26T09:06:54.964Z</time></trkpt><trkpt lat="42.9321666" lon="13.0848882"><ele>609.0</ele><time>2026-04-26T09:06:58.959Z</time></trkpt><trkpt lat="42.9322134" lon="13.0848004"><ele>609.0</ele><time>2026-04-26T09:07:03.963Z</time></trkpt><trkpt lat="42.9322514" lon="13.0847034"><ele>609.0</ele><time>2026-04-26T09:07:05.961Z</time></trkpt><trkpt lat="42.932289" lon="13.0846296"><ele>608.8</ele><time>2026-04-26T09:07:06.967Z</time></trkpt><trkpt lat="42.9323519" lon="13.0845314"><ele>608.5999999999999</ele><time>2026-04-26T09:07:07.961Z</time></trkpt><trkpt lat="42.9324229" lon="13.0844189"><ele>608.4</ele><time>2026-04-26T09:07:08.962Z</time></trkpt><trkpt lat="42.932495" lon="13.084298"><ele>608.1999999999999</ele><time>2026-04-26T09:07:09.964Z</time></trkpt><trkpt lat="42.9325633" lon="13.0841795"><ele>608.0</ele><time>2026-04-26T09:07:10.957Z</time></trkpt><trkpt lat="42.9326312" lon="13.0840599"><ele>609.5</ele><time>2026-04-26T09:07:11.976Z</time></trkpt><trkpt lat="42.9327001" lon="13.0839411"><ele>611.0</ele><time>2026-04-26T09:07:12.961Z</time></trkpt><trkpt lat="42.9327707" lon="13.0838191"><ele>612.5</ele><time>2026-04-26T09:07:13.96Z</time></trkpt><trkpt lat="42.9328428" lon="13.0836943"><ele>614.0</ele><time>2026-04-26T09:07:14.962Z</time></trkpt><trkpt lat="42.9329169" lon="13.0835639"><ele>614.0</ele><time>2026-04-26T09:07:15.964Z</time></trkpt><trkpt lat="42.9329911" lon="13.0834295"><ele>614.0</ele><time>2026-04-26T09:07:16.969Z</time></trkpt><trkpt lat="42.9330595" lon="13.0833036"><ele>614.0</ele><time>2026-04-26T09:07:17.963Z</time></trkpt><trkpt lat="42.9331224" lon="13.0831886"><ele>614.0</ele><time>2026-04-26T09:07:18.959Z</time></trkpt><trkpt lat="42.9331855" lon="13.0830742"><ele>614.0</ele><time>2026-04-26T09:07:19.961Z</time></trkpt><trkpt lat="42.9332517" lon="13.0829551"><ele>613.0</ele><time>2026-04-26T09:07:20.961Z</time></trkpt><trkpt lat="42.9333205" lon="13.0828296"><ele>612.0</ele><time>2026-04-26T09:07:21.96Z</time></trkpt><trkpt lat="42.933392" lon="13.0827002"><ele>611.0</ele><time>2026-04-26T09:07:22.966Z</time></trkpt><trkpt lat="42.9334685" lon="13.0825653"><ele>610.0</ele><time>2026-04-26T09:07:23.962Z</time></trkpt><trkpt lat="42.9335469" lon="13.0824356"><ele>610.25</ele><time>2026-04-26T09:07:24.962Z</time></trkpt><trkpt lat="42.9336374" lon="13.0823182"><ele>610.5</ele><time>2026-04-26T09:07:25.961Z</time></trkpt><trkpt lat="42.9337437" lon="13.0822172"><ele>610.75</ele><time>2026-04-26T09:07:26.96Z</time></trkpt><trkpt lat="42.9338625" lon="13.0821316"><ele>611.0</ele><time>2026-04-26T09:07:27.962Z</time></trkpt><trkpt lat="42.9339921" lon="13.0820676"><ele>611.0</ele><time>2026-04-26T09:07:28.96Z</time></trkpt><trkpt lat="42.934122" lon="13.0820057"><ele>611.0</ele><time>2026-04-26T09:07:29.961Z</time></trkpt><trkpt lat="42.9342575" lon="13.0820037"><ele>611.0</ele><time>2026-04-26T09:07:30.958Z</time></trkpt><trkpt lat="42.9343857" lon="13.0820184"><ele>611.0</ele><time>2026-04-26T09:07:31.962Z</time></trkpt><trkpt lat="42.934512" lon="13.0820304"><ele>611.0</ele><time>2026-04-26T09:07:32.963Z</time></trkpt><trkpt lat="42.934632" lon="13.0820378"><ele>611.0</ele><time>2026-04-26T09:07:33.964Z</time></trkpt><trkpt lat="42.9347555" lon="13.0820419"><ele>611.0</ele><time>2026-04-26T09:07:34.969Z</time></trkpt><trkpt lat="42.9348805" lon="13.0820475"><ele>611.0</ele><time>2026-04-26T09:07:35.971Z</time></trkpt><trkpt lat="42.9350077" lon="13.0820529"><ele>611.75</ele><time>2026-04-26T09:07:36.96Z</time></trkpt><trkpt lat="42.9351385" lon="13.0820557"><ele>612.5</ele><time>2026-04-26T09:07:37.963Z</time></trkpt><trkpt lat="42.9352689" lon="13.082056"><ele>613.25</ele><time>2026-04-26T09:07:38.961Z</time></trkpt><trkpt lat="42.9353991" lon="13.0820559"><ele>614.0</ele><time>2026-04-26T09:07:39.963Z</time></trkpt><trkpt lat="42.935528" lon="13.0820577"><ele>614.0</ele><time>2026-04-26T09:07:40.967Z</time></trkpt><trkpt lat="42.9356567" lon="13.0820563"><ele>614.0</ele><time>2026-04-26T09:07:41.957Z</time></trkpt><trkpt lat="42.9357716" lon="13.0820546"><ele>614.0</ele><time>2026-04-26T09:07:42.959Z</time></trkpt><trkpt lat="42.9358717" lon="13.0820552"><ele>614.0</ele><time>2026-04-26T09:07:43.963Z</time></trkpt><trkpt lat="42.9359594" lon="13.0820573"><ele>614.0</ele><time>2026-04-26T09:07:44.967Z</time></trkpt><trkpt lat="42.9360373" lon="13.0820613"><ele>614.5</ele><time>2026-04-26T09:07:45.96Z</time></trkpt><trkpt lat="42.9361064" lon="13.0820647"><ele>615.0</ele><time>2026-04-26T09:07:46.96Z</time></trkpt><trkpt lat="42.9361708" lon="13.0820641"><ele>615.5</ele><time>2026-04-26T09:07:47.962Z</time></trkpt><trkpt lat="42.9362597" lon="13.0820768"><ele>616.0</ele><time>2026-04-26T09:07:49.962Z</time></trkpt><trkpt lat="42.9363615" lon="13.0820889"><ele>616.5</ele><time>2026-04-26T09:12:56.959Z</time></trkpt><trkpt lat="42.9364494" lon="13.082082"><ele>617.0</ele><time>2026-04-26T09:12:57.957Z</time></trkpt><trkpt lat="42.9365488" lon="13.0820828"><ele>617.0</ele><time>2026-04-26T09:12:58.967Z</time></trkpt><trkpt lat="42.9366539" lon="13.0820869"><ele>617.0</ele><time>2026-04-26T09:12:59.959Z</time></trkpt><trkpt lat="42.9367636" lon="13.0820872"><ele>617.0</ele><time>2026-04-26T09:13:00.961Z</time></trkpt><trkpt lat="42.9368759" lon="13.0820863"><ele>617.0</ele><time>2026-04-26T09:13:01.964Z</time></trkpt><trkpt lat="42.9369921" lon="13.0820878"><ele>617.0</ele><time>2026-04-26T09:13:02.956Z</time></trkpt><trkpt lat="42.9371151" lon="13.0820924"><ele>619.25</ele><time>2026-04-26T09:13:03.96Z</time></trkpt><trkpt lat="42.9372407" lon="13.0821001"><ele>621.5</ele><time>2026-04-26T09:13:04.962Z</time></trkpt><trkpt lat="42.9373662" lon="13.0821144"><ele>623.75</ele><time>2026-04-26T09:13:05.964Z</time></trkpt><trkpt lat="42.9374924" lon="13.0821356"><ele>626.0</ele><time>2026-04-26T09:13:06.972Z</time></trkpt><trkpt lat="42.9376199" lon="13.0821571"><ele>628.25</ele><time>2026-04-26T09:13:07.962Z</time></trkpt><trkpt lat="42.9377481" lon="13.0821812"><ele>630.5</ele><time>2026-04-26T09:13:08.963Z</time></trkpt><trkpt lat="42.9378782" lon="13.0822083"><ele>632.75</ele><time>2026-04-26T09:13:09.98Z</time></trkpt><trkpt lat="42.9380107" lon="13.0822351"><ele>635.0</ele><time>2026-04-26T09:13:10.988Z</time></trkpt><trkpt lat="42.9381486" lon="13.0822635"><ele>635.0</ele><time>2026-04-26T09:13:11.953Z</time></trkpt><trkpt lat="42.9382888" lon="13.082288"><ele>635.0</ele><time>2026-04-26T09:13:12.998Z</time></trkpt><trkpt lat="42.9384295" lon="13.0823139"><ele>635.0</ele><time>2026-04-26T09:13:13.979Z</time></trkpt><trkpt lat="42.9385729" lon="13.0823493"><ele>635.0</ele><time>2026-04-26T09:13:14.974Z</time></trkpt><trkpt lat="42.9387118" lon="13.0823853"><ele>634.5</ele><time>2026-04-26T09:13:15.961Z</time></trkpt><trkpt lat="42.9388542" lon="13.082422"><ele>634.0</ele><time>2026-04-26T09:13:16.967Z</time></trkpt><trkpt lat="42.9389992" lon="13.0824603"><ele>633.5</ele><time>2026-04-26T09:13:17.965Z</time></trkpt><trkpt lat="42.9391448" lon="13.0825096"><ele>633.0</ele><time>2026-04-26T09:13:18.96Z</time></trkpt><trkpt lat="42.9392909" lon="13.082565"><ele>633.0</ele><time>2026-04-26T09:13:19.97Z</time></trkpt><trkpt lat="42.9394383" lon="13.0826259"><ele>633.0</ele><time>2026-04-26T09:13:20.96Z</time></trkpt><trkpt lat="42.9395843" lon="13.0826912"><ele>633.0</ele><time>2026-04-26T09:13:21.958Z</time></trkpt><trkpt lat="42.9397286" lon="13.0827583"><ele>633.0</ele><time>2026-04-26T09:13:22.996Z</time></trkpt><trkpt lat="42.9398707" lon="13.082823"><ele>633.0</ele><time>2026-04-26T09:13:23.965Z</time></trkpt><trkpt lat="42.9400148" lon="13.0828848"><ele>633.0</ele><time>2026-04-26T09:13:24.961Z</time></trkpt><trkpt lat="42.9401613" lon="13.0829459"><ele>633.6666666666666</ele><time>2026-04-26T09:13:25.965Z</time></trkpt><trkpt lat="42.9403102" lon="13.0830022"><ele>634.3333333333333</ele><time>2026-04-26T09:13:26.972Z</time></trkpt><trkpt lat="42.9404567" lon="13.0830559"><ele>635.0</ele><time>2026-04-26T09:13:27.974Z</time></trkpt><trkpt lat="42.9406067" lon="13.0831124"><ele>635.0</ele><time>2026-04-26T09:13:28.958Z</time></trkpt><trkpt lat="42.9407608" lon="13.0831575"><ele>635.0</ele><time>2026-04-26T09:13:29.968Z</time></trkpt><trkpt lat="42.9409133" lon="13.0832091"><ele>635.0</ele><time>2026-04-26T09:13:30.964Z</time></trkpt><trkpt lat="42.9410633" lon="13.0832529"><ele>635.0</ele><time>2026-04-26T09:13:31.973Z</time></trkpt><trkpt lat="42.9412144" lon="13.0832931"><ele>635.0</ele><time>2026-04-26T09:13:32.955Z</time></trkpt><trkpt lat="42.9413667" lon="13.0833337"><ele>635.0</ele><time>2026-04-26T09:13:33.961Z</time></trkpt><trkpt lat="42.941519" lon="13.0833684"><ele>635.0</ele><time>2026-04-26T09:13:34.958Z</time></trkpt><trkpt lat="42.9416715" lon="13.0833983"><ele>635.0</ele><time>2026-04-26T09:13:35.959Z</time></trkpt><trkpt lat="42.9418243" lon="13.0834251"><ele>635.0</ele><time>2026-04-26T09:13:36.963Z</time></trkpt><trkpt lat="42.9419785" lon="13.0834474"><ele>635.6666666666666</ele><time>2026-04-26T09:13:37.959Z</time></trkpt><trkpt lat="42.9421335" lon="13.0834676"><ele>636.3333333333334</ele><time>2026-04-26T09:13:38.959Z</time></trkpt><trkpt lat="42.942287" lon="13.083486"><ele>637.0</ele><time>2026-04-26T09:13:39.966Z</time></trkpt><trkpt lat="42.9424414" lon="13.0835054"><ele>637.0</ele><time>2026-04-26T09:13:40.959Z</time></trkpt><trkpt lat="42.9425916" lon="13.083519"><ele>637.0</ele><time>2026-04-26T09:13:41.964Z</time></trkpt><trkpt lat="42.9427385" lon="13.0835265"><ele>637.0</ele><time>2026-04-26T09:13:42.963Z</time></trkpt><trkpt lat="42.9428868" lon="13.0835261"><ele>637.0</ele><time>2026-04-26T09:13:43.962Z</time></trkpt><trkpt lat="42.9430301" lon="13.0835306"><ele>637.0</ele><time>2026-04-26T09:13:44.964Z</time></trkpt><trkpt lat="42.943182" lon="13.0835223"><ele>637.0</ele><time>2026-04-26T09:13:45.964Z</time></trkpt><trkpt lat="42.9433375" lon="13.0835219"><ele>637.0</ele><time>2026-04-26T09:13:46.959Z</time></trkpt><trkpt lat="42.9434981" lon="13.0835242"><ele>638.0</ele><time>2026-04-26T09:13:47.962Z</time></trkpt><trkpt lat="42.9436533" lon="13.0835164"><ele>639.0</ele><time>2026-04-26T09:13:48.96Z</time></trkpt><trkpt lat="42.9438087" lon="13.0835065"><ele>640.0</ele><time>2026-04-26T09:13:49.959Z</time></trkpt><trkpt lat="42.943964" lon="13.0834963"><ele>640.0</ele><time>2026-04-26T09:13:50.966Z</time></trkpt><trkpt lat="42.9441167" lon="13.0834849"><ele>640.0</ele><time>2026-04-26T09:13:51.958Z</time></trkpt><trkpt lat="42.9442695" lon="13.0834707"><ele>640.0</ele><time>2026-04-26T09:13:52.96Z</time></trkpt><trkpt lat="42.9444263" lon="13.0834558"><ele>641.3333333333334</ele><time>2026-04-26T09:13:53.963Z</time></trkpt><trkpt lat="42.9445815" lon="13.0834301"><ele>642.6666666666666</ele><time>2026-04-26T09:13:54.962Z</time></trkpt><trkpt lat="42.9447421" lon="13.0834175"><ele>644.0</ele><time>2026-04-26T09:13:55.963Z</time></trkpt><trkpt lat="42.9449079" lon="13.0833982"><ele>645.0</ele><time>2026-04-26T09:13:56.963Z</time></trkpt><trkpt lat="42.9450781" lon="13.0833801"><ele>646.0</ele><time>2026-04-26T09:13:57.964Z</time></trkpt><trkpt lat="42.9452487" lon="13.0833635"><ele>647.0</ele><time>2026-04-26T09:13:58.959Z</time></trkpt><trkpt lat="42.9454195" lon="13.083353"><ele>647.0</ele><time>2026-04-26T09:13:59.974Z</time></trkpt><trkpt lat="42.9455825" lon="13.0833399"><ele>647.0</ele><time>2026-04-26T09:14:00.958Z</time></trkpt><trkpt lat="42.9457431" lon="13.0833232"><ele>647.0</ele><time>2026-04-26T09:14:01.965Z</time></trkpt><trkpt lat="42.9459036" lon="13.0833059"><ele>648.0</ele><time>2026-04-26T09:14:02.968Z</time></trkpt><trkpt lat="42.9460644" lon="13.0832936"><ele>649.0</ele><time>2026-04-26T09:14:03.96Z</time></trkpt><trkpt lat="42.9462232" lon="13.0832907"><ele>650.0</ele><time>2026-04-26T09:14:04.975Z</time></trkpt><trkpt lat="42.9463821" lon="13.0832869"><ele>650.0</ele><time>2026-04-26T09:14:05.964Z</time></trkpt><trkpt lat="42.946537" lon="13.0833313"><ele>650.0</ele><time>2026-04-26T09:14:06.963Z</time></trkpt><trkpt lat="42.9466932" lon="13.0833871"><ele>650.0</ele><time>2026-04-26T09:14:07.966Z</time></trkpt><trkpt lat="42.9468476" lon="13.0834606"><ele>651.0</ele><time>2026-04-26T09:14:08.965Z</time></trkpt><trkpt lat="42.9469989" lon="13.083551"><ele>652.0</ele><time>2026-04-26T09:14:09.96Z</time></trkpt><trkpt lat="42.9471454" lon="13.0836394"><ele>653.0</ele><time>2026-04-26T09:14:10.963Z</time></trkpt><trkpt lat="42.9472978" lon="13.0837269"><ele>653.0</ele><time>2026-04-26T09:14:11.97Z</time></trkpt><trkpt lat="42.9474532" lon="13.083819"><ele>653.0</ele><time>2026-04-26T09:14:12.966Z</time></trkpt><trkpt lat="42.9476073" lon="13.0839138"><ele>653.0</ele><time>2026-04-26T09:14:13.959Z</time></trkpt><trkpt lat="42.9477612" lon="13.0839973"><ele>653.6666666666666</ele><time>2026-04-26T09:14:14.966Z</time></trkpt><trkpt lat="42.9479209" lon="13.0840575"><ele>654.3333333333334</ele><time>2026-04-26T09:14:15.965Z</time></trkpt><trkpt lat="42.9480848" lon="13.0840931"><ele>655.0</ele><time>2026-04-26T09:14:16.959Z</time></trkpt><trkpt lat="42.9482476" lon="13.0841026"><ele>658.0</ele><time>2026-04-26T09:14:17.959Z</time></trkpt><trkpt lat="42.9484099" lon="13.0840902"><ele>661.0</ele><time>2026-04-26T09:14:18.96Z</time></trkpt><trkpt lat="42.9485744" lon="13.0840637"><ele>664.0</ele><time>2026-04-26T09:14:19.958Z</time></trkpt><trkpt lat="42.948739" lon="13.0840278"><ele>664.0</ele><time>2026-04-26T09:14:20.959Z</time></trkpt><trkpt lat="42.9489023" lon="13.0839848"><ele>664.0</ele><time>2026-04-26T09:14:21.963Z</time></trkpt><trkpt lat="42.9490573" lon="13.0839209"><ele>664.0</ele><time>2026-04-26T09:14:22.958Z</time></trkpt><trkpt lat="42.9492028" lon="13.0838248"><ele>666.3333333333334</ele><time>2026-04-26T09:14:23.961Z</time></trkpt><trkpt lat="42.9493425" lon="13.0837178"><ele>668.6666666666666</ele><time>2026-04-26T09:14:24.963Z</time></trkpt><trkpt lat="42.9494854" lon="13.0836169"><ele>671.0</ele><time>2026-04-26T09:14:25.965Z</time></trkpt><trkpt lat="42.9496362" lon="13.0835354"><ele>671.0</ele><time>2026-04-26T09:14:26.959Z</time></trkpt><trkpt lat="42.9497981" lon="13.0834851"><ele>671.0</ele><time>2026-04-26T09:14:27.962Z</time></trkpt><trkpt lat="42.9499645" lon="13.0834677"><ele>671.0</ele><time>2026-04-26T09:14:28.958Z</time></trkpt><trkpt lat="42.9501329" lon="13.0834625"><ele>674.3333333333333</ele><time>2026-04-26T09:14:29.963Z</time></trkpt><trkpt lat="42.9502958" lon="13.0834504"><ele>677.6666666666666</ele><time>2026-04-26T09:14:30.959Z</time></trkpt><trkpt lat="42.9504519" lon="13.0833984"><ele>681.0</ele><time>2026-04-26T09:14:31.959Z</time></trkpt><trkpt lat="42.950603" lon="13.0833472"><ele>681.0</ele><time>2026-04-26T09:14:32.961Z</time></trkpt><trkpt lat="42.9507573" lon="13.0833156"><ele>681.0</ele><time>2026-04-26T09:14:33.959Z</time></trkpt><trkpt lat="42.9509138" lon="13.0832878"><ele>681.0</ele><time>2026-04-26T09:14:34.958Z</time></trkpt><trkpt lat="42.9510664" lon="13.0833281"><ele>682.6666666666666</ele><time>2026-04-26T09:14:35.958Z</time></trkpt><trkpt lat="42.9512221" lon="13.0833636"><ele>684.3333333333333</ele><time>2026-04-26T09:14:36.96Z</time></trkpt><trkpt lat="42.9513809" lon="13.0833787"><ele>686.0</ele><time>2026-04-26T09:14:37.954Z</time></trkpt><trkpt lat="42.9515378" lon="13.0833757"><ele>686.0</ele><time>2026-04-26T09:14:38.958Z</time></trkpt><trkpt lat="42.9516996" lon="13.0833513"><ele>686.0</ele><time>2026-04-26T09:14:39.959Z</time></trkpt><trkpt lat="42.9518588" lon="13.0833128"><ele>686.0</ele><time>2026-04-26T09:14:40.96Z</time></trkpt><trkpt lat="42.9520189" lon="13.0832688"><ele>684.0</ele><time>2026-04-26T09:14:41.961Z</time></trkpt><trkpt lat="42.9521787" lon="13.0832218"><ele>682.0</ele><time>2026-04-26T09:14:42.958Z</time></trkpt><trkpt lat="42.9523358" lon="13.0831757"><ele>680.0</ele><time>2026-04-26T09:14:43.958Z</time></trkpt><trkpt lat="42.9524899" lon="13.0831356"><ele>681.75</ele><time>2026-04-26T09:14:44.961Z</time></trkpt><trkpt lat="42.9526394" lon="13.0831"><ele>683.5</ele><time>2026-04-26T09:14:45.96Z</time></trkpt><trkpt lat="42.9527861" lon="13.0830826"><ele>685.25</ele><time>2026-04-26T09:14:46.959Z</time></trkpt><trkpt lat="42.9529326" lon="13.0831054"><ele>687.0</ele><time>2026-04-26T09:14:47.963Z</time></trkpt><trkpt lat="42.9530709" lon="13.0831612"><ele>687.0</ele><time>2026-04-26T09:14:48.959Z</time></trkpt><trkpt lat="42.9532127" lon="13.0832388"><ele>687.0</ele><time>2026-04-26T09:14:49.955Z</time></trkpt><trkpt lat="42.9533529" lon="13.0833149"><ele>687.0</ele><time>2026-04-26T09:14:50.959Z</time></trkpt><trkpt lat="42.9534959" lon="13.0833855"><ele>690.0</ele><time>2026-04-26T09:14:51.959Z</time></trkpt><trkpt lat="42.9536428" lon="13.0834254"><ele>693.0</ele><time>2026-04-26T09:14:52.954Z</time></trkpt><trkpt lat="42.9537907" lon="13.0834283"><ele>696.0</ele><time>2026-04-26T09:14:53.957Z</time></trkpt><trkpt lat="42.9539335" lon="13.0834035"><ele>699.0</ele><time>2026-04-26T09:14:54.959Z</time></trkpt><trkpt lat="42.9540657" lon="13.0833752"><ele>699.0</ele><time>2026-04-26T09:14:55.958Z</time></trkpt><trkpt lat="42.9541994" lon="13.0833536"><ele>699.0</ele><time>2026-04-26T09:14:56.955Z</time></trkpt><trkpt lat="42.9543272" lon="13.083357"><ele>699.0</ele><time>2026-04-26T09:14:57.96Z</time></trkpt><trkpt lat="42.9544523" lon="13.0833756"><ele>699.0</ele><time>2026-04-26T09:14:58.961Z</time></trkpt><trkpt lat="42.9545474" lon="13.0834541"><ele>699.0</ele><time>2026-04-26T09:14:59.97Z</time></trkpt><trkpt lat="42.9546246" lon="13.0835648"><ele>699.0</ele><time>2026-04-26T09:15:00.965Z</time></trkpt><trkpt lat="42.9546977" lon="13.0836763"><ele>699.0</ele><time>2026-04-26T09:15:01.973Z</time></trkpt><trkpt lat="42.9547369" lon="13.0838262"><ele>699.0</ele><time>2026-04-26T09:15:02.957Z</time></trkpt><trkpt lat="42.9547724" lon="13.0839756"><ele>702.25</ele><time>2026-04-26T09:15:03.962Z</time></trkpt><trkpt lat="42.9548194" lon="13.0841289"><ele>705.5</ele><time>2026-04-26T09:15:04.955Z</time></trkpt><trkpt lat="42.9548857" lon="13.0842711"><ele>708.75</ele><time>2026-04-26T09:15:05.958Z</time></trkpt><trkpt lat="42.9549665" lon="13.0844085"><ele>712.0</ele><time>2026-04-26T09:15:06.962Z</time></trkpt><trkpt lat="42.955051" lon="13.0845448"><ele>714.25</ele><time>2026-04-26T09:15:07.963Z</time></trkpt><trkpt lat="42.9551383" lon="13.0846815"><ele>716.5</ele><time>2026-04-26T09:15:08.958Z</time></trkpt><trkpt lat="42.9552278" lon="13.0848177"><ele>718.75</ele><time>2026-04-26T09:15:09.958Z</time></trkpt><trkpt lat="42.9553148" lon="13.0849474"><ele>721.0</ele><time>2026-04-26T09:15:10.956Z</time></trkpt><trkpt lat="42.955393" lon="13.0850628"><ele>721.8</ele><time>2026-04-26T09:15:11.959Z</time></trkpt><trkpt lat="42.9554725" lon="13.0851399"><ele>722.5999999999999</ele><time>2026-04-26T09:15:12.96Z</time></trkpt><trkpt lat="42.9555737" lon="13.08517"><ele>723.4</ele><time>2026-04-26T09:15:13.956Z</time></trkpt><trkpt lat="42.9556765" lon="13.0851658"><ele>724.2</ele><time>2026-04-26T09:15:14.954Z</time></trkpt><trkpt lat="42.9557838" lon="13.0851421"><ele>725.0</ele><time>2026-04-26T09:15:15.964Z</time></trkpt><trkpt lat="42.9558921" lon="13.0851129"><ele>729.2</ele><time>2026-04-26T09:15:16.956Z</time></trkpt><trkpt lat="42.9559979" lon="13.0850835"><ele>733.4</ele><time>2026-04-26T09:15:17.989Z</time></trkpt><trkpt lat="42.956102" lon="13.0850507"><ele>737.5999999999999</ele><time>2026-04-26T09:15:18.96Z</time></trkpt><trkpt lat="42.9561988" lon="13.0850086"><ele>741.8</ele><time>2026-04-26T09:15:19.963Z</time></trkpt><trkpt lat="42.9562746" lon="13.084959"><ele>746.0</ele><time>2026-04-26T09:15:20.957Z</time></trkpt><trkpt lat="42.956328" lon="13.0848749"><ele>747.0</ele><time>2026-04-26T09:15:21.958Z</time></trkpt><trkpt lat="42.9563668" lon="13.0847726"><ele>748.0</ele><time>2026-04-26T09:15:22.967Z</time></trkpt><trkpt lat="42.9563423" lon="13.0846393"><ele>749.0</ele><time>2026-04-26T09:15:23.954Z</time></trkpt><trkpt lat="42.9562952" lon="13.084526"><ele>750.0</ele><time>2026-04-26T09:15:24.972Z</time></trkpt><trkpt lat="42.9562119" lon="13.0844241"><ele>751.0</ele><time>2026-04-26T09:15:25.96Z</time></trkpt><trkpt lat="42.9561335" lon="13.0843237"><ele>751.0</ele><time>2026-04-26T09:15:26.966Z</time></trkpt><trkpt lat="42.9560574" lon="13.0842124"><ele>751.0</ele><time>2026-04-26T09:15:27.958Z</time></trkpt><trkpt lat="42.9559999" lon="13.0840816"><ele>751.0</ele><time>2026-04-26T09:15:28.962Z</time></trkpt><trkpt lat="42.9559625" lon="13.0839429"><ele>751.0</ele><time>2026-04-26T09:15:29.958Z</time></trkpt><trkpt lat="42.9559303" lon="13.0838186"><ele>751.0</ele><time>2026-04-26T09:15:30.959Z</time></trkpt><trkpt lat="42.9559604" lon="13.0836738"><ele>748.75</ele><time>2026-04-26T09:15:31.959Z</time></trkpt><trkpt lat="42.9559947" lon="13.0835333"><ele>746.5</ele><time>2026-04-26T09:15:32.96Z</time></trkpt><trkpt lat="42.9560416" lon="13.0833889"><ele>744.25</ele><time>2026-04-26T09:15:33.955Z</time></trkpt><trkpt lat="42.9561036" lon="13.0832493"><ele>742.0</ele><time>2026-04-26T09:15:34.968Z</time></trkpt><trkpt lat="42.9561707" lon="13.0831223"><ele>735.75</ele><time>2026-04-26T09:15:35.962Z</time></trkpt><trkpt lat="42.9562787" lon="13.0830113"><ele>729.5</ele><time>2026-04-26T09:15:36.961Z</time></trkpt><trkpt lat="42.9563928" lon="13.082927"><ele>723.25</ele><time>2026-04-26T09:15:37.965Z</time></trkpt><trkpt lat="42.9565112" lon="13.0828825"><ele>717.0</ele><time>2026-04-26T09:15:38.963Z</time></trkpt><trkpt lat="42.9566207" lon="13.0828825"><ele>718.6</ele><time>2026-04-26T09:15:39.956Z</time></trkpt><trkpt lat="42.9567177" lon="13.0829372"><ele>720.2</ele><time>2026-04-26T09:15:40.959Z</time></trkpt><trkpt lat="42.9568017" lon="13.0829992"><ele>721.8</ele><time>2026-04-26T09:15:41.953Z</time></trkpt><trkpt lat="42.9568772" lon="13.0831027"><ele>723.4</ele><time>2026-04-26T09:15:42.955Z</time></trkpt><trkpt lat="42.9569446" lon="13.0832147"><ele>725.0</ele><time>2026-04-26T09:15:43.955Z</time></trkpt><trkpt lat="42.9570074" lon="13.0833337"><ele>728.75</ele><time>2026-04-26T09:15:44.96Z</time></trkpt><trkpt lat="42.957079" lon="13.0834463"><ele>732.5</ele><time>2026-04-26T09:15:45.956Z</time></trkpt><trkpt lat="42.9571499" lon="13.083558"><ele>736.25</ele><time>2026-04-26T09:15:46.956Z</time></trkpt><trkpt lat="42.9572322" lon="13.0836746"><ele>740.0</ele><time>2026-04-26T09:15:47.959Z</time></trkpt><trkpt lat="42.9573232" lon="13.0837873"><ele>740.0</ele><time>2026-04-26T09:15:48.956Z</time></trkpt><trkpt lat="42.9574256" lon="13.0838881"><ele>740.0</ele><time>2026-04-26T09:15:49.954Z</time></trkpt><trkpt lat="42.9575362" lon="13.0839718"><ele>740.0</ele><time>2026-04-26T09:15:50.959Z</time></trkpt><trkpt lat="42.9576444" lon="13.0840483"><ele>740.0</ele><time>2026-04-26T09:15:51.964Z</time></trkpt><trkpt lat="42.9577857" lon="13.0840783"><ele>743.0</ele><time>2026-04-26T09:15:52.956Z</time></trkpt><trkpt lat="42.9579272" lon="13.084094"><ele>746.0</ele><time>2026-04-26T09:15:53.967Z</time></trkpt><trkpt lat="42.9580806" lon="13.0840405"><ele>749.0</ele><time>2026-04-26T09:15:54.965Z</time></trkpt><trkpt lat="42.9582455" lon="13.0839727"><ele>754.0</ele><time>2026-04-26T09:15:55.953Z</time></trkpt><trkpt lat="42.9584057" lon="13.0838699"><ele>759.0</ele><time>2026-04-26T09:15:56.964Z</time></trkpt><trkpt lat="42.958545" lon="13.0837244"><ele>764.0</ele><time>2026-04-26T09:15:57.956Z</time></trkpt><trkpt lat="42.9586381" lon="13.083529"><ele>764.0</ele><time>2026-04-26T09:15:58.969Z</time></trkpt><trkpt lat="42.9587314" lon="13.0833134"><ele>764.0</ele><time>2026-04-26T09:15:59.962Z</time></trkpt><trkpt lat="42.9588187" lon="13.0831267"><ele>764.0</ele><time>2026-04-26T09:16:00.959Z</time></trkpt><trkpt lat="42.9589531" lon="13.0829866"><ele>760.3333333333333</ele><time>2026-04-26T09:16:01.956Z</time></trkpt><trkpt lat="42.9590858" lon="13.0828707"><ele>756.6666666666666</ele><time>2026-04-26T09:16:02.957Z</time></trkpt><trkpt lat="42.9592777" lon="13.082881"><ele>753.0</ele><time>2026-04-26T09:16:03.954Z</time></trkpt><trkpt lat="42.9594799" lon="13.0829326"><ele>753.0</ele><time>2026-04-26T09:16:04.956Z</time></trkpt><trkpt lat="42.9596855" lon="13.0829565"><ele>753.0</ele><time>2026-04-26T09:16:05.961Z</time></trkpt><trkpt lat="42.9599091" lon="13.0829338"><ele>753.0</ele><time>2026-04-26T09:16:06.956Z</time></trkpt><trkpt lat="42.9601172" lon="13.0828659"><ele>756.0</ele><time>2026-04-26T09:16:07.959Z</time></trkpt><trkpt lat="42.9603272" lon="13.0828088"><ele>759.0</ele><time>2026-04-26T09:16:08.957Z</time></trkpt><trkpt lat="42.9605364" lon="13.082773"><ele>762.0</ele><time>2026-04-26T09:16:09.955Z</time></trkpt><trkpt lat="42.9607582" lon="13.0828187"><ele>767.3333333333333</ele><time>2026-04-26T09:16:10.959Z</time></trkpt><trkpt lat="42.9609831" lon="13.0828655"><ele>772.6666666666666</ele><time>2026-04-26T09:16:11.957Z</time></trkpt><trkpt lat="42.9611782" lon="13.082993"><ele>778.0</ele><time>2026-04-26T09:16:12.955Z</time></trkpt><trkpt lat="42.961337" lon="13.0831853"><ele>779.5</ele><time>2026-04-26T09:16:13.96Z</time></trkpt><trkpt lat="42.9614445" lon="13.0833521"><ele>781.0</ele><time>2026-04-26T09:16:14.96Z</time></trkpt><trkpt lat="42.9615406" lon="13.083517"><ele>782.5</ele><time>2026-04-26T09:16:15.957Z</time></trkpt><trkpt lat="42.9616614" lon="13.0835858"><ele>784.0</ele><time>2026-04-26T09:16:16.955Z</time></trkpt><trkpt lat="42.9617774" lon="13.0836317"><ele>789.0</ele><time>2026-04-26T09:16:17.954Z</time></trkpt><trkpt lat="42.9619398" lon="13.0835528"><ele>794.0</ele><time>2026-04-26T09:16:18.955Z</time></trkpt><trkpt lat="42.9620803" lon="13.0833927"><ele>799.0</ele><time>2026-04-26T09:16:19.959Z</time></trkpt><trkpt lat="42.9622033" lon="13.0832132"><ele>799.0</ele><time>2026-04-26T09:16:20.954Z</time></trkpt><trkpt lat="42.9622797" lon="13.0829727"><ele>799.0</ele><time>2026-04-26T09:16:21.961Z</time></trkpt><trkpt lat="42.9622833" lon="13.0827512"><ele>799.0</ele><time>2026-04-26T09:16:22.962Z</time></trkpt><trkpt lat="42.962231" lon="13.082558"><ele>797.0</ele><time>2026-04-26T09:16:23.969Z</time></trkpt><trkpt lat="42.9621201" lon="13.0823873"><ele>795.0</ele><time>2026-04-26T09:16:24.969Z</time></trkpt><trkpt lat="42.9619818" lon="13.082245"><ele>793.0</ele><time>2026-04-26T09:16:25.959Z</time></trkpt><trkpt lat="42.9618585" lon="13.0821174"><ele>793.0</ele><time>2026-04-26T09:16:26.954Z</time></trkpt><trkpt lat="42.9617868" lon="13.081988"><ele>793.0</ele><time>2026-04-26T09:16:27.958Z</time></trkpt><trkpt lat="42.9617828" lon="13.0818517"><ele>793.0</ele><time>2026-04-26T09:16:28.958Z</time></trkpt><trkpt lat="42.9618456" lon="13.0817553"><ele>793.0</ele><time>2026-04-26T09:16:29.951Z</time></trkpt><trkpt lat="42.9619227" lon="13.0816751"><ele>793.0</ele><time>2026-04-26T09:16:30.962Z</time></trkpt><trkpt lat="42.9620652" lon="13.0816904"><ele>793.0</ele><time>2026-04-26T09:16:31.961Z</time></trkpt><trkpt lat="42.9622163" lon="13.0816828"><ele>793.0</ele><time>2026-04-26T09:16:32.956Z</time></trkpt><trkpt lat="42.9623954" lon="13.0816347"><ele>793.0</ele><time>2026-04-26T09:16:33.958Z</time></trkpt><trkpt lat="42.9625985" lon="13.0815862"><ele>792.6666666666666</ele><time>2026-04-26T09:16:34.954Z</time></trkpt><trkpt lat="42.9628141" lon="13.0815385"><ele>792.3333333333333</ele><time>2026-04-26T09:16:35.969Z</time></trkpt><trkpt lat="42.9630384" lon="13.0815222"><ele>792.0</ele><time>2026-04-26T09:16:36.956Z</time></trkpt><trkpt lat="42.9632661" lon="13.0815128"><ele>794.3333333333333</ele><time>2026-04-26T09:16:37.955Z</time></trkpt><trkpt lat="42.963494" lon="13.0815074"><ele>796.6666666666666</ele><time>2026-04-26T09:16:38.958Z</time></trkpt><trkpt lat="42.9637057" lon="13.0814355"><ele>799.0</ele><time>2026-04-26T09:16:39.954Z</time></trkpt><trkpt lat="42.9639093" lon="13.0813209"><ele>799.0</ele><time>2026-04-26T09:16:40.955Z</time></trkpt><trkpt lat="42.9641215" lon="13.0812092"><ele>799.0</ele><time>2026-04-26T09:16:41.957Z</time></trkpt><trkpt lat="42.9643462" lon="13.0811462"><ele>803.0</ele><time>2026-04-26T09:16:42.954Z</time></trkpt><trkpt lat="42.9645524" lon="13.0811094"><ele>807.0</ele><time>2026-04-26T09:16:43.955Z</time></trkpt><trkpt lat="42.9647302" lon="13.0811711"><ele>811.0</ele><time>2026-04-26T09:16:44.959Z</time></trkpt><trkpt lat="42.964878" lon="13.0812271"><ele>811.0</ele><time>2026-04-26T09:16:45.958Z</time></trkpt><trkpt lat="42.9649974" lon="13.0812701"><ele>811.0</ele><time>2026-04-26T09:16:46.955Z</time></trkpt><trkpt lat="42.9651071" lon="13.0812379"><ele>811.0</ele><time>2026-04-26T09:16:47.954Z</time></trkpt><trkpt lat="42.9651651" lon="13.0810887"><ele>811.0</ele><time>2026-04-26T09:16:48.961Z</time></trkpt><trkpt lat="42.9651682" lon="13.0809012"><ele>811.0</ele><time>2026-04-26T09:16:49.951Z</time></trkpt><trkpt lat="42.9651423" lon="13.0806641"><ele>811.0</ele><time>2026-04-26T09:16:50.956Z</time></trkpt><trkpt lat="42.9650811" lon="13.0804483"><ele>811.0</ele><time>2026-04-26T09:16:51.96Z</time></trkpt><trkpt lat="42.9650528" lon="13.0802378"><ele>811.0</ele><time>2026-04-26T09:16:52.963Z</time></trkpt><trkpt lat="42.9650894" lon="13.0800768"><ele>811.0</ele><time>2026-04-26T09:16:53.955Z</time></trkpt><trkpt lat="42.965186" lon="13.0799763"><ele>811.0</ele><time>2026-04-26T09:16:54.959Z</time></trkpt><trkpt lat="42.9653196" lon="13.0799571"><ele>811.0</ele><time>2026-04-26T09:16:55.951Z</time></trkpt><trkpt lat="42.9654736" lon="13.0799879"><ele>811.0</ele><time>2026-04-26T09:16:56.959Z</time></trkpt><trkpt lat="42.9656595" lon="13.0800253"><ele>811.0</ele><time>2026-04-26T09:16:57.952Z</time></trkpt><trkpt lat="42.9658603" lon="13.0800683"><ele>811.0</ele><time>2026-04-26T09:16:58.959Z</time></trkpt><trkpt lat="42.9660591" lon="13.0801382"><ele>810.0</ele><time>2026-04-26T09:16:59.955Z</time></trkpt><trkpt lat="42.9662435" lon="13.080214"><ele>809.0</ele><time>2026-04-26T09:17:00.955Z</time></trkpt><trkpt lat="42.9664204" lon="13.0802862"><ele>808.0</ele><time>2026-04-26T09:17:01.955Z</time></trkpt><trkpt lat="42.9665888" lon="13.0802931"><ele>807.5</ele><time>2026-04-26T09:17:02.959Z</time></trkpt><trkpt lat="42.9667453" lon="13.0802538"><ele>807.0</ele><time>2026-04-26T09:17:03.959Z</time></trkpt><trkpt lat="42.9668833" lon="13.0801913"><ele>806.5</ele><time>2026-04-26T09:17:04.969Z</time></trkpt><trkpt lat="42.9670182" lon="13.0801436"><ele>806.0</ele><time>2026-04-26T09:17:05.958Z</time></trkpt><trkpt lat="42.9671383" lon="13.0801144"><ele>806.0</ele><time>2026-04-26T09:17:06.962Z</time></trkpt><trkpt lat="42.967257" lon="13.0800999"><ele>806.0</ele><time>2026-04-26T09:17:07.957Z</time></trkpt><trkpt lat="42.9673692" lon="13.0800985"><ele>806.0</ele><time>2026-04-26T09:17:08.962Z</time></trkpt><trkpt lat="42.9674775" lon="13.0800927"><ele>806.0</ele><time>2026-04-26T09:17:09.966Z</time></trkpt><trkpt lat="42.9675798" lon="13.0800927"><ele>806.0</ele><time>2026-04-26T09:17:10.954Z</time></trkpt><trkpt lat="42.9676749" lon="13.0800954"><ele>804.5999999999999</ele><time>2026-04-26T09:17:11.957Z</time></trkpt><trkpt lat="42.9677655" lon="13.0800988"><ele>803.2</ele><time>2026-04-26T09:17:12.958Z</time></trkpt><trkpt lat="42.9678607" lon="13.0801011"><ele>801.8</ele><time>2026-04-26T09:17:13.958Z</time></trkpt><trkpt lat="42.9679537" lon="13.0801117"><ele>800.4000000000001</ele><time>2026-04-26T09:17:14.958Z</time></trkpt><trkpt lat="42.9680375" lon="13.0801455"><ele>799.0</ele><time>2026-04-26T09:17:15.966Z</time></trkpt><trkpt lat="42.9681069" lon="13.0802096"><ele>799.0</ele><time>2026-04-26T09:17:16.96Z</time></trkpt><trkpt lat="42.9681729" lon="13.0803096"><ele>799.0</ele><time>2026-04-26T09:17:17.962Z</time></trkpt><trkpt lat="42.9682448" lon="13.0804205"><ele>799.0</ele><time>2026-04-26T09:17:18.961Z</time></trkpt><trkpt lat="42.9683463" lon="13.0805077"><ele>799.0</ele><time>2026-04-26T09:17:19.952Z</time></trkpt><trkpt lat="42.9684419" lon="13.0805756"><ele>799.0</ele><time>2026-04-26T09:17:20.959Z</time></trkpt><trkpt lat="42.968574" lon="13.0805268"><ele>796.25</ele><time>2026-04-26T09:17:21.963Z</time></trkpt><trkpt lat="42.9686997" lon="13.0804958"><ele>793.5</ele><time>2026-04-26T09:17:22.961Z</time></trkpt><trkpt lat="42.9688323" lon="13.0804747"><ele>790.75</ele><time>2026-04-26T09:17:23.959Z</time></trkpt><trkpt lat="42.9689413" lon="13.0805854"><ele>788.0</ele><time>2026-04-26T09:17:24.959Z</time></trkpt><trkpt lat="42.9690501" lon="13.0807071"><ele>791.5</ele><time>2026-04-26T09:17:25.959Z</time></trkpt><trkpt lat="42.9691337" lon="13.0808734"><ele>795.0</ele><time>2026-04-26T09:17:26.972Z</time></trkpt><trkpt lat="42.9692226" lon="13.0809754"><ele>798.5</ele><time>2026-04-26T09:17:27.958Z</time></trkpt><trkpt lat="42.9693195" lon="13.0810515"><ele>802.0</ele><time>2026-04-26T09:17:28.958Z</time></trkpt><trkpt lat="42.9694638" lon="13.0810112"><ele>802.0</ele><time>2026-04-26T09:17:29.963Z</time></trkpt><trkpt lat="42.9696179" lon="13.0809061"><ele>802.0</ele><time>2026-04-26T09:17:30.96Z</time></trkpt><trkpt lat="42.9697333" lon="13.0807693"><ele>802.0</ele><time>2026-04-26T09:17:31.96Z</time></trkpt><trkpt lat="42.9698658" lon="13.0806467"><ele>796.6666666666666</ele><time>2026-04-26T09:17:32.962Z</time></trkpt><trkpt lat="42.9700435" lon="13.0806232"><ele>791.3333333333333</ele><time>2026-04-26T09:17:33.957Z</time></trkpt><trkpt lat="42.9702409" lon="13.0806258"><ele>786.0</ele><time>2026-04-26T09:17:34.959Z</time></trkpt><trkpt lat="42.9704461" lon="13.0806247"><ele>786.0</ele><time>2026-04-26T09:17:35.961Z</time></trkpt><trkpt lat="42.970647" lon="13.0806128"><ele>786.0</ele><time>2026-04-26T09:17:36.967Z</time></trkpt><trkpt lat="42.9708371" lon="13.0806056"><ele>786.0</ele><time>2026-04-26T09:17:37.959Z</time></trkpt><trkpt lat="42.9710178" lon="13.0805991"><ele>785.3333333333333</ele><time>2026-04-26T09:17:38.961Z</time></trkpt><trkpt lat="42.9711901" lon="13.0805495"><ele>784.6666666666666</ele><time>2026-04-26T09:17:39.957Z</time></trkpt><trkpt lat="42.9713519" lon="13.0804633"><ele>784.0</ele><time>2026-04-26T09:17:40.966Z</time></trkpt><trkpt lat="42.9715156" lon="13.0803765"><ele>784.0</ele><time>2026-04-26T09:17:41.958Z</time></trkpt><trkpt lat="42.9716859" lon="13.0803165"><ele>784.0</ele><time>2026-04-26T09:17:42.965Z</time></trkpt><trkpt lat="42.9718642" lon="13.0802958"><ele>784.0</ele><time>2026-04-26T09:17:43.96Z</time></trkpt><trkpt lat="42.9720436" lon="13.0803068"><ele>783.3333333333333</ele><time>2026-04-26T09:17:44.966Z</time></trkpt><trkpt lat="42.9722245" lon="13.0803421"><ele>782.6666666666667</ele><time>2026-04-26T09:17:45.961Z</time></trkpt><trkpt lat="42.9724033" lon="13.0803863"><ele>782.0</ele><time>2026-04-26T09:17:46.965Z</time></trkpt><trkpt lat="42.972583" lon="13.0804388"><ele>780.0</ele><time>2026-04-26T09:17:47.963Z</time></trkpt><trkpt lat="42.9727605" lon="13.0805003"><ele>778.0</ele><time>2026-04-26T09:17:48.96Z</time></trkpt><trkpt lat="42.9729333" lon="13.0805666"><ele>776.0</ele><time>2026-04-26T09:17:49.974Z</time></trkpt><trkpt lat="42.9730967" lon="13.0806333"><ele>776.0</ele><time>2026-04-26T09:17:50.957Z</time></trkpt><trkpt lat="42.9732545" lon="13.0806976"><ele>776.0</ele><time>2026-04-26T09:17:51.963Z</time></trkpt><trkpt lat="42.97341" lon="13.0807606"><ele>776.0</ele><time>2026-04-26T09:17:52.964Z</time></trkpt><trkpt lat="42.973566" lon="13.0808277"><ele>776.3333333333334</ele><time>2026-04-26T09:17:53.96Z</time></trkpt><trkpt lat="42.9737145" lon="13.0809074"><ele>776.6666666666667</ele><time>2026-04-26T09:17:54.959Z</time></trkpt><trkpt lat="42.9738505" lon="13.0810292"><ele>777.0</ele><time>2026-04-26T09:17:55.957Z</time></trkpt><trkpt lat="42.9739659" lon="13.081207"><ele>777.0</ele><time>2026-04-26T09:17:56.96Z</time></trkpt><trkpt lat="42.9740682" lon="13.0814143"><ele>777.0</ele><time>2026-04-26T09:17:57.957Z</time></trkpt><trkpt lat="42.9741627" lon="13.0816365"><ele>777.0</ele><time>2026-04-26T09:17:58.961Z</time></trkpt><trkpt lat="42.9742489" lon="13.0818546"><ele>774.6666666666667</ele><time>2026-04-26T09:17:59.959Z</time></trkpt><trkpt lat="42.9743284" lon="13.0820615"><ele>772.3333333333334</ele><time>2026-04-26T09:18:00.963Z</time></trkpt><trkpt lat="42.9744012" lon="13.082255"><ele>770.0</ele><time>2026-04-26T09:18:01.955Z</time></trkpt><trkpt lat="42.9744715" lon="13.0824183"><ele>773.25</ele><time>2026-04-26T09:18:02.956Z</time></trkpt><trkpt lat="42.9745604" lon="13.0825356"><ele>776.5</ele><time>2026-04-26T09:18:03.961Z</time></trkpt><trkpt lat="42.9746749" lon="13.0825848"><ele>779.75</ele><time>2026-04-26T09:18:04.96Z</time></trkpt><trkpt lat="42.9748032" lon="13.0825615"><ele>783.0</ele><time>2026-04-26T09:18:05.958Z</time></trkpt><trkpt lat="42.9749197" lon="13.0825289"><ele>783.0</ele><time>2026-04-26T09:18:06.961Z</time></trkpt><trkpt lat="42.9750197" lon="13.0824538"><ele>783.0</ele><time>2026-04-26T09:18:07.957Z</time></trkpt><trkpt lat="42.9751152" lon="13.0824071"><ele>783.0</ele><time>2026-04-26T09:18:08.957Z</time></trkpt><trkpt lat="42.9752159" lon="13.0823772"><ele>783.0</ele><time>2026-04-26T09:18:09.96Z</time></trkpt><trkpt lat="42.9753225" lon="13.0823627"><ele>783.0</ele><time>2026-04-26T09:18:10.96Z</time></trkpt><trkpt lat="42.9754457" lon="13.0823789"><ele>781.75</ele><time>2026-04-26T09:18:11.959Z</time></trkpt><trkpt lat="42.9755816" lon="13.0824151"><ele>780.5</ele><time>2026-04-26T09:18:12.961Z</time></trkpt><trkpt lat="42.9757171" lon="13.0824489"><ele>779.25</ele><time>2026-04-26T09:18:13.962Z</time></trkpt><trkpt lat="42.9758512" lon="13.082474"><ele>778.0</ele><time>2026-04-26T09:18:14.958Z</time></trkpt><trkpt lat="42.9759848" lon="13.0824886"><ele>775.5</ele><time>2026-04-26T09:18:15.961Z</time></trkpt><trkpt lat="42.9761167" lon="13.082473"><ele>773.0</ele><time>2026-04-26T09:18:16.959Z</time></trkpt><trkpt lat="42.9762383" lon="13.0824116"><ele>770.5</ele><time>2026-04-26T09:18:17.958Z</time></trkpt><trkpt lat="42.9763494" lon="13.0823099"><ele>768.0</ele><time>2026-04-26T09:18:18.959Z</time></trkpt><trkpt lat="42.97646" lon="13.0821917"><ele>768.0</ele><time>2026-04-26T09:18:19.96Z</time></trkpt><trkpt lat="42.9765603" lon="13.0820439"><ele>768.0</ele><time>2026-04-26T09:18:20.966Z</time></trkpt><trkpt lat="42.9766603" lon="13.0819081"><ele>768.0</ele><time>2026-04-26T09:18:21.962Z</time></trkpt><trkpt lat="42.9767697" lon="13.0817818"><ele>768.0</ele><time>2026-04-26T09:18:22.959Z</time></trkpt><trkpt lat="42.9768798" lon="13.0816677"><ele>767.5</ele><time>2026-04-26T09:18:23.956Z</time></trkpt><trkpt lat="42.9769944" lon="13.0815592"><ele>767.0</ele><time>2026-04-26T09:18:24.964Z</time></trkpt><trkpt lat="42.9771077" lon="13.0814614"><ele>766.5</ele><time>2026-04-26T09:18:25.963Z</time></trkpt><trkpt lat="42.9772188" lon="13.0813743"><ele>766.0</ele><time>2026-04-26T09:18:26.963Z</time></trkpt><trkpt lat="42.977325" lon="13.0812952"><ele>766.0</ele><time>2026-04-26T09:18:27.956Z</time></trkpt><trkpt lat="42.9774232" lon="13.0812224"><ele>766.0</ele><time>2026-04-26T09:18:28.962Z</time></trkpt><trkpt lat="42.9775112" lon="13.0811603"><ele>766.0</ele><time>2026-04-26T09:18:29.96Z</time></trkpt><trkpt lat="42.9775908" lon="13.0811105"><ele>766.0</ele><time>2026-04-26T09:18:30.957Z</time></trkpt><trkpt lat="42.9776597" lon="13.0810766"><ele>766.0</ele><time>2026-04-26T09:18:31.961Z</time></trkpt><trkpt lat="42.9777603" lon="13.0810507"><ele>766.0</ele><time>2026-04-26T09:18:33.958Z</time></trkpt><trkpt lat="42.9778484" lon="13.0810736"><ele>766.0</ele><time>2026-04-26T09:18:35.969Z</time></trkpt><trkpt lat="42.9779181" lon="13.0811859"><ele>766.0</ele><time>2026-04-26T09:18:37.968Z</time></trkpt><trkpt lat="42.9779454" lon="13.0812774"><ele>766.0</ele><time>2026-04-26T09:18:38.962Z</time></trkpt><trkpt lat="42.9779649" lon="13.0813906"><ele>766.0</ele><time>2026-04-26T09:18:39.959Z</time></trkpt><trkpt lat="42.977975" lon="13.0815091"><ele>766.0</ele><time>2026-04-26T09:18:40.968Z</time></trkpt><trkpt lat="42.977979" lon="13.0816293"><ele>766.0</ele><time>2026-04-26T09:18:41.957Z</time></trkpt><trkpt lat="42.9779818" lon="13.0817436"><ele>766.0</ele><time>2026-04-26T09:18:42.964Z</time></trkpt><trkpt lat="42.9779965" lon="13.0818447"><ele>766.0</ele><time>2026-04-26T09:18:43.954Z</time></trkpt><trkpt lat="42.9780289" lon="13.0819257"><ele>766.0</ele><time>2026-04-26T09:18:44.955Z</time></trkpt><trkpt lat="42.9780773" lon="13.0819813"><ele>766.0</ele><time>2026-04-26T09:18:45.96Z</time></trkpt><trkpt lat="42.9781422" lon="13.0820133"><ele>766.0</ele><time>2026-04-26T09:18:46.954Z</time></trkpt><trkpt lat="42.9782239" lon="13.0820125"><ele>766.0</ele><time>2026-04-26T09:18:47.961Z</time></trkpt><trkpt lat="42.9783133" lon="13.0819795"><ele>767.0</ele><time>2026-04-26T09:18:48.961Z</time></trkpt><trkpt lat="42.9784085" lon="13.0819166"><ele>768.0</ele><time>2026-04-26T09:18:49.966Z</time></trkpt><trkpt lat="42.9785126" lon="13.0818399"><ele>769.0</ele><time>2026-04-26T09:18:50.959Z</time></trkpt><trkpt lat="42.9786265" lon="13.0817567"><ele>770.0</ele><time>2026-04-26T09:18:51.963Z</time></trkpt><trkpt lat="42.978747" lon="13.0816696"><ele>768.25</ele><time>2026-04-26T09:18:52.958Z</time></trkpt><trkpt lat="42.9788676" lon="13.0815816"><ele>766.5</ele><time>2026-04-26T09:18:53.956Z</time></trkpt><trkpt lat="42.9789833" lon="13.0814983"><ele>764.75</ele><time>2026-04-26T09:18:54.96Z</time></trkpt><trkpt lat="42.9790923" lon="13.0814187"><ele>763.0</ele><time>2026-04-26T09:18:55.962Z</time></trkpt><trkpt lat="42.9791962" lon="13.0813412"><ele>763.0</ele><time>2026-04-26T09:18:56.959Z</time></trkpt><trkpt lat="42.9792971" lon="13.0812654"><ele>763.0</ele><time>2026-04-26T09:18:57.957Z</time></trkpt><trkpt lat="42.9793962" lon="13.0811839"><ele>763.0</ele><time>2026-04-26T09:18:58.965Z</time></trkpt><trkpt lat="42.9794934" lon="13.0810935"><ele>763.0</ele><time>2026-04-26T09:18:59.962Z</time></trkpt><trkpt lat="42.9795866" lon="13.0809908"><ele>763.0</ele><time>2026-04-26T09:19:00.962Z</time></trkpt><trkpt lat="42.9796734" lon="13.0808835"><ele>763.0</ele><time>2026-04-26T09:19:01.963Z</time></trkpt><trkpt lat="42.9797566" lon="13.0807799"><ele>763.0</ele><time>2026-04-26T09:19:02.962Z</time></trkpt><trkpt lat="42.9798369" lon="13.080682"><ele>763.0</ele><time>2026-04-26T09:19:03.959Z</time></trkpt><trkpt lat="42.9799197" lon="13.0805991"><ele>763.0</ele><time>2026-04-26T09:19:04.959Z</time></trkpt><trkpt lat="42.9800124" lon="13.0805468"><ele>757.5</ele><time>2026-04-26T09:19:05.96Z</time></trkpt><trkpt lat="42.9801222" lon="13.0805383"><ele>752.0</ele><time>2026-04-26T09:19:06.959Z</time></trkpt><trkpt lat="42.9802425" lon="13.0805731"><ele>746.5</ele><time>2026-04-26T09:19:07.963Z</time></trkpt><trkpt lat="42.9803709" lon="13.0806217"><ele>741.0</ele><time>2026-04-26T09:19:08.96Z</time></trkpt><trkpt lat="42.980505" lon="13.0806526"><ele>741.0</ele><time>2026-04-26T09:19:09.962Z</time></trkpt><trkpt lat="42.9806376" lon="13.0806503"><ele>741.0</ele><time>2026-04-26T09:19:10.958Z</time></trkpt><trkpt lat="42.9807611" lon="13.0806046"><ele>741.0</ele><time>2026-04-26T09:19:11.962Z</time></trkpt><trkpt lat="42.9808717" lon="13.0805237"><ele>741.0</ele><time>2026-04-26T09:19:12.956Z</time></trkpt><trkpt lat="42.9809841" lon="13.0804372"><ele>745.0</ele><time>2026-04-26T09:19:13.958Z</time></trkpt><trkpt lat="42.9811052" lon="13.0803761"><ele>749.0</ele><time>2026-04-26T09:19:14.972Z</time></trkpt><trkpt lat="42.9812312" lon="13.0803002"><ele>753.0</ele><time>2026-04-26T09:19:15.963Z</time></trkpt><trkpt lat="42.9813553" lon="13.080192"><ele>757.0</ele><time>2026-04-26T09:19:16.955Z</time></trkpt><trkpt lat="42.981477" lon="13.0800723"><ele>757.0</ele><time>2026-04-26T09:19:17.961Z</time></trkpt><trkpt lat="42.9815901" lon="13.0799468"><ele>757.0</ele><time>2026-04-26T09:19:18.958Z</time></trkpt><trkpt lat="42.9816838" lon="13.0798234"><ele>757.0</ele><time>2026-04-26T09:19:19.959Z</time></trkpt><trkpt lat="42.9817675" lon="13.0797167"><ele>757.0</ele><time>2026-04-26T09:19:20.963Z</time></trkpt><trkpt lat="42.9818519" lon="13.0796387"><ele>754.6</ele><time>2026-04-26T09:19:21.958Z</time></trkpt><trkpt lat="42.9819397" lon="13.0795901"><ele>752.2</ele><time>2026-04-26T09:19:22.956Z</time></trkpt><trkpt lat="42.9820321" lon="13.079565"><ele>749.8</ele><time>2026-04-26T09:19:23.961Z</time></trkpt><trkpt lat="42.9821382" lon="13.0795549"><ele>747.4</ele><time>2026-04-26T09:19:24.961Z</time></trkpt><trkpt lat="42.9822496" lon="13.0795518"><ele>745.0</ele><time>2026-04-26T09:19:25.963Z</time></trkpt><trkpt lat="42.9823599" lon="13.0795557"><ele>745.0</ele><time>2026-04-26T09:19:26.961Z</time></trkpt><trkpt lat="42.9824712" lon="13.0795433"><ele>745.0</ele><time>2026-04-26T09:19:27.964Z</time></trkpt><trkpt lat="42.9825729" lon="13.0795371"><ele>745.0</ele><time>2026-04-26T09:19:28.966Z</time></trkpt><trkpt lat="42.9826819" lon="13.0795279"><ele>745.0</ele><time>2026-04-26T09:19:29.958Z</time></trkpt><trkpt lat="42.9827906" lon="13.0795186"><ele>745.0</ele><time>2026-04-26T09:19:30.96Z</time></trkpt><trkpt lat="42.9828954" lon="13.0795064"><ele>742.2</ele><time>2026-04-26T09:19:31.963Z</time></trkpt><trkpt lat="42.9830015" lon="13.0795022"><ele>739.4</ele><time>2026-04-26T09:19:32.964Z</time></trkpt><trkpt lat="42.9831057" lon="13.0795079"><ele>736.5999999999999</ele><time>2026-04-26T09:19:33.966Z</time></trkpt><trkpt lat="42.9832045" lon="13.0795318"><ele>733.8</ele><time>2026-04-26T09:19:34.966Z</time></trkpt><trkpt lat="42.9833083" lon="13.0795848"><ele>731.0</ele><time>2026-04-26T09:19:35.959Z</time></trkpt><trkpt lat="42.9834056" lon="13.0796591"><ele>729.8</ele><time>2026-04-26T09:19:36.966Z</time></trkpt><trkpt lat="42.9834966" lon="13.0797372"><ele>728.5999999999999</ele><time>2026-04-26T09:19:37.96Z</time></trkpt><trkpt lat="42.9835883" lon="13.0798068"><ele>727.4</ele><time>2026-04-26T09:19:38.959Z</time></trkpt><trkpt lat="42.9836898" lon="13.0798607"><ele>726.2</ele><time>2026-04-26T09:19:39.962Z</time></trkpt><trkpt lat="42.9837975" lon="13.079899"><ele>725.0</ele><time>2026-04-26T09:19:40.956Z</time></trkpt><trkpt lat="42.9838953" lon="13.0799412"><ele>725.0</ele><time>2026-04-26T09:19:41.962Z</time></trkpt><trkpt lat="42.9839738" lon="13.0799945"><ele>725.0</ele><time>2026-04-26T09:19:42.967Z</time></trkpt><trkpt lat="42.9840275" lon="13.0800624"><ele>725.0</ele><time>2026-04-26T09:19:43.96Z</time></trkpt><trkpt lat="42.9840563" lon="13.0801471"><ele>725.0</ele><time>2026-04-26T09:19:44.959Z</time></trkpt><trkpt lat="42.9840615" lon="13.0802519"><ele>725.0</ele><time>2026-04-26T09:19:45.959Z</time></trkpt><trkpt lat="42.9840392" lon="13.0803781"><ele>725.0</ele><time>2026-04-26T09:19:46.959Z</time></trkpt><trkpt lat="42.984" lon="13.0805167"><ele>725.0</ele><time>2026-04-26T09:19:47.957Z</time></trkpt><trkpt lat="42.983964" lon="13.0806521"><ele>725.0</ele><time>2026-04-26T09:19:48.964Z</time></trkpt><trkpt lat="42.9839419" lon="13.0807696"><ele>725.0</ele><time>2026-04-26T09:19:49.96Z</time></trkpt><trkpt lat="42.9839448" lon="13.0808819"><ele>725.0</ele><time>2026-04-26T09:19:50.963Z</time></trkpt><trkpt lat="42.9839728" lon="13.0809991"><ele>725.0</ele><time>2026-04-26T09:19:51.959Z</time></trkpt><trkpt lat="42.9840132" lon="13.0811181"><ele>726.0</ele><time>2026-04-26T09:19:52.957Z</time></trkpt><trkpt lat="42.9840734" lon="13.0812343"><ele>727.0</ele><time>2026-04-26T09:19:53.959Z</time></trkpt><trkpt lat="42.9841285" lon="13.0813377"><ele>728.0</ele><time>2026-04-26T09:19:54.961Z</time></trkpt><trkpt lat="42.9842059" lon="13.0814071"><ele>729.0</ele><time>2026-04-26T09:19:55.956Z</time></trkpt><trkpt lat="42.9842934" lon="13.0814462"><ele>730.0</ele><time>2026-04-26T09:19:56.985Z</time></trkpt><trkpt lat="42.9844003" lon="13.0814584"><ele>730.0</ele><time>2026-04-26T09:19:57.96Z</time></trkpt><trkpt lat="42.9845138" lon="13.0814585"><ele>730.0</ele><time>2026-04-26T09:19:58.962Z</time></trkpt><trkpt lat="42.9846192" lon="13.0814529"><ele>730.0</ele><time>2026-04-26T09:19:59.967Z</time></trkpt><trkpt lat="42.9847164" lon="13.0814376"><ele>730.0</ele><time>2026-04-26T09:20:00.96Z</time></trkpt><trkpt lat="42.9847987" lon="13.0814073"><ele>730.0</ele><time>2026-04-26T09:20:01.958Z</time></trkpt><trkpt lat="42.9848718" lon="13.0813597"><ele>730.0</ele><time>2026-04-26T09:20:02.956Z</time></trkpt><trkpt lat="42.9849399" lon="13.0812907"><ele>730.0</ele><time>2026-04-26T09:20:03.959Z</time></trkpt><trkpt lat="42.9850066" lon="13.0811992"><ele>730.0</ele><time>2026-04-26T09:20:04.959Z</time></trkpt><trkpt lat="42.9850613" lon="13.0810794"><ele>730.0</ele><time>2026-04-26T09:20:05.961Z</time></trkpt><trkpt lat="42.9851183" lon="13.0809698"><ele>730.0</ele><time>2026-04-26T09:20:06.97Z</time></trkpt><trkpt lat="42.9851642" lon="13.0808832"><ele>730.0</ele><time>2026-04-26T09:20:07.962Z</time></trkpt><trkpt lat="42.9852163" lon="13.0807907"><ele>730.0</ele><time>2026-04-26T09:20:08.96Z</time></trkpt><trkpt lat="42.9852742" lon="13.0806914"><ele>730.0</ele><time>2026-04-26T09:20:09.958Z</time></trkpt><trkpt lat="42.9853393" lon="13.0805984"><ele>730.0</ele><time>2026-04-26T09:20:10.961Z</time></trkpt><trkpt lat="42.9854172" lon="13.0805057"><ele>730.0</ele><time>2026-04-26T09:20:11.958Z</time></trkpt><trkpt lat="42.9855023" lon="13.0804173"><ele>730.0</ele><time>2026-04-26T09:20:12.959Z</time></trkpt><trkpt lat="42.9855922" lon="13.0803393"><ele>730.0</ele><time>2026-04-26T09:20:13.963Z</time></trkpt><trkpt lat="42.9856729" lon="13.080275"><ele>730.0</ele><time>2026-04-26T09:20:14.955Z</time></trkpt><trkpt lat="42.9857598" lon="13.080215"><ele>730.0</ele><time>2026-04-26T09:20:15.959Z</time></trkpt><trkpt lat="42.9858533" lon="13.0801499"><ele>730.0</ele><time>2026-04-26T09:20:16.96Z</time></trkpt><trkpt lat="42.985955" lon="13.0800946"><ele>731.25</ele><time>2026-04-26T09:20:17.964Z</time></trkpt><trkpt lat="42.9860651" lon="13.0800607"><ele>732.5</ele><time>2026-04-26T09:20:18.959Z</time></trkpt><trkpt lat="42.9861802" lon="13.0800484"><ele>733.75</ele><time>2026-04-26T09:20:19.961Z</time></trkpt><trkpt lat="42.9862961" lon="13.0800539"><ele>735.0</ele><time>2026-04-26T09:20:20.957Z</time></trkpt><trkpt lat="42.9864144" lon="13.0800688"><ele>735.0</ele><time>2026-04-26T09:20:21.961Z</time></trkpt><trkpt lat="42.9865316" lon="13.080088"><ele>735.0</ele><time>2026-04-26T09:20:22.963Z</time></trkpt><trkpt lat="42.986649" lon="13.0801088"><ele>735.0</ele><time>2026-04-26T09:20:23.96Z</time></trkpt><trkpt lat="42.9867592" lon="13.0801362"><ele>735.0</ele><time>2026-04-26T09:20:24.954Z</time></trkpt><trkpt lat="42.9868607" lon="13.0801784"><ele>735.0</ele><time>2026-04-26T09:20:25.959Z</time></trkpt><trkpt lat="42.9869557" lon="13.0802225"><ele>735.0</ele><time>2026-04-26T09:20:26.955Z</time></trkpt><trkpt lat="42.987056" lon="13.0802664"><ele>735.0</ele><time>2026-04-26T09:20:27.958Z</time></trkpt><trkpt lat="42.9871464" lon="13.0803083"><ele>735.0</ele><time>2026-04-26T09:20:28.958Z</time></trkpt><trkpt lat="42.9872313" lon="13.0803556"><ele>735.0</ele><time>2026-04-26T09:20:29.958Z</time></trkpt><trkpt lat="42.9873081" lon="13.0804139"><ele>735.0</ele><time>2026-04-26T09:20:30.953Z</time></trkpt><trkpt lat="42.9873871" lon="13.0804664"><ele>735.0</ele><time>2026-04-26T09:20:31.952Z</time></trkpt><trkpt lat="42.9874691" lon="13.0805035"><ele>735.0</ele><time>2026-04-26T09:20:32.958Z</time></trkpt><trkpt lat="42.9875466" lon="13.0805306"><ele>735.0</ele><time>2026-04-26T09:20:33.956Z</time></trkpt><trkpt lat="42.9876176" lon="13.0805372"><ele>735.0</ele><time>2026-04-26T09:20:34.96Z</time></trkpt><trkpt lat="42.9876962" lon="13.0805096"><ele>735.0</ele><time>2026-04-26T09:20:35.963Z</time></trkpt><trkpt lat="42.9877683" lon="13.0804423"><ele>733.8</ele><time>2026-04-26T09:20:36.956Z</time></trkpt><trkpt lat="42.9878241" lon="13.0803381"><ele>732.6</ele><time>2026-04-26T09:20:37.955Z</time></trkpt><trkpt lat="42.9878823" lon="13.0802144"><ele>731.4000000000001</ele><time>2026-04-26T09:20:38.954Z</time></trkpt><trkpt lat="42.9879086" lon="13.0800827"><ele>730.2</ele><time>2026-04-26T09:20:39.958Z</time></trkpt><trkpt lat="42.9879309" lon="13.0799424"><ele>729.0</ele><time>2026-04-26T09:20:40.955Z</time></trkpt><trkpt lat="42.9879711" lon="13.0798387"><ele>729.0</ele><time>2026-04-26T09:20:41.962Z</time></trkpt><trkpt lat="42.9880278" lon="13.0797552"><ele>729.0</ele><time>2026-04-26T09:20:42.959Z</time></trkpt><trkpt lat="42.988092" lon="13.0796947"><ele>729.0</ele><time>2026-04-26T09:20:43.957Z</time></trkpt><trkpt lat="42.9881776" lon="13.0796435"><ele>729.0</ele><time>2026-04-26T09:20:44.958Z</time></trkpt><trkpt lat="42.9882834" lon="13.079611"><ele>729.0</ele><time>2026-04-26T09:20:45.962Z</time></trkpt><trkpt lat="42.9883975" lon="13.0795983"><ele>729.0</ele><time>2026-04-26T09:20:46.955Z</time></trkpt><trkpt lat="42.9885053" lon="13.0796017"><ele>729.0</ele><time>2026-04-26T09:20:47.959Z</time></trkpt><trkpt lat="42.9886136" lon="13.0796204"><ele>729.0</ele><time>2026-04-26T09:20:48.962Z</time></trkpt><trkpt lat="42.9887354" lon="13.0796505"><ele>729.0</ele><time>2026-04-26T09:20:49.963Z</time></trkpt><trkpt lat="42.9888508" lon="13.0796888"><ele>729.0</ele><time>2026-04-26T09:20:50.962Z</time></trkpt><trkpt lat="42.9889615" lon="13.0797473"><ele>729.0</ele><time>2026-04-26T09:20:51.957Z</time></trkpt><trkpt lat="42.9890741" lon="13.0798249"><ele>729.0</ele><time>2026-04-26T09:20:52.96Z</time></trkpt><trkpt lat="42.9891883" lon="13.0799121"><ele>729.0</ele><time>2026-04-26T09:20:53.962Z</time></trkpt><trkpt lat="42.9893038" lon="13.0800016"><ele>731.75</ele><time>2026-04-26T09:20:54.952Z</time></trkpt><trkpt lat="42.9894178" lon="13.0800946"><ele>734.5</ele><time>2026-04-26T09:20:55.961Z</time></trkpt><trkpt lat="42.9895266" lon="13.0801945"><ele>737.25</ele><time>2026-04-26T09:20:56.961Z</time></trkpt><trkpt lat="42.9896306" lon="13.0802992"><ele>740.0</ele><time>2026-04-26T09:20:57.97Z</time></trkpt><trkpt lat="42.9897298" lon="13.0804097"><ele>740.0</ele><time>2026-04-26T09:20:58.957Z</time></trkpt><trkpt lat="42.9898202" lon="13.0805093"><ele>740.0</ele><time>2026-04-26T09:20:59.959Z</time></trkpt><trkpt lat="42.9898996" lon="13.0806043"><ele>740.0</ele><time>2026-04-26T09:21:00.959Z</time></trkpt><trkpt lat="42.9899769" lon="13.0806766"><ele>740.0</ele><time>2026-04-26T09:21:01.963Z</time></trkpt><trkpt lat="42.9900626" lon="13.0807284"><ele>740.0</ele><time>2026-04-26T09:21:02.96Z</time></trkpt><trkpt lat="42.9901438" lon="13.0807844"><ele>742.1666666666666</ele><time>2026-04-26T09:21:03.96Z</time></trkpt><trkpt lat="42.9902146" lon="13.0808552"><ele>744.3333333333333</ele><time>2026-04-26T09:21:04.956Z</time></trkpt><trkpt lat="42.9902672" lon="13.0809532"><ele>746.5</ele><time>2026-04-26T09:21:05.961Z</time></trkpt><trkpt lat="42.9903121" lon="13.0810757"><ele>748.6666666666666</ele><time>2026-04-26T09:21:06.96Z</time></trkpt><trkpt lat="42.9903574" lon="13.0811718"><ele>750.8333333333334</ele><time>2026-04-26T09:21:07.968Z</time></trkpt><trkpt lat="42.9904133" lon="13.0812377"><ele>753.0</ele><time>2026-04-26T09:21:08.982Z</time></trkpt><trkpt lat="42.9904856" lon="13.0812715"><ele>753.0</ele><time>2026-04-26T09:21:09.961Z</time></trkpt><trkpt lat="42.990577" lon="13.0812769"><ele>753.0</ele><time>2026-04-26T09:21:10.961Z</time></trkpt><trkpt lat="42.9906671" lon="13.0812809"><ele>753.0</ele><time>2026-04-26T09:21:11.958Z</time></trkpt><trkpt lat="42.9907612" lon="13.0812888"><ele>753.0</ele><time>2026-04-26T09:21:12.962Z</time></trkpt><trkpt lat="42.9908772" lon="13.0812884"><ele>753.0</ele><time>2026-04-26T09:21:13.955Z</time></trkpt><trkpt lat="42.9909928" lon="13.0813152"><ele>758.0</ele><time>2026-04-26T09:21:14.978Z</time></trkpt><trkpt lat="42.9910922" lon="13.0813334"><ele>763.0</ele><time>2026-04-26T09:21:15.956Z</time></trkpt><trkpt lat="42.9911853" lon="13.0813395"><ele>768.0</ele><time>2026-04-26T09:21:16.955Z</time></trkpt><trkpt lat="42.9912619" lon="13.0813116"><ele>773.0</ele><time>2026-04-26T09:21:17.956Z</time></trkpt><trkpt lat="42.9913559" lon="13.0811856"><ele>778.0</ele><time>2026-04-26T09:21:19.962Z</time></trkpt><trkpt lat="42.9913955" lon="13.0810788"><ele>778.0</ele><time>2026-04-26T09:21:20.962Z</time></trkpt><trkpt lat="42.9914298" lon="13.0809434"><ele>778.0</ele><time>2026-04-26T09:21:21.967Z</time></trkpt><trkpt lat="42.9914681" lon="13.0807923"><ele>778.0</ele><time>2026-04-26T09:21:22.967Z</time></trkpt><trkpt lat="42.9915006" lon="13.0806505"><ele>778.0</ele><time>2026-04-26T09:21:23.96Z</time></trkpt><trkpt lat="42.9915266" lon="13.0805245"><ele>778.0</ele><time>2026-04-26T09:21:24.964Z</time></trkpt><trkpt lat="42.9915472" lon="13.0804069"><ele>776.3333333333333</ele><time>2026-04-26T09:21:25.959Z</time></trkpt><trkpt lat="42.9915708" lon="13.0803024"><ele>774.6666666666666</ele><time>2026-04-26T09:21:26.962Z</time></trkpt><trkpt lat="42.9915993" lon="13.0802146"><ele>773.0</ele><time>2026-04-26T09:21:27.962Z</time></trkpt><trkpt lat="42.9916436" lon="13.08015"><ele>771.3333333333333</ele><time>2026-04-26T09:21:28.958Z</time></trkpt><trkpt lat="42.9917098" lon="13.0800987"><ele>769.6666666666666</ele><time>2026-04-26T09:21:29.958Z</time></trkpt><trkpt lat="42.9917934" lon="13.080065"><ele>768.0</ele><time>2026-04-26T09:21:30.958Z</time></trkpt><trkpt lat="42.9918782" lon="13.0800342"><ele>768.0</ele><time>2026-04-26T09:21:31.965Z</time></trkpt><trkpt lat="42.9919674" lon="13.0800358"><ele>768.0</ele><time>2026-04-26T09:21:32.962Z</time></trkpt><trkpt lat="42.9920528" lon="13.080078"><ele>768.0</ele><time>2026-04-26T09:21:33.961Z</time></trkpt><trkpt lat="42.9921489" lon="13.0801516"><ele>768.0</ele><time>2026-04-26T09:21:34.957Z</time></trkpt><trkpt lat="42.9922331" lon="13.0802276"><ele>768.0</ele><time>2026-04-26T09:21:35.96Z</time></trkpt><trkpt lat="42.9923147" lon="13.0802972"><ele>768.0</ele><time>2026-04-26T09:21:36.959Z</time></trkpt><trkpt lat="42.9924023" lon="13.0803559"><ele>768.0</ele><time>2026-04-26T09:21:37.957Z</time></trkpt><trkpt lat="42.9924842" lon="13.0804269"><ele>768.0</ele><time>2026-04-26T09:21:38.961Z</time></trkpt><trkpt lat="42.992566" lon="13.0805158"><ele>768.0</ele><time>2026-04-26T09:21:39.961Z</time></trkpt><trkpt lat="42.9926562" lon="13.0806161"><ele>768.0</ele><time>2026-04-26T09:21:40.97Z</time></trkpt><trkpt lat="42.9927499" lon="13.0807282"><ele>770.0</ele><time>2026-04-26T09:21:41.96Z</time></trkpt><trkpt lat="42.9928255" lon="13.0808319"><ele>772.0</ele><time>2026-04-26T09:21:42.956Z</time></trkpt><trkpt lat="42.9929014" lon="13.0809343"><ele>774.0</ele><time>2026-04-26T09:21:43.964Z</time></trkpt><trkpt lat="42.9929833" lon="13.0810293"><ele>776.0</ele><time>2026-04-26T09:21:44.962Z</time></trkpt><trkpt lat="42.9930726" lon="13.0811098"><ele>778.0</ele><time>2026-04-26T09:21:45.96Z</time></trkpt><trkpt lat="42.9931683" lon="13.0811745"><ele>778.0</ele><time>2026-04-26T09:21:46.956Z</time></trkpt><trkpt lat="42.9932696" lon="13.0812203"><ele>778.0</ele><time>2026-04-26T09:21:47.96Z</time></trkpt><trkpt lat="42.9933718" lon="13.0812396"><ele>778.0</ele><time>2026-04-26T09:21:48.96Z</time></trkpt><trkpt lat="42.9934689" lon="13.0812328"><ele>778.0</ele><time>2026-04-26T09:21:49.965Z</time></trkpt><trkpt lat="42.9935627" lon="13.0812018"><ele>778.0</ele><time>2026-04-26T09:21:50.959Z</time></trkpt><trkpt lat="42.9936448" lon="13.0811744"><ele>777.3333333333333</ele><time>2026-04-26T09:21:51.963Z</time></trkpt><trkpt lat="42.9937123" lon="13.0811534"><ele>776.6666666666666</ele><time>2026-04-26T09:21:52.976Z</time></trkpt><trkpt lat="42.9937915" lon="13.0811874"><ele>776.0</ele><time>2026-04-26T09:21:54.968Z</time></trkpt><trkpt lat="42.9938346" lon="13.0812618"><ele>775.3333333333333</ele><time>2026-04-26T09:21:56.976Z</time></trkpt><trkpt lat="42.9938539" lon="13.0813656"><ele>774.6666666666666</ele><time>2026-04-26T09:21:58.963Z</time></trkpt><trkpt lat="42.9938527" lon="13.0814835"><ele>774.0</ele><time>2026-04-26T09:22:01.96Z</time></trkpt><trkpt lat="42.9938211" lon="13.0815927"><ele>775.6666666666666</ele><time>2026-04-26T09:22:03.963Z</time></trkpt><trkpt lat="42.9937719" lon="13.0817226"><ele>777.3333333333333</ele><time>2026-04-26T09:22:05.961Z</time></trkpt><trkpt lat="42.9937509" lon="13.0818548"><ele>779.0</ele><time>2026-04-26T09:22:07.966Z</time></trkpt><trkpt lat="42.9937353" lon="13.0819517"><ele>780.6666666666666</ele><time>2026-04-26T09:22:09.961Z</time></trkpt><trkpt lat="42.9937264" lon="13.0820494"><ele>782.3333333333333</ele><time>2026-04-26T09:22:12.957Z</time></trkpt><trkpt lat="42.9937326" lon="13.0821412"><ele>784.0</ele><time>2026-04-26T09:22:21.962Z</time></trkpt><trkpt lat="42.9937501" lon="13.0822623"><ele>784.0</ele><time>2026-04-26T09:22:41.959Z</time></trkpt><trkpt lat="42.9938153" lon="13.0823636"><ele>784.0</ele><time>2026-04-26T09:22:43.96Z</time></trkpt><trkpt lat="42.9939254" lon="13.0824072"><ele>784.0</ele><time>2026-04-26T09:22:45.955Z</time></trkpt><trkpt lat="42.9939974" lon="13.0823953"><ele>784.0</ele><time>2026-04-26T09:22:46.96Z</time></trkpt><trkpt lat="42.9940888" lon="13.082358"><ele>784.0</ele><time>2026-04-26T09:22:47.963Z</time></trkpt><trkpt lat="42.9941939" lon="13.0823067"><ele>784.0</ele><time>2026-04-26T09:22:48.958Z</time></trkpt><trkpt lat="42.9942915" lon="13.0822703"><ele>784.0</ele><time>2026-04-26T09:22:49.971Z</time></trkpt><trkpt lat="42.9943945" lon="13.082254"><ele>784.0</ele><time>2026-04-26T09:22:50.958Z</time></trkpt><trkpt lat="42.994511" lon="13.0822473"><ele>784.0</ele><time>2026-04-26T09:22:51.96Z</time></trkpt><trkpt lat="42.9946478" lon="13.0822499"><ele>784.0</ele><time>2026-04-26T09:22:52.962Z</time></trkpt><trkpt lat="42.9947943" lon="13.0822489"><ele>784.0</ele><time>2026-04-26T09:22:53.961Z</time></trkpt><trkpt lat="42.9949355" lon="13.0822484"><ele>784.0</ele><time>2026-04-26T09:22:54.959Z</time></trkpt><trkpt lat="42.9950598" lon="13.0822558"><ele>784.0</ele><time>2026-04-26T09:22:55.963Z</time></trkpt><trkpt lat="42.9951833" lon="13.0822732"><ele>786.0</ele><time>2026-04-26T09:22:56.957Z</time></trkpt><trkpt lat="42.9953234" lon="13.0823037"><ele>788.0</ele><time>2026-04-26T09:22:57.959Z</time></trkpt><trkpt lat="42.9954647" lon="13.0823391"><ele>790.0</ele><time>2026-04-26T09:22:58.958Z</time></trkpt><trkpt lat="42.9956149" lon="13.0823673"><ele>792.0</ele><time>2026-04-26T09:22:59.961Z</time></trkpt><trkpt lat="42.9957692" lon="13.0823864"><ele>791.5</ele><time>2026-04-26T09:23:00.959Z</time></trkpt><trkpt lat="42.9959021" lon="13.0823928"><ele>791.0</ele><time>2026-04-26T09:23:01.96Z</time></trkpt><trkpt lat="42.996021" lon="13.0823923"><ele>790.5</ele><time>2026-04-26T09:23:02.957Z</time></trkpt><trkpt lat="42.9961303" lon="13.082397"><ele>790.0</ele><time>2026-04-26T09:23:03.961Z</time></trkpt><trkpt lat="42.9962435" lon="13.0824121"><ele>791.0</ele><time>2026-04-26T09:23:04.959Z</time></trkpt><trkpt lat="42.996365" lon="13.0824436"><ele>792.0</ele><time>2026-04-26T09:23:05.961Z</time></trkpt><trkpt lat="42.9964932" lon="13.0824935"><ele>793.0</ele><time>2026-04-26T09:23:06.969Z</time></trkpt><trkpt lat="42.9966254" lon="13.0825554"><ele>794.0</ele><time>2026-04-26T09:23:07.965Z</time></trkpt><trkpt lat="42.9967555" lon="13.0826296"><ele>794.0</ele><time>2026-04-26T09:23:08.955Z</time></trkpt><trkpt lat="42.99688" lon="13.0827143"><ele>794.0</ele><time>2026-04-26T09:23:09.958Z</time></trkpt><trkpt lat="42.9969966" lon="13.0828126"><ele>794.0</ele><time>2026-04-26T09:23:10.96Z</time></trkpt><trkpt lat="42.9971138" lon="13.0828878"><ele>794.0</ele><time>2026-04-26T09:23:11.961Z</time></trkpt><trkpt lat="42.9972021" lon="13.0829887"><ele>794.0000000000001</ele><time>2026-04-26T09:23:12.959Z</time></trkpt><trkpt lat="42.997272" lon="13.0830832"><ele>794.0</ele><time>2026-04-26T09:23:13.961Z</time></trkpt><trkpt lat="42.9973275" lon="13.0831814"><ele>794.0</ele><time>2026-04-26T09:23:14.962Z</time></trkpt><trkpt lat="42.9973635" lon="13.0832849"><ele>794.0</ele><time>2026-04-26T09:23:15.976Z</time></trkpt><trkpt lat="42.9973862" lon="13.083405"><ele>794.0000000000001</ele><time>2026-04-26T09:23:16.966Z</time></trkpt><trkpt lat="42.9974092" lon="13.0835135"><ele>794.0</ele><time>2026-04-26T09:23:17.956Z</time></trkpt><trkpt lat="42.9974302" lon="13.0836108"><ele>795.8000000000001</ele><time>2026-04-26T09:23:18.968Z</time></trkpt><trkpt lat="42.9975147" lon="13.0836943"><ele>797.6</ele><time>2026-04-26T09:23:20.965Z</time></trkpt><trkpt lat="42.9976099" lon="13.0836747"><ele>799.4</ele><time>2026-04-26T09:23:22.969Z</time></trkpt><trkpt lat="42.9977286" lon="13.0836441"><ele>801.2</ele><time>2026-04-26T09:23:24.963Z</time></trkpt><trkpt lat="42.9977939" lon="13.0836504"><ele>803.0</ele><time>2026-04-26T09:23:25.963Z</time></trkpt><trkpt lat="42.9978645" lon="13.0836751"><ele>803.0</ele><time>2026-04-26T09:23:26.96Z</time></trkpt><trkpt lat="42.9979401" lon="13.0837211"><ele>803.0</ele><time>2026-04-26T09:23:27.958Z</time></trkpt><trkpt lat="42.9980259" lon="13.0837902"><ele>803.0</ele><time>2026-04-26T09:23:28.959Z</time></trkpt><trkpt lat="42.9981205" lon="13.0838806"><ele>803.0</ele><time>2026-04-26T09:23:29.959Z</time></trkpt><trkpt lat="42.9982142" lon="13.0839812"><ele>803.0</ele><time>2026-04-26T09:23:30.958Z</time></trkpt><trkpt lat="42.9983216" lon="13.0840742"><ele>805.75</ele><time>2026-04-26T09:23:31.962Z</time></trkpt><trkpt lat="42.9984457" lon="13.0841739"><ele>808.5</ele><time>2026-04-26T09:23:32.963Z</time></trkpt><trkpt lat="42.9985702" lon="13.0842783"><ele>811.25</ele><time>2026-04-26T09:23:33.958Z</time></trkpt><trkpt lat="42.9986881" lon="13.0843846"><ele>814.0</ele><time>2026-04-26T09:23:34.962Z</time></trkpt><trkpt lat="42.9987914" lon="13.0844879"><ele>814.0</ele><time>2026-04-26T09:23:35.962Z</time></trkpt><trkpt lat="42.9988795" lon="13.0845938"><ele>814.0</ele><time>2026-04-26T09:23:36.958Z</time></trkpt><trkpt lat="42.9989589" lon="13.0847153"><ele>814.0</ele><time>2026-04-26T09:23:37.959Z</time></trkpt><trkpt lat="42.999022" lon="13.0848365"><ele>814.0</ele><time>2026-04-26T09:23:38.96Z</time></trkpt><trkpt lat="42.9990792" lon="13.0849376"><ele>814.0</ele><time>2026-04-26T09:23:39.956Z</time></trkpt><trkpt lat="42.9991309" lon="13.0850241"><ele>815.8000000000001</ele><time>2026-04-26T09:23:40.964Z</time></trkpt><trkpt lat="42.9991887" lon="13.0850735"><ele>817.6</ele><time>2026-04-26T09:23:41.959Z</time></trkpt><trkpt lat="42.9992885" lon="13.0850757"><ele>819.4</ele><time>2026-04-26T09:23:42.962Z</time></trkpt><trkpt lat="42.9994069" lon="13.085096"><ele>821.2</ele><time>2026-04-26T09:23:43.965Z</time></trkpt><trkpt lat="42.9995411" lon="13.0851321"><ele>823.0</ele><time>2026-04-26T09:23:44.964Z</time></trkpt><trkpt lat="42.9996844" lon="13.0851747"><ele>823.0</ele><time>2026-04-26T09:23:45.955Z</time></trkpt><trkpt lat="42.9998193" lon="13.0852203"><ele>823.0</ele><time>2026-04-26T09:23:46.967Z</time></trkpt><trkpt lat="42.9999533" lon="13.0852653"><ele>823.0</ele><time>2026-04-26T09:23:47.962Z</time></trkpt><trkpt lat="43.0000825" lon="13.0853386"><ele>823.0</ele><time>2026-04-26T09:23:48.985Z</time></trkpt><trkpt lat="43.0001963" lon="13.085415"><ele>823.0</ele><time>2026-04-26T09:23:49.959Z</time></trkpt><trkpt lat="43.000304" lon="13.0854944"><ele>823.0</ele><time>2026-04-26T09:23:50.961Z</time></trkpt><trkpt lat="43.0004108" lon="13.0855902"><ele>823.0</ele><time>2026-04-26T09:23:51.959Z</time></trkpt><trkpt lat="43.000516" lon="13.0856804"><ele>823.0</ele><time>2026-04-26T09:23:52.962Z</time></trkpt><trkpt lat="43.0006244" lon="13.0857689"><ele>823.75</ele><time>2026-04-26T09:23:53.964Z</time></trkpt><trkpt lat="43.0007297" lon="13.085875"><ele>824.5</ele><time>2026-04-26T09:23:54.959Z</time></trkpt><trkpt lat="43.0008379" lon="13.0860013"><ele>825.25</ele><time>2026-04-26T09:23:55.955Z</time></trkpt><trkpt lat="43.0009474" lon="13.0861268"><ele>826.0</ele><time>2026-04-26T09:23:56.955Z</time></trkpt><trkpt lat="43.0010474" lon="13.0862347"><ele>826.0</ele><time>2026-04-26T09:23:57.955Z</time></trkpt><trkpt lat="43.0011346" lon="13.0863282"><ele>826.0</ele><time>2026-04-26T09:23:58.961Z</time></trkpt><trkpt lat="43.0012016" lon="13.0863953"><ele>826.0</ele><time>2026-04-26T09:23:59.959Z</time></trkpt><trkpt lat="43.0012756" lon="13.0864435"><ele>826.0</ele><time>2026-04-26T09:24:00.96Z</time></trkpt><trkpt lat="43.0013678" lon="13.0864708"><ele>826.0</ele><time>2026-04-26T09:24:01.967Z</time></trkpt><trkpt lat="43.0014825" lon="13.0864844"><ele>826.0</ele><time>2026-04-26T09:24:02.958Z</time></trkpt><trkpt lat="43.0015991" lon="13.0864928"><ele>826.0</ele><time>2026-04-26T09:24:03.974Z</time></trkpt><trkpt lat="43.0017105" lon="13.086516"><ele>826.0</ele><time>2026-04-26T09:24:04.96Z</time></trkpt><trkpt lat="43.0018275" lon="13.0865585"><ele>826.0</ele><time>2026-04-26T09:24:05.96Z</time></trkpt><trkpt lat="43.0019484" lon="13.0865977"><ele>827.5</ele><time>2026-04-26T09:24:06.964Z</time></trkpt><trkpt lat="43.0020654" lon="13.0866373"><ele>829.0</ele><time>2026-04-26T09:24:07.963Z</time></trkpt><trkpt lat="43.0021788" lon="13.0866931"><ele>830.5</ele><time>2026-04-26T09:24:08.96Z</time></trkpt><trkpt lat="43.002285" lon="13.0867616"><ele>832.0</ele><time>2026-04-26T09:24:09.958Z</time></trkpt><trkpt lat="43.0023846" lon="13.0868395"><ele>832.0</ele><time>2026-04-26T09:24:10.959Z</time></trkpt><trkpt lat="43.0024968" lon="13.0869288"><ele>832.0</ele><time>2026-04-26T09:24:11.956Z</time></trkpt><trkpt lat="43.0026102" lon="13.0870214"><ele>832.0</ele><time>2026-04-26T09:24:12.967Z</time></trkpt><trkpt lat="43.0027243" lon="13.0871141"><ele>832.0</ele><time>2026-04-26T09:24:13.957Z</time></trkpt><trkpt lat="43.002836" lon="13.0872085"><ele>829.5</ele><time>2026-04-26T09:24:14.962Z</time></trkpt><trkpt lat="43.002946" lon="13.0872993"><ele>827.0</ele><time>2026-04-26T09:24:15.954Z</time></trkpt><trkpt lat="43.0030568" lon="13.0873785"><ele>824.5</ele><time>2026-04-26T09:24:16.965Z</time></trkpt><trkpt lat="43.0031614" lon="13.0874493"><ele>822.0</ele><time>2026-04-26T09:24:17.957Z</time></trkpt><trkpt lat="43.0032681" lon="13.0875238"><ele>822.5</ele><time>2026-04-26T09:24:18.956Z</time></trkpt><trkpt lat="43.00338" lon="13.0876046"><ele>823.0</ele><time>2026-04-26T09:24:19.961Z</time></trkpt><trkpt lat="43.0035005" lon="13.08769"><ele>823.5</ele><time>2026-04-26T09:24:20.956Z</time></trkpt><trkpt lat="43.0036218" lon="13.0877807"><ele>824.0</ele><time>2026-04-26T09:24:21.961Z</time></trkpt><trkpt lat="43.0037481" lon="13.0878671"><ele>824.0</ele><time>2026-04-26T09:24:22.961Z</time></trkpt><trkpt lat="43.0038798" lon="13.0879467"><ele>824.0</ele><time>2026-04-26T09:24:23.957Z</time></trkpt><trkpt lat="43.0040134" lon="13.0880216"><ele>824.0</ele><time>2026-04-26T09:24:24.958Z</time></trkpt><trkpt lat="43.004145" lon="13.0880995"><ele>824.0</ele><time>2026-04-26T09:24:25.958Z</time></trkpt><trkpt lat="43.0042725" lon="13.0881844"><ele>825.5</ele><time>2026-04-26T09:24:26.958Z</time></trkpt><trkpt lat="43.0043955" lon="13.0882751"><ele>827.0</ele><time>2026-04-26T09:24:27.966Z</time></trkpt><trkpt lat="43.0045188" lon="13.0883711"><ele>828.5</ele><time>2026-04-26T09:24:28.962Z</time></trkpt><trkpt lat="43.004643" lon="13.0884709"><ele>830.0</ele><time>2026-04-26T09:24:29.964Z</time></trkpt><trkpt lat="43.0047709" lon="13.0885722"><ele>830.0</ele><time>2026-04-26T09:24:30.988Z</time></trkpt><trkpt lat="43.0049099" lon="13.0886897"><ele>830.0</ele><time>2026-04-26T09:24:31.965Z</time></trkpt><trkpt lat="43.0050496" lon="13.088826"><ele>830.0</ele><time>2026-04-26T09:24:32.96Z</time></trkpt><trkpt lat="43.0051815" lon="13.0889538"><ele>830.0</ele><time>2026-04-26T09:24:33.961Z</time></trkpt><trkpt lat="43.0053119" lon="13.0890698"><ele>830.0</ele><time>2026-04-26T09:24:34.958Z</time></trkpt><trkpt lat="43.0054481" lon="13.0892035"><ele>830.0</ele><time>2026-04-26T09:24:35.958Z</time></trkpt><trkpt lat="43.0055799" lon="13.0893478"><ele>830.0</ele><time>2026-04-26T09:24:36.956Z</time></trkpt><trkpt lat="43.0056996" lon="13.0894782"><ele>830.0</ele><time>2026-04-26T09:24:37.961Z</time></trkpt><trkpt lat="43.0058022" lon="13.0895883"><ele>830.0</ele><time>2026-04-26T09:24:38.965Z</time></trkpt><trkpt lat="43.0058816" lon="13.0896713"><ele>830.0</ele><time>2026-04-26T09:24:39.958Z</time></trkpt><trkpt lat="43.0059532" lon="13.0897251"><ele>828.6</ele><time>2026-04-26T09:24:40.952Z</time></trkpt><trkpt lat="43.0060223" lon="13.0897479"><ele>827.2</ele><time>2026-04-26T09:24:41.961Z</time></trkpt><trkpt lat="43.0061099" lon="13.0897485"><ele>825.8</ele><time>2026-04-26T09:24:42.969Z</time></trkpt><trkpt lat="43.0062101" lon="13.0897233"><ele>824.4</ele><time>2026-04-26T09:24:43.968Z</time></trkpt><trkpt lat="43.0063109" lon="13.0896689"><ele>823.0</ele><time>2026-04-26T09:24:44.963Z</time></trkpt><trkpt lat="43.0064121" lon="13.0896154"><ele>822.9999999999999</ele><time>2026-04-26T09:24:45.965Z</time></trkpt><trkpt lat="43.006511" lon="13.0895946"><ele>823.0</ele><time>2026-04-26T09:24:46.964Z</time></trkpt><trkpt lat="43.0066057" lon="13.0896005"><ele>823.0</ele><time>2026-04-26T09:24:47.958Z</time></trkpt><trkpt lat="43.0066864" lon="13.0896212"><ele>823.0</ele><time>2026-04-26T09:24:48.967Z</time></trkpt><trkpt lat="43.0067592" lon="13.0896397"><ele>822.9999999999999</ele><time>2026-04-26T09:24:49.964Z</time></trkpt><trkpt lat="43.0068429" lon="13.0896955"><ele>823.0</ele><time>2026-04-26T09:24:50.965Z</time></trkpt><trkpt lat="43.0069167" lon="13.0897654"><ele>823.9999999999999</ele><time>2026-04-26T09:24:51.96Z</time></trkpt><trkpt lat="43.006983" lon="13.089842"><ele>825.0</ele><time>2026-04-26T09:24:52.962Z</time></trkpt><trkpt lat="43.0070445" lon="13.0899185"><ele>826.0</ele><time>2026-04-26T09:24:53.989Z</time></trkpt><trkpt lat="43.0071022" lon="13.0899884"><ele>827.0</ele><time>2026-04-26T09:24:54.959Z</time></trkpt><trkpt lat="43.0071511" lon="13.0900485"><ele>827.9999999999999</ele><time>2026-04-26T09:24:55.961Z</time></trkpt><trkpt lat="43.0072405" lon="13.0901633"><ele>829.0</ele><time>2026-04-26T09:24:57.964Z</time></trkpt><trkpt lat="43.0073158" lon="13.0902691"><ele>828.8333333333333</ele><time>2026-04-26T09:24:59.969Z</time></trkpt><trkpt lat="43.0073968" lon="13.0903703"><ele>828.6666666666666</ele><time>2026-04-26T09:25:01.96Z</time></trkpt><trkpt lat="43.0074846" lon="13.0904804"><ele>828.5</ele><time>2026-04-26T09:25:03.962Z</time></trkpt><trkpt lat="43.0075281" lon="13.0905453"><ele>828.3333333333333</ele><time>2026-04-26T09:25:04.96Z</time></trkpt><trkpt lat="43.0075729" lon="13.0906255"><ele>828.1666666666666</ele><time>2026-04-26T09:25:05.963Z</time></trkpt><trkpt lat="43.00761" lon="13.0907192"><ele>828.0</ele><time>2026-04-26T09:25:06.966Z</time></trkpt><trkpt lat="43.0076345" lon="13.0908263"><ele>827.5999999999999</ele><time>2026-04-26T09:25:07.981Z</time></trkpt><trkpt lat="43.0076514" lon="13.0909496"><ele>827.1999999999999</ele><time>2026-04-26T09:25:08.963Z</time></trkpt><trkpt lat="43.0076613" lon="13.0910745"><ele>826.8</ele><time>2026-04-26T09:25:09.96Z</time></trkpt><trkpt lat="43.0076718" lon="13.0912042"><ele>826.4</ele><time>2026-04-26T09:25:10.963Z</time></trkpt><trkpt lat="43.0076902" lon="13.0913329"><ele>826.0</ele><time>2026-04-26T09:25:11.963Z</time></trkpt><trkpt lat="43.0077204" lon="13.0914608"><ele>826.75</ele><time>2026-04-26T09:25:12.959Z</time></trkpt><trkpt lat="43.0077678" lon="13.0915925"><ele>827.5</ele><time>2026-04-26T09:25:13.958Z</time></trkpt><trkpt lat="43.0078317" lon="13.0917248"><ele>828.25</ele><time>2026-04-26T09:25:14.964Z</time></trkpt><trkpt lat="43.007912" lon="13.0918719"><ele>829.0</ele><time>2026-04-26T09:25:15.96Z</time></trkpt><trkpt lat="43.007984" lon="13.0920152"><ele>829.0</ele><time>2026-04-26T09:25:16.961Z</time></trkpt><trkpt lat="43.0080514" lon="13.0921605"><ele>829.0</ele><time>2026-04-26T09:25:17.96Z</time></trkpt><trkpt lat="43.0081101" lon="13.0923033"><ele>829.0</ele><time>2026-04-26T09:25:18.954Z</time></trkpt><trkpt lat="43.008155" lon="13.0924453"><ele>829.0</ele><time>2026-04-26T09:25:19.962Z</time></trkpt><trkpt lat="43.0081948" lon="13.0925868"><ele>831.2</ele><time>2026-04-26T09:25:20.957Z</time></trkpt><trkpt lat="43.008233" lon="13.0927333"><ele>833.4000000000001</ele><time>2026-04-26T09:25:21.96Z</time></trkpt><trkpt lat="43.0082721" lon="13.0928696"><ele>835.6</ele><time>2026-04-26T09:25:22.967Z</time></trkpt><trkpt lat="43.0083149" lon="13.0929841"><ele>837.8</ele><time>2026-04-26T09:25:23.957Z</time></trkpt><trkpt lat="43.0083708" lon="13.0930862"><ele>840.0</ele><time>2026-04-26T09:25:24.962Z</time></trkpt><trkpt lat="43.0084327" lon="13.0931903"><ele>833.6666666666667</ele><time>2026-04-26T09:25:25.961Z</time></trkpt><trkpt lat="43.0085521" lon="13.0932782"><ele>827.3333333333334</ele><time>2026-04-26T09:25:26.963Z</time></trkpt><trkpt lat="43.0087061" lon="13.0933563"><ele>821.0</ele><time>2026-04-26T09:25:27.958Z</time></trkpt><trkpt lat="43.0088648" lon="13.0934443"><ele>821.0</ele><time>2026-04-26T09:25:28.959Z</time></trkpt><trkpt lat="43.0090083" lon="13.0935316"><ele>821.0</ele><time>2026-04-26T09:25:29.957Z</time></trkpt><trkpt lat="43.0091456" lon="13.0936185"><ele>821.0</ele><time>2026-04-26T09:25:30.967Z</time></trkpt><trkpt lat="43.0092694" lon="13.0937103"><ele>821.0</ele><time>2026-04-26T09:25:31.959Z</time></trkpt><trkpt lat="43.0093852" lon="13.0938157"><ele>820.0</ele><time>2026-04-26T09:25:32.96Z</time></trkpt><trkpt lat="43.0094976" lon="13.0939345"><ele>819.0</ele><time>2026-04-26T09:25:33.962Z</time></trkpt><trkpt lat="43.0096084" lon="13.0940533"><ele>818.0</ele><time>2026-04-26T09:25:34.96Z</time></trkpt><trkpt lat="43.0097309" lon="13.0941506"><ele>817.0</ele><time>2026-04-26T09:25:35.956Z</time></trkpt><trkpt lat="43.009864" lon="13.0942349"><ele>813.0</ele><time>2026-04-26T09:25:36.965Z</time></trkpt><trkpt lat="43.0100028" lon="13.0943108"><ele>809.0</ele><time>2026-04-26T09:25:37.962Z</time></trkpt><trkpt lat="43.0101396" lon="13.0943744"><ele>805.0</ele><time>2026-04-26T09:25:38.963Z</time></trkpt><trkpt lat="43.0102795" lon="13.0944268"><ele>801.0</ele><time>2026-04-26T09:25:39.956Z</time></trkpt><trkpt lat="43.0104194" lon="13.0944721"><ele>801.0</ele><time>2026-04-26T09:25:40.958Z</time></trkpt><trkpt lat="43.0105589" lon="13.0945066"><ele>801.0</ele><time>2026-04-26T09:25:41.963Z</time></trkpt><trkpt lat="43.0106939" lon="13.0945394"><ele>801.0</ele><time>2026-04-26T09:25:42.965Z</time></trkpt><trkpt lat="43.0108298" lon="13.094574"><ele>801.0</ele><time>2026-04-26T09:25:43.962Z</time></trkpt><trkpt lat="43.0109703" lon="13.0946218"><ele>798.5</ele><time>2026-04-26T09:25:44.967Z</time></trkpt><trkpt lat="43.0111127" lon="13.09468"><ele>796.0</ele><time>2026-04-26T09:25:45.957Z</time></trkpt><trkpt lat="43.0112509" lon="13.0947457"><ele>793.5</ele><time>2026-04-26T09:25:46.959Z</time></trkpt><trkpt lat="43.0113796" lon="13.0948104"><ele>791.0</ele><time>2026-04-26T09:25:47.961Z</time></trkpt><trkpt lat="43.0115024" lon="13.094868"><ele>790.8</ele><time>2026-04-26T09:25:48.96Z</time></trkpt><trkpt lat="43.0116174" lon="13.094925"><ele>790.5999999999999</ele><time>2026-04-26T09:25:49.957Z</time></trkpt><trkpt lat="43.0117184" lon="13.0949826"><ele>790.4</ele><time>2026-04-26T09:25:50.959Z</time></trkpt><trkpt lat="43.0118104" lon="13.0950561"><ele>790.2</ele><time>2026-04-26T09:25:51.965Z</time></trkpt><trkpt lat="43.0118827" lon="13.0951488"><ele>790.0</ele><time>2026-04-26T09:25:52.959Z</time></trkpt><trkpt lat="43.0119506" lon="13.095251"><ele>790.0</ele><time>2026-04-26T09:25:53.972Z</time></trkpt><trkpt lat="43.0120056" lon="13.095386"><ele>790.0</ele><time>2026-04-26T09:25:54.962Z</time></trkpt><trkpt lat="43.0120617" lon="13.0955069"><ele>790.0</ele><time>2026-04-26T09:25:55.963Z</time></trkpt><trkpt lat="43.0121179" lon="13.0956249"><ele>790.0</ele><time>2026-04-26T09:25:56.968Z</time></trkpt><trkpt lat="43.0121706" lon="13.0957201"><ele>790.0</ele><time>2026-04-26T09:25:57.96Z</time></trkpt><trkpt lat="43.0122404" lon="13.0957905"><ele>788.25</ele><time>2026-04-26T09:25:58.973Z</time></trkpt><trkpt lat="43.0123239" lon="13.0958423"><ele>786.5</ele><time>2026-04-26T09:25:59.96Z</time></trkpt><trkpt lat="43.0124383" lon="13.0958761"><ele>784.75</ele><time>2026-04-26T09:26:00.96Z</time></trkpt><trkpt lat="43.0125607" lon="13.0958922"><ele>783.0</ele><time>2026-04-26T09:26:01.956Z</time></trkpt><trkpt lat="43.0126788" lon="13.095911"><ele>783.0</ele><time>2026-04-26T09:26:02.961Z</time></trkpt><trkpt lat="43.0127923" lon="13.0959488"><ele>783.0</ele><time>2026-04-26T09:26:03.956Z</time></trkpt><trkpt lat="43.0129047" lon="13.0960096"><ele>783.0</ele><time>2026-04-26T09:26:04.957Z</time></trkpt><trkpt lat="43.013023" lon="13.096094"><ele>783.0</ele><time>2026-04-26T09:26:05.965Z</time></trkpt><trkpt lat="43.0131344" lon="13.0961859"><ele>783.0</ele><time>2026-04-26T09:26:06.961Z</time></trkpt><trkpt lat="43.0132343" lon="13.0962643"><ele>783.0</ele><time>2026-04-26T09:26:07.961Z</time></trkpt><trkpt lat="43.0133407" lon="13.0963381"><ele>783.0</ele><time>2026-04-26T09:26:08.966Z</time></trkpt><trkpt lat="43.0134367" lon="13.0964139"><ele>783.0</ele><time>2026-04-26T09:26:09.963Z</time></trkpt><trkpt lat="43.0135314" lon="13.0964827"><ele>782.5</ele><time>2026-04-26T09:26:10.965Z</time></trkpt><trkpt lat="43.0136293" lon="13.0965635"><ele>782.0</ele><time>2026-04-26T09:26:11.961Z</time></trkpt><trkpt lat="43.0137281" lon="13.0966669"><ele>781.5</ele><time>2026-04-26T09:26:12.96Z</time></trkpt><trkpt lat="43.0138205" lon="13.0967783"><ele>781.0</ele><time>2026-04-26T09:26:13.962Z</time></trkpt><trkpt lat="43.0139037" lon="13.0968872"><ele>781.0</ele><time>2026-04-26T09:26:14.961Z</time></trkpt><trkpt lat="43.0139832" lon="13.0969886"><ele>781.0</ele><time>2026-04-26T09:26:15.962Z</time></trkpt><trkpt lat="43.0140585" lon="13.0970827"><ele>781.0</ele><time>2026-04-26T09:26:16.959Z</time></trkpt><trkpt lat="43.0141333" lon="13.0971698"><ele>781.0</ele><time>2026-04-26T09:26:17.962Z</time></trkpt><trkpt lat="43.0142203" lon="13.0972412"><ele>781.0</ele><time>2026-04-26T09:26:18.964Z</time></trkpt><trkpt lat="43.0143214" lon="13.097288"><ele>777.0</ele><time>2026-04-26T09:26:19.962Z</time></trkpt><trkpt lat="43.0144437" lon="13.0973164"><ele>773.0</ele><time>2026-04-26T09:26:20.959Z</time></trkpt><trkpt lat="43.0145784" lon="13.0973383"><ele>769.0</ele><time>2026-04-26T09:26:21.963Z</time></trkpt><trkpt lat="43.014704" lon="13.0973563"><ele>765.0</ele><time>2026-04-26T09:26:22.963Z</time></trkpt><trkpt lat="43.014825" lon="13.097368"><ele>765.0</ele><time>2026-04-26T09:26:23.96Z</time></trkpt><trkpt lat="43.01494" lon="13.0973871"><ele>765.0</ele><time>2026-04-26T09:26:24.969Z</time></trkpt><trkpt lat="43.0150593" lon="13.0974228"><ele>765.0</ele><time>2026-04-26T09:26:25.964Z</time></trkpt><trkpt lat="43.0151793" lon="13.0974782"><ele>765.0</ele><time>2026-04-26T09:26:26.964Z</time></trkpt><trkpt lat="43.0152868" lon="13.0975461"><ele>764.2</ele><time>2026-04-26T09:26:27.961Z</time></trkpt><trkpt lat="43.0153799" lon="13.0976198"><ele>763.4</ele><time>2026-04-26T09:26:28.965Z</time></trkpt><trkpt lat="43.015459" lon="13.0977011"><ele>762.5999999999999</ele><time>2026-04-26T09:26:29.961Z</time></trkpt><trkpt lat="43.0155194" lon="13.0977961"><ele>761.8</ele><time>2026-04-26T09:26:30.964Z</time></trkpt><trkpt lat="43.0155628" lon="13.0979055"><ele>761.0</ele><time>2026-04-26T09:26:31.966Z</time></trkpt><trkpt lat="43.0155895" lon="13.0980229"><ele>761.0</ele><time>2026-04-26T09:26:32.971Z</time></trkpt><trkpt lat="43.0156079" lon="13.0981353"><ele>761.0</ele><time>2026-04-26T09:26:33.969Z</time></trkpt><trkpt lat="43.0156177" lon="13.0982492"><ele>761.0</ele><time>2026-04-26T09:26:34.967Z</time></trkpt><trkpt lat="43.0156275" lon="13.0983648"><ele>761.0</ele><time>2026-04-26T09:26:35.967Z</time></trkpt><trkpt lat="43.0156194" lon="13.0984777"><ele>761.0</ele><time>2026-04-26T09:26:36.968Z</time></trkpt><trkpt lat="43.0156187" lon="13.0985721"><ele>761.0</ele><time>2026-04-26T09:26:37.962Z</time></trkpt><trkpt lat="43.0156279" lon="13.0986653"><ele>762.0</ele><time>2026-04-26T09:26:38.961Z</time></trkpt><trkpt lat="43.0156481" lon="13.0987475"><ele>763.0</ele><time>2026-04-26T09:26:39.958Z</time></trkpt><trkpt lat="43.0157332" lon="13.0988341"><ele>764.0</ele><time>2026-04-26T09:26:41.963Z</time></trkpt><trkpt lat="43.0158456" lon="13.0987964"><ele>765.0</ele><time>2026-04-26T09:26:43.957Z</time></trkpt><trkpt lat="43.0159142" lon="13.0986536"><ele>766.0</ele><time>2026-04-26T09:26:45.964Z</time></trkpt><trkpt lat="43.0159212" lon="13.098553"><ele>762.6666666666667</ele><time>2026-04-26T09:26:46.96Z</time></trkpt><trkpt lat="43.0159175" lon="13.0984414"><ele>759.3333333333334</ele><time>2026-04-26T09:26:47.969Z</time></trkpt><trkpt lat="43.0159058" lon="13.0983376"><ele>756.0</ele><time>2026-04-26T09:26:48.964Z</time></trkpt><trkpt lat="43.0158926" lon="13.098236"><ele>752.6666666666666</ele><time>2026-04-26T09:26:49.976Z</time></trkpt><trkpt lat="43.015873" lon="13.0981292"><ele>749.3333333333333</ele><time>2026-04-26T09:26:50.956Z</time></trkpt><trkpt lat="43.0158686" lon="13.0980059"><ele>746.0</ele><time>2026-04-26T09:26:51.956Z</time></trkpt><trkpt lat="43.0158983" lon="13.09789"><ele>745.5999999999999</ele><time>2026-04-26T09:26:52.96Z</time></trkpt><trkpt lat="43.0159404" lon="13.0977667"><ele>745.2</ele><time>2026-04-26T09:26:53.959Z</time></trkpt><trkpt lat="43.0159828" lon="13.0976458"><ele>744.8</ele><time>2026-04-26T09:26:54.96Z</time></trkpt><trkpt lat="43.0160109" lon="13.0975234"><ele>744.4000000000001</ele><time>2026-04-26T09:26:55.955Z</time></trkpt><trkpt lat="43.0160341" lon="13.0974056"><ele>744.0</ele><time>2026-04-26T09:26:56.97Z</time></trkpt><trkpt lat="43.0160426" lon="13.0972926"><ele>744.6666666666666</ele><time>2026-04-26T09:26:57.964Z</time></trkpt><trkpt lat="43.016032" lon="13.0971773"><ele>745.3333333333334</ele><time>2026-04-26T09:26:58.957Z</time></trkpt><trkpt lat="43.0160125" lon="13.097059"><ele>746.0</ele><time>2026-04-26T09:26:59.966Z</time></trkpt><trkpt lat="43.0159891" lon="13.0969435"><ele>746.6666666666667</ele><time>2026-04-26T09:27:00.96Z</time></trkpt><trkpt lat="43.0159464" lon="13.0968355"><ele>747.3333333333334</ele><time>2026-04-26T09:27:01.957Z</time></trkpt><trkpt lat="43.0158895" lon="13.0967281"><ele>748.0</ele><time>2026-04-26T09:27:02.96Z</time></trkpt><trkpt lat="43.0158176" lon="13.0965956"><ele>746.2</ele><time>2026-04-26T09:27:03.963Z</time></trkpt><trkpt lat="43.0157531" lon="13.0964658"><ele>744.4</ele><time>2026-04-26T09:27:04.963Z</time></trkpt><trkpt lat="43.0157021" lon="13.0963291"><ele>742.6</ele><time>2026-04-26T09:27:05.958Z</time></trkpt><trkpt lat="43.0156635" lon="13.096185"><ele>740.8000000000001</ele><time>2026-04-26T09:27:06.963Z</time></trkpt><trkpt lat="43.0156382" lon="13.0960471"><ele>739.0</ele><time>2026-04-26T09:27:07.968Z</time></trkpt><trkpt lat="43.0156244" lon="13.095912"><ele>739.0</ele><time>2026-04-26T09:27:08.966Z</time></trkpt><trkpt lat="43.0156109" lon="13.0957892"><ele>739.0</ele><time>2026-04-26T09:27:09.958Z</time></trkpt><trkpt lat="43.0155916" lon="13.0956788"><ele>739.0</ele><time>2026-04-26T09:27:10.966Z</time></trkpt><trkpt lat="43.0155775" lon="13.0955483"><ele>739.0</ele><time>2026-04-26T09:27:11.964Z</time></trkpt><trkpt lat="43.0155662" lon="13.0954148"><ele>739.0</ele><time>2026-04-26T09:27:12.96Z</time></trkpt><trkpt lat="43.0155618" lon="13.0952851"><ele>737.5</ele><time>2026-04-26T09:27:13.968Z</time></trkpt><trkpt lat="43.015556" lon="13.0951637"><ele>736.0</ele><time>2026-04-26T09:27:14.962Z</time></trkpt><trkpt lat="43.0155431" lon="13.095044"><ele>734.5</ele><time>2026-04-26T09:27:15.961Z</time></trkpt><trkpt lat="43.015518" lon="13.0949326"><ele>733.0</ele><time>2026-04-26T09:27:16.965Z</time></trkpt><trkpt lat="43.0154774" lon="13.0948466"><ele>731.5</ele><time>2026-04-26T09:27:17.965Z</time></trkpt><trkpt lat="43.0154153" lon="13.0947774"><ele>730.0</ele><time>2026-04-26T09:27:18.968Z</time></trkpt><trkpt lat="43.0153326" lon="13.094723"><ele>728.8</ele><time>2026-04-26T09:27:19.963Z</time></trkpt><trkpt lat="43.015236" lon="13.0946885"><ele>727.6</ele><time>2026-04-26T09:27:20.968Z</time></trkpt><trkpt lat="43.0151423" lon="13.0946575"><ele>726.4000000000001</ele><time>2026-04-26T09:27:21.961Z</time></trkpt><trkpt lat="43.0150586" lon="13.0946093"><ele>725.2</ele><time>2026-04-26T09:27:22.966Z</time></trkpt><trkpt lat="43.0149942" lon="13.0945331"><ele>724.0</ele><time>2026-04-26T09:27:23.965Z</time></trkpt><trkpt lat="43.0149611" lon="13.0944311"><ele>724.0</ele><time>2026-04-26T09:27:24.965Z</time></trkpt><trkpt lat="43.0149657" lon="13.0943112"><ele>724.0</ele><time>2026-04-26T09:27:25.96Z</time></trkpt><trkpt lat="43.0150071" lon="13.0941792"><ele>724.0</ele><time>2026-04-26T09:27:26.958Z</time></trkpt><trkpt lat="43.0150704" lon="13.0940375"><ele>724.0</ele><time>2026-04-26T09:27:27.964Z</time></trkpt><trkpt lat="43.0151323" lon="13.0938924"><ele>724.0</ele><time>2026-04-26T09:27:28.959Z</time></trkpt><trkpt lat="43.0152118" lon="13.0937349"><ele>724.25</ele><time>2026-04-26T09:27:29.962Z</time></trkpt><trkpt lat="43.0152927" lon="13.0935901"><ele>724.5</ele><time>2026-04-26T09:27:30.962Z</time></trkpt><trkpt lat="43.0153683" lon="13.0934477"><ele>724.75</ele><time>2026-04-26T09:27:31.964Z</time></trkpt><trkpt lat="43.0154378" lon="13.0933103"><ele>725.0</ele><time>2026-04-26T09:27:32.96Z</time></trkpt><trkpt lat="43.0154971" lon="13.0931714"><ele>724.2</ele><time>2026-04-26T09:27:33.963Z</time></trkpt><trkpt lat="43.0155509" lon="13.093037"><ele>723.4</ele><time>2026-04-26T09:27:34.964Z</time></trkpt><trkpt lat="43.0156048" lon="13.0929103"><ele>722.5999999999999</ele><time>2026-04-26T09:27:35.967Z</time></trkpt><trkpt lat="43.0156557" lon="13.0927931"><ele>721.8</ele><time>2026-04-26T09:27:36.964Z</time></trkpt><trkpt lat="43.0156988" lon="13.092686"><ele>721.0</ele><time>2026-04-26T09:27:37.968Z</time></trkpt><trkpt lat="43.0157374" lon="13.0925962"><ele>721.0</ele><time>2026-04-26T09:27:38.962Z</time></trkpt><trkpt lat="43.01581" lon="13.0924911"><ele>721.0</ele><time>2026-04-26T09:27:40.96Z</time></trkpt><trkpt lat="43.0158793" lon="13.0924587"><ele>721.0</ele><time>2026-04-26T09:27:42.963Z</time></trkpt><trkpt lat="43.015948" lon="13.0924573"><ele>721.0</ele><time>2026-04-26T09:28:47.973Z</time></trkpt><trkpt lat="43.0160231" lon="13.0924461"><ele>721.0</ele><time>2026-04-26T09:28:49.959Z</time></trkpt><trkpt lat="43.0161679" lon="13.0924227"><ele>717.5</ele><time>2026-04-26T09:28:51.96Z</time></trkpt><trkpt lat="43.0162722" lon="13.0924142"><ele>714.0</ele><time>2026-04-26T09:28:52.965Z</time></trkpt><trkpt lat="43.0163851" lon="13.0924034"><ele>710.5</ele><time>2026-04-26T09:28:53.959Z</time></trkpt><trkpt lat="43.0165043" lon="13.0923857"><ele>707.0</ele><time>2026-04-26T09:28:54.963Z</time></trkpt><trkpt lat="43.016626" lon="13.0923671"><ele>704.75</ele><time>2026-04-26T09:28:55.961Z</time></trkpt><trkpt lat="43.016746" lon="13.0923516"><ele>702.5</ele><time>2026-04-26T09:28:56.962Z</time></trkpt><trkpt lat="43.0168648" lon="13.0923367"><ele>700.25</ele><time>2026-04-26T09:28:57.957Z</time></trkpt><trkpt lat="43.0169914" lon="13.0923217"><ele>698.0</ele><time>2026-04-26T09:28:58.959Z</time></trkpt><trkpt lat="43.0171149" lon="13.0923169"><ele>698.0</ele><time>2026-04-26T09:28:59.964Z</time></trkpt><trkpt lat="43.0172318" lon="13.0923115"><ele>698.0</ele><time>2026-04-26T09:29:00.965Z</time></trkpt><trkpt lat="43.0173457" lon="13.0923125"><ele>698.0</ele><time>2026-04-26T09:29:01.967Z</time></trkpt><trkpt lat="43.0174545" lon="13.0923179"><ele>698.0</ele><time>2026-04-26T09:29:02.966Z</time></trkpt><trkpt lat="43.0175567" lon="13.0923218"><ele>698.0</ele><time>2026-04-26T09:29:03.968Z</time></trkpt><trkpt lat="43.0176573" lon="13.0923245"><ele>696.0</ele><time>2026-04-26T09:29:04.96Z</time></trkpt><trkpt lat="43.0177668" lon="13.0923346"><ele>694.0</ele><time>2026-04-26T09:29:05.963Z</time></trkpt><trkpt lat="43.0178802" lon="13.0923661"><ele>692.0</ele><time>2026-04-26T09:29:06.966Z</time></trkpt><trkpt lat="43.0179901" lon="13.0924278"><ele>690.0</ele><time>2026-04-26T09:29:07.966Z</time></trkpt><trkpt lat="43.0181003" lon="13.0925135"><ele>690.0</ele><time>2026-04-26T09:29:08.969Z</time></trkpt><trkpt lat="43.0182095" lon="13.0926147"><ele>690.0</ele><time>2026-04-26T09:29:09.962Z</time></trkpt><trkpt lat="43.0183199" lon="13.0927276"><ele>690.0</ele><time>2026-04-26T09:29:10.959Z</time></trkpt><trkpt lat="43.0184318" lon="13.0928478"><ele>690.0</ele><time>2026-04-26T09:29:11.959Z</time></trkpt><trkpt lat="43.0185432" lon="13.0929707"><ele>688.75</ele><time>2026-04-26T09:29:12.961Z</time></trkpt><trkpt lat="43.0186521" lon="13.0930938"><ele>687.5</ele><time>2026-04-26T09:29:13.964Z</time></trkpt><trkpt lat="43.0187581" lon="13.0932153"><ele>686.25</ele><time>2026-04-26T09:29:14.963Z</time></trkpt><trkpt lat="43.0188603" lon="13.0933387"><ele>685.0</ele><time>2026-04-26T09:29:15.96Z</time></trkpt><trkpt lat="43.0189584" lon="13.0934655"><ele>683.25</ele><time>2026-04-26T09:29:16.962Z</time></trkpt><trkpt lat="43.0190462" lon="13.0935972"><ele>681.5</ele><time>2026-04-26T09:29:17.96Z</time></trkpt><trkpt lat="43.0191233" lon="13.0937329"><ele>679.75</ele><time>2026-04-26T09:29:18.96Z</time></trkpt><trkpt lat="43.0191893" lon="13.0938508"><ele>678.0</ele><time>2026-04-26T09:29:19.961Z</time></trkpt><trkpt lat="43.0192502" lon="13.0939441"><ele>677.5999999999999</ele><time>2026-04-26T09:29:20.96Z</time></trkpt><trkpt lat="43.0193157" lon="13.0940073"><ele>677.1999999999999</ele><time>2026-04-26T09:29:21.958Z</time></trkpt><trkpt lat="43.0193903" lon="13.0940244"><ele>676.8</ele><time>2026-04-26T09:29:22.965Z</time></trkpt><trkpt lat="43.0194657" lon="13.0940402"><ele>676.4</ele><time>2026-04-26T09:29:23.959Z</time></trkpt><trkpt lat="43.0195659" lon="13.093969"><ele>676.0</ele><time>2026-04-26T09:29:24.963Z</time></trkpt><trkpt lat="43.019679" lon="13.0938848"><ele>676.0</ele><time>2026-04-26T09:29:25.961Z</time></trkpt><trkpt lat="43.0197934" lon="13.0938045"><ele>676.0</ele><time>2026-04-26T09:29:26.966Z</time></trkpt><trkpt lat="43.0199084" lon="13.0937252"><ele>676.0</ele><time>2026-04-26T09:29:27.961Z</time></trkpt><trkpt lat="43.0200194" lon="13.093646"><ele>676.0</ele><time>2026-04-26T09:29:28.967Z</time></trkpt><trkpt lat="43.0201231" lon="13.0935592"><ele>672.25</ele><time>2026-04-26T09:29:29.961Z</time></trkpt><trkpt lat="43.0202135" lon="13.0934501"><ele>668.5</ele><time>2026-04-26T09:29:30.96Z</time></trkpt><trkpt lat="43.0202935" lon="13.0933193"><ele>664.75</ele><time>2026-04-26T09:29:31.962Z</time></trkpt><trkpt lat="43.0203638" lon="13.0931862"><ele>661.0</ele><time>2026-04-26T09:29:32.958Z</time></trkpt><trkpt lat="43.0204304" lon="13.0930596"><ele>660.1999999999999</ele><time>2026-04-26T09:29:33.968Z</time></trkpt><trkpt lat="43.020465" lon="13.0929297"><ele>659.4</ele><time>2026-04-26T09:29:34.96Z</time></trkpt><trkpt lat="43.020474" lon="13.0927842"><ele>658.6</ele><time>2026-04-26T09:29:35.957Z</time></trkpt><trkpt lat="43.0204723" lon="13.0926333"><ele>657.8</ele><time>2026-04-26T09:29:36.959Z</time></trkpt><trkpt lat="43.0204683" lon="13.0924871"><ele>657.0</ele><time>2026-04-26T09:29:37.961Z</time></trkpt><trkpt lat="43.0204494" lon="13.0923571"><ele>654.1666666666666</ele><time>2026-04-26T09:29:38.963Z</time></trkpt><trkpt lat="43.0204312" lon="13.0922344"><ele>651.3333333333334</ele><time>2026-04-26T09:29:39.968Z</time></trkpt><trkpt lat="43.0203956" lon="13.0921226"><ele>648.5</ele><time>2026-04-26T09:29:40.962Z</time></trkpt><trkpt lat="43.0203207" lon="13.092046"><ele>645.6666666666667</ele><time>2026-04-26T09:29:41.954Z</time></trkpt><trkpt lat="43.0202561" lon="13.0919806"><ele>642.8333333333334</ele><time>2026-04-26T09:29:42.978Z</time></trkpt><trkpt lat="43.0202552" lon="13.0918596"><ele>640.0</ele><time>2026-04-26T09:29:44.958Z</time></trkpt><trkpt lat="43.0203681" lon="13.091831"><ele>640.0</ele><time>2026-04-26T09:29:46.963Z</time></trkpt><trkpt lat="43.0204619" lon="13.0918801"><ele>640.0</ele><time>2026-04-26T09:29:47.959Z</time></trkpt><trkpt lat="43.0205876" lon="13.091929"><ele>640.0</ele><time>2026-04-26T09:29:48.96Z</time></trkpt><trkpt lat="43.0207139" lon="13.0919958"><ele>640.0</ele><time>2026-04-26T09:29:49.959Z</time></trkpt><trkpt lat="43.0208554" lon="13.09207"><ele>635.0</ele><time>2026-04-26T09:29:50.961Z</time></trkpt><trkpt lat="43.0209818" lon="13.0921406"><ele>630.0</ele><time>2026-04-26T09:29:51.959Z</time></trkpt><trkpt lat="43.021111" lon="13.0922122"><ele>625.0</ele><time>2026-04-26T09:29:52.964Z</time></trkpt><trkpt lat="43.0212306" lon="13.092286"><ele>620.0</ele><time>2026-04-26T09:29:53.96Z</time></trkpt><trkpt lat="43.021341" lon="13.092356"><ele>624.5</ele><time>2026-04-26T09:29:54.96Z</time></trkpt><trkpt lat="43.0214324" lon="13.092466"><ele>629.0</ele><time>2026-04-26T09:29:55.963Z</time></trkpt><trkpt lat="43.0215189" lon="13.0925792"><ele>633.5</ele><time>2026-04-26T09:29:56.96Z</time></trkpt><trkpt lat="43.0215349" lon="13.0927504"><ele>638.0</ele><time>2026-04-26T09:29:57.964Z</time></trkpt><trkpt lat="43.0215243" lon="13.0929319"><ele>638.0</ele><time>2026-04-26T09:29:58.956Z</time></trkpt><trkpt lat="43.0214839" lon="13.0931002"><ele>638.0</ele><time>2026-04-26T09:29:59.955Z</time></trkpt><trkpt lat="43.0214436" lon="13.0932679"><ele>638.0</ele><time>2026-04-26T09:30:00.96Z</time></trkpt><trkpt lat="43.021402" lon="13.0933997"><ele>638.0</ele><time>2026-04-26T09:30:01.96Z</time></trkpt><trkpt lat="43.0213629" lon="13.0935207"><ele>637.3333333333333</ele><time>2026-04-26T09:30:02.963Z</time></trkpt><trkpt lat="43.0213452" lon="13.0936121"><ele>636.6666666666666</ele><time>2026-04-26T09:30:03.956Z</time></trkpt><trkpt lat="43.0213411" lon="13.093699"><ele>636.0</ele><time>2026-04-26T09:30:05.96Z</time></trkpt><trkpt lat="43.0214011" lon="13.0936632"><ele>635.3333333333334</ele><time>2026-04-26T09:30:07.962Z</time></trkpt><trkpt lat="43.0214357" lon="13.0935624"><ele>634.6666666666667</ele><time>2026-04-26T09:30:08.958Z</time></trkpt><trkpt lat="43.0214826" lon="13.0934183"><ele>634.0</ele><time>2026-04-26T09:30:09.959Z</time></trkpt><trkpt lat="43.021568" lon="13.0933067"><ele>627.25</ele><time>2026-04-26T09:30:10.955Z</time></trkpt><trkpt lat="43.021671" lon="13.09321"><ele>620.5</ele><time>2026-04-26T09:30:11.957Z</time></trkpt><trkpt lat="43.0217747" lon="13.0931101"><ele>613.75</ele><time>2026-04-26T09:30:12.963Z</time></trkpt><trkpt lat="43.0218647" lon="13.0929852"><ele>607.0</ele><time>2026-04-26T09:30:13.961Z</time></trkpt><trkpt lat="43.0219344" lon="13.0928278"><ele>607.0</ele><time>2026-04-26T09:30:14.956Z</time></trkpt><trkpt lat="43.0219994" lon="13.092676"><ele>607.0</ele><time>2026-04-26T09:30:15.962Z</time></trkpt><trkpt lat="43.0220631" lon="13.0925356"><ele>607.0</ele><time>2026-04-26T09:30:16.956Z</time></trkpt><trkpt lat="43.0221166" lon="13.0924142"><ele>607.0</ele><time>2026-04-26T09:30:17.957Z</time></trkpt><trkpt lat="43.0221787" lon="13.0923102"><ele>606.3333333333334</ele><time>2026-04-26T09:30:18.957Z</time></trkpt><trkpt lat="43.022254" lon="13.0922423"><ele>605.6666666666667</ele><time>2026-04-26T09:30:19.958Z</time></trkpt><trkpt lat="43.0223364" lon="13.092237"><ele>605.0</ele><time>2026-04-26T09:30:20.962Z</time></trkpt><trkpt lat="43.0224126" lon="13.0922869"><ele>604.3333333333334</ele><time>2026-04-26T09:30:21.958Z</time></trkpt><trkpt lat="43.0224806" lon="13.092359"><ele>603.6666666666666</ele><time>2026-04-26T09:30:22.96Z</time></trkpt><trkpt lat="43.0225444" lon="13.0924384"><ele>603.0</ele><time>2026-04-26T09:30:23.957Z</time></trkpt><trkpt lat="43.0226117" lon="13.092497"><ele>602.4</ele><time>2026-04-26T09:30:24.96Z</time></trkpt><trkpt lat="43.0226832" lon="13.0925226"><ele>601.8</ele><time>2026-04-26T09:30:25.958Z</time></trkpt><trkpt lat="43.0227566" lon="13.0925165"><ele>601.2</ele><time>2026-04-26T09:30:26.957Z</time></trkpt><trkpt lat="43.0228427" lon="13.0924944"><ele>600.6</ele><time>2026-04-26T09:30:27.964Z</time></trkpt><trkpt lat="43.0229552" lon="13.0924553"><ele>600.0</ele><time>2026-04-26T09:30:28.953Z</time></trkpt><trkpt lat="43.0230895" lon="13.0924091"><ele>600.0</ele><time>2026-04-26T09:30:29.966Z</time></trkpt><trkpt lat="43.023242" lon="13.0923618"><ele>600.0</ele><time>2026-04-26T09:30:30.965Z</time></trkpt><trkpt lat="43.0234012" lon="13.0923186"><ele>600.0</ele><time>2026-04-26T09:30:31.968Z</time></trkpt><trkpt lat="43.0235606" lon="13.0922785"><ele>596.0</ele><time>2026-04-26T09:30:32.955Z</time></trkpt><trkpt lat="43.0237152" lon="13.0922386"><ele>592.0</ele><time>2026-04-26T09:30:33.955Z</time></trkpt><trkpt lat="43.0238661" lon="13.0921983"><ele>588.0</ele><time>2026-04-26T09:30:34.954Z</time></trkpt><trkpt lat="43.0240207" lon="13.0921587"><ele>584.3333333333334</ele><time>2026-04-26T09:30:35.96Z</time></trkpt><trkpt lat="43.0241817" lon="13.0921202"><ele>580.6666666666667</ele><time>2026-04-26T09:30:36.96Z</time></trkpt><trkpt lat="43.0243419" lon="13.0920794"><ele>577.0</ele><time>2026-04-26T09:30:37.963Z</time></trkpt><trkpt lat="43.0244969" lon="13.0920339"><ele>577.0</ele><time>2026-04-26T09:30:38.956Z</time></trkpt><trkpt lat="43.0246547" lon="13.091996"><ele>577.0</ele><time>2026-04-26T09:30:39.959Z</time></trkpt><trkpt lat="43.0248164" lon="13.0919674"><ele>577.0</ele><time>2026-04-26T09:30:40.955Z</time></trkpt><trkpt lat="43.0249788" lon="13.0919453"><ele>575.5</ele><time>2026-04-26T09:30:41.961Z</time></trkpt><trkpt lat="43.0251346" lon="13.0919273"><ele>574.0</ele><time>2026-04-26T09:30:42.96Z</time></trkpt><trkpt lat="43.0252779" lon="13.0919066"><ele>572.5</ele><time>2026-04-26T09:30:43.958Z</time></trkpt><trkpt lat="43.0254155" lon="13.0918858"><ele>571.0</ele><time>2026-04-26T09:30:44.958Z</time></trkpt><trkpt lat="43.0255558" lon="13.0918679"><ele>571.0</ele><time>2026-04-26T09:30:45.962Z</time></trkpt><trkpt lat="43.025703" lon="13.0918469"><ele>571.0</ele><time>2026-04-26T09:30:46.956Z</time></trkpt><trkpt lat="43.0258487" lon="13.0918214"><ele>571.0</ele><time>2026-04-26T09:30:47.959Z</time></trkpt><trkpt lat="43.026" lon="13.0918016"><ele>571.0</ele><time>2026-04-26T09:30:48.96Z</time></trkpt><trkpt lat="43.0261584" lon="13.0918241"><ele>569.0</ele><time>2026-04-26T09:30:49.957Z</time></trkpt><trkpt lat="43.0263314" lon="13.0918983"><ele>567.0</ele><time>2026-04-26T09:30:50.957Z</time></trkpt><trkpt lat="43.0265007" lon="13.0919897"><ele>565.0</ele><time>2026-04-26T09:30:51.958Z</time></trkpt><trkpt lat="43.0266841" lon="13.0920766"><ele>564.3333333333334</ele><time>2026-04-26T09:30:52.962Z</time></trkpt><trkpt lat="43.0268761" lon="13.0921427"><ele>563.6666666666666</ele><time>2026-04-26T09:30:53.956Z</time></trkpt><trkpt lat="43.0270666" lon="13.0921856"><ele>563.0</ele><time>2026-04-26T09:30:54.959Z</time></trkpt><trkpt lat="43.0272656" lon="13.0922197"><ele>563.0</ele><time>2026-04-26T09:30:55.958Z</time></trkpt><trkpt lat="43.027468" lon="13.0922432"><ele>563.0</ele><time>2026-04-26T09:30:56.972Z</time></trkpt><trkpt lat="43.0276687" lon="13.0922679"><ele>563.0</ele><time>2026-04-26T09:30:57.957Z</time></trkpt><trkpt lat="43.0278705" lon="13.0923042"><ele>562.3333333333333</ele><time>2026-04-26T09:30:58.957Z</time></trkpt><trkpt lat="43.0280731" lon="13.0923528"><ele>561.6666666666666</ele><time>2026-04-26T09:30:59.959Z</time></trkpt><trkpt lat="43.0282747" lon="13.0924128"><ele>561.0</ele><time>2026-04-26T09:31:00.96Z</time></trkpt><trkpt lat="43.0284734" lon="13.0924798"><ele>560.6666666666666</ele><time>2026-04-26T09:31:01.957Z</time></trkpt><trkpt lat="43.028668" lon="13.0925501"><ele>560.3333333333333</ele><time>2026-04-26T09:31:02.962Z</time></trkpt><trkpt lat="43.0288553" lon="13.0926183"><ele>560.0</ele><time>2026-04-26T09:31:03.96Z</time></trkpt><trkpt lat="43.0290392" lon="13.0926854"><ele>562.3333333333333</ele><time>2026-04-26T09:31:04.96Z</time></trkpt><trkpt lat="43.0292086" lon="13.0927484"><ele>564.6666666666666</ele><time>2026-04-26T09:31:05.957Z</time></trkpt><trkpt lat="43.0293656" lon="13.0928103"><ele>567.0</ele><time>2026-04-26T09:31:06.962Z</time></trkpt><trkpt lat="43.0295136" lon="13.0928717"><ele>567.0</ele><time>2026-04-26T09:31:07.963Z</time></trkpt><trkpt lat="43.0296435" lon="13.0929193"><ele>567.0</ele><time>2026-04-26T09:31:08.963Z</time></trkpt><trkpt lat="43.0297452" lon="13.0929494"><ele>567.0</ele><time>2026-04-26T09:31:09.961Z</time></trkpt><trkpt lat="43.0298113" lon="13.0929652"><ele>567.0</ele><time>2026-04-26T09:31:10.966Z</time></trkpt><trkpt lat="43.0299294" lon="13.0929276"><ele>567.0</ele><time>2026-04-26T09:31:24.962Z</time></trkpt><trkpt lat="43.0299512" lon="13.0928354"><ele>566.0</ele><time>2026-04-26T09:31:25.965Z</time></trkpt><trkpt lat="43.0299812" lon="13.0927116"><ele>565.0</ele><time>2026-04-26T09:31:26.959Z</time></trkpt><trkpt lat="43.0300214" lon="13.0925623"><ele>564.0</ele><time>2026-04-26T09:31:27.962Z</time></trkpt><trkpt lat="43.0300629" lon="13.0923924"><ele>563.0</ele><time>2026-04-26T09:31:28.957Z</time></trkpt><trkpt lat="43.0301084" lon="13.0922057"><ele>563.0</ele><time>2026-04-26T09:31:29.957Z</time></trkpt><trkpt lat="43.0301563" lon="13.0920151"><ele>563.0</ele><time>2026-04-26T09:31:30.958Z</time></trkpt><trkpt lat="43.0302049" lon="13.0918282"><ele>563.0</ele><time>2026-04-26T09:31:31.966Z</time></trkpt><trkpt lat="43.0302515" lon="13.0916428"><ele>563.0</ele><time>2026-04-26T09:31:32.954Z</time></trkpt><trkpt lat="43.0303007" lon="13.0914497"><ele>560.0</ele><time>2026-04-26T09:31:33.96Z</time></trkpt><trkpt lat="43.0303502" lon="13.0912744"><ele>557.0</ele><time>2026-04-26T09:31:34.955Z</time></trkpt><trkpt lat="43.0304062" lon="13.0911049"><ele>554.0</ele><time>2026-04-26T09:31:35.961Z</time></trkpt><trkpt lat="43.0304879" lon="13.0909681"><ele>551.0</ele><time>2026-04-26T09:31:36.958Z</time></trkpt><trkpt lat="43.0305996" lon="13.0908709"><ele>551.0</ele><time>2026-04-26T09:31:37.957Z</time></trkpt><trkpt lat="43.0307141" lon="13.0907782"><ele>551.0</ele><time>2026-04-26T09:31:38.959Z</time></trkpt><trkpt lat="43.0308761" lon="13.0907246"><ele>551.0</ele><time>2026-04-26T09:31:39.956Z</time></trkpt><trkpt lat="43.0310419" lon="13.090683"><ele>548.0</ele><time>2026-04-26T09:31:40.954Z</time></trkpt><trkpt lat="43.0312003" lon="13.0906556"><ele>545.0</ele><time>2026-04-26T09:31:41.958Z</time></trkpt><trkpt lat="43.0313551" lon="13.0906484"><ele>542.0</ele><time>2026-04-26T09:31:42.969Z</time></trkpt><trkpt lat="43.0314993" lon="13.0906716"><ele>542.0</ele><time>2026-04-26T09:31:43.974Z</time></trkpt><trkpt lat="43.0316322" lon="13.090727"><ele>542.0</ele><time>2026-04-26T09:31:44.955Z</time></trkpt><trkpt lat="43.0317429" lon="13.0908147"><ele>542.0</ele><time>2026-04-26T09:31:45.962Z</time></trkpt><trkpt lat="43.031842" lon="13.0909023"><ele>542.0</ele><time>2026-04-26T09:31:46.955Z</time></trkpt><trkpt lat="43.0319437" lon="13.0909828"><ele>544.5</ele><time>2026-04-26T09:31:47.956Z</time></trkpt><trkpt lat="43.032069" lon="13.0909793"><ele>547.0</ele><time>2026-04-26T09:31:48.97Z</time></trkpt><trkpt lat="43.0321947" lon="13.0909493"><ele>549.5</ele><time>2026-04-26T09:31:49.969Z</time></trkpt><trkpt lat="43.0323352" lon="13.0909008"><ele>552.0</ele><time>2026-04-26T09:31:50.963Z</time></trkpt><trkpt lat="43.032499" lon="13.0908351"><ele>552.0</ele><time>2026-04-26T09:31:51.963Z</time></trkpt><trkpt lat="43.0326745" lon="13.0907746"><ele>552.0</ele><time>2026-04-26T09:31:52.956Z</time></trkpt><trkpt lat="43.0328656" lon="13.0907173"><ele>552.0</ele><time>2026-04-26T09:31:53.96Z</time></trkpt><trkpt lat="43.0330556" lon="13.0906566"><ele>547.3333333333334</ele><time>2026-04-26T09:31:54.968Z</time></trkpt><trkpt lat="43.0332379" lon="13.090598"><ele>542.6666666666667</ele><time>2026-04-26T09:31:55.965Z</time></trkpt><trkpt lat="43.0334132" lon="13.090539"><ele>538.0</ele><time>2026-04-26T09:31:56.958Z</time></trkpt><trkpt lat="43.0335788" lon="13.0904732"><ele>537.0</ele><time>2026-04-26T09:31:57.955Z</time></trkpt><trkpt lat="43.0337378" lon="13.0904031"><ele>536.0</ele><time>2026-04-26T09:31:58.966Z</time></trkpt><trkpt lat="43.03389" lon="13.09034"><ele>535.0</ele><time>2026-04-26T09:31:59.959Z</time></trkpt><trkpt lat="43.0340589" lon="13.0903126"><ele>534.6666666666667</ele><time>2026-04-26T09:32:00.954Z</time></trkpt><trkpt lat="43.0342407" lon="13.0903381"><ele>534.3333333333334</ele><time>2026-04-26T09:32:01.96Z</time></trkpt><trkpt lat="43.0344257" lon="13.0903701"><ele>534.0</ele><time>2026-04-26T09:32:02.956Z</time></trkpt><trkpt lat="43.0346146" lon="13.090398"><ele>534.0</ele><time>2026-04-26T09:32:03.957Z</time></trkpt><trkpt lat="43.0347994" lon="13.0904176"><ele>534.0</ele><time>2026-04-26T09:32:04.955Z</time></trkpt><trkpt lat="43.0349814" lon="13.090428"><ele>534.0</ele><time>2026-04-26T09:32:05.956Z</time></trkpt><trkpt lat="43.0351574" lon="13.0904319"><ele>532.0</ele><time>2026-04-26T09:32:06.96Z</time></trkpt><trkpt lat="43.0353286" lon="13.0904221"><ele>530.0</ele><time>2026-04-26T09:32:07.96Z</time></trkpt><trkpt lat="43.0354925" lon="13.0904105"><ele>528.0</ele><time>2026-04-26T09:32:08.958Z</time></trkpt><trkpt lat="43.0356538" lon="13.0904024"><ele>527.75</ele><time>2026-04-26T09:32:09.958Z</time></trkpt><trkpt lat="43.0358065" lon="13.0903746"><ele>527.5</ele><time>2026-04-26T09:32:10.957Z</time></trkpt><trkpt lat="43.0359538" lon="13.0903335"><ele>527.25</ele><time>2026-04-26T09:32:11.959Z</time></trkpt><trkpt lat="43.0360853" lon="13.0902521"><ele>527.0</ele><time>2026-04-26T09:32:12.964Z</time></trkpt><trkpt lat="43.0362035" lon="13.0901407"><ele>527.0</ele><time>2026-04-26T09:32:13.96Z</time></trkpt><trkpt lat="43.0363091" lon="13.0899956"><ele>527.0</ele><time>2026-04-26T09:32:14.975Z</time></trkpt><trkpt lat="43.0364128" lon="13.0898643"><ele>527.0</ele><time>2026-04-26T09:32:15.959Z</time></trkpt><trkpt lat="43.0365089" lon="13.0896953"><ele>527.0</ele><time>2026-04-26T09:32:16.959Z</time></trkpt><trkpt lat="43.0365933" lon="13.0895358"><ele>526.2</ele><time>2026-04-26T09:32:17.96Z</time></trkpt><trkpt lat="43.0366856" lon="13.0894119"><ele>525.4000000000001</ele><time>2026-04-26T09:32:18.957Z</time></trkpt><trkpt lat="43.0367891" lon="13.0893219"><ele>524.5999999999999</ele><time>2026-04-26T09:32:19.959Z</time></trkpt><trkpt lat="43.0368884" lon="13.0892558"><ele>523.8</ele><time>2026-04-26T09:32:20.965Z</time></trkpt><trkpt lat="43.0369713" lon="13.0892218"><ele>523.0</ele><time>2026-04-26T09:32:21.956Z</time></trkpt><trkpt lat="43.0370631" lon="13.0891923"><ele>523.0</ele><time>2026-04-26T09:32:23.958Z</time></trkpt><trkpt lat="43.0371272" lon="13.0891728"><ele>523.0</ele><time>2026-04-26T09:32:29.963Z</time></trkpt><trkpt lat="43.0372183" lon="13.08916"><ele>523.0</ele><time>2026-04-26T09:32:40.968Z</time></trkpt><trkpt lat="43.0372202" lon="13.0893074"><ele>523.0</ele><time>2026-04-26T09:32:42.964Z</time></trkpt><trkpt lat="43.0372204" lon="13.089452"><ele>523.0</ele><time>2026-04-26T09:32:43.959Z</time></trkpt><trkpt lat="43.0372451" lon="13.0896377"><ele>523.0</ele><time>2026-04-26T09:32:44.973Z</time></trkpt><trkpt lat="43.0372826" lon="13.0898504"><ele>523.0</ele><time>2026-04-26T09:32:45.964Z</time></trkpt><trkpt lat="43.0373194" lon="13.0900868"><ele>523.0</ele><time>2026-04-26T09:32:46.955Z</time></trkpt><trkpt lat="43.0373606" lon="13.0903291"><ele>525.3333333333334</ele><time>2026-04-26T09:32:47.957Z</time></trkpt><trkpt lat="43.0374149" lon="13.0905801"><ele>527.6666666666666</ele><time>2026-04-26T09:32:48.959Z</time></trkpt><trkpt lat="43.037474" lon="13.0907986"><ele>530.0</ele><time>2026-04-26T09:32:49.96Z</time></trkpt><trkpt lat="43.0375508" lon="13.0910006"><ele>531.75</ele><time>2026-04-26T09:32:50.959Z</time></trkpt><trkpt lat="43.0376281" lon="13.0911526"><ele>533.5</ele><time>2026-04-26T09:32:51.957Z</time></trkpt><trkpt lat="43.0377092" lon="13.0912622"><ele>535.25</ele><time>2026-04-26T09:32:52.959Z</time></trkpt><trkpt lat="43.0377914" lon="13.0913435"><ele>537.0</ele><time>2026-04-26T09:32:53.956Z</time></trkpt><trkpt lat="43.037889" lon="13.091318"><ele>537.0</ele><time>2026-04-26T09:32:54.961Z</time></trkpt><trkpt lat="43.0379525" lon="13.0911957"><ele>537.0</ele><time>2026-04-26T09:32:55.96Z</time></trkpt><trkpt lat="43.0379934" lon="13.0910218"><ele>537.0</ele><time>2026-04-26T09:32:56.957Z</time></trkpt><trkpt lat="43.0379862" lon="13.0908089"><ele>537.0</ele><time>2026-04-26T09:32:57.956Z</time></trkpt><trkpt lat="43.0379382" lon="13.0905823"><ele>534.3333333333334</ele><time>2026-04-26T09:32:58.955Z</time></trkpt><trkpt lat="43.0378946" lon="13.0903623"><ele>531.6666666666667</ele><time>2026-04-26T09:32:59.956Z</time></trkpt><trkpt lat="43.0378711" lon="13.0901761"><ele>529.0</ele><time>2026-04-26T09:33:00.959Z</time></trkpt><trkpt lat="43.0379052" lon="13.0899755"><ele>526.6666666666667</ele><time>2026-04-26T09:33:01.96Z</time></trkpt><trkpt lat="43.0380118" lon="13.0897953"><ele>524.3333333333334</ele><time>2026-04-26T09:33:02.958Z</time></trkpt><trkpt lat="43.038131" lon="13.0896071"><ele>522.0</ele><time>2026-04-26T09:33:03.955Z</time></trkpt><trkpt lat="43.0382711" lon="13.089409"><ele>523.6666666666666</ele><time>2026-04-26T09:33:04.957Z</time></trkpt><trkpt lat="43.0384129" lon="13.0891918"><ele>525.3333333333333</ele><time>2026-04-26T09:33:05.964Z</time></trkpt><trkpt lat="43.0385638" lon="13.0889645"><ele>527.0</ele><time>2026-04-26T09:33:06.956Z</time></trkpt><trkpt lat="43.0387135" lon="13.0887536"><ele>527.0</ele><time>2026-04-26T09:33:07.955Z</time></trkpt><trkpt lat="43.0388638" lon="13.0885606"><ele>527.0</ele><time>2026-04-26T09:33:08.963Z</time></trkpt><trkpt lat="43.0390051" lon="13.0883913"><ele>527.0</ele><time>2026-04-26T09:33:09.962Z</time></trkpt><trkpt lat="43.0391349" lon="13.0882426"><ele>529.5</ele><time>2026-04-26T09:33:10.98Z</time></trkpt><trkpt lat="43.0392542" lon="13.088135"><ele>532.0</ele><time>2026-04-26T09:33:11.965Z</time></trkpt><trkpt lat="43.0393697" lon="13.0880973"><ele>534.5</ele><time>2026-04-26T09:33:12.956Z</time></trkpt><trkpt lat="43.0394621" lon="13.0881398"><ele>537.0</ele><time>2026-04-26T09:33:13.96Z</time></trkpt><trkpt lat="43.0395254" lon="13.0882536"><ele>541.0</ele><time>2026-04-26T09:33:14.961Z</time></trkpt><trkpt lat="43.0395522" lon="13.088424"><ele>545.0</ele><time>2026-04-26T09:33:15.956Z</time></trkpt><trkpt lat="43.0395559" lon="13.0886378"><ele>549.0</ele><time>2026-04-26T09:33:16.959Z</time></trkpt><trkpt lat="43.0395592" lon="13.0888744"><ele>550.6666666666666</ele><time>2026-04-26T09:33:17.953Z</time></trkpt><trkpt lat="43.0395646" lon="13.0891377"><ele>552.3333333333333</ele><time>2026-04-26T09:33:18.96Z</time></trkpt><trkpt lat="43.0395671" lon="13.0894118"><ele>554.0</ele><time>2026-04-26T09:33:19.958Z</time></trkpt><trkpt lat="43.0395541" lon="13.0896627"><ele>554.0</ele><time>2026-04-26T09:33:20.958Z</time></trkpt><trkpt lat="43.0395271" lon="13.0898816"><ele>554.0</ele><time>2026-04-26T09:33:21.957Z</time></trkpt><trkpt lat="43.0395025" lon="13.0900966"><ele>554.0</ele><time>2026-04-26T09:33:22.959Z</time></trkpt><trkpt lat="43.0395095" lon="13.0903153"><ele>558.0</ele><time>2026-04-26T09:33:23.958Z</time></trkpt><trkpt lat="43.039566" lon="13.0905355"><ele>562.0</ele><time>2026-04-26T09:33:24.962Z</time></trkpt><trkpt lat="43.0396558" lon="13.090766"><ele>566.0</ele><time>2026-04-26T09:33:25.955Z</time></trkpt><trkpt lat="43.039766" lon="13.0910019"><ele>567.6666666666666</ele><time>2026-04-26T09:33:26.958Z</time></trkpt><trkpt lat="43.0398771" lon="13.0912528"><ele>569.3333333333334</ele><time>2026-04-26T09:33:27.959Z</time></trkpt><trkpt lat="43.0399884" lon="13.0915116"><ele>571.0</ele><time>2026-04-26T09:33:28.961Z</time></trkpt><trkpt lat="43.0400937" lon="13.091767"><ele>574.3333333333334</ele><time>2026-04-26T09:33:29.964Z</time></trkpt><trkpt lat="43.0401791" lon="13.0920032"><ele>577.6666666666666</ele><time>2026-04-26T09:33:30.961Z</time></trkpt><trkpt lat="43.0402605" lon="13.0922133"><ele>581.0</ele><time>2026-04-26T09:33:31.956Z</time></trkpt><trkpt lat="43.0403608" lon="13.0923814"><ele>580.3333333333333</ele><time>2026-04-26T09:33:32.963Z</time></trkpt><trkpt lat="43.0404926" lon="13.0925113"><ele>579.6666666666666</ele><time>2026-04-26T09:33:33.965Z</time></trkpt><trkpt lat="43.0406092" lon="13.0926433"><ele>579.0</ele><time>2026-04-26T09:33:34.957Z</time></trkpt><trkpt lat="43.0406883" lon="13.0928346"><ele>579.0</ele><time>2026-04-26T09:33:35.959Z</time></trkpt><trkpt lat="43.0407357" lon="13.0930559"><ele>579.0</ele><time>2026-04-26T09:33:36.952Z</time></trkpt><trkpt lat="43.0407799" lon="13.0932643"><ele>579.0</ele><time>2026-04-26T09:33:37.959Z</time></trkpt><trkpt lat="43.0408201" lon="13.0934304"><ele>582.0</ele><time>2026-04-26T09:33:38.959Z</time></trkpt><trkpt lat="43.0408834" lon="13.0935517"><ele>585.0</ele><time>2026-04-26T09:33:39.955Z</time></trkpt><trkpt lat="43.0409711" lon="13.0936114"><ele>588.0</ele><time>2026-04-26T09:33:40.96Z</time></trkpt><trkpt lat="43.0410652" lon="13.0936157"><ele>591.0</ele><time>2026-04-26T09:33:41.96Z</time></trkpt><trkpt lat="43.0411662" lon="13.0935513"><ele>594.0</ele><time>2026-04-26T09:33:42.96Z</time></trkpt><trkpt lat="43.0412186" lon="13.0933934"><ele>595.0</ele><time>2026-04-26T09:33:43.963Z</time></trkpt><trkpt lat="43.041253" lon="13.0931943"><ele>596.0</ele><time>2026-04-26T09:33:44.955Z</time></trkpt><trkpt lat="43.0411805" lon="13.0929602"><ele>597.0</ele><time>2026-04-26T09:33:45.973Z</time></trkpt><trkpt lat="43.0411146" lon="13.0927172"><ele>597.0</ele><time>2026-04-26T09:33:46.958Z</time></trkpt><trkpt lat="43.0410482" lon="13.0924617"><ele>597.0</ele><time>2026-04-26T09:33:47.96Z</time></trkpt><trkpt lat="43.0409981" lon="13.0922305"><ele>597.0</ele><time>2026-04-26T09:33:48.956Z</time></trkpt><trkpt lat="43.0409683" lon="13.0920143"><ele>598.6666666666666</ele><time>2026-04-26T09:33:49.965Z</time></trkpt><trkpt lat="43.0409396" lon="13.091808"><ele>600.3333333333333</ele><time>2026-04-26T09:33:50.965Z</time></trkpt><trkpt lat="43.0409875" lon="13.0915957"><ele>602.0</ele><time>2026-04-26T09:33:51.962Z</time></trkpt><trkpt lat="43.0410661" lon="13.0913829"><ele>602.0</ele><time>2026-04-26T09:33:52.961Z</time></trkpt><trkpt lat="43.0411462" lon="13.0911981"><ele>602.0</ele><time>2026-04-26T09:33:53.958Z</time></trkpt><trkpt lat="43.0412381" lon="13.0910599"><ele>602.0</ele><time>2026-04-26T09:33:54.956Z</time></trkpt><trkpt lat="43.041355" lon="13.0909653"><ele>602.0</ele><time>2026-04-26T09:33:55.959Z</time></trkpt><trkpt lat="43.0415016" lon="13.0909182"><ele>605.25</ele><time>2026-04-26T09:33:56.959Z</time></trkpt><trkpt lat="43.0416618" lon="13.0908958"><ele>608.5</ele><time>2026-04-26T09:33:57.958Z</time></trkpt><trkpt lat="43.0418054" lon="13.0908789"><ele>611.75</ele><time>2026-04-26T09:33:58.959Z</time></trkpt><trkpt lat="43.0419257" lon="13.0908647"><ele>615.0</ele><time>2026-04-26T09:33:59.957Z</time></trkpt><trkpt lat="43.0420246" lon="13.0908566"><ele>615.0</ele><time>2026-04-26T09:34:00.959Z</time></trkpt><trkpt lat="43.0421111" lon="13.0908597"><ele>615.0</ele><time>2026-04-26T09:34:01.96Z</time></trkpt><trkpt lat="43.0422021" lon="13.0908929"><ele>615.0</ele><time>2026-04-26T09:34:02.959Z</time></trkpt><trkpt lat="43.042283" lon="13.0909866"><ele>615.0</ele><time>2026-04-26T09:34:03.954Z</time></trkpt><trkpt lat="43.0423373" lon="13.0911451"><ele>615.0</ele><time>2026-04-26T09:34:04.963Z</time></trkpt><trkpt lat="43.0423919" lon="13.0913281"><ele>615.0</ele><time>2026-04-26T09:34:05.958Z</time></trkpt><trkpt lat="43.0424243" lon="13.0915663"><ele>615.0</ele><time>2026-04-26T09:34:06.962Z</time></trkpt><trkpt lat="43.0424574" lon="13.0918167"><ele>615.0</ele><time>2026-04-26T09:34:07.967Z</time></trkpt><trkpt lat="43.0424792" lon="13.0920817"><ele>616.3333333333334</ele><time>2026-04-26T09:34:08.976Z</time></trkpt><trkpt lat="43.042475" lon="13.09233"><ele>617.6666666666667</ele><time>2026-04-26T09:34:09.962Z</time></trkpt><trkpt lat="43.042432" lon="13.0925723"><ele>619.0</ele><time>2026-04-26T09:34:10.958Z</time></trkpt><trkpt lat="43.042351" lon="13.0928032"><ele>619.0</ele><time>2026-04-26T09:34:11.961Z</time></trkpt><trkpt lat="43.0422699" lon="13.0930008"><ele>619.0</ele><time>2026-04-26T09:34:12.959Z</time></trkpt><trkpt lat="43.0422024" lon="13.0931761"><ele>619.0</ele><time>2026-04-26T09:34:13.976Z</time></trkpt><trkpt lat="43.0421617" lon="13.0933397"><ele>619.0</ele><time>2026-04-26T09:34:14.964Z</time></trkpt><trkpt lat="43.0421626" lon="13.093511"><ele>620.3333333333334</ele><time>2026-04-26T09:34:15.957Z</time></trkpt><trkpt lat="43.0422113" lon="13.0936927"><ele>621.6666666666666</ele><time>2026-04-26T09:34:16.961Z</time></trkpt><trkpt lat="43.042294" lon="13.0938871"><ele>623.0</ele><time>2026-04-26T09:34:17.957Z</time></trkpt><trkpt lat="43.0423923" lon="13.0941014"><ele>629.0</ele><time>2026-04-26T09:34:18.96Z</time></trkpt><trkpt lat="43.0425018" lon="13.0943317"><ele>635.0</ele><time>2026-04-26T09:34:19.968Z</time></trkpt><trkpt lat="43.0426103" lon="13.0945696"><ele>641.0</ele><time>2026-04-26T09:34:20.965Z</time></trkpt><trkpt lat="43.0427181" lon="13.0947889"><ele>640.6666666666666</ele><time>2026-04-26T09:34:21.959Z</time></trkpt><trkpt lat="43.0428487" lon="13.0949903"><ele>640.3333333333334</ele><time>2026-04-26T09:34:22.96Z</time></trkpt><trkpt lat="43.04301" lon="13.0951616"><ele>640.0</ele><time>2026-04-26T09:34:23.961Z</time></trkpt><trkpt lat="43.0431828" lon="13.0953214"><ele>640.6666666666667</ele><time>2026-04-26T09:34:24.958Z</time></trkpt><trkpt lat="43.0433623" lon="13.0954918"><ele>641.3333333333334</ele><time>2026-04-26T09:34:25.962Z</time></trkpt><trkpt lat="43.043527" lon="13.0957007"><ele>642.0</ele><time>2026-04-26T09:34:26.956Z</time></trkpt><trkpt lat="43.0436656" lon="13.0959525"><ele>644.5</ele><time>2026-04-26T09:34:27.957Z</time></trkpt><trkpt lat="43.0437928" lon="13.0962202"><ele>647.0</ele><time>2026-04-26T09:34:28.961Z</time></trkpt><trkpt lat="43.0439213" lon="13.0964943"><ele>649.0</ele><time>2026-04-26T09:34:29.958Z</time></trkpt><trkpt lat="43.0440542" lon="13.0967724"><ele>651.0</ele><time>2026-04-26T09:34:30.959Z</time></trkpt><trkpt lat="43.0441937" lon="13.0970553"><ele>651.0</ele><time>2026-04-26T09:34:31.962Z</time></trkpt><trkpt lat="43.044341" lon="13.0973415"><ele>651.0</ele><time>2026-04-26T09:34:32.958Z</time></trkpt><trkpt lat="43.0444944" lon="13.0976362"><ele>652.0</ele><time>2026-04-26T09:34:33.964Z</time></trkpt><trkpt lat="43.0446471" lon="13.0979421"><ele>653.0</ele><time>2026-04-26T09:34:34.96Z</time></trkpt><trkpt lat="43.0448018" lon="13.0982589"><ele>653.5</ele><time>2026-04-26T09:34:35.962Z</time></trkpt><trkpt lat="43.0449554" lon="13.0985732"><ele>654.0</ele><time>2026-04-26T09:34:36.966Z</time></trkpt><trkpt lat="43.0451077" lon="13.0988769"><ele>660.0</ele><time>2026-04-26T09:34:37.966Z</time></trkpt><trkpt lat="43.0452492" lon="13.0991544"><ele>666.0</ele><time>2026-04-26T09:34:38.964Z</time></trkpt><trkpt lat="43.045382" lon="13.0994099"><ele>666.0</ele><time>2026-04-26T09:34:39.967Z</time></trkpt><trkpt lat="43.0455094" lon="13.0996586"><ele>666.0</ele><time>2026-04-26T09:34:40.96Z</time></trkpt><trkpt lat="43.045635" lon="13.0999109"><ele>666.0</ele><time>2026-04-26T09:34:41.962Z</time></trkpt><trkpt lat="43.0457564" lon="13.1001762"><ele>671.0</ele><time>2026-04-26T09:34:42.96Z</time></trkpt><trkpt lat="43.0458631" lon="13.1004542"><ele>676.0</ele><time>2026-04-26T09:34:43.962Z</time></trkpt><trkpt lat="43.0459572" lon="13.1007348"><ele>678.6666666666667</ele><time>2026-04-26T09:34:44.962Z</time></trkpt><trkpt lat="43.0460422" lon="13.1009967"><ele>681.3333333333334</ele><time>2026-04-26T09:34:45.968Z</time></trkpt><trkpt lat="43.0461186" lon="13.1012369"><ele>684.0</ele><time>2026-04-26T09:34:46.963Z</time></trkpt><trkpt lat="43.0461862" lon="13.1014584"><ele>686.75</ele><time>2026-04-26T09:34:47.962Z</time></trkpt><trkpt lat="43.0462403" lon="13.1016643"><ele>689.5</ele><time>2026-04-26T09:34:48.958Z</time></trkpt><trkpt lat="43.0462617" lon="13.1018558"><ele>692.25</ele><time>2026-04-26T09:34:49.962Z</time></trkpt><trkpt lat="43.0462438" lon="13.102051"><ele>695.0</ele><time>2026-04-26T09:34:50.962Z</time></trkpt><trkpt lat="43.0461869" lon="13.1022391"><ele>695.0</ele><time>2026-04-26T09:34:51.965Z</time></trkpt><trkpt lat="43.0460981" lon="13.1024057"><ele>695.0</ele><time>2026-04-26T09:34:52.96Z</time></trkpt><trkpt lat="43.0459896" lon="13.1025266"><ele>695.0</ele><time>2026-04-26T09:34:53.964Z</time></trkpt><trkpt lat="43.0458629" lon="13.1025888"><ele>695.0</ele><time>2026-04-26T09:34:54.965Z</time></trkpt><trkpt lat="43.0457129" lon="13.1026016"><ele>698.0</ele><time>2026-04-26T09:34:55.963Z</time></trkpt><trkpt lat="43.0455477" lon="13.1025679"><ele>701.0</ele><time>2026-04-26T09:34:56.962Z</time></trkpt><trkpt lat="43.0453771" lon="13.1024996"><ele>704.0</ele><time>2026-04-26T09:34:57.97Z</time></trkpt><trkpt lat="43.0452132" lon="13.1024186"><ele>705.0</ele><time>2026-04-26T09:34:58.964Z</time></trkpt><trkpt lat="43.0450479" lon="13.1024121"><ele>706.0</ele><time>2026-04-26T09:34:59.958Z</time></trkpt><trkpt lat="43.0448841" lon="13.1024336"><ele>707.0</ele><time>2026-04-26T09:35:00.964Z</time></trkpt><trkpt lat="43.0447399" lon="13.1025418"><ele>707.0</ele><time>2026-04-26T09:35:01.961Z</time></trkpt><trkpt lat="43.0446167" lon="13.1026824"><ele>707.0</ele><time>2026-04-26T09:35:02.976Z</time></trkpt><trkpt lat="43.0445343" lon="13.1028638"><ele>707.0</ele><time>2026-04-26T09:35:03.969Z</time></trkpt><trkpt lat="43.0444856" lon="13.1030814"><ele>711.0</ele><time>2026-04-26T09:35:04.959Z</time></trkpt><trkpt lat="43.0444774" lon="13.1033216"><ele>715.0</ele><time>2026-04-26T09:35:05.97Z</time></trkpt><trkpt lat="43.0444868" lon="13.1035367"><ele>719.0</ele><time>2026-04-26T09:35:06.964Z</time></trkpt><trkpt lat="43.0444601" lon="13.1037133"><ele>719.0</ele><time>2026-04-26T09:35:07.981Z</time></trkpt><trkpt lat="43.0443957" lon="13.1038417"><ele>719.0</ele><time>2026-04-26T09:35:08.966Z</time></trkpt><trkpt lat="43.0442915" lon="13.1039381"><ele>719.0</ele><time>2026-04-26T09:35:09.969Z</time></trkpt><trkpt lat="43.0441567" lon="13.1040341"><ele>719.0</ele><time>2026-04-26T09:35:10.963Z</time></trkpt><trkpt lat="43.0440064" lon="13.1041351"><ele>723.0</ele><time>2026-04-26T09:35:11.967Z</time></trkpt><trkpt lat="43.043842" lon="13.1042357"><ele>727.0</ele><time>2026-04-26T09:35:12.968Z</time></trkpt><trkpt lat="43.0436773" lon="13.1043457"><ele>731.0</ele><time>2026-04-26T09:35:13.965Z</time></trkpt><trkpt lat="43.0435067" lon="13.1044409"><ele>731.0</ele><time>2026-04-26T09:35:14.972Z</time></trkpt><trkpt lat="43.0433666" lon="13.1045479"><ele>731.0</ele><time>2026-04-26T09:35:15.965Z</time></trkpt><trkpt lat="43.0432358" lon="13.1046713"><ele>731.0</ele><time>2026-04-26T09:35:16.981Z</time></trkpt><trkpt lat="43.043118" lon="13.1048272"><ele>729.0</ele><time>2026-04-26T09:35:17.96Z</time></trkpt><trkpt lat="43.0430256" lon="13.1050063"><ele>727.0</ele><time>2026-04-26T09:35:18.963Z</time></trkpt><trkpt lat="43.0429721" lon="13.1052188"><ele>725.0</ele><time>2026-04-26T09:35:19.962Z</time></trkpt><trkpt lat="43.0429507" lon="13.1054658"><ele>725.0</ele><time>2026-04-26T09:35:20.961Z</time></trkpt><trkpt lat="43.0429438" lon="13.1057329"><ele>725.0</ele><time>2026-04-26T09:35:21.975Z</time></trkpt><trkpt lat="43.0429361" lon="13.1060183"><ele>725.0</ele><time>2026-04-26T09:35:22.963Z</time></trkpt><trkpt lat="43.042925" lon="13.1063151"><ele>727.3333333333333</ele><time>2026-04-26T09:35:23.963Z</time></trkpt><trkpt lat="43.042915" lon="13.1065981"><ele>729.6666666666666</ele><time>2026-04-26T09:35:24.963Z</time></trkpt><trkpt lat="43.0429085" lon="13.1068624"><ele>732.0</ele><time>2026-04-26T09:35:25.96Z</time></trkpt><trkpt lat="43.0429029" lon="13.1071085"><ele>732.0</ele><time>2026-04-26T09:35:26.962Z</time></trkpt><trkpt lat="43.0428926" lon="13.1073354"><ele>732.0</ele><time>2026-04-26T09:35:27.97Z</time></trkpt><trkpt lat="43.0428586" lon="13.1075356"><ele>732.0</ele><time>2026-04-26T09:35:28.963Z</time></trkpt><trkpt lat="43.0427883" lon="13.1076866"><ele>732.0</ele><time>2026-04-26T09:35:29.964Z</time></trkpt><trkpt lat="43.0426895" lon="13.1077711"><ele>734.0</ele><time>2026-04-26T09:35:30.959Z</time></trkpt><trkpt lat="43.0425894" lon="13.1077874"><ele>736.0</ele><time>2026-04-26T09:35:31.959Z</time></trkpt><trkpt lat="43.0425" lon="13.1077582"><ele>738.0</ele><time>2026-04-26T09:35:32.967Z</time></trkpt><trkpt lat="43.0424132" lon="13.1076932"><ele>740.0</ele><time>2026-04-26T09:35:33.964Z</time></trkpt><trkpt lat="43.0423306" lon="13.1075881"><ele>742.0</ele><time>2026-04-26T09:35:34.973Z</time></trkpt><trkpt lat="43.0422439" lon="13.1074591"><ele>742.6666666666667</ele><time>2026-04-26T09:35:35.964Z</time></trkpt><trkpt lat="43.0421338" lon="13.107322"><ele>743.3333333333334</ele><time>2026-04-26T09:35:36.972Z</time></trkpt><trkpt lat="43.0420074" lon="13.107177"><ele>744.0</ele><time>2026-04-26T09:35:37.967Z</time></trkpt><trkpt lat="43.0418751" lon="13.1070328"><ele>744.0</ele><time>2026-04-26T09:35:38.978Z</time></trkpt><trkpt lat="43.0417292" lon="13.1069125"><ele>744.0</ele><time>2026-04-26T09:35:39.966Z</time></trkpt><trkpt lat="43.0415689" lon="13.1068308"><ele>744.0</ele><time>2026-04-26T09:35:40.966Z</time></trkpt><trkpt lat="43.0413955" lon="13.10679"><ele>748.0</ele><time>2026-04-26T09:35:41.967Z</time></trkpt><trkpt lat="43.0412141" lon="13.1067817"><ele>752.0</ele><time>2026-04-26T09:35:42.969Z</time></trkpt><trkpt lat="43.0410344" lon="13.1068016"><ele>756.0</ele><time>2026-04-26T09:35:43.963Z</time></trkpt><trkpt lat="43.0408644" lon="13.1068566"><ele>754.3333333333334</ele><time>2026-04-26T09:35:44.959Z</time></trkpt><trkpt lat="43.0407131" lon="13.1069489"><ele>752.6666666666667</ele><time>2026-04-26T09:35:45.968Z</time></trkpt><trkpt lat="43.040583" lon="13.1070803"><ele>751.0</ele><time>2026-04-26T09:35:46.966Z</time></trkpt><trkpt lat="43.0404825" lon="13.1072456"><ele>753.5</ele><time>2026-04-26T09:35:47.959Z</time></trkpt><trkpt lat="43.0404222" lon="13.1074304"><ele>756.0</ele><time>2026-04-26T09:35:48.976Z</time></trkpt><trkpt lat="43.0404087" lon="13.1076234"><ele>758.5</ele><time>2026-04-26T09:35:49.969Z</time></trkpt><trkpt lat="43.0404431" lon="13.1078359"><ele>761.0</ele><time>2026-04-26T09:35:50.962Z</time></trkpt><trkpt lat="43.0405144" lon="13.1080597"><ele>765.0</ele><time>2026-04-26T09:35:51.963Z</time></trkpt><trkpt lat="43.0405868" lon="13.1083007"><ele>769.0</ele><time>2026-04-26T09:35:52.96Z</time></trkpt><trkpt lat="43.040613" lon="13.1085495"><ele>773.0</ele><time>2026-04-26T09:35:53.959Z</time></trkpt><trkpt lat="43.0405821" lon="13.1088043"><ele>773.0</ele><time>2026-04-26T09:35:54.96Z</time></trkpt><trkpt lat="43.0405012" lon="13.109053"><ele>773.0</ele><time>2026-04-26T09:35:55.969Z</time></trkpt><trkpt lat="43.0403873" lon="13.1092898"><ele>773.0</ele><time>2026-04-26T09:35:56.96Z</time></trkpt><trkpt lat="43.0402484" lon="13.1095118"><ele>773.3333333333334</ele><time>2026-04-26T09:35:57.962Z</time></trkpt><trkpt lat="43.0400966" lon="13.1097093"><ele>773.6666666666667</ele><time>2026-04-26T09:35:58.968Z</time></trkpt><trkpt lat="43.0399462" lon="13.109889"><ele>774.0</ele><time>2026-04-26T09:35:59.964Z</time></trkpt><trkpt lat="43.039796" lon="13.1100676"><ele>775.6666666666667</ele><time>2026-04-26T09:36:00.971Z</time></trkpt><trkpt lat="43.0396449" lon="13.1102489"><ele>777.3333333333334</ele><time>2026-04-26T09:36:01.965Z</time></trkpt><trkpt lat="43.03949" lon="13.1104286"><ele>779.0</ele><time>2026-04-26T09:36:02.961Z</time></trkpt><trkpt lat="43.0393344" lon="13.1106002"><ele>781.6666666666667</ele><time>2026-04-26T09:36:03.964Z</time></trkpt><trkpt lat="43.0391801" lon="13.1107673"><ele>784.3333333333333</ele><time>2026-04-26T09:36:04.97Z</time></trkpt><trkpt lat="43.0390284" lon="13.1109351"><ele>787.0</ele><time>2026-04-26T09:36:05.962Z</time></trkpt><trkpt lat="43.0388809" lon="13.1111113"><ele>789.0</ele><time>2026-04-26T09:36:06.973Z</time></trkpt><trkpt lat="43.0387387" lon="13.1112948"><ele>791.0</ele><time>2026-04-26T09:36:07.974Z</time></trkpt><trkpt lat="43.0386062" lon="13.1114859"><ele>793.0</ele><time>2026-04-26T09:36:08.965Z</time></trkpt><trkpt lat="43.0384861" lon="13.1116889"><ele>794.3333333333333</ele><time>2026-04-26T09:36:09.98Z</time></trkpt><trkpt lat="43.038376" lon="13.1119077"><ele>795.6666666666667</ele><time>2026-04-26T09:36:10.97Z</time></trkpt><trkpt lat="43.0382688" lon="13.11213"><ele>797.0</ele><time>2026-04-26T09:36:11.966Z</time></trkpt><trkpt lat="43.0381546" lon="13.1123347"><ele>801.6666666666667</ele><time>2026-04-26T09:36:12.966Z</time></trkpt><trkpt lat="43.0380299" lon="13.1125072"><ele>806.3333333333333</ele><time>2026-04-26T09:36:13.966Z</time></trkpt><trkpt lat="43.0378963" lon="13.112643"><ele>811.0</ele><time>2026-04-26T09:36:14.965Z</time></trkpt><trkpt lat="43.0377566" lon="13.1127652"><ele>811.0</ele><time>2026-04-26T09:36:15.969Z</time></trkpt><trkpt lat="43.0376279" lon="13.1128881"><ele>811.0</ele><time>2026-04-26T09:36:16.962Z</time></trkpt><trkpt lat="43.0375026" lon="13.1130027"><ele>811.0</ele><time>2026-04-26T09:36:17.962Z</time></trkpt><trkpt lat="43.0374163" lon="13.1131949"><ele>814.6666666666666</ele><time>2026-04-26T09:36:18.96Z</time></trkpt><trkpt lat="43.037343" lon="13.1133995"><ele>818.3333333333333</ele><time>2026-04-26T09:36:19.964Z</time></trkpt><trkpt lat="43.0372786" lon="13.113618"><ele>822.0</ele><time>2026-04-26T09:36:20.97Z</time></trkpt><trkpt lat="43.037221" lon="13.1138319"><ele>822.0</ele><time>2026-04-26T09:36:21.961Z</time></trkpt><trkpt lat="43.0371664" lon="13.1140413"><ele>822.0</ele><time>2026-04-26T09:36:22.968Z</time></trkpt><trkpt lat="43.037105" lon="13.114242"><ele>822.0</ele><time>2026-04-26T09:36:23.967Z</time></trkpt><trkpt lat="43.0370233" lon="13.1144317"><ele>822.0</ele><time>2026-04-26T09:36:24.97Z</time></trkpt><trkpt lat="43.0369337" lon="13.1146234"><ele>822.0</ele><time>2026-04-26T09:36:25.966Z</time></trkpt><trkpt lat="43.0368443" lon="13.1148174"><ele>822.0</ele><time>2026-04-26T09:36:26.97Z</time></trkpt><trkpt lat="43.0367508" lon="13.1150129"><ele>822.3333333333333</ele><time>2026-04-26T09:36:27.964Z</time></trkpt><trkpt lat="43.0366574" lon="13.1152112"><ele>822.6666666666666</ele><time>2026-04-26T09:36:28.968Z</time></trkpt><trkpt lat="43.0365642" lon="13.1154097"><ele>823.0</ele><time>2026-04-26T09:36:29.964Z</time></trkpt><trkpt lat="43.0364726" lon="13.115604"><ele>826.75</ele><time>2026-04-26T09:36:30.964Z</time></trkpt><trkpt lat="43.0363813" lon="13.1157861"><ele>830.5</ele><time>2026-04-26T09:36:31.962Z</time></trkpt><trkpt lat="43.0362891" lon="13.1159439"><ele>834.25</ele><time>2026-04-26T09:36:32.957Z</time></trkpt><trkpt lat="43.036196" lon="13.1160762"><ele>838.0</ele><time>2026-04-26T09:36:33.961Z</time></trkpt><trkpt lat="43.0361152" lon="13.1161953"><ele>838.0</ele><time>2026-04-26T09:36:34.961Z</time></trkpt><trkpt lat="43.0360448" lon="13.1163009"><ele>838.0</ele><time>2026-04-26T09:36:35.964Z</time></trkpt><trkpt lat="43.0360358" lon="13.1164313"><ele>838.0</ele><time>2026-04-26T09:36:36.963Z</time></trkpt><trkpt lat="43.0360671" lon="13.1165632"><ele>838.0</ele><time>2026-04-26T09:36:37.961Z</time></trkpt><trkpt lat="43.0361371" lon="13.1166916"><ele>838.0</ele><time>2026-04-26T09:36:38.973Z</time></trkpt><trkpt lat="43.0362123" lon="13.1168359"><ele>838.0</ele><time>2026-04-26T09:36:39.965Z</time></trkpt><trkpt lat="43.0362723" lon="13.1170192"><ele>838.0</ele><time>2026-04-26T09:36:40.961Z</time></trkpt><trkpt lat="43.0363195" lon="13.1172347"><ele>838.0</ele><time>2026-04-26T09:36:41.966Z</time></trkpt><trkpt lat="43.036369" lon="13.1174681"><ele>840.0</ele><time>2026-04-26T09:36:42.966Z</time></trkpt><trkpt lat="43.0364371" lon="13.117712"><ele>842.0</ele><time>2026-04-26T09:36:43.96Z</time></trkpt><trkpt lat="43.036509" lon="13.1179503"><ele>844.0</ele><time>2026-04-26T09:36:44.959Z</time></trkpt><trkpt lat="43.0365696" lon="13.1181823"><ele>845.3333333333333</ele><time>2026-04-26T09:36:45.96Z</time></trkpt><trkpt lat="43.0365988" lon="13.1184235"><ele>846.6666666666667</ele><time>2026-04-26T09:36:46.967Z</time></trkpt><trkpt lat="43.0366083" lon="13.1186818"><ele>848.0</ele><time>2026-04-26T09:36:47.96Z</time></trkpt><trkpt lat="43.0366153" lon="13.1189478"><ele>848.6666666666667</ele><time>2026-04-26T09:36:48.964Z</time></trkpt><trkpt lat="43.0366261" lon="13.1192186"><ele>849.3333333333333</ele><time>2026-04-26T09:36:49.966Z</time></trkpt><trkpt lat="43.0366443" lon="13.1194919"><ele>850.0</ele><time>2026-04-26T09:36:50.962Z</time></trkpt><trkpt lat="43.0366648" lon="13.1197664"><ele>846.0</ele><time>2026-04-26T09:36:51.96Z</time></trkpt><trkpt lat="43.0366867" lon="13.1200405"><ele>842.0</ele><time>2026-04-26T09:36:52.965Z</time></trkpt><trkpt lat="43.0367084" lon="13.1203113"><ele>838.0</ele><time>2026-04-26T09:36:53.957Z</time></trkpt><trkpt lat="43.0367309" lon="13.1205767"><ele>840.0</ele><time>2026-04-26T09:36:54.961Z</time></trkpt><trkpt lat="43.0367528" lon="13.1208409"><ele>842.0</ele><time>2026-04-26T09:36:55.963Z</time></trkpt><trkpt lat="43.036775" lon="13.1210985"><ele>844.0</ele><time>2026-04-26T09:36:56.959Z</time></trkpt><trkpt lat="43.0367956" lon="13.1213517"><ele>846.0</ele><time>2026-04-26T09:36:57.962Z</time></trkpt><trkpt lat="43.0368145" lon="13.1216004"><ele>848.0</ele><time>2026-04-26T09:36:58.962Z</time></trkpt><trkpt lat="43.0368319" lon="13.1218457"><ele>850.0</ele><time>2026-04-26T09:36:59.96Z</time></trkpt><trkpt lat="43.0368498" lon="13.1220858"><ele>850.0</ele><time>2026-04-26T09:37:00.959Z</time></trkpt><trkpt lat="43.0368682" lon="13.1223187"><ele>850.0</ele><time>2026-04-26T09:37:01.957Z</time></trkpt><trkpt lat="43.0368859" lon="13.1225325"><ele>850.0</ele><time>2026-04-26T09:37:02.962Z</time></trkpt><trkpt lat="43.0369004" lon="13.1227278"><ele>851.0</ele><time>2026-04-26T09:37:03.956Z</time></trkpt><trkpt lat="43.0369159" lon="13.12291"><ele>852.0</ele><time>2026-04-26T09:37:04.958Z</time></trkpt><trkpt lat="43.0369323" lon="13.1230793"><ele>853.0</ele><time>2026-04-26T09:37:05.959Z</time></trkpt><trkpt lat="43.0369452" lon="13.1232358"><ele>854.0</ele><time>2026-04-26T09:37:06.959Z</time></trkpt><trkpt lat="43.0369544" lon="13.1233751"><ele>854.4000000000001</ele><time>2026-04-26T09:37:07.964Z</time></trkpt><trkpt lat="43.0369613" lon="13.1235004"><ele>854.8000000000001</ele><time>2026-04-26T09:37:08.963Z</time></trkpt><trkpt lat="43.0369624" lon="13.1236251"><ele>855.1999999999999</ele><time>2026-04-26T09:37:09.97Z</time></trkpt><trkpt lat="43.0369602" lon="13.1237514"><ele>855.5999999999999</ele><time>2026-04-26T09:37:10.963Z</time></trkpt><trkpt lat="43.0369499" lon="13.1238771"><ele>856.0</ele><time>2026-04-26T09:37:11.959Z</time></trkpt><trkpt lat="43.0369302" lon="13.1240026"><ele>856.0</ele><time>2026-04-26T09:37:12.962Z</time></trkpt><trkpt lat="43.0369013" lon="13.1241258"><ele>855.9999999999999</ele><time>2026-04-26T09:37:13.963Z</time></trkpt><trkpt lat="43.03687" lon="13.1242522"><ele>855.9999999999999</ele><time>2026-04-26T09:37:14.959Z</time></trkpt><trkpt lat="43.0368394" lon="13.1243814"><ele>856.0</ele><time>2026-04-26T09:37:15.974Z</time></trkpt><trkpt lat="43.0368104" lon="13.1245128"><ele>856.0</ele><time>2026-04-26T09:37:16.969Z</time></trkpt><trkpt lat="43.0367845" lon="13.1246479"><ele>856.0</ele><time>2026-04-26T09:37:17.968Z</time></trkpt><trkpt lat="43.0367634" lon="13.124784"><ele>855.9999999999999</ele><time>2026-04-26T09:37:18.974Z</time></trkpt><trkpt lat="43.036753" lon="13.1249216"><ele>855.9999999999999</ele><time>2026-04-26T09:37:19.966Z</time></trkpt><trkpt lat="43.0367595" lon="13.1250611"><ele>856.0</ele><time>2026-04-26T09:37:20.977Z</time></trkpt><trkpt lat="43.0367836" lon="13.1251988"><ele>856.0</ele><time>2026-04-26T09:37:21.963Z</time></trkpt><trkpt lat="43.0368173" lon="13.1253402"><ele>856.0</ele><time>2026-04-26T09:37:22.96Z</time></trkpt><trkpt lat="43.0368526" lon="13.1254848"><ele>856.0</ele><time>2026-04-26T09:37:23.971Z</time></trkpt><trkpt lat="43.0368895" lon="13.1256333"><ele>856.0</ele><time>2026-04-26T09:37:24.962Z</time></trkpt><trkpt lat="43.0369251" lon="13.1257856"><ele>856.0</ele><time>2026-04-26T09:37:25.966Z</time></trkpt><trkpt lat="43.0369596" lon="13.1259421"><ele>856.5</ele><time>2026-04-26T09:37:26.967Z</time></trkpt><trkpt lat="43.0369939" lon="13.1260996"><ele>857.0</ele><time>2026-04-26T09:37:27.968Z</time></trkpt><trkpt lat="43.0370342" lon="13.1262594"><ele>857.5</ele><time>2026-04-26T09:37:28.963Z</time></trkpt><trkpt lat="43.0370848" lon="13.126415"><ele>858.0</ele><time>2026-04-26T09:37:29.962Z</time></trkpt><trkpt lat="43.0371477" lon="13.1265627"><ele>858.0</ele><time>2026-04-26T09:37:30.961Z</time></trkpt><trkpt lat="43.0372215" lon="13.1267012"><ele>858.0</ele><time>2026-04-26T09:37:31.966Z</time></trkpt><trkpt lat="43.0372989" lon="13.1268336"><ele>858.0</ele><time>2026-04-26T09:37:32.97Z</time></trkpt><trkpt lat="43.0373773" lon="13.126961"><ele>858.0</ele><time>2026-04-26T09:37:33.968Z</time></trkpt><trkpt lat="43.0374569" lon="13.127088"><ele>858.0</ele><time>2026-04-26T09:37:34.966Z</time></trkpt><trkpt lat="43.0375376" lon="13.1272181"><ele>858.0</ele><time>2026-04-26T09:37:35.988Z</time></trkpt><trkpt lat="43.0376199" lon="13.127356"><ele>858.0</ele><time>2026-04-26T09:37:36.974Z</time></trkpt><trkpt lat="43.0377039" lon="13.1275"><ele>858.0</ele><time>2026-04-26T09:37:37.967Z</time></trkpt><trkpt lat="43.0377882" lon="13.1276448"><ele>858.0</ele><time>2026-04-26T09:37:38.97Z</time></trkpt><trkpt lat="43.0378693" lon="13.1277876"><ele>858.0</ele><time>2026-04-26T09:37:39.971Z</time></trkpt><trkpt lat="43.0379504" lon="13.1279328"><ele>858.0</ele><time>2026-04-26T09:37:40.972Z</time></trkpt><trkpt lat="43.038036" lon="13.1280762"><ele>858.0</ele><time>2026-04-26T09:37:41.979Z</time></trkpt><trkpt lat="43.0381304" lon="13.1282121"><ele>858.25</ele><time>2026-04-26T09:37:42.966Z</time></trkpt><trkpt lat="43.0382287" lon="13.1283376"><ele>858.5</ele><time>2026-04-26T09:37:43.965Z</time></trkpt><trkpt lat="43.0383291" lon="13.1284608"><ele>858.75</ele><time>2026-04-26T09:37:44.971Z</time></trkpt><trkpt lat="43.0384309" lon="13.1285872"><ele>859.0</ele><time>2026-04-26T09:37:45.964Z</time></trkpt><trkpt lat="43.0385357" lon="13.1287142"><ele>857.5</ele><time>2026-04-26T09:37:46.976Z</time></trkpt><trkpt lat="43.0386393" lon="13.1288334"><ele>856.0</ele><time>2026-04-26T09:37:47.965Z</time></trkpt><trkpt lat="43.0387413" lon="13.1289482"><ele>854.5</ele><time>2026-04-26T09:37:48.965Z</time></trkpt><trkpt lat="43.0388407" lon="13.1290707"><ele>853.0</ele><time>2026-04-26T09:37:49.967Z</time></trkpt><trkpt lat="43.0389428" lon="13.1291908"><ele>852.5</ele><time>2026-04-26T09:37:50.972Z</time></trkpt><trkpt lat="43.0390468" lon="13.1293196"><ele>852.0</ele><time>2026-04-26T09:37:51.98Z</time></trkpt><trkpt lat="43.0391482" lon="13.1294498"><ele>851.5</ele><time>2026-04-26T09:37:52.967Z</time></trkpt><trkpt lat="43.0392538" lon="13.1295783"><ele>851.0</ele><time>2026-04-26T09:37:53.978Z</time></trkpt><trkpt lat="43.0393629" lon="13.1297056"><ele>850.5</ele><time>2026-04-26T09:37:54.976Z</time></trkpt><trkpt lat="43.0394709" lon="13.1298363"><ele>850.0</ele><time>2026-04-26T09:37:55.971Z</time></trkpt><trkpt lat="43.0395779" lon="13.1299719"><ele>849.5</ele><time>2026-04-26T09:37:56.967Z</time></trkpt><trkpt lat="43.0396869" lon="13.1301004"><ele>849.0</ele><time>2026-04-26T09:37:57.977Z</time></trkpt><trkpt lat="43.0397957" lon="13.1302318"><ele>848.75</ele><time>2026-04-26T09:37:58.979Z</time></trkpt><trkpt lat="43.0399036" lon="13.1303631"><ele>848.5</ele><time>2026-04-26T09:37:59.975Z</time></trkpt><trkpt lat="43.040009" lon="13.1304806"><ele>848.25</ele><time>2026-04-26T09:38:00.972Z</time></trkpt><trkpt lat="43.0401195" lon="13.1305681"><ele>848.0</ele><time>2026-04-26T09:38:01.967Z</time></trkpt><trkpt lat="43.040247" lon="13.1306222"><ele>848.0</ele><time>2026-04-26T09:38:02.968Z</time></trkpt><trkpt lat="43.0403855" lon="13.1306563"><ele>848.0</ele><time>2026-04-26T09:38:03.966Z</time></trkpt><trkpt lat="43.0405308" lon="13.1306838"><ele>848.0</ele><time>2026-04-26T09:38:04.974Z</time></trkpt><trkpt lat="43.0406751" lon="13.1307128"><ele>848.0</ele><time>2026-04-26T09:38:05.978Z</time></trkpt><trkpt lat="43.0408138" lon="13.1307483"><ele>846.0</ele><time>2026-04-26T09:38:06.972Z</time></trkpt><trkpt lat="43.0409489" lon="13.1307898"><ele>844.0</ele><time>2026-04-26T09:38:07.975Z</time></trkpt><trkpt lat="43.041088" lon="13.1308265"><ele>842.0</ele><time>2026-04-26T09:38:08.968Z</time></trkpt><trkpt lat="43.0412243" lon="13.1308454"><ele>840.0</ele><time>2026-04-26T09:38:09.971Z</time></trkpt><trkpt lat="43.041351" lon="13.1308533"><ele>840.0</ele><time>2026-04-26T09:38:10.968Z</time></trkpt><trkpt lat="43.0414685" lon="13.1308391"><ele>840.0</ele><time>2026-04-26T09:38:11.968Z</time></trkpt><trkpt lat="43.0415719" lon="13.1307778"><ele>840.0</ele><time>2026-04-26T09:38:12.974Z</time></trkpt><trkpt lat="43.0416561" lon="13.1306832"><ele>840.0</ele><time>2026-04-26T09:38:13.97Z</time></trkpt><trkpt lat="43.0417401" lon="13.1306014"><ele>840.0</ele><time>2026-04-26T09:38:14.987Z</time></trkpt><trkpt lat="43.0418343" lon="13.1305657"><ele>839.4</ele><time>2026-04-26T09:38:15.972Z</time></trkpt><trkpt lat="43.041927" lon="13.130589"><ele>838.8</ele><time>2026-04-26T09:38:16.97Z</time></trkpt><trkpt lat="43.0420042" lon="13.1306742"><ele>838.2</ele><time>2026-04-26T09:38:17.971Z</time></trkpt><trkpt lat="43.0420597" lon="13.1308105"><ele>837.6</ele><time>2026-04-26T09:38:18.964Z</time></trkpt><trkpt lat="43.042089" lon="13.1309795"><ele>837.0</ele><time>2026-04-26T09:38:19.962Z</time></trkpt><trkpt lat="43.0421032" lon="13.131169"><ele>837.0</ele><time>2026-04-26T09:38:20.968Z</time></trkpt><trkpt lat="43.0421148" lon="13.1313606"><ele>837.0</ele><time>2026-04-26T09:38:21.97Z</time></trkpt><trkpt lat="43.0421044" lon="13.1315542"><ele>837.0</ele><time>2026-04-26T09:38:22.963Z</time></trkpt><trkpt lat="43.0420852" lon="13.1317581"><ele>837.0</ele><time>2026-04-26T09:38:23.969Z</time></trkpt><trkpt lat="43.0420827" lon="13.1319547"><ele>834.75</ele><time>2026-04-26T09:38:24.968Z</time></trkpt><trkpt lat="43.0421025" lon="13.1321373"><ele>832.5</ele><time>2026-04-26T09:38:25.959Z</time></trkpt><trkpt lat="43.0421484" lon="13.1322917"><ele>830.25</ele><time>2026-04-26T09:38:26.96Z</time></trkpt><trkpt lat="43.0422262" lon="13.1324078"><ele>828.0</ele><time>2026-04-26T09:38:27.964Z</time></trkpt><trkpt lat="43.0423215" lon="13.1324983"><ele>827.75</ele><time>2026-04-26T09:38:28.961Z</time></trkpt><trkpt lat="43.0424059" lon="13.1326066"><ele>827.5</ele><time>2026-04-26T09:38:29.962Z</time></trkpt><trkpt lat="43.0424549" lon="13.1327545"><ele>827.25</ele><time>2026-04-26T09:38:30.966Z</time></trkpt><trkpt lat="43.0424661" lon="13.1329409"><ele>827.0</ele><time>2026-04-26T09:38:31.958Z</time></trkpt><trkpt lat="43.0424435" lon="13.1331391"><ele>823.6666666666667</ele><time>2026-04-26T09:38:32.961Z</time></trkpt><trkpt lat="43.042381" lon="13.1333335"><ele>820.3333333333333</ele><time>2026-04-26T09:38:33.962Z</time></trkpt><trkpt lat="43.0422921" lon="13.1335028"><ele>817.0</ele><time>2026-04-26T09:38:34.966Z</time></trkpt><trkpt lat="43.0421896" lon="13.1336405"><ele>817.0</ele><time>2026-04-26T09:38:35.97Z</time></trkpt><trkpt lat="43.0420787" lon="13.1337556"><ele>817.0</ele><time>2026-04-26T09:38:36.975Z</time></trkpt><trkpt lat="43.0419883" lon="13.1338925"><ele>817.0</ele><time>2026-04-26T09:38:37.956Z</time></trkpt><trkpt lat="43.0419217" lon="13.1340694"><ele>817.0</ele><time>2026-04-26T09:38:38.966Z</time></trkpt><trkpt lat="43.0418608" lon="13.1342631"><ele>815.3333333333333</ele><time>2026-04-26T09:38:39.973Z</time></trkpt><trkpt lat="43.0417969" lon="13.134465"><ele>813.6666666666667</ele><time>2026-04-26T09:38:40.968Z</time></trkpt><trkpt lat="43.0417466" lon="13.1346748"><ele>812.0</ele><time>2026-04-26T09:38:41.971Z</time></trkpt><trkpt lat="43.0417239" lon="13.1348838"><ele>811.5</ele><time>2026-04-26T09:38:42.97Z</time></trkpt><trkpt lat="43.0417121" lon="13.135088"><ele>811.0</ele><time>2026-04-26T09:38:43.961Z</time></trkpt><trkpt lat="43.0416859" lon="13.1352937"><ele>810.5</ele><time>2026-04-26T09:38:44.969Z</time></trkpt><trkpt lat="43.0416261" lon="13.1354737"><ele>810.0</ele><time>2026-04-26T09:38:45.962Z</time></trkpt><trkpt lat="43.0415377" lon="13.13562"><ele>807.0</ele><time>2026-04-26T09:38:46.964Z</time></trkpt><trkpt lat="43.0414448" lon="13.1357519"><ele>804.0</ele><time>2026-04-26T09:38:47.962Z</time></trkpt><trkpt lat="43.0413662" lon="13.1359013"><ele>801.0</ele><time>2026-04-26T09:38:48.96Z</time></trkpt><trkpt lat="43.0413172" lon="13.1360775"><ele>798.0</ele><time>2026-04-26T09:38:49.967Z</time></trkpt><trkpt lat="43.0413014" lon="13.1362814"><ele>798.0</ele><time>2026-04-26T09:38:50.962Z</time></trkpt><trkpt lat="43.0413002" lon="13.1365007"><ele>798.0</ele><time>2026-04-26T09:38:51.967Z</time></trkpt><trkpt lat="43.041302" lon="13.1367335"><ele>798.0</ele><time>2026-04-26T09:38:52.967Z</time></trkpt><trkpt lat="43.0413063" lon="13.1369705"><ele>798.0</ele><time>2026-04-26T09:38:53.966Z</time></trkpt><trkpt lat="43.0413149" lon="13.1372095"><ele>798.0</ele><time>2026-04-26T09:38:54.96Z</time></trkpt><trkpt lat="43.0413282" lon="13.1374509"><ele>798.0</ele><time>2026-04-26T09:38:55.966Z</time></trkpt><trkpt lat="43.0413465" lon="13.1376912"><ele>796.3333333333333</ele><time>2026-04-26T09:38:56.967Z</time></trkpt><trkpt lat="43.0413675" lon="13.1379261"><ele>794.6666666666666</ele><time>2026-04-26T09:38:57.962Z</time></trkpt><trkpt lat="43.0413829" lon="13.1381527"><ele>793.0</ele><time>2026-04-26T09:38:58.966Z</time></trkpt><trkpt lat="43.0413844" lon="13.1383587"><ele>792.25</ele><time>2026-04-26T09:38:59.969Z</time></trkpt><trkpt lat="43.0413792" lon="13.1385437"><ele>791.5</ele><time>2026-04-26T09:39:00.961Z</time></trkpt><trkpt lat="43.041374" lon="13.1387142"><ele>790.75</ele><time>2026-04-26T09:39:01.963Z</time></trkpt><trkpt lat="43.0413791" lon="13.1388758"><ele>790.0</ele><time>2026-04-26T09:39:02.959Z</time></trkpt><trkpt lat="43.0414159" lon="13.139024"><ele>789.75</ele><time>2026-04-26T09:39:03.964Z</time></trkpt><trkpt lat="43.0414931" lon="13.1391339"><ele>789.5</ele><time>2026-04-26T09:39:04.959Z</time></trkpt><trkpt lat="43.0416054" lon="13.139205"><ele>789.25</ele><time>2026-04-26T09:39:05.967Z</time></trkpt><trkpt lat="43.0417209" lon="13.1392749"><ele>789.0</ele><time>2026-04-26T09:39:06.971Z</time></trkpt><trkpt lat="43.0418168" lon="13.1393942"><ele>789.0</ele><time>2026-04-26T09:39:07.97Z</time></trkpt><trkpt lat="43.0418791" lon="13.1395685"><ele>789.0</ele><time>2026-04-26T09:39:08.963Z</time></trkpt><trkpt lat="43.0419193" lon="13.1397747"><ele>789.0</ele><time>2026-04-26T09:39:09.965Z</time></trkpt><trkpt lat="43.0419627" lon="13.1399788"><ele>787.0</ele><time>2026-04-26T09:39:10.965Z</time></trkpt><trkpt lat="43.0420114" lon="13.1401745"><ele>785.0</ele><time>2026-04-26T09:39:11.965Z</time></trkpt><trkpt lat="43.0420572" lon="13.140363"><ele>783.0</ele><time>2026-04-26T09:39:12.965Z</time></trkpt><trkpt lat="43.0421046" lon="13.1405404"><ele>781.0</ele><time>2026-04-26T09:39:13.963Z</time></trkpt><trkpt lat="43.0421718" lon="13.1406929"><ele>783.0</ele><time>2026-04-26T09:39:14.962Z</time></trkpt><trkpt lat="43.0422619" lon="13.140808"><ele>785.0</ele><time>2026-04-26T09:39:15.96Z</time></trkpt><trkpt lat="43.0423593" lon="13.1409049"><ele>787.0</ele><time>2026-04-26T09:39:16.965Z</time></trkpt><trkpt lat="43.0424516" lon="13.1410044"><ele>789.0</ele><time>2026-04-26T09:39:17.965Z</time></trkpt><trkpt lat="43.0425284" lon="13.1411328"><ele>789.0</ele><time>2026-04-26T09:39:18.966Z</time></trkpt><trkpt lat="43.0425741" lon="13.1412961"><ele>789.0</ele><time>2026-04-26T09:39:19.963Z</time></trkpt><trkpt lat="43.0425869" lon="13.1414865"><ele>789.0</ele><time>2026-04-26T09:39:20.97Z</time></trkpt><trkpt lat="43.0425833" lon="13.1416979"><ele>789.0</ele><time>2026-04-26T09:39:21.963Z</time></trkpt><trkpt lat="43.042577" lon="13.1419255"><ele>785.0</ele><time>2026-04-26T09:39:22.981Z</time></trkpt><trkpt lat="43.0425757" lon="13.1421653"><ele>781.0</ele><time>2026-04-26T09:39:23.964Z</time></trkpt><trkpt lat="43.0425834" lon="13.1423966"><ele>777.0</ele><time>2026-04-26T09:39:24.974Z</time></trkpt><trkpt lat="43.0425949" lon="13.1426186"><ele>775.25</ele><time>2026-04-26T09:39:25.959Z</time></trkpt><trkpt lat="43.0426074" lon="13.1428304"><ele>773.5</ele><time>2026-04-26T09:39:26.972Z</time></trkpt><trkpt lat="43.0426192" lon="13.1430247"><ele>771.75</ele><time>2026-04-26T09:39:27.97Z</time></trkpt><trkpt lat="43.0426434" lon="13.1432083"><ele>770.0</ele><time>2026-04-26T09:39:28.967Z</time></trkpt><trkpt lat="43.0426933" lon="13.1433642"><ele>766.75</ele><time>2026-04-26T09:39:29.966Z</time></trkpt><trkpt lat="43.0427721" lon="13.1434773"><ele>763.5</ele><time>2026-04-26T09:39:30.963Z</time></trkpt><trkpt lat="43.0428802" lon="13.1435406"><ele>760.25</ele><time>2026-04-26T09:39:31.966Z</time></trkpt><trkpt lat="43.0430083" lon="13.1435351"><ele>757.0</ele><time>2026-04-26T09:39:32.967Z</time></trkpt><trkpt lat="43.0431425" lon="13.1434783"><ele>757.0</ele><time>2026-04-26T09:39:33.959Z</time></trkpt><trkpt lat="43.043268" lon="13.1434187"><ele>757.0</ele><time>2026-04-26T09:39:34.964Z</time></trkpt><trkpt lat="43.0433903" lon="13.1433588"><ele>757.0</ele><time>2026-04-26T09:39:35.966Z</time></trkpt><trkpt lat="43.0435144" lon="13.143302"><ele>757.0</ele><time>2026-04-26T09:39:36.97Z</time></trkpt><trkpt lat="43.043631" lon="13.1432536"><ele>763.6</ele><time>2026-04-26T09:39:37.968Z</time></trkpt><trkpt lat="43.043741" lon="13.1432083"><ele>770.2</ele><time>2026-04-26T09:39:38.966Z</time></trkpt><trkpt lat="43.0438512" lon="13.1431713"><ele>776.8</ele><time>2026-04-26T09:39:39.975Z</time></trkpt><trkpt lat="43.0439535" lon="13.1431322"><ele>783.4</ele><time>2026-04-26T09:39:40.968Z</time></trkpt><trkpt lat="43.0440552" lon="13.1431145"><ele>790.0</ele><time>2026-04-26T09:39:41.968Z</time></trkpt><trkpt lat="43.044152" lon="13.1431394"><ele>785.9999999999999</ele><time>2026-04-26T09:39:42.963Z</time></trkpt><trkpt lat="43.044232" lon="13.143217"><ele>782.0</ele><time>2026-04-26T09:39:43.964Z</time></trkpt><trkpt lat="43.0442915" lon="13.1433143"><ele>778.0</ele><time>2026-04-26T09:39:44.961Z</time></trkpt><trkpt lat="43.0443285" lon="13.1433997"><ele>774.0</ele><time>2026-04-26T09:39:45.963Z</time></trkpt><trkpt lat="43.0443729" lon="13.1435072"><ele>770.0</ele><time>2026-04-26T09:39:47.965Z</time></trkpt><trkpt lat="43.0443958" lon="13.1436216"><ele>766.0</ele><time>2026-04-26T09:39:50.972Z</time></trkpt><trkpt lat="43.0443416" lon="13.1437285"><ele>766.0</ele><time>2026-04-26T09:39:52.961Z</time></trkpt><trkpt lat="43.0442755" lon="13.1437922"><ele>766.0</ele><time>2026-04-26T09:39:53.959Z</time></trkpt><trkpt lat="43.0441939" lon="13.1438746"><ele>766.0</ele><time>2026-04-26T09:39:54.965Z</time></trkpt><trkpt lat="43.0441035" lon="13.1439666"><ele>766.0</ele><time>2026-04-26T09:39:55.964Z</time></trkpt><trkpt lat="43.044015" lon="13.1440542"><ele>766.0</ele><time>2026-04-26T09:39:56.967Z</time></trkpt><trkpt lat="43.0439239" lon="13.1441335"><ele>763.0</ele><time>2026-04-26T09:39:57.966Z</time></trkpt><trkpt lat="43.0438178" lon="13.1441941"><ele>760.0</ele><time>2026-04-26T09:39:58.961Z</time></trkpt><trkpt lat="43.0436973" lon="13.1442283"><ele>757.0</ele><time>2026-04-26T09:39:59.962Z</time></trkpt><trkpt lat="43.0435687" lon="13.1442308"><ele>754.0</ele><time>2026-04-26T09:40:00.971Z</time></trkpt><trkpt lat="43.0434432" lon="13.1442192"><ele>754.0</ele><time>2026-04-26T09:40:01.965Z</time></trkpt><trkpt lat="43.0433212" lon="13.1442002"><ele>754.0</ele><time>2026-04-26T09:40:02.962Z</time></trkpt><trkpt lat="43.0432046" lon="13.1441812"><ele>754.0</ele><time>2026-04-26T09:40:03.964Z</time></trkpt><trkpt lat="43.0430967" lon="13.1441623"><ele>754.0</ele><time>2026-04-26T09:40:04.963Z</time></trkpt><trkpt lat="43.0430001" lon="13.1441493"><ele>754.0</ele><time>2026-04-26T09:40:05.967Z</time></trkpt><trkpt lat="43.0429164" lon="13.1441562"><ele>752.1666666666667</ele><time>2026-04-26T09:40:06.965Z</time></trkpt><trkpt lat="43.0428469" lon="13.1442"><ele>750.3333333333334</ele><time>2026-04-26T09:40:07.968Z</time></trkpt><trkpt lat="43.0428059" lon="13.1442854"><ele>748.5</ele><time>2026-04-26T09:40:08.962Z</time></trkpt><trkpt lat="43.04281" lon="13.1443902"><ele>746.6666666666666</ele><time>2026-04-26T09:40:09.965Z</time></trkpt><trkpt lat="43.0428596" lon="13.1444891"><ele>744.8333333333333</ele><time>2026-04-26T09:40:10.973Z</time></trkpt><trkpt lat="43.0429391" lon="13.1445766"><ele>743.0</ele><time>2026-04-26T09:40:11.983Z</time></trkpt><trkpt lat="43.0430353" lon="13.1446484"><ele>743.0</ele><time>2026-04-26T09:40:12.964Z</time></trkpt><trkpt lat="43.0431417" lon="13.1446958"><ele>743.0</ele><time>2026-04-26T09:40:13.968Z</time></trkpt><trkpt lat="43.0432477" lon="13.1447281"><ele>743.0</ele><time>2026-04-26T09:40:14.972Z</time></trkpt><trkpt lat="43.0433489" lon="13.144753"><ele>743.0</ele><time>2026-04-26T09:40:15.972Z</time></trkpt><trkpt lat="43.0434419" lon="13.1447765"><ele>743.0</ele><time>2026-04-26T09:40:16.969Z</time></trkpt><trkpt lat="43.0435253" lon="13.1448014"><ele>742.5</ele><time>2026-04-26T09:40:17.971Z</time></trkpt><trkpt lat="43.0435977" lon="13.1448431"><ele>742.0</ele><time>2026-04-26T09:40:18.972Z</time></trkpt><trkpt lat="43.0436448" lon="13.1449229"><ele>741.5</ele><time>2026-04-26T09:40:19.967Z</time></trkpt><trkpt lat="43.0436472" lon="13.1450232"><ele>741.0</ele><time>2026-04-26T09:40:20.966Z</time></trkpt><trkpt lat="43.0436019" lon="13.1451091"><ele>740.5</ele><time>2026-04-26T09:40:21.966Z</time></trkpt><trkpt lat="43.0435266" lon="13.1451595"><ele>740.0</ele><time>2026-04-26T09:40:22.968Z</time></trkpt><trkpt lat="43.0434344" lon="13.1452012"><ele>740.0</ele><time>2026-04-26T09:40:23.971Z</time></trkpt><trkpt lat="43.0433274" lon="13.14525"><ele>740.0</ele><time>2026-04-26T09:40:24.97Z</time></trkpt><trkpt lat="43.0432072" lon="13.1453046"><ele>740.0</ele><time>2026-04-26T09:40:25.967Z</time></trkpt><trkpt lat="43.0430782" lon="13.1453633"><ele>740.0</ele><time>2026-04-26T09:40:26.972Z</time></trkpt><trkpt lat="43.0429505" lon="13.1454199"><ele>738.25</ele><time>2026-04-26T09:40:27.968Z</time></trkpt><trkpt lat="43.0428229" lon="13.1454703"><ele>736.5</ele><time>2026-04-26T09:40:28.966Z</time></trkpt><trkpt lat="43.0426932" lon="13.145501"><ele>734.75</ele><time>2026-04-26T09:40:29.973Z</time></trkpt><trkpt lat="43.0425642" lon="13.1454977"><ele>733.0</ele><time>2026-04-26T09:40:30.974Z</time></trkpt><trkpt lat="43.0424434" lon="13.1454559"><ele>728.5</ele><time>2026-04-26T09:40:31.966Z</time></trkpt><trkpt lat="43.0423353" lon="13.1453816"><ele>724.0</ele><time>2026-04-26T09:40:32.971Z</time></trkpt><trkpt lat="43.0422384" lon="13.1452812"><ele>719.5</ele><time>2026-04-26T09:40:33.963Z</time></trkpt><trkpt lat="43.0421459" lon="13.1451564"><ele>715.0</ele><time>2026-04-26T09:40:34.971Z</time></trkpt><trkpt lat="43.0420587" lon="13.1450062"><ele>716.25</ele><time>2026-04-26T09:40:35.966Z</time></trkpt><trkpt lat="43.0419848" lon="13.1448384"><ele>717.5</ele><time>2026-04-26T09:40:36.959Z</time></trkpt><trkpt lat="43.0419216" lon="13.1446687"><ele>718.75</ele><time>2026-04-26T09:40:37.978Z</time></trkpt><trkpt lat="43.041858" lon="13.1445026"><ele>720.0</ele><time>2026-04-26T09:40:38.968Z</time></trkpt><trkpt lat="43.0417904" lon="13.1443382"><ele>720.0</ele><time>2026-04-26T09:40:39.964Z</time></trkpt><trkpt lat="43.0417236" lon="13.1441765"><ele>720.0</ele><time>2026-04-26T09:40:40.965Z</time></trkpt><trkpt lat="43.0416577" lon="13.1440199"><ele>720.0</ele><time>2026-04-26T09:40:41.972Z</time></trkpt><trkpt lat="43.0415933" lon="13.143868"><ele>720.0</ele><time>2026-04-26T09:40:42.967Z</time></trkpt><trkpt lat="43.0415317" lon="13.1437249"><ele>720.25</ele><time>2026-04-26T09:40:43.967Z</time></trkpt><trkpt lat="43.0414747" lon="13.1435916"><ele>720.5</ele><time>2026-04-26T09:40:44.975Z</time></trkpt><trkpt lat="43.041386" lon="13.143498"><ele>720.75</ele><time>2026-04-26T09:40:45.964Z</time></trkpt><trkpt lat="43.0412765" lon="13.1434584"><ele>721.0</ele><time>2026-04-26T09:40:46.966Z</time></trkpt><trkpt lat="43.0411574" lon="13.1434539"><ele>721.0</ele><time>2026-04-26T09:40:47.965Z</time></trkpt><trkpt lat="43.0410307" lon="13.1435086"><ele>721.0</ele><time>2026-04-26T09:40:48.972Z</time></trkpt><trkpt lat="43.0409068" lon="13.1435734"><ele>721.0</ele><time>2026-04-26T09:40:49.971Z</time></trkpt><trkpt lat="43.0407836" lon="13.1436327"><ele>721.0</ele><time>2026-04-26T09:40:50.971Z</time></trkpt><trkpt lat="43.0406695" lon="13.143695"><ele>722.25</ele><time>2026-04-26T09:40:51.972Z</time></trkpt><trkpt lat="43.0405537" lon="13.1437495"><ele>723.5</ele><time>2026-04-26T09:40:52.973Z</time></trkpt><trkpt lat="43.0404409" lon="13.1438098"><ele>724.75</ele><time>2026-04-26T09:40:53.967Z</time></trkpt><trkpt lat="43.0403306" lon="13.1438693"><ele>726.0</ele><time>2026-04-26T09:40:54.971Z</time></trkpt><trkpt lat="43.0402175" lon="13.1439208"><ele>726.0</ele><time>2026-04-26T09:40:55.965Z</time></trkpt><trkpt lat="43.0401111" lon="13.1439689"><ele>726.0</ele><time>2026-04-26T09:40:56.968Z</time></trkpt><trkpt lat="43.0400146" lon="13.1440175"><ele>726.0</ele><time>2026-04-26T09:40:57.959Z</time></trkpt><trkpt lat="43.0399269" lon="13.1440684"><ele>726.0</ele><time>2026-04-26T09:40:58.968Z</time></trkpt><trkpt lat="43.0398538" lon="13.1441287"><ele>726.0</ele><time>2026-04-26T09:40:59.97Z</time></trkpt><trkpt lat="43.0397989" lon="13.1442118"><ele>726.3333333333334</ele><time>2026-04-26T09:41:00.968Z</time></trkpt><trkpt lat="43.0397712" lon="13.1443151"><ele>726.6666666666666</ele><time>2026-04-26T09:41:01.97Z</time></trkpt><trkpt lat="43.0397808" lon="13.1444289"><ele>727.0</ele><time>2026-04-26T09:41:02.967Z</time></trkpt><trkpt lat="43.0398206" lon="13.144542"><ele>727.3333333333333</ele><time>2026-04-26T09:41:03.973Z</time></trkpt><trkpt lat="43.0398748" lon="13.1446381"><ele>727.6666666666666</ele><time>2026-04-26T09:41:04.979Z</time></trkpt><trkpt lat="43.0399248" lon="13.1447189"><ele>728.0</ele><time>2026-04-26T09:41:05.972Z</time></trkpt><trkpt lat="43.0399701" lon="13.1448057"><ele>724.4</ele><time>2026-04-26T09:41:06.969Z</time></trkpt><trkpt lat="43.0400128" lon="13.1449108"><ele>720.8</ele><time>2026-04-26T09:41:07.967Z</time></trkpt><trkpt lat="43.040058" lon="13.1450213"><ele>717.2</ele><time>2026-04-26T09:41:08.963Z</time></trkpt><trkpt lat="43.0400669" lon="13.1451691"><ele>713.6</ele><time>2026-04-26T09:41:09.96Z</time></trkpt><trkpt lat="43.0400504" lon="13.145316"><ele>710.0</ele><time>2026-04-26T09:41:10.966Z</time></trkpt><trkpt lat="43.0400066" lon="13.1454482"><ele>714.8</ele><time>2026-04-26T09:41:11.973Z</time></trkpt><trkpt lat="43.0399504" lon="13.1455709"><ele>719.6</ele><time>2026-04-26T09:41:12.971Z</time></trkpt><trkpt lat="43.03989" lon="13.1456795"><ele>724.4000000000001</ele><time>2026-04-26T09:41:13.968Z</time></trkpt><trkpt lat="43.0398305" lon="13.1457791"><ele>729.2</ele><time>2026-04-26T09:41:14.969Z</time></trkpt><trkpt lat="43.0397742" lon="13.14587"><ele>734.0</ele><time>2026-04-26T09:41:15.972Z</time></trkpt><trkpt lat="43.0397441" lon="13.1459638"><ele>734.0</ele><time>2026-04-26T09:41:16.98Z</time></trkpt><trkpt lat="43.0397214" lon="13.146052"><ele>734.0</ele><time>2026-04-26T09:41:17.972Z</time></trkpt><trkpt lat="43.0397383" lon="13.1461801"><ele>734.0</ele><time>2026-04-26T09:41:19.961Z</time></trkpt><trkpt lat="43.0398041" lon="13.1462831"><ele>734.0</ele><time>2026-04-26T09:41:21.965Z</time></trkpt><trkpt lat="43.039811" lon="13.1464081"><ele>734.0</ele><time>2026-04-26T09:41:23.976Z</time></trkpt><trkpt lat="43.0397775" lon="13.1464905"><ele>734.0</ele><time>2026-04-26T09:41:24.972Z</time></trkpt><trkpt lat="43.0397268" lon="13.1465887"><ele>733.0</ele><time>2026-04-26T09:41:25.968Z</time></trkpt><trkpt lat="43.0396666" lon="13.1467053"><ele>732.0</ele><time>2026-04-26T09:41:26.97Z</time></trkpt><trkpt lat="43.0395963" lon="13.146837"><ele>731.0</ele><time>2026-04-26T09:41:27.972Z</time></trkpt><trkpt lat="43.0395213" lon="13.1469835"><ele>730.0</ele><time>2026-04-26T09:41:28.974Z</time></trkpt><trkpt lat="43.0394446" lon="13.1471371"><ele>730.0</ele><time>2026-04-26T09:41:29.97Z</time></trkpt><trkpt lat="43.0393708" lon="13.1472765"><ele>730.0</ele><time>2026-04-26T09:41:30.988Z</time></trkpt><trkpt lat="43.0392942" lon="13.1473968"><ele>730.0</ele><time>2026-04-26T09:41:31.971Z</time></trkpt><trkpt lat="43.0392097" lon="13.1474945"><ele>730.0</ele><time>2026-04-26T09:41:32.972Z</time></trkpt><trkpt lat="43.0391127" lon="13.1475816"><ele>731.75</ele><time>2026-04-26T09:41:33.966Z</time></trkpt><trkpt lat="43.0390051" lon="13.1476675"><ele>733.5</ele><time>2026-04-26T09:41:34.971Z</time></trkpt><trkpt lat="43.0388936" lon="13.1477578"><ele>735.25</ele><time>2026-04-26T09:41:35.97Z</time></trkpt><trkpt lat="43.0387945" lon="13.1478534"><ele>737.0</ele><time>2026-04-26T09:41:36.97Z</time></trkpt><trkpt lat="43.0387184" lon="13.1479631"><ele>737.0</ele><time>2026-04-26T09:41:37.969Z</time></trkpt><trkpt lat="43.0386655" lon="13.1480865"><ele>737.0</ele><time>2026-04-26T09:41:38.959Z</time></trkpt><trkpt lat="43.0386444" lon="13.1482257"><ele>737.0</ele><time>2026-04-26T09:41:39.971Z</time></trkpt><trkpt lat="43.0386605" lon="13.1483653"><ele>737.0</ele><time>2026-04-26T09:41:40.964Z</time></trkpt><trkpt lat="43.0387089" lon="13.1484996"><ele>737.0</ele><time>2026-04-26T09:41:41.966Z</time></trkpt><trkpt lat="43.0387693" lon="13.1486294"><ele>737.6</ele><time>2026-04-26T09:41:42.966Z</time></trkpt><trkpt lat="43.0388323" lon="13.1487568"><ele>738.2</ele><time>2026-04-26T09:41:43.968Z</time></trkpt><trkpt lat="43.0388891" lon="13.1488753"><ele>738.8</ele><time>2026-04-26T09:41:44.964Z</time></trkpt><trkpt lat="43.0389388" lon="13.1489929"><ele>739.4</ele><time>2026-04-26T09:41:45.965Z</time></trkpt><trkpt lat="43.038978" lon="13.1491152"><ele>740.0</ele><time>2026-04-26T09:41:46.965Z</time></trkpt><trkpt lat="43.0389921" lon="13.1492347"><ele>740.0</ele><time>2026-04-26T09:41:47.967Z</time></trkpt><trkpt lat="43.0389728" lon="13.1493433"><ele>740.0</ele><time>2026-04-26T09:41:48.969Z</time></trkpt><trkpt lat="43.0389255" lon="13.1494436"><ele>740.0</ele><time>2026-04-26T09:41:49.971Z</time></trkpt><trkpt lat="43.0388731" lon="13.1495537"><ele>740.0</ele><time>2026-04-26T09:41:50.963Z</time></trkpt><trkpt lat="43.0387859" lon="13.1496638"><ele>740.0</ele><time>2026-04-26T09:41:51.967Z</time></trkpt><trkpt lat="43.0387062" lon="13.149814"><ele>737.25</ele><time>2026-04-26T09:41:52.974Z</time></trkpt><trkpt lat="43.0386403" lon="13.1499864"><ele>734.5</ele><time>2026-04-26T09:41:53.964Z</time></trkpt><trkpt lat="43.0385799" lon="13.1501608"><ele>731.75</ele><time>2026-04-26T09:41:54.965Z</time></trkpt><trkpt lat="43.0385228" lon="13.1503199"><ele>729.0</ele><time>2026-04-26T09:41:55.976Z</time></trkpt><trkpt lat="43.0384735" lon="13.1504744"><ele>729.0</ele><time>2026-04-26T09:41:56.968Z</time></trkpt><trkpt lat="43.0384435" lon="13.1506257"><ele>729.0</ele><time>2026-04-26T09:41:57.981Z</time></trkpt><trkpt lat="43.0384369" lon="13.150768"><ele>729.0</ele><time>2026-04-26T09:41:58.97Z</time></trkpt><trkpt lat="43.0384319" lon="13.1509018"><ele>729.0</ele><time>2026-04-26T09:41:59.973Z</time></trkpt><trkpt lat="43.0384591" lon="13.1510246"><ele>729.0</ele><time>2026-04-26T09:42:00.971Z</time></trkpt><trkpt lat="43.0385076" lon="13.1511232"><ele>728.8000000000001</ele><time>2026-04-26T09:42:01.966Z</time></trkpt><trkpt lat="43.0385693" lon="13.151213"><ele>728.6</ele><time>2026-04-26T09:42:02.966Z</time></trkpt><trkpt lat="43.0386132" lon="13.1513181"><ele>728.4</ele><time>2026-04-26T09:42:03.968Z</time></trkpt><trkpt lat="43.0386297" lon="13.1514374"><ele>728.2</ele><time>2026-04-26T09:42:04.962Z</time></trkpt><trkpt lat="43.038641" lon="13.1515586"><ele>728.0</ele><time>2026-04-26T09:42:05.971Z</time></trkpt><trkpt lat="43.0386182" lon="13.1516827"><ele>728.0</ele><time>2026-04-26T09:42:06.972Z</time></trkpt><trkpt lat="43.0385939" lon="13.1518109"><ele>728.0</ele><time>2026-04-26T09:42:07.98Z</time></trkpt><trkpt lat="43.0385693" lon="13.1519506"><ele>728.0</ele><time>2026-04-26T09:42:08.969Z</time></trkpt><trkpt lat="43.0385435" lon="13.1520972"><ele>728.0</ele><time>2026-04-26T09:42:09.966Z</time></trkpt><trkpt lat="43.0385231" lon="13.1522439"><ele>728.0</ele><time>2026-04-26T09:42:10.967Z</time></trkpt><trkpt lat="43.038503" lon="13.1523931"><ele>727.5</ele><time>2026-04-26T09:42:11.971Z</time></trkpt><trkpt lat="43.0384891" lon="13.1525461"><ele>727.0</ele><time>2026-04-26T09:42:12.976Z</time></trkpt><trkpt lat="43.0384702" lon="13.1527009"><ele>726.5</ele><time>2026-04-26T09:42:13.967Z</time></trkpt><trkpt lat="43.0384485" lon="13.1528545"><ele>726.0</ele><time>2026-04-26T09:42:14.966Z</time></trkpt><trkpt lat="43.038416" lon="13.1530047"><ele>726.0</ele><time>2026-04-26T09:42:15.976Z</time></trkpt><trkpt lat="43.038367" lon="13.1531527"><ele>726.0</ele><time>2026-04-26T09:42:16.969Z</time></trkpt><trkpt lat="43.0382962" lon="13.1532841"><ele>726.0</ele><time>2026-04-26T09:42:17.988Z</time></trkpt><trkpt lat="43.0382045" lon="13.1533863"><ele>726.0</ele><time>2026-04-26T09:42:18.969Z</time></trkpt><trkpt lat="43.0381164" lon="13.1534802"><ele>727.4</ele><time>2026-04-26T09:42:19.965Z</time></trkpt><trkpt lat="43.0380066" lon="13.1535123"><ele>728.8</ele><time>2026-04-26T09:42:20.97Z</time></trkpt><trkpt lat="43.0378966" lon="13.1535078"><ele>730.1999999999999</ele><time>2026-04-26T09:42:21.961Z</time></trkpt><trkpt lat="43.0377898" lon="13.1534769"><ele>731.5999999999999</ele><time>2026-04-26T09:42:22.962Z</time></trkpt><trkpt lat="43.0376867" lon="13.1534261"><ele>733.0</ele><time>2026-04-26T09:42:23.962Z</time></trkpt><trkpt lat="43.0375845" lon="13.1533683"><ele>733.0</ele><time>2026-04-26T09:42:24.978Z</time></trkpt><trkpt lat="43.037479" lon="13.1533195"><ele>733.0</ele><time>2026-04-26T09:42:25.96Z</time></trkpt><trkpt lat="43.0373678" lon="13.1532899"><ele>733.0</ele><time>2026-04-26T09:42:26.971Z</time></trkpt><trkpt lat="43.037261" lon="13.1533001"><ele>733.0</ele><time>2026-04-26T09:42:27.959Z</time></trkpt><trkpt lat="43.0371732" lon="13.1533616"><ele>733.0</ele><time>2026-04-26T09:42:28.963Z</time></trkpt><trkpt lat="43.0371118" lon="13.1534675"><ele>733.5999999999999</ele><time>2026-04-26T09:42:29.968Z</time></trkpt><trkpt lat="43.0370482" lon="13.1535794"><ele>734.1999999999999</ele><time>2026-04-26T09:42:30.962Z</time></trkpt><trkpt lat="43.03702" lon="13.1537318"><ele>734.8</ele><time>2026-04-26T09:42:31.96Z</time></trkpt><trkpt lat="43.0369931" lon="13.153877"><ele>735.4</ele><time>2026-04-26T09:42:32.961Z</time></trkpt><trkpt lat="43.0369449" lon="13.1540096"><ele>736.0</ele><time>2026-04-26T09:42:33.963Z</time></trkpt><trkpt lat="43.0368932" lon="13.154131"><ele>736.0</ele><time>2026-04-26T09:42:34.963Z</time></trkpt><trkpt lat="43.0368412" lon="13.1542611"><ele>736.0</ele><time>2026-04-26T09:42:35.967Z</time></trkpt><trkpt lat="43.0367917" lon="13.1544044"><ele>736.0</ele><time>2026-04-26T09:42:36.961Z</time></trkpt><trkpt lat="43.036752" lon="13.1545601"><ele>736.0</ele><time>2026-04-26T09:42:37.962Z</time></trkpt><trkpt lat="43.0367151" lon="13.1547256"><ele>736.75</ele><time>2026-04-26T09:42:38.964Z</time></trkpt><trkpt lat="43.0366815" lon="13.1548947"><ele>737.5</ele><time>2026-04-26T09:42:39.968Z</time></trkpt><trkpt lat="43.0366495" lon="13.1550603"><ele>738.25</ele><time>2026-04-26T09:42:40.966Z</time></trkpt><trkpt lat="43.0366185" lon="13.155226"><ele>739.0</ele><time>2026-04-26T09:42:41.967Z</time></trkpt><trkpt lat="43.0365867" lon="13.1553926"><ele>739.0</ele><time>2026-04-26T09:42:42.971Z</time></trkpt><trkpt lat="43.0365549" lon="13.1555629"><ele>739.0</ele><time>2026-04-26T09:42:43.963Z</time></trkpt><trkpt lat="43.036523" lon="13.1557323"><ele>739.0</ele><time>2026-04-26T09:42:44.974Z</time></trkpt><trkpt lat="43.0364917" lon="13.1558973"><ele>739.0</ele><time>2026-04-26T09:42:45.968Z</time></trkpt><trkpt lat="43.0364586" lon="13.1560648"><ele>738.25</ele><time>2026-04-26T09:42:46.96Z</time></trkpt><trkpt lat="43.0364239" lon="13.1562346"><ele>737.5</ele><time>2026-04-26T09:42:47.965Z</time></trkpt><trkpt lat="43.036389" lon="13.156406"><ele>736.75</ele><time>2026-04-26T09:42:48.964Z</time></trkpt><trkpt lat="43.0363538" lon="13.1565792"><ele>736.0</ele><time>2026-04-26T09:42:49.966Z</time></trkpt><trkpt lat="43.0363187" lon="13.1567526"><ele>736.0</ele><time>2026-04-26T09:42:50.962Z</time></trkpt><trkpt lat="43.0362875" lon="13.156922"><ele>736.0</ele><time>2026-04-26T09:42:51.964Z</time></trkpt><trkpt lat="43.0362672" lon="13.1570867"><ele>736.0</ele><time>2026-04-26T09:42:52.96Z</time></trkpt><trkpt lat="43.0362671" lon="13.1572569"><ele>736.0</ele><time>2026-04-26T09:42:53.966Z</time></trkpt><trkpt lat="43.0362825" lon="13.1574352"><ele>734.75</ele><time>2026-04-26T09:42:54.964Z</time></trkpt><trkpt lat="43.036305" lon="13.1576124"><ele>733.5</ele><time>2026-04-26T09:42:55.971Z</time></trkpt><trkpt lat="43.0363322" lon="13.157789"><ele>732.25</ele><time>2026-04-26T09:42:56.966Z</time></trkpt><trkpt lat="43.0363602" lon="13.1579718"><ele>731.0</ele><time>2026-04-26T09:42:57.963Z</time></trkpt><trkpt lat="43.0363913" lon="13.1581492"><ele>725.5</ele><time>2026-04-26T09:42:58.969Z</time></trkpt><trkpt lat="43.0364264" lon="13.158321"><ele>720.0</ele><time>2026-04-26T09:42:59.967Z</time></trkpt><trkpt lat="43.0364772" lon="13.1584939"><ele>714.5</ele><time>2026-04-26T09:43:00.967Z</time></trkpt><trkpt lat="43.0365465" lon="13.1586645"><ele>709.0</ele><time>2026-04-26T09:43:01.963Z</time></trkpt><trkpt lat="43.0366227" lon="13.158825"><ele>711.25</ele><time>2026-04-26T09:43:02.973Z</time></trkpt><trkpt lat="43.0367026" lon="13.1589778"><ele>713.5</ele><time>2026-04-26T09:43:03.968Z</time></trkpt><trkpt lat="43.036786" lon="13.1591213"><ele>715.75</ele><time>2026-04-26T09:43:04.972Z</time></trkpt><trkpt lat="43.0368685" lon="13.1592606"><ele>718.0</ele><time>2026-04-26T09:43:05.974Z</time></trkpt><trkpt lat="43.0369502" lon="13.1594053"><ele>718.0</ele><time>2026-04-26T09:43:06.97Z</time></trkpt><trkpt lat="43.0370314" lon="13.1595571"><ele>718.0</ele><time>2026-04-26T09:43:07.968Z</time></trkpt><trkpt lat="43.0371125" lon="13.1597134"><ele>718.0</ele><time>2026-04-26T09:43:08.968Z</time></trkpt><trkpt lat="43.0371933" lon="13.1598687"><ele>718.0</ele><time>2026-04-26T09:43:09.964Z</time></trkpt><trkpt lat="43.0372675" lon="13.1600213"><ele>719.25</ele><time>2026-04-26T09:43:10.973Z</time></trkpt><trkpt lat="43.037339" lon="13.1601806"><ele>720.5</ele><time>2026-04-26T09:43:11.969Z</time></trkpt><trkpt lat="43.0374121" lon="13.1603478"><ele>721.75</ele><time>2026-04-26T09:43:13Z</time></trkpt><trkpt lat="43.0374888" lon="13.1605101"><ele>723.0</ele><time>2026-04-26T09:43:13.964Z</time></trkpt><trkpt lat="43.0375881" lon="13.1606484"><ele>719.0</ele><time>2026-04-26T09:43:14.968Z</time></trkpt><trkpt lat="43.0377076" lon="13.1607584"><ele>715.0</ele><time>2026-04-26T09:43:15.969Z</time></trkpt><trkpt lat="43.0378437" lon="13.1608319"><ele>711.0</ele><time>2026-04-26T09:43:16.97Z</time></trkpt><trkpt lat="43.037979" lon="13.1609016"><ele>707.0</ele><time>2026-04-26T09:43:17.978Z</time></trkpt><trkpt lat="43.0381209" lon="13.1609192"><ele>707.0</ele><time>2026-04-26T09:43:18.964Z</time></trkpt><trkpt lat="43.0382599" lon="13.1609347"><ele>707.0</ele><time>2026-04-26T09:43:19.968Z</time></trkpt><trkpt lat="43.0383994" lon="13.1609508"><ele>707.0</ele><time>2026-04-26T09:43:20.963Z</time></trkpt><trkpt lat="43.0385366" lon="13.1609664"><ele>707.0</ele><time>2026-04-26T09:43:21.965Z</time></trkpt><trkpt lat="43.0386713" lon="13.1609823"><ele>708.0</ele><time>2026-04-26T09:43:22.964Z</time></trkpt><trkpt lat="43.038812" lon="13.1609983"><ele>709.0</ele><time>2026-04-26T09:43:23.97Z</time></trkpt><trkpt lat="43.0389654" lon="13.1609917"><ele>710.0</ele><time>2026-04-26T09:43:24.967Z</time></trkpt><trkpt lat="43.0391417" lon="13.1609593"><ele>707.6666666666666</ele><time>2026-04-26T09:43:25.969Z</time></trkpt><trkpt lat="43.0393317" lon="13.1609118"><ele>705.3333333333334</ele><time>2026-04-26T09:43:26.972Z</time></trkpt><trkpt lat="43.0395229" lon="13.1608726"><ele>703.0</ele><time>2026-04-26T09:43:27.968Z</time></trkpt><trkpt lat="43.039708" lon="13.1608506"><ele>703.0</ele><time>2026-04-26T09:43:28.971Z</time></trkpt><trkpt lat="43.0398887" lon="13.1608374"><ele>703.0</ele><time>2026-04-26T09:43:29.968Z</time></trkpt><trkpt lat="43.040062" lon="13.1608287"><ele>703.0</ele><time>2026-04-26T09:43:30.968Z</time></trkpt><trkpt lat="43.0402315" lon="13.1608303"><ele>702.25</ele><time>2026-04-26T09:43:31.967Z</time></trkpt><trkpt lat="43.0403914" lon="13.1608478"><ele>701.5</ele><time>2026-04-26T09:43:32.972Z</time></trkpt><trkpt lat="43.0405394" lon="13.160875"><ele>700.75</ele><time>2026-04-26T09:43:33.969Z</time></trkpt><trkpt lat="43.0406739" lon="13.160904"><ele>700.0</ele><time>2026-04-26T09:43:34.966Z</time></trkpt><trkpt lat="43.0407996" lon="13.1609333"><ele>699.6</ele><time>2026-04-26T09:43:35.969Z</time></trkpt><trkpt lat="43.0409184" lon="13.1609601"><ele>699.2</ele><time>2026-04-26T09:43:36.967Z</time></trkpt><trkpt lat="43.041024" lon="13.1609822"><ele>698.8</ele><time>2026-04-26T09:43:37.968Z</time></trkpt><trkpt lat="43.0411167" lon="13.1610025"><ele>698.4</ele><time>2026-04-26T09:43:38.969Z</time></trkpt><trkpt lat="43.0411969" lon="13.1610183"><ele>698.0</ele><time>2026-04-26T09:43:39.971Z</time></trkpt><trkpt lat="43.0412653" lon="13.1610293"><ele>698.0</ele><time>2026-04-26T09:43:40.972Z</time></trkpt><trkpt lat="43.0413792" lon="13.1610566"><ele>698.0</ele><time>2026-04-26T09:43:42.96Z</time></trkpt><trkpt lat="43.0414514" lon="13.1611382"><ele>698.0</ele><time>2026-04-26T09:43:44.968Z</time></trkpt><trkpt lat="43.0414183" lon="13.161253"><ele>698.0</ele><time>2026-04-26T09:43:46.992Z</time></trkpt><trkpt lat="43.0412985" lon="13.1612623"><ele>698.0</ele><time>2026-04-26T09:43:48.967Z</time></trkpt><trkpt lat="43.04121" lon="13.1612447"><ele>698.0</ele><time>2026-04-26T09:43:49.971Z</time></trkpt><trkpt lat="43.0411082" lon="13.1612266"><ele>698.0</ele><time>2026-04-26T09:43:50.973Z</time></trkpt><trkpt lat="43.0409931" lon="13.1612112"><ele>698.0</ele><time>2026-04-26T09:43:51.961Z</time></trkpt><trkpt lat="43.0408744" lon="13.161205"><ele>698.0</ele><time>2026-04-26T09:43:52.969Z</time></trkpt><trkpt lat="43.040759" lon="13.1612085"><ele>698.5</ele><time>2026-04-26T09:43:53.973Z</time></trkpt><trkpt lat="43.0406454" lon="13.1612177"><ele>699.0</ele><time>2026-04-26T09:43:54.972Z</time></trkpt><trkpt lat="43.0405277" lon="13.1612263"><ele>699.5</ele><time>2026-04-26T09:43:55.975Z</time></trkpt><trkpt lat="43.040401" lon="13.1612312"><ele>700.0</ele><time>2026-04-26T09:43:56.97Z</time></trkpt><trkpt lat="43.0402654" lon="13.1612399"><ele>700.0</ele><time>2026-04-26T09:43:57.983Z</time></trkpt><trkpt lat="43.0401324" lon="13.1612609"><ele>700.0</ele><time>2026-04-26T09:43:58.967Z</time></trkpt><trkpt lat="43.0400044" lon="13.1613018"><ele>700.0</ele><time>2026-04-26T09:43:59.974Z</time></trkpt><trkpt lat="43.0398801" lon="13.1613633"><ele>700.0</ele><time>2026-04-26T09:44:00.974Z</time></trkpt><trkpt lat="43.0397579" lon="13.1614387"><ele>700.75</ele><time>2026-04-26T09:44:01.968Z</time></trkpt><trkpt lat="43.0396383" lon="13.161523"><ele>701.5</ele><time>2026-04-26T09:44:02.969Z</time></trkpt><trkpt lat="43.0395237" lon="13.161612"><ele>702.25</ele><time>2026-04-26T09:44:03.971Z</time></trkpt><trkpt lat="43.039413" lon="13.1616993"><ele>703.0</ele><time>2026-04-26T09:44:04.969Z</time></trkpt><trkpt lat="43.039306" lon="13.1617848"><ele>701.25</ele><time>2026-04-26T09:44:05.969Z</time></trkpt><trkpt lat="43.0391987" lon="13.1618666"><ele>699.5</ele><time>2026-04-26T09:44:06.967Z</time></trkpt><trkpt lat="43.0390887" lon="13.1619466"><ele>697.75</ele><time>2026-04-26T09:44:07.964Z</time></trkpt><trkpt lat="43.0389742" lon="13.1620215"><ele>696.0</ele><time>2026-04-26T09:44:08.965Z</time></trkpt><trkpt lat="43.038859" lon="13.1620866"><ele>696.0</ele><time>2026-04-26T09:44:09.959Z</time></trkpt><trkpt lat="43.0387433" lon="13.1621471"><ele>696.0</ele><time>2026-04-26T09:44:10.96Z</time></trkpt><trkpt lat="43.0386287" lon="13.1622217"><ele>696.0</ele><time>2026-04-26T09:44:11.964Z</time></trkpt><trkpt lat="43.0385176" lon="13.1623171"><ele>696.0</ele><time>2026-04-26T09:44:12.962Z</time></trkpt><trkpt lat="43.0384122" lon="13.1624344"><ele>693.25</ele><time>2026-04-26T09:44:13.965Z</time></trkpt><trkpt lat="43.0383175" lon="13.1625721"><ele>690.5</ele><time>2026-04-26T09:44:14.96Z</time></trkpt><trkpt lat="43.0382375" lon="13.1627245"><ele>687.75</ele><time>2026-04-26T09:44:15.965Z</time></trkpt><trkpt lat="43.0381665" lon="13.1628809"><ele>685.0</ele><time>2026-04-26T09:44:16.964Z</time></trkpt><trkpt lat="43.0380942" lon="13.1630316"><ele>685.0</ele><time>2026-04-26T09:44:17.969Z</time></trkpt><trkpt lat="43.0380169" lon="13.1631737"><ele>685.0</ele><time>2026-04-26T09:44:18.964Z</time></trkpt><trkpt lat="43.037933" lon="13.1633057"><ele>685.0</ele><time>2026-04-26T09:44:19.968Z</time></trkpt><trkpt lat="43.0378473" lon="13.1634302"><ele>685.0</ele><time>2026-04-26T09:44:20.966Z</time></trkpt><trkpt lat="43.0377676" lon="13.1635448"><ele>680.2</ele><time>2026-04-26T09:44:21.967Z</time></trkpt><trkpt lat="43.0376964" lon="13.1636507"><ele>675.4</ele><time>2026-04-26T09:44:22.958Z</time></trkpt><trkpt lat="43.0376335" lon="13.1637461"><ele>670.5999999999999</ele><time>2026-04-26T09:44:23.964Z</time></trkpt><trkpt lat="43.0375914" lon="13.1638538"><ele>665.8</ele><time>2026-04-26T09:44:24.962Z</time></trkpt><trkpt lat="43.0375795" lon="13.1639771"><ele>661.0</ele><time>2026-04-26T09:44:25.967Z</time></trkpt><trkpt lat="43.0376073" lon="13.1640883"><ele>657.5</ele><time>2026-04-26T09:44:26.962Z</time></trkpt><trkpt lat="43.0376521" lon="13.1641737"><ele>654.0</ele><time>2026-04-26T09:44:27.968Z</time></trkpt><trkpt lat="43.0376996" lon="13.164249"><ele>650.5</ele><time>2026-04-26T09:44:28.967Z</time></trkpt><trkpt lat="43.0377544" lon="13.1643315"><ele>647.0</ele><time>2026-04-26T09:44:29.967Z</time></trkpt><trkpt lat="43.037813" lon="13.1644245"><ele>643.5</ele><time>2026-04-26T09:44:30.965Z</time></trkpt><trkpt lat="43.0378696" lon="13.16453"><ele>640.0</ele><time>2026-04-26T09:44:31.959Z</time></trkpt><trkpt lat="43.0379263" lon="13.1646453"><ele>640.0</ele><time>2026-04-26T09:44:32.965Z</time></trkpt><trkpt lat="43.0379881" lon="13.1647628"><ele>640.0</ele><time>2026-04-26T09:44:33.978Z</time></trkpt><trkpt lat="43.0380486" lon="13.164873"><ele>640.0</ele><time>2026-04-26T09:44:34.965Z</time></trkpt><trkpt lat="43.0381048" lon="13.1649728"><ele>640.0</ele><time>2026-04-26T09:44:35.966Z</time></trkpt><trkpt lat="43.0381604" lon="13.1650634"><ele>640.0</ele><time>2026-04-26T09:44:36.968Z</time></trkpt><trkpt lat="43.0382212" lon="13.1651257"><ele>639.6666666666667</ele><time>2026-04-26T09:44:37.968Z</time></trkpt><trkpt lat="43.0382928" lon="13.1651633"><ele>639.3333333333334</ele><time>2026-04-26T09:44:38.978Z</time></trkpt><trkpt lat="43.0383659" lon="13.1651761"><ele>639.0</ele><time>2026-04-26T09:44:39.967Z</time></trkpt><trkpt lat="43.0384405" lon="13.1651613"><ele>638.6666666666666</ele><time>2026-04-26T09:44:41.974Z</time></trkpt><trkpt lat="43.0385238" lon="13.1651649"><ele>638.3333333333333</ele><time>2026-04-26T09:44:45.97Z</time></trkpt><trkpt lat="43.0385992" lon="13.1652018"><ele>638.0</ele><time>2026-04-26T09:44:49.968Z</time></trkpt><trkpt lat="43.0386641" lon="13.1652764"><ele>639.0</ele><time>2026-04-26T09:44:51.963Z</time></trkpt><trkpt lat="43.0387165" lon="13.1654659"><ele>640.0</ele><time>2026-04-26T09:44:58.958Z</time></trkpt><trkpt lat="43.0386899" lon="13.1655638"><ele>641.0</ele><time>2026-04-26T09:45:00.968Z</time></trkpt><trkpt lat="43.0386197" lon="13.1656205"><ele>642.0</ele><time>2026-04-26T09:45:02.973Z</time></trkpt><trkpt lat="43.0385449" lon="13.1656616"><ele>643.0</ele><time>2026-04-26T09:45:04.959Z</time></trkpt><trkpt lat="43.0384848" lon="13.1657605"><ele>645.4</ele><time>2026-04-26T09:45:06.969Z</time></trkpt><trkpt lat="43.0384793" lon="13.165901"><ele>647.8</ele><time>2026-04-26T09:45:08.965Z</time></trkpt><trkpt lat="43.0385677" lon="13.1660257"><ele>650.2</ele><time>2026-04-26T09:45:10.966Z</time></trkpt><trkpt lat="43.0386449" lon="13.1660744"><ele>652.6</ele><time>2026-04-26T09:45:11.969Z</time></trkpt><trkpt lat="43.0387209" lon="13.1661234"><ele>655.0</ele><time>2026-04-26T09:45:12.964Z</time></trkpt><trkpt lat="43.0387924" lon="13.1661804"><ele>655.0</ele><time>2026-04-26T09:45:13.971Z</time></trkpt><trkpt lat="43.0388669" lon="13.1662457"><ele>655.0</ele><time>2026-04-26T09:45:14.971Z</time></trkpt><trkpt lat="43.0389399" lon="13.1663195"><ele>655.0</ele><time>2026-04-26T09:45:15.959Z</time></trkpt><trkpt lat="43.0390062" lon="13.1664046"><ele>655.0</ele><time>2026-04-26T09:45:16.967Z</time></trkpt><trkpt lat="43.039061" lon="13.1664863"><ele>655.0</ele><time>2026-04-26T09:45:17.967Z</time></trkpt><trkpt lat="43.0391064" lon="13.1665579"><ele>655.0</ele><time>2026-04-26T09:45:18.967Z</time></trkpt><trkpt lat="43.0391522" lon="13.1666314"><ele>654.6</ele><time>2026-04-26T09:45:19.965Z</time></trkpt><trkpt lat="43.0392007" lon="13.1667127"><ele>654.2</ele><time>2026-04-26T09:45:20.978Z</time></trkpt><trkpt lat="43.0392573" lon="13.1668033"><ele>653.8</ele><time>2026-04-26T09:45:21.96Z</time></trkpt><trkpt lat="43.0393246" lon="13.1669007"><ele>653.4</ele><time>2026-04-26T09:45:22.964Z</time></trkpt><trkpt lat="43.0394082" lon="13.1670051"><ele>653.0</ele><time>2026-04-26T09:45:23.962Z</time></trkpt><trkpt lat="43.0395111" lon="13.1671106"><ele>653.0</ele><time>2026-04-26T09:45:24.964Z</time></trkpt><trkpt lat="43.0396311" lon="13.167204"><ele>653.0</ele><time>2026-04-26T09:45:25.96Z</time></trkpt><trkpt lat="43.0397707" lon="13.1672801"><ele>653.0</ele><time>2026-04-26T09:45:26.96Z</time></trkpt><trkpt lat="43.0399286" lon="13.1673432"><ele>654.3333333333333</ele><time>2026-04-26T09:45:27.968Z</time></trkpt><trkpt lat="43.0400952" lon="13.1674023"><ele>655.6666666666666</ele><time>2026-04-26T09:45:28.964Z</time></trkpt><trkpt lat="43.0402598" lon="13.1674617"><ele>657.0</ele><time>2026-04-26T09:45:29.965Z</time></trkpt><trkpt lat="43.0404277" lon="13.1675233"><ele>657.0</ele><time>2026-04-26T09:45:30.973Z</time></trkpt><trkpt lat="43.040599" lon="13.1675854"><ele>657.0</ele><time>2026-04-26T09:45:31.961Z</time></trkpt><trkpt lat="43.0407725" lon="13.1676498"><ele>657.0</ele><time>2026-04-26T09:45:32.979Z</time></trkpt><trkpt lat="43.040946" lon="13.1677157"><ele>657.0</ele><time>2026-04-26T09:45:34.008Z</time></trkpt><trkpt lat="43.0411201" lon="13.1677827"><ele>657.0</ele><time>2026-04-26T09:45:34.961Z</time></trkpt><trkpt lat="43.0412944" lon="13.1678515"><ele>657.0</ele><time>2026-04-26T09:45:35.966Z</time></trkpt><trkpt lat="43.0414669" lon="13.1679251"><ele>657.3333333333334</ele><time>2026-04-26T09:45:36.96Z</time></trkpt><trkpt lat="43.041638" lon="13.1679999"><ele>657.6666666666667</ele><time>2026-04-26T09:45:37.968Z</time></trkpt><trkpt lat="43.0418014" lon="13.1680992"><ele>658.0</ele><time>2026-04-26T09:45:38.965Z</time></trkpt><trkpt lat="43.0419588" lon="13.1682061"><ele>658.3333333333334</ele><time>2026-04-26T09:45:39.963Z</time></trkpt><trkpt lat="43.0421243" lon="13.1683233"><ele>658.6666666666666</ele><time>2026-04-26T09:45:40.963Z</time></trkpt><trkpt lat="43.0422944" lon="13.1684494"><ele>659.0</ele><time>2026-04-26T09:45:41.966Z</time></trkpt><trkpt lat="43.0424681" lon="13.1685715"><ele>659.0</ele><time>2026-04-26T09:45:42.968Z</time></trkpt><trkpt lat="43.0426462" lon="13.1686967"><ele>659.0</ele><time>2026-04-26T09:45:43.965Z</time></trkpt><trkpt lat="43.0428273" lon="13.1688229"><ele>659.0</ele><time>2026-04-26T09:45:44.962Z</time></trkpt><trkpt lat="43.0430113" lon="13.1689496"><ele>660.3333333333333</ele><time>2026-04-26T09:45:45.962Z</time></trkpt><trkpt lat="43.0431972" lon="13.1690791"><ele>661.6666666666666</ele><time>2026-04-26T09:45:46.964Z</time></trkpt><trkpt lat="43.0433792" lon="13.1692084"><ele>663.0</ele><time>2026-04-26T09:45:47.967Z</time></trkpt><trkpt lat="43.0435509" lon="13.1693306"><ele>660.3333333333334</ele><time>2026-04-26T09:45:48.959Z</time></trkpt><trkpt lat="43.0437146" lon="13.1694424"><ele>657.6666666666667</ele><time>2026-04-26T09:45:49.964Z</time></trkpt><trkpt lat="43.0438723" lon="13.1695388"><ele>655.0</ele><time>2026-04-26T09:45:50.96Z</time></trkpt><trkpt lat="43.044025" lon="13.1696164"><ele>653.3333333333334</ele><time>2026-04-26T09:45:51.965Z</time></trkpt><trkpt lat="43.0441756" lon="13.1696822"><ele>651.6666666666666</ele><time>2026-04-26T09:45:52.961Z</time></trkpt><trkpt lat="43.0443272" lon="13.1697408"><ele>650.0</ele><time>2026-04-26T09:45:53.964Z</time></trkpt><trkpt lat="43.0444795" lon="13.1697995"><ele>650.0</ele><time>2026-04-26T09:45:54.96Z</time></trkpt><trkpt lat="43.0446234" lon="13.1698579"><ele>650.0</ele><time>2026-04-26T09:45:55.963Z</time></trkpt><trkpt lat="43.0447687" lon="13.1699162"><ele>650.0</ele><time>2026-04-26T09:45:56.963Z</time></trkpt><trkpt lat="43.0449188" lon="13.1699734"><ele>651.3333333333333</ele><time>2026-04-26T09:45:57.967Z</time></trkpt><trkpt lat="43.0450736" lon="13.1700228"><ele>652.6666666666666</ele><time>2026-04-26T09:45:58.956Z</time></trkpt><trkpt lat="43.045232" lon="13.1700617"><ele>654.0</ele><time>2026-04-26T09:45:59.962Z</time></trkpt><trkpt lat="43.0453917" lon="13.1700912"><ele>654.0</ele><time>2026-04-26T09:46:00.968Z</time></trkpt><trkpt lat="43.0455453" lon="13.170118"><ele>654.0</ele><time>2026-04-26T09:46:01.955Z</time></trkpt><trkpt lat="43.0456903" lon="13.1701447"><ele>654.0</ele><time>2026-04-26T09:46:02.974Z</time></trkpt><trkpt lat="43.0458359" lon="13.1701747"><ele>654.0</ele><time>2026-04-26T09:46:03.967Z</time></trkpt><trkpt lat="43.045982" lon="13.1702163"><ele>653.75</ele><time>2026-04-26T09:46:04.96Z</time></trkpt><trkpt lat="43.0461226" lon="13.1702774"><ele>653.5</ele><time>2026-04-26T09:46:05.966Z</time></trkpt><trkpt lat="43.0462521" lon="13.1703556"><ele>653.25</ele><time>2026-04-26T09:46:06.96Z</time></trkpt><trkpt lat="43.0463731" lon="13.1704459"><ele>653.0</ele><time>2026-04-26T09:46:07.962Z</time></trkpt><trkpt lat="43.0464903" lon="13.1705476"><ele>653.0</ele><time>2026-04-26T09:46:08.959Z</time></trkpt><trkpt lat="43.0466052" lon="13.170661"><ele>653.0</ele><time>2026-04-26T09:46:09.975Z</time></trkpt><trkpt lat="43.0467199" lon="13.1707841"><ele>653.0</ele><time>2026-04-26T09:46:10.967Z</time></trkpt><trkpt lat="43.046839" lon="13.170911"><ele>653.0</ele><time>2026-04-26T09:46:11.966Z</time></trkpt><trkpt lat="43.0469668" lon="13.1710388"><ele>655.3333333333333</ele><time>2026-04-26T09:46:12.967Z</time></trkpt><trkpt lat="43.047102" lon="13.1711614"><ele>657.6666666666666</ele><time>2026-04-26T09:46:13.962Z</time></trkpt><trkpt lat="43.0472452" lon="13.1712725"><ele>660.0</ele><time>2026-04-26T09:46:14.967Z</time></trkpt><trkpt lat="43.0473939" lon="13.1713703"><ele>662.0</ele><time>2026-04-26T09:46:15.965Z</time></trkpt><trkpt lat="43.0475443" lon="13.1714582"><ele>664.0</ele><time>2026-04-26T09:46:16.959Z</time></trkpt><trkpt lat="43.0476916" lon="13.1715402"><ele>666.0</ele><time>2026-04-26T09:46:17.965Z</time></trkpt><trkpt lat="43.0478381" lon="13.1716217"><ele>666.0</ele><time>2026-04-26T09:46:18.967Z</time></trkpt><trkpt lat="43.0479888" lon="13.1717073"><ele>666.0</ele><time>2026-04-26T09:46:19.963Z</time></trkpt><trkpt lat="43.048143" lon="13.1717954"><ele>666.0</ele><time>2026-04-26T09:46:20.983Z</time></trkpt><trkpt lat="43.0482967" lon="13.1718848"><ele>664.0</ele><time>2026-04-26T09:46:21.96Z</time></trkpt><trkpt lat="43.0484501" lon="13.1719793"><ele>662.0</ele><time>2026-04-26T09:46:22.967Z</time></trkpt><trkpt lat="43.0486032" lon="13.1720756"><ele>660.0</ele><time>2026-04-26T09:46:23.962Z</time></trkpt><trkpt lat="43.0487589" lon="13.1721646"><ele>660.0</ele><time>2026-04-26T09:46:24.963Z</time></trkpt><trkpt lat="43.0489194" lon="13.1722431"><ele>660.0</ele><time>2026-04-26T09:46:25.959Z</time></trkpt><trkpt lat="43.0490812" lon="13.1723118"><ele>660.0</ele><time>2026-04-26T09:46:26.963Z</time></trkpt><trkpt lat="43.049244" lon="13.1723727"><ele>661.6666666666666</ele><time>2026-04-26T09:46:27.963Z</time></trkpt><trkpt lat="43.0494067" lon="13.1724319"><ele>663.3333333333333</ele><time>2026-04-26T09:46:28.964Z</time></trkpt><trkpt lat="43.0495676" lon="13.1724956"><ele>665.0</ele><time>2026-04-26T09:46:29.959Z</time></trkpt><trkpt lat="43.0497265" lon="13.1725645"><ele>665.0</ele><time>2026-04-26T09:46:30.961Z</time></trkpt><trkpt lat="43.0498828" lon="13.1726406"><ele>665.0</ele><time>2026-04-26T09:46:31.961Z</time></trkpt><trkpt lat="43.0500377" lon="13.1727217"><ele>665.0</ele><time>2026-04-26T09:46:32.962Z</time></trkpt><trkpt lat="43.0501886" lon="13.1728038"><ele>663.5</ele><time>2026-04-26T09:46:33.962Z</time></trkpt><trkpt lat="43.0503304" lon="13.1728822"><ele>662.0</ele><time>2026-04-26T09:46:34.962Z</time></trkpt><trkpt lat="43.050462" lon="13.1729548"><ele>660.5</ele><time>2026-04-26T09:46:35.96Z</time></trkpt><trkpt lat="43.0505846" lon="13.1730219"><ele>659.0</ele><time>2026-04-26T09:46:36.964Z</time></trkpt><trkpt lat="43.0507052" lon="13.1730897"><ele>657.0</ele><time>2026-04-26T09:46:37.965Z</time></trkpt><trkpt lat="43.0508284" lon="13.1731563"><ele>655.0</ele><time>2026-04-26T09:46:38.964Z</time></trkpt><trkpt lat="43.0509552" lon="13.1732235"><ele>653.0</ele><time>2026-04-26T09:46:39.956Z</time></trkpt><trkpt lat="43.0510812" lon="13.173302"><ele>651.0</ele><time>2026-04-26T09:46:40.963Z</time></trkpt><trkpt lat="43.0511968" lon="13.1734076"><ele>656.5</ele><time>2026-04-26T09:46:41.971Z</time></trkpt><trkpt lat="43.0512878" lon="13.1735466"><ele>662.0</ele><time>2026-04-26T09:46:42.963Z</time></trkpt><trkpt lat="43.0513423" lon="13.1737128"><ele>667.5</ele><time>2026-04-26T09:46:43.963Z</time></trkpt><trkpt lat="43.0513663" lon="13.1738964"><ele>673.0</ele><time>2026-04-26T09:46:44.964Z</time></trkpt><trkpt lat="43.0513757" lon="13.1740943"><ele>678.6666666666667</ele><time>2026-04-26T09:46:45.965Z</time></trkpt><trkpt lat="43.0513814" lon="13.1743065"><ele>684.3333333333334</ele><time>2026-04-26T09:46:46.966Z</time></trkpt><trkpt lat="43.0513852" lon="13.1745205"><ele>690.0</ele><time>2026-04-26T09:46:47.96Z</time></trkpt><trkpt lat="43.0513956" lon="13.1747236"><ele>693.75</ele><time>2026-04-26T09:46:48.959Z</time></trkpt><trkpt lat="43.0514168" lon="13.1749137"><ele>697.5</ele><time>2026-04-26T09:46:49.964Z</time></trkpt><trkpt lat="43.0514467" lon="13.1750908"><ele>701.25</ele><time>2026-04-26T09:46:50.982Z</time></trkpt><trkpt lat="43.0514815" lon="13.1752561"><ele>705.0</ele><time>2026-04-26T09:46:51.962Z</time></trkpt><trkpt lat="43.0515178" lon="13.1754164"><ele>705.0</ele><time>2026-04-26T09:46:52.965Z</time></trkpt><trkpt lat="43.0515565" lon="13.1755825"><ele>705.0</ele><time>2026-04-26T09:46:53.968Z</time></trkpt><trkpt lat="43.051595" lon="13.1757564"><ele>705.0</ele><time>2026-04-26T09:46:54.96Z</time></trkpt><trkpt lat="43.0516296" lon="13.1759383"><ele>705.0</ele><time>2026-04-26T09:46:55.959Z</time></trkpt><trkpt lat="43.0516602" lon="13.176127"><ele>697.25</ele><time>2026-04-26T09:46:56.97Z</time></trkpt><trkpt lat="43.0516837" lon="13.1763199"><ele>689.5</ele><time>2026-04-26T09:46:57.968Z</time></trkpt><trkpt lat="43.0516973" lon="13.1765083"><ele>681.75</ele><time>2026-04-26T09:46:58.963Z</time></trkpt><trkpt lat="43.0516969" lon="13.1766876"><ele>674.0</ele><time>2026-04-26T09:46:59.968Z</time></trkpt><trkpt lat="43.0516821" lon="13.1768571"><ele>674.0</ele><time>2026-04-26T09:47:00.969Z</time></trkpt><trkpt lat="43.05166" lon="13.177016"><ele>674.0</ele><time>2026-04-26T09:47:01.96Z</time></trkpt><trkpt lat="43.0516411" lon="13.1771641"><ele>674.0</ele><time>2026-04-26T09:47:02.96Z</time></trkpt><trkpt lat="43.0516347" lon="13.1773037"><ele>674.0</ele><time>2026-04-26T09:47:03.966Z</time></trkpt><trkpt lat="43.0516457" lon="13.1774335"><ele>674.0</ele><time>2026-04-26T09:47:04.968Z</time></trkpt><trkpt lat="43.0516767" lon="13.1775529"><ele>673.5</ele><time>2026-04-26T09:47:05.96Z</time></trkpt><trkpt lat="43.0517324" lon="13.1776612"><ele>673.0</ele><time>2026-04-26T09:47:06.968Z</time></trkpt><trkpt lat="43.0518168" lon="13.1777543"><ele>672.5</ele><time>2026-04-26T09:47:07.965Z</time></trkpt><trkpt lat="43.0519207" lon="13.1778393"><ele>672.0</ele><time>2026-04-26T09:47:08.966Z</time></trkpt><trkpt lat="43.0520427" lon="13.1779324"><ele>672.0</ele><time>2026-04-26T09:47:09.972Z</time></trkpt><trkpt lat="43.0521784" lon="13.1780459"><ele>672.0</ele><time>2026-04-26T09:47:10.962Z</time></trkpt><trkpt lat="43.0523236" lon="13.1781845"><ele>672.0</ele><time>2026-04-26T09:47:11.973Z</time></trkpt><trkpt lat="43.0524803" lon="13.1783482"><ele>667.0</ele><time>2026-04-26T09:47:12.965Z</time></trkpt><trkpt lat="43.052653" lon="13.178533"><ele>662.0</ele><time>2026-04-26T09:47:13.964Z</time></trkpt><trkpt lat="43.0528406" lon="13.1787343"><ele>662.0</ele><time>2026-04-26T09:47:14.999Z</time></trkpt><trkpt lat="43.0530411" lon="13.1789485"><ele>662.0</ele><time>2026-04-26T09:47:15.968Z</time></trkpt><trkpt lat="43.0532548" lon="13.1791776"><ele>660.5</ele><time>2026-04-26T09:47:16.966Z</time></trkpt><trkpt lat="43.0534652" lon="13.1794183"><ele>659.0</ele><time>2026-04-26T09:47:17.964Z</time></trkpt><trkpt lat="43.0536622" lon="13.179647"><ele>669.5</ele><time>2026-04-26T09:47:18.971Z</time></trkpt><trkpt lat="43.0538503" lon="13.1798519"><ele>680.0</ele><time>2026-04-26T09:47:19.973Z</time></trkpt><trkpt lat="43.0540266" lon="13.1800344"><ele>673.0</ele><time>2026-04-26T09:47:20.965Z</time></trkpt><trkpt lat="43.0541856" lon="13.1801991"><ele>666.0</ele><time>2026-04-26T09:47:21.973Z</time></trkpt><trkpt lat="43.0543269" lon="13.1803575"><ele>659.0</ele><time>2026-04-26T09:47:22.967Z</time></trkpt><trkpt lat="43.0544443" lon="13.1805216"><ele>667.0</ele><time>2026-04-26T09:47:23.963Z</time></trkpt><trkpt lat="43.0545293" lon="13.1807097"><ele>675.0</ele><time>2026-04-26T09:47:24.967Z</time></trkpt><trkpt lat="43.0545834" lon="13.1809303"><ele>683.0</ele><time>2026-04-26T09:47:25.969Z</time></trkpt><trkpt lat="43.0546245" lon="13.1811772"><ele>683.0</ele><time>2026-04-26T09:47:26.963Z</time></trkpt><trkpt lat="43.0546652" lon="13.1814275"><ele>683.0</ele><time>2026-04-26T09:47:27.965Z</time></trkpt><trkpt lat="43.0547044" lon="13.1816564"><ele>683.0</ele><time>2026-04-26T09:47:28.964Z</time></trkpt><trkpt lat="43.0547232" lon="13.1818743"><ele>681.3333333333333</ele><time>2026-04-26T09:47:29.969Z</time></trkpt><trkpt lat="43.0546995" lon="13.1820783"><ele>679.6666666666666</ele><time>2026-04-26T09:47:30.959Z</time></trkpt><trkpt lat="43.0546328" lon="13.1822676"><ele>678.0</ele><time>2026-04-26T09:47:31.979Z</time></trkpt><trkpt lat="43.0545311" lon="13.1824423"><ele>678.0</ele><time>2026-04-26T09:47:32.963Z</time></trkpt><trkpt lat="43.0544061" lon="13.1825856"><ele>678.0</ele><time>2026-04-26T09:47:33.96Z</time></trkpt><trkpt lat="43.0542799" lon="13.1827271"><ele>678.0</ele><time>2026-04-26T09:47:34.966Z</time></trkpt><trkpt lat="43.0541542" lon="13.1828681"><ele>689.3333333333334</ele><time>2026-04-26T09:47:35.966Z</time></trkpt><trkpt lat="43.0540756" lon="13.1830799"><ele>700.6666666666667</ele><time>2026-04-26T09:47:36.964Z</time></trkpt><trkpt lat="43.0540221" lon="13.1833026"><ele>712.0</ele><time>2026-04-26T09:47:37.962Z</time></trkpt><trkpt lat="43.0539756" lon="13.1835209"><ele>712.0</ele><time>2026-04-26T09:47:38.963Z</time></trkpt><trkpt lat="43.0539472" lon="13.1837543"><ele>712.0</ele><time>2026-04-26T09:47:39.962Z</time></trkpt><trkpt lat="43.0539467" lon="13.1840163"><ele>712.0</ele><time>2026-04-26T09:47:40.963Z</time></trkpt><trkpt lat="43.0539453" lon="13.1842804"><ele>710.5</ele><time>2026-04-26T09:47:41.966Z</time></trkpt><trkpt lat="43.0539492" lon="13.1845084"><ele>709.0</ele><time>2026-04-26T09:47:42.965Z</time></trkpt><trkpt lat="43.05395" lon="13.1846873"><ele>707.5</ele><time>2026-04-26T09:47:43.976Z</time></trkpt><trkpt lat="43.0539685" lon="13.184834"><ele>706.0</ele><time>2026-04-26T09:47:44.963Z</time></trkpt><trkpt lat="43.0540107" lon="13.1849461"><ele>706.0</ele><time>2026-04-26T09:47:45.96Z</time></trkpt><trkpt lat="43.0540887" lon="13.184999"><ele>706.0</ele><time>2026-04-26T09:47:46.967Z</time></trkpt><trkpt lat="43.0541854" lon="13.1849746"><ele>706.0</ele><time>2026-04-26T09:47:47.962Z</time></trkpt><trkpt lat="43.0542729" lon="13.1848753"><ele>706.0</ele><time>2026-04-26T09:47:48.962Z</time></trkpt><trkpt lat="43.0543478" lon="13.1847091"><ele>706.0</ele><time>2026-04-26T09:47:49.964Z</time></trkpt><trkpt lat="43.0544052" lon="13.184498"><ele>689.3333333333334</ele><time>2026-04-26T09:47:50.965Z</time></trkpt><trkpt lat="43.0544304" lon="13.1842777"><ele>672.6666666666666</ele><time>2026-04-26T09:47:51.973Z</time></trkpt><trkpt lat="43.0544525" lon="13.1840737"><ele>656.0</ele><time>2026-04-26T09:47:52.966Z</time></trkpt><trkpt lat="43.0544977" lon="13.1838936"><ele>656.0</ele><time>2026-04-26T09:47:53.971Z</time></trkpt><trkpt lat="43.0545688" lon="13.1837554"><ele>656.0</ele><time>2026-04-26T09:47:54.967Z</time></trkpt><trkpt lat="43.054668" lon="13.1836764"><ele>656.0</ele><time>2026-04-26T09:47:55.962Z</time></trkpt><trkpt lat="43.0547927" lon="13.1836558"><ele>656.0</ele><time>2026-04-26T09:47:56.97Z</time></trkpt><trkpt lat="43.0549383" lon="13.1836653"><ele>652.0</ele><time>2026-04-26T09:47:57.959Z</time></trkpt><trkpt lat="43.0551027" lon="13.1836533"><ele>648.0</ele><time>2026-04-26T09:47:58.97Z</time></trkpt><trkpt lat="43.055273" lon="13.1835984"><ele>644.0</ele><time>2026-04-26T09:47:59.963Z</time></trkpt><trkpt lat="43.0554449" lon="13.1835306"><ele>644.0</ele><time>2026-04-26T09:48:00.957Z</time></trkpt><trkpt lat="43.0555946" lon="13.1833792"><ele>644.0</ele><time>2026-04-26T09:48:01.964Z</time></trkpt><trkpt lat="43.0557025" lon="13.1831638"><ele>644.0</ele><time>2026-04-26T09:48:02.965Z</time></trkpt><trkpt lat="43.0557932" lon="13.1829444"><ele>644.6666666666666</ele><time>2026-04-26T09:48:03.965Z</time></trkpt><trkpt lat="43.0558628" lon="13.182738"><ele>645.3333333333334</ele><time>2026-04-26T09:48:04.965Z</time></trkpt><trkpt lat="43.0559219" lon="13.18254"><ele>646.0</ele><time>2026-04-26T09:48:05.961Z</time></trkpt><trkpt lat="43.0559651" lon="13.1823557"><ele>644.25</ele><time>2026-04-26T09:48:06.963Z</time></trkpt><trkpt lat="43.0560063" lon="13.1821785"><ele>642.5</ele><time>2026-04-26T09:48:07.971Z</time></trkpt><trkpt lat="43.0560539" lon="13.1820104"><ele>640.75</ele><time>2026-04-26T09:48:08.966Z</time></trkpt><trkpt lat="43.0561083" lon="13.1818505"><ele>639.0</ele><time>2026-04-26T09:48:09.966Z</time></trkpt><trkpt lat="43.0561768" lon="13.1817141"><ele>639.0</ele><time>2026-04-26T09:48:10.963Z</time></trkpt><trkpt lat="43.0562679" lon="13.1816116"><ele>639.0</ele><time>2026-04-26T09:48:11.963Z</time></trkpt><trkpt lat="43.0563789" lon="13.1815666"><ele>639.0</ele><time>2026-04-26T09:48:12.963Z</time></trkpt><trkpt lat="43.0564971" lon="13.1815915"><ele>639.0</ele><time>2026-04-26T09:48:13.966Z</time></trkpt><trkpt lat="43.0566143" lon="13.1816702"><ele>639.0</ele><time>2026-04-26T09:48:14.981Z</time></trkpt><trkpt lat="43.0567321" lon="13.181779"><ele>639.0</ele><time>2026-04-26T09:48:15.961Z</time></trkpt><trkpt lat="43.0568519" lon="13.1819014"><ele>639.0</ele><time>2026-04-26T09:48:16.964Z</time></trkpt><trkpt lat="43.0569716" lon="13.1820346"><ele>639.0</ele><time>2026-04-26T09:48:17.965Z</time></trkpt><trkpt lat="43.0570866" lon="13.1821685"><ele>639.0</ele><time>2026-04-26T09:48:18.969Z</time></trkpt><trkpt lat="43.057195" lon="13.1822984"><ele>639.0</ele><time>2026-04-26T09:48:19.965Z</time></trkpt><trkpt lat="43.0573009" lon="13.1824289"><ele>639.0</ele><time>2026-04-26T09:48:20.967Z</time></trkpt><trkpt lat="43.0574076" lon="13.182565"><ele>639.0</ele><time>2026-04-26T09:48:21.965Z</time></trkpt><trkpt lat="43.0575237" lon="13.1826953"><ele>640.3333333333334</ele><time>2026-04-26T09:48:22.979Z</time></trkpt><trkpt lat="43.0576374" lon="13.1828094"><ele>641.6666666666667</ele><time>2026-04-26T09:48:23.97Z</time></trkpt><trkpt lat="43.0577725" lon="13.1829225"><ele>643.0</ele><time>2026-04-26T09:48:24.963Z</time></trkpt><trkpt lat="43.0579196" lon="13.1830284"><ele>643.0</ele><time>2026-04-26T09:48:25.966Z</time></trkpt><trkpt lat="43.0580716" lon="13.1831417"><ele>643.0</ele><time>2026-04-26T09:48:26.966Z</time></trkpt><trkpt lat="43.0582296" lon="13.1832585"><ele>643.0</ele><time>2026-04-26T09:48:27.964Z</time></trkpt><trkpt lat="43.0583887" lon="13.1833786"><ele>644.3333333333334</ele><time>2026-04-26T09:48:28.964Z</time></trkpt><trkpt lat="43.0585484" lon="13.1834946"><ele>645.6666666666666</ele><time>2026-04-26T09:48:29.968Z</time></trkpt><trkpt lat="43.0587105" lon="13.1836141"><ele>647.0</ele><time>2026-04-26T09:48:30.961Z</time></trkpt><trkpt lat="43.058874" lon="13.1837326"><ele>647.0</ele><time>2026-04-26T09:48:31.969Z</time></trkpt><trkpt lat="43.0590402" lon="13.1838482"><ele>647.0</ele><time>2026-04-26T09:48:32.967Z</time></trkpt><trkpt lat="43.059205" lon="13.1839531"><ele>647.0</ele><time>2026-04-26T09:48:33.963Z</time></trkpt><trkpt lat="43.0593633" lon="13.1840533"><ele>651.3333333333333</ele><time>2026-04-26T09:48:34.968Z</time></trkpt><trkpt lat="43.0595103" lon="13.1841775"><ele>655.6666666666666</ele><time>2026-04-26T09:48:35.968Z</time></trkpt><trkpt lat="43.0596389" lon="13.1843264"><ele>660.0</ele><time>2026-04-26T09:48:36.96Z</time></trkpt><trkpt lat="43.05975" lon="13.1844828"><ele>660.0</ele><time>2026-04-26T09:48:37.969Z</time></trkpt><trkpt lat="43.0598506" lon="13.1846353"><ele>660.0</ele><time>2026-04-26T09:48:38.963Z</time></trkpt><trkpt lat="43.059944" lon="13.1847781"><ele>660.0</ele><time>2026-04-26T09:48:39.967Z</time></trkpt><trkpt lat="43.0600339" lon="13.1849107"><ele>660.0</ele><time>2026-04-26T09:48:40.965Z</time></trkpt><trkpt lat="43.0601212" lon="13.1850303"><ele>658.5</ele><time>2026-04-26T09:48:41.969Z</time></trkpt><trkpt lat="43.0602085" lon="13.1851467"><ele>657.0</ele><time>2026-04-26T09:48:42.965Z</time></trkpt><trkpt lat="43.0602977" lon="13.1852638"><ele>655.5</ele><time>2026-04-26T09:48:43.967Z</time></trkpt><trkpt lat="43.0603915" lon="13.1853848"><ele>654.0</ele><time>2026-04-26T09:48:44.966Z</time></trkpt><trkpt lat="43.0604873" lon="13.1855174"><ele>649.3333333333334</ele><time>2026-04-26T09:48:45.969Z</time></trkpt><trkpt lat="43.0605898" lon="13.1856792"><ele>644.6666666666667</ele><time>2026-04-26T09:48:46.96Z</time></trkpt><trkpt lat="43.0606968" lon="13.1858732"><ele>640.0</ele><time>2026-04-26T09:48:47.965Z</time></trkpt><trkpt lat="43.0608081" lon="13.1860925"><ele>640.0</ele><time>2026-04-26T09:48:48.964Z</time></trkpt><trkpt lat="43.0609295" lon="13.1863197"><ele>640.0</ele><time>2026-04-26T09:48:49.966Z</time></trkpt><trkpt lat="43.0610648" lon="13.1865457"><ele>640.0</ele><time>2026-04-26T09:48:50.964Z</time></trkpt><trkpt lat="43.0612139" lon="13.1867659"><ele>641.6666666666667</ele><time>2026-04-26T09:48:51.967Z</time></trkpt><trkpt lat="43.0613684" lon="13.186984"><ele>643.3333333333334</ele><time>2026-04-26T09:48:52.966Z</time></trkpt><trkpt lat="43.0615087" lon="13.1871934"><ele>645.0</ele><time>2026-04-26T09:48:53.965Z</time></trkpt><trkpt lat="43.0616299" lon="13.1873942"><ele>645.0</ele><time>2026-04-26T09:48:54.965Z</time></trkpt><trkpt lat="43.0617322" lon="13.1875798"><ele>645.0</ele><time>2026-04-26T09:48:55.967Z</time></trkpt><trkpt lat="43.0618171" lon="13.1877567"><ele>645.0</ele><time>2026-04-26T09:48:56.963Z</time></trkpt><trkpt lat="43.0618837" lon="13.1879292"><ele>645.0</ele><time>2026-04-26T09:48:57.963Z</time></trkpt><trkpt lat="43.061925" lon="13.1881218"><ele>645.0</ele><time>2026-04-26T09:48:58.972Z</time></trkpt><trkpt lat="43.0619415" lon="13.1883452"><ele>645.0</ele><time>2026-04-26T09:48:59.971Z</time></trkpt><trkpt lat="43.0619833" lon="13.1885843"><ele>653.6666666666666</ele><time>2026-04-26T09:49:00.971Z</time></trkpt><trkpt lat="43.0620322" lon="13.1888356"><ele>662.3333333333333</ele><time>2026-04-26T09:49:01.968Z</time></trkpt><trkpt lat="43.0621642" lon="13.1890246"><ele>671.0</ele><time>2026-04-26T09:49:02.965Z</time></trkpt><trkpt lat="43.06226" lon="13.1892023"><ele>675.25</ele><time>2026-04-26T09:49:03.966Z</time></trkpt><trkpt lat="43.0623386" lon="13.1893678"><ele>679.5</ele><time>2026-04-26T09:49:04.97Z</time></trkpt><trkpt lat="43.0623301" lon="13.1895629"><ele>683.75</ele><time>2026-04-26T09:49:05.964Z</time></trkpt><trkpt lat="43.0623118" lon="13.1897566"><ele>688.0</ele><time>2026-04-26T09:49:06.966Z</time></trkpt><trkpt lat="43.0622474" lon="13.1899633"><ele>696.3333333333334</ele><time>2026-04-26T09:49:07.97Z</time></trkpt><trkpt lat="43.0622034" lon="13.1902058"><ele>704.6666666666666</ele><time>2026-04-26T09:49:08.976Z</time></trkpt><trkpt lat="43.0622358" lon="13.1904277"><ele>713.0</ele><time>2026-04-26T09:49:09.962Z</time></trkpt><trkpt lat="43.0623333" lon="13.190573"><ele>701.6666666666666</ele><time>2026-04-26T09:49:10.965Z</time></trkpt><trkpt lat="43.0624578" lon="13.1906766"><ele>690.3333333333334</ele><time>2026-04-26T09:49:11.969Z</time></trkpt><trkpt lat="43.0626193" lon="13.190717"><ele>679.0</ele><time>2026-04-26T09:49:12.962Z</time></trkpt><trkpt lat="43.0627977" lon="13.1907107"><ele>679.0</ele><time>2026-04-26T09:49:13.958Z</time></trkpt><trkpt lat="43.0629609" lon="13.1906943"><ele>679.0</ele><time>2026-04-26T09:49:14.964Z</time></trkpt><trkpt lat="43.0630975" lon="13.1907128"><ele>679.0</ele><time>2026-04-26T09:49:15.963Z</time></trkpt><trkpt lat="43.0632292" lon="13.1907912"><ele>679.0</ele><time>2026-04-26T09:49:16.973Z</time></trkpt><trkpt lat="43.0633418" lon="13.1909344"><ele>674.6666666666667</ele><time>2026-04-26T09:49:17.962Z</time></trkpt><trkpt lat="43.063447" lon="13.1911289"><ele>670.3333333333334</ele><time>2026-04-26T09:49:18.967Z</time></trkpt><trkpt lat="43.0635495" lon="13.1913425"><ele>666.0</ele><time>2026-04-26T09:49:19.963Z</time></trkpt><trkpt lat="43.0636507" lon="13.1915841"><ele>675.0</ele><time>2026-04-26T09:49:20.966Z</time></trkpt><trkpt lat="43.0637226" lon="13.1918507"><ele>684.0</ele><time>2026-04-26T09:49:21.964Z</time></trkpt><trkpt lat="43.0637653" lon="13.1921428"><ele>693.0</ele><time>2026-04-26T09:49:22.975Z</time></trkpt><trkpt lat="43.0637887" lon="13.1924124"><ele>698.3333333333334</ele><time>2026-04-26T09:49:23.964Z</time></trkpt><trkpt lat="43.0638056" lon="13.1926488"><ele>703.6666666666667</ele><time>2026-04-26T09:49:24.968Z</time></trkpt><trkpt lat="43.0637677" lon="13.1928342"><ele>709.0</ele><time>2026-04-26T09:49:25.971Z</time></trkpt><trkpt lat="43.0636988" lon="13.1930048"><ele>709.0</ele><time>2026-04-26T09:49:26.964Z</time></trkpt><trkpt lat="43.0636334" lon="13.1931564"><ele>709.0</ele><time>2026-04-26T09:49:27.965Z</time></trkpt><trkpt lat="43.063612" lon="13.1933116"><ele>709.0</ele><time>2026-04-26T09:49:28.969Z</time></trkpt><trkpt lat="43.0636363" lon="13.1934497"><ele>709.0</ele><time>2026-04-26T09:49:29.964Z</time></trkpt><trkpt lat="43.0637211" lon="13.1935851"><ele>712.0</ele><time>2026-04-26T09:49:30.984Z</time></trkpt><trkpt lat="43.0638416" lon="13.1936785"><ele>715.0</ele><time>2026-04-26T09:49:31.968Z</time></trkpt><trkpt lat="43.0639818" lon="13.1937803"><ele>718.0</ele><time>2026-04-26T09:49:32.964Z</time></trkpt><trkpt lat="43.0640924" lon="13.1939244"><ele>709.3333333333334</ele><time>2026-04-26T09:49:33.964Z</time></trkpt><trkpt lat="43.0641531" lon="13.194102"><ele>700.6666666666666</ele><time>2026-04-26T09:49:34.968Z</time></trkpt><trkpt lat="43.0641727" lon="13.1943157"><ele>692.0</ele><time>2026-04-26T09:49:35.968Z</time></trkpt><trkpt lat="43.0641891" lon="13.1945489"><ele>692.0</ele><time>2026-04-26T09:49:36.97Z</time></trkpt><trkpt lat="43.064204" lon="13.1947787"><ele>692.0</ele><time>2026-04-26T09:49:37.97Z</time></trkpt><trkpt lat="43.0641922" lon="13.1950042"><ele>692.0</ele><time>2026-04-26T09:49:38.962Z</time></trkpt><trkpt lat="43.0641329" lon="13.1952409"><ele>709.6666666666666</ele><time>2026-04-26T09:49:39.973Z</time></trkpt><trkpt lat="43.0640243" lon="13.1954807"><ele>727.3333333333334</ele><time>2026-04-26T09:49:40.966Z</time></trkpt><trkpt lat="43.0639005" lon="13.1957333"><ele>745.0</ele><time>2026-04-26T09:49:41.96Z</time></trkpt><trkpt lat="43.0637822" lon="13.196005"><ele>745.0</ele><time>2026-04-26T09:49:42.97Z</time></trkpt><trkpt lat="43.063649" lon="13.1962474"><ele>745.0</ele><time>2026-04-26T09:49:43.963Z</time></trkpt><trkpt lat="43.063532" lon="13.1964686"><ele>745.0</ele><time>2026-04-26T09:49:44.966Z</time></trkpt><trkpt lat="43.0634467" lon="13.1966996"><ele>738.0</ele><time>2026-04-26T09:49:45.967Z</time></trkpt><trkpt lat="43.0633694" lon="13.1969135"><ele>731.0</ele><time>2026-04-26T09:49:46.968Z</time></trkpt><trkpt lat="43.0632935" lon="13.1971155"><ele>724.0</ele><time>2026-04-26T09:49:47.97Z</time></trkpt><trkpt lat="43.0631651" lon="13.1972537"><ele>729.0</ele><time>2026-04-26T09:49:48.963Z</time></trkpt><trkpt lat="43.0630448" lon="13.19738"><ele>734.0</ele><time>2026-04-26T09:49:49.962Z</time></trkpt><trkpt lat="43.0629622" lon="13.1974835"><ele>739.0</ele><time>2026-04-26T09:49:50.965Z</time></trkpt><trkpt lat="43.0629274" lon="13.1976064"><ele>744.0</ele><time>2026-04-26T09:49:51.97Z</time></trkpt><trkpt lat="43.0628964" lon="13.1977333"><ele>744.0</ele><time>2026-04-26T09:49:52.965Z</time></trkpt><trkpt lat="43.0629914" lon="13.1978252"><ele>744.0</ele><time>2026-04-26T09:49:53.971Z</time></trkpt><trkpt lat="43.0631321" lon="13.197873"><ele>744.0</ele><time>2026-04-26T09:49:54.956Z</time></trkpt><trkpt lat="43.0632957" lon="13.1979165"><ele>744.0</ele><time>2026-04-26T09:49:55.965Z</time></trkpt><trkpt lat="43.0634765" lon="13.1979988"><ele>739.0</ele><time>2026-04-26T09:49:56.966Z</time></trkpt><trkpt lat="43.0636381" lon="13.1982079"><ele>734.0</ele><time>2026-04-26T09:49:57.961Z</time></trkpt><trkpt lat="43.063809" lon="13.1983595"><ele>729.0</ele><time>2026-04-26T09:49:58.961Z</time></trkpt><trkpt lat="43.063987" lon="13.1984269"><ele>724.6666666666666</ele><time>2026-04-26T09:49:59.964Z</time></trkpt><trkpt lat="43.0641742" lon="13.1984175"><ele>720.3333333333333</ele><time>2026-04-26T09:50:00.968Z</time></trkpt><trkpt lat="43.0643439" lon="13.1983772"><ele>716.0</ele><time>2026-04-26T09:50:01.968Z</time></trkpt><trkpt lat="43.0644895" lon="13.1983894"><ele>716.0</ele><time>2026-04-26T09:50:02.963Z</time></trkpt><trkpt lat="43.0646166" lon="13.198452"><ele>716.0</ele><time>2026-04-26T09:50:03.96Z</time></trkpt><trkpt lat="43.0647343" lon="13.198571"><ele>716.0</ele><time>2026-04-26T09:50:04.964Z</time></trkpt><trkpt lat="43.0648493" lon="13.1987499"><ele>713.3333333333333</ele><time>2026-04-26T09:50:05.969Z</time></trkpt><trkpt lat="43.0649629" lon="13.1989692"><ele>710.6666666666666</ele><time>2026-04-26T09:50:06.964Z</time></trkpt><trkpt lat="43.0650963" lon="13.1992006"><ele>708.0</ele><time>2026-04-26T09:50:07.982Z</time></trkpt><trkpt lat="43.0652444" lon="13.1994352"><ele>716.5</ele><time>2026-04-26T09:50:08.968Z</time></trkpt><trkpt lat="43.065407" lon="13.1996836"><ele>725.0</ele><time>2026-04-26T09:50:09.962Z</time></trkpt><trkpt lat="43.0655771" lon="13.1999428"><ele>722.5</ele><time>2026-04-26T09:50:10.962Z</time></trkpt><trkpt lat="43.0657521" lon="13.2002104"><ele>720.0</ele><time>2026-04-26T09:50:11.962Z</time></trkpt><trkpt lat="43.0659266" lon="13.2004907"><ele>734.0</ele><time>2026-04-26T09:50:12.965Z</time></trkpt><trkpt lat="43.066096" lon="13.2007933"><ele>748.0</ele><time>2026-04-26T09:50:13.964Z</time></trkpt><trkpt lat="43.0662684" lon="13.2011039"><ele>748.0</ele><time>2026-04-26T09:50:14.961Z</time></trkpt><trkpt lat="43.0664581" lon="13.2013937"><ele>748.0</ele><time>2026-04-26T09:50:15.961Z</time></trkpt><trkpt lat="43.0666514" lon="13.2016481"><ele>744.0</ele><time>2026-04-26T09:50:16.969Z</time></trkpt><trkpt lat="43.0668335" lon="13.2018644"><ele>740.0</ele><time>2026-04-26T09:50:17.961Z</time></trkpt><trkpt lat="43.0669956" lon="13.2020541"><ele>740.0</ele><time>2026-04-26T09:50:18.973Z</time></trkpt><trkpt lat="43.0671392" lon="13.2022203"><ele>740.0</ele><time>2026-04-26T09:50:19.962Z</time></trkpt><trkpt lat="43.0672554" lon="13.2023554"><ele>740.0</ele><time>2026-04-26T09:50:20.97Z</time></trkpt><trkpt lat="43.0673513" lon="13.2024775"><ele>746.25</ele><time>2026-04-26T09:50:21.956Z</time></trkpt><trkpt lat="43.0673711" lon="13.2026161"><ele>752.5</ele><time>2026-04-26T09:50:22.965Z</time></trkpt><trkpt lat="43.0673189" lon="13.2027363"><ele>758.75</ele><time>2026-04-26T09:50:23.96Z</time></trkpt><trkpt lat="43.0672064" lon="13.2028345"><ele>765.0</ele><time>2026-04-26T09:50:24.966Z</time></trkpt><trkpt lat="43.0670616" lon="13.2029335"><ele>765.0</ele><time>2026-04-26T09:50:25.962Z</time></trkpt><trkpt lat="43.0668987" lon="13.2030527"><ele>765.0</ele><time>2026-04-26T09:50:26.967Z</time></trkpt><trkpt lat="43.0667266" lon="13.2031963"><ele>765.0</ele><time>2026-04-26T09:50:27.966Z</time></trkpt><trkpt lat="43.066577" lon="13.2033593"><ele>771.0</ele><time>2026-04-26T09:50:28.96Z</time></trkpt><trkpt lat="43.0664517" lon="13.2035795"><ele>777.0</ele><time>2026-04-26T09:50:29.96Z</time></trkpt><trkpt lat="43.0663386" lon="13.2038371"><ele>783.0</ele><time>2026-04-26T09:50:30.959Z</time></trkpt><trkpt lat="43.0662124" lon="13.2041033"><ele>783.0</ele><time>2026-04-26T09:50:31.964Z</time></trkpt><trkpt lat="43.0660829" lon="13.2043632"><ele>783.0</ele><time>2026-04-26T09:50:32.968Z</time></trkpt><trkpt lat="43.0659691" lon="13.2045952"><ele>783.0</ele><time>2026-04-26T09:50:33.964Z</time></trkpt><trkpt lat="43.0658628" lon="13.2048112"><ele>789.75</ele><time>2026-04-26T09:50:34.963Z</time></trkpt><trkpt lat="43.0657141" lon="13.2049531"><ele>796.5</ele><time>2026-04-26T09:50:35.962Z</time></trkpt><trkpt lat="43.0655957" lon="13.2050663"><ele>803.25</ele><time>2026-04-26T09:50:36.964Z</time></trkpt><trkpt lat="43.0655119" lon="13.2051844"><ele>810.0</ele><time>2026-04-26T09:50:37.961Z</time></trkpt><trkpt lat="43.0654424" lon="13.2052858"><ele>810.0</ele><time>2026-04-26T09:50:38.969Z</time></trkpt><trkpt lat="43.0654275" lon="13.2054274"><ele>810.0</ele><time>2026-04-26T09:50:39.963Z</time></trkpt><trkpt lat="43.0654914" lon="13.2055614"><ele>810.0</ele><time>2026-04-26T09:50:40.965Z</time></trkpt><trkpt lat="43.065608" lon="13.2056043"><ele>810.0</ele><time>2026-04-26T09:50:41.966Z</time></trkpt><trkpt lat="43.0657538" lon="13.2055991"><ele>801.0</ele><time>2026-04-26T09:50:42.957Z</time></trkpt><trkpt lat="43.0659193" lon="13.205575"><ele>792.0</ele><time>2026-04-26T09:50:43.968Z</time></trkpt><trkpt lat="43.0660788" lon="13.2057089"><ele>783.0</ele><time>2026-04-26T09:50:44.962Z</time></trkpt><trkpt lat="43.0662412" lon="13.205865"><ele>783.0</ele><time>2026-04-26T09:50:45.958Z</time></trkpt><trkpt lat="43.0664265" lon="13.2060216"><ele>783.0</ele><time>2026-04-26T09:50:46.962Z</time></trkpt><trkpt lat="43.0666268" lon="13.206103"><ele>783.0</ele><time>2026-04-26T09:50:47.959Z</time></trkpt><trkpt lat="43.0668111" lon="13.2061665"><ele>790.0</ele><time>2026-04-26T09:50:48.966Z</time></trkpt><trkpt lat="43.0669685" lon="13.2062723"><ele>797.0</ele><time>2026-04-26T09:50:49.957Z</time></trkpt><trkpt lat="43.067122" lon="13.2064304"><ele>804.0</ele><time>2026-04-26T09:50:50.958Z</time></trkpt><trkpt lat="43.0672899" lon="13.2065855"><ele>804.0</ele><time>2026-04-26T09:50:51.96Z</time></trkpt><trkpt lat="43.067442" lon="13.2067395"><ele>804.0</ele><time>2026-04-26T09:50:52.959Z</time></trkpt><trkpt lat="43.0675739" lon="13.2069002"><ele>804.0</ele><time>2026-04-26T09:50:53.968Z</time></trkpt><trkpt lat="43.0676737" lon="13.2070693"><ele>802.5</ele><time>2026-04-26T09:50:54.961Z</time></trkpt><trkpt lat="43.0677597" lon="13.2072261"><ele>801.0</ele><time>2026-04-26T09:50:55.961Z</time></trkpt><trkpt lat="43.0677856" lon="13.2073983"><ele>799.5</ele><time>2026-04-26T09:50:56.971Z</time></trkpt><trkpt lat="43.0677933" lon="13.2076039"><ele>798.0</ele><time>2026-04-26T09:50:57.964Z</time></trkpt><trkpt lat="43.0678196" lon="13.2077968"><ele>798.0</ele><time>2026-04-26T09:50:58.96Z</time></trkpt><trkpt lat="43.0678963" lon="13.2079654"><ele>798.0</ele><time>2026-04-26T09:50:59.966Z</time></trkpt><trkpt lat="43.0679846" lon="13.2081364"><ele>798.0</ele><time>2026-04-26T09:51:00.967Z</time></trkpt><trkpt lat="43.0681035" lon="13.2082539"><ele>798.0</ele><time>2026-04-26T09:51:01.965Z</time></trkpt><trkpt lat="43.0681901" lon="13.2083919"><ele>802.0</ele><time>2026-04-26T09:51:02.959Z</time></trkpt><trkpt lat="43.0682181" lon="13.2085693"><ele>806.0</ele><time>2026-04-26T09:51:03.961Z</time></trkpt><trkpt lat="43.0682073" lon="13.2087614"><ele>810.0</ele><time>2026-04-26T09:51:04.968Z</time></trkpt><trkpt lat="43.0681853" lon="13.2089729"><ele>814.0</ele><time>2026-04-26T09:51:05.967Z</time></trkpt><trkpt lat="43.0681313" lon="13.2091808"><ele>816.0</ele><time>2026-04-26T09:51:06.96Z</time></trkpt><trkpt lat="43.0680538" lon="13.2093586"><ele>818.0</ele><time>2026-04-26T09:51:07.982Z</time></trkpt><trkpt lat="43.0679843" lon="13.2095115"><ele>820.0</ele><time>2026-04-26T09:51:08.96Z</time></trkpt><trkpt lat="43.0679415" lon="13.2096454"><ele>822.0</ele><time>2026-04-26T09:51:09.963Z</time></trkpt><trkpt lat="43.0679477" lon="13.2097985"><ele>824.25</ele><time>2026-04-26T09:51:10.959Z</time></trkpt><trkpt lat="43.0679983" lon="13.2099458"><ele>826.5</ele><time>2026-04-26T09:51:11.97Z</time></trkpt><trkpt lat="43.0681137" lon="13.2100428"><ele>828.75</ele><time>2026-04-26T09:51:12.967Z</time></trkpt><trkpt lat="43.0682798" lon="13.2100808"><ele>831.0</ele><time>2026-04-26T09:51:13.966Z</time></trkpt><trkpt lat="43.0684354" lon="13.2101373"><ele>815.0</ele><time>2026-04-26T09:51:14.965Z</time></trkpt><trkpt lat="43.0686019" lon="13.2102392"><ele>799.0</ele><time>2026-04-26T09:51:15.966Z</time></trkpt><trkpt lat="43.0687483" lon="13.2104359"><ele>783.0</ele><time>2026-04-26T09:51:16.971Z</time></trkpt><trkpt lat="43.0689058" lon="13.2106355"><ele>784.3333333333333</ele><time>2026-04-26T09:51:17.962Z</time></trkpt><trkpt lat="43.0690809" lon="13.2107923"><ele>785.6666666666666</ele><time>2026-04-26T09:51:18.961Z</time></trkpt><trkpt lat="43.0692424" lon="13.2109342"><ele>787.0</ele><time>2026-04-26T09:51:19.977Z</time></trkpt><trkpt lat="43.0694443" lon="13.2110363"><ele>787.0</ele><time>2026-04-26T09:51:20.98Z</time></trkpt><trkpt lat="43.0696467" lon="13.2111306"><ele>787.0</ele><time>2026-04-26T09:51:21.961Z</time></trkpt><trkpt lat="43.0698861" lon="13.2112031"><ele>775.5</ele><time>2026-04-26T09:51:22.961Z</time></trkpt><trkpt lat="43.0701163" lon="13.2112413"><ele>764.0</ele><time>2026-04-26T09:51:23.959Z</time></trkpt><trkpt lat="43.070335" lon="13.2112527"><ele>764.0</ele><time>2026-04-26T09:51:24.96Z</time></trkpt><trkpt lat="43.0705436" lon="13.211272"><ele>764.0</ele><time>2026-04-26T09:51:25.961Z</time></trkpt><trkpt lat="43.0707289" lon="13.2112817"><ele>764.0</ele><time>2026-04-26T09:51:26.961Z</time></trkpt><trkpt lat="43.0708996" lon="13.2113093"><ele>762.0</ele><time>2026-04-26T09:51:27.966Z</time></trkpt><trkpt lat="43.0710338" lon="13.2113851"><ele>760.0</ele><time>2026-04-26T09:51:28.963Z</time></trkpt><trkpt lat="43.0711189" lon="13.2115068"><ele>758.0</ele><time>2026-04-26T09:51:29.968Z</time></trkpt><trkpt lat="43.0711419" lon="13.2116582"><ele>756.0</ele><time>2026-04-26T09:51:30.968Z</time></trkpt><trkpt lat="43.0711621" lon="13.2118318"><ele>760.3333333333333</ele><time>2026-04-26T09:51:31.959Z</time></trkpt><trkpt lat="43.0710825" lon="13.2120165"><ele>764.6666666666666</ele><time>2026-04-26T09:51:32.98Z</time></trkpt><trkpt lat="43.0709472" lon="13.2121888"><ele>769.0</ele><time>2026-04-26T09:51:33.967Z</time></trkpt><trkpt lat="43.0708012" lon="13.2123914"><ele>786.3333333333333</ele><time>2026-04-26T09:51:34.96Z</time></trkpt><trkpt lat="43.0706551" lon="13.2125865"><ele>803.6666666666667</ele><time>2026-04-26T09:51:35.966Z</time></trkpt><trkpt lat="43.0705208" lon="13.2127826"><ele>821.0</ele><time>2026-04-26T09:51:36.966Z</time></trkpt><trkpt lat="43.0704162" lon="13.2130042"><ele>811.3333333333334</ele><time>2026-04-26T09:51:37.967Z</time></trkpt><trkpt lat="43.0703503" lon="13.2132283"><ele>801.6666666666667</ele><time>2026-04-26T09:51:38.962Z</time></trkpt><trkpt lat="43.0702969" lon="13.2134293"><ele>792.0</ele><time>2026-04-26T09:51:39.964Z</time></trkpt><trkpt lat="43.0702384" lon="13.2136107"><ele>792.0</ele><time>2026-04-26T09:51:40.959Z</time></trkpt><trkpt lat="43.0700959" lon="13.2137427"><ele>792.0</ele><time>2026-04-26T09:51:41.96Z</time></trkpt><trkpt lat="43.0699262" lon="13.213861"><ele>792.0</ele><time>2026-04-26T09:51:42.96Z</time></trkpt><trkpt lat="43.0697597" lon="13.2140184"><ele>798.0</ele><time>2026-04-26T09:51:43.963Z</time></trkpt><trkpt lat="43.06961" lon="13.214199"><ele>804.0</ele><time>2026-04-26T09:51:44.957Z</time></trkpt><trkpt lat="43.0694785" lon="13.2143753"><ele>810.0</ele><time>2026-04-26T09:51:45.981Z</time></trkpt><trkpt lat="43.0693754" lon="13.2145545"><ele>810.0</ele><time>2026-04-26T09:51:46.966Z</time></trkpt><trkpt lat="43.0692987" lon="13.2147877"><ele>810.0</ele><time>2026-04-26T09:51:47.958Z</time></trkpt><trkpt lat="43.0692491" lon="13.2150541"><ele>810.0</ele><time>2026-04-26T09:51:48.96Z</time></trkpt><trkpt lat="43.0691502" lon="13.2152797"><ele>809.6666666666667</ele><time>2026-04-26T09:51:49.968Z</time></trkpt><trkpt lat="43.0690994" lon="13.2154891"><ele>809.3333333333334</ele><time>2026-04-26T09:51:50.969Z</time></trkpt><trkpt lat="43.068986" lon="13.215649"><ele>809.0</ele><time>2026-04-26T09:51:51.968Z</time></trkpt><trkpt lat="43.068939" lon="13.2158267"><ele>809.0</ele><time>2026-04-26T09:51:52.964Z</time></trkpt><trkpt lat="43.0689296" lon="13.2160413"><ele>809.0</ele><time>2026-04-26T09:51:53.962Z</time></trkpt><trkpt lat="43.0689182" lon="13.2162384"><ele>809.0</ele><time>2026-04-26T09:51:54.961Z</time></trkpt><trkpt lat="43.0688605" lon="13.2164263"><ele>794.6666666666667</ele><time>2026-04-26T09:51:55.972Z</time></trkpt><trkpt lat="43.0687572" lon="13.2165652"><ele>780.3333333333334</ele><time>2026-04-26T09:51:56.967Z</time></trkpt><trkpt lat="43.0685716" lon="13.2166512"><ele>766.0</ele><time>2026-04-26T09:51:57.989Z</time></trkpt><trkpt lat="43.0683915" lon="13.2167223"><ele>762.0</ele><time>2026-04-26T09:51:58.972Z</time></trkpt><trkpt lat="43.0682177" lon="13.2167859"><ele>758.0</ele><time>2026-04-26T09:51:59.973Z</time></trkpt><trkpt lat="43.068066" lon="13.2168039"><ele>754.0</ele><time>2026-04-26T09:52:00.968Z</time></trkpt><trkpt lat="43.0679219" lon="13.2167857"><ele>754.0</ele><time>2026-04-26T09:52:01.967Z</time></trkpt><trkpt lat="43.067799" lon="13.216725"><ele>754.0</ele><time>2026-04-26T09:52:02.97Z</time></trkpt><trkpt lat="43.0676936" lon="13.2166233"><ele>754.0</ele><time>2026-04-26T09:52:03.971Z</time></trkpt><trkpt lat="43.0676001" lon="13.2165086"><ele>754.0</ele><time>2026-04-26T09:52:04.97Z</time></trkpt><trkpt lat="43.0675125" lon="13.2163639"><ele>757.75</ele><time>2026-04-26T09:52:05.971Z</time></trkpt><trkpt lat="43.0674338" lon="13.2162193"><ele>761.5</ele><time>2026-04-26T09:52:06.971Z</time></trkpt><trkpt lat="43.0673486" lon="13.2160854"><ele>765.25</ele><time>2026-04-26T09:52:07.966Z</time></trkpt><trkpt lat="43.0672695" lon="13.2159715"><ele>769.0</ele><time>2026-04-26T09:52:08.962Z</time></trkpt><trkpt lat="43.0671841" lon="13.2158805"><ele>769.0</ele><time>2026-04-26T09:52:09.968Z</time></trkpt><trkpt lat="43.0670794" lon="13.2158076"><ele>769.0</ele><time>2026-04-26T09:52:10.969Z</time></trkpt><trkpt lat="43.0669545" lon="13.2157777"><ele>769.0</ele><time>2026-04-26T09:52:11.963Z</time></trkpt><trkpt lat="43.0668328" lon="13.2157934"><ele>769.0</ele><time>2026-04-26T09:52:12.964Z</time></trkpt><trkpt lat="43.0667266" lon="13.2158507"><ele>769.0</ele><time>2026-04-26T09:52:13.964Z</time></trkpt><trkpt lat="43.0666304" lon="13.2159001"><ele>769.0</ele><time>2026-04-26T09:52:14.965Z</time></trkpt><trkpt lat="43.0665327" lon="13.2159383"><ele>769.0</ele><time>2026-04-26T09:52:15.961Z</time></trkpt><trkpt lat="43.0664406" lon="13.2159483"><ele>769.0</ele><time>2026-04-26T09:52:16.963Z</time></trkpt><trkpt lat="43.066342" lon="13.215894"><ele>769.0</ele><time>2026-04-26T09:52:17.973Z</time></trkpt><trkpt lat="43.0662324" lon="13.2158333"><ele>774.8000000000001</ele><time>2026-04-26T09:52:18.97Z</time></trkpt><trkpt lat="43.0661188" lon="13.2158047"><ele>780.6</ele><time>2026-04-26T09:52:19.962Z</time></trkpt><trkpt lat="43.06601" lon="13.215814"><ele>786.4</ele><time>2026-04-26T09:52:20.969Z</time></trkpt><trkpt lat="43.065913" lon="13.215849"><ele>792.2</ele><time>2026-04-26T09:52:21.969Z</time></trkpt><trkpt lat="43.0658285" lon="13.2158644"><ele>798.0</ele><time>2026-04-26T09:52:22.975Z</time></trkpt><trkpt lat="43.065758" lon="13.2159259"><ele>802.0</ele><time>2026-04-26T09:52:23.972Z</time></trkpt><trkpt lat="43.0656949" lon="13.2159976"><ele>806.0</ele><time>2026-04-26T09:52:24.967Z</time></trkpt><trkpt lat="43.0656401" lon="13.2160741"><ele>810.0</ele><time>2026-04-26T09:52:25.961Z</time></trkpt><trkpt lat="43.0655015" lon="13.2162207"><ele>814.0</ele><time>2026-04-26T09:52:27.958Z</time></trkpt><trkpt lat="43.0653706" lon="13.2163435"><ele>814.0</ele><time>2026-04-26T09:52:28.965Z</time></trkpt><trkpt lat="43.0652273" lon="13.216369"><ele>814.0</ele><time>2026-04-26T09:52:29.973Z</time></trkpt><trkpt lat="43.0650899" lon="13.2164401"><ele>814.0</ele><time>2026-04-26T09:52:30.971Z</time></trkpt><trkpt lat="43.0649655" lon="13.2165162"><ele>814.0</ele><time>2026-04-26T09:52:31.964Z</time></trkpt><trkpt lat="43.0647939" lon="13.2166178"><ele>803.5</ele><time>2026-04-26T09:52:32.968Z</time></trkpt><trkpt lat="43.0646772" lon="13.2166635"><ele>793.0</ele><time>2026-04-26T09:52:33.97Z</time></trkpt><trkpt lat="43.0645418" lon="13.2167021"><ele>782.5</ele><time>2026-04-26T09:52:34.969Z</time></trkpt><trkpt lat="43.0643946" lon="13.2167363"><ele>772.0</ele><time>2026-04-26T09:52:35.964Z</time></trkpt><trkpt lat="43.0642747" lon="13.2168128"><ele>772.0</ele><time>2026-04-26T09:52:36.964Z</time></trkpt><trkpt lat="43.0641727" lon="13.2169115"><ele>772.0</ele><time>2026-04-26T09:52:37.971Z</time></trkpt><trkpt lat="43.0640754" lon="13.2170384"><ele>772.0</ele><time>2026-04-26T09:52:38.963Z</time></trkpt><trkpt lat="43.063962" lon="13.2171655"><ele>772.0</ele><time>2026-04-26T09:52:39.961Z</time></trkpt><trkpt lat="43.0638532" lon="13.2172723"><ele>764.75</ele><time>2026-04-26T09:52:40.967Z</time></trkpt><trkpt lat="43.0637359" lon="13.2173846"><ele>757.5</ele><time>2026-04-26T09:52:41.969Z</time></trkpt><trkpt lat="43.0636111" lon="13.217474"><ele>750.25</ele><time>2026-04-26T09:52:42.963Z</time></trkpt><trkpt lat="43.0634642" lon="13.2175412"><ele>743.0</ele><time>2026-04-26T09:52:43.962Z</time></trkpt><trkpt lat="43.0633135" lon="13.2175693"><ele>744.5</ele><time>2026-04-26T09:52:44.973Z</time></trkpt><trkpt lat="43.0631676" lon="13.2175785"><ele>746.0</ele><time>2026-04-26T09:52:45.968Z</time></trkpt><trkpt lat="43.0630311" lon="13.2175979"><ele>747.5</ele><time>2026-04-26T09:52:46.969Z</time></trkpt><trkpt lat="43.0628966" lon="13.2176363"><ele>749.0</ele><time>2026-04-26T09:52:47.965Z</time></trkpt><trkpt lat="43.0627672" lon="13.2176832"><ele>749.0</ele><time>2026-04-26T09:52:48.968Z</time></trkpt><trkpt lat="43.0626423" lon="13.2177367"><ele>749.0</ele><time>2026-04-26T09:52:49.97Z</time></trkpt><trkpt lat="43.0625139" lon="13.2177928"><ele>749.0</ele><time>2026-04-26T09:52:50.967Z</time></trkpt><trkpt lat="43.0623831" lon="13.2178409"><ele>749.0</ele><time>2026-04-26T09:52:51.967Z</time></trkpt><trkpt lat="43.0622497" lon="13.2178736"><ele>748.0</ele><time>2026-04-26T09:52:52.977Z</time></trkpt><trkpt lat="43.0621138" lon="13.2178815"><ele>747.0</ele><time>2026-04-26T09:52:53.969Z</time></trkpt><trkpt lat="43.0619858" lon="13.2178567"><ele>746.0</ele><time>2026-04-26T09:52:54.964Z</time></trkpt><trkpt lat="43.0618666" lon="13.2178206"><ele>745.0</ele><time>2026-04-26T09:52:55.961Z</time></trkpt><trkpt lat="43.0617564" lon="13.2177846"><ele>745.0</ele><time>2026-04-26T09:52:56.96Z</time></trkpt><trkpt lat="43.0616524" lon="13.2177649"><ele>745.0</ele><time>2026-04-26T09:52:57.965Z</time></trkpt><trkpt lat="43.0615537" lon="13.2177797"><ele>745.0</ele><time>2026-04-26T09:52:58.964Z</time></trkpt><trkpt lat="43.0614609" lon="13.2178333"><ele>745.0</ele><time>2026-04-26T09:52:59.964Z</time></trkpt><trkpt lat="43.0613836" lon="13.2179252"><ele>745.0</ele><time>2026-04-26T09:53:00.971Z</time></trkpt><trkpt lat="43.0613393" lon="13.2180429"><ele>747.2</ele><time>2026-04-26T09:53:01.963Z</time></trkpt><trkpt lat="43.0613376" lon="13.2181708"><ele>749.4</ele><time>2026-04-26T09:53:02.971Z</time></trkpt><trkpt lat="43.0613782" lon="13.2182968"><ele>751.5999999999999</ele><time>2026-04-26T09:53:03.962Z</time></trkpt><trkpt lat="43.0614552" lon="13.2184091"><ele>753.8</ele><time>2026-04-26T09:53:04.96Z</time></trkpt><trkpt lat="43.061552" lon="13.218513"><ele>756.0</ele><time>2026-04-26T09:53:05.962Z</time></trkpt><trkpt lat="43.0616429" lon="13.218609"><ele>749.25</ele><time>2026-04-26T09:53:06.963Z</time></trkpt><trkpt lat="43.0617336" lon="13.2187066"><ele>742.5</ele><time>2026-04-26T09:53:07.965Z</time></trkpt><trkpt lat="43.0618328" lon="13.218804"><ele>735.75</ele><time>2026-04-26T09:53:08.969Z</time></trkpt><trkpt lat="43.0619452" lon="13.2188879"><ele>729.0</ele><time>2026-04-26T09:53:09.971Z</time></trkpt><trkpt lat="43.0620675" lon="13.2189476"><ele>732.5</ele><time>2026-04-26T09:53:10.97Z</time></trkpt><trkpt lat="43.062189" lon="13.2189869"><ele>736.0</ele><time>2026-04-26T09:53:11.964Z</time></trkpt><trkpt lat="43.0623003" lon="13.2190142"><ele>739.5</ele><time>2026-04-26T09:53:12.97Z</time></trkpt><trkpt lat="43.0624083" lon="13.219035"><ele>743.0</ele><time>2026-04-26T09:53:13.965Z</time></trkpt><trkpt lat="43.0625162" lon="13.2190624"><ele>743.0</ele><time>2026-04-26T09:53:14.965Z</time></trkpt><trkpt lat="43.0626192" lon="13.2191141"><ele>743.0</ele><time>2026-04-26T09:53:15.963Z</time></trkpt><trkpt lat="43.0627116" lon="13.2191913"><ele>743.0</ele><time>2026-04-26T09:53:16.968Z</time></trkpt><trkpt lat="43.0627947" lon="13.2192828"><ele>743.0</ele><time>2026-04-26T09:53:17.969Z</time></trkpt><trkpt lat="43.0628765" lon="13.2193667"><ele>743.0</ele><time>2026-04-26T09:53:18.971Z</time></trkpt><trkpt lat="43.0629667" lon="13.2194143"><ele>743.0</ele><time>2026-04-26T09:53:19.967Z</time></trkpt><trkpt lat="43.0630632" lon="13.2194215"><ele>743.0</ele><time>2026-04-26T09:53:20.972Z</time></trkpt><trkpt lat="43.0631575" lon="13.2193935"><ele>743.0</ele><time>2026-04-26T09:53:21.967Z</time></trkpt><trkpt lat="43.063247" lon="13.2193416"><ele>743.0</ele><time>2026-04-26T09:53:22.962Z</time></trkpt><trkpt lat="43.0633355" lon="13.2192904"><ele>743.0</ele><time>2026-04-26T09:53:23.961Z</time></trkpt><trkpt lat="43.0634265" lon="13.2192513"><ele>740.8</ele><time>2026-04-26T09:53:24.964Z</time></trkpt><trkpt lat="43.0635241" lon="13.2192263"><ele>738.5999999999999</ele><time>2026-04-26T09:53:25.963Z</time></trkpt><trkpt lat="43.0636257" lon="13.2192099"><ele>736.4000000000001</ele><time>2026-04-26T09:53:26.967Z</time></trkpt><trkpt lat="43.0637308" lon="13.2192102"><ele>734.2</ele><time>2026-04-26T09:53:27.964Z</time></trkpt><trkpt lat="43.0638365" lon="13.2192323"><ele>732.0</ele><time>2026-04-26T09:53:28.971Z</time></trkpt><trkpt lat="43.06394" lon="13.2192709"><ele>732.0</ele><time>2026-04-26T09:53:29.969Z</time></trkpt><trkpt lat="43.064045" lon="13.2193262"><ele>732.0</ele><time>2026-04-26T09:53:30.967Z</time></trkpt><trkpt lat="43.0641547" lon="13.2194156"><ele>732.0</ele><time>2026-04-26T09:53:31.98Z</time></trkpt><trkpt lat="43.0642742" lon="13.21953"><ele>732.0</ele><time>2026-04-26T09:53:32.97Z</time></trkpt><trkpt lat="43.0643974" lon="13.2196241"><ele>729.75</ele><time>2026-04-26T09:53:33.966Z</time></trkpt><trkpt lat="43.0645149" lon="13.2197055"><ele>727.5</ele><time>2026-04-26T09:53:34.967Z</time></trkpt><trkpt lat="43.0646345" lon="13.2197176"><ele>725.25</ele><time>2026-04-26T09:53:35.962Z</time></trkpt><trkpt lat="43.0647536" lon="13.2197577"><ele>723.0</ele><time>2026-04-26T09:53:36.966Z</time></trkpt><trkpt lat="43.0648692" lon="13.2198348"><ele>725.25</ele><time>2026-04-26T09:53:37.968Z</time></trkpt><trkpt lat="43.0649807" lon="13.2199336"><ele>727.5</ele><time>2026-04-26T09:53:38.974Z</time></trkpt><trkpt lat="43.0650812" lon="13.2200469"><ele>729.75</ele><time>2026-04-26T09:53:39.961Z</time></trkpt><trkpt lat="43.0651746" lon="13.2201781"><ele>732.0</ele><time>2026-04-26T09:53:40.968Z</time></trkpt><trkpt lat="43.0652645" lon="13.2203369"><ele>732.0</ele><time>2026-04-26T09:53:41.967Z</time></trkpt><trkpt lat="43.0653366" lon="13.220509"><ele>732.0</ele><time>2026-04-26T09:53:42.965Z</time></trkpt><trkpt lat="43.0653949" lon="13.22068"><ele>732.0</ele><time>2026-04-26T09:53:43.965Z</time></trkpt><trkpt lat="43.065449" lon="13.2208554"><ele>732.0</ele><time>2026-04-26T09:53:44.97Z</time></trkpt><trkpt lat="43.0655043" lon="13.2210438"><ele>742.0</ele><time>2026-04-26T09:53:45.965Z</time></trkpt><trkpt lat="43.0655714" lon="13.2212358"><ele>752.0</ele><time>2026-04-26T09:53:46.968Z</time></trkpt><trkpt lat="43.0656558" lon="13.2214162"><ele>762.0</ele><time>2026-04-26T09:53:47.972Z</time></trkpt><trkpt lat="43.0657593" lon="13.2215836"><ele>753.6666666666666</ele><time>2026-04-26T09:53:48.997Z</time></trkpt><trkpt lat="43.0658669" lon="13.2217521"><ele>745.3333333333333</ele><time>2026-04-26T09:53:49.965Z</time></trkpt><trkpt lat="43.065991" lon="13.2218764"><ele>737.0</ele><time>2026-04-26T09:53:50.963Z</time></trkpt><trkpt lat="43.0661157" lon="13.2219836"><ele>737.0</ele><time>2026-04-26T09:53:51.967Z</time></trkpt><trkpt lat="43.0662427" lon="13.2220747"><ele>737.0</ele><time>2026-04-26T09:53:52.97Z</time></trkpt><trkpt lat="43.0663652" lon="13.2221662"><ele>737.0</ele><time>2026-04-26T09:53:53.969Z</time></trkpt><trkpt lat="43.0664744" lon="13.2222691"><ele>737.0</ele><time>2026-04-26T09:53:54.966Z</time></trkpt><trkpt lat="43.0665753" lon="13.2223829"><ele>735.75</ele><time>2026-04-26T09:53:55.971Z</time></trkpt><trkpt lat="43.0666795" lon="13.2225077"><ele>734.5</ele><time>2026-04-26T09:53:56.969Z</time></trkpt><trkpt lat="43.0667879" lon="13.2226383"><ele>733.25</ele><time>2026-04-26T09:53:57.965Z</time></trkpt><trkpt lat="43.0669038" lon="13.2227696"><ele>732.0</ele><time>2026-04-26T09:53:58.976Z</time></trkpt><trkpt lat="43.0670237" lon="13.2228935"><ele>732.0</ele><time>2026-04-26T09:53:59.963Z</time></trkpt><trkpt lat="43.0671444" lon="13.2229948"><ele>732.0</ele><time>2026-04-26T09:54:00.963Z</time></trkpt><trkpt lat="43.0672712" lon="13.2230605"><ele>732.0</ele><time>2026-04-26T09:54:01.96Z</time></trkpt><trkpt lat="43.0673975" lon="13.223091"><ele>732.0</ele><time>2026-04-26T09:54:02.966Z</time></trkpt><trkpt lat="43.0675211" lon="13.2230943"><ele>732.2</ele><time>2026-04-26T09:54:03.971Z</time></trkpt><trkpt lat="43.0676357" lon="13.2230999"><ele>732.4000000000001</ele><time>2026-04-26T09:54:04.963Z</time></trkpt><trkpt lat="43.0677429" lon="13.2231355"><ele>732.5999999999999</ele><time>2026-04-26T09:54:05.962Z</time></trkpt><trkpt lat="43.0678331" lon="13.2232152"><ele>732.8</ele><time>2026-04-26T09:54:06.972Z</time></trkpt><trkpt lat="43.0679224" lon="13.2232919"><ele>733.0</ele><time>2026-04-26T09:54:07.97Z</time></trkpt><trkpt lat="43.0679608" lon="13.2234549"><ele>733.0</ele><time>2026-04-26T09:54:08.98Z</time></trkpt><trkpt lat="43.0680079" lon="13.2236344"><ele>733.0</ele><time>2026-04-26T09:54:09.972Z</time></trkpt><trkpt lat="43.0680665" lon="13.2238162"><ele>733.0</ele><time>2026-04-26T09:54:10.964Z</time></trkpt><trkpt lat="43.0681268" lon="13.2239912"><ele>733.0</ele><time>2026-04-26T09:54:11.965Z</time></trkpt><trkpt lat="43.0681876" lon="13.22416"><ele>730.25</ele><time>2026-04-26T09:54:12.964Z</time></trkpt><trkpt lat="43.0682442" lon="13.224338"><ele>727.5</ele><time>2026-04-26T09:54:13.968Z</time></trkpt><trkpt lat="43.0682941" lon="13.2245253"><ele>724.75</ele><time>2026-04-26T09:54:14.973Z</time></trkpt><trkpt lat="43.0683294" lon="13.2247276"><ele>722.0</ele><time>2026-04-26T09:54:15.971Z</time></trkpt><trkpt lat="43.0683496" lon="13.2249445"><ele>722.0</ele><time>2026-04-26T09:54:16.964Z</time></trkpt><trkpt lat="43.0683584" lon="13.2251556"><ele>722.0</ele><time>2026-04-26T09:54:17.966Z</time></trkpt><trkpt lat="43.0683687" lon="13.2253587"><ele>722.0</ele><time>2026-04-26T09:54:18.971Z</time></trkpt><trkpt lat="43.0683801" lon="13.2255643"><ele>725.0</ele><time>2026-04-26T09:54:19.977Z</time></trkpt><trkpt lat="43.0684068" lon="13.2257666"><ele>728.0</ele><time>2026-04-26T09:54:20.966Z</time></trkpt><trkpt lat="43.0684264" lon="13.2259742"><ele>731.0</ele><time>2026-04-26T09:54:21.968Z</time></trkpt><trkpt lat="43.068442" lon="13.2261861"><ele>731.0</ele><time>2026-04-26T09:54:22.959Z</time></trkpt><trkpt lat="43.068441" lon="13.2264016"><ele>731.0</ele><time>2026-04-26T09:54:23.966Z</time></trkpt><trkpt lat="43.0684264" lon="13.2266131"><ele>731.0</ele><time>2026-04-26T09:54:24.966Z</time></trkpt><trkpt lat="43.0684055" lon="13.2268227"><ele>729.0</ele><time>2026-04-26T09:54:25.967Z</time></trkpt><trkpt lat="43.068386" lon="13.2270241"><ele>727.0</ele><time>2026-04-26T09:54:26.965Z</time></trkpt><trkpt lat="43.0683704" lon="13.2272116"><ele>725.0</ele><time>2026-04-26T09:54:27.966Z</time></trkpt><trkpt lat="43.0683564" lon="13.2273888"><ele>723.0</ele><time>2026-04-26T09:54:28.967Z</time></trkpt><trkpt lat="43.0683402" lon="13.2275567"><ele>721.75</ele><time>2026-04-26T09:54:29.968Z</time></trkpt><trkpt lat="43.0683205" lon="13.2277332"><ele>720.5</ele><time>2026-04-26T09:54:30.965Z</time></trkpt><trkpt lat="43.0682889" lon="13.2279243"><ele>719.25</ele><time>2026-04-26T09:54:31.982Z</time></trkpt><trkpt lat="43.0682367" lon="13.2281358"><ele>718.0</ele><time>2026-04-26T09:54:32.972Z</time></trkpt><trkpt lat="43.0681628" lon="13.2283719"><ele>723.0</ele><time>2026-04-26T09:54:33.966Z</time></trkpt><trkpt lat="43.0680747" lon="13.2286265"><ele>728.0</ele><time>2026-04-26T09:54:34.967Z</time></trkpt><trkpt lat="43.0679759" lon="13.2289052"><ele>733.0</ele><time>2026-04-26T09:54:35.972Z</time></trkpt><trkpt lat="43.0678765" lon="13.2291814"><ele>733.0</ele><time>2026-04-26T09:54:36.969Z</time></trkpt><trkpt lat="43.0677674" lon="13.2294652"><ele>733.0</ele><time>2026-04-26T09:54:37.977Z</time></trkpt><trkpt lat="43.0676454" lon="13.2297392"><ele>727.5</ele><time>2026-04-26T09:54:38.967Z</time></trkpt><trkpt lat="43.0675159" lon="13.2300001"><ele>722.0</ele><time>2026-04-26T09:54:39.972Z</time></trkpt><trkpt lat="43.0673818" lon="13.2302728"><ele>732.5</ele><time>2026-04-26T09:54:40.974Z</time></trkpt><trkpt lat="43.0672703" lon="13.2305534"><ele>743.0</ele><time>2026-04-26T09:54:41.966Z</time></trkpt><trkpt lat="43.0671714" lon="13.2308211"><ele>743.0</ele><time>2026-04-26T09:54:42.972Z</time></trkpt><trkpt lat="43.0670805" lon="13.2310841"><ele>743.0</ele><time>2026-04-26T09:54:43.973Z</time></trkpt><trkpt lat="43.0669735" lon="13.2313455"><ele>743.0</ele><time>2026-04-26T09:54:44.966Z</time></trkpt><trkpt lat="43.0668506" lon="13.2315989"><ele>745.6666666666666</ele><time>2026-04-26T09:54:45.971Z</time></trkpt><trkpt lat="43.0667186" lon="13.2318431"><ele>748.3333333333334</ele><time>2026-04-26T09:54:46.967Z</time></trkpt><trkpt lat="43.0665767" lon="13.2320846"><ele>751.0</ele><time>2026-04-26T09:54:47.971Z</time></trkpt><trkpt lat="43.0664286" lon="13.2323244"><ele>744.0</ele><time>2026-04-26T09:54:48.971Z</time></trkpt><trkpt lat="43.0662829" lon="13.2325543"><ele>737.0</ele><time>2026-04-26T09:54:49.969Z</time></trkpt><trkpt lat="43.0661332" lon="13.2327764"><ele>730.0</ele><time>2026-04-26T09:54:50.971Z</time></trkpt><trkpt lat="43.0659832" lon="13.2329802"><ele>728.6666666666667</ele><time>2026-04-26T09:54:51.969Z</time></trkpt><trkpt lat="43.0658299" lon="13.2331568"><ele>727.3333333333334</ele><time>2026-04-26T09:54:52.976Z</time></trkpt><trkpt lat="43.0656715" lon="13.2332988"><ele>726.0</ele><time>2026-04-26T09:54:53.971Z</time></trkpt><trkpt lat="43.0654953" lon="13.2334003"><ele>726.0</ele><time>2026-04-26T09:54:54.971Z</time></trkpt><trkpt lat="43.06531" lon="13.2334763"><ele>726.0</ele><time>2026-04-26T09:54:55.976Z</time></trkpt><trkpt lat="43.0651309" lon="13.2335378"><ele>726.0</ele><time>2026-04-26T09:54:56.964Z</time></trkpt><trkpt lat="43.0649487" lon="13.2335787"><ele>722.0</ele><time>2026-04-26T09:54:57.991Z</time></trkpt><trkpt lat="43.0647649" lon="13.2335834"><ele>718.0</ele><time>2026-04-26T09:54:58.969Z</time></trkpt><trkpt lat="43.0645812" lon="13.2335546"><ele>714.0</ele><time>2026-04-26T09:54:59.967Z</time></trkpt><trkpt lat="43.064409" lon="13.2334838"><ele>714.0</ele><time>2026-04-26T09:55:00.972Z</time></trkpt><trkpt lat="43.0642424" lon="13.2333618"><ele>714.0</ele><time>2026-04-26T09:55:01.967Z</time></trkpt><trkpt lat="43.0640836" lon="13.2332254"><ele>714.0</ele><time>2026-04-26T09:55:02.972Z</time></trkpt><trkpt lat="43.0639144" lon="13.2330846"><ele>716.6666666666666</ele><time>2026-04-26T09:55:03.967Z</time></trkpt><trkpt lat="43.0637096" lon="13.232991"><ele>719.3333333333333</ele><time>2026-04-26T09:55:04.97Z</time></trkpt><trkpt lat="43.0634917" lon="13.2329386"><ele>722.0</ele><time>2026-04-26T09:55:05.971Z</time></trkpt><trkpt lat="43.0632866" lon="13.2329065"><ele>711.6666666666666</ele><time>2026-04-26T09:55:06.976Z</time></trkpt><trkpt lat="43.063094" lon="13.2328607"><ele>701.3333333333334</ele><time>2026-04-26T09:55:07.969Z</time></trkpt><trkpt lat="43.0629124" lon="13.2327804"><ele>691.0</ele><time>2026-04-26T09:55:08.965Z</time></trkpt><trkpt lat="43.0627509" lon="13.2326595"><ele>691.0</ele><time>2026-04-26T09:55:09.97Z</time></trkpt><trkpt lat="43.0626159" lon="13.2324945"><ele>691.0</ele><time>2026-04-26T09:55:10.967Z</time></trkpt><trkpt lat="43.0624937" lon="13.2323123"><ele>691.0</ele><time>2026-04-26T09:55:11.966Z</time></trkpt><trkpt lat="43.0624219" lon="13.2320858"><ele>686.0</ele><time>2026-04-26T09:55:12.968Z</time></trkpt><trkpt lat="43.0623568" lon="13.2318773"><ele>681.0</ele><time>2026-04-26T09:55:13.977Z</time></trkpt><trkpt lat="43.0622765" lon="13.2316957"><ele>676.0</ele><time>2026-04-26T09:55:14.971Z</time></trkpt><trkpt lat="43.0621662" lon="13.2315597"><ele>676.0</ele><time>2026-04-26T09:55:15.973Z</time></trkpt><trkpt lat="43.0620364" lon="13.2314815"><ele>676.0</ele><time>2026-04-26T09:55:16.965Z</time></trkpt><trkpt lat="43.0619141" lon="13.231422"><ele>676.0</ele><time>2026-04-26T09:55:17.966Z</time></trkpt><trkpt lat="43.061822" lon="13.231332"><ele>676.0</ele><time>2026-04-26T09:55:18.967Z</time></trkpt><trkpt lat="43.0617802" lon="13.2311912"><ele>678.5</ele><time>2026-04-26T09:55:19.971Z</time></trkpt><trkpt lat="43.0617606" lon="13.2310224"><ele>681.0</ele><time>2026-04-26T09:55:20.967Z</time></trkpt><trkpt lat="43.0617073" lon="13.2308357"><ele>683.5</ele><time>2026-04-26T09:55:21.979Z</time></trkpt><trkpt lat="43.0616153" lon="13.2306774"><ele>686.0</ele><time>2026-04-26T09:55:22.978Z</time></trkpt><trkpt lat="43.0614939" lon="13.2305563"><ele>690.6666666666666</ele><time>2026-04-26T09:55:23.973Z</time></trkpt><trkpt lat="43.0613522" lon="13.2304816"><ele>695.3333333333334</ele><time>2026-04-26T09:55:24.975Z</time></trkpt><trkpt lat="43.0611968" lon="13.2304639"><ele>700.0</ele><time>2026-04-26T09:55:25.976Z</time></trkpt><trkpt lat="43.0610338" lon="13.2305206"><ele>700.0</ele><time>2026-04-26T09:55:26.968Z</time></trkpt><trkpt lat="43.0608551" lon="13.230597"><ele>700.0</ele><time>2026-04-26T09:55:27.98Z</time></trkpt><trkpt lat="43.0606955" lon="13.2307708"><ele>700.0</ele><time>2026-04-26T09:55:28.966Z</time></trkpt><trkpt lat="43.0605504" lon="13.2309521"><ele>701.3333333333334</ele><time>2026-04-26T09:55:29.983Z</time></trkpt><trkpt lat="43.0604301" lon="13.2311199"><ele>702.6666666666666</ele><time>2026-04-26T09:55:30.965Z</time></trkpt><trkpt lat="43.060341" lon="13.2312881"><ele>704.0</ele><time>2026-04-26T09:55:31.97Z</time></trkpt><trkpt lat="43.0603023" lon="13.2314937"><ele>704.0</ele><time>2026-04-26T09:55:32.974Z</time></trkpt><trkpt lat="43.0603079" lon="13.2317309"><ele>704.0</ele><time>2026-04-26T09:55:33.968Z</time></trkpt><trkpt lat="43.060313" lon="13.2319908"><ele>704.0</ele><time>2026-04-26T09:55:34.97Z</time></trkpt><trkpt lat="43.0602829" lon="13.2322431"><ele>706.0</ele><time>2026-04-26T09:55:35.964Z</time></trkpt><trkpt lat="43.0602502" lon="13.2324855"><ele>708.0</ele><time>2026-04-26T09:55:36.963Z</time></trkpt><trkpt lat="43.060265" lon="13.2327579"><ele>710.0</ele><time>2026-04-26T09:55:37.965Z</time></trkpt><trkpt lat="43.0602969" lon="13.2330325"><ele>711.6666666666666</ele><time>2026-04-26T09:55:38.964Z</time></trkpt><trkpt lat="43.0603535" lon="13.233299"><ele>713.3333333333334</ele><time>2026-04-26T09:55:39.962Z</time></trkpt><trkpt lat="43.0603729" lon="13.2335336"><ele>715.0</ele><time>2026-04-26T09:55:40.965Z</time></trkpt><trkpt lat="43.0603904" lon="13.2337418"><ele>715.0</ele><time>2026-04-26T09:55:41.972Z</time></trkpt><trkpt lat="43.0604286" lon="13.2339336"><ele>715.0</ele><time>2026-04-26T09:55:42.964Z</time></trkpt><trkpt lat="43.0604839" lon="13.23411"><ele>715.0</ele><time>2026-04-26T09:55:43.975Z</time></trkpt><trkpt lat="43.0605856" lon="13.2342724"><ele>715.0</ele><time>2026-04-26T09:55:44.963Z</time></trkpt><trkpt lat="43.0606579" lon="13.2344682"><ele>715.0</ele><time>2026-04-26T09:55:45.964Z</time></trkpt><trkpt lat="43.060756" lon="13.2347106"><ele>715.0</ele><time>2026-04-26T09:55:46.966Z</time></trkpt><trkpt lat="43.0608642" lon="13.2349561"><ele>715.0</ele><time>2026-04-26T09:55:47.97Z</time></trkpt><trkpt lat="43.0610229" lon="13.2351285"><ele>708.0</ele><time>2026-04-26T09:55:48.966Z</time></trkpt><trkpt lat="43.0611629" lon="13.2352821"><ele>701.0</ele><time>2026-04-26T09:55:49.967Z</time></trkpt><trkpt lat="43.0612755" lon="13.2354056"><ele>694.0</ele><time>2026-04-26T09:55:50.966Z</time></trkpt><trkpt lat="43.0613766" lon="13.2355313"><ele>698.8000000000001</ele><time>2026-04-26T09:55:51.965Z</time></trkpt><trkpt lat="43.06144" lon="13.235663"><ele>703.6</ele><time>2026-04-26T09:55:52.973Z</time></trkpt><trkpt lat="43.0614965" lon="13.2357821"><ele>708.4</ele><time>2026-04-26T09:55:53.967Z</time></trkpt><trkpt lat="43.0614755" lon="13.235932"><ele>713.2</ele><time>2026-04-26T09:55:54.982Z</time></trkpt><trkpt lat="43.0614329" lon="13.2360585"><ele>718.0</ele><time>2026-04-26T09:55:55.965Z</time></trkpt><trkpt lat="43.0614046" lon="13.2362093"><ele>718.0</ele><time>2026-04-26T09:55:56.965Z</time></trkpt><trkpt lat="43.0614289" lon="13.2363119"><ele>718.0</ele><time>2026-04-26T09:55:57.967Z</time></trkpt><trkpt lat="43.061542" lon="13.2363814"><ele>718.0</ele><time>2026-04-26T09:55:58.973Z</time></trkpt><trkpt lat="43.0617072" lon="13.2363749"><ele>718.0</ele><time>2026-04-26T09:55:59.961Z</time></trkpt><trkpt lat="43.0618371" lon="13.2363844"><ele>707.75</ele><time>2026-04-26T09:56:00.961Z</time></trkpt><trkpt lat="43.061923" lon="13.2364676"><ele>697.5</ele><time>2026-04-26T09:56:01.967Z</time></trkpt><trkpt lat="43.0619789" lon="13.2365946"><ele>687.25</ele><time>2026-04-26T09:56:02.961Z</time></trkpt><trkpt lat="43.0619808" lon="13.2367355"><ele>677.0</ele><time>2026-04-26T09:56:03.964Z</time></trkpt><trkpt lat="43.0619678" lon="13.2369312"><ele>677.0</ele><time>2026-04-26T09:56:04.968Z</time></trkpt><trkpt lat="43.0620309" lon="13.2370615"><ele>677.0</ele><time>2026-04-26T09:56:05.964Z</time></trkpt><trkpt lat="43.0621303" lon="13.2371874"><ele>677.0</ele><time>2026-04-26T09:56:06.965Z</time></trkpt><trkpt lat="43.0623102" lon="13.2372116"><ele>677.0</ele><time>2026-04-26T09:56:07.964Z</time></trkpt><trkpt lat="43.0625181" lon="13.2372381"><ele>674.0</ele><time>2026-04-26T09:56:08.971Z</time></trkpt><trkpt lat="43.0627195" lon="13.2372794"><ele>671.0</ele><time>2026-04-26T09:56:09.967Z</time></trkpt><trkpt lat="43.0629015" lon="13.2373461"><ele>668.0</ele><time>2026-04-26T09:56:10.965Z</time></trkpt><trkpt lat="43.0630688" lon="13.2374253"><ele>668.0</ele><time>2026-04-26T09:56:11.963Z</time></trkpt><trkpt lat="43.0632002" lon="13.2375563"><ele>668.0</ele><time>2026-04-26T09:56:12.963Z</time></trkpt><trkpt lat="43.0632889" lon="13.2377439"><ele>668.0</ele><time>2026-04-26T09:56:13.962Z</time></trkpt><trkpt lat="43.0633426" lon="13.2379408"><ele>663.5</ele><time>2026-04-26T09:56:14.976Z</time></trkpt><trkpt lat="43.0633473" lon="13.2381404"><ele>659.0</ele><time>2026-04-26T09:56:15.963Z</time></trkpt><trkpt lat="43.0633217" lon="13.2383253"><ele>654.5</ele><time>2026-04-26T09:56:16.959Z</time></trkpt><trkpt lat="43.0633094" lon="13.2384803"><ele>650.0</ele><time>2026-04-26T09:56:17.961Z</time></trkpt><trkpt lat="43.0633364" lon="13.2386224"><ele>650.0</ele><time>2026-04-26T09:56:18.96Z</time></trkpt><trkpt lat="43.0634102" lon="13.2387255"><ele>650.0</ele><time>2026-04-26T09:56:19.96Z</time></trkpt><trkpt lat="43.0635012" lon="13.2388214"><ele>650.0</ele><time>2026-04-26T09:56:20.967Z</time></trkpt><trkpt lat="43.0636654" lon="13.2388614"><ele>650.0</ele><time>2026-04-26T09:56:21.965Z</time></trkpt><trkpt lat="43.0638493" lon="13.2388464"><ele>650.0</ele><time>2026-04-26T09:56:22.969Z</time></trkpt><trkpt lat="43.0640463" lon="13.2388584"><ele>650.0</ele><time>2026-04-26T09:56:23.964Z</time></trkpt><trkpt lat="43.0642553" lon="13.2389552"><ele>650.0</ele><time>2026-04-26T09:56:24.963Z</time></trkpt><trkpt lat="43.0644729" lon="13.2390898"><ele>648.5</ele><time>2026-04-26T09:56:25.962Z</time></trkpt><trkpt lat="43.0647109" lon="13.2392471"><ele>647.0</ele><time>2026-04-26T09:56:26.966Z</time></trkpt><trkpt lat="43.0649557" lon="13.2394224"><ele>631.5</ele><time>2026-04-26T09:56:27.965Z</time></trkpt><trkpt lat="43.0651884" lon="13.2395879"><ele>616.0</ele><time>2026-04-26T09:56:28.964Z</time></trkpt><trkpt lat="43.0654184" lon="13.2397455"><ele>615.0</ele><time>2026-04-26T09:56:29.965Z</time></trkpt><trkpt lat="43.0656382" lon="13.2398931"><ele>614.0</ele><time>2026-04-26T09:56:30.962Z</time></trkpt><trkpt lat="43.0658494" lon="13.240042"><ele>614.0</ele><time>2026-04-26T09:56:31.965Z</time></trkpt><trkpt lat="43.066049" lon="13.2401976"><ele>614.0</ele><time>2026-04-26T09:56:32.965Z</time></trkpt><trkpt lat="43.0662463" lon="13.2403538"><ele>614.0</ele><time>2026-04-26T09:56:33.968Z</time></trkpt><trkpt lat="43.0664489" lon="13.2404997"><ele>614.0</ele><time>2026-04-26T09:56:34.971Z</time></trkpt><trkpt lat="43.0666613" lon="13.2406258"><ele>613.5</ele><time>2026-04-26T09:56:35.961Z</time></trkpt><trkpt lat="43.066885" lon="13.2407245"><ele>613.0</ele><time>2026-04-26T09:56:36.966Z</time></trkpt><trkpt lat="43.0671189" lon="13.2408069"><ele>613.0</ele><time>2026-04-26T09:56:37.966Z</time></trkpt><trkpt lat="43.0673543" lon="13.2408734"><ele>613.0</ele><time>2026-04-26T09:56:38.964Z</time></trkpt><trkpt lat="43.0675827" lon="13.2409287"><ele>605.0</ele><time>2026-04-26T09:56:39.961Z</time></trkpt><trkpt lat="43.0678031" lon="13.2409904"><ele>597.0</ele><time>2026-04-26T09:56:40.962Z</time></trkpt><trkpt lat="43.0680192" lon="13.2410671"><ele>589.0</ele><time>2026-04-26T09:56:41.962Z</time></trkpt><trkpt lat="43.0682342" lon="13.2411617"><ele>580.0</ele><time>2026-04-26T09:56:42.967Z</time></trkpt><trkpt lat="43.068449" lon="13.241271"><ele>571.0</ele><time>2026-04-26T09:56:43.964Z</time></trkpt><trkpt lat="43.0686619" lon="13.2413901"><ele>574.3333333333334</ele><time>2026-04-26T09:56:44.964Z</time></trkpt><trkpt lat="43.0688604" lon="13.2415125"><ele>577.6666666666666</ele><time>2026-04-26T09:56:45.967Z</time></trkpt><trkpt lat="43.0690468" lon="13.2416416"><ele>581.0</ele><time>2026-04-26T09:56:46.966Z</time></trkpt><trkpt lat="43.0692317" lon="13.2417884"><ele>581.0</ele><time>2026-04-26T09:56:47.959Z</time></trkpt><trkpt lat="43.069409" lon="13.24195"><ele>581.0</ele><time>2026-04-26T09:56:48.963Z</time></trkpt><trkpt lat="43.069575" lon="13.2421254"><ele>581.0</ele><time>2026-04-26T09:56:49.964Z</time></trkpt><trkpt lat="43.0697361" lon="13.2423345"><ele>583.5</ele><time>2026-04-26T09:56:50.971Z</time></trkpt><trkpt lat="43.0698961" lon="13.2425775"><ele>586.0</ele><time>2026-04-26T09:56:51.969Z</time></trkpt><trkpt lat="43.0700636" lon="13.2428322"><ele>582.5</ele><time>2026-04-26T09:56:52.966Z</time></trkpt><trkpt lat="43.0702305" lon="13.2430722"><ele>579.0</ele><time>2026-04-26T09:56:53.968Z</time></trkpt><trkpt lat="43.0703903" lon="13.243301"><ele>579.0</ele><time>2026-04-26T09:56:54.965Z</time></trkpt><trkpt lat="43.0705312" lon="13.2435085"><ele>579.0</ele><time>2026-04-26T09:56:55.967Z</time></trkpt><trkpt lat="43.0706472" lon="13.2436932"><ele>579.0</ele><time>2026-04-26T09:56:56.965Z</time></trkpt><trkpt lat="43.0707392" lon="13.2438599"><ele>574.5</ele><time>2026-04-26T09:56:57.968Z</time></trkpt><trkpt lat="43.0707987" lon="13.2440242"><ele>570.0</ele><time>2026-04-26T09:56:58.966Z</time></trkpt><trkpt lat="43.070814" lon="13.2441835"><ele>565.5</ele><time>2026-04-26T09:56:59.965Z</time></trkpt><trkpt lat="43.0707802" lon="13.2443176"><ele>561.0</ele><time>2026-04-26T09:57:00.968Z</time></trkpt><trkpt lat="43.0706968" lon="13.2443975"><ele>560.0</ele><time>2026-04-26T09:57:01.966Z</time></trkpt><trkpt lat="43.0705854" lon="13.244466"><ele>559.0</ele><time>2026-04-26T09:57:02.967Z</time></trkpt><trkpt lat="43.0704305" lon="13.2444105"><ele>558.0</ele><time>2026-04-26T09:57:03.96Z</time></trkpt><trkpt lat="43.07025" lon="13.2443234"><ele>558.0</ele><time>2026-04-26T09:57:04.966Z</time></trkpt><trkpt lat="43.0700641" lon="13.2442217"><ele>558.0</ele><time>2026-04-26T09:57:05.968Z</time></trkpt><trkpt lat="43.0699129" lon="13.2440819"><ele>558.0</ele><time>2026-04-26T09:57:06.967Z</time></trkpt><trkpt lat="43.0697666" lon="13.2439633"><ele>556.0</ele><time>2026-04-26T09:57:07.97Z</time></trkpt><trkpt lat="43.0696254" lon="13.2438664"><ele>554.0</ele><time>2026-04-26T09:57:08.974Z</time></trkpt><trkpt lat="43.0694911" lon="13.2437221"><ele>552.0</ele><time>2026-04-26T09:57:09.963Z</time></trkpt><trkpt lat="43.0693842" lon="13.2435447"><ele>552.0</ele><time>2026-04-26T09:57:10.972Z</time></trkpt><trkpt lat="43.0692981" lon="13.2433516"><ele>552.0</ele><time>2026-04-26T09:57:11.972Z</time></trkpt><trkpt lat="43.0691869" lon="13.2431909"><ele>552.0</ele><time>2026-04-26T09:57:12.969Z</time></trkpt><trkpt lat="43.0690409" lon="13.2430733"><ele>562.0</ele><time>2026-04-26T09:57:13.965Z</time></trkpt><trkpt lat="43.0688631" lon="13.2430069"><ele>572.0</ele><time>2026-04-26T09:57:14.961Z</time></trkpt><trkpt lat="43.0686627" lon="13.2429921"><ele>582.0</ele><time>2026-04-26T09:57:15.963Z</time></trkpt><trkpt lat="43.0684403" lon="13.2430103"><ele>581.0</ele><time>2026-04-26T09:57:16.965Z</time></trkpt><trkpt lat="43.0682029" lon="13.2430115"><ele>580.0</ele><time>2026-04-26T09:57:17.967Z</time></trkpt><trkpt lat="43.0679681" lon="13.2429934"><ele>580.0</ele><time>2026-04-26T09:57:18.966Z</time></trkpt><trkpt lat="43.0677356" lon="13.2429759"><ele>580.0</ele><time>2026-04-26T09:57:19.963Z</time></trkpt><trkpt lat="43.0674864" lon="13.2429667"><ele>579.5</ele><time>2026-04-26T09:57:20.982Z</time></trkpt><trkpt lat="43.0672369" lon="13.2429753"><ele>579.0</ele><time>2026-04-26T09:57:21.968Z</time></trkpt><trkpt lat="43.0670011" lon="13.2430141"><ele>579.0</ele><time>2026-04-26T09:57:22.979Z</time></trkpt><trkpt lat="43.0667769" lon="13.2430655"><ele>579.0</ele><time>2026-04-26T09:57:23.97Z</time></trkpt><trkpt lat="43.0665668" lon="13.2431022"><ele>579.0</ele><time>2026-04-26T09:57:24.968Z</time></trkpt><trkpt lat="43.0663812" lon="13.2431103"><ele>584.6666666666666</ele><time>2026-04-26T09:57:25.966Z</time></trkpt><trkpt lat="43.0662308" lon="13.2430576"><ele>590.3333333333333</ele><time>2026-04-26T09:57:26.965Z</time></trkpt><trkpt lat="43.0660751" lon="13.2430852"><ele>596.0</ele><time>2026-04-26T09:57:27.97Z</time></trkpt><trkpt lat="43.0659417" lon="13.243214"><ele>580.6666666666666</ele><time>2026-04-26T09:57:28.963Z</time></trkpt><trkpt lat="43.0658282" lon="13.2433724"><ele>565.3333333333334</ele><time>2026-04-26T09:57:29.96Z</time></trkpt><trkpt lat="43.0657624" lon="13.2435858"><ele>550.0</ele><time>2026-04-26T09:57:30.967Z</time></trkpt><trkpt lat="43.0657712" lon="13.2438457"><ele>542.25</ele><time>2026-04-26T09:57:31.974Z</time></trkpt><trkpt lat="43.0657854" lon="13.2440761"><ele>534.5</ele><time>2026-04-26T09:57:32.971Z</time></trkpt><trkpt lat="43.0658412" lon="13.2442633"><ele>526.75</ele><time>2026-04-26T09:57:33.962Z</time></trkpt><trkpt lat="43.0659383" lon="13.2443715"><ele>519.0</ele><time>2026-04-26T09:57:34.972Z</time></trkpt><trkpt lat="43.0660691" lon="13.2443894"><ele>519.0</ele><time>2026-04-26T09:57:35.966Z</time></trkpt><trkpt lat="43.066205" lon="13.2443353"><ele>519.0</ele><time>2026-04-26T09:57:36.965Z</time></trkpt><trkpt lat="43.0663345" lon="13.2442943"><ele>519.0</ele><time>2026-04-26T09:57:37.966Z</time></trkpt><trkpt lat="43.0664568" lon="13.2443154"><ele>519.0</ele><time>2026-04-26T09:57:38.963Z</time></trkpt><trkpt lat="43.0665915" lon="13.2443489"><ele>518.0</ele><time>2026-04-26T09:57:39.96Z</time></trkpt><trkpt lat="43.0667495" lon="13.2444141"><ele>517.0</ele><time>2026-04-26T09:57:40.971Z</time></trkpt><trkpt lat="43.0669237" lon="13.2444433"><ele>516.0</ele><time>2026-04-26T09:57:41.964Z</time></trkpt><trkpt lat="43.0671202" lon="13.2444628"><ele>516.0</ele><time>2026-04-26T09:57:42.966Z</time></trkpt><trkpt lat="43.067316" lon="13.2444993"><ele>516.0</ele><time>2026-04-26T09:57:43.969Z</time></trkpt><trkpt lat="43.0675027" lon="13.2445205"><ele>516.0</ele><time>2026-04-26T09:57:44.968Z</time></trkpt><trkpt lat="43.0676773" lon="13.244513"><ele>515.0</ele><time>2026-04-26T09:57:45.965Z</time></trkpt><trkpt lat="43.0678553" lon="13.2445111"><ele>514.0</ele><time>2026-04-26T09:57:46.971Z</time></trkpt><trkpt lat="43.0680385" lon="13.2445541"><ele>513.0</ele><time>2026-04-26T09:57:47.971Z</time></trkpt><trkpt lat="43.0682182" lon="13.2446585"><ele>518.6666666666666</ele><time>2026-04-26T09:57:48.966Z</time></trkpt><trkpt lat="43.0683808" lon="13.2448063"><ele>524.3333333333333</ele><time>2026-04-26T09:57:49.963Z</time></trkpt><trkpt lat="43.0685372" lon="13.2450004"><ele>530.0</ele><time>2026-04-26T09:57:50.963Z</time></trkpt><trkpt lat="43.0686989" lon="13.2452027"><ele>530.0</ele><time>2026-04-26T09:57:51.964Z</time></trkpt><trkpt lat="43.0688642" lon="13.2454004"><ele>530.0</ele><time>2026-04-26T09:57:52.971Z</time></trkpt><trkpt lat="43.0690303" lon="13.2456074"><ele>530.0</ele><time>2026-04-26T09:57:53.967Z</time></trkpt><trkpt lat="43.0691751" lon="13.2458362"><ele>529.3333333333333</ele><time>2026-04-26T09:57:54.965Z</time></trkpt><trkpt lat="43.0692996" lon="13.2460486"><ele>528.6666666666666</ele><time>2026-04-26T09:57:55.963Z</time></trkpt><trkpt lat="43.0694337" lon="13.2462486"><ele>528.0</ele><time>2026-04-26T09:57:56.967Z</time></trkpt><trkpt lat="43.0696059" lon="13.2464257"><ele>527.0</ele><time>2026-04-26T09:57:57.969Z</time></trkpt><trkpt lat="43.0697886" lon="13.2465887"><ele>526.0</ele><time>2026-04-26T09:57:58.974Z</time></trkpt><trkpt lat="43.0699484" lon="13.2467551"><ele>525.0</ele><time>2026-04-26T09:57:59.963Z</time></trkpt><trkpt lat="43.0700925" lon="13.2469377"><ele>525.0</ele><time>2026-04-26T09:58:00.969Z</time></trkpt><trkpt lat="43.0702268" lon="13.2471261"><ele>525.0</ele><time>2026-04-26T09:58:01.963Z</time></trkpt><trkpt lat="43.0703518" lon="13.2473089"><ele>525.0</ele><time>2026-04-26T09:58:02.967Z</time></trkpt><trkpt lat="43.0704707" lon="13.2474798"><ele>524.3333333333334</ele><time>2026-04-26T09:58:03.964Z</time></trkpt><trkpt lat="43.0705978" lon="13.2476414"><ele>523.6666666666667</ele><time>2026-04-26T09:58:04.975Z</time></trkpt><trkpt lat="43.0707456" lon="13.2477788"><ele>523.0</ele><time>2026-04-26T09:58:05.973Z</time></trkpt><trkpt lat="43.0709055" lon="13.2478883"><ele>523.0</ele><time>2026-04-26T09:58:06.964Z</time></trkpt><trkpt lat="43.0710621" lon="13.2479748"><ele>523.0</ele><time>2026-04-26T09:58:07.966Z</time></trkpt><trkpt lat="43.0712145" lon="13.2480378"><ele>523.0</ele><time>2026-04-26T09:58:08.965Z</time></trkpt><trkpt lat="43.0713581" lon="13.2480783"><ele>523.0</ele><time>2026-04-26T09:58:09.963Z</time></trkpt><trkpt lat="43.0714931" lon="13.248104"><ele>523.0</ele><time>2026-04-26T09:58:10.961Z</time></trkpt><trkpt lat="43.0716213" lon="13.2481262"><ele>523.0</ele><time>2026-04-26T09:58:11.962Z</time></trkpt><trkpt lat="43.071752" lon="13.2481608"><ele>523.0</ele><time>2026-04-26T09:58:12.964Z</time></trkpt><trkpt lat="43.0718906" lon="13.248215"><ele>526.5</ele><time>2026-04-26T09:58:13.967Z</time></trkpt><trkpt lat="43.072033" lon="13.2482897"><ele>530.0</ele><time>2026-04-26T09:58:14.969Z</time></trkpt><trkpt lat="43.0721707" lon="13.2483794"><ele>533.5</ele><time>2026-04-26T09:58:15.964Z</time></trkpt><trkpt lat="43.072294" lon="13.2484806"><ele>537.0</ele><time>2026-04-26T09:58:16.964Z</time></trkpt><trkpt lat="43.0724088" lon="13.2485965"><ele>534.0</ele><time>2026-04-26T09:58:17.971Z</time></trkpt><trkpt lat="43.0725179" lon="13.2487219"><ele>531.0</ele><time>2026-04-26T09:58:18.974Z</time></trkpt><trkpt lat="43.0726225" lon="13.248852"><ele>528.0</ele><time>2026-04-26T09:58:19.964Z</time></trkpt><trkpt lat="43.0727228" lon="13.2489799"><ele>525.0</ele><time>2026-04-26T09:58:20.969Z</time></trkpt><trkpt lat="43.0728223" lon="13.2491088"><ele>531.0</ele><time>2026-04-26T09:58:21.971Z</time></trkpt><trkpt lat="43.0729224" lon="13.2492367"><ele>537.0</ele><time>2026-04-26T09:58:22.963Z</time></trkpt><trkpt lat="43.0730248" lon="13.2493684"><ele>543.0</ele><time>2026-04-26T09:58:23.967Z</time></trkpt><trkpt lat="43.0731274" lon="13.249505"><ele>549.0</ele><time>2026-04-26T09:58:24.967Z</time></trkpt><trkpt lat="43.0732287" lon="13.249648"><ele>545.25</ele><time>2026-04-26T09:58:25.96Z</time></trkpt><trkpt lat="43.0733292" lon="13.2497983"><ele>541.5</ele><time>2026-04-26T09:58:26.97Z</time></trkpt><trkpt lat="43.0734261" lon="13.24996"><ele>537.75</ele><time>2026-04-26T09:58:27.971Z</time></trkpt><trkpt lat="43.0735119" lon="13.2501244"><ele>534.0</ele><time>2026-04-26T09:58:28.981Z</time></trkpt><trkpt lat="43.0735888" lon="13.2502911"><ele>534.0</ele><time>2026-04-26T09:58:29.963Z</time></trkpt><trkpt lat="43.0736599" lon="13.250467"><ele>534.0</ele><time>2026-04-26T09:58:30.973Z</time></trkpt><trkpt lat="43.0737297" lon="13.2506505"><ele>534.0</ele><time>2026-04-26T09:58:31.967Z</time></trkpt><trkpt lat="43.0737978" lon="13.2508373"><ele>536.5</ele><time>2026-04-26T09:58:32.967Z</time></trkpt><trkpt lat="43.073862" lon="13.251008"><ele>539.0</ele><time>2026-04-26T09:58:33.965Z</time></trkpt><trkpt lat="43.0739251" lon="13.251176"><ele>541.5</ele><time>2026-04-26T09:58:34.96Z</time></trkpt><trkpt lat="43.0739909" lon="13.2513452"><ele>544.0</ele><time>2026-04-26T09:58:35.966Z</time></trkpt><trkpt lat="43.0740559" lon="13.25152"><ele>538.0</ele><time>2026-04-26T09:58:36.963Z</time></trkpt><trkpt lat="43.0741143" lon="13.2516944"><ele>532.0</ele><time>2026-04-26T09:58:37.965Z</time></trkpt><trkpt lat="43.0741667" lon="13.251879"><ele>526.0</ele><time>2026-04-26T09:58:38.974Z</time></trkpt><trkpt lat="43.0742095" lon="13.2520705"><ele>520.0</ele><time>2026-04-26T09:58:39.963Z</time></trkpt><trkpt lat="43.0742522" lon="13.2522606"><ele>521.25</ele><time>2026-04-26T09:58:40.969Z</time></trkpt><trkpt lat="43.0742883" lon="13.2524477"><ele>522.5</ele><time>2026-04-26T09:58:41.967Z</time></trkpt><trkpt lat="43.0743236" lon="13.2526364"><ele>523.75</ele><time>2026-04-26T09:58:42.967Z</time></trkpt><trkpt lat="43.0743437" lon="13.2528281"><ele>525.0</ele><time>2026-04-26T09:58:43.959Z</time></trkpt><trkpt lat="43.0743444" lon="13.2530153"><ele>525.25</ele><time>2026-04-26T09:58:44.97Z</time></trkpt><trkpt lat="43.0743258" lon="13.2532024"><ele>525.5</ele><time>2026-04-26T09:58:45.965Z</time></trkpt><trkpt lat="43.0742864" lon="13.253389"><ele>525.75</ele><time>2026-04-26T09:58:46.983Z</time></trkpt><trkpt lat="43.0742334" lon="13.2535671"><ele>526.0</ele><time>2026-04-26T09:58:47.967Z</time></trkpt><trkpt lat="43.0741787" lon="13.2537348"><ele>526.0</ele><time>2026-04-26T09:58:48.962Z</time></trkpt><trkpt lat="43.0741324" lon="13.2538949"><ele>526.0</ele><time>2026-04-26T09:58:49.968Z</time></trkpt><trkpt lat="43.074103" lon="13.25405"><ele>526.0</ele><time>2026-04-26T09:58:50.97Z</time></trkpt><trkpt lat="43.0741049" lon="13.2541975"><ele>526.0</ele><time>2026-04-26T09:58:51.973Z</time></trkpt><trkpt lat="43.0741469" lon="13.2543249"><ele>526.6</ele><time>2026-04-26T09:58:52.965Z</time></trkpt><trkpt lat="43.0742247" lon="13.2544211"><ele>527.2</ele><time>2026-04-26T09:58:53.977Z</time></trkpt><trkpt lat="43.0743253" lon="13.2544786"><ele>527.8</ele><time>2026-04-26T09:58:54.961Z</time></trkpt><trkpt lat="43.0744332" lon="13.2544989"><ele>528.4</ele><time>2026-04-26T09:58:55.964Z</time></trkpt><trkpt lat="43.0745355" lon="13.2545027"><ele>529.0</ele><time>2026-04-26T09:58:56.966Z</time></trkpt><trkpt lat="43.0746328" lon="13.2545088"><ele>529.0</ele><time>2026-04-26T09:58:57.967Z</time></trkpt><trkpt lat="43.0747188" lon="13.2545404"><ele>529.0</ele><time>2026-04-26T09:58:58.965Z</time></trkpt><trkpt lat="43.0748163" lon="13.2546099"><ele>529.0</ele><time>2026-04-26T09:58:59.969Z</time></trkpt><trkpt lat="43.0749205" lon="13.2547182"><ele>529.0</ele><time>2026-04-26T09:59:00.961Z</time></trkpt><trkpt lat="43.0750238" lon="13.2548476"><ele>529.75</ele><time>2026-04-26T09:59:01.968Z</time></trkpt><trkpt lat="43.0751322" lon="13.2549665"><ele>530.5</ele><time>2026-04-26T09:59:02.963Z</time></trkpt><trkpt lat="43.0752481" lon="13.2550686"><ele>531.25</ele><time>2026-04-26T09:59:03.962Z</time></trkpt><trkpt lat="43.0753635" lon="13.2551733"><ele>532.0</ele><time>2026-04-26T09:59:04.97Z</time></trkpt><trkpt lat="43.075485" lon="13.2552704"><ele>532.0</ele><time>2026-04-26T09:59:05.967Z</time></trkpt><trkpt lat="43.0756034" lon="13.2553818"><ele>532.0</ele><time>2026-04-26T09:59:06.967Z</time></trkpt><trkpt lat="43.0757114" lon="13.2554967"><ele>532.0</ele><time>2026-04-26T09:59:07.968Z</time></trkpt><trkpt lat="43.0758122" lon="13.2556272"><ele>532.0</ele><time>2026-04-26T09:59:08.963Z</time></trkpt><trkpt lat="43.0759035" lon="13.255779"><ele>528.0</ele><time>2026-04-26T09:59:09.967Z</time></trkpt><trkpt lat="43.0759789" lon="13.255938"><ele>524.0</ele><time>2026-04-26T09:59:10.965Z</time></trkpt><trkpt lat="43.0760531" lon="13.2560977"><ele>520.0</ele><time>2026-04-26T09:59:11.966Z</time></trkpt><trkpt lat="43.0761315" lon="13.2562501"><ele>516.0</ele><time>2026-04-26T09:59:12.967Z</time></trkpt><trkpt lat="43.0762063" lon="13.2564009"><ele>525.25</ele><time>2026-04-26T09:59:13.969Z</time></trkpt><trkpt lat="43.0762816" lon="13.2565443"><ele>534.5</ele><time>2026-04-26T09:59:14.969Z</time></trkpt><trkpt lat="43.0763631" lon="13.2566777"><ele>543.75</ele><time>2026-04-26T09:59:15.967Z</time></trkpt><trkpt lat="43.0764521" lon="13.2567964"><ele>553.0</ele><time>2026-04-26T09:59:16.974Z</time></trkpt><trkpt lat="43.0765422" lon="13.2569073"><ele>541.5</ele><time>2026-04-26T09:59:17.967Z</time></trkpt><trkpt lat="43.0766379" lon="13.2569948"><ele>530.0</ele><time>2026-04-26T09:59:18.966Z</time></trkpt><trkpt lat="43.0767245" lon="13.2570814"><ele>518.5</ele><time>2026-04-26T09:59:19.962Z</time></trkpt><trkpt lat="43.0767941" lon="13.2571997"><ele>507.0</ele><time>2026-04-26T09:59:20.964Z</time></trkpt><trkpt lat="43.076838" lon="13.2573511"><ele>507.0</ele><time>2026-04-26T09:59:21.965Z</time></trkpt><trkpt lat="43.0768369" lon="13.2575191"><ele>507.0</ele><time>2026-04-26T09:59:22.968Z</time></trkpt><trkpt lat="43.076815" lon="13.2576872"><ele>507.0</ele><time>2026-04-26T09:59:23.969Z</time></trkpt><trkpt lat="43.0767909" lon="13.2578582"><ele>507.0</ele><time>2026-04-26T09:59:24.972Z</time></trkpt><trkpt lat="43.076771" lon="13.2580159"><ele>505.6</ele><time>2026-04-26T09:59:25.965Z</time></trkpt><trkpt lat="43.0767349" lon="13.2581537"><ele>504.20000000000005</ele><time>2026-04-26T09:59:26.965Z</time></trkpt><trkpt lat="43.0766734" lon="13.2582601"><ele>502.8</ele><time>2026-04-26T09:59:27.97Z</time></trkpt><trkpt lat="43.0765907" lon="13.2583319"><ele>501.4</ele><time>2026-04-26T09:59:28.966Z</time></trkpt><trkpt lat="43.0764881" lon="13.2583751"><ele>500.0</ele><time>2026-04-26T09:59:29.967Z</time></trkpt><trkpt lat="43.0763645" lon="13.258397"><ele>506.3333333333333</ele><time>2026-04-26T09:59:30.97Z</time></trkpt><trkpt lat="43.0762185" lon="13.2584156"><ele>512.6666666666666</ele><time>2026-04-26T09:59:31.965Z</time></trkpt><trkpt lat="43.0760442" lon="13.2584624"><ele>519.0</ele><time>2026-04-26T09:59:32.975Z</time></trkpt><trkpt lat="43.0758455" lon="13.258532"><ele>523.3333333333334</ele><time>2026-04-26T09:59:33.965Z</time></trkpt><trkpt lat="43.075639" lon="13.2585953"><ele>527.6666666666667</ele><time>2026-04-26T09:59:34.965Z</time></trkpt><trkpt lat="43.0754512" lon="13.2586523"><ele>532.0</ele><time>2026-04-26T09:59:35.963Z</time></trkpt><trkpt lat="43.0752849" lon="13.258704"><ele>532.0</ele><time>2026-04-26T09:59:36.964Z</time></trkpt><trkpt lat="43.0751391" lon="13.2587553"><ele>532.0</ele><time>2026-04-26T09:59:37.982Z</time></trkpt><trkpt lat="43.0750064" lon="13.2588058"><ele>532.0</ele><time>2026-04-26T09:59:38.968Z</time></trkpt><trkpt lat="43.0749019" lon="13.258865"><ele>532.0</ele><time>2026-04-26T09:59:39.963Z</time></trkpt><trkpt lat="43.0748087" lon="13.2589493"><ele>527.75</ele><time>2026-04-26T09:59:40.967Z</time></trkpt><trkpt lat="43.0747553" lon="13.2590553"><ele>523.5</ele><time>2026-04-26T09:59:41.97Z</time></trkpt><trkpt lat="43.0747623" lon="13.259235"><ele>519.25</ele><time>2026-04-26T09:59:42.982Z</time></trkpt><trkpt lat="43.0748185" lon="13.2594413"><ele>515.0</ele><time>2026-04-26T09:59:43.97Z</time></trkpt><trkpt lat="43.074944" lon="13.2595705"><ele>509.3333333333333</ele><time>2026-04-26T09:59:44.966Z</time></trkpt><trkpt lat="43.0750949" lon="13.2596345"><ele>503.66666666666663</ele><time>2026-04-26T09:59:45.969Z</time></trkpt><trkpt lat="43.0752739" lon="13.2596441"><ele>498.0</ele><time>2026-04-26T09:59:46.972Z</time></trkpt><trkpt lat="43.0754581" lon="13.25967"><ele>498.0</ele><time>2026-04-26T09:59:47.961Z</time></trkpt><trkpt lat="43.075659" lon="13.2597214"><ele>498.0</ele><time>2026-04-26T09:59:48.994Z</time></trkpt><trkpt lat="43.0758681" lon="13.2597727"><ele>498.0</ele><time>2026-04-26T09:59:49.966Z</time></trkpt><trkpt lat="43.0760603" lon="13.2598373"><ele>499.66666666666663</ele><time>2026-04-26T09:59:50.97Z</time></trkpt><trkpt lat="43.0762293" lon="13.2598969"><ele>501.3333333333333</ele><time>2026-04-26T09:59:51.969Z</time></trkpt><trkpt lat="43.0763816" lon="13.2599592"><ele>503.0</ele><time>2026-04-26T09:59:52.965Z</time></trkpt><trkpt lat="43.0765032" lon="13.2600397"><ele>503.0</ele><time>2026-04-26T09:59:53.969Z</time></trkpt><trkpt lat="43.0765814" lon="13.2601479"><ele>503.0</ele><time>2026-04-26T09:59:54.963Z</time></trkpt><trkpt lat="43.0765992" lon="13.2602802"><ele>503.0</ele><time>2026-04-26T09:59:55.969Z</time></trkpt><trkpt lat="43.076578" lon="13.2604253"><ele>503.0</ele><time>2026-04-26T09:59:56.967Z</time></trkpt><trkpt lat="43.0765463" lon="13.2606095"><ele>510.0</ele><time>2026-04-26T09:59:57.974Z</time></trkpt><trkpt lat="43.0765138" lon="13.2608294"><ele>517.0</ele><time>2026-04-26T09:59:58.964Z</time></trkpt><trkpt lat="43.0764775" lon="13.2610743"><ele>524.0</ele><time>2026-04-26T09:59:59.975Z</time></trkpt><trkpt lat="43.0764445" lon="13.2613394"><ele>520.0</ele><time>2026-04-26T10:00:00.973Z</time></trkpt><trkpt lat="43.0764089" lon="13.2616033"><ele>516.0</ele><time>2026-04-26T10:00:01.974Z</time></trkpt><trkpt lat="43.0763415" lon="13.2618622"><ele>512.0</ele><time>2026-04-26T10:00:02.966Z</time></trkpt><trkpt lat="43.0762479" lon="13.2621109"><ele>508.0</ele><time>2026-04-26T10:00:03.969Z</time></trkpt><trkpt lat="43.0761458" lon="13.2623377"><ele>504.0</ele><time>2026-04-26T10:00:04.968Z</time></trkpt><trkpt lat="43.0760601" lon="13.2625615"><ele>500.0</ele><time>2026-04-26T10:00:05.971Z</time></trkpt><trkpt lat="43.0760083" lon="13.2628015"><ele>500.0</ele><time>2026-04-26T10:00:06.975Z</time></trkpt><trkpt lat="43.0760041" lon="13.2630595"><ele>500.0</ele><time>2026-04-26T10:00:07.969Z</time></trkpt><trkpt lat="43.0760431" lon="13.2633286"><ele>500.0</ele><time>2026-04-26T10:00:08.966Z</time></trkpt><trkpt lat="43.0761115" lon="13.2636027"><ele>496.0</ele><time>2026-04-26T10:00:09.973Z</time></trkpt><trkpt lat="43.0761911" lon="13.2638856"><ele>492.0</ele><time>2026-04-26T10:00:10.968Z</time></trkpt><trkpt lat="43.0762719" lon="13.2641815"><ele>491.0</ele><time>2026-04-26T10:00:11.966Z</time></trkpt><trkpt lat="43.0763524" lon="13.264486"><ele>490.0</ele><time>2026-04-26T10:00:12.964Z</time></trkpt><trkpt lat="43.0764353" lon="13.2647966"><ele>490.0</ele><time>2026-04-26T10:00:13.968Z</time></trkpt><trkpt lat="43.0765204" lon="13.2651135"><ele>490.0</ele><time>2026-04-26T10:00:14.97Z</time></trkpt><trkpt lat="43.0766036" lon="13.2654337"><ele>489.0</ele><time>2026-04-26T10:00:15.967Z</time></trkpt><trkpt lat="43.076689" lon="13.2657569"><ele>488.0</ele><time>2026-04-26T10:00:16.971Z</time></trkpt><trkpt lat="43.0767757" lon="13.2660806"><ele>488.0</ele><time>2026-04-26T10:00:17.965Z</time></trkpt><trkpt lat="43.076864" lon="13.2664059"><ele>488.0</ele><time>2026-04-26T10:00:18.965Z</time></trkpt><trkpt lat="43.0769526" lon="13.2667336"><ele>487.0</ele><time>2026-04-26T10:00:19.969Z</time></trkpt><trkpt lat="43.0770389" lon="13.267058"><ele>486.0</ele><time>2026-04-26T10:00:20.975Z</time></trkpt><trkpt lat="43.0771208" lon="13.2673652"><ele>485.0</ele><time>2026-04-26T10:00:21.966Z</time></trkpt><trkpt lat="43.077201" lon="13.2676638"><ele>484.0</ele><time>2026-04-26T10:00:22.967Z</time></trkpt><trkpt lat="43.0772809" lon="13.2679633"><ele>482.5</ele><time>2026-04-26T10:00:23.973Z</time></trkpt><trkpt lat="43.0773711" lon="13.2682605"><ele>481.0</ele><time>2026-04-26T10:00:24.976Z</time></trkpt><trkpt lat="43.0774809" lon="13.2685499"><ele>481.0</ele><time>2026-04-26T10:00:25.971Z</time></trkpt><trkpt lat="43.0776094" lon="13.2688339"><ele>481.0</ele><time>2026-04-26T10:00:26.975Z</time></trkpt><trkpt lat="43.0777467" lon="13.2691143"><ele>481.0</ele><time>2026-04-26T10:00:27.975Z</time></trkpt><trkpt lat="43.0778792" lon="13.2693819"><ele>481.0</ele><time>2026-04-26T10:00:28.97Z</time></trkpt><trkpt lat="43.0780055" lon="13.2696416"><ele>480.6666666666667</ele><time>2026-04-26T10:00:29.969Z</time></trkpt><trkpt lat="43.0781303" lon="13.2698969"><ele>480.33333333333337</ele><time>2026-04-26T10:00:30.977Z</time></trkpt><trkpt lat="43.0782494" lon="13.2701385"><ele>480.0</ele><time>2026-04-26T10:00:31.977Z</time></trkpt><trkpt lat="43.0783645" lon="13.2703739"><ele>480.0</ele><time>2026-04-26T10:00:32.974Z</time></trkpt><trkpt lat="43.0784797" lon="13.2706062"><ele>480.0</ele><time>2026-04-26T10:00:33.976Z</time></trkpt><trkpt lat="43.0785906" lon="13.2708288"><ele>480.0</ele><time>2026-04-26T10:00:34.971Z</time></trkpt><trkpt lat="43.0786926" lon="13.2710347"><ele>479.66666666666663</ele><time>2026-04-26T10:00:35.975Z</time></trkpt><trkpt lat="43.0787871" lon="13.2712288"><ele>479.3333333333333</ele><time>2026-04-26T10:00:36.975Z</time></trkpt><trkpt lat="43.0788759" lon="13.2714123"><ele>479.0</ele><time>2026-04-26T10:00:37.964Z</time></trkpt><trkpt lat="43.0789591" lon="13.2715868"><ele>478.75</ele><time>2026-04-26T10:00:38.969Z</time></trkpt><trkpt lat="43.0790322" lon="13.2717484"><ele>478.5</ele><time>2026-04-26T10:00:39.97Z</time></trkpt><trkpt lat="43.079092" lon="13.2719"><ele>478.25</ele><time>2026-04-26T10:00:40.975Z</time></trkpt><trkpt lat="43.0791384" lon="13.2720461"><ele>478.0</ele><time>2026-04-26T10:00:41.966Z</time></trkpt><trkpt lat="43.0791698" lon="13.2721788"><ele>477.83333333333337</ele><time>2026-04-26T10:00:42.972Z</time></trkpt><trkpt lat="43.0791921" lon="13.2722983"><ele>477.6666666666667</ele><time>2026-04-26T10:00:43.967Z</time></trkpt><trkpt lat="43.0792067" lon="13.2724046"><ele>477.5</ele><time>2026-04-26T10:00:44.975Z</time></trkpt><trkpt lat="43.0792181" lon="13.2724998"><ele>477.33333333333337</ele><time>2026-04-26T10:00:45.979Z</time></trkpt><trkpt lat="43.0792373" lon="13.2726698"><ele>477.1666666666667</ele><time>2026-04-26T10:00:47.967Z</time></trkpt><trkpt lat="43.0792486" lon="13.2727636"><ele>477.0</ele><time>2026-04-26T10:00:48.977Z</time></trkpt><trkpt lat="43.0792595" lon="13.2728624"><ele>477.0</ele><time>2026-04-26T10:00:49.97Z</time></trkpt><trkpt lat="43.079271" lon="13.2729617"><ele>477.00000000000006</ele><time>2026-04-26T10:00:50.976Z</time></trkpt><trkpt lat="43.0792814" lon="13.2730516"><ele>477.00000000000006</ele><time>2026-04-26T10:00:51.973Z</time></trkpt><trkpt lat="43.0793034" lon="13.2732335"><ele>477.0</ele><time>2026-04-26T10:00:53.968Z</time></trkpt><trkpt lat="43.0793238" lon="13.2733584"><ele>477.0</ele><time>2026-04-26T10:00:54.977Z</time></trkpt><trkpt lat="43.0793474" lon="13.2735047"><ele>476.5</ele><time>2026-04-26T10:00:55.976Z</time></trkpt><trkpt lat="43.079369" lon="13.2736689"><ele>476.0</ele><time>2026-04-26T10:00:56.979Z</time></trkpt><trkpt lat="43.0793869" lon="13.2738418"><ele>475.5</ele><time>2026-04-26T10:00:57.972Z</time></trkpt><trkpt lat="43.0793999" lon="13.2740135"><ele>475.0</ele><time>2026-04-26T10:00:58.972Z</time></trkpt><trkpt lat="43.0794116" lon="13.2741757"><ele>474.6</ele><time>2026-04-26T10:00:59.982Z</time></trkpt><trkpt lat="43.0794244" lon="13.2743268"><ele>474.2</ele><time>2026-04-26T10:01:00.973Z</time></trkpt><trkpt lat="43.0794374" lon="13.2744699"><ele>473.79999999999995</ele><time>2026-04-26T10:01:01.978Z</time></trkpt><trkpt lat="43.0794493" lon="13.2746121"><ele>473.4</ele><time>2026-04-26T10:01:03.014Z</time></trkpt><trkpt lat="43.0794522" lon="13.2747481"><ele>473.0</ele><time>2026-04-26T10:01:03.975Z</time></trkpt><trkpt lat="43.0794379" lon="13.274871"><ele>473.0</ele><time>2026-04-26T10:01:04.98Z</time></trkpt><trkpt lat="43.0794066" lon="13.2749905"><ele>473.0</ele><time>2026-04-26T10:01:05.975Z</time></trkpt><trkpt lat="43.0793563" lon="13.2751189"><ele>473.0</ele><time>2026-04-26T10:01:06.982Z</time></trkpt><trkpt lat="43.079286" lon="13.2752573"><ele>473.0</ele><time>2026-04-26T10:01:07.987Z</time></trkpt><trkpt lat="43.0791929" lon="13.2754138"><ele>471.66666666666663</ele><time>2026-04-26T10:01:08.972Z</time></trkpt><trkpt lat="43.0790801" lon="13.2755837"><ele>470.33333333333337</ele><time>2026-04-26T10:01:09.97Z</time></trkpt><trkpt lat="43.0789535" lon="13.2757705"><ele>469.0</ele><time>2026-04-26T10:01:10.979Z</time></trkpt><trkpt lat="43.0788183" lon="13.2759721"><ele>468.6666666666667</ele><time>2026-04-26T10:01:11.977Z</time></trkpt><trkpt lat="43.0786796" lon="13.2761798"><ele>468.33333333333337</ele><time>2026-04-26T10:01:12.976Z</time></trkpt><trkpt lat="43.0785399" lon="13.2763865"><ele>468.0</ele><time>2026-04-26T10:01:13.981Z</time></trkpt><trkpt lat="43.0784017" lon="13.2765909"><ele>468.0</ele><time>2026-04-26T10:01:14.974Z</time></trkpt><trkpt lat="43.0782663" lon="13.2767943"><ele>468.0</ele><time>2026-04-26T10:01:15.969Z</time></trkpt><trkpt lat="43.0781304" lon="13.2769971"><ele>468.0</ele><time>2026-04-26T10:01:16.981Z</time></trkpt><trkpt lat="43.0779943" lon="13.2771992"><ele>467.66666666666663</ele><time>2026-04-26T10:01:17.974Z</time></trkpt><trkpt lat="43.0778597" lon="13.277401"><ele>467.3333333333333</ele><time>2026-04-26T10:01:18.971Z</time></trkpt><trkpt lat="43.0777264" lon="13.2776024"><ele>467.0</ele><time>2026-04-26T10:01:19.973Z</time></trkpt><trkpt lat="43.0775954" lon="13.2777979"><ele>467.0</ele><time>2026-04-26T10:01:20.971Z</time></trkpt><trkpt lat="43.0774672" lon="13.2779882"><ele>467.0</ele><time>2026-04-26T10:01:21.967Z</time></trkpt><trkpt lat="43.0773426" lon="13.2781739"><ele>467.0</ele><time>2026-04-26T10:01:22.977Z</time></trkpt><trkpt lat="43.0772213" lon="13.2783562"><ele>468.0</ele><time>2026-04-26T10:01:23.968Z</time></trkpt><trkpt lat="43.0771026" lon="13.2785347"><ele>469.0</ele><time>2026-04-26T10:01:24.969Z</time></trkpt><trkpt lat="43.0769868" lon="13.278707"><ele>470.0</ele><time>2026-04-26T10:01:25.975Z</time></trkpt><trkpt lat="43.076876" lon="13.2788722"><ele>469.25</ele><time>2026-04-26T10:01:26.971Z</time></trkpt><trkpt lat="43.0767728" lon="13.2790276"><ele>468.5</ele><time>2026-04-26T10:01:27.967Z</time></trkpt><trkpt lat="43.0766783" lon="13.2791703"><ele>467.75</ele><time>2026-04-26T10:01:28.975Z</time></trkpt><trkpt lat="43.0765875" lon="13.2792974"><ele>467.0</ele><time>2026-04-26T10:01:29.973Z</time></trkpt><trkpt lat="43.0765075" lon="13.279403"><ele>466.8</ele><time>2026-04-26T10:01:30.969Z</time></trkpt><trkpt lat="43.0764396" lon="13.2794956"><ele>466.6</ele><time>2026-04-26T10:01:31.979Z</time></trkpt><trkpt lat="43.0763831" lon="13.2795711"><ele>466.40000000000003</ele><time>2026-04-26T10:01:32.975Z</time></trkpt><trkpt lat="43.0763182" lon="13.2796704"><ele>466.20000000000005</ele><time>2026-04-26T10:01:34.971Z</time></trkpt><trkpt lat="43.0762899" lon="13.2798011"><ele>466.0</ele><time>2026-04-26T10:01:37.983Z</time></trkpt><trkpt lat="43.0763328" lon="13.2799178"><ele>466.00000000000006</ele><time>2026-04-26T10:01:39.969Z</time></trkpt><trkpt lat="43.0763886" lon="13.279994"><ele>466.0</ele><time>2026-04-26T10:01:41.977Z</time></trkpt><trkpt lat="43.0764513" lon="13.2800742"><ele>466.0</ele><time>2026-04-26T10:01:43.978Z</time></trkpt><trkpt lat="43.0765158" lon="13.2801732"><ele>466.0</ele><time>2026-04-26T10:01:45.982Z</time></trkpt><trkpt lat="43.0765705" lon="13.2802743"><ele>466.00000000000006</ele><time>2026-04-26T10:01:47.965Z</time></trkpt><trkpt lat="43.0766148" lon="13.2803684"><ele>466.0</ele><time>2026-04-26T10:01:49.971Z</time></trkpt><trkpt lat="43.0766548" lon="13.2804566"><ele>466.14285714285717</ele><time>2026-04-26T10:01:51.974Z</time></trkpt><trkpt lat="43.0767" lon="13.2805672"><ele>466.2857142857142</ele><time>2026-04-26T10:01:53.979Z</time></trkpt><trkpt lat="43.0767362" lon="13.2806503"><ele>466.4285714285714</ele><time>2026-04-26T10:01:54.973Z</time></trkpt><trkpt lat="43.0767715" lon="13.2807358"><ele>466.57142857142856</ele><time>2026-04-26T10:01:55.97Z</time></trkpt><trkpt lat="43.0768024" lon="13.2808159"><ele>466.71428571428567</ele><time>2026-04-26T10:01:56.973Z</time></trkpt><trkpt lat="43.0768335" lon="13.2808939"><ele>466.8571428571428</ele><time>2026-04-26T10:01:57.971Z</time></trkpt><trkpt lat="43.0768756" lon="13.2809912"><ele>466.99999999999994</ele><time>2026-04-26T10:01:58.978Z</time></trkpt><trkpt lat="43.0769259" lon="13.2811119"><ele>466.5</ele><time>2026-04-26T10:01:59.975Z</time></trkpt><trkpt lat="43.0769884" lon="13.2812575"><ele>466.0</ele><time>2026-04-26T10:02:00.973Z</time></trkpt><trkpt lat="43.0770588" lon="13.2814223"><ele>465.5</ele><time>2026-04-26T10:02:01.974Z</time></trkpt><trkpt lat="43.0771341" lon="13.2816055"><ele>465.0</ele><time>2026-04-26T10:02:02.97Z</time></trkpt><trkpt lat="43.0772135" lon="13.2817991"><ele>464.66666666666663</ele><time>2026-04-26T10:02:03.978Z</time></trkpt><trkpt lat="43.0772988" lon="13.2820024"><ele>464.3333333333333</ele><time>2026-04-26T10:02:04.975Z</time></trkpt><trkpt lat="43.0773854" lon="13.2822125"><ele>464.0</ele><time>2026-04-26T10:02:05.975Z</time></trkpt><trkpt lat="43.0774726" lon="13.282425"><ele>463.0</ele><time>2026-04-26T10:02:06.971Z</time></trkpt><trkpt lat="43.0775572" lon="13.2826284"><ele>462.0</ele><time>2026-04-26T10:02:07.975Z</time></trkpt><trkpt lat="43.0776362" lon="13.2828184"><ele>461.0</ele><time>2026-04-26T10:02:08.974Z</time></trkpt><trkpt lat="43.077709" lon="13.2829964"><ele>461.5</ele><time>2026-04-26T10:02:09.973Z</time></trkpt><trkpt lat="43.0777777" lon="13.2831651"><ele>462.0</ele><time>2026-04-26T10:02:10.975Z</time></trkpt><trkpt lat="43.0778408" lon="13.2833183"><ele>462.5</ele><time>2026-04-26T10:02:11.968Z</time></trkpt><trkpt lat="43.0778944" lon="13.2834492"><ele>463.0</ele><time>2026-04-26T10:02:12.975Z</time></trkpt><trkpt lat="43.077937" lon="13.2835582"><ele>463.00000000000006</ele><time>2026-04-26T10:02:13.977Z</time></trkpt><trkpt lat="43.0779742" lon="13.2836458"><ele>463.0</ele><time>2026-04-26T10:02:14.971Z</time></trkpt><trkpt lat="43.0779842" lon="13.2837312"><ele>463.0</ele><time>2026-04-26T10:02:15.968Z</time></trkpt><trkpt lat="43.0780097" lon="13.283857"><ele>463.0</ele><time>2026-04-26T10:02:17.973Z</time></trkpt><trkpt lat="43.0780637" lon="13.2839227"><ele>463.00000000000006</ele><time>2026-04-26T10:04:10.971Z</time></trkpt><trkpt lat="43.0780939" lon="13.2838158"><ele>463.0</ele><time>2026-04-26T10:04:14.977Z</time></trkpt><trkpt lat="43.0780587" lon="13.2837258"><ele>463.0</ele><time>2026-04-26T10:04:15.975Z</time></trkpt><trkpt lat="43.0780129" lon="13.2836102"><ele>463.0</ele><time>2026-04-26T10:04:16.967Z</time></trkpt><trkpt lat="43.0779461" lon="13.2834478"><ele>463.0</ele><time>2026-04-26T10:04:17.965Z</time></trkpt><trkpt lat="43.0778707" lon="13.2832633"><ele>463.0</ele><time>2026-04-26T10:04:18.973Z</time></trkpt><trkpt lat="43.0777882" lon="13.28306"><ele>462.33333333333337</ele><time>2026-04-26T10:04:19.983Z</time></trkpt><trkpt lat="43.0776979" lon="13.2828377"><ele>461.66666666666663</ele><time>2026-04-26T10:04:20.977Z</time></trkpt><trkpt lat="43.0775986" lon="13.2825987"><ele>461.0</ele><time>2026-04-26T10:04:21.997Z</time></trkpt><trkpt lat="43.0774933" lon="13.2823466"><ele>462.0</ele><time>2026-04-26T10:04:22.976Z</time></trkpt><trkpt lat="43.0773887" lon="13.2820884"><ele>463.0</ele><time>2026-04-26T10:04:23.976Z</time></trkpt><trkpt lat="43.0772811" lon="13.281825"><ele>464.0</ele><time>2026-04-26T10:04:24.975Z</time></trkpt><trkpt lat="43.0771708" lon="13.2815559"><ele>464.3333333333333</ele><time>2026-04-26T10:04:25.979Z</time></trkpt><trkpt lat="43.0770631" lon="13.2812952"><ele>464.66666666666663</ele><time>2026-04-26T10:04:26.976Z</time></trkpt><trkpt lat="43.0769628" lon="13.2810523"><ele>465.0</ele><time>2026-04-26T10:04:27.98Z</time></trkpt><trkpt lat="43.0768684" lon="13.2808244"><ele>465.0</ele><time>2026-04-26T10:04:28.972Z</time></trkpt><trkpt lat="43.0767814" lon="13.2806114"><ele>465.0</ele><time>2026-04-26T10:04:29.973Z</time></trkpt><trkpt lat="43.0766954" lon="13.2804112"><ele>465.0</ele><time>2026-04-26T10:04:30.975Z</time></trkpt><trkpt lat="43.0766095" lon="13.2802307"><ele>465.25</ele><time>2026-04-26T10:04:31.977Z</time></trkpt><trkpt lat="43.0765211" lon="13.2800709"><ele>465.5</ele><time>2026-04-26T10:04:32.969Z</time></trkpt><trkpt lat="43.076423" lon="13.2799387"><ele>465.75</ele><time>2026-04-26T10:04:33.976Z</time></trkpt><trkpt lat="43.0763041" lon="13.2798165"><ele>466.0</ele><time>2026-04-26T10:04:34.972Z</time></trkpt><trkpt lat="43.0761626" lon="13.2797074"><ele>466.0</ele><time>2026-04-26T10:04:35.985Z</time></trkpt><trkpt lat="43.0760027" lon="13.2796039"><ele>466.0</ele><time>2026-04-26T10:04:36.977Z</time></trkpt><trkpt lat="43.0758263" lon="13.2794946"><ele>466.0</ele><time>2026-04-26T10:04:37.971Z</time></trkpt><trkpt lat="43.0756391" lon="13.2793769"><ele>467.0</ele><time>2026-04-26T10:04:38.975Z</time></trkpt><trkpt lat="43.0754429" lon="13.2792528"><ele>468.0</ele><time>2026-04-26T10:04:39.978Z</time></trkpt><trkpt lat="43.0752373" lon="13.2791192"><ele>469.0</ele><time>2026-04-26T10:04:40.966Z</time></trkpt><trkpt lat="43.0750232" lon="13.2789811"><ele>470.0</ele><time>2026-04-26T10:04:41.97Z</time></trkpt><trkpt lat="43.0748032" lon="13.2788424"><ele>471.0</ele><time>2026-04-26T10:04:42.97Z</time></trkpt><trkpt lat="43.0745796" lon="13.2787012"><ele>471.0</ele><time>2026-04-26T10:04:43.969Z</time></trkpt><trkpt lat="43.0743558" lon="13.2785562"><ele>471.0</ele><time>2026-04-26T10:04:44.975Z</time></trkpt><trkpt lat="43.0741307" lon="13.2784113"><ele>470.5</ele><time>2026-04-26T10:04:45.969Z</time></trkpt><trkpt lat="43.0739043" lon="13.2782685"><ele>470.0</ele><time>2026-04-26T10:04:46.969Z</time></trkpt><trkpt lat="43.0736795" lon="13.2781275"><ele>471.0</ele><time>2026-04-26T10:04:47.977Z</time></trkpt><trkpt lat="43.0734636" lon="13.2779911"><ele>472.0</ele><time>2026-04-26T10:04:48.971Z</time></trkpt><trkpt lat="43.0732635" lon="13.2778611"><ele>472.0</ele><time>2026-04-26T10:04:49.974Z</time></trkpt><trkpt lat="43.0730753" lon="13.277741"><ele>472.0</ele><time>2026-04-26T10:04:50.971Z</time></trkpt><trkpt lat="43.0728988" lon="13.2776304"><ele>472.0</ele><time>2026-04-26T10:04:51.963Z</time></trkpt><trkpt lat="43.0727291" lon="13.2775261"><ele>472.0</ele><time>2026-04-26T10:04:52.972Z</time></trkpt><trkpt lat="43.0725629" lon="13.2774377"><ele>472.0</ele><time>2026-04-26T10:04:53.975Z</time></trkpt><trkpt lat="43.072411" lon="13.2773586"><ele>472.0</ele><time>2026-04-26T10:04:54.968Z</time></trkpt><trkpt lat="43.0722557" lon="13.2772893"><ele>473.33333333333337</ele><time>2026-04-26T10:04:55.973Z</time></trkpt><trkpt lat="43.0720931" lon="13.2772469"><ele>474.66666666666663</ele><time>2026-04-26T10:04:56.985Z</time></trkpt><trkpt lat="43.0719201" lon="13.2772163"><ele>476.0</ele><time>2026-04-26T10:04:57.975Z</time></trkpt><trkpt lat="43.071737" lon="13.2771967"><ele>477.0</ele><time>2026-04-26T10:04:58.986Z</time></trkpt><trkpt lat="43.0715432" lon="13.2771768"><ele>478.0</ele><time>2026-04-26T10:04:59.964Z</time></trkpt><trkpt lat="43.0713431" lon="13.2771394"><ele>479.0</ele><time>2026-04-26T10:05:00.968Z</time></trkpt><trkpt lat="43.071128" lon="13.2771257"><ele>479.0</ele><time>2026-04-26T10:05:01.976Z</time></trkpt><trkpt lat="43.0709013" lon="13.2771083"><ele>479.0</ele><time>2026-04-26T10:05:02.969Z</time></trkpt><trkpt lat="43.0706668" lon="13.2770833"><ele>481.5</ele><time>2026-04-26T10:05:03.971Z</time></trkpt><trkpt lat="43.0704261" lon="13.2770603"><ele>484.0</ele><time>2026-04-26T10:05:04.97Z</time></trkpt><trkpt lat="43.0701847" lon="13.2770423"><ele>484.5</ele><time>2026-04-26T10:05:05.973Z</time></trkpt><trkpt lat="43.0699374" lon="13.2770241"><ele>485.0</ele><time>2026-04-26T10:05:06.966Z</time></trkpt><trkpt lat="43.0696843" lon="13.2769982"><ele>485.0</ele><time>2026-04-26T10:05:07.968Z</time></trkpt><trkpt lat="43.0694286" lon="13.2769784"><ele>485.0</ele><time>2026-04-26T10:05:08.965Z</time></trkpt><trkpt lat="43.0691732" lon="13.2769553"><ele>486.5</ele><time>2026-04-26T10:05:09.971Z</time></trkpt><trkpt lat="43.0689163" lon="13.2769322"><ele>488.0</ele><time>2026-04-26T10:05:10.97Z</time></trkpt><trkpt lat="43.0686571" lon="13.2769067"><ele>488.0</ele><time>2026-04-26T10:05:11.972Z</time></trkpt><trkpt lat="43.0683976" lon="13.2768854"><ele>488.0</ele><time>2026-04-26T10:05:12.969Z</time></trkpt><trkpt lat="43.0681381" lon="13.2768649"><ele>490.0</ele><time>2026-04-26T10:05:13.968Z</time></trkpt><trkpt lat="43.0678786" lon="13.276844"><ele>492.0</ele><time>2026-04-26T10:05:14.967Z</time></trkpt><trkpt lat="43.0676219" lon="13.2768249"><ele>492.5</ele><time>2026-04-26T10:05:15.968Z</time></trkpt><trkpt lat="43.0673629" lon="13.2768048"><ele>493.0</ele><time>2026-04-26T10:05:16.975Z</time></trkpt><trkpt lat="43.0671038" lon="13.276779"><ele>493.0</ele><time>2026-04-26T10:05:17.973Z</time></trkpt><trkpt lat="43.0668451" lon="13.2767512"><ele>493.0</ele><time>2026-04-26T10:05:18.968Z</time></trkpt><trkpt lat="43.0665871" lon="13.2767243"><ele>493.5</ele><time>2026-04-26T10:05:19.977Z</time></trkpt><trkpt lat="43.0663324" lon="13.2766949"><ele>494.0</ele><time>2026-04-26T10:05:20.977Z</time></trkpt><trkpt lat="43.066083" lon="13.2766429"><ele>494.0</ele><time>2026-04-26T10:05:21.972Z</time></trkpt><trkpt lat="43.0658381" lon="13.276548"><ele>494.0</ele><time>2026-04-26T10:05:22.968Z</time></trkpt><trkpt lat="43.0656007" lon="13.2764152"><ele>497.5</ele><time>2026-04-26T10:05:23.97Z</time></trkpt><trkpt lat="43.0653682" lon="13.2762578"><ele>501.0</ele><time>2026-04-26T10:05:24.974Z</time></trkpt><trkpt lat="43.0651369" lon="13.2760913"><ele>501.0</ele><time>2026-04-26T10:05:25.977Z</time></trkpt><trkpt lat="43.0649038" lon="13.2759246"><ele>501.0</ele><time>2026-04-26T10:05:26.98Z</time></trkpt><trkpt lat="43.0646717" lon="13.2757584"><ele>506.5</ele><time>2026-04-26T10:05:27.974Z</time></trkpt><trkpt lat="43.0644416" lon="13.2755929"><ele>512.0</ele><time>2026-04-26T10:05:28.97Z</time></trkpt><trkpt lat="43.0642123" lon="13.2754321"><ele>513.0</ele><time>2026-04-26T10:05:29.97Z</time></trkpt><trkpt lat="43.0639813" lon="13.2752845"><ele>514.0</ele><time>2026-04-26T10:05:30.971Z</time></trkpt><trkpt lat="43.063742" lon="13.2751653"><ele>514.0</ele><time>2026-04-26T10:05:31.972Z</time></trkpt><trkpt lat="43.0634929" lon="13.275077"><ele>514.0</ele><time>2026-04-26T10:05:32.97Z</time></trkpt><trkpt lat="43.0632387" lon="13.275001"><ele>512.0</ele><time>2026-04-26T10:05:33.971Z</time></trkpt><trkpt lat="43.0629802" lon="13.2749353"><ele>510.0</ele><time>2026-04-26T10:05:34.967Z</time></trkpt><trkpt lat="43.062718" lon="13.2748902"><ele>510.0</ele><time>2026-04-26T10:05:35.968Z</time></trkpt><trkpt lat="43.0624527" lon="13.2748636"><ele>510.0</ele><time>2026-04-26T10:05:36.965Z</time></trkpt><trkpt lat="43.0621854" lon="13.2748463"><ele>512.0</ele><time>2026-04-26T10:05:37.965Z</time></trkpt><trkpt lat="43.0619163" lon="13.274839"><ele>514.0</ele><time>2026-04-26T10:05:38.967Z</time></trkpt><trkpt lat="43.0616466" lon="13.274847"><ele>515.5</ele><time>2026-04-26T10:05:39.969Z</time></trkpt><trkpt lat="43.0613781" lon="13.2748763"><ele>517.0</ele><time>2026-04-26T10:05:40.965Z</time></trkpt><trkpt lat="43.0611096" lon="13.2749233"><ele>517.0</ele><time>2026-04-26T10:05:41.969Z</time></trkpt><trkpt lat="43.0608419" lon="13.2749781"><ele>517.0</ele><time>2026-04-26T10:05:42.973Z</time></trkpt><trkpt lat="43.060575" lon="13.2750354"><ele>519.0</ele><time>2026-04-26T10:05:43.968Z</time></trkpt><trkpt lat="43.0603083" lon="13.2750921"><ele>521.0</ele><time>2026-04-26T10:05:44.973Z</time></trkpt><trkpt lat="43.0600407" lon="13.2751491"><ele>525.0</ele><time>2026-04-26T10:05:45.975Z</time></trkpt><trkpt lat="43.0597749" lon="13.27521"><ele>529.0</ele><time>2026-04-26T10:05:46.967Z</time></trkpt><trkpt lat="43.0595114" lon="13.2752785"><ele>529.0</ele><time>2026-04-26T10:05:47.966Z</time></trkpt><trkpt lat="43.059254" lon="13.2753616"><ele>529.0</ele><time>2026-04-26T10:05:48.967Z</time></trkpt><trkpt lat="43.0589961" lon="13.2754483"><ele>527.5</ele><time>2026-04-26T10:05:49.966Z</time></trkpt><trkpt lat="43.0587447" lon="13.2755481"><ele>526.0</ele><time>2026-04-26T10:05:50.967Z</time></trkpt><trkpt lat="43.0585128" lon="13.2756405"><ele>526.0</ele><time>2026-04-26T10:05:51.965Z</time></trkpt><trkpt lat="43.0582972" lon="13.275728"><ele>526.0</ele><time>2026-04-26T10:05:52.978Z</time></trkpt><trkpt lat="43.0580872" lon="13.2758043"><ele>526.0</ele><time>2026-04-26T10:05:53.962Z</time></trkpt><trkpt lat="43.0578715" lon="13.2758627"><ele>525.6666666666667</ele><time>2026-04-26T10:05:54.964Z</time></trkpt><trkpt lat="43.0576512" lon="13.2758719"><ele>525.3333333333334</ele><time>2026-04-26T10:05:55.968Z</time></trkpt><trkpt lat="43.0574288" lon="13.2758126"><ele>525.0</ele><time>2026-04-26T10:05:56.971Z</time></trkpt><trkpt lat="43.0572103" lon="13.2756969"><ele>530.5</ele><time>2026-04-26T10:05:57.969Z</time></trkpt><trkpt lat="43.0569939" lon="13.2755525"><ele>536.0</ele><time>2026-04-26T10:05:58.965Z</time></trkpt><trkpt lat="43.0567715" lon="13.2754058"><ele>532.5</ele><time>2026-04-26T10:05:59.969Z</time></trkpt><trkpt lat="43.0565422" lon="13.2752562"><ele>529.0</ele><time>2026-04-26T10:06:00.971Z</time></trkpt><trkpt lat="43.0563115" lon="13.2751015"><ele>529.0</ele><time>2026-04-26T10:06:01.971Z</time></trkpt><trkpt lat="43.0560848" lon="13.2749395"><ele>529.0</ele><time>2026-04-26T10:06:02.969Z</time></trkpt><trkpt lat="43.0558679" lon="13.2747641"><ele>531.0</ele><time>2026-04-26T10:06:03.971Z</time></trkpt><trkpt lat="43.0556647" lon="13.2745665"><ele>533.0</ele><time>2026-04-26T10:06:04.963Z</time></trkpt><trkpt lat="43.0554725" lon="13.2743519"><ele>533.0</ele><time>2026-04-26T10:06:05.965Z</time></trkpt><trkpt lat="43.0552842" lon="13.2741302"><ele>533.0</ele><time>2026-04-26T10:06:06.973Z</time></trkpt><trkpt lat="43.0550945" lon="13.2739065"><ele>535.5</ele><time>2026-04-26T10:06:07.967Z</time></trkpt><trkpt lat="43.0549055" lon="13.2736807"><ele>538.0</ele><time>2026-04-26T10:06:08.97Z</time></trkpt><trkpt lat="43.0547258" lon="13.273462"><ele>538.0</ele><time>2026-04-26T10:06:09.971Z</time></trkpt><trkpt lat="43.0545578" lon="13.2732545"><ele>538.0</ele><time>2026-04-26T10:06:10.975Z</time></trkpt><trkpt lat="43.0543983" lon="13.2730557"><ele>538.0</ele><time>2026-04-26T10:06:11.978Z</time></trkpt><trkpt lat="43.0542494" lon="13.2728707"><ele>538.6666666666667</ele><time>2026-04-26T10:06:12.972Z</time></trkpt><trkpt lat="43.0541067" lon="13.272705"><ele>539.3333333333334</ele><time>2026-04-26T10:06:13.968Z</time></trkpt><trkpt lat="43.0539594" lon="13.272561"><ele>540.0</ele><time>2026-04-26T10:06:14.965Z</time></trkpt><trkpt lat="43.0538016" lon="13.2724446"><ele>540.0</ele><time>2026-04-26T10:06:15.96Z</time></trkpt><trkpt lat="43.0536396" lon="13.2723723"><ele>540.0</ele><time>2026-04-26T10:06:16.972Z</time></trkpt><trkpt lat="43.0534745" lon="13.2723451"><ele>540.0</ele><time>2026-04-26T10:06:17.973Z</time></trkpt><trkpt lat="43.0533113" lon="13.2723611"><ele>540.3333333333334</ele><time>2026-04-26T10:06:18.96Z</time></trkpt><trkpt lat="43.0531511" lon="13.2724194"><ele>540.6666666666667</ele><time>2026-04-26T10:06:19.959Z</time></trkpt><trkpt lat="43.0529871" lon="13.2724925"><ele>541.0</ele><time>2026-04-26T10:06:20.963Z</time></trkpt><trkpt lat="43.0527998" lon="13.2725639"><ele>541.0</ele><time>2026-04-26T10:06:21.96Z</time></trkpt><trkpt lat="43.0525872" lon="13.2726515"><ele>541.0</ele><time>2026-04-26T10:06:22.958Z</time></trkpt><trkpt lat="43.052383" lon="13.2727563"><ele>541.0</ele><time>2026-04-26T10:06:23.961Z</time></trkpt><trkpt lat="43.0521721" lon="13.2728714"><ele>541.0</ele><time>2026-04-26T10:06:24.963Z</time></trkpt><trkpt lat="43.0519559" lon="13.2729822"><ele>541.0</ele><time>2026-04-26T10:06:25.962Z</time></trkpt><trkpt lat="43.0517539" lon="13.2730941"><ele>541.0</ele><time>2026-04-26T10:06:26.962Z</time></trkpt><trkpt lat="43.0515763" lon="13.27324"><ele>541.0</ele><time>2026-04-26T10:06:27.999Z</time></trkpt><trkpt lat="43.0514234" lon="13.2734317"><ele>541.0</ele><time>2026-04-26T10:06:28.963Z</time></trkpt><trkpt lat="43.0513017" lon="13.273678"><ele>541.0</ele><time>2026-04-26T10:06:29.961Z</time></trkpt><trkpt lat="43.0512174" lon="13.2739762"><ele>540.6666666666667</ele><time>2026-04-26T10:06:30.956Z</time></trkpt><trkpt lat="43.0511552" lon="13.274277"><ele>540.3333333333334</ele><time>2026-04-26T10:06:31.961Z</time></trkpt><trkpt lat="43.051074" lon="13.2745568"><ele>540.0</ele><time>2026-04-26T10:06:32.965Z</time></trkpt><trkpt lat="43.0509842" lon="13.2748411"><ele>539.0</ele><time>2026-04-26T10:06:33.96Z</time></trkpt><trkpt lat="43.0508134" lon="13.2750697"><ele>538.0</ele><time>2026-04-26T10:06:34.969Z</time></trkpt><trkpt lat="43.0506233" lon="13.2752824"><ele>538.0</ele><time>2026-04-26T10:06:35.96Z</time></trkpt><trkpt lat="43.0504462" lon="13.2754955"><ele>538.0</ele><time>2026-04-26T10:06:36.963Z</time></trkpt><trkpt lat="43.050283" lon="13.2757086"><ele>537.6666666666667</ele><time>2026-04-26T10:06:37.965Z</time></trkpt><trkpt lat="43.0501241" lon="13.2759093"><ele>537.3333333333334</ele><time>2026-04-26T10:06:38.962Z</time></trkpt><trkpt lat="43.0499701" lon="13.2761018"><ele>537.0</ele><time>2026-04-26T10:06:39.958Z</time></trkpt><trkpt lat="43.0498252" lon="13.2762867"><ele>536.0</ele><time>2026-04-26T10:06:40.963Z</time></trkpt><trkpt lat="43.0496929" lon="13.2764562"><ele>535.0</ele><time>2026-04-26T10:06:41.961Z</time></trkpt><trkpt lat="43.0495702" lon="13.2766125"><ele>534.0</ele><time>2026-04-26T10:06:42.965Z</time></trkpt><trkpt lat="43.0494569" lon="13.2767591"><ele>534.0</ele><time>2026-04-26T10:06:43.96Z</time></trkpt><trkpt lat="43.0493484" lon="13.2769014"><ele>534.0</ele><time>2026-04-26T10:06:44.968Z</time></trkpt><trkpt lat="43.0492349" lon="13.2770448"><ele>534.0</ele><time>2026-04-26T10:06:45.964Z</time></trkpt><trkpt lat="43.0491192" lon="13.2771965"><ele>534.6666666666666</ele><time>2026-04-26T10:06:46.968Z</time></trkpt><trkpt lat="43.0489959" lon="13.2773576"><ele>535.3333333333333</ele><time>2026-04-26T10:06:47.97Z</time></trkpt><trkpt lat="43.0488625" lon="13.2775248"><ele>536.0</ele><time>2026-04-26T10:06:48.966Z</time></trkpt><trkpt lat="43.0487321" lon="13.2776938"><ele>536.0</ele><time>2026-04-26T10:06:49.963Z</time></trkpt><trkpt lat="43.0486072" lon="13.2778592"><ele>536.0</ele><time>2026-04-26T10:06:50.968Z</time></trkpt><trkpt lat="43.0485216" lon="13.2780654"><ele>536.0</ele><time>2026-04-26T10:06:51.97Z</time></trkpt><trkpt lat="43.0484598" lon="13.2782857"><ele>535.6666666666666</ele><time>2026-04-26T10:06:52.979Z</time></trkpt><trkpt lat="43.0484334" lon="13.2785179"><ele>535.3333333333334</ele><time>2026-04-26T10:06:53.955Z</time></trkpt><trkpt lat="43.0484411" lon="13.2787401"><ele>535.0</ele><time>2026-04-26T10:06:54.964Z</time></trkpt><trkpt lat="43.0484712" lon="13.2789559"><ele>534.5</ele><time>2026-04-26T10:06:55.96Z</time></trkpt><trkpt lat="43.048525" lon="13.2791611"><ele>534.0</ele><time>2026-04-26T10:06:56.97Z</time></trkpt><trkpt lat="43.0485767" lon="13.2793464"><ele>533.5</ele><time>2026-04-26T10:06:57.971Z</time></trkpt><trkpt lat="43.0486226" lon="13.2795186"><ele>533.0</ele><time>2026-04-26T10:06:58.965Z</time></trkpt><trkpt lat="43.0486719" lon="13.2796812"><ele>531.4</ele><time>2026-04-26T10:06:59.97Z</time></trkpt><trkpt lat="43.0486965" lon="13.2798345"><ele>529.8</ele><time>2026-04-26T10:07:00.969Z</time></trkpt><trkpt lat="43.0487176" lon="13.2799796"><ele>528.2</ele><time>2026-04-26T10:07:01.963Z</time></trkpt><trkpt lat="43.0487211" lon="13.2801109"><ele>526.6</ele><time>2026-04-26T10:07:02.969Z</time></trkpt><trkpt lat="43.0487252" lon="13.2802186"><ele>525.0</ele><time>2026-04-26T10:07:03.969Z</time></trkpt><trkpt lat="43.0487523" lon="13.2803534"><ele>525.0</ele><time>2026-04-26T10:07:05.971Z</time></trkpt><trkpt lat="43.048837" lon="13.2804143"><ele>525.0</ele><time>2026-04-26T10:07:07.966Z</time></trkpt><trkpt lat="43.0489099" lon="13.2804264"><ele>525.0</ele><time>2026-04-26T10:07:08.969Z</time></trkpt><trkpt lat="43.0489952" lon="13.2804317"><ele>525.0</ele><time>2026-04-26T10:07:09.965Z</time></trkpt><trkpt lat="43.0490625" lon="13.2804321"><ele>525.0</ele><time>2026-04-26T10:07:10.964Z</time></trkpt><trkpt lat="43.0491546" lon="13.2804259"><ele>525.0</ele><time>2026-04-26T10:07:12.967Z</time></trkpt><trkpt lat="43.0492465" lon="13.2803881"><ele>526.4</ele><time>2026-04-26T10:07:14.963Z</time></trkpt><trkpt lat="43.0493256" lon="13.2803518"><ele>527.8</ele><time>2026-04-26T10:07:15.968Z</time></trkpt><trkpt lat="43.049415" lon="13.2803163"><ele>529.2</ele><time>2026-04-26T10:07:16.97Z</time></trkpt><trkpt lat="43.0495212" lon="13.2802726"><ele>530.6</ele><time>2026-04-26T10:07:17.97Z</time></trkpt><trkpt lat="43.0496377" lon="13.2802367"><ele>532.0</ele><time>2026-04-26T10:07:18.966Z</time></trkpt><trkpt lat="43.0497433" lon="13.2802161"><ele>532.0</ele><time>2026-04-26T10:07:19.959Z</time></trkpt><trkpt lat="43.0498322" lon="13.2802088"><ele>532.0</ele><time>2026-04-26T10:07:20.969Z</time></trkpt><trkpt lat="43.049909" lon="13.2802122"><ele>532.0</ele><time>2026-04-26T10:07:21.962Z</time></trkpt><trkpt lat="43.0499886" lon="13.2802273"><ele>532.0</ele><time>2026-04-26T10:07:22.961Z</time></trkpt><trkpt lat="43.0500888" lon="13.2802315"><ele>532.0</ele><time>2026-04-26T10:07:23.961Z</time></trkpt><trkpt lat="43.0501939" lon="13.2802299"><ele>533.8000000000001</ele><time>2026-04-26T10:07:24.966Z</time></trkpt><trkpt lat="43.0503024" lon="13.2802278"><ele>535.6</ele><time>2026-04-26T10:07:25.964Z</time></trkpt><trkpt lat="43.0504049" lon="13.2802401"><ele>537.4000000000001</ele><time>2026-04-26T10:07:26.961Z</time></trkpt><trkpt lat="43.0505061" lon="13.2802987"><ele>539.2</ele><time>2026-04-26T10:07:27.96Z</time></trkpt><trkpt lat="43.0506068" lon="13.2803619"><ele>541.0</ele><time>2026-04-26T10:07:28.968Z</time></trkpt><trkpt lat="43.0507121" lon="13.2804387"><ele>541.0</ele><time>2026-04-26T10:07:29.967Z</time></trkpt><trkpt lat="43.0507805" lon="13.2805616"><ele>541.0</ele><time>2026-04-26T10:07:30.959Z</time></trkpt><trkpt lat="43.0508639" lon="13.2807254"><ele>541.0</ele><time>2026-04-26T10:07:31.986Z</time></trkpt><trkpt lat="43.0509467" lon="13.2808979"><ele>541.0</ele><time>2026-04-26T10:07:32.965Z</time></trkpt><trkpt lat="43.0510195" lon="13.2810598"><ele>542.25</ele><time>2026-04-26T10:07:33.968Z</time></trkpt><trkpt lat="43.0510826" lon="13.2811933"><ele>543.5</ele><time>2026-04-26T10:07:34.966Z</time></trkpt><trkpt lat="43.0511599" lon="13.2813198"><ele>544.75</ele><time>2026-04-26T10:07:35.963Z</time></trkpt><trkpt lat="43.0512716" lon="13.281432"><ele>546.0</ele><time>2026-04-26T10:07:36.971Z</time></trkpt><trkpt lat="43.051399" lon="13.2815525"><ele>546.0</ele><time>2026-04-26T10:07:37.971Z</time></trkpt><trkpt lat="43.051515" lon="13.2816805"><ele>546.0</ele><time>2026-04-26T10:07:38.967Z</time></trkpt><trkpt lat="43.0516188" lon="13.2817765"><ele>546.0</ele><time>2026-04-26T10:07:39.964Z</time></trkpt><trkpt lat="43.0517218" lon="13.2818437"><ele>546.0</ele><time>2026-04-26T10:07:40.96Z</time></trkpt><trkpt lat="43.0518291" lon="13.2818954"><ele>547.75</ele><time>2026-04-26T10:07:41.966Z</time></trkpt><trkpt lat="43.0519609" lon="13.2819482"><ele>549.5</ele><time>2026-04-26T10:07:42.967Z</time></trkpt><trkpt lat="43.0521019" lon="13.2820188"><ele>551.25</ele><time>2026-04-26T10:07:43.965Z</time></trkpt><trkpt lat="43.0522256" lon="13.2821006"><ele>553.0</ele><time>2026-04-26T10:07:44.961Z</time></trkpt><trkpt lat="43.0523386" lon="13.2821758"><ele>553.0</ele><time>2026-04-26T10:07:45.968Z</time></trkpt><trkpt lat="43.0524448" lon="13.2822503"><ele>553.0</ele><time>2026-04-26T10:07:46.963Z</time></trkpt><trkpt lat="43.0525455" lon="13.2823412"><ele>553.0</ele><time>2026-04-26T10:07:47.963Z</time></trkpt><trkpt lat="43.0526363" lon="13.2824592"><ele>553.0</ele><time>2026-04-26T10:07:48.968Z</time></trkpt><trkpt lat="43.052729" lon="13.282582"><ele>552.0</ele><time>2026-04-26T10:07:49.963Z</time></trkpt><trkpt lat="43.0528111" lon="13.2827284"><ele>551.0</ele><time>2026-04-26T10:07:50.966Z</time></trkpt><trkpt lat="43.0528895" lon="13.2829015"><ele>550.0</ele><time>2026-04-26T10:07:51.963Z</time></trkpt><trkpt lat="43.0529711" lon="13.2830923"><ele>549.0</ele><time>2026-04-26T10:07:52.959Z</time></trkpt><trkpt lat="43.0530667" lon="13.2832819"><ele>546.6666666666666</ele><time>2026-04-26T10:07:53.962Z</time></trkpt><trkpt lat="43.0531571" lon="13.2834766"><ele>544.3333333333333</ele><time>2026-04-26T10:07:54.965Z</time></trkpt><trkpt lat="43.0532116" lon="13.2836702"><ele>542.0</ele><time>2026-04-26T10:07:55.962Z</time></trkpt><trkpt lat="43.053286" lon="13.2838614"><ele>544.3333333333333</ele><time>2026-04-26T10:07:56.965Z</time></trkpt><trkpt lat="43.0533672" lon="13.2840372"><ele>546.6666666666666</ele><time>2026-04-26T10:07:57.964Z</time></trkpt><trkpt lat="43.0534583" lon="13.2842012"><ele>549.0</ele><time>2026-04-26T10:07:58.971Z</time></trkpt><trkpt lat="43.0535526" lon="13.284366"><ele>549.0</ele><time>2026-04-26T10:07:59.974Z</time></trkpt><trkpt lat="43.053661" lon="13.2845283"><ele>549.0</ele><time>2026-04-26T10:08:00.963Z</time></trkpt><trkpt lat="43.0537771" lon="13.2846953"><ele>549.0</ele><time>2026-04-26T10:08:01.969Z</time></trkpt><trkpt lat="43.053899" lon="13.2848678"><ele>549.3333333333334</ele><time>2026-04-26T10:08:02.969Z</time></trkpt><trkpt lat="43.0540086" lon="13.2850472"><ele>549.6666666666667</ele><time>2026-04-26T10:08:03.963Z</time></trkpt><trkpt lat="43.0541013" lon="13.2852094"><ele>550.0</ele><time>2026-04-26T10:08:04.967Z</time></trkpt><trkpt lat="43.0541824" lon="13.2853542"><ele>550.0</ele><time>2026-04-26T10:08:05.965Z</time></trkpt><trkpt lat="43.0542324" lon="13.2854928"><ele>550.0</ele><time>2026-04-26T10:08:06.97Z</time></trkpt><trkpt lat="43.0542607" lon="13.2856092"><ele>550.0</ele><time>2026-04-26T10:08:07.973Z</time></trkpt><trkpt lat="43.0542624" lon="13.2857159"><ele>550.0</ele><time>2026-04-26T10:08:08.977Z</time></trkpt><trkpt lat="43.0542458" lon="13.2858226"><ele>550.0</ele><time>2026-04-26T10:08:09.972Z</time></trkpt><trkpt lat="43.0542108" lon="13.2859435"><ele>549.5</ele><time>2026-04-26T10:08:10.971Z</time></trkpt><trkpt lat="43.0541611" lon="13.2860803"><ele>549.0</ele><time>2026-04-26T10:08:11.968Z</time></trkpt><trkpt lat="43.0541057" lon="13.286239"><ele>548.5</ele><time>2026-04-26T10:08:12.972Z</time></trkpt><trkpt lat="43.0540397" lon="13.2864098"><ele>548.0</ele><time>2026-04-26T10:08:13.972Z</time></trkpt><trkpt lat="43.0539623" lon="13.2865807"><ele>551.25</ele><time>2026-04-26T10:08:14.972Z</time></trkpt><trkpt lat="43.0538759" lon="13.2867358"><ele>554.5</ele><time>2026-04-26T10:08:15.971Z</time></trkpt><trkpt lat="43.0537786" lon="13.2868806"><ele>557.75</ele><time>2026-04-26T10:08:16.973Z</time></trkpt><trkpt lat="43.0536767" lon="13.2870308"><ele>561.0</ele><time>2026-04-26T10:08:17.967Z</time></trkpt><trkpt lat="43.0535599" lon="13.2871622"><ele>560.6666666666666</ele><time>2026-04-26T10:08:18.989Z</time></trkpt><trkpt lat="43.0534347" lon="13.287299"><ele>560.3333333333333</ele><time>2026-04-26T10:08:19.968Z</time></trkpt><trkpt lat="43.0533145" lon="13.2874374"><ele>560.0</ele><time>2026-04-26T10:08:20.967Z</time></trkpt><trkpt lat="43.0531926" lon="13.2875748"><ele>563.6666666666666</ele><time>2026-04-26T10:08:21.961Z</time></trkpt><trkpt lat="43.0530818" lon="13.2877444"><ele>567.3333333333334</ele><time>2026-04-26T10:08:22.969Z</time></trkpt><trkpt lat="43.052975" lon="13.2879094"><ele>571.0</ele><time>2026-04-26T10:08:23.961Z</time></trkpt><trkpt lat="43.0528894" lon="13.2880828"><ele>570.25</ele><time>2026-04-26T10:08:24.962Z</time></trkpt><trkpt lat="43.0528" lon="13.2882476"><ele>569.5</ele><time>2026-04-26T10:08:25.96Z</time></trkpt><trkpt lat="43.0527089" lon="13.2883658"><ele>568.75</ele><time>2026-04-26T10:08:26.96Z</time></trkpt><trkpt lat="43.0526371" lon="13.2884642"><ele>568.0</ele><time>2026-04-26T10:08:27.96Z</time></trkpt><trkpt lat="43.0525768" lon="13.2885476"><ele>568.0</ele><time>2026-04-26T10:08:28.971Z</time></trkpt><trkpt lat="43.0525266" lon="13.2886992"><ele>568.0</ele><time>2026-04-26T10:08:30.965Z</time></trkpt><trkpt lat="43.0525371" lon="13.28879"><ele>568.0</ele><time>2026-04-26T10:08:31.962Z</time></trkpt><trkpt lat="43.0525788" lon="13.2888645"><ele>568.0</ele><time>2026-04-26T10:08:32.962Z</time></trkpt><trkpt lat="43.0526436" lon="13.288923"><ele>568.0</ele><time>2026-04-26T10:08:33.963Z</time></trkpt><trkpt lat="43.0527298" lon="13.2889941"><ele>568.0</ele><time>2026-04-26T10:08:34.962Z</time></trkpt><trkpt lat="43.0528171" lon="13.2890497"><ele>569.8</ele><time>2026-04-26T10:08:35.966Z</time></trkpt><trkpt lat="43.0528918" lon="13.289132"><ele>571.5999999999999</ele><time>2026-04-26T10:08:36.965Z</time></trkpt><trkpt lat="43.0529257" lon="13.2892149"><ele>573.4000000000001</ele><time>2026-04-26T10:08:37.969Z</time></trkpt><trkpt lat="43.0528973" lon="13.2893679"><ele>575.2</ele><time>2026-04-26T10:08:39.973Z</time></trkpt><trkpt lat="43.052849" lon="13.2894583"><ele>577.0</ele><time>2026-04-26T10:08:40.972Z</time></trkpt><trkpt lat="43.0527722" lon="13.289558"><ele>577.0</ele><time>2026-04-26T10:08:41.96Z</time></trkpt><trkpt lat="43.0526831" lon="13.2896707"><ele>577.0</ele><time>2026-04-26T10:08:42.962Z</time></trkpt><trkpt lat="43.052587" lon="13.2897882"><ele>577.0</ele><time>2026-04-26T10:08:43.96Z</time></trkpt><trkpt lat="43.0524903" lon="13.2898858"><ele>577.0</ele><time>2026-04-26T10:08:44.965Z</time></trkpt><trkpt lat="43.0524351" lon="13.28999"><ele>577.2</ele><time>2026-04-26T10:08:45.968Z</time></trkpt><trkpt lat="43.0524069" lon="13.29007"><ele>577.4000000000001</ele><time>2026-04-26T10:08:46.969Z</time></trkpt><trkpt lat="43.0524223" lon="13.2901984"><ele>577.5999999999999</ele><time>2026-04-26T10:08:48.97Z</time></trkpt><trkpt lat="43.0524417" lon="13.2902851"><ele>577.8</ele><time>2026-04-26T10:08:57.969Z</time></trkpt><trkpt lat="43.0525216" lon="13.2903774"><ele>578.0</ele><time>2026-04-26T10:08:59.972Z</time></trkpt><trkpt lat="43.0526178" lon="13.2904773"><ele>578.0</ele><time>2026-04-26T10:09:01.968Z</time></trkpt><trkpt lat="43.0527853" lon="13.2904737"><ele>578.0</ele><time>2026-04-26T10:09:25.978Z</time></trkpt><trkpt lat="43.0526964" lon="13.2904662"><ele>578.0</ele><time>2026-04-26T10:09:31.961Z</time></trkpt><trkpt lat="43.0525707" lon="13.2904227"><ele>578.0</ele><time>2026-04-26T10:09:33.962Z</time></trkpt><trkpt lat="43.052474" lon="13.290335"><ele>580.4</ele><time>2026-04-26T10:09:35.96Z</time></trkpt><trkpt lat="43.0523737" lon="13.2902749"><ele>582.8</ele><time>2026-04-26T10:09:37.962Z</time></trkpt><trkpt lat="43.0523004" lon="13.2902541"><ele>585.2</ele><time>2026-04-26T10:09:38.962Z</time></trkpt><trkpt lat="43.0522003" lon="13.2902833"><ele>587.6</ele><time>2026-04-26T10:09:39.969Z</time></trkpt><trkpt lat="43.052101" lon="13.2903253"><ele>590.0</ele><time>2026-04-26T10:09:40.964Z</time></trkpt><trkpt lat="43.0520273" lon="13.2903502"><ele>590.0</ele><time>2026-04-26T10:09:41.961Z</time></trkpt><trkpt lat="43.0519473" lon="13.2904022"><ele>590.0</ele><time>2026-04-26T10:09:43.963Z</time></trkpt><trkpt lat="43.0518855" lon="13.2904197"><ele>590.0</ele><time>2026-04-26T10:09:44.958Z</time></trkpt><trkpt lat="43.0518178" lon="13.2904335"><ele>590.0</ele><time>2026-04-26T10:09:45.964Z</time></trkpt><trkpt lat="43.0517452" lon="13.2904716"><ele>590.0</ele><time>2026-04-26T10:09:46.961Z</time></trkpt><trkpt lat="43.0516795" lon="13.2905351"><ele>590.0</ele><time>2026-04-26T10:09:47.959Z</time></trkpt><trkpt lat="43.0516162" lon="13.2905986"><ele>590.2</ele><time>2026-04-26T10:09:48.962Z</time></trkpt><trkpt lat="43.0515377" lon="13.2906436"><ele>590.4</ele><time>2026-04-26T10:09:49.963Z</time></trkpt><trkpt lat="43.0514684" lon="13.29067"><ele>590.6</ele><time>2026-04-26T10:09:50.964Z</time></trkpt><trkpt lat="43.0513435" lon="13.2907186"><ele>590.8</ele><time>2026-04-26T10:09:52.967Z</time></trkpt><trkpt lat="43.0512797" lon="13.2907365"><ele>591.0</ele><time>2026-04-26T10:09:53.963Z</time></trkpt><trkpt lat="43.0511811" lon="13.2907745"><ele>591.0</ele><time>2026-04-26T10:09:55.964Z</time></trkpt><trkpt lat="43.0509835" lon="13.2907269"><ele>591.0</ele><time>2026-04-26T10:10:15.965Z</time></trkpt><trkpt lat="43.0508823" lon="13.2906934"><ele>591.0</ele><time>2026-04-26T10:10:17.96Z</time></trkpt><trkpt lat="43.0507596" lon="13.2906578"><ele>591.0</ele><time>2026-04-26T10:10:19.963Z</time></trkpt><trkpt lat="43.0506964" lon="13.2906142"><ele>590.0</ele><time>2026-04-26T10:10:21.97Z</time></trkpt><trkpt lat="43.050687" lon="13.2905032"><ele>589.0</ele><time>2026-04-26T10:10:40.971Z</time></trkpt><trkpt lat="43.0507269" lon="13.2904104"><ele>588.0</ele><time>2026-04-26T10:10:42.972Z</time></trkpt><trkpt lat="43.0507945" lon="13.2903093"><ele>587.0</ele><time>2026-04-26T10:10:44.964Z</time></trkpt><trkpt lat="43.0508496" lon="13.2902133"><ele>586.0</ele><time>2026-04-26T10:10:46.965Z</time></trkpt><trkpt lat="43.0508334" lon="13.2900876"><ele>585.0</ele><time>2026-04-26T10:10:49.966Z</time></trkpt><trkpt lat="43.0507813" lon="13.2900233"><ele>585.0</ele><time>2026-04-26T10:10:51.964Z</time></trkpt><trkpt lat="43.0507336" lon="13.2899599"><ele>585.0</ele><time>2026-04-26T10:10:53.969Z</time></trkpt><trkpt lat="43.0506654" lon="13.289862"><ele>585.0</ele><time>2026-04-26T10:10:55.964Z</time></trkpt><trkpt lat="43.0505803" lon="13.2897857"><ele>585.0</ele><time>2026-04-26T10:10:57.967Z</time></trkpt><trkpt lat="43.0504899" lon="13.289735"><ele>585.0</ele><time>2026-04-26T10:10:59.966Z</time></trkpt><trkpt lat="43.0503942" lon="13.2897119"><ele>587.3333333333334</ele><time>2026-04-26T10:11:01.966Z</time></trkpt><trkpt lat="43.0503252" lon="13.2896977"><ele>589.6666666666666</ele><time>2026-04-26T10:11:03.964Z</time></trkpt><trkpt lat="43.0502478" lon="13.2896406"><ele>592.0</ele><time>2026-04-26T10:11:06.975Z</time></trkpt><trkpt lat="43.0502383" lon="13.2895437"><ele>594.3333333333333</ele><time>2026-04-26T10:11:08.964Z</time></trkpt><trkpt lat="43.0502446" lon="13.2894274"><ele>596.6666666666666</ele><time>2026-04-26T10:11:10.972Z</time></trkpt><trkpt lat="43.050267" lon="13.2892984"><ele>599.0</ele><time>2026-04-26T10:11:12.971Z</time></trkpt><trkpt lat="43.0502676" lon="13.289181"><ele>599.0</ele><time>2026-04-26T10:11:14.969Z</time></trkpt><trkpt lat="43.050267" lon="13.2890931"><ele>599.0</ele><time>2026-04-26T10:11:15.967Z</time></trkpt><trkpt lat="43.0502501" lon="13.2889429"><ele>599.0</ele><time>2026-04-26T10:11:17.962Z</time></trkpt><trkpt lat="43.0502181" lon="13.2888151"><ele>599.0</ele><time>2026-04-26T10:11:19.968Z</time></trkpt><trkpt lat="43.0501571" lon="13.2887059"><ele>599.0</ele><time>2026-04-26T10:11:21.99Z</time></trkpt><trkpt lat="43.0500822" lon="13.2886274"><ele>602.0</ele><time>2026-04-26T10:11:23.969Z</time></trkpt><trkpt lat="43.049993" lon="13.2885496"><ele>605.0</ele><time>2026-04-26T10:11:25.965Z</time></trkpt><trkpt lat="43.0498934" lon="13.288472"><ele>608.0</ele><time>2026-04-26T10:11:27.967Z</time></trkpt><trkpt lat="43.0497703" lon="13.2884483"><ele>611.0</ele><time>2026-04-26T10:11:29.969Z</time></trkpt><trkpt lat="43.0496971" lon="13.2884418"><ele>614.0</ele><time>2026-04-26T10:11:30.961Z</time></trkpt><trkpt lat="43.049619" lon="13.2884393"><ele>614.0</ele><time>2026-04-26T10:11:31.964Z</time></trkpt><trkpt lat="43.0495422" lon="13.2884338"><ele>614.0</ele><time>2026-04-26T10:11:32.962Z</time></trkpt><trkpt lat="43.0494197" lon="13.2884425"><ele>614.0</ele><time>2026-04-26T10:11:34.963Z</time></trkpt><trkpt lat="43.049355" lon="13.28847"><ele>614.0</ele><time>2026-04-26T10:11:35.969Z</time></trkpt><trkpt lat="43.0493027" lon="13.2885219"><ele>614.0</ele><time>2026-04-26T10:11:36.97Z</time></trkpt><trkpt lat="43.0492058" lon="13.2885975"><ele>614.0</ele><time>2026-04-26T10:11:38.968Z</time></trkpt><trkpt lat="43.0491091" lon="13.2886048"><ele>612.5</ele><time>2026-04-26T10:11:40.971Z</time></trkpt><trkpt lat="43.0489963" lon="13.288571"><ele>611.0</ele><time>2026-04-26T10:11:42.969Z</time></trkpt><trkpt lat="43.048936" lon="13.2885414"><ele>609.5</ele><time>2026-04-26T10:11:43.969Z</time></trkpt><trkpt lat="43.0488315" lon="13.2885052"><ele>608.0</ele><time>2026-04-26T10:11:45.97Z</time></trkpt><trkpt lat="43.048772" lon="13.2884639"><ele>606.5</ele><time>2026-04-26T10:11:48.972Z</time></trkpt><trkpt lat="43.0487428" lon="13.2883839"><ele>605.0</ele><time>2026-04-26T10:12:37.969Z</time></trkpt><trkpt lat="43.0488216" lon="13.2883186"><ele>605.0</ele><time>2026-04-26T10:12:40.971Z</time></trkpt><trkpt lat="43.0488822" lon="13.2882099"><ele>605.0</ele><time>2026-04-26T10:12:42.968Z</time></trkpt><trkpt lat="43.0489223" lon="13.2880979"><ele>605.0</ele><time>2026-04-26T10:12:44.968Z</time></trkpt><trkpt lat="43.0489829" lon="13.2879797"><ele>605.0</ele><time>2026-04-26T10:12:46.971Z</time></trkpt><trkpt lat="43.0490493" lon="13.2878482"><ele>605.0</ele><time>2026-04-26T10:12:48.967Z</time></trkpt><trkpt lat="43.0491" lon="13.287702"><ele>604.6</ele><time>2026-04-26T10:12:50.974Z</time></trkpt><trkpt lat="43.0491436" lon="13.2875909"><ele>604.2</ele><time>2026-04-26T10:12:52.971Z</time></trkpt><trkpt lat="43.0492058" lon="13.2875217"><ele>603.8</ele><time>2026-04-26T10:12:54.972Z</time></trkpt><trkpt lat="43.049268" lon="13.2874631"><ele>603.4</ele><time>2026-04-26T10:12:56.97Z</time></trkpt><trkpt lat="43.0493554" lon="13.2873966"><ele>603.0</ele><time>2026-04-26T10:12:58.968Z</time></trkpt><trkpt lat="43.0494489" lon="13.2873171"><ele>603.0</ele><time>2026-04-26T10:13:00.966Z</time></trkpt><trkpt lat="43.0495056" lon="13.2872685"><ele>603.0</ele><time>2026-04-26T10:13:01.969Z</time></trkpt><trkpt lat="43.0495613" lon="13.2872146"><ele>603.0</ele><time>2026-04-26T10:13:02.969Z</time></trkpt><trkpt lat="43.0496113" lon="13.2871616"><ele>603.0</ele><time>2026-04-26T10:13:03.963Z</time></trkpt><trkpt lat="43.0496677" lon="13.2871103"><ele>603.0</ele><time>2026-04-26T10:13:04.963Z</time></trkpt><trkpt lat="43.0497207" lon="13.2870593"><ele>603.0</ele><time>2026-04-26T10:13:05.963Z</time></trkpt><trkpt lat="43.0497959" lon="13.2869634"><ele>603.0</ele><time>2026-04-26T10:13:07.963Z</time></trkpt><trkpt lat="43.0498721" lon="13.2869052"><ele>601.5</ele><time>2026-04-26T10:13:09.976Z</time></trkpt><trkpt lat="43.0499305" lon="13.2868722"><ele>600.0</ele><time>2026-04-26T10:13:10.962Z</time></trkpt><trkpt lat="43.0499926" lon="13.2868357"><ele>598.5</ele><time>2026-04-26T10:13:11.966Z</time></trkpt><trkpt lat="43.0500895" lon="13.2867746"><ele>597.0</ele><time>2026-04-26T10:13:13.962Z</time></trkpt><trkpt lat="43.0501814" lon="13.2867127"><ele>595.5</ele><time>2026-04-26T10:13:15.963Z</time></trkpt><trkpt lat="43.0502808" lon="13.2867058"><ele>594.0</ele><time>2026-04-26T10:13:17.961Z</time></trkpt><trkpt lat="43.0503827" lon="13.2867156"><ele>594.0</ele><time>2026-04-26T10:13:19.965Z</time></trkpt><trkpt lat="43.0504568" lon="13.2867292"><ele>594.0</ele><time>2026-04-26T10:13:21.968Z</time></trkpt><trkpt lat="43.0505398" lon="13.2867568"><ele>594.0</ele><time>2026-04-26T10:13:23.977Z</time></trkpt><trkpt lat="43.0506253" lon="13.2867812"><ele>594.0</ele><time>2026-04-26T10:13:25.965Z</time></trkpt><trkpt lat="43.0507208" lon="13.2868037"><ele>594.0</ele><time>2026-04-26T10:13:27.969Z</time></trkpt><trkpt lat="43.0508118" lon="13.2867791"><ele>594.0</ele><time>2026-04-26T10:13:29.964Z</time></trkpt><trkpt lat="43.050941" lon="13.2867366"><ele>594.3333333333334</ele><time>2026-04-26T10:13:31.969Z</time></trkpt><trkpt lat="43.0510046" lon="13.286721"><ele>594.6666666666666</ele><time>2026-04-26T10:13:32.966Z</time></trkpt><trkpt lat="43.0510697" lon="13.2867007"><ele>595.0</ele><time>2026-04-26T10:13:33.967Z</time></trkpt><trkpt lat="43.0511683" lon="13.2866667"><ele>595.3333333333333</ele><time>2026-04-26T10:13:35.961Z</time></trkpt><trkpt lat="43.0512676" lon="13.2866427"><ele>595.6666666666666</ele><time>2026-04-26T10:13:37.965Z</time></trkpt><trkpt lat="43.0513501" lon="13.2866261"><ele>596.0</ele><time>2026-04-26T10:13:40.969Z</time></trkpt><trkpt lat="43.0514312" lon="13.2865633"><ele>596.0</ele><time>2026-04-26T10:13:43.968Z</time></trkpt><trkpt lat="43.0515244" lon="13.2865528"><ele>596.0</ele><time>2026-04-26T10:13:46.972Z</time></trkpt><trkpt lat="43.0515943" lon="13.2865573"><ele>596.0</ele><time>2026-04-26T10:13:48.965Z</time></trkpt><trkpt lat="43.0516639" lon="13.2865714"><ele>596.0</ele><time>2026-04-26T10:13:50.966Z</time></trkpt><trkpt lat="43.0517504" lon="13.2865892"><ele>596.0</ele><time>2026-04-26T10:13:53.964Z</time></trkpt><trkpt lat="43.0518135" lon="13.2866016"><ele>596.0</ele><time>2026-04-26T10:13:55.963Z</time></trkpt><trkpt lat="43.051878" lon="13.2866217"><ele>595.0</ele><time>2026-04-26T10:13:57.964Z</time></trkpt><trkpt lat="43.0519493" lon="13.2866417"><ele>594.0</ele><time>2026-04-26T10:13:59.97Z</time></trkpt><trkpt lat="43.0520332" lon="13.2866602"><ele>593.0</ele><time>2026-04-26T10:14:01.967Z</time></trkpt><trkpt lat="43.0521102" lon="13.2866829"><ele>592.0</ele><time>2026-04-26T10:14:03.968Z</time></trkpt><trkpt lat="43.0522077" lon="13.2866776"><ele>591.0</ele><time>2026-04-26T10:14:06.972Z</time></trkpt><trkpt lat="43.052272" lon="13.2866569"><ele>590.0</ele><time>2026-04-26T10:14:08.964Z</time></trkpt><trkpt lat="43.052369" lon="13.2866633"><ele>590.0000000000001</ele><time>2026-04-26T10:14:10.968Z</time></trkpt><trkpt lat="43.0524391" lon="13.2866692"><ele>590.0</ele><time>2026-04-26T10:14:12.974Z</time></trkpt><trkpt lat="43.0525064" lon="13.2866677"><ele>590.0</ele><time>2026-04-26T10:14:14.968Z</time></trkpt><trkpt lat="43.0525707" lon="13.2866624"><ele>590.0</ele><time>2026-04-26T10:14:16.966Z</time></trkpt><trkpt lat="43.0526578" lon="13.2866543"><ele>590.0</ele><time>2026-04-26T10:14:19.964Z</time></trkpt><trkpt lat="43.0527453" lon="13.2866382"><ele>590.0000000000001</ele><time>2026-04-26T10:14:23.964Z</time></trkpt><trkpt lat="43.0528046" lon="13.2865867"><ele>590.0</ele><time>2026-04-26T10:14:26.966Z</time></trkpt><trkpt lat="43.0528636" lon="13.2865197"><ele>587.8333333333333</ele><time>2026-04-26T10:14:30.964Z</time></trkpt><trkpt lat="43.0527887" lon="13.2864601"><ele>585.6666666666666</ele><time>2026-04-26T10:14:34.967Z</time></trkpt><trkpt lat="43.0527377" lon="13.2863914"><ele>583.5</ele><time>2026-04-26T10:14:37.966Z</time></trkpt><trkpt lat="43.0527934" lon="13.2863293"><ele>581.3333333333334</ele><time>2026-04-26T10:14:39.959Z</time></trkpt><trkpt lat="43.0529154" lon="13.2863175"><ele>579.1666666666667</ele><time>2026-04-26T10:14:41.966Z</time></trkpt><trkpt lat="43.0529787" lon="13.2863091"><ele>577.0</ele><time>2026-04-26T10:14:42.963Z</time></trkpt><trkpt lat="43.0530901" lon="13.2862931"><ele>574.6</ele><time>2026-04-26T10:14:44.963Z</time></trkpt><trkpt lat="43.0531881" lon="13.286308"><ele>572.2</ele><time>2026-04-26T10:14:46.966Z</time></trkpt><trkpt lat="43.053299" lon="13.2863432"><ele>569.8</ele><time>2026-04-26T10:14:48.976Z</time></trkpt><trkpt lat="43.0534034" lon="13.2863891"><ele>567.4</ele><time>2026-04-26T10:14:50.968Z</time></trkpt><trkpt lat="43.0534918" lon="13.2864527"><ele>565.0</ele><time>2026-04-26T10:14:52.976Z</time></trkpt><trkpt lat="43.0535691" lon="13.2865255"><ele>564.2</ele><time>2026-04-26T10:14:54.968Z</time></trkpt><trkpt lat="43.0536366" lon="13.28661"><ele>563.4</ele><time>2026-04-26T10:14:56.967Z</time></trkpt><trkpt lat="43.0537086" lon="13.2866816"><ele>562.6</ele><time>2026-04-26T10:14:58.974Z</time></trkpt><trkpt lat="43.0537975" lon="13.286697"><ele>561.8</ele><time>2026-04-26T10:15:00.968Z</time></trkpt><trkpt lat="43.0538872" lon="13.2866504"><ele>561.0</ele><time>2026-04-26T10:15:02.971Z</time></trkpt><trkpt lat="43.0539562" lon="13.2865806"><ele>561.0</ele><time>2026-04-26T10:15:04.963Z</time></trkpt><trkpt lat="43.0540245" lon="13.2865243"><ele>561.0</ele><time>2026-04-26T10:16:20.972Z</time></trkpt><trkpt lat="43.05396" lon="13.2865925"><ele>561.0</ele><time>2026-04-26T10:16:28.974Z</time></trkpt><trkpt lat="43.0538944" lon="13.2867251"><ele>561.0</ele><time>2026-04-26T10:16:30.968Z</time></trkpt><trkpt lat="43.0538428" lon="13.2868066"><ele>561.0</ele><time>2026-04-26T10:16:31.971Z</time></trkpt><trkpt lat="43.0537803" lon="13.2868893"><ele>561.0</ele><time>2026-04-26T10:16:32.973Z</time></trkpt><trkpt lat="43.0537089" lon="13.2869767"><ele>561.0</ele><time>2026-04-26T10:16:33.974Z</time></trkpt><trkpt lat="43.0536305" lon="13.2870703"><ele>561.0</ele><time>2026-04-26T10:16:34.989Z</time></trkpt><trkpt lat="43.0535467" lon="13.2871707"><ele>561.0</ele><time>2026-04-26T10:16:35.977Z</time></trkpt><trkpt lat="43.0534605" lon="13.2872747"><ele>561.0</ele><time>2026-04-26T10:16:36.975Z</time></trkpt><trkpt lat="43.053368" lon="13.2873705"><ele>561.0</ele><time>2026-04-26T10:16:37.996Z</time></trkpt><trkpt lat="43.0532784" lon="13.2874766"><ele>563.5</ele><time>2026-04-26T10:16:38.965Z</time></trkpt><trkpt lat="43.0531928" lon="13.2875942"><ele>566.0</ele><time>2026-04-26T10:16:39.985Z</time></trkpt><trkpt lat="43.053108" lon="13.2877077"><ele>568.5</ele><time>2026-04-26T10:16:40.968Z</time></trkpt><trkpt lat="43.0530291" lon="13.2878226"><ele>571.0</ele><time>2026-04-26T10:16:41.969Z</time></trkpt><trkpt lat="43.0529568" lon="13.2879316"><ele>571.0</ele><time>2026-04-26T10:16:42.972Z</time></trkpt><trkpt lat="43.0528962" lon="13.2880423"><ele>571.0</ele><time>2026-04-26T10:16:43.967Z</time></trkpt><trkpt lat="43.0528386" lon="13.2881468"><ele>571.0</ele><time>2026-04-26T10:16:44.98Z</time></trkpt><trkpt lat="43.052784" lon="13.2882453"><ele>571.0</ele><time>2026-04-26T10:16:45.967Z</time></trkpt><trkpt lat="43.0527325" lon="13.2883425"><ele>571.0</ele><time>2026-04-26T10:16:46.97Z</time></trkpt><trkpt lat="43.0526737" lon="13.2884376"><ele>570.4</ele><time>2026-04-26T10:16:47.97Z</time></trkpt><trkpt lat="43.0526154" lon="13.2885103"><ele>569.8</ele><time>2026-04-26T10:16:48.972Z</time></trkpt><trkpt lat="43.0525435" lon="13.2886292"><ele>569.1999999999999</ele><time>2026-04-26T10:16:50.968Z</time></trkpt><trkpt lat="43.052543" lon="13.288717"><ele>568.6</ele><time>2026-04-26T10:16:51.971Z</time></trkpt><trkpt lat="43.0525691" lon="13.2888805"><ele>568.0</ele><time>2026-04-26T10:16:53.963Z</time></trkpt><trkpt lat="43.0526209" lon="13.2889609"><ele>569.8</ele><time>2026-04-26T10:16:54.965Z</time></trkpt><trkpt lat="43.0527068" lon="13.289045"><ele>571.5999999999999</ele><time>2026-04-26T10:16:55.968Z</time></trkpt><trkpt lat="43.0527846" lon="13.2891028"><ele>573.4000000000001</ele><time>2026-04-26T10:16:56.964Z</time></trkpt><trkpt lat="43.0528384" lon="13.2891827"><ele>575.2</ele><time>2026-04-26T10:16:57.972Z</time></trkpt><trkpt lat="43.0528917" lon="13.2893138"><ele>577.0</ele><time>2026-04-26T10:16:59.975Z</time></trkpt><trkpt lat="43.052859" lon="13.2894062"><ele>577.0</ele><time>2026-04-26T10:17:00.972Z</time></trkpt><trkpt lat="43.0528176" lon="13.2895113"><ele>577.0</ele><time>2026-04-26T10:17:01.971Z</time></trkpt><trkpt lat="43.0527219" lon="13.2896361"><ele>577.0</ele><time>2026-04-26T10:17:02.97Z</time></trkpt><trkpt lat="43.0526278" lon="13.2897466"><ele>577.0</ele><time>2026-04-26T10:17:03.975Z</time></trkpt><trkpt lat="43.0525405" lon="13.2898491"><ele>577.1666666666667</ele><time>2026-04-26T10:17:04.974Z</time></trkpt><trkpt lat="43.0524598" lon="13.2899312"><ele>577.3333333333334</ele><time>2026-04-26T10:17:05.975Z</time></trkpt><trkpt lat="43.0524001" lon="13.2900127"><ele>577.5</ele><time>2026-04-26T10:17:06.977Z</time></trkpt><trkpt lat="43.0523648" lon="13.2900897"><ele>577.6666666666666</ele><time>2026-04-26T10:17:07.972Z</time></trkpt><trkpt lat="43.0523855" lon="13.290217"><ele>577.8333333333333</ele><time>2026-04-26T10:17:09.967Z</time></trkpt><trkpt lat="43.0524338" lon="13.2902911"><ele>578.0</ele><time>2026-04-26T10:17:21.966Z</time></trkpt><trkpt lat="43.0525092" lon="13.2903867"><ele>578.0</ele><time>2026-04-26T10:17:23.97Z</time></trkpt><trkpt lat="43.052572" lon="13.2904466"><ele>578.0</ele><time>2026-04-26T10:17:24.97Z</time></trkpt><trkpt lat="43.052662" lon="13.2904924"><ele>578.0</ele><time>2026-04-26T10:17:25.967Z</time></trkpt><trkpt lat="43.0527721" lon="13.2905084"><ele>578.0</ele><time>2026-04-26T10:17:26.972Z</time></trkpt><trkpt lat="43.0529376" lon="13.2905254"><ele>578.0</ele><time>2026-04-26T10:17:27.968Z</time></trkpt><trkpt lat="43.0530688" lon="13.2905412"><ele>578.0</ele><time>2026-04-26T10:17:28.975Z</time></trkpt><trkpt lat="43.0531728" lon="13.2905614"><ele>578.0</ele><time>2026-04-26T10:17:29.967Z</time></trkpt><trkpt lat="43.0532407" lon="13.2906229"><ele>578.0</ele><time>2026-04-26T10:17:30.973Z</time></trkpt><trkpt lat="43.0532989" lon="13.290684"><ele>578.0</ele><time>2026-04-26T10:17:31.971Z</time></trkpt><trkpt lat="43.0533252" lon="13.2907773"><ele>578.0</ele><time>2026-04-26T10:17:32.968Z</time></trkpt><trkpt lat="43.0533261" lon="13.2908902"><ele>578.0</ele><time>2026-04-26T10:17:33.97Z</time></trkpt><trkpt lat="43.0533008" lon="13.2909901"><ele>579.1666666666666</ele><time>2026-04-26T10:17:34.975Z</time></trkpt><trkpt lat="43.0532544" lon="13.2910636"><ele>580.3333333333333</ele><time>2026-04-26T10:17:35.97Z</time></trkpt><trkpt lat="43.0531947" lon="13.291118"><ele>581.5</ele><time>2026-04-26T10:17:36.971Z</time></trkpt><trkpt lat="43.0531298" lon="13.2911834"><ele>582.6666666666666</ele><time>2026-04-26T10:17:37.968Z</time></trkpt><trkpt lat="43.0530689" lon="13.2912721"><ele>583.8333333333334</ele><time>2026-04-26T10:17:38.968Z</time></trkpt><trkpt lat="43.0530167" lon="13.2913943"><ele>585.0</ele><time>2026-04-26T10:17:39.97Z</time></trkpt><trkpt lat="43.0529565" lon="13.2915415"><ele>588.75</ele><time>2026-04-26T10:17:40.968Z</time></trkpt><trkpt lat="43.0528988" lon="13.2916876"><ele>592.5</ele><time>2026-04-26T10:17:41.966Z</time></trkpt><trkpt lat="43.0528411" lon="13.2918399"><ele>596.25</ele><time>2026-04-26T10:17:42.97Z</time></trkpt><trkpt lat="43.0527901" lon="13.2919772"><ele>600.0</ele><time>2026-04-26T10:17:43.966Z</time></trkpt><trkpt lat="43.0527314" lon="13.2921327"><ele>600.5</ele><time>2026-04-26T10:17:44.965Z</time></trkpt><trkpt lat="43.052728" lon="13.2923121"><ele>601.0</ele><time>2026-04-26T10:17:45.972Z</time></trkpt><trkpt lat="43.0527197" lon="13.2924738"><ele>601.5</ele><time>2026-04-26T10:17:46.974Z</time></trkpt><trkpt lat="43.0527586" lon="13.2926471"><ele>602.0</ele><time>2026-04-26T10:17:47.968Z</time></trkpt><trkpt lat="43.0527918" lon="13.2928485"><ele>602.0</ele><time>2026-04-26T10:17:48.972Z</time></trkpt><trkpt lat="43.0528493" lon="13.2930054"><ele>602.0</ele><time>2026-04-26T10:17:49.975Z</time></trkpt><trkpt lat="43.052924" lon="13.2932574"><ele>602.0</ele><time>2026-04-26T10:17:50.971Z</time></trkpt><trkpt lat="43.0529898" lon="13.2934548"><ele>602.75</ele><time>2026-04-26T10:17:51.967Z</time></trkpt><trkpt lat="43.0530505" lon="13.293602"><ele>603.5</ele><time>2026-04-26T10:17:52.975Z</time></trkpt><trkpt lat="43.053114" lon="13.2937439"><ele>604.25</ele><time>2026-04-26T10:17:53.967Z</time></trkpt><trkpt lat="43.0531541" lon="13.2938869"><ele>605.0</ele><time>2026-04-26T10:17:54.968Z</time></trkpt><trkpt lat="43.0531708" lon="13.2940492"><ele>604.5</ele><time>2026-04-26T10:17:55.968Z</time></trkpt><trkpt lat="43.0531597" lon="13.2942314"><ele>604.0</ele><time>2026-04-26T10:17:56.972Z</time></trkpt><trkpt lat="43.0531682" lon="13.2944222"><ele>603.5</ele><time>2026-04-26T10:17:57.97Z</time></trkpt><trkpt lat="43.0531879" lon="13.2946075"><ele>603.0</ele><time>2026-04-26T10:17:58.971Z</time></trkpt><trkpt lat="43.0532048" lon="13.2947852"><ele>603.0</ele><time>2026-04-26T10:17:59.971Z</time></trkpt><trkpt lat="43.0532478" lon="13.294971"><ele>603.0</ele><time>2026-04-26T10:18:00.975Z</time></trkpt><trkpt lat="43.0532816" lon="13.2951531"><ele>603.0</ele><time>2026-04-26T10:18:01.967Z</time></trkpt><trkpt lat="43.0533397" lon="13.295324"><ele>603.0</ele><time>2026-04-26T10:18:02.978Z</time></trkpt><trkpt lat="43.053395" lon="13.2954779"><ele>597.0</ele><time>2026-04-26T10:18:03.974Z</time></trkpt><trkpt lat="43.0534483" lon="13.295634"><ele>591.0</ele><time>2026-04-26T10:18:04.971Z</time></trkpt><trkpt lat="43.0535244" lon="13.2957713"><ele>585.0</ele><time>2026-04-26T10:18:05.974Z</time></trkpt><trkpt lat="43.053582" lon="13.2958985"><ele>579.0</ele><time>2026-04-26T10:18:06.97Z</time></trkpt><trkpt lat="43.0536331" lon="13.2960154"><ele>579.0</ele><time>2026-04-26T10:18:07.97Z</time></trkpt><trkpt lat="43.0536798" lon="13.2961209"><ele>579.0</ele><time>2026-04-26T10:18:08.968Z</time></trkpt><trkpt lat="43.05373" lon="13.2962201"><ele>579.0</ele><time>2026-04-26T10:18:09.974Z</time></trkpt><trkpt lat="43.053804" lon="13.2962841"><ele>579.0</ele><time>2026-04-26T10:18:10.968Z</time></trkpt><trkpt lat="43.0539168" lon="13.296345"><ele>579.0</ele><time>2026-04-26T10:18:11.971Z</time></trkpt><trkpt lat="43.0540357" lon="13.2963946"><ele>576.25</ele><time>2026-04-26T10:18:12.967Z</time></trkpt><trkpt lat="43.0541512" lon="13.2964387"><ele>573.5</ele><time>2026-04-26T10:18:13.971Z</time></trkpt><trkpt lat="43.0542644" lon="13.2964815"><ele>570.75</ele><time>2026-04-26T10:18:14.969Z</time></trkpt><trkpt lat="43.0543765" lon="13.2965247"><ele>568.0</ele><time>2026-04-26T10:18:15.968Z</time></trkpt><trkpt lat="43.0544808" lon="13.2965651"><ele>568.0</ele><time>2026-04-26T10:18:16.973Z</time></trkpt><trkpt lat="43.0545806" lon="13.2966128"><ele>568.0</ele><time>2026-04-26T10:18:17.971Z</time></trkpt><trkpt lat="43.0546773" lon="13.2966607"><ele>568.0</ele><time>2026-04-26T10:18:18.971Z</time></trkpt><trkpt lat="43.0547687" lon="13.2967039"><ele>568.0</ele><time>2026-04-26T10:18:19.973Z</time></trkpt><trkpt lat="43.0548478" lon="13.2967464"><ele>568.0</ele><time>2026-04-26T10:18:20.974Z</time></trkpt><trkpt lat="43.0549102" lon="13.2967943"><ele>568.0</ele><time>2026-04-26T10:18:21.974Z</time></trkpt><trkpt lat="43.0549527" lon="13.2968596"><ele>568.0</ele><time>2026-04-26T10:18:22.972Z</time></trkpt><trkpt lat="43.0549779" lon="13.2969481"><ele>568.0</ele><time>2026-04-26T10:18:23.971Z</time></trkpt><trkpt lat="43.0549889" lon="13.2970464"><ele>568.0</ele><time>2026-04-26T10:18:24.98Z</time></trkpt><trkpt lat="43.0549913" lon="13.2971555"><ele>568.0</ele><time>2026-04-26T10:18:25.98Z</time></trkpt><trkpt lat="43.0549934" lon="13.2972648"><ele>568.0</ele><time>2026-04-26T10:18:26.978Z</time></trkpt><trkpt lat="43.0549971" lon="13.2973661"><ele>568.0</ele><time>2026-04-26T10:18:27.98Z</time></trkpt><trkpt lat="43.0550035" lon="13.2975124"><ele>566.3333333333334</ele><time>2026-04-26T10:18:29.978Z</time></trkpt><trkpt lat="43.0549881" lon="13.2976007"><ele>564.6666666666667</ele><time>2026-04-26T10:18:32.978Z</time></trkpt><trkpt lat="43.054894" lon="13.2976492"><ele>563.0</ele><time>2026-04-26T10:18:34.982Z</time></trkpt><trkpt lat="43.0548305" lon="13.2976771"><ele>561.3333333333334</ele><time>2026-04-26T10:18:35.979Z</time></trkpt><trkpt lat="43.0547547" lon="13.2977184"><ele>559.6666666666666</ele><time>2026-04-26T10:18:36.974Z</time></trkpt><trkpt lat="43.0546796" lon="13.2977614"><ele>558.0</ele><time>2026-04-26T10:18:37.974Z</time></trkpt><trkpt lat="43.0546087" lon="13.2978016"><ele>558.0</ele><time>2026-04-26T10:18:38.979Z</time></trkpt><trkpt lat="43.054549" lon="13.2978384"><ele>558.0</ele><time>2026-04-26T10:18:39.976Z</time></trkpt><trkpt lat="43.0544945" lon="13.2979154"><ele>558.0</ele><time>2026-04-26T10:18:41.974Z</time></trkpt><trkpt lat="43.0545831" lon="13.2980303"><ele>558.0</ele><time>2026-04-26T10:18:44.971Z</time></trkpt><trkpt lat="43.054667" lon="13.2980891"><ele>558.0</ele><time>2026-04-26T10:18:45.969Z</time></trkpt><trkpt lat="43.0547601" lon="13.2981852"><ele>555.6666666666666</ele><time>2026-04-26T10:18:46.97Z</time></trkpt><trkpt lat="43.0548466" lon="13.2983244"><ele>553.3333333333333</ele><time>2026-04-26T10:18:47.972Z</time></trkpt><trkpt lat="43.0549252" lon="13.2985059"><ele>551.0</ele><time>2026-04-26T10:18:48.97Z</time></trkpt><trkpt lat="43.0549895" lon="13.2987204"><ele>550.6666666666666</ele><time>2026-04-26T10:18:49.971Z</time></trkpt><trkpt lat="43.0550419" lon="13.2989508"><ele>550.3333333333334</ele><time>2026-04-26T10:18:50.967Z</time></trkpt><trkpt lat="43.055075" lon="13.2991732"><ele>550.0</ele><time>2026-04-26T10:18:51.97Z</time></trkpt><trkpt lat="43.0550876" lon="13.2994191"><ele>550.0</ele><time>2026-04-26T10:18:52.974Z</time></trkpt><trkpt lat="43.0550764" lon="13.2996786"><ele>550.0</ele><time>2026-04-26T10:18:53.972Z</time></trkpt><trkpt lat="43.0550372" lon="13.2999417"><ele>550.0</ele><time>2026-04-26T10:18:54.97Z</time></trkpt><trkpt lat="43.0549639" lon="13.3002029"><ele>549.0</ele><time>2026-04-26T10:18:55.969Z</time></trkpt><trkpt lat="43.0548664" lon="13.3004577"><ele>548.0</ele><time>2026-04-26T10:18:56.969Z</time></trkpt><trkpt lat="43.0547728" lon="13.3006908"><ele>547.0</ele><time>2026-04-26T10:18:57.981Z</time></trkpt><trkpt lat="43.0546899" lon="13.3009035"><ele>547.0</ele><time>2026-04-26T10:18:58.976Z</time></trkpt><trkpt lat="43.0546166" lon="13.3010957"><ele>547.0</ele><time>2026-04-26T10:18:59.98Z</time></trkpt><trkpt lat="43.0545632" lon="13.3012739"><ele>547.0</ele><time>2026-04-26T10:19:00.975Z</time></trkpt><trkpt lat="43.0545352" lon="13.3014372"><ele>547.0</ele><time>2026-04-26T10:19:01.975Z</time></trkpt><trkpt lat="43.0545387" lon="13.3015895"><ele>549.5</ele><time>2026-04-26T10:19:02.974Z</time></trkpt><trkpt lat="43.0545661" lon="13.3017545"><ele>552.0</ele><time>2026-04-26T10:19:03.969Z</time></trkpt><trkpt lat="43.0546167" lon="13.3019341"><ele>554.5</ele><time>2026-04-26T10:19:04.978Z</time></trkpt><trkpt lat="43.0546838" lon="13.3021318"><ele>557.0</ele><time>2026-04-26T10:19:05.984Z</time></trkpt><trkpt lat="43.0547551" lon="13.3023515"><ele>557.6666666666666</ele><time>2026-04-26T10:19:06.982Z</time></trkpt><trkpt lat="43.0548235" lon="13.3025741"><ele>558.3333333333334</ele><time>2026-04-26T10:19:07.972Z</time></trkpt><trkpt lat="43.0548799" lon="13.3027773"><ele>559.0</ele><time>2026-04-26T10:19:08.976Z</time></trkpt><trkpt lat="43.0549111" lon="13.3029636"><ele>561.5</ele><time>2026-04-26T10:19:09.97Z</time></trkpt><trkpt lat="43.0549082" lon="13.3031344"><ele>564.0</ele><time>2026-04-26T10:19:10.975Z</time></trkpt><trkpt lat="43.0548608" lon="13.3032912"><ele>566.5</ele><time>2026-04-26T10:19:11.971Z</time></trkpt><trkpt lat="43.0547933" lon="13.3034506"><ele>569.0</ele><time>2026-04-26T10:19:12.971Z</time></trkpt><trkpt lat="43.0546477" lon="13.3035849"><ele>569.0</ele><time>2026-04-26T10:19:13.975Z</time></trkpt><trkpt lat="43.0545306" lon="13.3037065"><ele>569.0</ele><time>2026-04-26T10:19:14.98Z</time></trkpt><trkpt lat="43.0544508" lon="13.3038764"><ele>569.0</ele><time>2026-04-26T10:19:15.978Z</time></trkpt><trkpt lat="43.0544181" lon="13.3040768"><ele>569.0</ele><time>2026-04-26T10:19:16.974Z</time></trkpt><trkpt lat="43.0544048" lon="13.3043008"><ele>570.6666666666666</ele><time>2026-04-26T10:19:17.973Z</time></trkpt><trkpt lat="43.0544066" lon="13.3045486"><ele>572.3333333333334</ele><time>2026-04-26T10:19:18.973Z</time></trkpt><trkpt lat="43.0544194" lon="13.3048106"><ele>574.0</ele><time>2026-04-26T10:19:19.977Z</time></trkpt><trkpt lat="43.054454" lon="13.3050759"><ele>575.3333333333334</ele><time>2026-04-26T10:19:20.983Z</time></trkpt><trkpt lat="43.0544929" lon="13.3053223"><ele>576.6666666666666</ele><time>2026-04-26T10:19:21.977Z</time></trkpt><trkpt lat="43.0545125" lon="13.3055629"><ele>578.0</ele><time>2026-04-26T10:19:22.978Z</time></trkpt><trkpt lat="43.054507" lon="13.3058112"><ele>579.0</ele><time>2026-04-26T10:19:23.967Z</time></trkpt><trkpt lat="43.0544924" lon="13.3060377"><ele>580.0</ele><time>2026-04-26T10:19:24.97Z</time></trkpt><trkpt lat="43.0544827" lon="13.3062361"><ele>581.0</ele><time>2026-04-26T10:19:25.971Z</time></trkpt><trkpt lat="43.0544858" lon="13.3064163"><ele>582.0</ele><time>2026-04-26T10:19:26.969Z</time></trkpt><trkpt lat="43.0545308" lon="13.3065768"><ele>583.5</ele><time>2026-04-26T10:19:27.971Z</time></trkpt><trkpt lat="43.0546174" lon="13.3067339"><ele>585.0</ele><time>2026-04-26T10:19:28.969Z</time></trkpt><trkpt lat="43.0547295" lon="13.3068357"><ele>586.5</ele><time>2026-04-26T10:19:29.973Z</time></trkpt><trkpt lat="43.0548601" lon="13.30688"><ele>588.0</ele><time>2026-04-26T10:19:30.975Z</time></trkpt><trkpt lat="43.0549914" lon="13.306875"><ele>592.0</ele><time>2026-04-26T10:19:31.972Z</time></trkpt><trkpt lat="43.0551181" lon="13.3068504"><ele>596.0</ele><time>2026-04-26T10:19:32.974Z</time></trkpt><trkpt lat="43.0552464" lon="13.3067763"><ele>600.0</ele><time>2026-04-26T10:19:33.979Z</time></trkpt><trkpt lat="43.0553675" lon="13.3066991"><ele>604.0</ele><time>2026-04-26T10:19:34.977Z</time></trkpt><trkpt lat="43.055496" lon="13.3066407"><ele>604.0</ele><time>2026-04-26T10:19:35.98Z</time></trkpt><trkpt lat="43.0556025" lon="13.3065954"><ele>604.0</ele><time>2026-04-26T10:19:36.981Z</time></trkpt><trkpt lat="43.0557027" lon="13.3065757"><ele>604.0</ele><time>2026-04-26T10:19:37.978Z</time></trkpt><trkpt lat="43.0557887" lon="13.3065993"><ele>604.0</ele><time>2026-04-26T10:19:38.994Z</time></trkpt><trkpt lat="43.0558837" lon="13.3066437"><ele>604.0</ele><time>2026-04-26T10:19:39.982Z</time></trkpt><trkpt lat="43.0559583" lon="13.3067584"><ele>607.0</ele><time>2026-04-26T10:19:40.976Z</time></trkpt><trkpt lat="43.056042" lon="13.306873"><ele>610.0</ele><time>2026-04-26T10:19:41.976Z</time></trkpt><trkpt lat="43.0561572" lon="13.3069871"><ele>613.0</ele><time>2026-04-26T10:19:42.977Z</time></trkpt><trkpt lat="43.0562961" lon="13.3070699"><ele>616.0</ele><time>2026-04-26T10:19:43.974Z</time></trkpt><trkpt lat="43.056444" lon="13.307174"><ele>615.3333333333334</ele><time>2026-04-26T10:19:44.98Z</time></trkpt><trkpt lat="43.0565909" lon="13.3072834"><ele>614.6666666666666</ele><time>2026-04-26T10:19:45.979Z</time></trkpt><trkpt lat="43.0567352" lon="13.3074051"><ele>614.0</ele><time>2026-04-26T10:19:46.975Z</time></trkpt><trkpt lat="43.0568833" lon="13.3075253"><ele>614.0</ele><time>2026-04-26T10:19:47.985Z</time></trkpt><trkpt lat="43.0570366" lon="13.3076513"><ele>614.0</ele><time>2026-04-26T10:19:48.983Z</time></trkpt><trkpt lat="43.0571878" lon="13.3077833"><ele>614.0</ele><time>2026-04-26T10:19:49.979Z</time></trkpt><trkpt lat="43.0573461" lon="13.307925"><ele>614.0</ele><time>2026-04-26T10:19:50.99Z</time></trkpt><trkpt lat="43.0575091" lon="13.3080703"><ele>614.0</ele><time>2026-04-26T10:19:51.988Z</time></trkpt><trkpt lat="43.0576733" lon="13.3082204"><ele>614.0</ele><time>2026-04-26T10:19:52.981Z</time></trkpt><trkpt lat="43.0578406" lon="13.3083717"><ele>614.3333333333333</ele><time>2026-04-26T10:19:53.981Z</time></trkpt><trkpt lat="43.0579956" lon="13.3085153"><ele>614.6666666666666</ele><time>2026-04-26T10:19:54.985Z</time></trkpt><trkpt lat="43.0581344" lon="13.3086505"><ele>615.0</ele><time>2026-04-26T10:19:55.982Z</time></trkpt><trkpt lat="43.0582561" lon="13.3087991"><ele>619.0</ele><time>2026-04-26T10:19:56.979Z</time></trkpt><trkpt lat="43.0583629" lon="13.3089758"><ele>623.0</ele><time>2026-04-26T10:19:57.98Z</time></trkpt><trkpt lat="43.0584459" lon="13.3091772"><ele>627.0</ele><time>2026-04-26T10:19:58.98Z</time></trkpt><trkpt lat="43.0585033" lon="13.3094065"><ele>627.0</ele><time>2026-04-26T10:19:59.983Z</time></trkpt><trkpt lat="43.0585565" lon="13.3096436"><ele>627.0</ele><time>2026-04-26T10:20:00.98Z</time></trkpt><trkpt lat="43.058575" lon="13.3098986"><ele>627.0</ele><time>2026-04-26T10:20:01.976Z</time></trkpt><trkpt lat="43.0585876" lon="13.3101519"><ele>628.6666666666666</ele><time>2026-04-26T10:20:02.976Z</time></trkpt><trkpt lat="43.0585958" lon="13.3104113"><ele>630.3333333333333</ele><time>2026-04-26T10:20:03.974Z</time></trkpt><trkpt lat="43.0585892" lon="13.3106368"><ele>632.0</ele><time>2026-04-26T10:20:04.973Z</time></trkpt><trkpt lat="43.0585658" lon="13.3108464"><ele>631.3333333333333</ele><time>2026-04-26T10:20:05.984Z</time></trkpt><trkpt lat="43.0584789" lon="13.31103"><ele>630.6666666666666</ele><time>2026-04-26T10:20:06.983Z</time></trkpt><trkpt lat="43.0583451" lon="13.3111765"><ele>630.0</ele><time>2026-04-26T10:20:07.98Z</time></trkpt><trkpt lat="43.058182" lon="13.3112905"><ele>630.0</ele><time>2026-04-26T10:20:08.979Z</time></trkpt><trkpt lat="43.058006" lon="13.3113822"><ele>630.0</ele><time>2026-04-26T10:20:09.983Z</time></trkpt><trkpt lat="43.0578441" lon="13.3114824"><ele>630.0</ele><time>2026-04-26T10:20:10.976Z</time></trkpt><trkpt lat="43.0576895" lon="13.3116023"><ele>629.0</ele><time>2026-04-26T10:20:11.977Z</time></trkpt><trkpt lat="43.0575228" lon="13.3117275"><ele>628.0</ele><time>2026-04-26T10:20:12.984Z</time></trkpt><trkpt lat="43.0573562" lon="13.3118981"><ele>627.0</ele><time>2026-04-26T10:20:13.971Z</time></trkpt><trkpt lat="43.0571834" lon="13.3120836"><ele>633.0</ele><time>2026-04-26T10:20:14.975Z</time></trkpt><trkpt lat="43.0570071" lon="13.3122797"><ele>639.0</ele><time>2026-04-26T10:20:15.984Z</time></trkpt><trkpt lat="43.0568356" lon="13.3124772"><ele>639.0</ele><time>2026-04-26T10:20:16.979Z</time></trkpt><trkpt lat="43.0566775" lon="13.3126771"><ele>639.0</ele><time>2026-04-26T10:20:18.006Z</time></trkpt><trkpt lat="43.0565304" lon="13.3128829"><ele>639.0</ele><time>2026-04-26T10:20:18.975Z</time></trkpt><trkpt lat="43.0563953" lon="13.3130869"><ele>636.0</ele><time>2026-04-26T10:20:19.978Z</time></trkpt><trkpt lat="43.0562706" lon="13.3132794"><ele>633.0</ele><time>2026-04-26T10:20:20.987Z</time></trkpt><trkpt lat="43.056176" lon="13.3134729"><ele>630.0</ele><time>2026-04-26T10:20:21.981Z</time></trkpt><trkpt lat="43.0561068" lon="13.3136799"><ele>630.0</ele><time>2026-04-26T10:20:22.985Z</time></trkpt><trkpt lat="43.0560475" lon="13.3138985"><ele>630.0</ele><time>2026-04-26T10:20:23.986Z</time></trkpt><trkpt lat="43.0560212" lon="13.3141434"><ele>630.0</ele><time>2026-04-26T10:20:24.975Z</time></trkpt><trkpt lat="43.0559955" lon="13.3143774"><ele>631.3333333333334</ele><time>2026-04-26T10:20:25.978Z</time></trkpt><trkpt lat="43.0559792" lon="13.3145922"><ele>632.6666666666667</ele><time>2026-04-26T10:20:26.977Z</time></trkpt><trkpt lat="43.0559854" lon="13.3147968"><ele>634.0</ele><time>2026-04-26T10:20:27.981Z</time></trkpt><trkpt lat="43.0560296" lon="13.3150076"><ele>634.0</ele><time>2026-04-26T10:20:28.978Z</time></trkpt><trkpt lat="43.0561098" lon="13.3152216"><ele>634.0</ele><time>2026-04-26T10:20:29.968Z</time></trkpt><trkpt lat="43.0561905" lon="13.3154191"><ele>634.0</ele><time>2026-04-26T10:20:30.978Z</time></trkpt><trkpt lat="43.0562664" lon="13.3155948"><ele>631.75</ele><time>2026-04-26T10:20:31.988Z</time></trkpt><trkpt lat="43.0563493" lon="13.3157305"><ele>629.5</ele><time>2026-04-26T10:20:32.973Z</time></trkpt><trkpt lat="43.0564687" lon="13.3158375"><ele>627.25</ele><time>2026-04-26T10:20:33.985Z</time></trkpt><trkpt lat="43.0566176" lon="13.3158909"><ele>625.0</ele><time>2026-04-26T10:20:34.977Z</time></trkpt><trkpt lat="43.0567523" lon="13.315913"><ele>625.0</ele><time>2026-04-26T10:20:35.978Z</time></trkpt><trkpt lat="43.0568672" lon="13.3159546"><ele>625.0</ele><time>2026-04-26T10:20:36.99Z</time></trkpt><trkpt lat="43.0569664" lon="13.3160426"><ele>625.0</ele><time>2026-04-26T10:20:37.984Z</time></trkpt><trkpt lat="43.0570276" lon="13.3161805"><ele>625.0</ele><time>2026-04-26T10:20:38.971Z</time></trkpt><trkpt lat="43.0570479" lon="13.3163581"><ele>622.0</ele><time>2026-04-26T10:20:39.973Z</time></trkpt><trkpt lat="43.0570336" lon="13.3165534"><ele>619.0</ele><time>2026-04-26T10:20:40.979Z</time></trkpt><trkpt lat="43.0570143" lon="13.316768"><ele>616.0</ele><time>2026-04-26T10:20:41.975Z</time></trkpt><trkpt lat="43.0569954" lon="13.3169859"><ele>616.0</ele><time>2026-04-26T10:20:42.988Z</time></trkpt><trkpt lat="43.0569663" lon="13.3172081"><ele>616.0</ele><time>2026-04-26T10:20:43.976Z</time></trkpt><trkpt lat="43.0569204" lon="13.3174395"><ele>616.0</ele><time>2026-04-26T10:20:44.98Z</time></trkpt><trkpt lat="43.0568647" lon="13.3176639"><ele>613.25</ele><time>2026-04-26T10:20:45.981Z</time></trkpt><trkpt lat="43.0568113" lon="13.3178722"><ele>610.5</ele><time>2026-04-26T10:20:46.975Z</time></trkpt><trkpt lat="43.0567616" lon="13.3180658"><ele>607.75</ele><time>2026-04-26T10:20:47.994Z</time></trkpt><trkpt lat="43.0567143" lon="13.3182398"><ele>605.0</ele><time>2026-04-26T10:20:48.979Z</time></trkpt><trkpt lat="43.0566755" lon="13.318395"><ele>602.75</ele><time>2026-04-26T10:20:49.983Z</time></trkpt><trkpt lat="43.0566583" lon="13.3185447"><ele>600.5</ele><time>2026-04-26T10:20:50.974Z</time></trkpt><trkpt lat="43.0566791" lon="13.3186949"><ele>598.25</ele><time>2026-04-26T10:20:51.984Z</time></trkpt><trkpt lat="43.0567252" lon="13.3188552"><ele>596.0</ele><time>2026-04-26T10:20:52.982Z</time></trkpt><trkpt lat="43.0568449" lon="13.3189829"><ele>593.6666666666666</ele><time>2026-04-26T10:20:53.983Z</time></trkpt><trkpt lat="43.0569868" lon="13.3190914"><ele>591.3333333333334</ele><time>2026-04-26T10:20:54.983Z</time></trkpt><trkpt lat="43.057146" lon="13.3191674"><ele>589.0</ele><time>2026-04-26T10:20:55.982Z</time></trkpt><trkpt lat="43.0573165" lon="13.3192106"><ele>588.0</ele><time>2026-04-26T10:20:56.972Z</time></trkpt><trkpt lat="43.0574896" lon="13.3192204"><ele>587.0</ele><time>2026-04-26T10:20:57.977Z</time></trkpt><trkpt lat="43.0576582" lon="13.3192238"><ele>586.0</ele><time>2026-04-26T10:20:58.972Z</time></trkpt><trkpt lat="43.0578221" lon="13.3192285"><ele>586.0</ele><time>2026-04-26T10:20:59.973Z</time></trkpt><trkpt lat="43.0579788" lon="13.31924"><ele>586.0</ele><time>2026-04-26T10:21:00.975Z</time></trkpt><trkpt lat="43.058123" lon="13.3192748"><ele>586.0</ele><time>2026-04-26T10:21:01.978Z</time></trkpt><trkpt lat="43.058247" lon="13.3193639"><ele>586.0</ele><time>2026-04-26T10:21:02.976Z</time></trkpt><trkpt lat="43.0583375" lon="13.3195022"><ele>585.25</ele><time>2026-04-26T10:21:03.972Z</time></trkpt><trkpt lat="43.0583984" lon="13.3196634"><ele>584.5</ele><time>2026-04-26T10:21:04.972Z</time></trkpt><trkpt lat="43.0584559" lon="13.319844"><ele>583.75</ele><time>2026-04-26T10:21:05.975Z</time></trkpt><trkpt lat="43.0585262" lon="13.3200473"><ele>583.0</ele><time>2026-04-26T10:21:06.979Z</time></trkpt><trkpt lat="43.0586029" lon="13.3202697"><ele>579.6666666666667</ele><time>2026-04-26T10:21:07.982Z</time></trkpt><trkpt lat="43.0586862" lon="13.3205145"><ele>576.3333333333334</ele><time>2026-04-26T10:21:08.982Z</time></trkpt><trkpt lat="43.058773" lon="13.3207737"><ele>573.0</ele><time>2026-04-26T10:21:09.979Z</time></trkpt><trkpt lat="43.0588641" lon="13.3210423"><ele>569.0</ele><time>2026-04-26T10:21:10.998Z</time></trkpt><trkpt lat="43.0589605" lon="13.3213201"><ele>565.0</ele><time>2026-04-26T10:21:11.977Z</time></trkpt><trkpt lat="43.0590581" lon="13.3215945"><ele>561.0</ele><time>2026-04-26T10:21:12.978Z</time></trkpt><trkpt lat="43.0591552" lon="13.3218615"><ele>558.5</ele><time>2026-04-26T10:21:13.971Z</time></trkpt><trkpt lat="43.0592572" lon="13.3221328"><ele>556.0</ele><time>2026-04-26T10:21:14.979Z</time></trkpt><trkpt lat="43.0593574" lon="13.322413"><ele>555.3333333333334</ele><time>2026-04-26T10:21:15.987Z</time></trkpt><trkpt lat="43.0594403" lon="13.3226894"><ele>554.6666666666666</ele><time>2026-04-26T10:21:16.975Z</time></trkpt><trkpt lat="43.059502" lon="13.322965"><ele>554.0</ele><time>2026-04-26T10:21:17.975Z</time></trkpt><trkpt lat="43.0595373" lon="13.3232469"><ele>554.0</ele><time>2026-04-26T10:21:18.978Z</time></trkpt><trkpt lat="43.0595728" lon="13.3235254"><ele>554.0</ele><time>2026-04-26T10:21:19.976Z</time></trkpt><trkpt lat="43.0595431" lon="13.3238094"><ele>554.0</ele><time>2026-04-26T10:21:20.989Z</time></trkpt><trkpt lat="43.0595022" lon="13.3240646"><ele>556.0</ele><time>2026-04-26T10:21:21.98Z</time></trkpt><trkpt lat="43.0594538" lon="13.3243106"><ele>558.0</ele><time>2026-04-26T10:21:22.978Z</time></trkpt><trkpt lat="43.0593912" lon="13.3245608"><ele>560.0</ele><time>2026-04-26T10:21:23.975Z</time></trkpt><trkpt lat="43.0593132" lon="13.3247942"><ele>563.3333333333333</ele><time>2026-04-26T10:21:24.978Z</time></trkpt><trkpt lat="43.0592184" lon="13.3250038"><ele>566.6666666666666</ele><time>2026-04-26T10:21:25.981Z</time></trkpt><trkpt lat="43.0591075" lon="13.3251712"><ele>570.0</ele><time>2026-04-26T10:21:26.983Z</time></trkpt><trkpt lat="43.0590164" lon="13.3253058"><ele>570.75</ele><time>2026-04-26T10:21:27.974Z</time></trkpt><trkpt lat="43.0589731" lon="13.3254399"><ele>571.5</ele><time>2026-04-26T10:21:28.974Z</time></trkpt><trkpt lat="43.058988" lon="13.3255825"><ele>572.25</ele><time>2026-04-26T10:21:29.976Z</time></trkpt><trkpt lat="43.0590485" lon="13.3257107"><ele>573.0</ele><time>2026-04-26T10:21:30.97Z</time></trkpt><trkpt lat="43.0591246" lon="13.32585"><ele>573.0</ele><time>2026-04-26T10:21:31.972Z</time></trkpt><trkpt lat="43.0592261" lon="13.3259786"><ele>573.0</ele><time>2026-04-26T10:21:32.978Z</time></trkpt><trkpt lat="43.0593456" lon="13.3261235"><ele>573.0</ele><time>2026-04-26T10:21:33.975Z</time></trkpt><trkpt lat="43.0594719" lon="13.3262964"><ele>571.6666666666666</ele><time>2026-04-26T10:21:34.975Z</time></trkpt><trkpt lat="43.0595893" lon="13.3264885"><ele>570.3333333333333</ele><time>2026-04-26T10:21:35.971Z</time></trkpt><trkpt lat="43.0596628" lon="13.3266865"><ele>569.0</ele><time>2026-04-26T10:21:36.977Z</time></trkpt><trkpt lat="43.05972" lon="13.326868"><ele>569.0</ele><time>2026-04-26T10:21:37.971Z</time></trkpt><trkpt lat="43.0596837" lon="13.3270441"><ele>569.0</ele><time>2026-04-26T10:21:38.973Z</time></trkpt><trkpt lat="43.0596434" lon="13.3272144"><ele>569.0</ele><time>2026-04-26T10:21:39.978Z</time></trkpt><trkpt lat="43.0596317" lon="13.32741"><ele>569.0</ele><time>2026-04-26T10:21:40.979Z</time></trkpt><trkpt lat="43.0596602" lon="13.3276049"><ele>568.75</ele><time>2026-04-26T10:21:41.972Z</time></trkpt><trkpt lat="43.0596971" lon="13.3277807"><ele>568.5</ele><time>2026-04-26T10:21:42.978Z</time></trkpt><trkpt lat="43.0596945" lon="13.3279544"><ele>568.25</ele><time>2026-04-26T10:21:43.97Z</time></trkpt><trkpt lat="43.0596436" lon="13.3281259"><ele>568.0</ele><time>2026-04-26T10:21:44.978Z</time></trkpt><trkpt lat="43.0595922" lon="13.328283"><ele>568.75</ele><time>2026-04-26T10:21:45.977Z</time></trkpt><trkpt lat="43.0595654" lon="13.3284492"><ele>569.5</ele><time>2026-04-26T10:21:46.978Z</time></trkpt><trkpt lat="43.0595814" lon="13.3286268"><ele>570.25</ele><time>2026-04-26T10:21:47.97Z</time></trkpt><trkpt lat="43.0596385" lon="13.328797"><ele>571.0</ele><time>2026-04-26T10:21:48.976Z</time></trkpt><trkpt lat="43.0597246" lon="13.328951"><ele>571.0</ele><time>2026-04-26T10:21:49.971Z</time></trkpt><trkpt lat="43.0598306" lon="13.3291109"><ele>571.0</ele><time>2026-04-26T10:21:50.973Z</time></trkpt><trkpt lat="43.0599451" lon="13.3292954"><ele>571.0</ele><time>2026-04-26T10:21:51.981Z</time></trkpt><trkpt lat="43.0600668" lon="13.3294917"><ele>574.0</ele><time>2026-04-26T10:21:52.978Z</time></trkpt><trkpt lat="43.0601942" lon="13.3296886"><ele>577.0</ele><time>2026-04-26T10:21:53.972Z</time></trkpt><trkpt lat="43.0603144" lon="13.3298773"><ele>580.0</ele><time>2026-04-26T10:21:54.981Z</time></trkpt><trkpt lat="43.0604354" lon="13.330067"><ele>580.0</ele><time>2026-04-26T10:21:55.974Z</time></trkpt><trkpt lat="43.060563" lon="13.3302623"><ele>580.0</ele><time>2026-04-26T10:21:56.973Z</time></trkpt><trkpt lat="43.0606949" lon="13.3304626"><ele>580.0</ele><time>2026-04-26T10:21:57.975Z</time></trkpt><trkpt lat="43.0608239" lon="13.3306634"><ele>580.0</ele><time>2026-04-26T10:21:58.976Z</time></trkpt><trkpt lat="43.0609489" lon="13.3308545"><ele>580.0</ele><time>2026-04-26T10:21:59.971Z</time></trkpt><trkpt lat="43.0610684" lon="13.3310364"><ele>580.0</ele><time>2026-04-26T10:22:00.981Z</time></trkpt><trkpt lat="43.0611868" lon="13.3312166"><ele>575.6666666666667</ele><time>2026-04-26T10:22:01.976Z</time></trkpt><trkpt lat="43.0613064" lon="13.3313959"><ele>571.3333333333334</ele><time>2026-04-26T10:22:02.98Z</time></trkpt><trkpt lat="43.0614251" lon="13.3315709"><ele>567.0</ele><time>2026-04-26T10:22:03.978Z</time></trkpt><trkpt lat="43.0615395" lon="13.3317491"><ele>570.3333333333334</ele><time>2026-04-26T10:22:04.983Z</time></trkpt><trkpt lat="43.0616463" lon="13.3319355"><ele>573.6666666666667</ele><time>2026-04-26T10:22:05.983Z</time></trkpt><trkpt lat="43.0617421" lon="13.3321359"><ele>577.0</ele><time>2026-04-26T10:22:06.978Z</time></trkpt><trkpt lat="43.061833" lon="13.3323375"><ele>577.0</ele><time>2026-04-26T10:22:07.998Z</time></trkpt><trkpt lat="43.0618936" lon="13.332559"><ele>577.0</ele><time>2026-04-26T10:22:08.982Z</time></trkpt><trkpt lat="43.0619528" lon="13.332777"><ele>577.0</ele><time>2026-04-26T10:22:09.979Z</time></trkpt><trkpt lat="43.0620208" lon="13.3329783"><ele>576.3333333333334</ele><time>2026-04-26T10:22:10.977Z</time></trkpt><trkpt lat="43.0620945" lon="13.3331724"><ele>575.6666666666666</ele><time>2026-04-26T10:22:11.974Z</time></trkpt><trkpt lat="43.0621842" lon="13.3333502"><ele>575.0</ele><time>2026-04-26T10:22:12.978Z</time></trkpt><trkpt lat="43.0622737" lon="13.3335095"><ele>575.0</ele><time>2026-04-26T10:22:13.98Z</time></trkpt><trkpt lat="43.062361" lon="13.3336497"><ele>575.0</ele><time>2026-04-26T10:22:14.988Z</time></trkpt><trkpt lat="43.0624486" lon="13.333785"><ele>575.0</ele><time>2026-04-26T10:22:15.976Z</time></trkpt><trkpt lat="43.0625345" lon="13.3339235"><ele>575.0</ele><time>2026-04-26T10:22:16.976Z</time></trkpt><trkpt lat="43.0626123" lon="13.3340551"><ele>577.25</ele><time>2026-04-26T10:22:17.979Z</time></trkpt><trkpt lat="43.0626879" lon="13.334176"><ele>579.5</ele><time>2026-04-26T10:22:18.987Z</time></trkpt><trkpt lat="43.062762" lon="13.3342988"><ele>581.75</ele><time>2026-04-26T10:22:19.972Z</time></trkpt><trkpt lat="43.0628364" lon="13.3344277"><ele>584.0</ele><time>2026-04-26T10:22:20.975Z</time></trkpt><trkpt lat="43.0629156" lon="13.3345557"><ele>584.0</ele><time>2026-04-26T10:22:21.984Z</time></trkpt><trkpt lat="43.0630045" lon="13.3346767"><ele>584.0</ele><time>2026-04-26T10:22:22.974Z</time></trkpt><trkpt lat="43.0631057" lon="13.3347826"><ele>584.0</ele><time>2026-04-26T10:22:23.974Z</time></trkpt><trkpt lat="43.0632197" lon="13.3348701"><ele>584.0</ele><time>2026-04-26T10:22:24.978Z</time></trkpt><trkpt lat="43.0633339" lon="13.334936"><ele>585.25</ele><time>2026-04-26T10:22:25.981Z</time></trkpt><trkpt lat="43.0634424" lon="13.3349905"><ele>586.5</ele><time>2026-04-26T10:22:26.978Z</time></trkpt><trkpt lat="43.0635518" lon="13.3350475"><ele>587.75</ele><time>2026-04-26T10:22:27.978Z</time></trkpt><trkpt lat="43.0636558" lon="13.335117"><ele>589.0</ele><time>2026-04-26T10:22:28.978Z</time></trkpt><trkpt lat="43.0637507" lon="13.3351959"><ele>589.0</ele><time>2026-04-26T10:22:29.99Z</time></trkpt><trkpt lat="43.0638371" lon="13.3352734"><ele>589.0</ele><time>2026-04-26T10:22:30.979Z</time></trkpt><trkpt lat="43.0639212" lon="13.3353514"><ele>589.0</ele><time>2026-04-26T10:22:31.977Z</time></trkpt><trkpt lat="43.0640027" lon="13.3354326"><ele>589.0</ele><time>2026-04-26T10:22:32.977Z</time></trkpt><trkpt lat="43.0640825" lon="13.3355124"><ele>589.0</ele><time>2026-04-26T10:22:33.975Z</time></trkpt><trkpt lat="43.0641669" lon="13.3355946"><ele>589.0</ele><time>2026-04-26T10:22:34.981Z</time></trkpt><trkpt lat="43.0642555" lon="13.3356816"><ele>589.0</ele><time>2026-04-26T10:22:35.981Z</time></trkpt><trkpt lat="43.0643466" lon="13.3357714"><ele>589.0</ele><time>2026-04-26T10:22:36.973Z</time></trkpt><trkpt lat="43.064441" lon="13.3358655"><ele>589.0</ele><time>2026-04-26T10:22:37.975Z</time></trkpt><trkpt lat="43.0645395" lon="13.3359627"><ele>589.0</ele><time>2026-04-26T10:22:38.978Z</time></trkpt><trkpt lat="43.0646393" lon="13.3360639"><ele>589.0</ele><time>2026-04-26T10:22:39.972Z</time></trkpt><trkpt lat="43.06474" lon="13.3361671"><ele>589.0</ele><time>2026-04-26T10:22:40.973Z</time></trkpt><trkpt lat="43.0648379" lon="13.3362756"><ele>589.0</ele><time>2026-04-26T10:22:41.971Z</time></trkpt><trkpt lat="43.0649321" lon="13.3363911"><ele>588.75</ele><time>2026-04-26T10:22:42.981Z</time></trkpt><trkpt lat="43.065026" lon="13.336515"><ele>588.5</ele><time>2026-04-26T10:22:43.979Z</time></trkpt><trkpt lat="43.0651185" lon="13.3366454"><ele>588.25</ele><time>2026-04-26T10:22:44.977Z</time></trkpt><trkpt lat="43.0652083" lon="13.3367833"><ele>588.0</ele><time>2026-04-26T10:22:45.977Z</time></trkpt><trkpt lat="43.0652975" lon="13.3369244"><ele>588.0</ele><time>2026-04-26T10:22:46.97Z</time></trkpt><trkpt lat="43.0653862" lon="13.3370701"><ele>588.0</ele><time>2026-04-26T10:22:47.971Z</time></trkpt><trkpt lat="43.0654711" lon="13.3372212"><ele>588.0</ele><time>2026-04-26T10:22:48.979Z</time></trkpt><trkpt lat="43.0655524" lon="13.3373791"><ele>588.0</ele><time>2026-04-26T10:22:49.975Z</time></trkpt><trkpt lat="43.0656288" lon="13.3375456"><ele>586.0</ele><time>2026-04-26T10:22:50.972Z</time></trkpt><trkpt lat="43.0656997" lon="13.337723"><ele>584.0</ele><time>2026-04-26T10:22:51.985Z</time></trkpt><trkpt lat="43.065763" lon="13.3379106"><ele>582.0</ele><time>2026-04-26T10:22:52.981Z</time></trkpt><trkpt lat="43.065818" lon="13.338107"><ele>587.0</ele><time>2026-04-26T10:22:53.971Z</time></trkpt><trkpt lat="43.0658655" lon="13.3383095"><ele>592.0</ele><time>2026-04-26T10:22:54.974Z</time></trkpt><trkpt lat="43.0659056" lon="13.3385021"><ele>597.0</ele><time>2026-04-26T10:22:55.974Z</time></trkpt><trkpt lat="43.0659421" lon="13.3386839"><ele>602.0</ele><time>2026-04-26T10:22:56.98Z</time></trkpt><trkpt lat="43.06598" lon="13.3388621"><ele>600.25</ele><time>2026-04-26T10:22:57.976Z</time></trkpt><trkpt lat="43.0660174" lon="13.3390407"><ele>598.5</ele><time>2026-04-26T10:22:58.972Z</time></trkpt><trkpt lat="43.0660554" lon="13.3392193"><ele>596.75</ele><time>2026-04-26T10:22:59.971Z</time></trkpt><trkpt lat="43.0660926" lon="13.3393982"><ele>595.0</ele><time>2026-04-26T10:23:00.972Z</time></trkpt><trkpt lat="43.066128" lon="13.3395778"><ele>593.5</ele><time>2026-04-26T10:23:01.971Z</time></trkpt><trkpt lat="43.0661657" lon="13.3397581"><ele>592.0</ele><time>2026-04-26T10:23:02.97Z</time></trkpt><trkpt lat="43.0662045" lon="13.339936"><ele>590.5</ele><time>2026-04-26T10:23:03.967Z</time></trkpt><trkpt lat="43.066242" lon="13.3401115"><ele>589.0</ele><time>2026-04-26T10:23:04.97Z</time></trkpt><trkpt lat="43.0662732" lon="13.3402753"><ele>589.0</ele><time>2026-04-26T10:23:05.974Z</time></trkpt><trkpt lat="43.0663001" lon="13.3404402"><ele>589.0</ele><time>2026-04-26T10:23:06.975Z</time></trkpt><trkpt lat="43.0663197" lon="13.3406079"><ele>589.0</ele><time>2026-04-26T10:23:07.966Z</time></trkpt><trkpt lat="43.0663328" lon="13.3407823"><ele>589.0</ele><time>2026-04-26T10:23:08.98Z</time></trkpt><trkpt lat="43.0663397" lon="13.3409594"><ele>588.75</ele><time>2026-04-26T10:23:09.974Z</time></trkpt><trkpt lat="43.0663397" lon="13.3411404"><ele>588.5</ele><time>2026-04-26T10:23:10.98Z</time></trkpt><trkpt lat="43.0663319" lon="13.3413141"><ele>588.25</ele><time>2026-04-26T10:23:11.978Z</time></trkpt><trkpt lat="43.066326" lon="13.3414661"><ele>588.0</ele><time>2026-04-26T10:23:12.975Z</time></trkpt><trkpt lat="43.0663082" lon="13.3416169"><ele>588.5</ele><time>2026-04-26T10:23:13.978Z</time></trkpt><trkpt lat="43.0662777" lon="13.3417714"><ele>589.0</ele><time>2026-04-26T10:23:14.976Z</time></trkpt><trkpt lat="43.0662271" lon="13.3419124"><ele>589.5</ele><time>2026-04-26T10:23:15.97Z</time></trkpt><trkpt lat="43.0661735" lon="13.342041"><ele>590.0</ele><time>2026-04-26T10:23:16.972Z</time></trkpt><trkpt lat="43.0661151" lon="13.3421684"><ele>591.6</ele><time>2026-04-26T10:23:17.975Z</time></trkpt><trkpt lat="43.066057" lon="13.3423035"><ele>593.2</ele><time>2026-04-26T10:23:18.978Z</time></trkpt><trkpt lat="43.0660031" lon="13.3424321"><ele>594.8</ele><time>2026-04-26T10:23:19.976Z</time></trkpt><trkpt lat="43.0659458" lon="13.3425551"><ele>596.4</ele><time>2026-04-26T10:23:20.979Z</time></trkpt><trkpt lat="43.0658943" lon="13.3426713"><ele>598.0</ele><time>2026-04-26T10:23:21.98Z</time></trkpt><trkpt lat="43.0658386" lon="13.3427959"><ele>598.0</ele><time>2026-04-26T10:23:22.976Z</time></trkpt><trkpt lat="43.0657831" lon="13.342925"><ele>598.0</ele><time>2026-04-26T10:23:23.975Z</time></trkpt><trkpt lat="43.0657308" lon="13.3430474"><ele>598.0</ele><time>2026-04-26T10:23:24.973Z</time></trkpt><trkpt lat="43.0656773" lon="13.3431561"><ele>598.0</ele><time>2026-04-26T10:23:25.976Z</time></trkpt><trkpt lat="43.0656328" lon="13.3432608"><ele>598.0</ele><time>2026-04-26T10:23:26.981Z</time></trkpt><trkpt lat="43.0655888" lon="13.3433721"><ele>598.1999999999999</ele><time>2026-04-26T10:23:27.977Z</time></trkpt><trkpt lat="43.0655446" lon="13.3434745"><ele>598.4</ele><time>2026-04-26T10:23:28.976Z</time></trkpt><trkpt lat="43.0654968" lon="13.343584"><ele>598.5999999999999</ele><time>2026-04-26T10:23:29.975Z</time></trkpt><trkpt lat="43.0654473" lon="13.3437015"><ele>598.8</ele><time>2026-04-26T10:23:30.982Z</time></trkpt><trkpt lat="43.0653979" lon="13.343824"><ele>599.0</ele><time>2026-04-26T10:23:31.974Z</time></trkpt><trkpt lat="43.0653459" lon="13.343945"><ele>599.0</ele><time>2026-04-26T10:23:32.983Z</time></trkpt><trkpt lat="43.0653035" lon="13.3440496"><ele>599.0</ele><time>2026-04-26T10:23:33.98Z</time></trkpt><trkpt lat="43.0652717" lon="13.3441395"><ele>599.0</ele><time>2026-04-26T10:23:34.982Z</time></trkpt><trkpt lat="43.0652683" lon="13.3442933"><ele>599.0</ele><time>2026-04-26T10:23:36.981Z</time></trkpt><trkpt lat="43.0653098" lon="13.3443689"><ele>599.0</ele><time>2026-04-26T10:23:37.98Z</time></trkpt><trkpt lat="43.0653911" lon="13.3444566"><ele>599.0</ele><time>2026-04-26T10:23:38.972Z</time></trkpt><trkpt lat="43.0654961" lon="13.3445771"><ele>598.0</ele><time>2026-04-26T10:23:39.98Z</time></trkpt><trkpt lat="43.0656172" lon="13.3447261"><ele>597.0</ele><time>2026-04-26T10:23:40.972Z</time></trkpt><trkpt lat="43.0657409" lon="13.3448789"><ele>596.0</ele><time>2026-04-26T10:23:41.989Z</time></trkpt><trkpt lat="43.0658451" lon="13.345063"><ele>596.0</ele><time>2026-04-26T10:23:42.985Z</time></trkpt><trkpt lat="43.0659413" lon="13.3452498"><ele>596.0</ele><time>2026-04-26T10:23:43.973Z</time></trkpt><trkpt lat="43.0660019" lon="13.3454799"><ele>596.0</ele><time>2026-04-26T10:23:44.975Z</time></trkpt><trkpt lat="43.0660532" lon="13.3457137"><ele>592.3333333333333</ele><time>2026-04-26T10:23:45.978Z</time></trkpt><trkpt lat="43.0660945" lon="13.3459725"><ele>588.6666666666666</ele><time>2026-04-26T10:23:46.974Z</time></trkpt><trkpt lat="43.0661296" lon="13.3462297"><ele>585.0</ele><time>2026-04-26T10:23:47.979Z</time></trkpt><trkpt lat="43.0661752" lon="13.3464728"><ele>582.6666666666666</ele><time>2026-04-26T10:23:48.975Z</time></trkpt><trkpt lat="43.0662356" lon="13.3467126"><ele>580.3333333333333</ele><time>2026-04-26T10:23:49.971Z</time></trkpt><trkpt lat="43.0663107" lon="13.3469615"><ele>578.0</ele><time>2026-04-26T10:23:50.973Z</time></trkpt><trkpt lat="43.0663994" lon="13.34722"><ele>575.0</ele><time>2026-04-26T10:23:51.974Z</time></trkpt><trkpt lat="43.0664937" lon="13.3474693"><ele>572.0</ele><time>2026-04-26T10:23:52.971Z</time></trkpt><trkpt lat="43.066588" lon="13.3477196"><ele>569.0</ele><time>2026-04-26T10:23:53.973Z</time></trkpt><trkpt lat="43.0666836" lon="13.3479779"><ele>572.0</ele><time>2026-04-26T10:23:54.978Z</time></trkpt><trkpt lat="43.0667783" lon="13.3482279"><ele>575.0</ele><time>2026-04-26T10:23:55.975Z</time></trkpt><trkpt lat="43.0668476" lon="13.3484852"><ele>578.0</ele><time>2026-04-26T10:23:56.968Z</time></trkpt><trkpt lat="43.0669091" lon="13.348735"><ele>575.3333333333333</ele><time>2026-04-26T10:23:57.976Z</time></trkpt><trkpt lat="43.066986" lon="13.3489784"><ele>572.6666666666666</ele><time>2026-04-26T10:23:58.977Z</time></trkpt><trkpt lat="43.0670837" lon="13.3492004"><ele>570.0</ele><time>2026-04-26T10:23:59.973Z</time></trkpt><trkpt lat="43.067193" lon="13.3493983"><ele>570.0</ele><time>2026-04-26T10:24:00.984Z</time></trkpt><trkpt lat="43.0672974" lon="13.3495915"><ele>570.0</ele><time>2026-04-26T10:24:01.973Z</time></trkpt><trkpt lat="43.0673667" lon="13.3498041"><ele>570.0</ele><time>2026-04-26T10:24:02.972Z</time></trkpt><trkpt lat="43.067411" lon="13.3500049"><ele>570.6666666666666</ele><time>2026-04-26T10:24:03.976Z</time></trkpt><trkpt lat="43.0674606" lon="13.3501909"><ele>571.3333333333333</ele><time>2026-04-26T10:24:04.975Z</time></trkpt><trkpt lat="43.067548" lon="13.3503701"><ele>572.0</ele><time>2026-04-26T10:24:05.975Z</time></trkpt><trkpt lat="43.0676733" lon="13.3505262"><ele>567.6666666666666</ele><time>2026-04-26T10:24:06.978Z</time></trkpt><trkpt lat="43.0678145" lon="13.3506615"><ele>563.3333333333334</ele><time>2026-04-26T10:24:07.972Z</time></trkpt><trkpt lat="43.0679507" lon="13.3507917"><ele>559.0</ele><time>2026-04-26T10:24:08.972Z</time></trkpt><trkpt lat="43.0680707" lon="13.3509478"><ele>559.0</ele><time>2026-04-26T10:24:09.971Z</time></trkpt><trkpt lat="43.0681771" lon="13.3511392"><ele>559.0</ele><time>2026-04-26T10:24:10.969Z</time></trkpt><trkpt lat="43.0682644" lon="13.3513599"><ele>559.0</ele><time>2026-04-26T10:24:11.974Z</time></trkpt><trkpt lat="43.0683197" lon="13.3515916"><ele>559.3333333333334</ele><time>2026-04-26T10:24:12.976Z</time></trkpt><trkpt lat="43.0683396" lon="13.3518263"><ele>559.6666666666666</ele><time>2026-04-26T10:24:13.969Z</time></trkpt><trkpt lat="43.0683306" lon="13.3520651"><ele>560.0</ele><time>2026-04-26T10:24:14.971Z</time></trkpt><trkpt lat="43.0683084" lon="13.3523013"><ele>558.6666666666666</ele><time>2026-04-26T10:24:15.976Z</time></trkpt><trkpt lat="43.068296" lon="13.3525325"><ele>557.3333333333334</ele><time>2026-04-26T10:24:16.974Z</time></trkpt><trkpt lat="43.068303" lon="13.3527674"><ele>556.0</ele><time>2026-04-26T10:24:17.968Z</time></trkpt><trkpt lat="43.0683444" lon="13.3529829"><ele>553.6666666666667</ele><time>2026-04-26T10:24:18.972Z</time></trkpt><trkpt lat="43.0684245" lon="13.3531792"><ele>551.3333333333334</ele><time>2026-04-26T10:24:19.976Z</time></trkpt><trkpt lat="43.0685411" lon="13.3533479"><ele>549.0</ele><time>2026-04-26T10:24:20.987Z</time></trkpt><trkpt lat="43.0686805" lon="13.3534742"><ele>549.0</ele><time>2026-04-26T10:24:21.976Z</time></trkpt><trkpt lat="43.0688284" lon="13.3535431"><ele>549.0</ele><time>2026-04-26T10:24:22.984Z</time></trkpt><trkpt lat="43.0689703" lon="13.3535452"><ele>549.0</ele><time>2026-04-26T10:24:23.979Z</time></trkpt><trkpt lat="43.0691067" lon="13.3534774"><ele>549.0</ele><time>2026-04-26T10:24:24.979Z</time></trkpt><trkpt lat="43.0692417" lon="13.3533572"><ele>550.3333333333334</ele><time>2026-04-26T10:24:25.982Z</time></trkpt><trkpt lat="43.0693808" lon="13.3532201"><ele>551.6666666666667</ele><time>2026-04-26T10:24:26.979Z</time></trkpt><trkpt lat="43.0695288" lon="13.3530705"><ele>553.0</ele><time>2026-04-26T10:24:27.973Z</time></trkpt><trkpt lat="43.0696852" lon="13.3529132"><ele>555.0</ele><time>2026-04-26T10:24:28.975Z</time></trkpt><trkpt lat="43.0698506" lon="13.352748"><ele>557.0</ele><time>2026-04-26T10:24:29.976Z</time></trkpt><trkpt lat="43.0700139" lon="13.3525924"><ele>559.0</ele><time>2026-04-26T10:24:30.974Z</time></trkpt><trkpt lat="43.0701714" lon="13.3524499"><ele>555.0</ele><time>2026-04-26T10:24:31.977Z</time></trkpt><trkpt lat="43.07032" lon="13.3523314"><ele>551.0</ele><time>2026-04-26T10:24:32.976Z</time></trkpt><trkpt lat="43.0704725" lon="13.3522607"><ele>547.0</ele><time>2026-04-26T10:24:33.974Z</time></trkpt><trkpt lat="43.0706381" lon="13.3522491"><ele>545.0</ele><time>2026-04-26T10:24:34.976Z</time></trkpt><trkpt lat="43.0708131" lon="13.3522858"><ele>543.0</ele><time>2026-04-26T10:24:35.987Z</time></trkpt><trkpt lat="43.0709956" lon="13.3523404"><ele>541.0</ele><time>2026-04-26T10:24:36.984Z</time></trkpt><trkpt lat="43.0711863" lon="13.3523971"><ele>541.0</ele><time>2026-04-26T10:24:37.974Z</time></trkpt><trkpt lat="43.0713834" lon="13.3524549"><ele>541.0</ele><time>2026-04-26T10:24:38.977Z</time></trkpt><trkpt lat="43.0715779" lon="13.3525138"><ele>541.0</ele><time>2026-04-26T10:24:39.976Z</time></trkpt><trkpt lat="43.0717616" lon="13.3525775"><ele>542.0</ele><time>2026-04-26T10:24:40.976Z</time></trkpt><trkpt lat="43.0719325" lon="13.3526495"><ele>543.0</ele><time>2026-04-26T10:24:41.98Z</time></trkpt><trkpt lat="43.0720909" lon="13.3527256"><ele>544.0</ele><time>2026-04-26T10:24:42.976Z</time></trkpt><trkpt lat="43.0722381" lon="13.352813"><ele>544.0</ele><time>2026-04-26T10:24:43.966Z</time></trkpt><trkpt lat="43.0723721" lon="13.3529324"><ele>544.0</ele><time>2026-04-26T10:24:44.972Z</time></trkpt><trkpt lat="43.0724978" lon="13.3530903"><ele>544.0</ele><time>2026-04-26T10:24:45.968Z</time></trkpt><trkpt lat="43.0726137" lon="13.3532659"><ele>543.3333333333334</ele><time>2026-04-26T10:24:46.974Z</time></trkpt><trkpt lat="43.0727222" lon="13.3534383"><ele>542.6666666666666</ele><time>2026-04-26T10:24:47.971Z</time></trkpt><trkpt lat="43.0728195" lon="13.3536036"><ele>542.0</ele><time>2026-04-26T10:24:48.983Z</time></trkpt><trkpt lat="43.0728954" lon="13.3537664"><ele>540.25</ele><time>2026-04-26T10:24:49.975Z</time></trkpt><trkpt lat="43.0729373" lon="13.3539421"><ele>538.5</ele><time>2026-04-26T10:24:50.974Z</time></trkpt><trkpt lat="43.0729345" lon="13.3541355"><ele>536.75</ele><time>2026-04-26T10:24:51.972Z</time></trkpt><trkpt lat="43.0728979" lon="13.3543379"><ele>535.0</ele><time>2026-04-26T10:24:52.979Z</time></trkpt><trkpt lat="43.0728493" lon="13.3545459"><ele>533.0</ele><time>2026-04-26T10:24:53.974Z</time></trkpt><trkpt lat="43.0727991" lon="13.354751"><ele>531.0</ele><time>2026-04-26T10:24:54.974Z</time></trkpt><trkpt lat="43.0727508" lon="13.3549425"><ele>529.0</ele><time>2026-04-26T10:24:55.975Z</time></trkpt><trkpt lat="43.0727225" lon="13.3551387"><ele>529.0</ele><time>2026-04-26T10:24:56.973Z</time></trkpt><trkpt lat="43.0727244" lon="13.3553454"><ele>529.0</ele><time>2026-04-26T10:24:57.967Z</time></trkpt><trkpt lat="43.0727582" lon="13.3555622"><ele>529.0</ele><time>2026-04-26T10:24:58.976Z</time></trkpt><trkpt lat="43.0728293" lon="13.355788"><ele>525.6666666666667</ele><time>2026-04-26T10:24:59.967Z</time></trkpt><trkpt lat="43.0729172" lon="13.3560218"><ele>522.3333333333334</ele><time>2026-04-26T10:25:00.975Z</time></trkpt><trkpt lat="43.0730171" lon="13.3562559"><ele>519.0</ele><time>2026-04-26T10:25:01.978Z</time></trkpt><trkpt lat="43.0731206" lon="13.3564907"><ele>521.6666666666666</ele><time>2026-04-26T10:25:02.986Z</time></trkpt><trkpt lat="43.0732228" lon="13.356713"><ele>524.3333333333333</ele><time>2026-04-26T10:25:03.974Z</time></trkpt><trkpt lat="43.0733316" lon="13.3569207"><ele>527.0</ele><time>2026-04-26T10:25:04.973Z</time></trkpt><trkpt lat="43.0734547" lon="13.3571011"><ele>520.6666666666666</ele><time>2026-04-26T10:25:05.979Z</time></trkpt><trkpt lat="43.0735874" lon="13.3572611"><ele>514.3333333333334</ele><time>2026-04-26T10:25:06.977Z</time></trkpt><trkpt lat="43.0737163" lon="13.3574073"><ele>508.0</ele><time>2026-04-26T10:25:07.97Z</time></trkpt><trkpt lat="43.0738687" lon="13.3575108"><ele>508.0</ele><time>2026-04-26T10:25:08.972Z</time></trkpt><trkpt lat="43.074035" lon="13.3575638"><ele>508.0</ele><time>2026-04-26T10:25:09.979Z</time></trkpt><trkpt lat="43.0742067" lon="13.3575635"><ele>508.0</ele><time>2026-04-26T10:25:10.97Z</time></trkpt><trkpt lat="43.0743767" lon="13.3575582"><ele>511.6666666666667</ele><time>2026-04-26T10:25:11.973Z</time></trkpt><trkpt lat="43.0745392" lon="13.3575953"><ele>515.3333333333334</ele><time>2026-04-26T10:25:12.97Z</time></trkpt><trkpt lat="43.0747081" lon="13.3576983"><ele>519.0</ele><time>2026-04-26T10:25:13.98Z</time></trkpt><trkpt lat="43.074851" lon="13.3578555"><ele>513.6666666666666</ele><time>2026-04-26T10:25:14.978Z</time></trkpt><trkpt lat="43.0749738" lon="13.3580445"><ele>508.3333333333333</ele><time>2026-04-26T10:25:15.978Z</time></trkpt><trkpt lat="43.0751018" lon="13.358232"><ele>503.0</ele><time>2026-04-26T10:25:16.981Z</time></trkpt><trkpt lat="43.0752486" lon="13.3584065"><ele>503.0</ele><time>2026-04-26T10:25:17.974Z</time></trkpt><trkpt lat="43.0754062" lon="13.358543"><ele>503.0</ele><time>2026-04-26T10:25:18.98Z</time></trkpt><trkpt lat="43.0755662" lon="13.3586583"><ele>503.0</ele><time>2026-04-26T10:25:19.976Z</time></trkpt><trkpt lat="43.0757139" lon="13.3587802"><ele>500.0</ele><time>2026-04-26T10:25:20.976Z</time></trkpt><trkpt lat="43.0758384" lon="13.3589389"><ele>497.0</ele><time>2026-04-26T10:25:21.978Z</time></trkpt><trkpt lat="43.0759354" lon="13.3591373"><ele>494.0</ele><time>2026-04-26T10:25:22.979Z</time></trkpt><trkpt lat="43.0760141" lon="13.3593631"><ele>494.0</ele><time>2026-04-26T10:25:23.977Z</time></trkpt><trkpt lat="43.0760932" lon="13.3596064"><ele>494.0</ele><time>2026-04-26T10:25:24.98Z</time></trkpt><trkpt lat="43.0761716" lon="13.3598498"><ele>494.0</ele><time>2026-04-26T10:25:25.976Z</time></trkpt><trkpt lat="43.0762444" lon="13.3600788"><ele>492.25</ele><time>2026-04-26T10:25:26.99Z</time></trkpt><trkpt lat="43.0763106" lon="13.3602886"><ele>490.5</ele><time>2026-04-26T10:25:27.978Z</time></trkpt><trkpt lat="43.0763711" lon="13.3604783"><ele>488.75</ele><time>2026-04-26T10:25:28.978Z</time></trkpt><trkpt lat="43.0764332" lon="13.3606318"><ele>487.0</ele><time>2026-04-26T10:25:29.977Z</time></trkpt><trkpt lat="43.0765057" lon="13.3607485"><ele>486.0</ele><time>2026-04-26T10:25:30.977Z</time></trkpt><trkpt lat="43.0766039" lon="13.360814"><ele>485.0</ele><time>2026-04-26T10:25:31.978Z</time></trkpt><trkpt lat="43.0767263" lon="13.3608059"><ele>484.0</ele><time>2026-04-26T10:25:32.978Z</time></trkpt><trkpt lat="43.076857" lon="13.3607227"><ele>483.0</ele><time>2026-04-26T10:25:33.972Z</time></trkpt><trkpt lat="43.0769858" lon="13.3605797"><ele>485.66666666666663</ele><time>2026-04-26T10:25:34.983Z</time></trkpt><trkpt lat="43.0771135" lon="13.3604089"><ele>488.3333333333333</ele><time>2026-04-26T10:25:35.97Z</time></trkpt><trkpt lat="43.077238" lon="13.3602473"><ele>491.0</ele><time>2026-04-26T10:25:36.978Z</time></trkpt><trkpt lat="43.0773553" lon="13.3600977"><ele>488.75</ele><time>2026-04-26T10:25:37.983Z</time></trkpt><trkpt lat="43.0774572" lon="13.3599606"><ele>486.5</ele><time>2026-04-26T10:25:38.977Z</time></trkpt><trkpt lat="43.0775447" lon="13.3598446"><ele>484.25</ele><time>2026-04-26T10:25:39.971Z</time></trkpt><trkpt lat="43.0776261" lon="13.35976"><ele>482.0</ele><time>2026-04-26T10:25:40.98Z</time></trkpt><trkpt lat="43.0777119" lon="13.3597247"><ele>481.99999999999994</ele><time>2026-04-26T10:25:41.971Z</time></trkpt><trkpt lat="43.0777868" lon="13.3597597"><ele>482.0</ele><time>2026-04-26T10:25:42.974Z</time></trkpt><trkpt lat="43.0778233" lon="13.3598473"><ele>482.0</ele><time>2026-04-26T10:25:43.973Z</time></trkpt><trkpt lat="43.0778117" lon="13.3599502"><ele>482.0</ele><time>2026-04-26T10:25:44.982Z</time></trkpt><trkpt lat="43.0777594" lon="13.3600625"><ele>481.99999999999994</ele><time>2026-04-26T10:25:45.977Z</time></trkpt><trkpt lat="43.0776849" lon="13.3601899"><ele>482.0</ele><time>2026-04-26T10:25:46.972Z</time></trkpt><trkpt lat="43.0775991" lon="13.3603412"><ele>482.0</ele><time>2026-04-26T10:25:47.97Z</time></trkpt><trkpt lat="43.0775173" lon="13.3605249"><ele>482.0</ele><time>2026-04-26T10:25:48.97Z</time></trkpt><trkpt lat="43.0774608" lon="13.3607249"><ele>482.0</ele><time>2026-04-26T10:25:49.977Z</time></trkpt><trkpt lat="43.0774232" lon="13.3609266"><ele>482.3333333333333</ele><time>2026-04-26T10:25:50.984Z</time></trkpt><trkpt lat="43.0773695" lon="13.3611138"><ele>482.66666666666663</ele><time>2026-04-26T10:25:51.982Z</time></trkpt><trkpt lat="43.0772795" lon="13.3612848"><ele>483.0</ele><time>2026-04-26T10:25:52.981Z</time></trkpt><trkpt lat="43.0771558" lon="13.3614373"><ele>478.66666666666663</ele><time>2026-04-26T10:25:53.98Z</time></trkpt><trkpt lat="43.0770285" lon="13.3615731"><ele>474.3333333333333</ele><time>2026-04-26T10:25:54.973Z</time></trkpt><trkpt lat="43.0769084" lon="13.3617011"><ele>470.0</ele><time>2026-04-26T10:25:55.98Z</time></trkpt><trkpt lat="43.0767856" lon="13.3618043"><ele>470.0</ele><time>2026-04-26T10:25:56.974Z</time></trkpt><trkpt lat="43.0766652" lon="13.3618991"><ele>470.0</ele><time>2026-04-26T10:25:57.981Z</time></trkpt><trkpt lat="43.0765107" lon="13.3618526"><ele>470.0</ele><time>2026-04-26T10:25:58.972Z</time></trkpt><trkpt lat="43.0763548" lon="13.3617799"><ele>465.66666666666663</ele><time>2026-04-26T10:25:59.978Z</time></trkpt><trkpt lat="43.0762188" lon="13.3616463"><ele>461.33333333333337</ele><time>2026-04-26T10:26:00.977Z</time></trkpt><trkpt lat="43.0760696" lon="13.3615118"><ele>457.0</ele><time>2026-04-26T10:26:01.981Z</time></trkpt><trkpt lat="43.0759248" lon="13.3613925"><ele>459.0</ele><time>2026-04-26T10:26:02.982Z</time></trkpt><trkpt lat="43.0757824" lon="13.3612913"><ele>461.0</ele><time>2026-04-26T10:26:03.981Z</time></trkpt><trkpt lat="43.0756293" lon="13.3611977"><ele>463.0</ele><time>2026-04-26T10:26:04.989Z</time></trkpt><trkpt lat="43.0754673" lon="13.3611236"><ele>463.0</ele><time>2026-04-26T10:26:05.976Z</time></trkpt><trkpt lat="43.0752975" lon="13.3610721"><ele>463.0</ele><time>2026-04-26T10:26:06.984Z</time></trkpt><trkpt lat="43.075129" lon="13.361017"><ele>463.0</ele><time>2026-04-26T10:26:07.981Z</time></trkpt><trkpt lat="43.0749709" lon="13.3609285"><ele>461.0</ele><time>2026-04-26T10:26:08.981Z</time></trkpt><trkpt lat="43.0748334" lon="13.3608148"><ele>459.0</ele><time>2026-04-26T10:26:09.977Z</time></trkpt><trkpt lat="43.0747157" lon="13.3606962"><ele>457.0</ele><time>2026-04-26T10:26:10.984Z</time></trkpt><trkpt lat="43.0746114" lon="13.3605935"><ele>455.0</ele><time>2026-04-26T10:26:11.98Z</time></trkpt><trkpt lat="43.0745155" lon="13.3605339"><ele>455.0</ele><time>2026-04-26T10:26:12.975Z</time></trkpt><trkpt lat="43.0744227" lon="13.3605315"><ele>455.0</ele><time>2026-04-26T10:26:13.967Z</time></trkpt><trkpt lat="43.0743531" lon="13.3606007"><ele>455.0</ele><time>2026-04-26T10:26:14.971Z</time></trkpt><trkpt lat="43.0743287" lon="13.3607124"><ele>455.0</ele><time>2026-04-26T10:26:15.974Z</time></trkpt><trkpt lat="43.0743631" lon="13.3608295"><ele>455.0</ele><time>2026-04-26T10:26:16.979Z</time></trkpt><trkpt lat="43.0744535" lon="13.3609263"><ele>455.0</ele><time>2026-04-26T10:26:17.978Z</time></trkpt><trkpt lat="43.074587" lon="13.3610134"><ele>455.0</ele><time>2026-04-26T10:26:18.972Z</time></trkpt><trkpt lat="43.0747374" lon="13.361119"><ele>455.0</ele><time>2026-04-26T10:26:19.972Z</time></trkpt><trkpt lat="43.0748827" lon="13.3612418"><ele>451.0</ele><time>2026-04-26T10:26:20.977Z</time></trkpt><trkpt lat="43.0750166" lon="13.3613828"><ele>447.0</ele><time>2026-04-26T10:26:21.978Z</time></trkpt><trkpt lat="43.0751409" lon="13.3615496"><ele>443.0</ele><time>2026-04-26T10:26:22.977Z</time></trkpt><trkpt lat="43.0752626" lon="13.3617472"><ele>443.0</ele><time>2026-04-26T10:26:23.982Z</time></trkpt><trkpt lat="43.0753792" lon="13.3619463"><ele>443.0</ele><time>2026-04-26T10:26:24.966Z</time></trkpt><trkpt lat="43.0754845" lon="13.3621473"><ele>443.0</ele><time>2026-04-26T10:26:25.985Z</time></trkpt><trkpt lat="43.075594" lon="13.3623457"><ele>442.0</ele><time>2026-04-26T10:26:26.974Z</time></trkpt><trkpt lat="43.0757123" lon="13.3625395"><ele>441.0</ele><time>2026-04-26T10:26:27.98Z</time></trkpt><trkpt lat="43.0758447" lon="13.3627284"><ele>440.0</ele><time>2026-04-26T10:26:28.972Z</time></trkpt><trkpt lat="43.0759763" lon="13.3629234"><ele>435.3333333333333</ele><time>2026-04-26T10:26:29.975Z</time></trkpt><trkpt lat="43.0761095" lon="13.3631093"><ele>430.66666666666663</ele><time>2026-04-26T10:26:30.971Z</time></trkpt><trkpt lat="43.0762394" lon="13.3632854"><ele>426.0</ele><time>2026-04-26T10:26:31.977Z</time></trkpt><trkpt lat="43.0763649" lon="13.3634625"><ele>426.0</ele><time>2026-04-26T10:26:32.98Z</time></trkpt><trkpt lat="43.0764821" lon="13.3636345"><ele>426.0</ele><time>2026-04-26T10:26:33.977Z</time></trkpt><trkpt lat="43.0765932" lon="13.3637954"><ele>426.0</ele><time>2026-04-26T10:26:34.978Z</time></trkpt><trkpt lat="43.0766953" lon="13.3639355"><ele>425.75</ele><time>2026-04-26T10:26:35.981Z</time></trkpt><trkpt lat="43.0767928" lon="13.3640419"><ele>425.5</ele><time>2026-04-26T10:26:36.971Z</time></trkpt><trkpt lat="43.0769054" lon="13.3641002"><ele>425.25</ele><time>2026-04-26T10:26:37.975Z</time></trkpt><trkpt lat="43.0770416" lon="13.3640929"><ele>425.0</ele><time>2026-04-26T10:26:38.977Z</time></trkpt><trkpt lat="43.077195" lon="13.3640258"><ele>425.0</ele><time>2026-04-26T10:26:39.975Z</time></trkpt><trkpt lat="43.0773597" lon="13.3639213"><ele>425.0</ele><time>2026-04-26T10:26:40.979Z</time></trkpt><trkpt lat="43.0775415" lon="13.3638086"><ele>425.0</ele><time>2026-04-26T10:26:41.983Z</time></trkpt><trkpt lat="43.0777258" lon="13.3637035"><ele>426.0</ele><time>2026-04-26T10:26:42.977Z</time></trkpt><trkpt lat="43.0779066" lon="13.3636011"><ele>427.0</ele><time>2026-04-26T10:26:43.976Z</time></trkpt><trkpt lat="43.0780901" lon="13.3634984"><ele>428.0</ele><time>2026-04-26T10:26:44.979Z</time></trkpt><trkpt lat="43.0782742" lon="13.3634009"><ele>423.3333333333333</ele><time>2026-04-26T10:26:45.975Z</time></trkpt><trkpt lat="43.0784536" lon="13.3633229"><ele>418.66666666666663</ele><time>2026-04-26T10:26:46.979Z</time></trkpt><trkpt lat="43.0786288" lon="13.3632657"><ele>414.0</ele><time>2026-04-26T10:26:47.974Z</time></trkpt><trkpt lat="43.0787986" lon="13.36322"><ele>414.0</ele><time>2026-04-26T10:26:48.98Z</time></trkpt><trkpt lat="43.0789639" lon="13.3631671"><ele>414.0</ele><time>2026-04-26T10:26:49.976Z</time></trkpt><trkpt lat="43.0791128" lon="13.3630849"><ele>414.0</ele><time>2026-04-26T10:26:50.977Z</time></trkpt><trkpt lat="43.079239" lon="13.362989"><ele>414.25</ele><time>2026-04-26T10:26:51.981Z</time></trkpt><trkpt lat="43.0793539" lon="13.3628906"><ele>414.5</ele><time>2026-04-26T10:26:52.973Z</time></trkpt><trkpt lat="43.0794653" lon="13.3627851"><ele>414.75</ele><time>2026-04-26T10:26:53.978Z</time></trkpt><trkpt lat="43.0795842" lon="13.3626688"><ele>415.0</ele><time>2026-04-26T10:26:54.975Z</time></trkpt><trkpt lat="43.079717" lon="13.3625457"><ele>415.0</ele><time>2026-04-26T10:26:55.982Z</time></trkpt><trkpt lat="43.0798633" lon="13.3624141"><ele>415.0</ele><time>2026-04-26T10:26:56.977Z</time></trkpt><trkpt lat="43.0800219" lon="13.3622713"><ele>415.0</ele><time>2026-04-26T10:26:57.973Z</time></trkpt><trkpt lat="43.080195" lon="13.3621194"><ele>412.0</ele><time>2026-04-26T10:26:58.983Z</time></trkpt><trkpt lat="43.08038" lon="13.3619679"><ele>409.0</ele><time>2026-04-26T10:26:59.983Z</time></trkpt><trkpt lat="43.0805751" lon="13.3618177"><ele>406.0</ele><time>2026-04-26T10:27:00.967Z</time></trkpt><trkpt lat="43.080778" lon="13.3616708"><ele>405.33333333333337</ele><time>2026-04-26T10:27:01.971Z</time></trkpt><trkpt lat="43.080979" lon="13.3615265"><ele>404.66666666666663</ele><time>2026-04-26T10:27:02.975Z</time></trkpt><trkpt lat="43.0811767" lon="13.3613905"><ele>404.0</ele><time>2026-04-26T10:27:03.968Z</time></trkpt><trkpt lat="43.0813684" lon="13.361268"><ele>404.0</ele><time>2026-04-26T10:27:04.976Z</time></trkpt><trkpt lat="43.0815555" lon="13.3611531"><ele>404.0</ele><time>2026-04-26T10:27:05.972Z</time></trkpt><trkpt lat="43.0817397" lon="13.3610491"><ele>404.0</ele><time>2026-04-26T10:27:06.996Z</time></trkpt><trkpt lat="43.081915" lon="13.3609482"><ele>398.0</ele><time>2026-04-26T10:27:07.983Z</time></trkpt><trkpt lat="43.0820846" lon="13.3608648"><ele>392.0</ele><time>2026-04-26T10:27:08.98Z</time></trkpt><trkpt lat="43.0822403" lon="13.3608088"><ele>386.0</ele><time>2026-04-26T10:27:09.979Z</time></trkpt><trkpt lat="43.0823822" lon="13.3607813"><ele>383.6</ele><time>2026-04-26T10:27:10.98Z</time></trkpt><trkpt lat="43.0825009" lon="13.3607872"><ele>381.20000000000005</ele><time>2026-04-26T10:27:11.984Z</time></trkpt><trkpt lat="43.0825963" lon="13.3608411"><ele>378.79999999999995</ele><time>2026-04-26T10:27:12.979Z</time></trkpt><trkpt lat="43.0826592" lon="13.3609546"><ele>376.4</ele><time>2026-04-26T10:27:13.979Z</time></trkpt><trkpt lat="43.0826679" lon="13.3611218"><ele>374.0</ele><time>2026-04-26T10:27:14.988Z</time></trkpt><trkpt lat="43.082624" lon="13.3613247"><ele>372.75</ele><time>2026-04-26T10:27:15.983Z</time></trkpt><trkpt lat="43.0825601" lon="13.3615113"><ele>371.5</ele><time>2026-04-26T10:27:16.982Z</time></trkpt><trkpt lat="43.0825098" lon="13.3616846"><ele>370.25</ele><time>2026-04-26T10:27:17.978Z</time></trkpt><trkpt lat="43.0824875" lon="13.3618431"><ele>369.0</ele><time>2026-04-26T10:27:18.98Z</time></trkpt><trkpt lat="43.0825001" lon="13.3619839"><ele>369.0</ele><time>2026-04-26T10:27:19.979Z</time></trkpt><trkpt lat="43.0825583" lon="13.3620918"><ele>369.0</ele><time>2026-04-26T10:27:20.976Z</time></trkpt><trkpt lat="43.0826594" lon="13.3621537"><ele>369.0</ele><time>2026-04-26T10:27:21.978Z</time></trkpt><trkpt lat="43.0828003" lon="13.3621557"><ele>369.0</ele><time>2026-04-26T10:27:22.974Z</time></trkpt><trkpt lat="43.0829622" lon="13.3620997"><ele>369.0</ele><time>2026-04-26T10:27:23.979Z</time></trkpt><trkpt lat="43.08314" lon="13.362021"><ele>369.0</ele><time>2026-04-26T10:27:24.981Z</time></trkpt><trkpt lat="43.0833273" lon="13.3619147"><ele>369.0</ele><time>2026-04-26T10:27:25.98Z</time></trkpt><trkpt lat="43.0835074" lon="13.3618131"><ele>369.0</ele><time>2026-04-26T10:27:26.974Z</time></trkpt><trkpt lat="43.0836723" lon="13.3617246"><ele>369.0</ele><time>2026-04-26T10:27:27.98Z</time></trkpt><trkpt lat="43.083819" lon="13.3616423"><ele>369.0</ele><time>2026-04-26T10:27:28.981Z</time></trkpt><trkpt lat="43.0839526" lon="13.3615643"><ele>369.0</ele><time>2026-04-26T10:27:29.973Z</time></trkpt><trkpt lat="43.0840691" lon="13.3614647"><ele>369.0</ele><time>2026-04-26T10:27:30.978Z</time></trkpt><trkpt lat="43.08416" lon="13.3613117"><ele>369.0</ele><time>2026-04-26T10:27:31.98Z</time></trkpt><trkpt lat="43.0842109" lon="13.3611445"><ele>369.0</ele><time>2026-04-26T10:27:32.973Z</time></trkpt><trkpt lat="43.0842411" lon="13.3610088"><ele>366.2</ele><time>2026-04-26T10:27:33.985Z</time></trkpt><trkpt lat="43.0842654" lon="13.3608952"><ele>363.4</ele><time>2026-04-26T10:27:34.975Z</time></trkpt><trkpt lat="43.0842889" lon="13.3608058"><ele>360.6</ele><time>2026-04-26T10:27:35.978Z</time></trkpt><trkpt lat="43.0843157" lon="13.3606714"><ele>357.8</ele><time>2026-04-26T10:27:37.977Z</time></trkpt><trkpt lat="43.0842644" lon="13.3604991"><ele>355.0</ele><time>2026-04-26T10:28:04.986Z</time></trkpt><trkpt lat="43.0842042" lon="13.3604065"><ele>355.0</ele><time>2026-04-26T10:28:06.978Z</time></trkpt><trkpt lat="43.084164" lon="13.3603189"><ele>355.0</ele><time>2026-04-26T10:28:07.976Z</time></trkpt><trkpt lat="43.0841129" lon="13.3601992"><ele>355.0</ele><time>2026-04-26T10:28:08.972Z</time></trkpt><trkpt lat="43.0840757" lon="13.360047"><ele>355.0</ele><time>2026-04-26T10:28:09.972Z</time></trkpt><trkpt lat="43.0840387" lon="13.3598736"><ele>355.0</ele><time>2026-04-26T10:28:10.967Z</time></trkpt><trkpt lat="43.0840219" lon="13.35967"><ele>355.0</ele><time>2026-04-26T10:28:11.979Z</time></trkpt><trkpt lat="43.0839983" lon="13.3594807"><ele>355.0</ele><time>2026-04-26T10:28:12.982Z</time></trkpt><trkpt lat="43.083979" lon="13.3593195"><ele>355.0</ele><time>2026-04-26T10:28:13.98Z</time></trkpt><trkpt lat="43.0839404" lon="13.3591843"><ele>355.0</ele><time>2026-04-26T10:28:14.988Z</time></trkpt><trkpt lat="43.0839051" lon="13.3590694"><ele>355.0</ele><time>2026-04-26T10:28:15.973Z</time></trkpt><trkpt lat="43.0838442" lon="13.3589451"><ele>355.0</ele><time>2026-04-26T10:28:16.974Z</time></trkpt><trkpt lat="43.0837792" lon="13.3588166"><ele>355.0</ele><time>2026-04-26T10:28:17.973Z</time></trkpt><trkpt lat="43.0837172" lon="13.358679"><ele>355.0</ele><time>2026-04-26T10:28:18.974Z</time></trkpt><trkpt lat="43.0836529" lon="13.3585193"><ele>358.0</ele><time>2026-04-26T10:28:19.975Z</time></trkpt><trkpt lat="43.0835822" lon="13.3583394"><ele>361.0</ele><time>2026-04-26T10:28:20.975Z</time></trkpt><trkpt lat="43.0835164" lon="13.3581784"><ele>364.0</ele><time>2026-04-26T10:28:21.974Z</time></trkpt><trkpt lat="43.0834569" lon="13.3580227"><ele>367.0</ele><time>2026-04-26T10:28:22.972Z</time></trkpt><trkpt lat="43.0834069" lon="13.3578452"><ele>369.25</ele><time>2026-04-26T10:28:23.971Z</time></trkpt><trkpt lat="43.0833693" lon="13.3576628"><ele>371.5</ele><time>2026-04-26T10:28:24.979Z</time></trkpt><trkpt lat="43.0833492" lon="13.3574728"><ele>373.75</ele><time>2026-04-26T10:28:25.987Z</time></trkpt><trkpt lat="43.0833224" lon="13.357267"><ele>376.0</ele><time>2026-04-26T10:28:26.981Z</time></trkpt><trkpt lat="43.0832881" lon="13.3570661"><ele>378.75</ele><time>2026-04-26T10:28:27.971Z</time></trkpt><trkpt lat="43.0832528" lon="13.3568611"><ele>381.5</ele><time>2026-04-26T10:28:28.978Z</time></trkpt><trkpt lat="43.0832342" lon="13.3566582"><ele>384.25</ele><time>2026-04-26T10:28:29.976Z</time></trkpt><trkpt lat="43.0832136" lon="13.3564672"><ele>387.0</ele><time>2026-04-26T10:28:30.971Z</time></trkpt><trkpt lat="43.0832011" lon="13.3562911"><ele>388.6</ele><time>2026-04-26T10:28:31.971Z</time></trkpt><trkpt lat="43.0831758" lon="13.3561421"><ele>390.20000000000005</ele><time>2026-04-26T10:28:32.98Z</time></trkpt><trkpt lat="43.083151" lon="13.356011"><ele>391.8</ele><time>2026-04-26T10:28:33.986Z</time></trkpt><trkpt lat="43.0831282" lon="13.3559174"><ele>393.4</ele><time>2026-04-26T10:28:34.978Z</time></trkpt><trkpt lat="43.0831082" lon="13.3558349"><ele>395.0</ele><time>2026-04-26T10:28:35.976Z</time></trkpt><trkpt lat="43.0830149" lon="13.3557284"><ele>394.99999999999994</ele><time>2026-04-26T10:28:37.975Z</time></trkpt><trkpt lat="43.0829522" lon="13.3557088"><ele>395.0</ele><time>2026-04-26T10:28:38.979Z</time></trkpt><trkpt lat="43.082887" lon="13.3556855"><ele>395.0</ele><time>2026-04-26T10:28:39.983Z</time></trkpt><trkpt lat="43.082809" lon="13.3556511"><ele>395.0</ele><time>2026-04-26T10:28:40.979Z</time></trkpt><trkpt lat="43.0827315" lon="13.3556205"><ele>394.99999999999994</ele><time>2026-04-26T10:28:41.975Z</time></trkpt><trkpt lat="43.0826582" lon="13.3555402"><ele>395.0</ele><time>2026-04-26T10:28:42.986Z</time></trkpt><trkpt lat="43.0825752" lon="13.3554621"><ele>395.25</ele><time>2026-04-26T10:28:43.979Z</time></trkpt><trkpt lat="43.0825003" lon="13.3553434"><ele>395.5</ele><time>2026-04-26T10:28:44.972Z</time></trkpt><trkpt lat="43.0824235" lon="13.3552079"><ele>395.75</ele><time>2026-04-26T10:28:45.981Z</time></trkpt><trkpt lat="43.0823446" lon="13.3550589"><ele>396.0</ele><time>2026-04-26T10:28:46.974Z</time></trkpt><trkpt lat="43.0822611" lon="13.3548982"><ele>399.25</ele><time>2026-04-26T10:28:47.989Z</time></trkpt><trkpt lat="43.0821776" lon="13.3547371"><ele>402.5</ele><time>2026-04-26T10:28:48.977Z</time></trkpt><trkpt lat="43.0821001" lon="13.3545699"><ele>405.75</ele><time>2026-04-26T10:28:49.982Z</time></trkpt><trkpt lat="43.0820327" lon="13.3544067"><ele>409.0</ele><time>2026-04-26T10:28:50.981Z</time></trkpt><trkpt lat="43.0819892" lon="13.3542534"><ele>412.75</ele><time>2026-04-26T10:28:51.979Z</time></trkpt><trkpt lat="43.0819627" lon="13.3541013"><ele>416.5</ele><time>2026-04-26T10:28:52.971Z</time></trkpt><trkpt lat="43.0819587" lon="13.3539322"><ele>420.25</ele><time>2026-04-26T10:28:53.98Z</time></trkpt><trkpt lat="43.0819604" lon="13.3537696"><ele>424.0</ele><time>2026-04-26T10:28:54.975Z</time></trkpt><trkpt lat="43.0819664" lon="13.3536097"><ele>426.2</ele><time>2026-04-26T10:28:55.981Z</time></trkpt><trkpt lat="43.081963" lon="13.3534319"><ele>428.4</ele><time>2026-04-26T10:28:56.973Z</time></trkpt><trkpt lat="43.0819675" lon="13.3532931"><ele>430.6</ele><time>2026-04-26T10:28:57.984Z</time></trkpt><trkpt lat="43.0819759" lon="13.3531768"><ele>432.8</ele><time>2026-04-26T10:28:58.974Z</time></trkpt><trkpt lat="43.0819564" lon="13.3530798"><ele>435.0</ele><time>2026-04-26T10:28:59.97Z</time></trkpt><trkpt lat="43.0818973" lon="13.3530027"><ele>435.0</ele><time>2026-04-26T10:29:01.974Z</time></trkpt><trkpt lat="43.0817888" lon="13.353006"><ele>435.0</ele><time>2026-04-26T10:29:03.977Z</time></trkpt><trkpt lat="43.0817115" lon="13.3530319"><ele>435.0</ele><time>2026-04-26T10:29:04.975Z</time></trkpt><trkpt lat="43.0816254" lon="13.3530642"><ele>435.0</ele><time>2026-04-26T10:29:05.983Z</time></trkpt><trkpt lat="43.0815219" lon="13.3530986"><ele>435.0</ele><time>2026-04-26T10:29:06.974Z</time></trkpt><trkpt lat="43.0814143" lon="13.3531414"><ele>439.0</ele><time>2026-04-26T10:29:07.973Z</time></trkpt><trkpt lat="43.0813012" lon="13.3532135"><ele>443.0</ele><time>2026-04-26T10:29:08.974Z</time></trkpt><trkpt lat="43.0811643" lon="13.3532404"><ele>447.0</ele><time>2026-04-26T10:29:09.977Z</time></trkpt><trkpt lat="43.0810295" lon="13.3532794"><ele>451.0</ele><time>2026-04-26T10:29:10.973Z</time></trkpt><trkpt lat="43.0809005" lon="13.3533285"><ele>451.0</ele><time>2026-04-26T10:29:11.975Z</time></trkpt><trkpt lat="43.0807815" lon="13.3533863"><ele>451.0</ele><time>2026-04-26T10:29:12.975Z</time></trkpt><trkpt lat="43.0806766" lon="13.3534606"><ele>451.0</ele><time>2026-04-26T10:29:13.983Z</time></trkpt><trkpt lat="43.0805871" lon="13.3535344"><ele>451.0</ele><time>2026-04-26T10:29:14.977Z</time></trkpt><trkpt lat="43.0805139" lon="13.353587"><ele>451.0</ele><time>2026-04-26T10:29:15.969Z</time></trkpt><trkpt lat="43.0804442" lon="13.3536107"><ele>452.6</ele><time>2026-04-26T10:29:16.981Z</time></trkpt><trkpt lat="43.0803297" lon="13.3535519"><ele>454.20000000000005</ele><time>2026-04-26T10:29:18.97Z</time></trkpt><trkpt lat="43.0802935" lon="13.3534679"><ele>455.79999999999995</ele><time>2026-04-26T10:29:19.99Z</time></trkpt><trkpt lat="43.0802672" lon="13.3533606"><ele>457.4</ele><time>2026-04-26T10:29:20.983Z</time></trkpt><trkpt lat="43.0802508" lon="13.3532449"><ele>459.0</ele><time>2026-04-26T10:29:21.979Z</time></trkpt><trkpt lat="43.0802548" lon="13.3531145"><ele>462.5</ele><time>2026-04-26T10:29:22.978Z</time></trkpt><trkpt lat="43.0802477" lon="13.3529789"><ele>466.0</ele><time>2026-04-26T10:29:23.983Z</time></trkpt><trkpt lat="43.0802709" lon="13.352832"><ele>469.5</ele><time>2026-04-26T10:29:24.975Z</time></trkpt><trkpt lat="43.0802907" lon="13.352672"><ele>473.0</ele><time>2026-04-26T10:29:25.975Z</time></trkpt><trkpt lat="43.0803101" lon="13.3524972"><ele>473.0</ele><time>2026-04-26T10:29:26.978Z</time></trkpt><trkpt lat="43.0803137" lon="13.3523249"><ele>473.0</ele><time>2026-04-26T10:29:27.987Z</time></trkpt><trkpt lat="43.0803287" lon="13.352151"><ele>473.0</ele><time>2026-04-26T10:29:28.982Z</time></trkpt><trkpt lat="43.0803296" lon="13.351975"><ele>473.0</ele><time>2026-04-26T10:29:29.982Z</time></trkpt><trkpt lat="43.08031" lon="13.3518051"><ele>475.75</ele><time>2026-04-26T10:29:30.978Z</time></trkpt><trkpt lat="43.0802893" lon="13.3516281"><ele>478.5</ele><time>2026-04-26T10:29:31.977Z</time></trkpt><trkpt lat="43.0802656" lon="13.3514524"><ele>481.25</ele><time>2026-04-26T10:29:32.977Z</time></trkpt><trkpt lat="43.0802448" lon="13.351276"><ele>484.0</ele><time>2026-04-26T10:29:33.986Z</time></trkpt><trkpt lat="43.0802192" lon="13.3510962"><ele>486.0</ele><time>2026-04-26T10:29:34.982Z</time></trkpt><trkpt lat="43.0801877" lon="13.3509127"><ele>488.0</ele><time>2026-04-26T10:29:35.978Z</time></trkpt><trkpt lat="43.0801575" lon="13.3507239"><ele>490.0</ele><time>2026-04-26T10:29:36.979Z</time></trkpt><trkpt lat="43.080128" lon="13.3505327"><ele>492.0</ele><time>2026-04-26T10:29:37.979Z</time></trkpt><trkpt lat="43.0800961" lon="13.350339"><ele>493.8</ele><time>2026-04-26T10:29:38.976Z</time></trkpt><trkpt lat="43.0800689" lon="13.3501471"><ele>495.6</ele><time>2026-04-26T10:29:39.979Z</time></trkpt><trkpt lat="43.0800431" lon="13.3499864"><ele>497.40000000000003</ele><time>2026-04-26T10:29:40.985Z</time></trkpt><trkpt lat="43.0800251" lon="13.3498533"><ele>499.20000000000005</ele><time>2026-04-26T10:29:41.981Z</time></trkpt><trkpt lat="43.0800095" lon="13.3497488"><ele>501.0</ele><time>2026-04-26T10:29:42.977Z</time></trkpt><trkpt lat="43.0799945" lon="13.3496534"><ele>501.0</ele><time>2026-04-26T10:29:43.979Z</time></trkpt><trkpt lat="43.079978" lon="13.3495548"><ele>501.0</ele><time>2026-04-26T10:29:44.98Z</time></trkpt><trkpt lat="43.0799517" lon="13.3494646"><ele>501.0</ele><time>2026-04-26T10:29:45.977Z</time></trkpt><trkpt lat="43.0799114" lon="13.3493783"><ele>501.0</ele><time>2026-04-26T10:29:46.98Z</time></trkpt><trkpt lat="43.0798571" lon="13.3492763"><ele>501.0</ele><time>2026-04-26T10:29:47.987Z</time></trkpt><trkpt lat="43.0797921" lon="13.3491549"><ele>501.0</ele><time>2026-04-26T10:29:48.981Z</time></trkpt><trkpt lat="43.0797276" lon="13.3490326"><ele>503.75</ele><time>2026-04-26T10:29:49.976Z</time></trkpt><trkpt lat="43.0796568" lon="13.3489016"><ele>506.5</ele><time>2026-04-26T10:29:50.979Z</time></trkpt><trkpt lat="43.0795783" lon="13.3487645"><ele>509.25</ele><time>2026-04-26T10:29:51.98Z</time></trkpt><trkpt lat="43.0795021" lon="13.3486193"><ele>512.0</ele><time>2026-04-26T10:29:52.978Z</time></trkpt><trkpt lat="43.079441" lon="13.3484594"><ele>513.0</ele><time>2026-04-26T10:29:53.977Z</time></trkpt><trkpt lat="43.0793987" lon="13.3482814"><ele>514.0</ele><time>2026-04-26T10:29:54.986Z</time></trkpt><trkpt lat="43.0793659" lon="13.3480884"><ele>515.0</ele><time>2026-04-26T10:29:55.98Z</time></trkpt><trkpt lat="43.0793358" lon="13.3478882"><ele>516.0</ele><time>2026-04-26T10:29:56.99Z</time></trkpt><trkpt lat="43.079309" lon="13.3477145"><ele>517.4</ele><time>2026-04-26T10:29:57.982Z</time></trkpt><trkpt lat="43.0792805" lon="13.3475702"><ele>518.8</ele><time>2026-04-26T10:29:58.979Z</time></trkpt><trkpt lat="43.0792377" lon="13.347445"><ele>520.1999999999999</ele><time>2026-04-26T10:29:59.973Z</time></trkpt><trkpt lat="43.0791708" lon="13.3473293"><ele>521.6</ele><time>2026-04-26T10:30:00.98Z</time></trkpt><trkpt lat="43.0790886" lon="13.3472098"><ele>523.0</ele><time>2026-04-26T10:30:01.978Z</time></trkpt><trkpt lat="43.078994" lon="13.3470722"><ele>525.6666666666667</ele><time>2026-04-26T10:30:02.979Z</time></trkpt><trkpt lat="43.0788824" lon="13.3469207"><ele>528.3333333333334</ele><time>2026-04-26T10:30:03.975Z</time></trkpt><trkpt lat="43.078761" lon="13.3467584"><ele>531.0</ele><time>2026-04-26T10:30:04.972Z</time></trkpt><trkpt lat="43.0786292" lon="13.3465823"><ele>531.0</ele><time>2026-04-26T10:30:05.976Z</time></trkpt><trkpt lat="43.0784915" lon="13.3463977"><ele>531.0</ele><time>2026-04-26T10:30:06.971Z</time></trkpt><trkpt lat="43.0783623" lon="13.3462319"><ele>531.0</ele><time>2026-04-26T10:30:07.968Z</time></trkpt><trkpt lat="43.0782457" lon="13.3460835"><ele>534.25</ele><time>2026-04-26T10:30:08.971Z</time></trkpt><trkpt lat="43.0781307" lon="13.3459493"><ele>537.5</ele><time>2026-04-26T10:30:09.97Z</time></trkpt><trkpt lat="43.0780154" lon="13.3458299"><ele>540.75</ele><time>2026-04-26T10:30:11.006Z</time></trkpt><trkpt lat="43.0779042" lon="13.3457138"><ele>544.0</ele><time>2026-04-26T10:30:11.984Z</time></trkpt><trkpt lat="43.0777966" lon="13.34561"><ele>544.75</ele><time>2026-04-26T10:30:12.976Z</time></trkpt><trkpt lat="43.0776869" lon="13.3455222"><ele>545.5</ele><time>2026-04-26T10:30:13.981Z</time></trkpt><trkpt lat="43.0775888" lon="13.3454331"><ele>546.25</ele><time>2026-04-26T10:30:14.983Z</time></trkpt><trkpt lat="43.0774885" lon="13.3453386"><ele>547.0</ele><time>2026-04-26T10:30:15.971Z</time></trkpt><trkpt lat="43.0773786" lon="13.3452424"><ele>549.25</ele><time>2026-04-26T10:30:16.981Z</time></trkpt><trkpt lat="43.077309" lon="13.3451263"><ele>551.5</ele><time>2026-04-26T10:30:17.989Z</time></trkpt><trkpt lat="43.0772213" lon="13.3450013"><ele>553.75</ele><time>2026-04-26T10:30:18.985Z</time></trkpt><trkpt lat="43.0771319" lon="13.3448835"><ele>556.0</ele><time>2026-04-26T10:30:19.975Z</time></trkpt><trkpt lat="43.0770495" lon="13.3447734"><ele>555.8</ele><time>2026-04-26T10:30:20.975Z</time></trkpt><trkpt lat="43.0769716" lon="13.3446804"><ele>555.6</ele><time>2026-04-26T10:30:21.982Z</time></trkpt><trkpt lat="43.0769269" lon="13.3445718"><ele>555.4</ele><time>2026-04-26T10:30:22.972Z</time></trkpt><trkpt lat="43.0768752" lon="13.3444367"><ele>555.2</ele><time>2026-04-26T10:30:23.975Z</time></trkpt><trkpt lat="43.0768024" lon="13.344303"><ele>555.0</ele><time>2026-04-26T10:30:24.974Z</time></trkpt><trkpt lat="43.0767129" lon="13.3441539"><ele>555.0</ele><time>2026-04-26T10:30:25.974Z</time></trkpt><trkpt lat="43.076617" lon="13.3439988"><ele>555.0</ele><time>2026-04-26T10:30:26.974Z</time></trkpt><trkpt lat="43.0765187" lon="13.3438432"><ele>555.0</ele><time>2026-04-26T10:30:27.976Z</time></trkpt><trkpt lat="43.0764124" lon="13.3436729"><ele>555.75</ele><time>2026-04-26T10:30:28.981Z</time></trkpt><trkpt lat="43.0763192" lon="13.3435023"><ele>556.5</ele><time>2026-04-26T10:30:29.987Z</time></trkpt><trkpt lat="43.0762471" lon="13.3433293"><ele>557.25</ele><time>2026-04-26T10:30:30.999Z</time></trkpt><trkpt lat="43.076165" lon="13.3431796"><ele>558.0</ele><time>2026-04-26T10:30:31.979Z</time></trkpt><trkpt lat="43.0760782" lon="13.3430515"><ele>559.0</ele><time>2026-04-26T10:30:32.982Z</time></trkpt><trkpt lat="43.0759802" lon="13.3429638"><ele>560.0</ele><time>2026-04-26T10:30:33.979Z</time></trkpt><trkpt lat="43.0758786" lon="13.342924"><ele>561.0</ele><time>2026-04-26T10:30:34.976Z</time></trkpt><trkpt lat="43.0757617" lon="13.3428904"><ele>562.0</ele><time>2026-04-26T10:30:35.982Z</time></trkpt><trkpt lat="43.0756399" lon="13.3428601"><ele>562.0</ele><time>2026-04-26T10:30:36.983Z</time></trkpt><trkpt lat="43.0755193" lon="13.3428343"><ele>562.0</ele><time>2026-04-26T10:30:37.979Z</time></trkpt><trkpt lat="43.0753991" lon="13.3427976"><ele>562.0</ele><time>2026-04-26T10:30:38.979Z</time></trkpt><trkpt lat="43.0752728" lon="13.3427567"><ele>562.0</ele><time>2026-04-26T10:30:39.978Z</time></trkpt><trkpt lat="43.075152" lon="13.3427207"><ele>562.0</ele><time>2026-04-26T10:30:40.982Z</time></trkpt><trkpt lat="43.0750402" lon="13.342667"><ele>562.0</ele><time>2026-04-26T10:30:41.987Z</time></trkpt><trkpt lat="43.0749256" lon="13.3426064"><ele>562.0</ele><time>2026-04-26T10:30:42.979Z</time></trkpt><trkpt lat="43.0748044" lon="13.3425427"><ele>562.0</ele><time>2026-04-26T10:30:43.983Z</time></trkpt><trkpt lat="43.0746759" lon="13.342479"><ele>567.0</ele><time>2026-04-26T10:30:44.984Z</time></trkpt><trkpt lat="43.0745485" lon="13.3424169"><ele>572.0</ele><time>2026-04-26T10:30:45.987Z</time></trkpt><trkpt lat="43.0744035" lon="13.3423452"><ele>577.0</ele><time>2026-04-26T10:30:46.981Z</time></trkpt><trkpt lat="43.0742673" lon="13.3422954"><ele>582.0</ele><time>2026-04-26T10:30:47.975Z</time></trkpt><trkpt lat="43.0741432" lon="13.3422472"><ele>581.0</ele><time>2026-04-26T10:30:48.99Z</time></trkpt><trkpt lat="43.0740114" lon="13.3422106"><ele>580.0</ele><time>2026-04-26T10:30:49.977Z</time></trkpt><trkpt lat="43.0738823" lon="13.3421606"><ele>579.0</ele><time>2026-04-26T10:30:50.977Z</time></trkpt><trkpt lat="43.0737208" lon="13.3421346"><ele>578.0</ele><time>2026-04-26T10:30:51.981Z</time></trkpt><trkpt lat="43.0735562" lon="13.3420933"><ele>578.0</ele><time>2026-04-26T10:30:52.982Z</time></trkpt><trkpt lat="43.0733901" lon="13.3420468"><ele>578.0</ele><time>2026-04-26T10:30:53.978Z</time></trkpt><trkpt lat="43.0732081" lon="13.3419823"><ele>578.0</ele><time>2026-04-26T10:30:54.976Z</time></trkpt><trkpt lat="43.0730418" lon="13.3419443"><ele>582.3333333333333</ele><time>2026-04-26T10:30:55.98Z</time></trkpt><trkpt lat="43.072871" lon="13.3419106"><ele>586.6666666666666</ele><time>2026-04-26T10:30:56.987Z</time></trkpt><trkpt lat="43.0726926" lon="13.3418711"><ele>591.0</ele><time>2026-04-26T10:30:57.982Z</time></trkpt><trkpt lat="43.0725141" lon="13.3418199"><ele>595.3333333333334</ele><time>2026-04-26T10:30:58.986Z</time></trkpt><trkpt lat="43.0723454" lon="13.3417668"><ele>599.6666666666667</ele><time>2026-04-26T10:30:59.984Z</time></trkpt><trkpt lat="43.0721814" lon="13.3417153"><ele>604.0</ele><time>2026-04-26T10:31:00.986Z</time></trkpt><trkpt lat="43.0720214" lon="13.3416651"><ele>604.0</ele><time>2026-04-26T10:31:01.978Z</time></trkpt><trkpt lat="43.0718588" lon="13.3416095"><ele>604.0</ele><time>2026-04-26T10:31:02.984Z</time></trkpt><trkpt lat="43.0716966" lon="13.3415627"><ele>604.0</ele><time>2026-04-26T10:31:03.982Z</time></trkpt><trkpt lat="43.071533" lon="13.3415151"><ele>604.5</ele><time>2026-04-26T10:31:04.98Z</time></trkpt><trkpt lat="43.0713754" lon="13.34147"><ele>605.0</ele><time>2026-04-26T10:31:05.98Z</time></trkpt><trkpt lat="43.0712384" lon="13.3414284"><ele>605.5</ele><time>2026-04-26T10:31:06.983Z</time></trkpt><trkpt lat="43.0711002" lon="13.3413869"><ele>606.0</ele><time>2026-04-26T10:31:07.981Z</time></trkpt><trkpt lat="43.0709575" lon="13.341349"><ele>606.0</ele><time>2026-04-26T10:31:08.978Z</time></trkpt><trkpt lat="43.0708019" lon="13.3412986"><ele>606.0</ele><time>2026-04-26T10:31:09.977Z</time></trkpt><trkpt lat="43.070649" lon="13.3412504"><ele>606.0</ele><time>2026-04-26T10:31:10.984Z</time></trkpt><trkpt lat="43.0704836" lon="13.3411886"><ele>612.3333333333334</ele><time>2026-04-26T10:31:11.98Z</time></trkpt><trkpt lat="43.0703182" lon="13.3411106"><ele>618.6666666666667</ele><time>2026-04-26T10:31:12.986Z</time></trkpt><trkpt lat="43.0701632" lon="13.3410264"><ele>625.0</ele><time>2026-04-26T10:31:13.976Z</time></trkpt><trkpt lat="43.070013" lon="13.3409621"><ele>628.75</ele><time>2026-04-26T10:31:14.983Z</time></trkpt><trkpt lat="43.069881" lon="13.3408914"><ele>632.5</ele><time>2026-04-26T10:31:15.979Z</time></trkpt><trkpt lat="43.0697543" lon="13.3408161"><ele>636.25</ele><time>2026-04-26T10:31:16.982Z</time></trkpt><trkpt lat="43.0696326" lon="13.3407406"><ele>640.0</ele><time>2026-04-26T10:31:17.981Z</time></trkpt><trkpt lat="43.0695178" lon="13.3406474"><ele>639.25</ele><time>2026-04-26T10:31:18.978Z</time></trkpt><trkpt lat="43.0694072" lon="13.3405455"><ele>638.5</ele><time>2026-04-26T10:31:19.981Z</time></trkpt><trkpt lat="43.0693042" lon="13.3403976"><ele>637.75</ele><time>2026-04-26T10:31:20.978Z</time></trkpt><trkpt lat="43.0691905" lon="13.3402701"><ele>637.0</ele><time>2026-04-26T10:31:21.981Z</time></trkpt><trkpt lat="43.0690841" lon="13.340145"><ele>639.0</ele><time>2026-04-26T10:31:22.98Z</time></trkpt><trkpt lat="43.0689923" lon="13.3400421"><ele>641.0</ele><time>2026-04-26T10:31:23.983Z</time></trkpt><trkpt lat="43.0689115" lon="13.3399594"><ele>643.0</ele><time>2026-04-26T10:31:24.982Z</time></trkpt><trkpt lat="43.0688519" lon="13.3398873"><ele>645.0</ele><time>2026-04-26T10:31:25.974Z</time></trkpt><trkpt lat="43.0687855" lon="13.3397952"><ele>647.0</ele><time>2026-04-26T10:31:27.983Z</time></trkpt><trkpt lat="43.0688265" lon="13.3397236"><ele>647.0</ele><time>2026-04-26T10:31:54.979Z</time></trkpt><trkpt lat="43.0689356" lon="13.3397512"><ele>647.0</ele><time>2026-04-26T10:31:56.982Z</time></trkpt><trkpt lat="43.0690014" lon="13.3397285"><ele>647.0</ele><time>2026-04-26T10:31:57.979Z</time></trkpt><trkpt lat="43.0690496" lon="13.3396696"><ele>647.0</ele><time>2026-04-26T10:31:58.983Z</time></trkpt><trkpt lat="43.0690718" lon="13.3395758"><ele>647.0</ele><time>2026-04-26T10:31:59.979Z</time></trkpt><trkpt lat="43.0690595" lon="13.3394552"><ele>647.0</ele><time>2026-04-26T10:32:00.98Z</time></trkpt><trkpt lat="43.0690174" lon="13.3393112"><ele>646.25</ele><time>2026-04-26T10:32:01.983Z</time></trkpt><trkpt lat="43.0689612" lon="13.3391405"><ele>645.5</ele><time>2026-04-26T10:32:02.982Z</time></trkpt><trkpt lat="43.0689034" lon="13.3389682"><ele>644.75</ele><time>2026-04-26T10:32:03.981Z</time></trkpt><trkpt lat="43.0688489" lon="13.3387977"><ele>644.0</ele><time>2026-04-26T10:32:04.978Z</time></trkpt><trkpt lat="43.0687991" lon="13.3386399"><ele>641.75</ele><time>2026-04-26T10:32:05.975Z</time></trkpt><trkpt lat="43.0687489" lon="13.3384882"><ele>639.5</ele><time>2026-04-26T10:32:06.973Z</time></trkpt><trkpt lat="43.0686839" lon="13.3383393"><ele>637.25</ele><time>2026-04-26T10:32:07.979Z</time></trkpt><trkpt lat="43.068614" lon="13.3381911"><ele>635.0</ele><time>2026-04-26T10:32:08.97Z</time></trkpt><trkpt lat="43.0685432" lon="13.3380509"><ele>631.5</ele><time>2026-04-26T10:32:10.01Z</time></trkpt><trkpt lat="43.0684711" lon="13.3379028"><ele>628.0</ele><time>2026-04-26T10:32:10.984Z</time></trkpt><trkpt lat="43.0684202" lon="13.337725"><ele>624.5</ele><time>2026-04-26T10:32:11.976Z</time></trkpt><trkpt lat="43.0683653" lon="13.3375267"><ele>621.0</ele><time>2026-04-26T10:32:12.975Z</time></trkpt><trkpt lat="43.0683245" lon="13.3372846"><ele>622.3333333333334</ele><time>2026-04-26T10:32:13.974Z</time></trkpt><trkpt lat="43.0682678" lon="13.3370421"><ele>623.6666666666667</ele><time>2026-04-26T10:32:14.988Z</time></trkpt><trkpt lat="43.0682052" lon="13.3367946"><ele>625.0</ele><time>2026-04-26T10:32:15.978Z</time></trkpt><trkpt lat="43.0681271" lon="13.336564"><ele>620.3333333333334</ele><time>2026-04-26T10:32:16.978Z</time></trkpt><trkpt lat="43.0680359" lon="13.3363419"><ele>615.6666666666666</ele><time>2026-04-26T10:32:17.978Z</time></trkpt><trkpt lat="43.0679558" lon="13.3361256"><ele>611.0</ele><time>2026-04-26T10:32:18.977Z</time></trkpt><trkpt lat="43.0678815" lon="13.3359215"><ele>611.0</ele><time>2026-04-26T10:32:19.98Z</time></trkpt><trkpt lat="43.0678108" lon="13.3357508"><ele>611.0</ele><time>2026-04-26T10:32:20.974Z</time></trkpt><trkpt lat="43.0677395" lon="13.3355962"><ele>611.0</ele><time>2026-04-26T10:32:21.972Z</time></trkpt><trkpt lat="43.0676649" lon="13.3354661"><ele>611.0</ele><time>2026-04-26T10:32:22.972Z</time></trkpt><trkpt lat="43.0675885" lon="13.3353592"><ele>607.8</ele><time>2026-04-26T10:32:23.976Z</time></trkpt><trkpt lat="43.067544" lon="13.3352443"><ele>604.6</ele><time>2026-04-26T10:32:24.979Z</time></trkpt><trkpt lat="43.0675371" lon="13.3351285"><ele>601.4</ele><time>2026-04-26T10:32:25.98Z</time></trkpt><trkpt lat="43.0676036" lon="13.3350229"><ele>598.2</ele><time>2026-04-26T10:32:26.976Z</time></trkpt><trkpt lat="43.0677201" lon="13.3349383"><ele>595.0</ele><time>2026-04-26T10:32:27.982Z</time></trkpt><trkpt lat="43.0678676" lon="13.3348579"><ele>595.0</ele><time>2026-04-26T10:32:28.981Z</time></trkpt><trkpt lat="43.0680383" lon="13.3347689"><ele>595.0</ele><time>2026-04-26T10:32:29.983Z</time></trkpt><trkpt lat="43.0682206" lon="13.3346757"><ele>595.0</ele><time>2026-04-26T10:32:30.984Z</time></trkpt><trkpt lat="43.0683981" lon="13.3345726"><ele>591.3333333333334</ele><time>2026-04-26T10:32:31.976Z</time></trkpt><trkpt lat="43.0685666" lon="13.3344532"><ele>587.6666666666666</ele><time>2026-04-26T10:32:32.984Z</time></trkpt><trkpt lat="43.0687236" lon="13.3343132"><ele>584.0</ele><time>2026-04-26T10:32:33.976Z</time></trkpt><trkpt lat="43.0688648" lon="13.3341523"><ele>584.0</ele><time>2026-04-26T10:32:34.979Z</time></trkpt><trkpt lat="43.0689987" lon="13.3339868"><ele>584.0</ele><time>2026-04-26T10:32:35.987Z</time></trkpt><trkpt lat="43.0691359" lon="13.3338262"><ele>584.0</ele><time>2026-04-26T10:32:36.985Z</time></trkpt><trkpt lat="43.0692602" lon="13.3336603"><ele>582.0</ele><time>2026-04-26T10:32:37.983Z</time></trkpt><trkpt lat="43.0693838" lon="13.3335012"><ele>580.0</ele><time>2026-04-26T10:32:38.977Z</time></trkpt><trkpt lat="43.0695075" lon="13.3333514"><ele>578.0</ele><time>2026-04-26T10:32:39.976Z</time></trkpt><trkpt lat="43.0696276" lon="13.3332084"><ele>578.0</ele><time>2026-04-26T10:32:40.977Z</time></trkpt><trkpt lat="43.0697308" lon="13.3330824"><ele>578.0</ele><time>2026-04-26T10:32:41.981Z</time></trkpt><trkpt lat="43.0698025" lon="13.3329742"><ele>578.0</ele><time>2026-04-26T10:32:42.979Z</time></trkpt><trkpt lat="43.0698358" lon="13.3328702"><ele>578.0</ele><time>2026-04-26T10:32:43.978Z</time></trkpt><trkpt lat="43.0698466" lon="13.3327607"><ele>578.0</ele><time>2026-04-26T10:32:44.978Z</time></trkpt><trkpt lat="43.0697776" lon="13.3326762"><ele>574.0</ele><time>2026-04-26T10:32:45.973Z</time></trkpt><trkpt lat="43.0696734" lon="13.3325974"><ele>570.0</ele><time>2026-04-26T10:32:46.983Z</time></trkpt><trkpt lat="43.0695243" lon="13.3325124"><ele>566.0</ele><time>2026-04-26T10:32:47.979Z</time></trkpt><trkpt lat="43.069369" lon="13.332418"><ele>566.0</ele><time>2026-04-26T10:32:48.993Z</time></trkpt><trkpt lat="43.0692169" lon="13.3323267"><ele>566.0</ele><time>2026-04-26T10:32:49.978Z</time></trkpt><trkpt lat="43.0690708" lon="13.3322375"><ele>566.0</ele><time>2026-04-26T10:32:50.987Z</time></trkpt><trkpt lat="43.068931" lon="13.3321506"><ele>562.25</ele><time>2026-04-26T10:32:51.977Z</time></trkpt><trkpt lat="43.0687915" lon="13.3320661"><ele>558.5</ele><time>2026-04-26T10:32:52.977Z</time></trkpt><trkpt lat="43.0686534" lon="13.3319826"><ele>554.75</ele><time>2026-04-26T10:32:53.978Z</time></trkpt><trkpt lat="43.0685243" lon="13.3319062"><ele>551.0</ele><time>2026-04-26T10:32:54.979Z</time></trkpt><trkpt lat="43.0684087" lon="13.3318434"><ele>551.0</ele><time>2026-04-26T10:32:55.983Z</time></trkpt><trkpt lat="43.0683141" lon="13.3317898"><ele>551.0</ele><time>2026-04-26T10:32:56.984Z</time></trkpt><trkpt lat="43.0682378" lon="13.3317366"><ele>551.0</ele><time>2026-04-26T10:32:57.971Z</time></trkpt><trkpt lat="43.0681922" lon="13.3316628"><ele>551.0</ele><time>2026-04-26T10:32:58.979Z</time></trkpt><trkpt lat="43.068214" lon="13.3314896"><ele>551.0</ele><time>2026-04-26T10:33:00.977Z</time></trkpt><trkpt lat="43.0683016" lon="13.3314527"><ele>551.0</ele><time>2026-04-26T10:33:01.976Z</time></trkpt><trkpt lat="43.0684273" lon="13.3314113"><ele>551.0</ele><time>2026-04-26T10:33:02.979Z</time></trkpt><trkpt lat="43.0685699" lon="13.331356"><ele>551.0</ele><time>2026-04-26T10:33:03.98Z</time></trkpt><trkpt lat="43.0687183" lon="13.3312644"><ele>551.0</ele><time>2026-04-26T10:33:04.978Z</time></trkpt><trkpt lat="43.0688677" lon="13.3311507"><ele>545.6666666666666</ele><time>2026-04-26T10:33:05.971Z</time></trkpt><trkpt lat="43.0690223" lon="13.3310304"><ele>540.3333333333334</ele><time>2026-04-26T10:33:06.976Z</time></trkpt><trkpt lat="43.0691724" lon="13.3309128"><ele>535.0</ele><time>2026-04-26T10:33:07.982Z</time></trkpt><trkpt lat="43.0693161" lon="13.330795"><ele>535.0</ele><time>2026-04-26T10:33:08.977Z</time></trkpt><trkpt lat="43.0694554" lon="13.3306794"><ele>535.0</ele><time>2026-04-26T10:33:09.977Z</time></trkpt><trkpt lat="43.0695914" lon="13.3305791"><ele>535.0</ele><time>2026-04-26T10:33:10.971Z</time></trkpt><trkpt lat="43.0697312" lon="13.3305208"><ele>534.5</ele><time>2026-04-26T10:33:11.977Z</time></trkpt><trkpt lat="43.0698704" lon="13.3305096"><ele>534.0</ele><time>2026-04-26T10:33:12.976Z</time></trkpt><trkpt lat="43.0700041" lon="13.3305262"><ele>533.5</ele><time>2026-04-26T10:33:13.972Z</time></trkpt><trkpt lat="43.0701235" lon="13.3305575"><ele>533.0</ele><time>2026-04-26T10:33:14.981Z</time></trkpt><trkpt lat="43.0702267" lon="13.3305835"><ele>533.0</ele><time>2026-04-26T10:33:15.972Z</time></trkpt><trkpt lat="43.0703164" lon="13.3305802"><ele>533.0</ele><time>2026-04-26T10:33:16.971Z</time></trkpt><trkpt lat="43.0703941" lon="13.3305385"><ele>533.0</ele><time>2026-04-26T10:33:17.973Z</time></trkpt><trkpt lat="43.0704474" lon="13.3304485"><ele>533.0</ele><time>2026-04-26T10:33:18.979Z</time></trkpt><trkpt lat="43.0704741" lon="13.33032"><ele>533.0</ele><time>2026-04-26T10:33:19.98Z</time></trkpt><trkpt lat="43.0704905" lon="13.3301807"><ele>531.1999999999999</ele><time>2026-04-26T10:33:20.97Z</time></trkpt><trkpt lat="43.0704861" lon="13.3300403"><ele>529.4</ele><time>2026-04-26T10:33:21.973Z</time></trkpt><trkpt lat="43.0704572" lon="13.3299124"><ele>527.5999999999999</ele><time>2026-04-26T10:33:22.974Z</time></trkpt><trkpt lat="43.0703901" lon="13.3298185"><ele>525.8</ele><time>2026-04-26T10:33:23.975Z</time></trkpt><trkpt lat="43.070312" lon="13.3297425"><ele>524.0</ele><time>2026-04-26T10:33:24.969Z</time></trkpt><trkpt lat="43.0702278" lon="13.3296787"><ele>522.2</ele><time>2026-04-26T10:33:25.98Z</time></trkpt><trkpt lat="43.0701485" lon="13.3295878"><ele>520.4</ele><time>2026-04-26T10:33:26.981Z</time></trkpt><trkpt lat="43.0700941" lon="13.3294701"><ele>518.6</ele><time>2026-04-26T10:33:27.974Z</time></trkpt><trkpt lat="43.0700771" lon="13.3293287"><ele>516.8</ele><time>2026-04-26T10:33:28.972Z</time></trkpt><trkpt lat="43.0700794" lon="13.3291621"><ele>515.0</ele><time>2026-04-26T10:33:29.979Z</time></trkpt><trkpt lat="43.0700885" lon="13.3289763"><ele>513.0</ele><time>2026-04-26T10:33:30.976Z</time></trkpt><trkpt lat="43.0700998" lon="13.3287737"><ele>511.0</ele><time>2026-04-26T10:33:31.976Z</time></trkpt><trkpt lat="43.0701126" lon="13.3285567"><ele>509.0</ele><time>2026-04-26T10:33:32.981Z</time></trkpt><trkpt lat="43.0701224" lon="13.3283406"><ele>509.0</ele><time>2026-04-26T10:33:33.978Z</time></trkpt><trkpt lat="43.0701304" lon="13.3281328"><ele>509.0</ele><time>2026-04-26T10:33:34.982Z</time></trkpt><trkpt lat="43.0701353" lon="13.3279285"><ele>509.0</ele><time>2026-04-26T10:33:35.981Z</time></trkpt><trkpt lat="43.0701216" lon="13.327727"><ele>509.0</ele><time>2026-04-26T10:33:36.98Z</time></trkpt><trkpt lat="43.0701123" lon="13.3275349"><ele>507.2</ele><time>2026-04-26T10:33:37.978Z</time></trkpt><trkpt lat="43.070094" lon="13.3273643"><ele>505.4</ele><time>2026-04-26T10:33:38.988Z</time></trkpt><trkpt lat="43.0700826" lon="13.3272156"><ele>503.6</ele><time>2026-04-26T10:33:39.98Z</time></trkpt><trkpt lat="43.0700796" lon="13.3270908"><ele>501.8</ele><time>2026-04-26T10:33:40.983Z</time></trkpt><trkpt lat="43.0701034" lon="13.3269918"><ele>500.0</ele><time>2026-04-26T10:33:41.983Z</time></trkpt><trkpt lat="43.0701712" lon="13.3269262"><ele>497.25</ele><time>2026-04-26T10:33:42.979Z</time></trkpt><trkpt lat="43.070267" lon="13.3269214"><ele>494.5</ele><time>2026-04-26T10:33:43.974Z</time></trkpt><trkpt lat="43.0703816" lon="13.3269405"><ele>491.75</ele><time>2026-04-26T10:33:44.982Z</time></trkpt><trkpt lat="43.0705202" lon="13.327027"><ele>489.0</ele><time>2026-04-26T10:33:45.979Z</time></trkpt><trkpt lat="43.0706451" lon="13.3271029"><ele>489.0</ele><time>2026-04-26T10:33:46.982Z</time></trkpt><trkpt lat="43.0707608" lon="13.3271583"><ele>489.0</ele><time>2026-04-26T10:33:47.986Z</time></trkpt><trkpt lat="43.0708593" lon="13.3271963"><ele>489.0</ele><time>2026-04-26T10:33:48.973Z</time></trkpt><trkpt lat="43.0709469" lon="13.327178"><ele>489.0</ele><time>2026-04-26T10:33:49.978Z</time></trkpt><trkpt lat="43.0710175" lon="13.3271042"><ele>489.0</ele><time>2026-04-26T10:33:50.974Z</time></trkpt><trkpt lat="43.0710688" lon="13.3269837"><ele>488.2</ele><time>2026-04-26T10:33:51.977Z</time></trkpt><trkpt lat="43.071073" lon="13.3268324"><ele>487.4</ele><time>2026-04-26T10:33:52.979Z</time></trkpt><trkpt lat="43.0711266" lon="13.3267142"><ele>486.6</ele><time>2026-04-26T10:33:53.973Z</time></trkpt><trkpt lat="43.0712189" lon="13.3266371"><ele>485.8</ele><time>2026-04-26T10:33:54.976Z</time></trkpt><trkpt lat="43.0713093" lon="13.3265859"><ele>485.0</ele><time>2026-04-26T10:33:55.975Z</time></trkpt><trkpt lat="43.0713978" lon="13.3266176"><ele>485.0</ele><time>2026-04-26T10:33:56.976Z</time></trkpt><trkpt lat="43.0714712" lon="13.3267592"><ele>485.0</ele><time>2026-04-26T10:33:57.975Z</time></trkpt><trkpt lat="43.0715152" lon="13.326916"><ele>485.0</ele><time>2026-04-26T10:33:58.985Z</time></trkpt><trkpt lat="43.071542" lon="13.3270631"><ele>485.0</ele><time>2026-04-26T10:33:59.999Z</time></trkpt><trkpt lat="43.0715747" lon="13.327197"><ele>483.66666666666663</ele><time>2026-04-26T10:34:00.974Z</time></trkpt><trkpt lat="43.0716179" lon="13.3273211"><ele>482.3333333333333</ele><time>2026-04-26T10:34:01.976Z</time></trkpt><trkpt lat="43.0716582" lon="13.3274399"><ele>481.0</ele><time>2026-04-26T10:34:02.993Z</time></trkpt><trkpt lat="43.0716912" lon="13.3275441"><ele>479.66666666666663</ele><time>2026-04-26T10:34:03.979Z</time></trkpt><trkpt lat="43.071719" lon="13.3276314"><ele>478.3333333333333</ele><time>2026-04-26T10:34:04.998Z</time></trkpt><trkpt lat="43.0717529" lon="13.3277086"><ele>477.0</ele><time>2026-04-26T10:34:05.976Z</time></trkpt><trkpt lat="43.071803" lon="13.3277747"><ele>477.0</ele><time>2026-04-26T10:34:06.981Z</time></trkpt><trkpt lat="43.071873" lon="13.3278287"><ele>477.0</ele><time>2026-04-26T10:34:07.981Z</time></trkpt><trkpt lat="43.0719501" lon="13.3278863"><ele>477.0</ele><time>2026-04-26T10:34:08.981Z</time></trkpt><trkpt lat="43.0720315" lon="13.3279416"><ele>477.0</ele><time>2026-04-26T10:34:09.975Z</time></trkpt><trkpt lat="43.0721174" lon="13.3279363"><ele>477.0</ele><time>2026-04-26T10:34:10.972Z</time></trkpt><trkpt lat="43.0721864" lon="13.3278809"><ele>477.0</ele><time>2026-04-26T10:34:11.977Z</time></trkpt><trkpt lat="43.0722257" lon="13.3277801"><ele>477.0</ele><time>2026-04-26T10:34:12.975Z</time></trkpt><trkpt lat="43.0722264" lon="13.3276502"><ele>477.0</ele><time>2026-04-26T10:34:13.972Z</time></trkpt><trkpt lat="43.072207" lon="13.3275109"><ele>477.0</ele><time>2026-04-26T10:34:14.972Z</time></trkpt><trkpt lat="43.0721967" lon="13.3273267"><ele>477.0</ele><time>2026-04-26T10:34:15.971Z</time></trkpt><trkpt lat="43.0722072" lon="13.32714"><ele>477.0</ele><time>2026-04-26T10:34:16.973Z</time></trkpt><trkpt lat="43.0722504" lon="13.3269636"><ele>477.0</ele><time>2026-04-26T10:34:17.982Z</time></trkpt><trkpt lat="43.0723052" lon="13.3267755"><ele>477.0</ele><time>2026-04-26T10:34:18.981Z</time></trkpt><trkpt lat="43.0723674" lon="13.3265678"><ele>477.0</ele><time>2026-04-26T10:34:19.981Z</time></trkpt><trkpt lat="43.0724248" lon="13.3263652"><ele>471.0</ele><time>2026-04-26T10:34:20.979Z</time></trkpt><trkpt lat="43.0724876" lon="13.3261688"><ele>465.0</ele><time>2026-04-26T10:34:21.986Z</time></trkpt><trkpt lat="43.0725443" lon="13.3259717"><ele>459.0</ele><time>2026-04-26T10:34:22.987Z</time></trkpt><trkpt lat="43.0725991" lon="13.3257902"><ele>459.0</ele><time>2026-04-26T10:34:23.986Z</time></trkpt><trkpt lat="43.0726549" lon="13.3256088"><ele>459.0</ele><time>2026-04-26T10:34:24.978Z</time></trkpt><trkpt lat="43.0727054" lon="13.3254455"><ele>459.0</ele><time>2026-04-26T10:34:25.991Z</time></trkpt><trkpt lat="43.0727605" lon="13.3252876"><ele>459.0</ele><time>2026-04-26T10:34:26.98Z</time></trkpt><trkpt lat="43.0728" lon="13.3251604"><ele>458.0</ele><time>2026-04-26T10:34:27.976Z</time></trkpt><trkpt lat="43.0728556" lon="13.325056"><ele>457.0</ele><time>2026-04-26T10:34:28.975Z</time></trkpt><trkpt lat="43.0729133" lon="13.3249755"><ele>456.0</ele><time>2026-04-26T10:34:29.985Z</time></trkpt><trkpt lat="43.0729945" lon="13.3249973"><ele>455.0</ele><time>2026-04-26T10:34:30.98Z</time></trkpt><trkpt lat="43.0730738" lon="13.3250306"><ele>454.0</ele><time>2026-04-26T10:34:31.988Z</time></trkpt><trkpt lat="43.0731399" lon="13.325049"><ele>453.0</ele><time>2026-04-26T10:34:32.983Z</time></trkpt><trkpt lat="43.0731849" lon="13.3249568"><ele>453.0</ele><time>2026-04-26T10:34:33.976Z</time></trkpt><trkpt lat="43.0732323" lon="13.324848"><ele>452.99999999999994</ele><time>2026-04-26T10:34:34.976Z</time></trkpt><trkpt lat="43.0732003" lon="13.324696"><ele>452.99999999999994</ele><time>2026-04-26T10:34:35.978Z</time></trkpt><trkpt lat="43.0731287" lon="13.3245713"><ele>453.0</ele><time>2026-04-26T10:34:36.976Z</time></trkpt><trkpt lat="43.0730772" lon="13.3244496"><ele>453.0</ele><time>2026-04-26T10:34:37.981Z</time></trkpt><trkpt lat="43.0730386" lon="13.3243303"><ele>450.1666666666667</ele><time>2026-04-26T10:34:38.969Z</time></trkpt><trkpt lat="43.0730718" lon="13.3242184"><ele>447.33333333333337</ele><time>2026-04-26T10:34:39.977Z</time></trkpt><trkpt lat="43.0731395" lon="13.3241421"><ele>444.5</ele><time>2026-04-26T10:34:40.975Z</time></trkpt><trkpt lat="43.0732172" lon="13.3240765"><ele>441.6666666666667</ele><time>2026-04-26T10:34:41.98Z</time></trkpt><trkpt lat="43.0732743" lon="13.3240119"><ele>438.83333333333337</ele><time>2026-04-26T10:34:42.976Z</time></trkpt><trkpt lat="43.073323" lon="13.3239454"><ele>436.0</ele><time>2026-04-26T10:34:43.973Z</time></trkpt><trkpt lat="43.0732721" lon="13.3238191"><ele>433.25</ele><time>2026-04-26T10:34:45.974Z</time></trkpt><trkpt lat="43.0731814" lon="13.3237887"><ele>430.5</ele><time>2026-04-26T10:34:46.974Z</time></trkpt><trkpt lat="43.0730632" lon="13.3237834"><ele>427.75</ele><time>2026-04-26T10:34:47.974Z</time></trkpt><trkpt lat="43.0729317" lon="13.323788"><ele>425.0</ele><time>2026-04-26T10:34:48.974Z</time></trkpt><trkpt lat="43.0727912" lon="13.3237752"><ele>425.0</ele><time>2026-04-26T10:34:49.975Z</time></trkpt><trkpt lat="43.0726474" lon="13.3237472"><ele>425.0</ele><time>2026-04-26T10:34:50.973Z</time></trkpt><trkpt lat="43.0725115" lon="13.3237033"><ele>425.0</ele><time>2026-04-26T10:34:51.976Z</time></trkpt><trkpt lat="43.0723879" lon="13.3236496"><ele>425.0</ele><time>2026-04-26T10:34:52.971Z</time></trkpt><trkpt lat="43.0722856" lon="13.3235917"><ele>426.8</ele><time>2026-04-26T10:34:53.99Z</time></trkpt><trkpt lat="43.0721933" lon="13.3235434"><ele>428.6</ele><time>2026-04-26T10:34:54.975Z</time></trkpt><trkpt lat="43.0721457" lon="13.3234399"><ele>430.4</ele><time>2026-04-26T10:34:55.976Z</time></trkpt><trkpt lat="43.0721593" lon="13.3233038"><ele>432.2</ele><time>2026-04-26T10:34:56.977Z</time></trkpt><trkpt lat="43.0722179" lon="13.3231965"><ele>434.0</ele><time>2026-04-26T10:34:57.976Z</time></trkpt><trkpt lat="43.072295" lon="13.3230989"><ele>433.25</ele><time>2026-04-26T10:34:58.976Z</time></trkpt><trkpt lat="43.0723781" lon="13.3229945"><ele>432.5</ele><time>2026-04-26T10:34:59.979Z</time></trkpt><trkpt lat="43.0724853" lon="13.3228793"><ele>431.75</ele><time>2026-04-26T10:35:00.972Z</time></trkpt><trkpt lat="43.0725936" lon="13.3227552"><ele>431.0</ele><time>2026-04-26T10:35:01.975Z</time></trkpt><trkpt lat="43.0727019" lon="13.3226381"><ele>431.0</ele><time>2026-04-26T10:35:02.98Z</time></trkpt><trkpt lat="43.0728012" lon="13.3225309"><ele>431.0</ele><time>2026-04-26T10:35:03.975Z</time></trkpt><trkpt lat="43.072894" lon="13.3224128"><ele>431.0</ele><time>2026-04-26T10:35:04.981Z</time></trkpt><trkpt lat="43.0729705" lon="13.3222724"><ele>431.0</ele><time>2026-04-26T10:35:05.976Z</time></trkpt><trkpt lat="43.0730378" lon="13.3221136"><ele>430.4</ele><time>2026-04-26T10:35:06.975Z</time></trkpt><trkpt lat="43.0730995" lon="13.3219618"><ele>429.8</ele><time>2026-04-26T10:35:07.978Z</time></trkpt><trkpt lat="43.0731641" lon="13.3218299"><ele>429.19999999999993</ele><time>2026-04-26T10:35:08.968Z</time></trkpt><trkpt lat="43.0732205" lon="13.3217189"><ele>428.59999999999997</ele><time>2026-04-26T10:35:09.972Z</time></trkpt><trkpt lat="43.0732749" lon="13.3216049"><ele>428.0</ele><time>2026-04-26T10:35:10.979Z</time></trkpt><trkpt lat="43.0733235" lon="13.3214962"><ele>428.3333333333333</ele><time>2026-04-26T10:35:11.976Z</time></trkpt><trkpt lat="43.0733696" lon="13.3213965"><ele>428.66666666666663</ele><time>2026-04-26T10:35:12.981Z</time></trkpt><trkpt lat="43.0734404" lon="13.321313"><ele>429.0</ele><time>2026-04-26T10:35:13.98Z</time></trkpt><trkpt lat="43.0735251" lon="13.3212733"><ele>429.33333333333337</ele><time>2026-04-26T10:35:14.972Z</time></trkpt><trkpt lat="43.0736032" lon="13.3212824"><ele>429.6666666666667</ele><time>2026-04-26T10:35:15.989Z</time></trkpt><trkpt lat="43.0736739" lon="13.3213227"><ele>430.0</ele><time>2026-04-26T10:35:16.971Z</time></trkpt><trkpt lat="43.0737523" lon="13.3213829"><ele>429.5</ele><time>2026-04-26T10:35:17.983Z</time></trkpt><trkpt lat="43.073828" lon="13.3214717"><ele>429.0</ele><time>2026-04-26T10:35:18.976Z</time></trkpt><trkpt lat="43.0738865" lon="13.3215892"><ele>428.5</ele><time>2026-04-26T10:35:19.972Z</time></trkpt><trkpt lat="43.073927" lon="13.3217368"><ele>428.0</ele><time>2026-04-26T10:35:20.971Z</time></trkpt><trkpt lat="43.0739628" lon="13.321917"><ele>428.0</ele><time>2026-04-26T10:35:21.972Z</time></trkpt><trkpt lat="43.07401" lon="13.3221187"><ele>428.0</ele><time>2026-04-26T10:35:22.979Z</time></trkpt><trkpt lat="43.0740672" lon="13.3223373"><ele>428.0</ele><time>2026-04-26T10:35:23.977Z</time></trkpt><trkpt lat="43.0741246" lon="13.3225423"><ele>427.5</ele><time>2026-04-26T10:35:24.973Z</time></trkpt><trkpt lat="43.0741872" lon="13.322722"><ele>427.0</ele><time>2026-04-26T10:35:25.978Z</time></trkpt><trkpt lat="43.0742692" lon="13.3228863"><ele>426.5</ele><time>2026-04-26T10:35:26.98Z</time></trkpt><trkpt lat="43.0743635" lon="13.3230182"><ele>426.0</ele><time>2026-04-26T10:35:27.977Z</time></trkpt><trkpt lat="43.0744543" lon="13.3231089"><ele>426.0</ele><time>2026-04-26T10:35:28.975Z</time></trkpt><trkpt lat="43.0745375" lon="13.3231698"><ele>426.0</ele><time>2026-04-26T10:35:29.988Z</time></trkpt><trkpt lat="43.074622" lon="13.3231591"><ele>426.0</ele><time>2026-04-26T10:35:30.974Z</time></trkpt><trkpt lat="43.0746972" lon="13.323108"><ele>426.0</ele><time>2026-04-26T10:35:31.977Z</time></trkpt><trkpt lat="43.0747441" lon="13.3229581"><ele>426.0</ele><time>2026-04-26T10:35:32.976Z</time></trkpt><trkpt lat="43.0747552" lon="13.3227566"><ele>428.33333333333337</ele><time>2026-04-26T10:35:33.985Z</time></trkpt><trkpt lat="43.0747545" lon="13.3225343"><ele>430.6666666666667</ele><time>2026-04-26T10:35:34.978Z</time></trkpt><trkpt lat="43.0747613" lon="13.3223083"><ele>433.0</ele><time>2026-04-26T10:35:35.97Z</time></trkpt><trkpt lat="43.0747751" lon="13.3220798"><ele>433.33333333333337</ele><time>2026-04-26T10:35:36.976Z</time></trkpt><trkpt lat="43.0747926" lon="13.3218568"><ele>433.66666666666663</ele><time>2026-04-26T10:35:37.983Z</time></trkpt><trkpt lat="43.0748202" lon="13.3216349"><ele>434.0</ele><time>2026-04-26T10:35:38.979Z</time></trkpt><trkpt lat="43.0748611" lon="13.3214065"><ele>435.3333333333333</ele><time>2026-04-26T10:35:39.977Z</time></trkpt><trkpt lat="43.0748856" lon="13.3211753"><ele>436.66666666666663</ele><time>2026-04-26T10:35:40.977Z</time></trkpt><trkpt lat="43.0748759" lon="13.3209631"><ele>438.0</ele><time>2026-04-26T10:35:42.001Z</time></trkpt><trkpt lat="43.0748343" lon="13.3207798"><ele>438.0</ele><time>2026-04-26T10:35:42.975Z</time></trkpt><trkpt lat="43.0747883" lon="13.3206311"><ele>437.99999999999994</ele><time>2026-04-26T10:35:43.98Z</time></trkpt><trkpt lat="43.0747511" lon="13.3205094"><ele>437.99999999999994</ele><time>2026-04-26T10:35:44.972Z</time></trkpt><trkpt lat="43.0747617" lon="13.3204118"><ele>438.0</ele><time>2026-04-26T10:35:45.981Z</time></trkpt><trkpt lat="43.0748613" lon="13.3203393"><ele>438.0</ele><time>2026-04-26T10:35:47.982Z</time></trkpt><trkpt lat="43.0749776" lon="13.3204331"><ele>444.0</ele><time>2026-04-26T10:35:49.982Z</time></trkpt><trkpt lat="43.0750296" lon="13.3205363"><ele>450.0</ele><time>2026-04-26T10:35:50.979Z</time></trkpt><trkpt lat="43.0750926" lon="13.3206451"><ele>456.0</ele><time>2026-04-26T10:35:51.979Z</time></trkpt><trkpt lat="43.0751931" lon="13.3207523"><ele>462.0</ele><time>2026-04-26T10:35:52.976Z</time></trkpt><trkpt lat="43.0753097" lon="13.3208577"><ele>462.0</ele><time>2026-04-26T10:35:53.982Z</time></trkpt><trkpt lat="43.0754045" lon="13.3209644"><ele>462.0</ele><time>2026-04-26T10:35:54.978Z</time></trkpt><trkpt lat="43.075473" lon="13.3210884"><ele>462.0</ele><time>2026-04-26T10:35:55.981Z</time></trkpt><trkpt lat="43.0755065" lon="13.3212314"><ele>462.0</ele><time>2026-04-26T10:35:56.985Z</time></trkpt><trkpt lat="43.075515" lon="13.3214019"><ele>461.0</ele><time>2026-04-26T10:35:57.98Z</time></trkpt><trkpt lat="43.0755079" lon="13.3215902"><ele>460.0</ele><time>2026-04-26T10:35:58.994Z</time></trkpt><trkpt lat="43.07551" lon="13.3217931"><ele>459.0</ele><time>2026-04-26T10:35:59.978Z</time></trkpt><trkpt lat="43.0755203" lon="13.3220104"><ele>458.0</ele><time>2026-04-26T10:36:00.976Z</time></trkpt><trkpt lat="43.0755769" lon="13.3222495"><ele>457.66666666666663</ele><time>2026-04-26T10:36:01.98Z</time></trkpt><trkpt lat="43.0756426" lon="13.322462"><ele>457.33333333333337</ele><time>2026-04-26T10:36:02.989Z</time></trkpt><trkpt lat="43.0757061" lon="13.3226611"><ele>457.0</ele><time>2026-04-26T10:36:03.976Z</time></trkpt><trkpt lat="43.0757706" lon="13.3228213"><ele>460.25</ele><time>2026-04-26T10:36:04.984Z</time></trkpt><trkpt lat="43.0758509" lon="13.3229498"><ele>463.5</ele><time>2026-04-26T10:36:05.971Z</time></trkpt><trkpt lat="43.0759638" lon="13.323041"><ele>466.75</ele><time>2026-04-26T10:36:06.99Z</time></trkpt><trkpt lat="43.0761011" lon="13.3230848"><ele>470.0</ele><time>2026-04-26T10:36:07.982Z</time></trkpt><trkpt lat="43.076243" lon="13.3230771"><ele>471.66666666666663</ele><time>2026-04-26T10:36:08.987Z</time></trkpt><trkpt lat="43.0763889" lon="13.323024"><ele>473.33333333333337</ele><time>2026-04-26T10:36:09.977Z</time></trkpt><trkpt lat="43.0765387" lon="13.3229334"><ele>475.0</ele><time>2026-04-26T10:36:10.981Z</time></trkpt><trkpt lat="43.0766975" lon="13.322835"><ele>478.6666666666667</ele><time>2026-04-26T10:36:11.978Z</time></trkpt><trkpt lat="43.0768548" lon="13.322728"><ele>482.33333333333337</ele><time>2026-04-26T10:36:12.976Z</time></trkpt><trkpt lat="43.0769909" lon="13.3226173"><ele>486.0</ele><time>2026-04-26T10:36:13.996Z</time></trkpt><trkpt lat="43.0771139" lon="13.3225111"><ele>486.0</ele><time>2026-04-26T10:36:14.993Z</time></trkpt><trkpt lat="43.0772396" lon="13.322421"><ele>486.0</ele><time>2026-04-26T10:36:15.983Z</time></trkpt><trkpt lat="43.0773651" lon="13.3223341"><ele>486.0</ele><time>2026-04-26T10:36:17.003Z</time></trkpt><trkpt lat="43.077513" lon="13.3222966"><ele>486.0</ele><time>2026-04-26T10:36:17.979Z</time></trkpt><trkpt lat="43.0776669" lon="13.3222607"><ele>489.0</ele><time>2026-04-26T10:36:18.984Z</time></trkpt><trkpt lat="43.0778051" lon="13.3222158"><ele>492.0</ele><time>2026-04-26T10:36:19.982Z</time></trkpt><trkpt lat="43.0779259" lon="13.3221212"><ele>495.0</ele><time>2026-04-26T10:36:20.978Z</time></trkpt><trkpt lat="43.0780184" lon="13.3220151"><ele>498.0</ele><time>2026-04-26T10:36:21.972Z</time></trkpt><trkpt lat="43.0780712" lon="13.3219006"><ele>498.0</ele><time>2026-04-26T10:36:22.983Z</time></trkpt><trkpt lat="43.0780789" lon="13.3217594"><ele>498.0</ele><time>2026-04-26T10:36:23.992Z</time></trkpt><trkpt lat="43.0780447" lon="13.3216105"><ele>498.0</ele><time>2026-04-26T10:36:24.983Z</time></trkpt><trkpt lat="43.0779791" lon="13.3214494"><ele>498.0</ele><time>2026-04-26T10:36:25.991Z</time></trkpt><trkpt lat="43.0779024" lon="13.3212653"><ele>500.66666666666663</ele><time>2026-04-26T10:36:26.983Z</time></trkpt><trkpt lat="43.0778207" lon="13.3210666"><ele>503.3333333333333</ele><time>2026-04-26T10:36:27.968Z</time></trkpt><trkpt lat="43.0777351" lon="13.3208527"><ele>506.0</ele><time>2026-04-26T10:36:28.989Z</time></trkpt><trkpt lat="43.0776457" lon="13.3206394"><ele>506.25</ele><time>2026-04-26T10:36:29.986Z</time></trkpt><trkpt lat="43.0775648" lon="13.3204442"><ele>506.5</ele><time>2026-04-26T10:36:30.988Z</time></trkpt><trkpt lat="43.0774931" lon="13.3202727"><ele>506.75</ele><time>2026-04-26T10:36:31.981Z</time></trkpt><trkpt lat="43.0774427" lon="13.3201338"><ele>507.0</ele><time>2026-04-26T10:36:32.99Z</time></trkpt><trkpt lat="43.0774258" lon="13.3200155"><ele>508.5</ele><time>2026-04-26T10:36:33.983Z</time></trkpt><trkpt lat="43.0774488" lon="13.3199038"><ele>510.0</ele><time>2026-04-26T10:36:34.977Z</time></trkpt><trkpt lat="43.0775212" lon="13.3197971"><ele>511.5</ele><time>2026-04-26T10:36:35.984Z</time></trkpt><trkpt lat="43.0776276" lon="13.3197007"><ele>513.0</ele><time>2026-04-26T10:36:36.987Z</time></trkpt><trkpt lat="43.0777395" lon="13.3196051"><ele>514.5</ele><time>2026-04-26T10:36:37.991Z</time></trkpt><trkpt lat="43.0778373" lon="13.3194893"><ele>516.0</ele><time>2026-04-26T10:36:38.981Z</time></trkpt><trkpt lat="43.077918" lon="13.3193344"><ele>517.5</ele><time>2026-04-26T10:36:39.977Z</time></trkpt><trkpt lat="43.0779788" lon="13.3191487"><ele>519.0</ele><time>2026-04-26T10:36:40.983Z</time></trkpt><trkpt lat="43.0780435" lon="13.3189411"><ele>519.6666666666666</ele><time>2026-04-26T10:36:41.979Z</time></trkpt><trkpt lat="43.0781316" lon="13.3187281"><ele>520.3333333333333</ele><time>2026-04-26T10:36:42.975Z</time></trkpt><trkpt lat="43.0782352" lon="13.3185314"><ele>521.0</ele><time>2026-04-26T10:36:43.99Z</time></trkpt><trkpt lat="43.0783431" lon="13.3183674"><ele>521.0</ele><time>2026-04-26T10:36:44.979Z</time></trkpt><trkpt lat="43.0784632" lon="13.3182586"><ele>521.0</ele><time>2026-04-26T10:36:45.98Z</time></trkpt><trkpt lat="43.0785933" lon="13.318211"><ele>521.0</ele><time>2026-04-26T10:36:46.982Z</time></trkpt><trkpt lat="43.0787255" lon="13.3181896"><ele>521.0</ele><time>2026-04-26T10:36:47.979Z</time></trkpt><trkpt lat="43.078841" lon="13.318152"><ele>521.0</ele><time>2026-04-26T10:36:48.983Z</time></trkpt><trkpt lat="43.0789423" lon="13.3180758"><ele>521.0</ele><time>2026-04-26T10:36:49.971Z</time></trkpt><trkpt lat="43.0790266" lon="13.3179605"><ele>521.0</ele><time>2026-04-26T10:36:50.971Z</time></trkpt><trkpt lat="43.0791087" lon="13.3178347"><ele>521.0</ele><time>2026-04-26T10:36:51.977Z</time></trkpt><trkpt lat="43.0792021" lon="13.3177299"><ele>523.5</ele><time>2026-04-26T10:36:52.984Z</time></trkpt><trkpt lat="43.0793065" lon="13.3176312"><ele>526.0</ele><time>2026-04-26T10:36:53.977Z</time></trkpt><trkpt lat="43.0794071" lon="13.3175746"><ele>528.5</ele><time>2026-04-26T10:36:54.99Z</time></trkpt><trkpt lat="43.0795079" lon="13.3175012"><ele>531.0</ele><time>2026-04-26T10:36:55.982Z</time></trkpt><trkpt lat="43.0796117" lon="13.3174224"><ele>531.0</ele><time>2026-04-26T10:36:56.98Z</time></trkpt><trkpt lat="43.079722" lon="13.3173277"><ele>531.0</ele><time>2026-04-26T10:36:57.974Z</time></trkpt><trkpt lat="43.079831" lon="13.317224"><ele>531.0</ele><time>2026-04-26T10:36:58.979Z</time></trkpt><trkpt lat="43.079935" lon="13.317119"><ele>531.0</ele><time>2026-04-26T10:36:59.978Z</time></trkpt><trkpt lat="43.0800249" lon="13.3170219"><ele>531.1666666666666</ele><time>2026-04-26T10:37:00.981Z</time></trkpt><trkpt lat="43.0800889" lon="13.3169453"><ele>531.3333333333334</ele><time>2026-04-26T10:37:01.977Z</time></trkpt><trkpt lat="43.0801284" lon="13.316877"><ele>531.5</ele><time>2026-04-26T10:37:02.985Z</time></trkpt><trkpt lat="43.0801583" lon="13.3167938"><ele>531.6666666666667</ele><time>2026-04-26T10:37:04.982Z</time></trkpt><trkpt lat="43.0802371" lon="13.3167679"><ele>531.8333333333334</ele><time>2026-04-26T10:37:23.976Z</time></trkpt><trkpt lat="43.0803502" lon="13.3168303"><ele>532.0</ele><time>2026-04-26T10:37:25.978Z</time></trkpt><trkpt lat="43.0804275" lon="13.3168931"><ele>532.0</ele><time>2026-04-26T10:37:26.978Z</time></trkpt><trkpt lat="43.080515" lon="13.3169742"><ele>532.0</ele><time>2026-04-26T10:37:27.977Z</time></trkpt><trkpt lat="43.0806058" lon="13.3170822"><ele>532.0</ele><time>2026-04-26T10:37:28.981Z</time></trkpt><trkpt lat="43.0806951" lon="13.3172201"><ele>532.0</ele><time>2026-04-26T10:37:29.977Z</time></trkpt><trkpt lat="43.0807829" lon="13.3173761"><ele>529.3333333333334</ele><time>2026-04-26T10:37:30.977Z</time></trkpt><trkpt lat="43.080875" lon="13.3175514"><ele>526.6666666666666</ele><time>2026-04-26T10:37:31.978Z</time></trkpt><trkpt lat="43.0809711" lon="13.3177363"><ele>524.0</ele><time>2026-04-26T10:37:32.978Z</time></trkpt><trkpt lat="43.0810628" lon="13.3179079"><ele>523.75</ele><time>2026-04-26T10:37:33.98Z</time></trkpt><trkpt lat="43.0811527" lon="13.3180691"><ele>523.5</ele><time>2026-04-26T10:37:34.98Z</time></trkpt><trkpt lat="43.0812371" lon="13.3182212"><ele>523.25</ele><time>2026-04-26T10:37:35.973Z</time></trkpt><trkpt lat="43.0813226" lon="13.3183575"><ele>523.0</ele><time>2026-04-26T10:37:36.987Z</time></trkpt><trkpt lat="43.0814112" lon="13.3184785"><ele>523.0</ele><time>2026-04-26T10:37:37.97Z</time></trkpt><trkpt lat="43.0815049" lon="13.3185929"><ele>523.0</ele><time>2026-04-26T10:37:38.975Z</time></trkpt><trkpt lat="43.0815978" lon="13.3187046"><ele>523.0</ele><time>2026-04-26T10:37:39.979Z</time></trkpt><trkpt lat="43.0817092" lon="13.3188136"><ele>523.0</ele><time>2026-04-26T10:37:40.975Z</time></trkpt><trkpt lat="43.0818142" lon="13.3189308"><ele>522.5</ele><time>2026-04-26T10:37:41.971Z</time></trkpt><trkpt lat="43.0819124" lon="13.3190574"><ele>522.0</ele><time>2026-04-26T10:37:42.981Z</time></trkpt><trkpt lat="43.0820063" lon="13.3192064"><ele>521.5</ele><time>2026-04-26T10:37:43.975Z</time></trkpt><trkpt lat="43.0820893" lon="13.3193609"><ele>521.0</ele><time>2026-04-26T10:37:44.979Z</time></trkpt><trkpt lat="43.0821613" lon="13.319515"><ele>521.0</ele><time>2026-04-26T10:37:45.975Z</time></trkpt><trkpt lat="43.0822419" lon="13.3196622"><ele>521.0</ele><time>2026-04-26T10:37:46.979Z</time></trkpt><trkpt lat="43.0823414" lon="13.3197957"><ele>521.0</ele><time>2026-04-26T10:37:47.982Z</time></trkpt><trkpt lat="43.0824605" lon="13.3199179"><ele>521.0</ele><time>2026-04-26T10:37:48.981Z</time></trkpt><trkpt lat="43.0825856" lon="13.3200376"><ele>520.0</ele><time>2026-04-26T10:37:49.979Z</time></trkpt><trkpt lat="43.0827142" lon="13.3201658"><ele>519.0</ele><time>2026-04-26T10:37:50.976Z</time></trkpt><trkpt lat="43.0828457" lon="13.3202976"><ele>518.0</ele><time>2026-04-26T10:37:51.976Z</time></trkpt><trkpt lat="43.0829794" lon="13.3204302"><ele>518.0</ele><time>2026-04-26T10:37:52.977Z</time></trkpt><trkpt lat="43.0831056" lon="13.3205579"><ele>518.0</ele><time>2026-04-26T10:37:53.976Z</time></trkpt><trkpt lat="43.0832198" lon="13.3206671"><ele>518.0</ele><time>2026-04-26T10:37:54.98Z</time></trkpt><trkpt lat="43.083328" lon="13.3207591"><ele>518.0</ele><time>2026-04-26T10:37:55.982Z</time></trkpt><trkpt lat="43.0834319" lon="13.3208132"><ele>520.0</ele><time>2026-04-26T10:37:56.974Z</time></trkpt><trkpt lat="43.0835505" lon="13.320831"><ele>522.0</ele><time>2026-04-26T10:37:57.975Z</time></trkpt><trkpt lat="43.0836746" lon="13.3208692"><ele>524.0</ele><time>2026-04-26T10:37:58.976Z</time></trkpt><trkpt lat="43.0837892" lon="13.3209059"><ele>526.0</ele><time>2026-04-26T10:37:59.979Z</time></trkpt><trkpt lat="43.0838823" lon="13.3209976"><ele>526.0</ele><time>2026-04-26T10:38:00.973Z</time></trkpt><trkpt lat="43.0839723" lon="13.32111"><ele>526.0</ele><time>2026-04-26T10:38:01.98Z</time></trkpt><trkpt lat="43.0840573" lon="13.3212393"><ele>526.0</ele><time>2026-04-26T10:38:02.971Z</time></trkpt><trkpt lat="43.084147" lon="13.3213741"><ele>526.0</ele><time>2026-04-26T10:38:03.973Z</time></trkpt><trkpt lat="43.084246" lon="13.3214984"><ele>530.0</ele><time>2026-04-26T10:38:04.977Z</time></trkpt><trkpt lat="43.0843405" lon="13.3216122"><ele>534.0</ele><time>2026-04-26T10:38:05.971Z</time></trkpt><trkpt lat="43.0844368" lon="13.3217223"><ele>538.0</ele><time>2026-04-26T10:38:06.97Z</time></trkpt><trkpt lat="43.0844993" lon="13.3218632"><ele>542.0</ele><time>2026-04-26T10:38:07.979Z</time></trkpt><trkpt lat="43.0845314" lon="13.3220266"><ele>542.0</ele><time>2026-04-26T10:38:08.97Z</time></trkpt><trkpt lat="43.0845558" lon="13.3222093"><ele>542.0</ele><time>2026-04-26T10:38:09.973Z</time></trkpt><trkpt lat="43.0845833" lon="13.3223995"><ele>542.0</ele><time>2026-04-26T10:38:10.971Z</time></trkpt><trkpt lat="43.0846215" lon="13.3225681"><ele>542.0</ele><time>2026-04-26T10:38:11.974Z</time></trkpt><trkpt lat="43.0846578" lon="13.3227186"><ele>542.25</ele><time>2026-04-26T10:38:12.977Z</time></trkpt><trkpt lat="43.0846857" lon="13.322885"><ele>542.5</ele><time>2026-04-26T10:38:13.977Z</time></trkpt><trkpt lat="43.0847318" lon="13.3230414"><ele>542.75</ele><time>2026-04-26T10:38:14.973Z</time></trkpt><trkpt lat="43.0847804" lon="13.3232135"><ele>543.0</ele><time>2026-04-26T10:38:15.972Z</time></trkpt><trkpt lat="43.0848278" lon="13.3233952"><ele>543.0</ele><time>2026-04-26T10:38:16.974Z</time></trkpt><trkpt lat="43.0848624" lon="13.3235646"><ele>543.0</ele><time>2026-04-26T10:38:17.971Z</time></trkpt><trkpt lat="43.0848716" lon="13.3237234"><ele>543.0</ele><time>2026-04-26T10:38:18.978Z</time></trkpt><trkpt lat="43.0848866" lon="13.3238718"><ele>543.0</ele><time>2026-04-26T10:38:19.979Z</time></trkpt><trkpt lat="43.0849115" lon="13.3240164"><ele>542.0</ele><time>2026-04-26T10:38:20.973Z</time></trkpt><trkpt lat="43.0849766" lon="13.3241233"><ele>541.0</ele><time>2026-04-26T10:38:21.978Z</time></trkpt><trkpt lat="43.0850608" lon="13.3242307"><ele>540.0</ele><time>2026-04-26T10:38:22.978Z</time></trkpt><trkpt lat="43.0851598" lon="13.32432"><ele>539.0</ele><time>2026-04-26T10:38:23.98Z</time></trkpt><trkpt lat="43.0852645" lon="13.3243971"><ele>539.0</ele><time>2026-04-26T10:38:24.978Z</time></trkpt><trkpt lat="43.0853647" lon="13.324475"><ele>539.0</ele><time>2026-04-26T10:38:25.975Z</time></trkpt><trkpt lat="43.0854466" lon="13.3245624"><ele>539.0</ele><time>2026-04-26T10:38:26.977Z</time></trkpt><trkpt lat="43.0855171" lon="13.3246738"><ele>539.0</ele><time>2026-04-26T10:38:27.977Z</time></trkpt><trkpt lat="43.0855621" lon="13.3247925"><ele>539.0</ele><time>2026-04-26T10:38:28.975Z</time></trkpt><trkpt lat="43.0855865" lon="13.3249182"><ele>538.5</ele><time>2026-04-26T10:38:29.978Z</time></trkpt><trkpt lat="43.0855877" lon="13.3250604"><ele>538.0</ele><time>2026-04-26T10:38:30.971Z</time></trkpt><trkpt lat="43.0855681" lon="13.3252119"><ele>537.5</ele><time>2026-04-26T10:38:31.976Z</time></trkpt><trkpt lat="43.0855543" lon="13.3253674"><ele>537.0</ele><time>2026-04-26T10:38:32.976Z</time></trkpt><trkpt lat="43.0855525" lon="13.3255348"><ele>536.5</ele><time>2026-04-26T10:38:33.972Z</time></trkpt><trkpt lat="43.0855618" lon="13.3257185"><ele>536.0</ele><time>2026-04-26T10:38:34.974Z</time></trkpt><trkpt lat="43.0855708" lon="13.3259042"><ele>535.5</ele><time>2026-04-26T10:38:35.973Z</time></trkpt><trkpt lat="43.0855874" lon="13.3260928"><ele>535.0</ele><time>2026-04-26T10:38:36.979Z</time></trkpt><trkpt lat="43.085613" lon="13.3262767"><ele>534.25</ele><time>2026-04-26T10:38:37.977Z</time></trkpt><trkpt lat="43.0856243" lon="13.3264746"><ele>533.5</ele><time>2026-04-26T10:38:38.973Z</time></trkpt><trkpt lat="43.0856382" lon="13.3266716"><ele>532.75</ele><time>2026-04-26T10:38:39.98Z</time></trkpt><trkpt lat="43.0856545" lon="13.326865"><ele>532.0</ele><time>2026-04-26T10:38:40.979Z</time></trkpt><trkpt lat="43.0856825" lon="13.3270596"><ele>530.0</ele><time>2026-04-26T10:38:41.975Z</time></trkpt><trkpt lat="43.0857231" lon="13.3272352"><ele>528.0</ele><time>2026-04-26T10:38:42.977Z</time></trkpt><trkpt lat="43.085758" lon="13.3273989"><ele>526.0</ele><time>2026-04-26T10:38:43.97Z</time></trkpt><trkpt lat="43.0857959" lon="13.3275396"><ele>524.0</ele><time>2026-04-26T10:38:44.979Z</time></trkpt><trkpt lat="43.0858483" lon="13.327665"><ele>529.75</ele><time>2026-04-26T10:38:45.976Z</time></trkpt><trkpt lat="43.0859217" lon="13.3277759"><ele>535.5</ele><time>2026-04-26T10:38:46.98Z</time></trkpt><trkpt lat="43.08602" lon="13.3278736"><ele>541.25</ele><time>2026-04-26T10:38:47.981Z</time></trkpt><trkpt lat="43.0861342" lon="13.3279654"><ele>547.0</ele><time>2026-04-26T10:38:48.976Z</time></trkpt><trkpt lat="43.0862516" lon="13.3280807"><ele>547.0</ele><time>2026-04-26T10:38:49.978Z</time></trkpt><trkpt lat="43.0863678" lon="13.3282235"><ele>547.0</ele><time>2026-04-26T10:38:50.975Z</time></trkpt><trkpt lat="43.0864794" lon="13.3283901"><ele>547.0</ele><time>2026-04-26T10:38:51.98Z</time></trkpt><trkpt lat="43.0865912" lon="13.3285671"><ele>549.3333333333334</ele><time>2026-04-26T10:38:52.973Z</time></trkpt><trkpt lat="43.0867046" lon="13.3287504"><ele>551.6666666666666</ele><time>2026-04-26T10:38:53.976Z</time></trkpt><trkpt lat="43.0868092" lon="13.3289236"><ele>554.0</ele><time>2026-04-26T10:38:54.98Z</time></trkpt><trkpt lat="43.0869093" lon="13.3290865"><ele>555.3333333333333</ele><time>2026-04-26T10:38:55.975Z</time></trkpt><trkpt lat="43.0870077" lon="13.3292563"><ele>556.6666666666666</ele><time>2026-04-26T10:38:56.979Z</time></trkpt><trkpt lat="43.0871064" lon="13.3294298"><ele>558.0</ele><time>2026-04-26T10:38:57.976Z</time></trkpt><trkpt lat="43.0872013" lon="13.3296061"><ele>558.6666666666666</ele><time>2026-04-26T10:38:58.98Z</time></trkpt><trkpt lat="43.087295" lon="13.3297726"><ele>559.3333333333333</ele><time>2026-04-26T10:38:59.974Z</time></trkpt><trkpt lat="43.0873851" lon="13.3299427"><ele>560.0</ele><time>2026-04-26T10:39:00.976Z</time></trkpt><trkpt lat="43.0874817" lon="13.3301171"><ele>560.0</ele><time>2026-04-26T10:39:01.979Z</time></trkpt><trkpt lat="43.0875875" lon="13.3302883"><ele>560.0</ele><time>2026-04-26T10:39:02.981Z</time></trkpt><trkpt lat="43.0876871" lon="13.330456"><ele>560.0</ele><time>2026-04-26T10:39:03.976Z</time></trkpt><trkpt lat="43.087784" lon="13.3306224"><ele>559.3333333333333</ele><time>2026-04-26T10:39:04.977Z</time></trkpt><trkpt lat="43.0878804" lon="13.3307838"><ele>558.6666666666666</ele><time>2026-04-26T10:39:05.978Z</time></trkpt><trkpt lat="43.0879768" lon="13.3309518"><ele>558.0</ele><time>2026-04-26T10:39:06.977Z</time></trkpt><trkpt lat="43.0880722" lon="13.3311249"><ele>558.0</ele><time>2026-04-26T10:39:07.974Z</time></trkpt><trkpt lat="43.0881592" lon="13.3313007"><ele>558.0</ele><time>2026-04-26T10:39:08.98Z</time></trkpt><trkpt lat="43.0882244" lon="13.3314748"><ele>558.0</ele><time>2026-04-26T10:39:09.975Z</time></trkpt><trkpt lat="43.088267" lon="13.3316589"><ele>558.0</ele><time>2026-04-26T10:39:10.971Z</time></trkpt><trkpt lat="43.0882894" lon="13.3318341"><ele>560.5</ele><time>2026-04-26T10:39:11.98Z</time></trkpt><trkpt lat="43.088306" lon="13.3320048"><ele>563.0</ele><time>2026-04-26T10:39:12.975Z</time></trkpt><trkpt lat="43.0883294" lon="13.3321623"><ele>565.5</ele><time>2026-04-26T10:39:13.974Z</time></trkpt><trkpt lat="43.0883665" lon="13.3323134"><ele>568.0</ele><time>2026-04-26T10:39:14.983Z</time></trkpt><trkpt lat="43.0884237" lon="13.3324664"><ele>568.0</ele><time>2026-04-26T10:39:15.974Z</time></trkpt><trkpt lat="43.0884947" lon="13.3326221"><ele>568.0</ele><time>2026-04-26T10:39:16.972Z</time></trkpt><trkpt lat="43.0885713" lon="13.3327693"><ele>568.0</ele><time>2026-04-26T10:39:17.979Z</time></trkpt><trkpt lat="43.0886718" lon="13.3329196"><ele>568.0</ele><time>2026-04-26T10:39:18.987Z</time></trkpt><trkpt lat="43.088765" lon="13.3330588"><ele>564.75</ele><time>2026-04-26T10:39:19.977Z</time></trkpt><trkpt lat="43.0888583" lon="13.3331894"><ele>561.5</ele><time>2026-04-26T10:39:20.98Z</time></trkpt><trkpt lat="43.0889402" lon="13.3333289"><ele>558.25</ele><time>2026-04-26T10:39:21.978Z</time></trkpt><trkpt lat="43.0890151" lon="13.3334777"><ele>555.0</ele><time>2026-04-26T10:39:22.978Z</time></trkpt><trkpt lat="43.0890842" lon="13.3336544"><ele>555.75</ele><time>2026-04-26T10:39:23.977Z</time></trkpt><trkpt lat="43.0891406" lon="13.3338484"><ele>556.5</ele><time>2026-04-26T10:39:24.976Z</time></trkpt><trkpt lat="43.0891959" lon="13.3340362"><ele>557.25</ele><time>2026-04-26T10:39:25.995Z</time></trkpt><trkpt lat="43.089238" lon="13.3342176"><ele>558.0</ele><time>2026-04-26T10:39:26.976Z</time></trkpt><trkpt lat="43.0892719" lon="13.3344003"><ele>558.0</ele><time>2026-04-26T10:39:27.975Z</time></trkpt><trkpt lat="43.0893106" lon="13.3345985"><ele>558.0</ele><time>2026-04-26T10:39:28.977Z</time></trkpt><trkpt lat="43.0893197" lon="13.334805"><ele>558.0</ele><time>2026-04-26T10:39:29.974Z</time></trkpt><trkpt lat="43.0893108" lon="13.3350149"><ele>557.75</ele><time>2026-04-26T10:39:30.979Z</time></trkpt><trkpt lat="43.0892975" lon="13.335206"><ele>557.5</ele><time>2026-04-26T10:39:31.977Z</time></trkpt><trkpt lat="43.0892883" lon="13.3353746"><ele>557.25</ele><time>2026-04-26T10:39:32.975Z</time></trkpt><trkpt lat="43.0892828" lon="13.3355451"><ele>557.0</ele><time>2026-04-26T10:39:33.978Z</time></trkpt><trkpt lat="43.0892914" lon="13.3357217"><ele>556.0</ele><time>2026-04-26T10:39:34.975Z</time></trkpt><trkpt lat="43.0893198" lon="13.3359112"><ele>555.0</ele><time>2026-04-26T10:39:35.975Z</time></trkpt><trkpt lat="43.0893563" lon="13.3361147"><ele>554.0</ele><time>2026-04-26T10:39:36.974Z</time></trkpt><trkpt lat="43.0893835" lon="13.3363384"><ele>551.3333333333333</ele><time>2026-04-26T10:39:37.978Z</time></trkpt><trkpt lat="43.0894031" lon="13.3365743"><ele>548.6666666666666</ele><time>2026-04-26T10:39:38.976Z</time></trkpt><trkpt lat="43.0894167" lon="13.3368034"><ele>546.0</ele><time>2026-04-26T10:39:39.984Z</time></trkpt><trkpt lat="43.0894269" lon="13.3370246"><ele>544.3333333333334</ele><time>2026-04-26T10:39:40.975Z</time></trkpt><trkpt lat="43.0894377" lon="13.3372429"><ele>542.6666666666667</ele><time>2026-04-26T10:39:41.971Z</time></trkpt><trkpt lat="43.0894467" lon="13.3374656"><ele>541.0</ele><time>2026-04-26T10:39:42.972Z</time></trkpt><trkpt lat="43.0894565" lon="13.337694"><ele>541.0</ele><time>2026-04-26T10:39:43.975Z</time></trkpt><trkpt lat="43.0894667" lon="13.3379223"><ele>541.0</ele><time>2026-04-26T10:39:44.982Z</time></trkpt><trkpt lat="43.0894791" lon="13.3381447"><ele>541.0</ele><time>2026-04-26T10:39:45.979Z</time></trkpt><trkpt lat="43.0894974" lon="13.3383545"><ele>540.0</ele><time>2026-04-26T10:39:46.975Z</time></trkpt><trkpt lat="43.0895215" lon="13.3385501"><ele>539.0</ele><time>2026-04-26T10:39:47.975Z</time></trkpt><trkpt lat="43.0895558" lon="13.3387262"><ele>538.0</ele><time>2026-04-26T10:39:48.977Z</time></trkpt><trkpt lat="43.0896134" lon="13.3388735"><ele>537.0</ele><time>2026-04-26T10:39:49.976Z</time></trkpt><trkpt lat="43.0896942" lon="13.339001"><ele>536.5</ele><time>2026-04-26T10:39:50.995Z</time></trkpt><trkpt lat="43.089787" lon="13.33912"><ele>536.0</ele><time>2026-04-26T10:39:51.974Z</time></trkpt><trkpt lat="43.0898867" lon="13.339231"><ele>535.5</ele><time>2026-04-26T10:39:52.974Z</time></trkpt><trkpt lat="43.0899975" lon="13.3393291"><ele>535.0</ele><time>2026-04-26T10:39:53.98Z</time></trkpt><trkpt lat="43.0901156" lon="13.3394181"><ele>536.0</ele><time>2026-04-26T10:39:54.977Z</time></trkpt><trkpt lat="43.0902271" lon="13.3394983"><ele>537.0</ele><time>2026-04-26T10:39:55.983Z</time></trkpt><trkpt lat="43.0903312" lon="13.3395853"><ele>538.0</ele><time>2026-04-26T10:39:56.979Z</time></trkpt><trkpt lat="43.0904244" lon="13.3396912"><ele>539.0</ele><time>2026-04-26T10:39:57.981Z</time></trkpt><trkpt lat="43.0905053" lon="13.3398243"><ele>539.25</ele><time>2026-04-26T10:39:58.975Z</time></trkpt><trkpt lat="43.0905792" lon="13.3399763"><ele>539.5</ele><time>2026-04-26T10:39:59.977Z</time></trkpt><trkpt lat="43.09065" lon="13.3401388"><ele>539.75</ele><time>2026-04-26T10:40:00.979Z</time></trkpt><trkpt lat="43.0907232" lon="13.3403068"><ele>540.0</ele><time>2026-04-26T10:40:01.975Z</time></trkpt><trkpt lat="43.0907987" lon="13.3404782"><ele>539.0</ele><time>2026-04-26T10:40:02.979Z</time></trkpt><trkpt lat="43.0908765" lon="13.3406502"><ele>538.0</ele><time>2026-04-26T10:40:03.976Z</time></trkpt><trkpt lat="43.0909596" lon="13.3408208"><ele>537.0</ele><time>2026-04-26T10:40:04.981Z</time></trkpt><trkpt lat="43.0910477" lon="13.3409888"><ele>536.0</ele><time>2026-04-26T10:40:05.981Z</time></trkpt><trkpt lat="43.0911342" lon="13.3411578"><ele>536.0</ele><time>2026-04-26T10:40:06.978Z</time></trkpt><trkpt lat="43.0912209" lon="13.3413183"><ele>536.0</ele><time>2026-04-26T10:40:07.979Z</time></trkpt><trkpt lat="43.0912819" lon="13.3414915"><ele>536.0</ele><time>2026-04-26T10:40:08.974Z</time></trkpt><trkpt lat="43.091317" lon="13.3416708"><ele>536.0</ele><time>2026-04-26T10:40:09.974Z</time></trkpt><trkpt lat="43.0913365" lon="13.341863"><ele>535.25</ele><time>2026-04-26T10:40:10.979Z</time></trkpt><trkpt lat="43.0913332" lon="13.3420615"><ele>534.5</ele><time>2026-04-26T10:40:11.974Z</time></trkpt><trkpt lat="43.0913295" lon="13.3422556"><ele>533.75</ele><time>2026-04-26T10:40:12.979Z</time></trkpt><trkpt lat="43.0913208" lon="13.3424419"><ele>533.0</ele><time>2026-04-26T10:40:13.978Z</time></trkpt><trkpt lat="43.0913138" lon="13.3426255"><ele>531.75</ele><time>2026-04-26T10:40:14.975Z</time></trkpt><trkpt lat="43.0913126" lon="13.3428033"><ele>530.5</ele><time>2026-04-26T10:40:15.977Z</time></trkpt><trkpt lat="43.0913159" lon="13.3429838"><ele>529.25</ele><time>2026-04-26T10:40:16.976Z</time></trkpt><trkpt lat="43.0913227" lon="13.3431681"><ele>528.0</ele><time>2026-04-26T10:40:17.983Z</time></trkpt><trkpt lat="43.091332" lon="13.3433573"><ele>526.5</ele><time>2026-04-26T10:40:18.979Z</time></trkpt><trkpt lat="43.0913374" lon="13.3435436"><ele>525.0</ele><time>2026-04-26T10:40:19.978Z</time></trkpt><trkpt lat="43.091355" lon="13.3437173"><ele>523.5</ele><time>2026-04-26T10:40:20.971Z</time></trkpt><trkpt lat="43.0913622" lon="13.3439038"><ele>522.0</ele><time>2026-04-26T10:40:21.978Z</time></trkpt><trkpt lat="43.0913712" lon="13.3440751"><ele>520.5</ele><time>2026-04-26T10:40:22.979Z</time></trkpt><trkpt lat="43.0913847" lon="13.3442599"><ele>519.0</ele><time>2026-04-26T10:40:23.98Z</time></trkpt><trkpt lat="43.0913968" lon="13.3444329"><ele>517.5</ele><time>2026-04-26T10:40:24.975Z</time></trkpt><trkpt lat="43.0914066" lon="13.3446062"><ele>516.0</ele><time>2026-04-26T10:40:25.979Z</time></trkpt><trkpt lat="43.0914171" lon="13.3447762"><ele>513.75</ele><time>2026-04-26T10:40:26.978Z</time></trkpt><trkpt lat="43.0914249" lon="13.3449418"><ele>511.5</ele><time>2026-04-26T10:40:27.975Z</time></trkpt><trkpt lat="43.0914258" lon="13.345111"><ele>509.25</ele><time>2026-04-26T10:40:28.979Z</time></trkpt><trkpt lat="43.0914201" lon="13.3452774"><ele>507.0</ele><time>2026-04-26T10:40:29.975Z</time></trkpt><trkpt lat="43.0914092" lon="13.3454447"><ele>505.25</ele><time>2026-04-26T10:40:30.973Z</time></trkpt><trkpt lat="43.0913931" lon="13.345612"><ele>503.5</ele><time>2026-04-26T10:40:31.979Z</time></trkpt><trkpt lat="43.091375" lon="13.345779"><ele>501.75</ele><time>2026-04-26T10:40:32.975Z</time></trkpt><trkpt lat="43.0913619" lon="13.3459465"><ele>500.0</ele><time>2026-04-26T10:40:33.979Z</time></trkpt><trkpt lat="43.0913454" lon="13.3461079"><ele>500.0</ele><time>2026-04-26T10:40:34.975Z</time></trkpt><trkpt lat="43.0913311" lon="13.3462685"><ele>500.0</ele><time>2026-04-26T10:40:35.979Z</time></trkpt><trkpt lat="43.0913249" lon="13.3464214"><ele>500.0</ele><time>2026-04-26T10:40:36.975Z</time></trkpt><trkpt lat="43.0913318" lon="13.3465643"><ele>500.0</ele><time>2026-04-26T10:40:37.983Z</time></trkpt><trkpt lat="43.0913475" lon="13.3467042"><ele>500.0</ele><time>2026-04-26T10:40:38.97Z</time></trkpt><trkpt lat="43.0913771" lon="13.3468364"><ele>498.6</ele><time>2026-04-26T10:40:39.973Z</time></trkpt><trkpt lat="43.0914144" lon="13.3469652"><ele>497.2</ele><time>2026-04-26T10:40:40.979Z</time></trkpt><trkpt lat="43.0914564" lon="13.3471052"><ele>495.79999999999995</ele><time>2026-04-26T10:40:41.975Z</time></trkpt><trkpt lat="43.0914952" lon="13.3472556"><ele>494.4</ele><time>2026-04-26T10:40:42.973Z</time></trkpt><trkpt lat="43.0915339" lon="13.3474084"><ele>493.0</ele><time>2026-04-26T10:40:43.981Z</time></trkpt><trkpt lat="43.0915754" lon="13.3475704"><ele>492.5</ele><time>2026-04-26T10:40:44.986Z</time></trkpt><trkpt lat="43.0916198" lon="13.3477451"><ele>492.0</ele><time>2026-04-26T10:40:45.978Z</time></trkpt><trkpt lat="43.091669" lon="13.3479299"><ele>491.5</ele><time>2026-04-26T10:40:46.98Z</time></trkpt><trkpt lat="43.0917215" lon="13.3481283"><ele>491.0</ele><time>2026-04-26T10:40:47.977Z</time></trkpt><trkpt lat="43.091781" lon="13.3483294"><ele>490.0</ele><time>2026-04-26T10:40:48.973Z</time></trkpt><trkpt lat="43.091847" lon="13.3485313"><ele>489.0</ele><time>2026-04-26T10:40:49.973Z</time></trkpt><trkpt lat="43.0919103" lon="13.3487265"><ele>488.0</ele><time>2026-04-26T10:40:50.977Z</time></trkpt><trkpt lat="43.0919645" lon="13.3489219"><ele>486.25</ele><time>2026-04-26T10:40:51.978Z</time></trkpt><trkpt lat="43.0920053" lon="13.3491179"><ele>484.5</ele><time>2026-04-26T10:40:52.974Z</time></trkpt><trkpt lat="43.0920379" lon="13.3493117"><ele>482.75</ele><time>2026-04-26T10:40:53.973Z</time></trkpt><trkpt lat="43.0920668" lon="13.3495143"><ele>481.0</ele><time>2026-04-26T10:40:54.979Z</time></trkpt><trkpt lat="43.0920916" lon="13.3497262"><ele>479.6666666666667</ele><time>2026-04-26T10:40:55.977Z</time></trkpt><trkpt lat="43.0921168" lon="13.3499463"><ele>478.33333333333337</ele><time>2026-04-26T10:40:56.975Z</time></trkpt><trkpt lat="43.092143" lon="13.3501745"><ele>477.0</ele><time>2026-04-26T10:40:57.974Z</time></trkpt><trkpt lat="43.0921667" lon="13.350412"><ele>475.66666666666663</ele><time>2026-04-26T10:40:58.977Z</time></trkpt><trkpt lat="43.0921893" lon="13.3506597"><ele>474.3333333333333</ele><time>2026-04-26T10:40:59.971Z</time></trkpt><trkpt lat="43.0922091" lon="13.3509132"><ele>473.0</ele><time>2026-04-26T10:41:00.976Z</time></trkpt><trkpt lat="43.0922304" lon="13.351173"><ele>472.66666666666663</ele><time>2026-04-26T10:41:01.978Z</time></trkpt><trkpt lat="43.0922525" lon="13.3514355"><ele>472.33333333333337</ele><time>2026-04-26T10:41:02.979Z</time></trkpt><trkpt lat="43.0922859" lon="13.351699"><ele>472.0</ele><time>2026-04-26T10:41:03.975Z</time></trkpt><trkpt lat="43.0923337" lon="13.3519606"><ele>472.0</ele><time>2026-04-26T10:41:04.978Z</time></trkpt><trkpt lat="43.0923903" lon="13.3522064"><ele>472.0</ele><time>2026-04-26T10:41:05.976Z</time></trkpt><trkpt lat="43.0924494" lon="13.3524366"><ele>472.0</ele><time>2026-04-26T10:41:06.98Z</time></trkpt><trkpt lat="43.0925075" lon="13.3526564"><ele>476.5</ele><time>2026-04-26T10:41:07.979Z</time></trkpt><trkpt lat="43.0925585" lon="13.3528588"><ele>481.0</ele><time>2026-04-26T10:41:08.981Z</time></trkpt><trkpt lat="43.0926124" lon="13.3530429"><ele>485.5</ele><time>2026-04-26T10:41:09.975Z</time></trkpt><trkpt lat="43.0926837" lon="13.3532114"><ele>490.0</ele><time>2026-04-26T10:41:10.98Z</time></trkpt><trkpt lat="43.0927744" lon="13.3533602"><ele>491.6</ele><time>2026-04-26T10:41:11.979Z</time></trkpt><trkpt lat="43.0928592" lon="13.3534942"><ele>493.2</ele><time>2026-04-26T10:41:12.976Z</time></trkpt><trkpt lat="43.0929141" lon="13.3536254"><ele>494.79999999999995</ele><time>2026-04-26T10:41:13.975Z</time></trkpt><trkpt lat="43.0929209" lon="13.3537501"><ele>496.4</ele><time>2026-04-26T10:41:14.978Z</time></trkpt><trkpt lat="43.0929066" lon="13.3538549"><ele>498.0</ele><time>2026-04-26T10:41:15.978Z</time></trkpt><trkpt lat="43.0928022" lon="13.3539012"><ele>497.75</ele><time>2026-04-26T10:41:16.973Z</time></trkpt><trkpt lat="43.0926749" lon="13.3539433"><ele>497.5</ele><time>2026-04-26T10:41:17.972Z</time></trkpt><trkpt lat="43.0925352" lon="13.3540203"><ele>497.25</ele><time>2026-04-26T10:41:18.976Z</time></trkpt><trkpt lat="43.0924057" lon="13.3541262"><ele>497.0</ele><time>2026-04-26T10:41:19.972Z</time></trkpt><trkpt lat="43.0922887" lon="13.354217"><ele>497.0</ele><time>2026-04-26T10:41:20.972Z</time></trkpt><trkpt lat="43.0922033" lon="13.3543755"><ele>497.0</ele><time>2026-04-26T10:41:21.971Z</time></trkpt><trkpt lat="43.0921291" lon="13.3545448"><ele>497.0</ele><time>2026-04-26T10:41:22.973Z</time></trkpt><trkpt lat="43.0920539" lon="13.3547228"><ele>497.0</ele><time>2026-04-26T10:41:23.976Z</time></trkpt><trkpt lat="43.09198" lon="13.3548968"><ele>500.75</ele><time>2026-04-26T10:41:24.977Z</time></trkpt><trkpt lat="43.0919007" lon="13.3550621"><ele>504.5</ele><time>2026-04-26T10:41:25.977Z</time></trkpt><trkpt lat="43.0918118" lon="13.3551913"><ele>508.25</ele><time>2026-04-26T10:41:26.974Z</time></trkpt><trkpt lat="43.0917321" lon="13.3553037"><ele>512.0</ele><time>2026-04-26T10:41:27.977Z</time></trkpt><trkpt lat="43.0916341" lon="13.3553917"><ele>510.20000000000005</ele><time>2026-04-26T10:41:28.974Z</time></trkpt><trkpt lat="43.0915597" lon="13.3554768"><ele>508.40000000000003</ele><time>2026-04-26T10:41:29.976Z</time></trkpt><trkpt lat="43.0915055" lon="13.3555713"><ele>506.59999999999997</ele><time>2026-04-26T10:41:30.976Z</time></trkpt><trkpt lat="43.0914869" lon="13.355682"><ele>504.79999999999995</ele><time>2026-04-26T10:41:31.976Z</time></trkpt><trkpt lat="43.0914873" lon="13.3558173"><ele>503.0</ele><time>2026-04-26T10:41:32.973Z</time></trkpt><trkpt lat="43.0914939" lon="13.3559856"><ele>503.0</ele><time>2026-04-26T10:41:33.973Z</time></trkpt><trkpt lat="43.0915182" lon="13.3561682"><ele>503.0</ele><time>2026-04-26T10:41:34.979Z</time></trkpt><trkpt lat="43.0915449" lon="13.3563554"><ele>503.0</ele><time>2026-04-26T10:41:35.974Z</time></trkpt><trkpt lat="43.0915928" lon="13.3565456"><ele>503.0</ele><time>2026-04-26T10:41:36.98Z</time></trkpt><trkpt lat="43.0916527" lon="13.3567339"><ele>507.0</ele><time>2026-04-26T10:41:37.978Z</time></trkpt><trkpt lat="43.0917311" lon="13.3569285"><ele>511.0</ele><time>2026-04-26T10:41:38.982Z</time></trkpt><trkpt lat="43.0918127" lon="13.3571207"><ele>515.0</ele><time>2026-04-26T10:41:39.974Z</time></trkpt><trkpt lat="43.0918991" lon="13.3573113"><ele>515.0</ele><time>2026-04-26T10:41:40.974Z</time></trkpt><trkpt lat="43.0919915" lon="13.3575027"><ele>515.0</ele><time>2026-04-26T10:41:41.976Z</time></trkpt><trkpt lat="43.0920793" lon="13.3577097"><ele>515.0</ele><time>2026-04-26T10:41:42.976Z</time></trkpt><trkpt lat="43.0921628" lon="13.3579077"><ele>512.0</ele><time>2026-04-26T10:41:43.972Z</time></trkpt><trkpt lat="43.0922486" lon="13.3580979"><ele>509.0</ele><time>2026-04-26T10:41:44.976Z</time></trkpt><trkpt lat="43.0923383" lon="13.3582755"><ele>506.0</ele><time>2026-04-26T10:41:45.975Z</time></trkpt><trkpt lat="43.092438" lon="13.3584482"><ele>508.66666666666663</ele><time>2026-04-26T10:41:46.983Z</time></trkpt><trkpt lat="43.0925433" lon="13.35862"><ele>511.33333333333337</ele><time>2026-04-26T10:41:47.982Z</time></trkpt><trkpt lat="43.0926478" lon="13.358788"><ele>514.0</ele><time>2026-04-26T10:41:48.975Z</time></trkpt><trkpt lat="43.0927287" lon="13.3589616"><ele>514.0</ele><time>2026-04-26T10:41:49.976Z</time></trkpt><trkpt lat="43.0927987" lon="13.359121"><ele>514.0</ele><time>2026-04-26T10:41:50.978Z</time></trkpt><trkpt lat="43.0928589" lon="13.3593039"><ele>514.0</ele><time>2026-04-26T10:41:51.973Z</time></trkpt><trkpt lat="43.0929038" lon="13.3595089"><ele>514.0</ele><time>2026-04-26T10:41:52.981Z</time></trkpt><trkpt lat="43.092951" lon="13.3597317"><ele>512.6666666666667</ele><time>2026-04-26T10:41:53.978Z</time></trkpt><trkpt lat="43.0930049" lon="13.3599548"><ele>511.33333333333337</ele><time>2026-04-26T10:41:54.979Z</time></trkpt><trkpt lat="43.0930672" lon="13.3601696"><ele>510.0</ele><time>2026-04-26T10:41:55.978Z</time></trkpt><trkpt lat="43.0931391" lon="13.3603793"><ele>509.33333333333337</ele><time>2026-04-26T10:41:56.972Z</time></trkpt><trkpt lat="43.0931985" lon="13.3605973"><ele>508.6666666666667</ele><time>2026-04-26T10:41:57.97Z</time></trkpt><trkpt lat="43.0932375" lon="13.3608096"><ele>508.0</ele><time>2026-04-26T10:41:58.98Z</time></trkpt><trkpt lat="43.0932657" lon="13.3610194"><ele>510.0</ele><time>2026-04-26T10:41:59.973Z</time></trkpt><trkpt lat="43.0932948" lon="13.3612298"><ele>512.0</ele><time>2026-04-26T10:42:00.977Z</time></trkpt><trkpt lat="43.093327" lon="13.3614427"><ele>514.0</ele><time>2026-04-26T10:42:01.983Z</time></trkpt><trkpt lat="43.0933588" lon="13.3616613"><ele>515.6666666666667</ele><time>2026-04-26T10:42:02.976Z</time></trkpt><trkpt lat="43.093389" lon="13.3618845"><ele>517.3333333333334</ele><time>2026-04-26T10:42:03.975Z</time></trkpt><trkpt lat="43.093413" lon="13.3621103"><ele>519.0</ele><time>2026-04-26T10:42:04.985Z</time></trkpt><trkpt lat="43.0934285" lon="13.3623407"><ele>520.6666666666666</ele><time>2026-04-26T10:42:05.982Z</time></trkpt><trkpt lat="43.0934375" lon="13.3625654"><ele>522.3333333333333</ele><time>2026-04-26T10:42:06.984Z</time></trkpt><trkpt lat="43.0934467" lon="13.3627798"><ele>524.0</ele><time>2026-04-26T10:42:07.976Z</time></trkpt><trkpt lat="43.0934706" lon="13.3629904"><ele>524.3333333333333</ele><time>2026-04-26T10:42:08.978Z</time></trkpt><trkpt lat="43.0935129" lon="13.3631965"><ele>524.6666666666666</ele><time>2026-04-26T10:42:09.971Z</time></trkpt><trkpt lat="43.093571" lon="13.3634011"><ele>525.0</ele><time>2026-04-26T10:42:10.977Z</time></trkpt><trkpt lat="43.0936328" lon="13.3636033"><ele>525.0</ele><time>2026-04-26T10:42:11.975Z</time></trkpt><trkpt lat="43.093687" lon="13.3638076"><ele>525.0</ele><time>2026-04-26T10:42:12.979Z</time></trkpt><trkpt lat="43.093733" lon="13.3640143"><ele>525.0</ele><time>2026-04-26T10:42:13.986Z</time></trkpt><trkpt lat="43.0937771" lon="13.3642224"><ele>524.0</ele><time>2026-04-26T10:42:14.979Z</time></trkpt><trkpt lat="43.09382" lon="13.3644287"><ele>523.0</ele><time>2026-04-26T10:42:15.982Z</time></trkpt><trkpt lat="43.0938582" lon="13.3646297"><ele>522.0</ele><time>2026-04-26T10:42:16.968Z</time></trkpt><trkpt lat="43.0938805" lon="13.3648372"><ele>519.25</ele><time>2026-04-26T10:42:17.981Z</time></trkpt><trkpt lat="43.0938825" lon="13.3650464"><ele>516.5</ele><time>2026-04-26T10:42:18.976Z</time></trkpt><trkpt lat="43.093869" lon="13.3652556"><ele>513.75</ele><time>2026-04-26T10:42:19.978Z</time></trkpt><trkpt lat="43.0938535" lon="13.3654457"><ele>511.0</ele><time>2026-04-26T10:42:20.975Z</time></trkpt><trkpt lat="43.0938487" lon="13.3656198"><ele>510.25</ele><time>2026-04-26T10:42:21.982Z</time></trkpt><trkpt lat="43.0938547" lon="13.3658022"><ele>509.5</ele><time>2026-04-26T10:42:22.971Z</time></trkpt><trkpt lat="43.0938637" lon="13.3660051"><ele>508.75</ele><time>2026-04-26T10:42:23.984Z</time></trkpt><trkpt lat="43.093865" lon="13.3662076"><ele>508.0</ele><time>2026-04-26T10:42:24.971Z</time></trkpt><trkpt lat="43.09385" lon="13.3664069"><ele>508.0</ele><time>2026-04-26T10:42:25.975Z</time></trkpt><trkpt lat="43.0938145" lon="13.3666039"><ele>508.0</ele><time>2026-04-26T10:42:26.976Z</time></trkpt><trkpt lat="43.0937594" lon="13.3667812"><ele>508.0</ele><time>2026-04-26T10:42:27.972Z</time></trkpt><trkpt lat="43.0937013" lon="13.3669333"><ele>508.0</ele><time>2026-04-26T10:42:28.986Z</time></trkpt><trkpt lat="43.0936574" lon="13.3670778"><ele>509.0</ele><time>2026-04-26T10:42:29.979Z</time></trkpt><trkpt lat="43.0936289" lon="13.3672394"><ele>510.0</ele><time>2026-04-26T10:42:30.975Z</time></trkpt><trkpt lat="43.0936048" lon="13.3674237"><ele>511.0</ele><time>2026-04-26T10:42:31.975Z</time></trkpt><trkpt lat="43.0935712" lon="13.3676147"><ele>512.0</ele><time>2026-04-26T10:42:32.986Z</time></trkpt><trkpt lat="43.0935304" lon="13.3678127"><ele>512.0</ele><time>2026-04-26T10:42:33.977Z</time></trkpt><trkpt lat="43.0934828" lon="13.3680124"><ele>512.0</ele><time>2026-04-26T10:42:34.977Z</time></trkpt><trkpt lat="43.0934308" lon="13.3682052"><ele>512.0</ele><time>2026-04-26T10:42:35.979Z</time></trkpt><trkpt lat="43.0933859" lon="13.3683871"><ele>512.0</ele><time>2026-04-26T10:42:36.974Z</time></trkpt><trkpt lat="43.093352" lon="13.3685775"><ele>512.3333333333333</ele><time>2026-04-26T10:42:37.98Z</time></trkpt><trkpt lat="43.0933153" lon="13.3687788"><ele>512.6666666666666</ele><time>2026-04-26T10:42:38.978Z</time></trkpt><trkpt lat="43.0932637" lon="13.3689827"><ele>513.0</ele><time>2026-04-26T10:42:39.978Z</time></trkpt><trkpt lat="43.0932047" lon="13.3691868"><ele>513.6666666666666</ele><time>2026-04-26T10:42:40.981Z</time></trkpt><trkpt lat="43.093144" lon="13.3693906"><ele>514.3333333333333</ele><time>2026-04-26T10:42:41.979Z</time></trkpt><trkpt lat="43.093086" lon="13.369595"><ele>515.0</ele><time>2026-04-26T10:42:42.986Z</time></trkpt><trkpt lat="43.0930315" lon="13.3697981"><ele>515.0</ele><time>2026-04-26T10:42:43.97Z</time></trkpt><trkpt lat="43.092979" lon="13.3700027"><ele>515.0</ele><time>2026-04-26T10:42:44.976Z</time></trkpt><trkpt lat="43.0929273" lon="13.3702081"><ele>515.0</ele><time>2026-04-26T10:42:45.977Z</time></trkpt><trkpt lat="43.0928693" lon="13.3704072"><ele>517.3333333333333</ele><time>2026-04-26T10:42:46.988Z</time></trkpt><trkpt lat="43.0928011" lon="13.370597"><ele>519.6666666666666</ele><time>2026-04-26T10:42:47.97Z</time></trkpt><trkpt lat="43.092716" lon="13.3707705"><ele>522.0</ele><time>2026-04-26T10:42:48.988Z</time></trkpt><trkpt lat="43.0926178" lon="13.3709248"><ele>522.0</ele><time>2026-04-26T10:42:49.977Z</time></trkpt><trkpt lat="43.0925214" lon="13.3710771"><ele>522.0</ele><time>2026-04-26T10:42:50.979Z</time></trkpt><trkpt lat="43.0924378" lon="13.371245"><ele>522.0</ele><time>2026-04-26T10:42:51.97Z</time></trkpt><trkpt lat="43.0923671" lon="13.3714282"><ele>522.0</ele><time>2026-04-26T10:42:52.979Z</time></trkpt><trkpt lat="43.0923024" lon="13.3716147"><ele>522.25</ele><time>2026-04-26T10:42:53.977Z</time></trkpt><trkpt lat="43.0922376" lon="13.3717962"><ele>522.5</ele><time>2026-04-26T10:42:54.975Z</time></trkpt><trkpt lat="43.0921716" lon="13.3719663"><ele>522.75</ele><time>2026-04-26T10:42:55.984Z</time></trkpt><trkpt lat="43.0921135" lon="13.3721103"><ele>523.0</ele><time>2026-04-26T10:42:56.98Z</time></trkpt><trkpt lat="43.0920718" lon="13.3722328"><ele>525.4</ele><time>2026-04-26T10:42:57.982Z</time></trkpt><trkpt lat="43.092057" lon="13.3723414"><ele>527.8</ele><time>2026-04-26T10:42:58.982Z</time></trkpt><trkpt lat="43.0920702" lon="13.372456"><ele>530.2</ele><time>2026-04-26T10:42:59.976Z</time></trkpt><trkpt lat="43.0921027" lon="13.372578"><ele>532.6</ele><time>2026-04-26T10:43:00.973Z</time></trkpt><trkpt lat="43.092139" lon="13.3727082"><ele>535.0</ele><time>2026-04-26T10:43:01.976Z</time></trkpt><trkpt lat="43.0921753" lon="13.3728472"><ele>535.0</ele><time>2026-04-26T10:43:02.977Z</time></trkpt><trkpt lat="43.0921934" lon="13.3729909"><ele>535.0</ele><time>2026-04-26T10:43:03.976Z</time></trkpt><trkpt lat="43.0921839" lon="13.3731381"><ele>535.0</ele><time>2026-04-26T10:43:04.978Z</time></trkpt><trkpt lat="43.0921587" lon="13.3732958"><ele>535.0</ele><time>2026-04-26T10:43:05.975Z</time></trkpt><trkpt lat="43.0921305" lon="13.3734632"><ele>538.0</ele><time>2026-04-26T10:43:06.977Z</time></trkpt><trkpt lat="43.0920977" lon="13.3736374"><ele>541.0</ele><time>2026-04-26T10:43:07.973Z</time></trkpt><trkpt lat="43.0920585" lon="13.3738107"><ele>544.0</ele><time>2026-04-26T10:43:08.981Z</time></trkpt><trkpt lat="43.0920202" lon="13.3739866"><ele>547.0</ele><time>2026-04-26T10:43:09.981Z</time></trkpt><trkpt lat="43.0919835" lon="13.3741652"><ele>549.75</ele><time>2026-04-26T10:43:10.977Z</time></trkpt><trkpt lat="43.0919497" lon="13.3743423"><ele>552.5</ele><time>2026-04-26T10:43:11.983Z</time></trkpt><trkpt lat="43.0919272" lon="13.3745178"><ele>555.25</ele><time>2026-04-26T10:43:12.976Z</time></trkpt><trkpt lat="43.0919215" lon="13.3746903"><ele>558.0</ele><time>2026-04-26T10:43:13.98Z</time></trkpt><trkpt lat="43.0919273" lon="13.3748701"><ele>559.75</ele><time>2026-04-26T10:43:14.98Z</time></trkpt><trkpt lat="43.0919393" lon="13.3750532"><ele>561.5</ele><time>2026-04-26T10:43:15.974Z</time></trkpt><trkpt lat="43.0919655" lon="13.3752317"><ele>563.25</ele><time>2026-04-26T10:43:16.978Z</time></trkpt><trkpt lat="43.0920139" lon="13.3753992"><ele>565.0</ele><time>2026-04-26T10:43:17.975Z</time></trkpt><trkpt lat="43.0920889" lon="13.3755617"><ele>565.3333333333334</ele><time>2026-04-26T10:43:18.972Z</time></trkpt><trkpt lat="43.0921807" lon="13.3757291"><ele>565.6666666666666</ele><time>2026-04-26T10:43:19.983Z</time></trkpt><trkpt lat="43.0922712" lon="13.3758943"><ele>566.0</ele><time>2026-04-26T10:43:20.976Z</time></trkpt><trkpt lat="43.0923571" lon="13.3760566"><ele>565.75</ele><time>2026-04-26T10:43:21.978Z</time></trkpt><trkpt lat="43.0924259" lon="13.3762131"><ele>565.5</ele><time>2026-04-26T10:43:22.976Z</time></trkpt><trkpt lat="43.0924889" lon="13.3763601"><ele>565.25</ele><time>2026-04-26T10:43:23.985Z</time></trkpt><trkpt lat="43.092518" lon="13.3765421"><ele>565.0</ele><time>2026-04-26T10:43:24.977Z</time></trkpt><trkpt lat="43.0925344" lon="13.3766936"><ele>567.0</ele><time>2026-04-26T10:43:25.984Z</time></trkpt><trkpt lat="43.0925415" lon="13.3768136"><ele>569.0</ele><time>2026-04-26T10:43:26.99Z</time></trkpt><trkpt lat="43.0925381" lon="13.3769277"><ele>571.0</ele><time>2026-04-26T10:43:27.974Z</time></trkpt><trkpt lat="43.0925311" lon="13.3770537"><ele>573.0</ele><time>2026-04-26T10:43:28.977Z</time></trkpt><trkpt lat="43.0925168" lon="13.3771893"><ele>575.0</ele><time>2026-04-26T10:43:29.977Z</time></trkpt><trkpt lat="43.0924957" lon="13.3773371"><ele>575.25</ele><time>2026-04-26T10:43:30.977Z</time></trkpt><trkpt lat="43.092477" lon="13.3774957"><ele>575.5</ele><time>2026-04-26T10:43:31.977Z</time></trkpt><trkpt lat="43.0924705" lon="13.3776576"><ele>575.75</ele><time>2026-04-26T10:43:32.981Z</time></trkpt><trkpt lat="43.0924733" lon="13.3778212"><ele>576.0</ele><time>2026-04-26T10:43:33.976Z</time></trkpt><trkpt lat="43.0924994" lon="13.3779739"><ele>575.0</ele><time>2026-04-26T10:43:34.976Z</time></trkpt><trkpt lat="43.0925471" lon="13.3781274"><ele>574.0</ele><time>2026-04-26T10:43:35.974Z</time></trkpt><trkpt lat="43.0925993" lon="13.378276"><ele>573.0</ele><time>2026-04-26T10:43:36.978Z</time></trkpt><trkpt lat="43.0926306" lon="13.3784304"><ele>572.0</ele><time>2026-04-26T10:43:37.98Z</time></trkpt><trkpt lat="43.0926317" lon="13.3785977"><ele>572.0</ele><time>2026-04-26T10:43:38.981Z</time></trkpt><trkpt lat="43.0925966" lon="13.3787701"><ele>572.0</ele><time>2026-04-26T10:43:39.975Z</time></trkpt><trkpt lat="43.0925381" lon="13.3789466"><ele>572.0</ele><time>2026-04-26T10:43:40.976Z</time></trkpt><trkpt lat="43.0924732" lon="13.3791368"><ele>572.0</ele><time>2026-04-26T10:43:41.986Z</time></trkpt><trkpt lat="43.0924105" lon="13.3793266"><ele>569.75</ele><time>2026-04-26T10:43:42.983Z</time></trkpt><trkpt lat="43.0923497" lon="13.3795115"><ele>567.5</ele><time>2026-04-26T10:43:43.981Z</time></trkpt><trkpt lat="43.0922895" lon="13.3796845"><ele>565.25</ele><time>2026-04-26T10:43:44.99Z</time></trkpt><trkpt lat="43.0922383" lon="13.3798484"><ele>563.0</ele><time>2026-04-26T10:43:45.98Z</time></trkpt><trkpt lat="43.0922106" lon="13.3800109"><ele>563.0</ele><time>2026-04-26T10:43:46.978Z</time></trkpt><trkpt lat="43.0922144" lon="13.3801716"><ele>563.0</ele><time>2026-04-26T10:43:47.986Z</time></trkpt><trkpt lat="43.092251" lon="13.3803416"><ele>563.0</ele><time>2026-04-26T10:43:48.987Z</time></trkpt><trkpt lat="43.0923164" lon="13.3805162"><ele>563.0</ele><time>2026-04-26T10:43:49.994Z</time></trkpt><trkpt lat="43.0923939" lon="13.3806948"><ele>562.25</ele><time>2026-04-26T10:43:50.979Z</time></trkpt><trkpt lat="43.0924786" lon="13.3808657"><ele>561.5</ele><time>2026-04-26T10:43:51.972Z</time></trkpt><trkpt lat="43.0925639" lon="13.3810232"><ele>560.75</ele><time>2026-04-26T10:43:52.978Z</time></trkpt><trkpt lat="43.0926462" lon="13.3811831"><ele>560.0</ele><time>2026-04-26T10:43:53.984Z</time></trkpt><trkpt lat="43.092739" lon="13.3813404"><ele>558.6666666666666</ele><time>2026-04-26T10:43:54.98Z</time></trkpt><trkpt lat="43.0928548" lon="13.3814797"><ele>557.3333333333334</ele><time>2026-04-26T10:43:55.978Z</time></trkpt><trkpt lat="43.0929875" lon="13.3816098"><ele>556.0</ele><time>2026-04-26T10:43:56.988Z</time></trkpt><trkpt lat="43.0931279" lon="13.381737"><ele>553.6666666666667</ele><time>2026-04-26T10:43:57.982Z</time></trkpt><trkpt lat="43.0932802" lon="13.3818519"><ele>551.3333333333334</ele><time>2026-04-26T10:43:58.987Z</time></trkpt><trkpt lat="43.0934429" lon="13.3819518"><ele>549.0</ele><time>2026-04-26T10:43:59.98Z</time></trkpt><trkpt lat="43.093611" lon="13.3820483"><ele>549.0</ele><time>2026-04-26T10:44:00.977Z</time></trkpt><trkpt lat="43.0937824" lon="13.3821429"><ele>549.0</ele><time>2026-04-26T10:44:01.989Z</time></trkpt><trkpt lat="43.0939572" lon="13.3822268"><ele>549.0</ele><time>2026-04-26T10:44:02.98Z</time></trkpt><trkpt lat="43.0941371" lon="13.3822949"><ele>547.6666666666666</ele><time>2026-04-26T10:44:03.989Z</time></trkpt><trkpt lat="43.0943209" lon="13.3823519"><ele>546.3333333333333</ele><time>2026-04-26T10:44:04.976Z</time></trkpt><trkpt lat="43.094503" lon="13.3824185"><ele>545.0</ele><time>2026-04-26T10:44:05.975Z</time></trkpt><trkpt lat="43.0946836" lon="13.3825013"><ele>545.0</ele><time>2026-04-26T10:44:06.974Z</time></trkpt><trkpt lat="43.0948639" lon="13.3825933"><ele>545.0</ele><time>2026-04-26T10:44:07.98Z</time></trkpt><trkpt lat="43.0950438" lon="13.3826888"><ele>545.0</ele><time>2026-04-26T10:44:08.988Z</time></trkpt><trkpt lat="43.0952208" lon="13.3827856"><ele>544.3333333333333</ele><time>2026-04-26T10:44:09.99Z</time></trkpt><trkpt lat="43.0953952" lon="13.38288"><ele>543.6666666666666</ele><time>2026-04-26T10:44:10.983Z</time></trkpt><trkpt lat="43.0955666" lon="13.3829682"><ele>543.0</ele><time>2026-04-26T10:44:11.987Z</time></trkpt><trkpt lat="43.0957381" lon="13.3830506"><ele>545.0</ele><time>2026-04-26T10:44:12.977Z</time></trkpt><trkpt lat="43.0958871" lon="13.3831437"><ele>547.0</ele><time>2026-04-26T10:44:13.987Z</time></trkpt><trkpt lat="43.0960297" lon="13.3832321"><ele>549.0</ele><time>2026-04-26T10:44:14.988Z</time></trkpt><trkpt lat="43.096167" lon="13.3833366"><ele>549.0</ele><time>2026-04-26T10:44:15.983Z</time></trkpt><trkpt lat="43.0963037" lon="13.3834528"><ele>549.0</ele><time>2026-04-26T10:44:16.975Z</time></trkpt><trkpt lat="43.0964272" lon="13.3835928"><ele>549.0</ele><time>2026-04-26T10:44:17.984Z</time></trkpt><trkpt lat="43.0965485" lon="13.3837462"><ele>548.3333333333334</ele><time>2026-04-26T10:44:18.981Z</time></trkpt><trkpt lat="43.0966523" lon="13.3839039"><ele>547.6666666666667</ele><time>2026-04-26T10:44:19.978Z</time></trkpt><trkpt lat="43.0967351" lon="13.3840726"><ele>547.0</ele><time>2026-04-26T10:44:20.975Z</time></trkpt><trkpt lat="43.0968091" lon="13.384252"><ele>547.0</ele><time>2026-04-26T10:44:21.983Z</time></trkpt><trkpt lat="43.0968704" lon="13.384433"><ele>547.0</ele><time>2026-04-26T10:44:22.983Z</time></trkpt><trkpt lat="43.0969213" lon="13.3846103"><ele>547.0</ele><time>2026-04-26T10:44:23.982Z</time></trkpt><trkpt lat="43.0969254" lon="13.3848162"><ele>547.0</ele><time>2026-04-26T10:44:24.986Z</time></trkpt><trkpt lat="43.0969219" lon="13.3850223"><ele>546.0</ele><time>2026-04-26T10:44:25.979Z</time></trkpt><trkpt lat="43.0969175" lon="13.3852247"><ele>545.0</ele><time>2026-04-26T10:44:26.98Z</time></trkpt><trkpt lat="43.0969095" lon="13.3854279"><ele>544.0</ele><time>2026-04-26T10:44:27.97Z</time></trkpt><trkpt lat="43.0968565" lon="13.3855997"><ele>543.0</ele><time>2026-04-26T10:44:28.979Z</time></trkpt><trkpt lat="43.0968176" lon="13.385729"><ele>540.6</ele><time>2026-04-26T10:44:29.979Z</time></trkpt><trkpt lat="43.0967667" lon="13.3858203"><ele>538.1999999999999</ele><time>2026-04-26T10:44:30.983Z</time></trkpt><trkpt lat="43.0966904" lon="13.3858681"><ele>535.8</ele><time>2026-04-26T10:44:31.983Z</time></trkpt><trkpt lat="43.0966042" lon="13.3858545"><ele>533.4</ele><time>2026-04-26T10:44:32.99Z</time></trkpt><trkpt lat="43.0965084" lon="13.3857941"><ele>531.0</ele><time>2026-04-26T10:44:33.976Z</time></trkpt><trkpt lat="43.0964046" lon="13.385721"><ele>528.3333333333334</ele><time>2026-04-26T10:44:34.978Z</time></trkpt><trkpt lat="43.0963207" lon="13.3856534"><ele>525.6666666666666</ele><time>2026-04-26T10:44:35.971Z</time></trkpt><trkpt lat="43.0962512" lon="13.3856089"><ele>523.0</ele><time>2026-04-26T10:44:36.976Z</time></trkpt><trkpt lat="43.096188" lon="13.3856052"><ele>520.3333333333333</ele><time>2026-04-26T10:44:37.976Z</time></trkpt><trkpt lat="43.0961222" lon="13.3857179"><ele>517.6666666666666</ele><time>2026-04-26T10:44:39.98Z</time></trkpt><trkpt lat="43.0961316" lon="13.3858072"><ele>515.0</ele><time>2026-04-26T10:44:40.983Z</time></trkpt><trkpt lat="43.0961605" lon="13.3859299"><ele>515.0</ele><time>2026-04-26T10:44:41.982Z</time></trkpt><trkpt lat="43.0962085" lon="13.3860657"><ele>515.0</ele><time>2026-04-26T10:44:42.984Z</time></trkpt><trkpt lat="43.0962745" lon="13.3861927"><ele>515.0</ele><time>2026-04-26T10:44:43.978Z</time></trkpt><trkpt lat="43.0963464" lon="13.386313"><ele>515.0</ele><time>2026-04-26T10:44:44.977Z</time></trkpt><trkpt lat="43.0964134" lon="13.3864335"><ele>515.0</ele><time>2026-04-26T10:44:45.98Z</time></trkpt><trkpt lat="43.0964879" lon="13.3865446"><ele>515.0</ele><time>2026-04-26T10:44:46.98Z</time></trkpt><trkpt lat="43.0965701" lon="13.3866439"><ele>515.0</ele><time>2026-04-26T10:44:47.988Z</time></trkpt><trkpt lat="43.0966579" lon="13.3867415"><ele>515.0</ele><time>2026-04-26T10:44:48.985Z</time></trkpt><trkpt lat="43.0967716" lon="13.3868092"><ele>515.0</ele><time>2026-04-26T10:44:49.979Z</time></trkpt><trkpt lat="43.0968944" lon="13.3868681"><ele>515.0</ele><time>2026-04-26T10:44:50.98Z</time></trkpt><trkpt lat="43.09702" lon="13.3869002"><ele>515.0</ele><time>2026-04-26T10:44:51.987Z</time></trkpt><trkpt lat="43.0971483" lon="13.3869163"><ele>515.0</ele><time>2026-04-26T10:44:52.978Z</time></trkpt><trkpt lat="43.0972681" lon="13.386935"><ele>515.0</ele><time>2026-04-26T10:44:53.978Z</time></trkpt><trkpt lat="43.0974013" lon="13.3869424"><ele>513.5</ele><time>2026-04-26T10:44:54.982Z</time></trkpt><trkpt lat="43.0975237" lon="13.3869484"><ele>512.0</ele><time>2026-04-26T10:44:55.984Z</time></trkpt><trkpt lat="43.0976412" lon="13.3869531"><ele>510.5</ele><time>2026-04-26T10:44:56.979Z</time></trkpt><trkpt lat="43.0977492" lon="13.3869494"><ele>509.0</ele><time>2026-04-26T10:44:57.982Z</time></trkpt><trkpt lat="43.0978508" lon="13.3869392"><ele>509.0</ele><time>2026-04-26T10:44:58.973Z</time></trkpt><trkpt lat="43.0979458" lon="13.3869431"><ele>509.0</ele><time>2026-04-26T10:44:59.976Z</time></trkpt><trkpt lat="43.0980278" lon="13.3869832"><ele>509.0</ele><time>2026-04-26T10:45:00.973Z</time></trkpt><trkpt lat="43.0980984" lon="13.3870649"><ele>509.0</ele><time>2026-04-26T10:45:01.978Z</time></trkpt><trkpt lat="43.0981564" lon="13.387177"><ele>509.0</ele><time>2026-04-26T10:45:02.979Z</time></trkpt><trkpt lat="43.0982113" lon="13.3872973"><ele>504.99999999999994</ele><time>2026-04-26T10:45:03.979Z</time></trkpt><trkpt lat="43.0982672" lon="13.387411"><ele>501.0</ele><time>2026-04-26T10:45:04.977Z</time></trkpt><trkpt lat="43.0983227" lon="13.3875202"><ele>497.0</ele><time>2026-04-26T10:45:05.976Z</time></trkpt><trkpt lat="43.0983725" lon="13.387617"><ele>493.0</ele><time>2026-04-26T10:45:06.983Z</time></trkpt><trkpt lat="43.0984118" lon="13.3876989"><ele>488.99999999999994</ele><time>2026-04-26T10:45:07.981Z</time></trkpt><trkpt lat="43.0984527" lon="13.3878028"><ele>485.0</ele><time>2026-04-26T10:45:09.975Z</time></trkpt><trkpt lat="43.0984934" lon="13.3879112"><ele>483.4</ele><time>2026-04-26T10:45:45.97Z</time></trkpt><trkpt lat="43.0985612" lon="13.3880456"><ele>481.8</ele><time>2026-04-26T10:45:47.967Z</time></trkpt><trkpt lat="43.0986018" lon="13.3881339"><ele>480.20000000000005</ele><time>2026-04-26T10:45:48.965Z</time></trkpt><trkpt lat="43.0986338" lon="13.3882683"><ele>478.6</ele><time>2026-04-26T10:45:49.97Z</time></trkpt><trkpt lat="43.0986504" lon="13.3884498"><ele>477.0</ele><time>2026-04-26T10:45:50.968Z</time></trkpt><trkpt lat="43.0986572" lon="13.3886634"><ele>477.33333333333337</ele><time>2026-04-26T10:45:51.983Z</time></trkpt><trkpt lat="43.0986427" lon="13.3888784"><ele>477.6666666666667</ele><time>2026-04-26T10:45:52.975Z</time></trkpt><trkpt lat="43.0986036" lon="13.3890748"><ele>478.0</ele><time>2026-04-26T10:45:53.974Z</time></trkpt><trkpt lat="43.0985459" lon="13.3892567"><ele>478.0</ele><time>2026-04-26T10:45:54.973Z</time></trkpt><trkpt lat="43.0984682" lon="13.3894236"><ele>478.0</ele><time>2026-04-26T10:45:55.975Z</time></trkpt><trkpt lat="43.0983613" lon="13.3895619"><ele>478.0</ele><time>2026-04-26T10:45:56.981Z</time></trkpt><trkpt lat="43.0982246" lon="13.3896684"><ele>478.0</ele><time>2026-04-26T10:45:57.974Z</time></trkpt><trkpt lat="43.0980659" lon="13.3897295"><ele>478.6666666666667</ele><time>2026-04-26T10:45:58.972Z</time></trkpt><trkpt lat="43.097906" lon="13.3897432"><ele>479.33333333333337</ele><time>2026-04-26T10:45:59.975Z</time></trkpt><trkpt lat="43.0977543" lon="13.3897416"><ele>480.0</ele><time>2026-04-26T10:46:00.976Z</time></trkpt><trkpt lat="43.0975974" lon="13.3897716"><ele>480.0</ele><time>2026-04-26T10:46:01.975Z</time></trkpt><trkpt lat="43.0974414" lon="13.3898441"><ele>480.0</ele><time>2026-04-26T10:46:02.979Z</time></trkpt><trkpt lat="43.0973009" lon="13.3899417"><ele>480.0</ele><time>2026-04-26T10:46:03.972Z</time></trkpt><trkpt lat="43.0971823" lon="13.3900619"><ele>476.25</ele><time>2026-04-26T10:46:04.97Z</time></trkpt><trkpt lat="43.0970881" lon="13.3902058"><ele>472.5</ele><time>2026-04-26T10:46:05.964Z</time></trkpt><trkpt lat="43.0970126" lon="13.3903509"><ele>468.75</ele><time>2026-04-26T10:46:06.975Z</time></trkpt><trkpt lat="43.0969771" lon="13.3905194"><ele>465.0</ele><time>2026-04-26T10:46:07.972Z</time></trkpt><trkpt lat="43.0969816" lon="13.3907035"><ele>465.0</ele><time>2026-04-26T10:46:08.971Z</time></trkpt><trkpt lat="43.0970328" lon="13.3909071"><ele>465.0</ele><time>2026-04-26T10:46:09.968Z</time></trkpt><trkpt lat="43.0971077" lon="13.3910977"><ele>465.0</ele><time>2026-04-26T10:46:10.969Z</time></trkpt><trkpt lat="43.0972106" lon="13.39125"><ele>468.0</ele><time>2026-04-26T10:46:11.969Z</time></trkpt><trkpt lat="43.0973442" lon="13.3913572"><ele>471.0</ele><time>2026-04-26T10:46:12.97Z</time></trkpt><trkpt lat="43.097503" lon="13.3914133"><ele>474.0</ele><time>2026-04-26T10:46:13.966Z</time></trkpt><trkpt lat="43.097653" lon="13.3914577"><ele>474.0</ele><time>2026-04-26T10:46:14.968Z</time></trkpt><trkpt lat="43.0977945" lon="13.3915071"><ele>474.0</ele><time>2026-04-26T10:46:15.968Z</time></trkpt><trkpt lat="43.0979248" lon="13.3915804"><ele>474.0</ele><time>2026-04-26T10:46:16.969Z</time></trkpt><trkpt lat="43.0980259" lon="13.3916831"><ele>474.0</ele><time>2026-04-26T10:46:17.972Z</time></trkpt><trkpt lat="43.0980966" lon="13.3918245"><ele>474.0</ele><time>2026-04-26T10:46:18.971Z</time></trkpt><trkpt lat="43.0981336" lon="13.391997"><ele>474.0</ele><time>2026-04-26T10:46:19.968Z</time></trkpt><trkpt lat="43.0981265" lon="13.3921798"><ele>474.0</ele><time>2026-04-26T10:46:20.967Z</time></trkpt><trkpt lat="43.0980757" lon="13.3923604"><ele>474.0</ele><time>2026-04-26T10:46:21.967Z</time></trkpt><trkpt lat="43.0979912" lon="13.3925177"><ele>473.25</ele><time>2026-04-26T10:46:22.966Z</time></trkpt><trkpt lat="43.0978754" lon="13.3926437"><ele>472.5</ele><time>2026-04-26T10:46:23.971Z</time></trkpt><trkpt lat="43.0977431" lon="13.3927216"><ele>471.75</ele><time>2026-04-26T10:46:24.971Z</time></trkpt><trkpt lat="43.0976081" lon="13.3927986"><ele>471.0</ele><time>2026-04-26T10:46:25.969Z</time></trkpt><trkpt lat="43.0974688" lon="13.3928907"><ele>468.5</ele><time>2026-04-26T10:46:26.97Z</time></trkpt><trkpt lat="43.0973492" lon="13.3930118"><ele>466.0</ele><time>2026-04-26T10:46:27.972Z</time></trkpt><trkpt lat="43.0972403" lon="13.3931358"><ele>463.5</ele><time>2026-04-26T10:46:28.969Z</time></trkpt><trkpt lat="43.0971523" lon="13.3932644"><ele>461.0</ele><time>2026-04-26T10:46:29.968Z</time></trkpt><trkpt lat="43.097118" lon="13.393432"><ele>461.0</ele><time>2026-04-26T10:46:30.974Z</time></trkpt><trkpt lat="43.0971309" lon="13.3936297"><ele>461.0</ele><time>2026-04-26T10:46:31.971Z</time></trkpt><trkpt lat="43.0971883" lon="13.3937973"><ele>461.0</ele><time>2026-04-26T10:46:32.971Z</time></trkpt><trkpt lat="43.0972852" lon="13.3939376"><ele>461.0</ele><time>2026-04-26T10:46:33.973Z</time></trkpt><trkpt lat="43.0974107" lon="13.3940547"><ele>464.0</ele><time>2026-04-26T10:46:34.978Z</time></trkpt><trkpt lat="43.0975519" lon="13.394174"><ele>467.0</ele><time>2026-04-26T10:46:35.972Z</time></trkpt><trkpt lat="43.0977154" lon="13.394256"><ele>470.0</ele><time>2026-04-26T10:46:36.974Z</time></trkpt><trkpt lat="43.0978696" lon="13.3943281"><ele>470.0</ele><time>2026-04-26T10:46:37.978Z</time></trkpt><trkpt lat="43.0980218" lon="13.3943819"><ele>470.0</ele><time>2026-04-26T10:46:38.971Z</time></trkpt><trkpt lat="43.0981706" lon="13.394432"><ele>470.0</ele><time>2026-04-26T10:46:39.975Z</time></trkpt><trkpt lat="43.098318" lon="13.3944861"><ele>468.75</ele><time>2026-04-26T10:46:40.971Z</time></trkpt><trkpt lat="43.09846" lon="13.3945431"><ele>467.5</ele><time>2026-04-26T10:46:41.975Z</time></trkpt><trkpt lat="43.0985828" lon="13.3946142"><ele>466.25</ele><time>2026-04-26T10:46:42.971Z</time></trkpt><trkpt lat="43.0986816" lon="13.394709"><ele>465.0</ele><time>2026-04-26T10:46:43.971Z</time></trkpt><trkpt lat="43.0987572" lon="13.3948167"><ele>465.0</ele><time>2026-04-26T10:46:44.976Z</time></trkpt><trkpt lat="43.0988312" lon="13.3949255"><ele>465.0</ele><time>2026-04-26T10:46:45.975Z</time></trkpt><trkpt lat="43.0988835" lon="13.3950726"><ele>465.0</ele><time>2026-04-26T10:46:46.987Z</time></trkpt><trkpt lat="43.098927" lon="13.395238"><ele>465.0</ele><time>2026-04-26T10:46:47.971Z</time></trkpt><trkpt lat="43.0989725" lon="13.3954116"><ele>462.75</ele><time>2026-04-26T10:46:48.971Z</time></trkpt><trkpt lat="43.0990151" lon="13.3955908"><ele>460.5</ele><time>2026-04-26T10:46:49.971Z</time></trkpt><trkpt lat="43.0990548" lon="13.3957527"><ele>458.25</ele><time>2026-04-26T10:46:50.974Z</time></trkpt><trkpt lat="43.099099" lon="13.3959038"><ele>456.0</ele><time>2026-04-26T10:46:51.968Z</time></trkpt><trkpt lat="43.099124" lon="13.396047"><ele>460.0</ele><time>2026-04-26T10:46:52.976Z</time></trkpt><trkpt lat="43.0991522" lon="13.3961864"><ele>464.0</ele><time>2026-04-26T10:46:53.975Z</time></trkpt><trkpt lat="43.0991766" lon="13.3963266"><ele>468.0</ele><time>2026-04-26T10:46:54.975Z</time></trkpt><trkpt lat="43.0991933" lon="13.396468"><ele>472.0</ele><time>2026-04-26T10:46:55.972Z</time></trkpt><trkpt lat="43.0992019" lon="13.3966097"><ele>476.0</ele><time>2026-04-26T10:46:56.972Z</time></trkpt><trkpt lat="43.0992153" lon="13.3967437"><ele>475.99999999999994</ele><time>2026-04-26T10:46:57.967Z</time></trkpt><trkpt lat="43.0992149" lon="13.3968864"><ele>476.0</ele><time>2026-04-26T10:46:58.97Z</time></trkpt><trkpt lat="43.0992129" lon="13.3970226"><ele>476.0</ele><time>2026-04-26T10:46:59.967Z</time></trkpt><trkpt lat="43.099189" lon="13.3971378"><ele>476.0</ele><time>2026-04-26T10:47:00.965Z</time></trkpt><trkpt lat="43.099166" lon="13.397232"><ele>475.99999999999994</ele><time>2026-04-26T10:47:01.973Z</time></trkpt><trkpt lat="43.0991454" lon="13.397337"><ele>476.0</ele><time>2026-04-26T10:47:02.977Z</time></trkpt><trkpt lat="43.0991215" lon="13.397449"><ele>475.8</ele><time>2026-04-26T10:47:03.976Z</time></trkpt><trkpt lat="43.0990847" lon="13.3975708"><ele>475.6</ele><time>2026-04-26T10:47:04.97Z</time></trkpt><trkpt lat="43.0990509" lon="13.3977039"><ele>475.4</ele><time>2026-04-26T10:47:05.976Z</time></trkpt><trkpt lat="43.0990153" lon="13.3978517"><ele>475.2</ele><time>2026-04-26T10:47:06.985Z</time></trkpt><trkpt lat="43.0989769" lon="13.3980065"><ele>475.0</ele><time>2026-04-26T10:47:07.978Z</time></trkpt><trkpt lat="43.0989384" lon="13.3981649"><ele>477.5</ele><time>2026-04-26T10:47:08.979Z</time></trkpt><trkpt lat="43.0988705" lon="13.3983168"><ele>480.0</ele><time>2026-04-26T10:47:09.979Z</time></trkpt><trkpt lat="43.0987958" lon="13.3984643"><ele>482.5</ele><time>2026-04-26T10:47:10.975Z</time></trkpt><trkpt lat="43.0987215" lon="13.3986083"><ele>485.0</ele><time>2026-04-26T10:47:11.973Z</time></trkpt><trkpt lat="43.0986462" lon="13.398736"><ele>485.0</ele><time>2026-04-26T10:47:12.972Z</time></trkpt><trkpt lat="43.0985645" lon="13.3988583"><ele>485.0</ele><time>2026-04-26T10:47:13.968Z</time></trkpt><trkpt lat="43.0984672" lon="13.3989663"><ele>485.0</ele><time>2026-04-26T10:47:14.974Z</time></trkpt><trkpt lat="43.0983575" lon="13.3991111"><ele>485.0</ele><time>2026-04-26T10:47:15.973Z</time></trkpt><trkpt lat="43.0982368" lon="13.3992618"><ele>485.0</ele><time>2026-04-26T10:47:16.979Z</time></trkpt><trkpt lat="43.0981108" lon="13.3994047"><ele>485.0</ele><time>2026-04-26T10:47:17.98Z</time></trkpt><trkpt lat="43.0979788" lon="13.3995479"><ele>485.0</ele><time>2026-04-26T10:47:18.976Z</time></trkpt><trkpt lat="43.0978387" lon="13.3996764"><ele>477.0</ele><time>2026-04-26T10:47:19.976Z</time></trkpt><trkpt lat="43.0976964" lon="13.3997786"><ele>469.0</ele><time>2026-04-26T10:47:20.974Z</time></trkpt><trkpt lat="43.0975494" lon="13.3998559"><ele>461.0</ele><time>2026-04-26T10:47:21.98Z</time></trkpt><trkpt lat="43.0973933" lon="13.3999293"><ele>460.3333333333333</ele><time>2026-04-26T10:47:22.973Z</time></trkpt><trkpt lat="43.0972401" lon="13.4000278"><ele>459.66666666666663</ele><time>2026-04-26T10:47:23.975Z</time></trkpt><trkpt lat="43.0970943" lon="13.4001561"><ele>459.0</ele><time>2026-04-26T10:47:24.976Z</time></trkpt><trkpt lat="43.0969549" lon="13.4003141"><ele>459.0</ele><time>2026-04-26T10:47:25.974Z</time></trkpt><trkpt lat="43.0968177" lon="13.4004932"><ele>459.0</ele><time>2026-04-26T10:47:26.972Z</time></trkpt><trkpt lat="43.096681" lon="13.4006861"><ele>459.0</ele><time>2026-04-26T10:47:27.985Z</time></trkpt><trkpt lat="43.0965511" lon="13.4008791"><ele>454.0</ele><time>2026-04-26T10:47:28.981Z</time></trkpt><trkpt lat="43.0964289" lon="13.401073"><ele>449.0</ele><time>2026-04-26T10:47:29.976Z</time></trkpt><trkpt lat="43.0963023" lon="13.401247"><ele>444.0</ele><time>2026-04-26T10:47:30.967Z</time></trkpt><trkpt lat="43.0961596" lon="13.4013864"><ele>443.66666666666663</ele><time>2026-04-26T10:47:31.979Z</time></trkpt><trkpt lat="43.0959966" lon="13.4014907"><ele>443.3333333333333</ele><time>2026-04-26T10:47:32.975Z</time></trkpt><trkpt lat="43.0958235" lon="13.4015689"><ele>443.0</ele><time>2026-04-26T10:47:33.977Z</time></trkpt><trkpt lat="43.0956472" lon="13.4016491"><ele>443.66666666666663</ele><time>2026-04-26T10:47:34.975Z</time></trkpt><trkpt lat="43.0954822" lon="13.4017437"><ele>444.33333333333337</ele><time>2026-04-26T10:47:35.976Z</time></trkpt><trkpt lat="43.0953321" lon="13.4018651"><ele>445.0</ele><time>2026-04-26T10:47:36.981Z</time></trkpt><trkpt lat="43.0951954" lon="13.4020218"><ele>446.33333333333337</ele><time>2026-04-26T10:47:37.976Z</time></trkpt><trkpt lat="43.0950756" lon="13.4022142"><ele>447.66666666666663</ele><time>2026-04-26T10:47:38.981Z</time></trkpt><trkpt lat="43.094974" lon="13.4024342"><ele>449.0</ele><time>2026-04-26T10:47:39.983Z</time></trkpt><trkpt lat="43.0948858" lon="13.4026743"><ele>449.0</ele><time>2026-04-26T10:47:40.983Z</time></trkpt><trkpt lat="43.0948002" lon="13.4029245"><ele>449.0</ele><time>2026-04-26T10:47:41.984Z</time></trkpt><trkpt lat="43.0947135" lon="13.4031777"><ele>449.0</ele><time>2026-04-26T10:47:42.984Z</time></trkpt><trkpt lat="43.0946141" lon="13.4034213"><ele>448.0</ele><time>2026-04-26T10:47:43.974Z</time></trkpt><trkpt lat="43.0944992" lon="13.4036524"><ele>447.0</ele><time>2026-04-26T10:47:44.979Z</time></trkpt><trkpt lat="43.0943739" lon="13.4038742"><ele>446.0</ele><time>2026-04-26T10:47:45.979Z</time></trkpt><trkpt lat="43.0942389" lon="13.4040881"><ele>443.66666666666663</ele><time>2026-04-26T10:47:46.977Z</time></trkpt><trkpt lat="43.0940949" lon="13.4042777"><ele>441.33333333333337</ele><time>2026-04-26T10:47:47.972Z</time></trkpt><trkpt lat="43.0939375" lon="13.4044409"><ele>439.0</ele><time>2026-04-26T10:47:48.98Z</time></trkpt><trkpt lat="43.0937741" lon="13.4045919"><ele>436.33333333333337</ele><time>2026-04-26T10:47:49.977Z</time></trkpt><trkpt lat="43.0936141" lon="13.4047449"><ele>433.66666666666663</ele><time>2026-04-26T10:47:50.979Z</time></trkpt><trkpt lat="43.0934672" lon="13.4049197"><ele>431.0</ele><time>2026-04-26T10:47:51.98Z</time></trkpt><trkpt lat="43.0933382" lon="13.4051252"><ele>429.0</ele><time>2026-04-26T10:47:52.975Z</time></trkpt><trkpt lat="43.0932236" lon="13.4053503"><ele>427.0</ele><time>2026-04-26T10:47:53.983Z</time></trkpt><trkpt lat="43.0931169" lon="13.4055832"><ele>425.0</ele><time>2026-04-26T10:47:54.981Z</time></trkpt><trkpt lat="43.0930133" lon="13.4058166"><ele>424.3333333333333</ele><time>2026-04-26T10:47:55.98Z</time></trkpt><trkpt lat="43.0929092" lon="13.4060528"><ele>423.66666666666663</ele><time>2026-04-26T10:47:56.976Z</time></trkpt><trkpt lat="43.0928034" lon="13.4062915"><ele>423.0</ele><time>2026-04-26T10:47:57.983Z</time></trkpt><trkpt lat="43.0926964" lon="13.4065332"><ele>422.33333333333337</ele><time>2026-04-26T10:47:58.971Z</time></trkpt><trkpt lat="43.0925896" lon="13.4067768"><ele>421.6666666666667</ele><time>2026-04-26T10:47:59.982Z</time></trkpt><trkpt lat="43.0924822" lon="13.4070218"><ele>421.0</ele><time>2026-04-26T10:48:00.976Z</time></trkpt><trkpt lat="43.0923738" lon="13.4072676"><ele>419.0</ele><time>2026-04-26T10:48:01.981Z</time></trkpt><trkpt lat="43.0922645" lon="13.4075136"><ele>417.0</ele><time>2026-04-26T10:48:02.98Z</time></trkpt><trkpt lat="43.0921548" lon="13.4077588"><ele>415.0</ele><time>2026-04-26T10:48:03.975Z</time></trkpt><trkpt lat="43.0920443" lon="13.4080034"><ele>415.0</ele><time>2026-04-26T10:48:04.978Z</time></trkpt><trkpt lat="43.091935" lon="13.4082457"><ele>415.0</ele><time>2026-04-26T10:48:05.976Z</time></trkpt><trkpt lat="43.0918314" lon="13.408475"><ele>415.0</ele><time>2026-04-26T10:48:06.987Z</time></trkpt><trkpt lat="43.0917314" lon="13.4086929"><ele>416.0</ele><time>2026-04-26T10:48:07.974Z</time></trkpt><trkpt lat="43.091633" lon="13.4089051"><ele>417.0</ele><time>2026-04-26T10:48:08.974Z</time></trkpt><trkpt lat="43.0915397" lon="13.4091226"><ele>418.0</ele><time>2026-04-26T10:48:09.978Z</time></trkpt><trkpt lat="43.091457" lon="13.4093539"><ele>419.33333333333337</ele><time>2026-04-26T10:48:10.978Z</time></trkpt><trkpt lat="43.0913813" lon="13.4095842"><ele>420.66666666666663</ele><time>2026-04-26T10:48:11.974Z</time></trkpt><trkpt lat="43.0913408" lon="13.4098411"><ele>422.0</ele><time>2026-04-26T10:48:12.963Z</time></trkpt><trkpt lat="43.0913122" lon="13.4101189"><ele>424.0</ele><time>2026-04-26T10:48:13.971Z</time></trkpt><trkpt lat="43.0912945" lon="13.4104"><ele>426.0</ele><time>2026-04-26T10:48:14.97Z</time></trkpt><trkpt lat="43.0912877" lon="13.4106845"><ele>428.0</ele><time>2026-04-26T10:48:15.988Z</time></trkpt><trkpt lat="43.091301" lon="13.4109727"><ele>428.66666666666663</ele><time>2026-04-26T10:48:16.973Z</time></trkpt><trkpt lat="43.0913307" lon="13.411261"><ele>429.33333333333337</ele><time>2026-04-26T10:48:17.973Z</time></trkpt><trkpt lat="43.0913771" lon="13.4115425"><ele>430.0</ele><time>2026-04-26T10:48:18.974Z</time></trkpt><trkpt lat="43.0914291" lon="13.4118132"><ele>431.33333333333337</ele><time>2026-04-26T10:48:19.979Z</time></trkpt><trkpt lat="43.0914792" lon="13.4120665"><ele>432.66666666666663</ele><time>2026-04-26T10:48:20.983Z</time></trkpt><trkpt lat="43.0915227" lon="13.4123018"><ele>434.0</ele><time>2026-04-26T10:48:21.974Z</time></trkpt><trkpt lat="43.0915409" lon="13.4125292"><ele>435.0</ele><time>2026-04-26T10:48:22.982Z</time></trkpt><trkpt lat="43.0915175" lon="13.41276"><ele>436.0</ele><time>2026-04-26T10:48:23.978Z</time></trkpt><trkpt lat="43.0914704" lon="13.4129882"><ele>437.0</ele><time>2026-04-26T10:48:24.975Z</time></trkpt><trkpt lat="43.0914332" lon="13.4132091"><ele>437.0</ele><time>2026-04-26T10:48:25.974Z</time></trkpt><trkpt lat="43.0914276" lon="13.4134342"><ele>437.0</ele><time>2026-04-26T10:48:26.974Z</time></trkpt><trkpt lat="43.0914641" lon="13.4136557"><ele>437.0</ele><time>2026-04-26T10:48:27.981Z</time></trkpt><trkpt lat="43.0915438" lon="13.4138564"><ele>434.0</ele><time>2026-04-26T10:48:28.971Z</time></trkpt><trkpt lat="43.0916474" lon="13.4140242"><ele>431.0</ele><time>2026-04-26T10:48:29.977Z</time></trkpt><trkpt lat="43.0917409" lon="13.414179"><ele>428.0</ele><time>2026-04-26T10:48:30.979Z</time></trkpt><trkpt lat="43.0917954" lon="13.4143475"><ele>425.0</ele><time>2026-04-26T10:48:31.973Z</time></trkpt><trkpt lat="43.0917962" lon="13.4145346"><ele>424.66666666666663</ele><time>2026-04-26T10:48:32.974Z</time></trkpt><trkpt lat="43.0917675" lon="13.4147233"><ele>424.33333333333337</ele><time>2026-04-26T10:48:33.974Z</time></trkpt><trkpt lat="43.0916626" lon="13.4149128"><ele>424.0</ele><time>2026-04-26T10:48:34.979Z</time></trkpt><trkpt lat="43.0915586" lon="13.4151291"><ele>428.6666666666667</ele><time>2026-04-26T10:48:35.966Z</time></trkpt><trkpt lat="43.0914744" lon="13.4153705"><ele>433.33333333333337</ele><time>2026-04-26T10:48:36.978Z</time></trkpt><trkpt lat="43.0914013" lon="13.4156316"><ele>438.0</ele><time>2026-04-26T10:48:37.978Z</time></trkpt><trkpt lat="43.0913519" lon="13.4158806"><ele>438.0</ele><time>2026-04-26T10:48:38.977Z</time></trkpt><trkpt lat="43.0913178" lon="13.4161297"><ele>438.0</ele><time>2026-04-26T10:48:39.978Z</time></trkpt><trkpt lat="43.0913085" lon="13.4163775"><ele>438.0</ele><time>2026-04-26T10:48:40.971Z</time></trkpt><trkpt lat="43.091335" lon="13.416608"><ele>438.0</ele><time>2026-04-26T10:48:41.975Z</time></trkpt><trkpt lat="43.0913962" lon="13.4168139"><ele>438.0</ele><time>2026-04-26T10:48:42.975Z</time></trkpt><trkpt lat="43.0914898" lon="13.4169936"><ele>438.0</ele><time>2026-04-26T10:48:43.975Z</time></trkpt><trkpt lat="43.0916061" lon="13.4171435"><ele>436.75</ele><time>2026-04-26T10:48:44.978Z</time></trkpt><trkpt lat="43.0917307" lon="13.4172661"><ele>435.5</ele><time>2026-04-26T10:48:45.974Z</time></trkpt><trkpt lat="43.0918495" lon="13.4173752"><ele>434.25</ele><time>2026-04-26T10:48:46.975Z</time></trkpt><trkpt lat="43.0919594" lon="13.4174797"><ele>433.0</ele><time>2026-04-26T10:48:47.974Z</time></trkpt><trkpt lat="43.0920629" lon="13.4175908"><ele>433.0</ele><time>2026-04-26T10:48:48.974Z</time></trkpt><trkpt lat="43.0921512" lon="13.4177041"><ele>433.0</ele><time>2026-04-26T10:48:49.974Z</time></trkpt><trkpt lat="43.0922125" lon="13.4178367"><ele>433.0</ele><time>2026-04-26T10:48:50.974Z</time></trkpt><trkpt lat="43.0922337" lon="13.4179972"><ele>433.0</ele><time>2026-04-26T10:48:51.97Z</time></trkpt><trkpt lat="43.0922126" lon="13.4181687"><ele>433.5</ele><time>2026-04-26T10:48:52.972Z</time></trkpt><trkpt lat="43.0921701" lon="13.4183369"><ele>434.0</ele><time>2026-04-26T10:48:53.978Z</time></trkpt><trkpt lat="43.0921152" lon="13.4185004"><ele>434.5</ele><time>2026-04-26T10:48:54.978Z</time></trkpt><trkpt lat="43.0920531" lon="13.4186567"><ele>435.0</ele><time>2026-04-26T10:48:55.976Z</time></trkpt><trkpt lat="43.0919863" lon="13.4188112"><ele>433.75</ele><time>2026-04-26T10:48:56.974Z</time></trkpt><trkpt lat="43.0919197" lon="13.4189628"><ele>432.5</ele><time>2026-04-26T10:48:57.971Z</time></trkpt><trkpt lat="43.0918591" lon="13.4191127"><ele>431.25</ele><time>2026-04-26T10:48:58.975Z</time></trkpt><trkpt lat="43.0918087" lon="13.4192734"><ele>430.0</ele><time>2026-04-26T10:48:59.977Z</time></trkpt><trkpt lat="43.0917715" lon="13.4194453"><ele>430.0</ele><time>2026-04-26T10:49:00.979Z</time></trkpt><trkpt lat="43.0917486" lon="13.4196244"><ele>430.0</ele><time>2026-04-26T10:49:01.975Z</time></trkpt><trkpt lat="43.09174" lon="13.4198102"><ele>430.0</ele><time>2026-04-26T10:49:02.979Z</time></trkpt><trkpt lat="43.0917457" lon="13.4200004"><ele>430.0</ele><time>2026-04-26T10:49:03.979Z</time></trkpt><trkpt lat="43.0917663" lon="13.4201924"><ele>430.25</ele><time>2026-04-26T10:49:04.977Z</time></trkpt><trkpt lat="43.0918057" lon="13.4203787"><ele>430.5</ele><time>2026-04-26T10:49:05.969Z</time></trkpt><trkpt lat="43.0918684" lon="13.4205508"><ele>430.75</ele><time>2026-04-26T10:49:06.979Z</time></trkpt><trkpt lat="43.0919517" lon="13.4207003"><ele>431.0</ele><time>2026-04-26T10:49:07.968Z</time></trkpt><trkpt lat="43.0920561" lon="13.420822"><ele>431.5</ele><time>2026-04-26T10:49:08.977Z</time></trkpt><trkpt lat="43.092182" lon="13.4209062"><ele>432.0</ele><time>2026-04-26T10:49:09.978Z</time></trkpt><trkpt lat="43.0923194" lon="13.4209524"><ele>432.5</ele><time>2026-04-26T10:49:10.972Z</time></trkpt><trkpt lat="43.0924479" lon="13.4209929"><ele>433.0</ele><time>2026-04-26T10:49:11.976Z</time></trkpt><trkpt lat="43.0925671" lon="13.4210631"><ele>433.0</ele><time>2026-04-26T10:49:12.974Z</time></trkpt><trkpt lat="43.0926675" lon="13.4211744"><ele>433.0</ele><time>2026-04-26T10:49:13.978Z</time></trkpt><trkpt lat="43.0927354" lon="13.4213273"><ele>433.0</ele><time>2026-04-26T10:49:14.974Z</time></trkpt><trkpt lat="43.0927761" lon="13.4215063"><ele>433.0</ele><time>2026-04-26T10:49:15.975Z</time></trkpt><trkpt lat="43.0928047" lon="13.4216927"><ele>432.75</ele><time>2026-04-26T10:49:16.978Z</time></trkpt><trkpt lat="43.0928301" lon="13.4218689"><ele>432.5</ele><time>2026-04-26T10:49:17.97Z</time></trkpt><trkpt lat="43.0928566" lon="13.4220419"><ele>432.25</ele><time>2026-04-26T10:49:18.994Z</time></trkpt><trkpt lat="43.0928842" lon="13.4222163"><ele>432.0</ele><time>2026-04-26T10:49:19.988Z</time></trkpt><trkpt lat="43.0929151" lon="13.4223916"><ele>432.0</ele><time>2026-04-26T10:49:20.975Z</time></trkpt><trkpt lat="43.0929508" lon="13.4225714"><ele>432.0</ele><time>2026-04-26T10:49:21.984Z</time></trkpt><trkpt lat="43.0929954" lon="13.4227524"><ele>432.0</ele><time>2026-04-26T10:49:22.978Z</time></trkpt><trkpt lat="43.0930578" lon="13.4229306"><ele>432.0</ele><time>2026-04-26T10:49:23.979Z</time></trkpt><trkpt lat="43.0931394" lon="13.4231041"><ele>432.33333333333337</ele><time>2026-04-26T10:49:24.975Z</time></trkpt><trkpt lat="43.0932312" lon="13.4232789"><ele>432.6666666666667</ele><time>2026-04-26T10:49:25.976Z</time></trkpt><trkpt lat="43.0933238" lon="13.4234565"><ele>433.0</ele><time>2026-04-26T10:49:26.979Z</time></trkpt><trkpt lat="43.0934201" lon="13.423639"><ele>436.6666666666667</ele><time>2026-04-26T10:49:27.982Z</time></trkpt><trkpt lat="43.0935162" lon="13.4238214"><ele>440.33333333333337</ele><time>2026-04-26T10:49:28.975Z</time></trkpt><trkpt lat="43.0936104" lon="13.4239998"><ele>444.0</ele><time>2026-04-26T10:49:29.972Z</time></trkpt><trkpt lat="43.0937015" lon="13.4241753"><ele>444.0</ele><time>2026-04-26T10:49:30.975Z</time></trkpt><trkpt lat="43.0937889" lon="13.4243506"><ele>444.0</ele><time>2026-04-26T10:49:31.974Z</time></trkpt><trkpt lat="43.0938686" lon="13.4245286"><ele>444.0</ele><time>2026-04-26T10:49:32.974Z</time></trkpt><trkpt lat="43.0939361" lon="13.4247133"><ele>443.75</ele><time>2026-04-26T10:49:33.978Z</time></trkpt><trkpt lat="43.0939908" lon="13.4249004"><ele>443.5</ele><time>2026-04-26T10:49:34.979Z</time></trkpt><trkpt lat="43.0940471" lon="13.425072"><ele>443.25</ele><time>2026-04-26T10:49:35.981Z</time></trkpt><trkpt lat="43.0940964" lon="13.4252612"><ele>443.0</ele><time>2026-04-26T10:49:36.978Z</time></trkpt><trkpt lat="43.0941416" lon="13.4254493"><ele>444.75</ele><time>2026-04-26T10:49:37.974Z</time></trkpt><trkpt lat="43.0941916" lon="13.425637"><ele>446.5</ele><time>2026-04-26T10:49:38.974Z</time></trkpt><trkpt lat="43.0942425" lon="13.4258291"><ele>448.25</ele><time>2026-04-26T10:49:39.971Z</time></trkpt><trkpt lat="43.0942934" lon="13.4260181"><ele>450.0</ele><time>2026-04-26T10:49:40.976Z</time></trkpt><trkpt lat="43.09434" lon="13.4262017"><ele>451.75</ele><time>2026-04-26T10:49:41.977Z</time></trkpt><trkpt lat="43.0943844" lon="13.4263895"><ele>453.5</ele><time>2026-04-26T10:49:42.977Z</time></trkpt><trkpt lat="43.0944258" lon="13.4265628"><ele>455.25</ele><time>2026-04-26T10:49:43.98Z</time></trkpt><trkpt lat="43.0944658" lon="13.4267415"><ele>457.0</ele><time>2026-04-26T10:49:44.98Z</time></trkpt><trkpt lat="43.0944868" lon="13.4269159"><ele>457.0</ele><time>2026-04-26T10:49:45.978Z</time></trkpt><trkpt lat="43.094482" lon="13.4270861"><ele>457.0</ele><time>2026-04-26T10:49:46.979Z</time></trkpt><trkpt lat="43.0944521" lon="13.4272508"><ele>457.0</ele><time>2026-04-26T10:49:47.972Z</time></trkpt><trkpt lat="43.0944031" lon="13.4274216"><ele>457.0</ele><time>2026-04-26T10:49:48.979Z</time></trkpt><trkpt lat="43.0943536" lon="13.4275946"><ele>456.75</ele><time>2026-04-26T10:49:49.985Z</time></trkpt><trkpt lat="43.0943068" lon="13.4277742"><ele>456.5</ele><time>2026-04-26T10:49:50.974Z</time></trkpt><trkpt lat="43.0942611" lon="13.427958"><ele>456.25</ele><time>2026-04-26T10:49:51.977Z</time></trkpt><trkpt lat="43.094211" lon="13.4281504"><ele>456.0</ele><time>2026-04-26T10:49:52.975Z</time></trkpt><trkpt lat="43.0941589" lon="13.4283417"><ele>456.0</ele><time>2026-04-26T10:49:53.972Z</time></trkpt><trkpt lat="43.0941066" lon="13.4285387"><ele>456.0</ele><time>2026-04-26T10:49:54.98Z</time></trkpt><trkpt lat="43.0940516" lon="13.4287411"><ele>456.0</ele><time>2026-04-26T10:49:55.977Z</time></trkpt><trkpt lat="43.0939982" lon="13.4289457"><ele>456.0</ele><time>2026-04-26T10:49:56.978Z</time></trkpt><trkpt lat="43.0939434" lon="13.4291542"><ele>456.0</ele><time>2026-04-26T10:49:57.975Z</time></trkpt><trkpt lat="43.0938886" lon="13.4293642"><ele>456.0</ele><time>2026-04-26T10:49:58.976Z</time></trkpt><trkpt lat="43.0938335" lon="13.4295755"><ele>453.66666666666663</ele><time>2026-04-26T10:49:59.978Z</time></trkpt><trkpt lat="43.0937789" lon="13.4297868"><ele>451.3333333333333</ele><time>2026-04-26T10:50:00.98Z</time></trkpt><trkpt lat="43.0937229" lon="13.4299992"><ele>449.0</ele><time>2026-04-26T10:50:01.975Z</time></trkpt><trkpt lat="43.0936689" lon="13.43021"><ele>449.0</ele><time>2026-04-26T10:50:02.983Z</time></trkpt><trkpt lat="43.0936169" lon="13.4304196"><ele>449.0</ele><time>2026-04-26T10:50:03.978Z</time></trkpt><trkpt lat="43.0935654" lon="13.430632"><ele>449.0</ele><time>2026-04-26T10:50:04.986Z</time></trkpt><trkpt lat="43.0935168" lon="13.430846"><ele>447.66666666666663</ele><time>2026-04-26T10:50:05.975Z</time></trkpt><trkpt lat="43.0934722" lon="13.4310551"><ele>446.33333333333337</ele><time>2026-04-26T10:50:06.985Z</time></trkpt><trkpt lat="43.0934402" lon="13.4312672"><ele>445.0</ele><time>2026-04-26T10:50:07.975Z</time></trkpt><trkpt lat="43.0934233" lon="13.4314842"><ele>443.33333333333337</ele><time>2026-04-26T10:50:08.975Z</time></trkpt><trkpt lat="43.0934179" lon="13.4317061"><ele>441.66666666666663</ele><time>2026-04-26T10:50:09.978Z</time></trkpt><trkpt lat="43.0934158" lon="13.431924"><ele>440.0</ele><time>2026-04-26T10:50:10.983Z</time></trkpt><trkpt lat="43.0934165" lon="13.4321362"><ele>438.66666666666663</ele><time>2026-04-26T10:50:11.987Z</time></trkpt><trkpt lat="43.093419" lon="13.4323414"><ele>437.33333333333337</ele><time>2026-04-26T10:50:12.972Z</time></trkpt><trkpt lat="43.0934205" lon="13.4325473"><ele>436.0</ele><time>2026-04-26T10:50:13.979Z</time></trkpt><trkpt lat="43.0934253" lon="13.4327558"><ele>436.0</ele><time>2026-04-26T10:50:14.98Z</time></trkpt><trkpt lat="43.0934377" lon="13.4329582"><ele>436.0</ele><time>2026-04-26T10:50:15.983Z</time></trkpt><trkpt lat="43.0934608" lon="13.4331536"><ele>436.0</ele><time>2026-04-26T10:50:16.978Z</time></trkpt><trkpt lat="43.093497" lon="13.4333395"><ele>436.0</ele><time>2026-04-26T10:50:17.975Z</time></trkpt><trkpt lat="43.0935475" lon="13.4335144"><ele>434.5</ele><time>2026-04-26T10:50:18.982Z</time></trkpt><trkpt lat="43.0936116" lon="13.4336753"><ele>433.0</ele><time>2026-04-26T10:50:19.985Z</time></trkpt><trkpt lat="43.0936842" lon="13.4338254"><ele>431.5</ele><time>2026-04-26T10:50:20.973Z</time></trkpt><trkpt lat="43.0937596" lon="13.4339684"><ele>430.0</ele><time>2026-04-26T10:50:21.969Z</time></trkpt><trkpt lat="43.0938364" lon="13.4341044"><ele>429.0</ele><time>2026-04-26T10:50:22.978Z</time></trkpt><trkpt lat="43.0939112" lon="13.4342383"><ele>428.0</ele><time>2026-04-26T10:50:23.971Z</time></trkpt><trkpt lat="43.0939839" lon="13.4343689"><ele>427.0</ele><time>2026-04-26T10:50:24.974Z</time></trkpt><trkpt lat="43.0940553" lon="13.4344977"><ele>426.0</ele><time>2026-04-26T10:50:25.976Z</time></trkpt><trkpt lat="43.0941307" lon="13.4346309"><ele>424.75</ele><time>2026-04-26T10:50:26.97Z</time></trkpt><trkpt lat="43.0942066" lon="13.4347603"><ele>423.5</ele><time>2026-04-26T10:50:27.979Z</time></trkpt><trkpt lat="43.0942832" lon="13.4348858"><ele>422.25</ele><time>2026-04-26T10:50:28.971Z</time></trkpt><trkpt lat="43.094358" lon="13.4350147"><ele>421.0</ele><time>2026-04-26T10:50:29.974Z</time></trkpt><trkpt lat="43.0944287" lon="13.4351416"><ele>421.0</ele><time>2026-04-26T10:50:30.972Z</time></trkpt><trkpt lat="43.0944956" lon="13.4352642"><ele>421.0</ele><time>2026-04-26T10:50:31.97Z</time></trkpt><trkpt lat="43.0945545" lon="13.4353709"><ele>421.0</ele><time>2026-04-26T10:50:32.978Z</time></trkpt><trkpt lat="43.0946006" lon="13.4354566"><ele>421.0</ele><time>2026-04-26T10:50:33.973Z</time></trkpt><trkpt lat="43.0946053" lon="13.4355738"><ele>421.0</ele><time>2026-04-26T10:50:36.973Z</time></trkpt><trkpt lat="43.094531" lon="13.4356021"><ele>420.33333333333337</ele><time>2026-04-26T10:50:38.971Z</time></trkpt><trkpt lat="43.0944366" lon="13.4355848"><ele>419.6666666666667</ele><time>2026-04-26T10:50:40.977Z</time></trkpt><trkpt lat="43.0943122" lon="13.4355574"><ele>419.0</ele><time>2026-04-26T10:50:42.981Z</time></trkpt><trkpt lat="43.0942484" lon="13.4355451"><ele>418.33333333333337</ele><time>2026-04-26T10:50:43.975Z</time></trkpt><trkpt lat="43.094185" lon="13.4355348"><ele>417.6666666666667</ele><time>2026-04-26T10:50:44.972Z</time></trkpt><trkpt lat="43.0941135" lon="13.4355273"><ele>417.0</ele><time>2026-04-26T10:50:45.977Z</time></trkpt><trkpt lat="43.0940264" lon="13.4355361"><ele>416.20000000000005</ele><time>2026-04-26T10:50:46.973Z</time></trkpt><trkpt lat="43.0939398" lon="13.4355364"><ele>415.4</ele><time>2026-04-26T10:50:47.976Z</time></trkpt><trkpt lat="43.0938473" lon="13.4355632"><ele>414.6</ele><time>2026-04-26T10:50:48.976Z</time></trkpt><trkpt lat="43.0937452" lon="13.4356005"><ele>413.79999999999995</ele><time>2026-04-26T10:50:49.979Z</time></trkpt><trkpt lat="43.0936326" lon="13.4356467"><ele>413.0</ele><time>2026-04-26T10:50:50.973Z</time></trkpt><trkpt lat="43.0935114" lon="13.4356805"><ele>413.0</ele><time>2026-04-26T10:50:51.983Z</time></trkpt><trkpt lat="43.0933879" lon="13.4357191"><ele>413.0</ele><time>2026-04-26T10:50:52.982Z</time></trkpt><trkpt lat="43.0932601" lon="13.4357388"><ele>413.0</ele><time>2026-04-26T10:50:53.972Z</time></trkpt><trkpt lat="43.0931263" lon="13.4357608"><ele>413.0</ele><time>2026-04-26T10:50:54.973Z</time></trkpt><trkpt lat="43.0929988" lon="13.4357955"><ele>413.0</ele><time>2026-04-26T10:50:55.98Z</time></trkpt><trkpt lat="43.0928586" lon="13.4358276"><ele>413.0</ele><time>2026-04-26T10:50:56.978Z</time></trkpt><trkpt lat="43.0927272" lon="13.4358745"><ele>413.0</ele><time>2026-04-26T10:50:57.979Z</time></trkpt><trkpt lat="43.0925978" lon="13.4359129"><ele>413.0</ele><time>2026-04-26T10:50:58.98Z</time></trkpt><trkpt lat="43.0924649" lon="13.4359263"><ele>413.5</ele><time>2026-04-26T10:50:59.975Z</time></trkpt><trkpt lat="43.0923419" lon="13.4359297"><ele>414.0</ele><time>2026-04-26T10:51:00.975Z</time></trkpt><trkpt lat="43.0922309" lon="13.4359054"><ele>414.5</ele><time>2026-04-26T10:51:01.975Z</time></trkpt><trkpt lat="43.0921213" lon="13.4358575"><ele>415.0</ele><time>2026-04-26T10:51:02.977Z</time></trkpt><trkpt lat="43.0920277" lon="13.435783"><ele>415.0</ele><time>2026-04-26T10:51:03.971Z</time></trkpt><trkpt lat="43.0919347" lon="13.4357036"><ele>415.0</ele><time>2026-04-26T10:51:04.972Z</time></trkpt><trkpt lat="43.0918412" lon="13.435638"><ele>415.0</ele><time>2026-04-26T10:51:05.98Z</time></trkpt><trkpt lat="43.0917423" lon="13.4355949"><ele>415.0</ele><time>2026-04-26T10:51:06.982Z</time></trkpt><trkpt lat="43.0916436" lon="13.4355659"><ele>415.0</ele><time>2026-04-26T10:51:07.975Z</time></trkpt><trkpt lat="43.0915618" lon="13.4355421"><ele>415.00000000000006</ele><time>2026-04-26T10:51:08.993Z</time></trkpt><trkpt lat="43.0914962" lon="13.4355199"><ele>415.0</ele><time>2026-04-26T10:51:09.988Z</time></trkpt><trkpt lat="43.0914118" lon="13.4354918"><ele>415.0</ele><time>2026-04-26T10:51:11.979Z</time></trkpt><trkpt lat="43.0914573" lon="13.4355614"><ele>415.0</ele><time>2026-04-26T10:51:38.98Z</time></trkpt><trkpt lat="43.0915354" lon="13.4355695"><ele>415.00000000000006</ele><time>2026-04-26T10:51:39.979Z</time></trkpt><trkpt lat="43.0916306" lon="13.4355877"><ele>415.0</ele><time>2026-04-26T10:51:40.973Z</time></trkpt><trkpt lat="43.0917394" lon="13.4356193"><ele>415.0</ele><time>2026-04-26T10:51:41.974Z</time></trkpt><trkpt lat="43.0918546" lon="13.435679"><ele>415.0</ele><time>2026-04-26T10:51:42.97Z</time></trkpt><trkpt lat="43.0919644" lon="13.4357674"><ele>415.0</ele><time>2026-04-26T10:51:43.972Z</time></trkpt><trkpt lat="43.0920737" lon="13.4358583"><ele>415.0</ele><time>2026-04-26T10:51:44.978Z</time></trkpt><trkpt lat="43.0921867" lon="13.4359267"><ele>415.0</ele><time>2026-04-26T10:51:45.976Z</time></trkpt><trkpt lat="43.0923101" lon="13.4359637"><ele>415.0</ele><time>2026-04-26T10:51:46.987Z</time></trkpt><trkpt lat="43.0924448" lon="13.4359662"><ele>415.0</ele><time>2026-04-26T10:51:47.978Z</time></trkpt><trkpt lat="43.0925864" lon="13.4359382"><ele>415.0</ele><time>2026-04-26T10:51:48.978Z</time></trkpt><trkpt lat="43.0927351" lon="13.4358882"><ele>414.33333333333337</ele><time>2026-04-26T10:51:49.976Z</time></trkpt><trkpt lat="43.0928926" lon="13.4358335"><ele>413.66666666666663</ele><time>2026-04-26T10:51:50.981Z</time></trkpt><trkpt lat="43.0930558" lon="13.4357896"><ele>413.0</ele><time>2026-04-26T10:51:51.976Z</time></trkpt><trkpt lat="43.093213" lon="13.4357579"><ele>413.0</ele><time>2026-04-26T10:51:52.981Z</time></trkpt><trkpt lat="43.093363" lon="13.4357302"><ele>413.0</ele><time>2026-04-26T10:51:53.985Z</time></trkpt><trkpt lat="43.0935182" lon="13.4356945"><ele>413.0</ele><time>2026-04-26T10:51:54.976Z</time></trkpt><trkpt lat="43.0936541" lon="13.4356516"><ele>413.0</ele><time>2026-04-26T10:51:55.997Z</time></trkpt><trkpt lat="43.0937794" lon="13.4355963"><ele>413.0</ele><time>2026-04-26T10:51:56.986Z</time></trkpt><trkpt lat="43.0938877" lon="13.4355634"><ele>413.0</ele><time>2026-04-26T10:51:57.972Z</time></trkpt><trkpt lat="43.0940089" lon="13.4355534"><ele>413.0</ele><time>2026-04-26T10:51:58.975Z</time></trkpt><trkpt lat="43.0941357" lon="13.4355596"><ele>413.0</ele><time>2026-04-26T10:51:59.982Z</time></trkpt><trkpt lat="43.0942542" lon="13.4355772"><ele>413.66666666666663</ele><time>2026-04-26T10:52:00.979Z</time></trkpt><trkpt lat="43.0943641" lon="13.4355914"><ele>414.3333333333333</ele><time>2026-04-26T10:52:01.978Z</time></trkpt><trkpt lat="43.0944634" lon="13.4356027"><ele>415.0</ele><time>2026-04-26T10:52:02.976Z</time></trkpt><trkpt lat="43.0945502" lon="13.435616"><ele>415.66666666666663</ele><time>2026-04-26T10:52:03.976Z</time></trkpt><trkpt lat="43.0946133" lon="13.435622"><ele>416.3333333333333</ele><time>2026-04-26T10:52:04.974Z</time></trkpt><trkpt lat="43.0946913" lon="13.4356516"><ele>417.0</ele><time>2026-04-26T10:52:06.976Z</time></trkpt><trkpt lat="43.0947813" lon="13.4357954"><ele>417.0</ele><time>2026-04-26T10:52:08.987Z</time></trkpt><trkpt lat="43.0948386" lon="13.4359161"><ele>417.0</ele><time>2026-04-26T10:52:10.006Z</time></trkpt><trkpt lat="43.0949006" lon="13.4360722"><ele>417.0</ele><time>2026-04-26T10:52:10.982Z</time></trkpt><trkpt lat="43.094965" lon="13.4362549"><ele>417.0</ele><time>2026-04-26T10:52:11.977Z</time></trkpt><trkpt lat="43.0950261" lon="13.4364599"><ele>415.0</ele><time>2026-04-26T10:52:12.968Z</time></trkpt><trkpt lat="43.0950838" lon="13.436682"><ele>413.0</ele><time>2026-04-26T10:52:13.989Z</time></trkpt><trkpt lat="43.0951326" lon="13.4369065"><ele>411.0</ele><time>2026-04-26T10:52:14.989Z</time></trkpt><trkpt lat="43.095185" lon="13.4371243"><ele>409.33333333333337</ele><time>2026-04-26T10:52:15.981Z</time></trkpt><trkpt lat="43.0952591" lon="13.4373369"><ele>407.6666666666667</ele><time>2026-04-26T10:52:16.993Z</time></trkpt><trkpt lat="43.0953554" lon="13.4375439"><ele>406.0</ele><time>2026-04-26T10:52:17.979Z</time></trkpt><trkpt lat="43.0954684" lon="13.4377441"><ele>406.0</ele><time>2026-04-26T10:52:18.987Z</time></trkpt><trkpt lat="43.0955896" lon="13.4379413"><ele>406.0</ele><time>2026-04-26T10:52:19.983Z</time></trkpt><trkpt lat="43.0957133" lon="13.438139"><ele>406.0</ele><time>2026-04-26T10:52:20.984Z</time></trkpt><trkpt lat="43.0958356" lon="13.4383383"><ele>405.0</ele><time>2026-04-26T10:52:21.977Z</time></trkpt><trkpt lat="43.095954" lon="13.438542"><ele>404.0</ele><time>2026-04-26T10:52:22.98Z</time></trkpt><trkpt lat="43.096066" lon="13.438753"><ele>403.0</ele><time>2026-04-26T10:52:23.98Z</time></trkpt><trkpt lat="43.0961666" lon="13.438973"><ele>402.6666666666667</ele><time>2026-04-26T10:52:24.983Z</time></trkpt><trkpt lat="43.0962538" lon="13.4392057"><ele>402.33333333333337</ele><time>2026-04-26T10:52:25.983Z</time></trkpt><trkpt lat="43.0963323" lon="13.4394456"><ele>402.0</ele><time>2026-04-26T10:52:26.997Z</time></trkpt><trkpt lat="43.0964065" lon="13.4396793"><ele>400.66666666666663</ele><time>2026-04-26T10:52:27.976Z</time></trkpt><trkpt lat="43.0964813" lon="13.4399045"><ele>399.3333333333333</ele><time>2026-04-26T10:52:28.985Z</time></trkpt><trkpt lat="43.0965547" lon="13.4401222"><ele>398.0</ele><time>2026-04-26T10:52:29.979Z</time></trkpt><trkpt lat="43.0966218" lon="13.440337"><ele>396.66666666666663</ele><time>2026-04-26T10:52:30.982Z</time></trkpt><trkpt lat="43.0966873" lon="13.4405452"><ele>395.33333333333337</ele><time>2026-04-26T10:52:31.982Z</time></trkpt><trkpt lat="43.0967688" lon="13.4407385"><ele>394.0</ele><time>2026-04-26T10:52:32.979Z</time></trkpt><trkpt lat="43.0968703" lon="13.4409126"><ele>394.0</ele><time>2026-04-26T10:52:33.984Z</time></trkpt><trkpt lat="43.0970031" lon="13.441067"><ele>394.0</ele><time>2026-04-26T10:52:34.985Z</time></trkpt><trkpt lat="43.097161" lon="13.4412013"><ele>394.0</ele><time>2026-04-26T10:52:35.981Z</time></trkpt><trkpt lat="43.0973282" lon="13.4413177"><ele>390.0</ele><time>2026-04-26T10:52:36.985Z</time></trkpt><trkpt lat="43.0974946" lon="13.4414262"><ele>386.0</ele><time>2026-04-26T10:52:37.987Z</time></trkpt><trkpt lat="43.0976568" lon="13.4415392"><ele>382.0</ele><time>2026-04-26T10:52:38.985Z</time></trkpt><trkpt lat="43.097816" lon="13.4416589"><ele>382.0</ele><time>2026-04-26T10:52:39.983Z</time></trkpt><trkpt lat="43.0979741" lon="13.4417906"><ele>382.0</ele><time>2026-04-26T10:52:40.984Z</time></trkpt><trkpt lat="43.0981256" lon="13.4419386"><ele>382.0</ele><time>2026-04-26T10:52:41.982Z</time></trkpt><trkpt lat="43.0982736" lon="13.4421"><ele>378.0</ele><time>2026-04-26T10:52:42.983Z</time></trkpt><trkpt lat="43.0984207" lon="13.4422689"><ele>374.0</ele><time>2026-04-26T10:52:43.976Z</time></trkpt><trkpt lat="43.0985674" lon="13.4424416"><ele>370.0</ele><time>2026-04-26T10:52:44.985Z</time></trkpt><trkpt lat="43.0987138" lon="13.4426172"><ele>370.0</ele><time>2026-04-26T10:52:45.988Z</time></trkpt><trkpt lat="43.0988619" lon="13.4427928"><ele>370.0</ele><time>2026-04-26T10:52:46.982Z</time></trkpt><trkpt lat="43.0990108" lon="13.4429675"><ele>370.0</ele><time>2026-04-26T10:52:47.984Z</time></trkpt><trkpt lat="43.0991608" lon="13.4431431"><ele>368.0</ele><time>2026-04-26T10:52:48.992Z</time></trkpt><trkpt lat="43.0993112" lon="13.4433173"><ele>366.0</ele><time>2026-04-26T10:52:49.979Z</time></trkpt><trkpt lat="43.0994624" lon="13.4434919"><ele>364.0</ele><time>2026-04-26T10:52:50.997Z</time></trkpt><trkpt lat="43.099613" lon="13.4436635"><ele>362.66666666666663</ele><time>2026-04-26T10:52:51.983Z</time></trkpt><trkpt lat="43.0997645" lon="13.4438326"><ele>361.3333333333333</ele><time>2026-04-26T10:52:52.984Z</time></trkpt><trkpt lat="43.0999159" lon="13.4440005"><ele>360.0</ele><time>2026-04-26T10:52:53.982Z</time></trkpt><trkpt lat="43.1000668" lon="13.4441651"><ele>360.0</ele><time>2026-04-26T10:52:54.985Z</time></trkpt><trkpt lat="43.1002184" lon="13.4443221"><ele>360.0</ele><time>2026-04-26T10:52:55.988Z</time></trkpt><trkpt lat="43.1003756" lon="13.4444649"><ele>360.0</ele><time>2026-04-26T10:52:56.981Z</time></trkpt><trkpt lat="43.1005411" lon="13.4445908"><ele>359.0</ele><time>2026-04-26T10:52:57.978Z</time></trkpt><trkpt lat="43.1007128" lon="13.4447035"><ele>358.0</ele><time>2026-04-26T10:52:58.979Z</time></trkpt><trkpt lat="43.100889" lon="13.4448058"><ele>357.0</ele><time>2026-04-26T10:52:59.984Z</time></trkpt><trkpt lat="43.1010688" lon="13.4449018"><ele>357.0</ele><time>2026-04-26T10:53:00.988Z</time></trkpt><trkpt lat="43.1012514" lon="13.4449893"><ele>357.0</ele><time>2026-04-26T10:53:01.998Z</time></trkpt><trkpt lat="43.1014346" lon="13.445078"><ele>357.0</ele><time>2026-04-26T10:53:02.976Z</time></trkpt><trkpt lat="43.1016145" lon="13.4451792"><ele>356.6666666666667</ele><time>2026-04-26T10:53:03.972Z</time></trkpt><trkpt lat="43.1017866" lon="13.4452989"><ele>356.33333333333337</ele><time>2026-04-26T10:53:04.99Z</time></trkpt><trkpt lat="43.1019454" lon="13.4454424"><ele>356.0</ele><time>2026-04-26T10:53:05.982Z</time></trkpt><trkpt lat="43.1020825" lon="13.4456177"><ele>355.0</ele><time>2026-04-26T10:53:06.978Z</time></trkpt><trkpt lat="43.1021981" lon="13.4458207"><ele>354.0</ele><time>2026-04-26T10:53:07.98Z</time></trkpt><trkpt lat="43.1023021" lon="13.4460368"><ele>353.0</ele><time>2026-04-26T10:53:08.977Z</time></trkpt><trkpt lat="43.1024023" lon="13.4462605"><ele>354.33333333333337</ele><time>2026-04-26T10:53:09.983Z</time></trkpt><trkpt lat="43.1025037" lon="13.4464872"><ele>355.6666666666667</ele><time>2026-04-26T10:53:10.98Z</time></trkpt><trkpt lat="43.102607" lon="13.4467159"><ele>357.0</ele><time>2026-04-26T10:53:11.987Z</time></trkpt><trkpt lat="43.1027107" lon="13.4469464"><ele>357.3333333333333</ele><time>2026-04-26T10:53:12.998Z</time></trkpt><trkpt lat="43.102813" lon="13.4471795"><ele>357.66666666666663</ele><time>2026-04-26T10:53:13.984Z</time></trkpt><trkpt lat="43.1029159" lon="13.4474131"><ele>358.0</ele><time>2026-04-26T10:53:14.99Z</time></trkpt><trkpt lat="43.1030196" lon="13.4476466"><ele>358.0</ele><time>2026-04-26T10:53:15.984Z</time></trkpt><trkpt lat="43.103123" lon="13.4478799"><ele>358.0</ele><time>2026-04-26T10:53:16.975Z</time></trkpt><trkpt lat="43.103226" lon="13.4481098"><ele>358.0</ele><time>2026-04-26T10:53:17.98Z</time></trkpt><trkpt lat="43.1033282" lon="13.4483373"><ele>358.3333333333333</ele><time>2026-04-26T10:53:18.986Z</time></trkpt><trkpt lat="43.1034295" lon="13.4485645"><ele>358.6666666666667</ele><time>2026-04-26T10:53:19.984Z</time></trkpt><trkpt lat="43.10353" lon="13.4487909"><ele>359.0</ele><time>2026-04-26T10:53:20.985Z</time></trkpt><trkpt lat="43.1036303" lon="13.4490169"><ele>359.0</ele><time>2026-04-26T10:53:21.985Z</time></trkpt><trkpt lat="43.1037316" lon="13.4492414"><ele>359.0</ele><time>2026-04-26T10:53:22.99Z</time></trkpt><trkpt lat="43.1038338" lon="13.4494638"><ele>359.0</ele><time>2026-04-26T10:53:23.992Z</time></trkpt><trkpt lat="43.1039349" lon="13.4496877"><ele>360.6666666666667</ele><time>2026-04-26T10:53:24.982Z</time></trkpt><trkpt lat="43.1040343" lon="13.4499109"><ele>362.3333333333333</ele><time>2026-04-26T10:53:25.982Z</time></trkpt><trkpt lat="43.1041237" lon="13.450093"><ele>364.0</ele><time>2026-04-26T10:53:26.987Z</time></trkpt><trkpt lat="43.1042107" lon="13.450296"><ele>364.0</ele><time>2026-04-26T10:53:27.982Z</time></trkpt><trkpt lat="43.1042986" lon="13.4505016"><ele>364.0</ele><time>2026-04-26T10:53:28.986Z</time></trkpt><trkpt lat="43.1043729" lon="13.4507277"><ele>364.0</ele><time>2026-04-26T10:53:29.984Z</time></trkpt><trkpt lat="43.1044403" lon="13.4509648"><ele>364.0</ele><time>2026-04-26T10:53:30.987Z</time></trkpt><trkpt lat="43.1044982" lon="13.4512086"><ele>364.0</ele><time>2026-04-26T10:53:31.985Z</time></trkpt><trkpt lat="43.1045579" lon="13.4514584"><ele>364.0</ele><time>2026-04-26T10:53:32.978Z</time></trkpt><trkpt lat="43.1046184" lon="13.4517119"><ele>362.3333333333333</ele><time>2026-04-26T10:53:33.983Z</time></trkpt><trkpt lat="43.1046774" lon="13.4519645"><ele>360.6666666666667</ele><time>2026-04-26T10:53:34.984Z</time></trkpt><trkpt lat="43.1047361" lon="13.4522184"><ele>359.0</ele><time>2026-04-26T10:53:35.993Z</time></trkpt><trkpt lat="43.1047962" lon="13.4524723"><ele>358.0</ele><time>2026-04-26T10:53:36.987Z</time></trkpt><trkpt lat="43.1048575" lon="13.4527251"><ele>357.0</ele><time>2026-04-26T10:53:37.981Z</time></trkpt><trkpt lat="43.104918" lon="13.4529784"><ele>356.0</ele><time>2026-04-26T10:53:38.982Z</time></trkpt><trkpt lat="43.1049778" lon="13.4532279"><ele>358.0</ele><time>2026-04-26T10:53:39.983Z</time></trkpt><trkpt lat="43.1050315" lon="13.4534684"><ele>360.0</ele><time>2026-04-26T10:53:40.985Z</time></trkpt><trkpt lat="43.1050673" lon="13.4537095"><ele>362.0</ele><time>2026-04-26T10:53:41.984Z</time></trkpt><trkpt lat="43.1050689" lon="13.4539584"><ele>362.0</ele><time>2026-04-26T10:53:42.978Z</time></trkpt><trkpt lat="43.1050364" lon="13.4542064"><ele>362.0</ele><time>2026-04-26T10:53:43.983Z</time></trkpt><trkpt lat="43.104982" lon="13.4544572"><ele>362.0</ele><time>2026-04-26T10:53:44.987Z</time></trkpt><trkpt lat="43.1049193" lon="13.4547098"><ele>359.6666666666667</ele><time>2026-04-26T10:53:45.98Z</time></trkpt><trkpt lat="43.1048563" lon="13.4549648"><ele>357.3333333333333</ele><time>2026-04-26T10:53:46.975Z</time></trkpt><trkpt lat="43.1047944" lon="13.4552234"><ele>355.0</ele><time>2026-04-26T10:53:47.979Z</time></trkpt><trkpt lat="43.1047334" lon="13.4554832"><ele>355.0</ele><time>2026-04-26T10:53:48.983Z</time></trkpt><trkpt lat="43.1046724" lon="13.4557436"><ele>355.0</ele><time>2026-04-26T10:53:49.989Z</time></trkpt><trkpt lat="43.1046115" lon="13.4560063"><ele>355.0</ele><time>2026-04-26T10:53:50.981Z</time></trkpt><trkpt lat="43.1045495" lon="13.4562708"><ele>355.66666666666663</ele><time>2026-04-26T10:53:51.979Z</time></trkpt><trkpt lat="43.1044874" lon="13.4565368"><ele>356.3333333333333</ele><time>2026-04-26T10:53:52.98Z</time></trkpt><trkpt lat="43.1044293" lon="13.4568074"><ele>357.0</ele><time>2026-04-26T10:53:53.975Z</time></trkpt><trkpt lat="43.1043826" lon="13.4570832"><ele>357.3333333333333</ele><time>2026-04-26T10:53:54.981Z</time></trkpt><trkpt lat="43.1043525" lon="13.4573613"><ele>357.66666666666663</ele><time>2026-04-26T10:53:55.982Z</time></trkpt><trkpt lat="43.1043342" lon="13.4576391"><ele>358.0</ele><time>2026-04-26T10:53:56.979Z</time></trkpt><trkpt lat="43.1043186" lon="13.4579139"><ele>359.0</ele><time>2026-04-26T10:53:57.979Z</time></trkpt><trkpt lat="43.1043047" lon="13.4581836"><ele>360.0</ele><time>2026-04-26T10:53:58.98Z</time></trkpt><trkpt lat="43.1042967" lon="13.4584436"><ele>361.0</ele><time>2026-04-26T10:53:59.975Z</time></trkpt><trkpt lat="43.1043086" lon="13.4586981"><ele>362.66666666666663</ele><time>2026-04-26T10:54:00.978Z</time></trkpt><trkpt lat="43.1043506" lon="13.4589526"><ele>364.3333333333333</ele><time>2026-04-26T10:54:01.982Z</time></trkpt><trkpt lat="43.104415" lon="13.4592083"><ele>366.0</ele><time>2026-04-26T10:54:02.982Z</time></trkpt><trkpt lat="43.1044885" lon="13.4594615"><ele>368.0</ele><time>2026-04-26T10:54:03.975Z</time></trkpt><trkpt lat="43.1045608" lon="13.4597136"><ele>370.0</ele><time>2026-04-26T10:54:04.99Z</time></trkpt><trkpt lat="43.1046279" lon="13.4599618"><ele>372.0</ele><time>2026-04-26T10:54:05.988Z</time></trkpt><trkpt lat="43.1046859" lon="13.460209"><ele>371.0</ele><time>2026-04-26T10:54:06.983Z</time></trkpt><trkpt lat="43.1047296" lon="13.4604569"><ele>370.0</ele><time>2026-04-26T10:54:07.975Z</time></trkpt><trkpt lat="43.1047532" lon="13.4607099"><ele>369.0</ele><time>2026-04-26T10:54:08.978Z</time></trkpt><trkpt lat="43.1047598" lon="13.4609677"><ele>369.0</ele><time>2026-04-26T10:54:09.979Z</time></trkpt><trkpt lat="43.1047576" lon="13.4612313"><ele>369.0</ele><time>2026-04-26T10:54:10.977Z</time></trkpt><trkpt lat="43.1047505" lon="13.4615023"><ele>369.0</ele><time>2026-04-26T10:54:11.976Z</time></trkpt><trkpt lat="43.1047416" lon="13.4617799"><ele>367.0</ele><time>2026-04-26T10:54:12.975Z</time></trkpt><trkpt lat="43.1047334" lon="13.4620622"><ele>365.0</ele><time>2026-04-26T10:54:13.982Z</time></trkpt><trkpt lat="43.10473" lon="13.462349"><ele>363.0</ele><time>2026-04-26T10:54:14.981Z</time></trkpt><trkpt lat="43.1047387" lon="13.4626348"><ele>362.0</ele><time>2026-04-26T10:54:15.983Z</time></trkpt><trkpt lat="43.1047615" lon="13.4629191"><ele>361.0</ele><time>2026-04-26T10:54:16.975Z</time></trkpt><trkpt lat="43.1047932" lon="13.463201"><ele>360.0</ele><time>2026-04-26T10:54:17.973Z</time></trkpt><trkpt lat="43.1048272" lon="13.4634805"><ele>360.0</ele><time>2026-04-26T10:54:18.977Z</time></trkpt><trkpt lat="43.1048609" lon="13.4637599"><ele>360.0</ele><time>2026-04-26T10:54:19.972Z</time></trkpt><trkpt lat="43.1048936" lon="13.4640388"><ele>360.0</ele><time>2026-04-26T10:54:20.981Z</time></trkpt><trkpt lat="43.1049237" lon="13.4643172"><ele>366.3333333333333</ele><time>2026-04-26T10:54:21.973Z</time></trkpt><trkpt lat="43.1049531" lon="13.4645969"><ele>372.66666666666663</ele><time>2026-04-26T10:54:22.977Z</time></trkpt><trkpt lat="43.1049829" lon="13.4648778"><ele>379.0</ele><time>2026-04-26T10:54:23.972Z</time></trkpt><trkpt lat="43.1050122" lon="13.4651603"><ele>380.0</ele><time>2026-04-26T10:54:24.97Z</time></trkpt><trkpt lat="43.1050377" lon="13.4654425"><ele>381.0</ele><time>2026-04-26T10:54:25.978Z</time></trkpt><trkpt lat="43.1050606" lon="13.4657218"><ele>382.0</ele><time>2026-04-26T10:54:26.971Z</time></trkpt><trkpt lat="43.1050805" lon="13.4659859"><ele>382.0</ele><time>2026-04-26T10:54:27.973Z</time></trkpt><trkpt lat="43.1051017" lon="13.4662395"><ele>382.0</ele><time>2026-04-26T10:54:28.974Z</time></trkpt><trkpt lat="43.1051165" lon="13.4664888"><ele>382.0</ele><time>2026-04-26T10:54:29.973Z</time></trkpt><trkpt lat="43.1051271" lon="13.4667385"><ele>382.0</ele><time>2026-04-26T10:54:30.971Z</time></trkpt><trkpt lat="43.1051362" lon="13.4669881"><ele>382.0</ele><time>2026-04-26T10:54:31.979Z</time></trkpt><trkpt lat="43.1051458" lon="13.4672289"><ele>382.0</ele><time>2026-04-26T10:54:32.976Z</time></trkpt><trkpt lat="43.105153" lon="13.4674647"><ele>382.3333333333333</ele><time>2026-04-26T10:54:33.977Z</time></trkpt><trkpt lat="43.1051548" lon="13.4676981"><ele>382.6666666666667</ele><time>2026-04-26T10:54:34.976Z</time></trkpt><trkpt lat="43.1051577" lon="13.4679458"><ele>383.0</ele><time>2026-04-26T10:54:35.977Z</time></trkpt><trkpt lat="43.1051588" lon="13.468199"><ele>381.6666666666667</ele><time>2026-04-26T10:54:36.977Z</time></trkpt><trkpt lat="43.1051589" lon="13.4684411"><ele>380.3333333333333</ele><time>2026-04-26T10:54:37.978Z</time></trkpt><trkpt lat="43.1051587" lon="13.468682"><ele>379.0</ele><time>2026-04-26T10:54:38.986Z</time></trkpt><trkpt lat="43.1051592" lon="13.4689186"><ele>378.3333333333333</ele><time>2026-04-26T10:54:39.977Z</time></trkpt><trkpt lat="43.1051595" lon="13.4691454"><ele>377.6666666666667</ele><time>2026-04-26T10:54:40.979Z</time></trkpt><trkpt lat="43.1051633" lon="13.4693576"><ele>377.0</ele><time>2026-04-26T10:54:41.977Z</time></trkpt><trkpt lat="43.1051783" lon="13.4695495"><ele>377.75</ele><time>2026-04-26T10:54:42.98Z</time></trkpt><trkpt lat="43.1052185" lon="13.4697194"><ele>378.5</ele><time>2026-04-26T10:54:43.98Z</time></trkpt><trkpt lat="43.1052855" lon="13.4698647"><ele>379.25</ele><time>2026-04-26T10:54:44.981Z</time></trkpt><trkpt lat="43.10535" lon="13.4699969"><ele>380.0</ele><time>2026-04-26T10:54:45.979Z</time></trkpt><trkpt lat="43.1054235" lon="13.4701154"><ele>380.0</ele><time>2026-04-26T10:54:46.998Z</time></trkpt><trkpt lat="43.1054662" lon="13.4702222"><ele>380.0</ele><time>2026-04-26T10:54:47.981Z</time></trkpt><trkpt lat="43.1054672" lon="13.4703261"><ele>380.0</ele><time>2026-04-26T10:54:48.986Z</time></trkpt><trkpt lat="43.1054362" lon="13.4704191"><ele>380.0</ele><time>2026-04-26T10:54:49.988Z</time></trkpt><trkpt lat="43.1053709" lon="13.4705125"><ele>380.0</ele><time>2026-04-26T10:54:50.979Z</time></trkpt><trkpt lat="43.1052864" lon="13.4706113"><ele>380.0</ele><time>2026-04-26T10:54:51.973Z</time></trkpt><trkpt lat="43.1051942" lon="13.4707295"><ele>380.0</ele><time>2026-04-26T10:54:52.981Z</time></trkpt><trkpt lat="43.1050981" lon="13.4708651"><ele>380.0</ele><time>2026-04-26T10:54:53.981Z</time></trkpt><trkpt lat="43.1049999" lon="13.4710165"><ele>380.0</ele><time>2026-04-26T10:54:54.986Z</time></trkpt><trkpt lat="43.1049025" lon="13.4711624"><ele>380.0</ele><time>2026-04-26T10:54:55.985Z</time></trkpt><trkpt lat="43.104797" lon="13.4712888"><ele>378.0</ele><time>2026-04-26T10:54:56.983Z</time></trkpt><trkpt lat="43.1046752" lon="13.4713928"><ele>376.0</ele><time>2026-04-26T10:54:57.982Z</time></trkpt><trkpt lat="43.1045325" lon="13.4714687"><ele>374.0</ele><time>2026-04-26T10:54:58.985Z</time></trkpt><trkpt lat="43.1043803" lon="13.4715295"><ele>374.0</ele><time>2026-04-26T10:54:59.98Z</time></trkpt><trkpt lat="43.1042166" lon="13.4715882"><ele>374.0</ele><time>2026-04-26T10:55:00.992Z</time></trkpt><trkpt lat="43.104057" lon="13.4716442"><ele>374.0</ele><time>2026-04-26T10:55:01.981Z</time></trkpt><trkpt lat="43.1039059" lon="13.4716974"><ele>372.33333333333337</ele><time>2026-04-26T10:55:02.99Z</time></trkpt><trkpt lat="43.1037605" lon="13.4717523"><ele>370.6666666666667</ele><time>2026-04-26T10:55:03.982Z</time></trkpt><trkpt lat="43.1036147" lon="13.4718154"><ele>369.0</ele><time>2026-04-26T10:55:04.977Z</time></trkpt><trkpt lat="43.1034694" lon="13.4719029"><ele>369.0</ele><time>2026-04-26T10:55:05.987Z</time></trkpt><trkpt lat="43.1033286" lon="13.4720201"><ele>369.0</ele><time>2026-04-26T10:55:06.979Z</time></trkpt><trkpt lat="43.1031923" lon="13.4721614"><ele>369.0</ele><time>2026-04-26T10:55:07.978Z</time></trkpt><trkpt lat="43.1030569" lon="13.4723122"><ele>368.3333333333333</ele><time>2026-04-26T10:55:08.972Z</time></trkpt><trkpt lat="43.1029184" lon="13.4724583"><ele>367.66666666666663</ele><time>2026-04-26T10:55:09.98Z</time></trkpt><trkpt lat="43.1027781" lon="13.4725963"><ele>367.0</ele><time>2026-04-26T10:55:10.98Z</time></trkpt><trkpt lat="43.1026387" lon="13.472718"><ele>367.0</ele><time>2026-04-26T10:55:11.975Z</time></trkpt><trkpt lat="43.1024975" lon="13.4728172"><ele>367.0</ele><time>2026-04-26T10:55:12.978Z</time></trkpt><trkpt lat="43.1023484" lon="13.4728874"><ele>367.0</ele><time>2026-04-26T10:55:13.975Z</time></trkpt><trkpt lat="43.1021867" lon="13.4729265"><ele>367.66666666666663</ele><time>2026-04-26T10:55:14.974Z</time></trkpt><trkpt lat="43.1020207" lon="13.4729305"><ele>368.3333333333333</ele><time>2026-04-26T10:55:15.98Z</time></trkpt><trkpt lat="43.1018612" lon="13.4729057"><ele>369.0</ele><time>2026-04-26T10:55:16.98Z</time></trkpt><trkpt lat="43.1017122" lon="13.4728705"><ele>368.0</ele><time>2026-04-26T10:55:17.983Z</time></trkpt><trkpt lat="43.1015708" lon="13.4728506"><ele>367.0</ele><time>2026-04-26T10:55:18.985Z</time></trkpt><trkpt lat="43.1014375" lon="13.472873"><ele>366.0</ele><time>2026-04-26T10:55:19.976Z</time></trkpt><trkpt lat="43.1013135" lon="13.4729549"><ele>365.0</ele><time>2026-04-26T10:55:20.981Z</time></trkpt><trkpt lat="43.1011955" lon="13.4730844"><ele>365.0</ele><time>2026-04-26T10:55:21.988Z</time></trkpt><trkpt lat="43.1010736" lon="13.4732358"><ele>365.0</ele><time>2026-04-26T10:55:22.99Z</time></trkpt><trkpt lat="43.1009389" lon="13.4733798"><ele>365.0</ele><time>2026-04-26T10:55:23.986Z</time></trkpt><trkpt lat="43.100791" lon="13.4735103"><ele>366.0</ele><time>2026-04-26T10:55:24.987Z</time></trkpt><trkpt lat="43.1006417" lon="13.4736382"><ele>367.0</ele><time>2026-04-26T10:55:25.986Z</time></trkpt><trkpt lat="43.1005018" lon="13.4737681"><ele>368.0</ele><time>2026-04-26T10:55:26.989Z</time></trkpt><trkpt lat="43.1003701" lon="13.473902"><ele>364.33333333333337</ele><time>2026-04-26T10:55:27.987Z</time></trkpt><trkpt lat="43.1002409" lon="13.4740408"><ele>360.6666666666667</ele><time>2026-04-26T10:55:28.984Z</time></trkpt><trkpt lat="43.1001097" lon="13.4741822"><ele>357.0</ele><time>2026-04-26T10:55:30Z</time></trkpt><trkpt lat="43.0999815" lon="13.4743213"><ele>357.6666666666667</ele><time>2026-04-26T10:55:30.995Z</time></trkpt><trkpt lat="43.0998537" lon="13.4744671"><ele>358.33333333333337</ele><time>2026-04-26T10:55:31.981Z</time></trkpt><trkpt lat="43.0997266" lon="13.4746037"><ele>359.0</ele><time>2026-04-26T10:55:32.98Z</time></trkpt><trkpt lat="43.0995923" lon="13.4747355"><ele>356.33333333333337</ele><time>2026-04-26T10:55:33.977Z</time></trkpt><trkpt lat="43.0994624" lon="13.4748687"><ele>353.6666666666667</ele><time>2026-04-26T10:55:34.987Z</time></trkpt><trkpt lat="43.099331" lon="13.4750073"><ele>351.0</ele><time>2026-04-26T10:55:35.979Z</time></trkpt><trkpt lat="43.0991997" lon="13.4751375"><ele>351.0</ele><time>2026-04-26T10:55:36.984Z</time></trkpt><trkpt lat="43.0990669" lon="13.4752703"><ele>351.0</ele><time>2026-04-26T10:55:37.975Z</time></trkpt><trkpt lat="43.0989429" lon="13.4753968"><ele>351.0</ele><time>2026-04-26T10:55:38.978Z</time></trkpt><trkpt lat="43.0988173" lon="13.4755258"><ele>349.25</ele><time>2026-04-26T10:55:39.977Z</time></trkpt><trkpt lat="43.0986937" lon="13.4756491"><ele>347.5</ele><time>2026-04-26T10:55:40.987Z</time></trkpt><trkpt lat="43.0985757" lon="13.4757561"><ele>345.75</ele><time>2026-04-26T10:55:41.982Z</time></trkpt><trkpt lat="43.0984596" lon="13.4758568"><ele>344.0</ele><time>2026-04-26T10:55:42.979Z</time></trkpt><trkpt lat="43.0983423" lon="13.47593"><ele>341.0</ele><time>2026-04-26T10:55:43.981Z</time></trkpt><trkpt lat="43.0982225" lon="13.4759747"><ele>338.0</ele><time>2026-04-26T10:55:44.989Z</time></trkpt><trkpt lat="43.0981056" lon="13.4760005"><ele>335.0</ele><time>2026-04-26T10:55:45.982Z</time></trkpt><trkpt lat="43.0979934" lon="13.4759724"><ele>332.0</ele><time>2026-04-26T10:55:46.979Z</time></trkpt><trkpt lat="43.0978852" lon="13.4759137"><ele>332.0</ele><time>2026-04-26T10:55:47.981Z</time></trkpt><trkpt lat="43.0977718" lon="13.4758344"><ele>332.0</ele><time>2026-04-26T10:55:48.985Z</time></trkpt><trkpt lat="43.0976774" lon="13.4757297"><ele>332.0</ele><time>2026-04-26T10:55:49.99Z</time></trkpt><trkpt lat="43.0976094" lon="13.4755927"><ele>332.0</ele><time>2026-04-26T10:55:50.99Z</time></trkpt><trkpt lat="43.0975605" lon="13.4754264"><ele>334.6666666666667</ele><time>2026-04-26T10:55:51.982Z</time></trkpt><trkpt lat="43.0975181" lon="13.47524"><ele>337.3333333333333</ele><time>2026-04-26T10:55:52.981Z</time></trkpt><trkpt lat="43.097472" lon="13.4750446"><ele>340.0</ele><time>2026-04-26T10:55:53.98Z</time></trkpt><trkpt lat="43.0974175" lon="13.4748301"><ele>332.3333333333333</ele><time>2026-04-26T10:55:54.983Z</time></trkpt><trkpt lat="43.0973643" lon="13.4746231"><ele>324.6666666666667</ele><time>2026-04-26T10:55:55.976Z</time></trkpt><trkpt lat="43.0973148" lon="13.4744028"><ele>317.0</ele><time>2026-04-26T10:55:56.971Z</time></trkpt><trkpt lat="43.0972665" lon="13.4741897"><ele>317.0</ele><time>2026-04-26T10:55:57.976Z</time></trkpt><trkpt lat="43.0972171" lon="13.4739849"><ele>317.0</ele><time>2026-04-26T10:55:58.977Z</time></trkpt><trkpt lat="43.0971669" lon="13.4737831"><ele>317.0</ele><time>2026-04-26T10:55:59.974Z</time></trkpt><trkpt lat="43.0971144" lon="13.4735822"><ele>318.25</ele><time>2026-04-26T10:56:00.972Z</time></trkpt><trkpt lat="43.0970653" lon="13.4733917"><ele>319.5</ele><time>2026-04-26T10:56:01.983Z</time></trkpt><trkpt lat="43.0970319" lon="13.4732062"><ele>320.75</ele><time>2026-04-26T10:56:02.983Z</time></trkpt><trkpt lat="43.0970185" lon="13.4730168"><ele>322.0</ele><time>2026-04-26T10:56:03.971Z</time></trkpt><trkpt lat="43.0970168" lon="13.4728189"><ele>322.0</ele><time>2026-04-26T10:56:04.974Z</time></trkpt><trkpt lat="43.0970151" lon="13.4726174"><ele>322.0</ele><time>2026-04-26T10:56:05.982Z</time></trkpt><trkpt lat="43.0970056" lon="13.4724222"><ele>322.0</ele><time>2026-04-26T10:56:06.98Z</time></trkpt><trkpt lat="43.0969811" lon="13.4722399"><ele>322.0</ele><time>2026-04-26T10:56:07.995Z</time></trkpt><trkpt lat="43.0969394" lon="13.4720711"><ele>323.5</ele><time>2026-04-26T10:56:08.971Z</time></trkpt><trkpt lat="43.0968802" lon="13.4719092"><ele>325.0</ele><time>2026-04-26T10:56:09.978Z</time></trkpt><trkpt lat="43.0968098" lon="13.4717592"><ele>326.5</ele><time>2026-04-26T10:56:10.985Z</time></trkpt><trkpt lat="43.096739" lon="13.4716204"><ele>328.0</ele><time>2026-04-26T10:56:11.98Z</time></trkpt><trkpt lat="43.0966739" lon="13.4714915"><ele>328.0</ele><time>2026-04-26T10:56:12.986Z</time></trkpt><trkpt lat="43.0966055" lon="13.4713859"><ele>328.0</ele><time>2026-04-26T10:56:13.968Z</time></trkpt><trkpt lat="43.0965254" lon="13.4713184"><ele>328.0</ele><time>2026-04-26T10:56:14.985Z</time></trkpt><trkpt lat="43.0964319" lon="13.4713106"><ele>328.0</ele><time>2026-04-26T10:56:15.979Z</time></trkpt><trkpt lat="43.0963284" lon="13.4713619"><ele>328.0</ele><time>2026-04-26T10:56:16.975Z</time></trkpt><trkpt lat="43.0962165" lon="13.4714371"><ele>327.25</ele><time>2026-04-26T10:56:17.977Z</time></trkpt><trkpt lat="43.0961205" lon="13.4715535"><ele>326.5</ele><time>2026-04-26T10:56:18.973Z</time></trkpt><trkpt lat="43.0960365" lon="13.4716705"><ele>325.75</ele><time>2026-04-26T10:56:19.978Z</time></trkpt><trkpt lat="43.0959558" lon="13.4717765"><ele>325.0</ele><time>2026-04-26T10:56:20.98Z</time></trkpt><trkpt lat="43.0958784" lon="13.4718721"><ele>325.0</ele><time>2026-04-26T10:56:21.976Z</time></trkpt><trkpt lat="43.095796" lon="13.4719584"><ele>325.0</ele><time>2026-04-26T10:56:22.973Z</time></trkpt><trkpt lat="43.0957034" lon="13.4720249"><ele>325.0</ele><time>2026-04-26T10:56:23.983Z</time></trkpt><trkpt lat="43.0955963" lon="13.4720537"><ele>325.0</ele><time>2026-04-26T10:56:24.977Z</time></trkpt><trkpt lat="43.0954787" lon="13.4720456"><ele>325.0</ele><time>2026-04-26T10:56:25.975Z</time></trkpt><trkpt lat="43.0953562" lon="13.4720279"><ele>324.75</ele><time>2026-04-26T10:56:26.991Z</time></trkpt><trkpt lat="43.0952308" lon="13.4720096"><ele>324.5</ele><time>2026-04-26T10:56:27.975Z</time></trkpt><trkpt lat="43.0951096" lon="13.4719972"><ele>324.25</ele><time>2026-04-26T10:56:28.978Z</time></trkpt><trkpt lat="43.0949943" lon="13.4720011"><ele>324.0</ele><time>2026-04-26T10:56:29.98Z</time></trkpt><trkpt lat="43.0948847" lon="13.4720284"><ele>322.25</ele><time>2026-04-26T10:56:30.974Z</time></trkpt><trkpt lat="43.0947742" lon="13.4720763"><ele>320.5</ele><time>2026-04-26T10:56:31.978Z</time></trkpt><trkpt lat="43.0946618" lon="13.4721388"><ele>318.75</ele><time>2026-04-26T10:56:32.977Z</time></trkpt><trkpt lat="43.094548" lon="13.4721904"><ele>317.0</ele><time>2026-04-26T10:56:33.978Z</time></trkpt><trkpt lat="43.0944367" lon="13.4722353"><ele>317.0</ele><time>2026-04-26T10:56:34.98Z</time></trkpt><trkpt lat="43.0943144" lon="13.4722027"><ele>317.0</ele><time>2026-04-26T10:56:35.976Z</time></trkpt><trkpt lat="43.0941967" lon="13.4721236"><ele>317.0</ele><time>2026-04-26T10:56:36.976Z</time></trkpt><trkpt lat="43.0940912" lon="13.4720336"><ele>317.0</ele><time>2026-04-26T10:56:37.98Z</time></trkpt><trkpt lat="43.0939951" lon="13.4719423"><ele>314.0</ele><time>2026-04-26T10:56:38.982Z</time></trkpt><trkpt lat="43.0939057" lon="13.4718383"><ele>311.0</ele><time>2026-04-26T10:56:39.978Z</time></trkpt><trkpt lat="43.0938283" lon="13.4717318"><ele>308.0</ele><time>2026-04-26T10:56:40.973Z</time></trkpt><trkpt lat="43.0937589" lon="13.4716266"><ele>305.0</ele><time>2026-04-26T10:56:41.975Z</time></trkpt><trkpt lat="43.0936911" lon="13.4715119"><ele>302.0</ele><time>2026-04-26T10:56:42.976Z</time></trkpt><trkpt lat="43.0936213" lon="13.4713859"><ele>303.5</ele><time>2026-04-26T10:56:43.98Z</time></trkpt><trkpt lat="43.0935591" lon="13.4712478"><ele>305.0</ele><time>2026-04-26T10:56:44.983Z</time></trkpt><trkpt lat="43.0935013" lon="13.4710981"><ele>306.5</ele><time>2026-04-26T10:56:45.984Z</time></trkpt><trkpt lat="43.0934496" lon="13.470949"><ele>308.0</ele><time>2026-04-26T10:56:46.974Z</time></trkpt><trkpt lat="43.0934002" lon="13.4708107"><ele>308.0</ele><time>2026-04-26T10:56:47.977Z</time></trkpt><trkpt lat="43.0933504" lon="13.4706904"><ele>308.0</ele><time>2026-04-26T10:56:48.984Z</time></trkpt><trkpt lat="43.0932986" lon="13.4705965"><ele>308.0</ele><time>2026-04-26T10:56:49.972Z</time></trkpt><trkpt lat="43.0932493" lon="13.4705237"><ele>308.0</ele><time>2026-04-26T10:56:50.974Z</time></trkpt><trkpt lat="43.0931831" lon="13.4705232"><ele>308.0</ele><time>2026-04-26T10:56:51.983Z</time></trkpt><trkpt lat="43.0931321" lon="13.4705756"><ele>308.0</ele><time>2026-04-26T10:56:52.984Z</time></trkpt><trkpt lat="43.0931209" lon="13.4707454"><ele>306.8</ele><time>2026-04-26T10:56:54.971Z</time></trkpt><trkpt lat="43.0931446" lon="13.4708472"><ele>305.6</ele><time>2026-04-26T10:56:55.98Z</time></trkpt><trkpt lat="43.0931753" lon="13.4709581"><ele>304.4</ele><time>2026-04-26T10:56:56.982Z</time></trkpt><trkpt lat="43.0932104" lon="13.4710762"><ele>303.2</ele><time>2026-04-26T10:56:57.976Z</time></trkpt><trkpt lat="43.0932492" lon="13.4712008"><ele>302.0</ele><time>2026-04-26T10:56:58.98Z</time></trkpt><trkpt lat="43.0932887" lon="13.4713295"><ele>302.0</ele><time>2026-04-26T10:56:59.977Z</time></trkpt><trkpt lat="43.0933298" lon="13.47146"><ele>302.0</ele><time>2026-04-26T10:57:00.973Z</time></trkpt><trkpt lat="43.0933752" lon="13.4715828"><ele>302.0</ele><time>2026-04-26T10:57:01.978Z</time></trkpt><trkpt lat="43.0934226" lon="13.4717076"><ele>302.0</ele><time>2026-04-26T10:57:02.984Z</time></trkpt><trkpt lat="43.0934757" lon="13.4718353"><ele>302.0</ele><time>2026-04-26T10:57:03.977Z</time></trkpt><trkpt lat="43.0935312" lon="13.4719609"><ele>302.0</ele><time>2026-04-26T10:57:04.978Z</time></trkpt><trkpt lat="43.0935896" lon="13.4720823"><ele>302.0</ele><time>2026-04-26T10:57:05.98Z</time></trkpt><trkpt lat="43.0936448" lon="13.4721965"><ele>302.0</ele><time>2026-04-26T10:57:06.984Z</time></trkpt><trkpt lat="43.0936973" lon="13.4723087"><ele>302.0</ele><time>2026-04-26T10:57:07.982Z</time></trkpt><trkpt lat="43.093752" lon="13.4724216"><ele>302.0</ele><time>2026-04-26T10:57:08.988Z</time></trkpt><trkpt lat="43.0938109" lon="13.472535"><ele>300.4</ele><time>2026-04-26T10:57:09.983Z</time></trkpt><trkpt lat="43.0938738" lon="13.4726532"><ele>298.79999999999995</ele><time>2026-04-26T10:57:10.997Z</time></trkpt><trkpt lat="43.0939377" lon="13.4727737"><ele>297.2</ele><time>2026-04-26T10:57:11.976Z</time></trkpt><trkpt lat="43.0940011" lon="13.472891"><ele>295.59999999999997</ele><time>2026-04-26T10:57:12.979Z</time></trkpt><trkpt lat="43.0940612" lon="13.4730034"><ele>294.0</ele><time>2026-04-26T10:57:13.982Z</time></trkpt><trkpt lat="43.0941203" lon="13.4731094"><ele>294.0</ele><time>2026-04-26T10:57:14.987Z</time></trkpt><trkpt lat="43.0941791" lon="13.47321"><ele>294.0</ele><time>2026-04-26T10:57:15.974Z</time></trkpt><trkpt lat="43.0942393" lon="13.4733106"><ele>294.0</ele><time>2026-04-26T10:57:16.975Z</time></trkpt><trkpt lat="43.0943032" lon="13.4734114"><ele>294.0</ele><time>2026-04-26T10:57:17.975Z</time></trkpt><trkpt lat="43.0943714" lon="13.473514"><ele>294.0</ele><time>2026-04-26T10:57:18.985Z</time></trkpt><trkpt lat="43.0944429" lon="13.4736176"><ele>294.0</ele><time>2026-04-26T10:57:19.977Z</time></trkpt><trkpt lat="43.0945135" lon="13.4737202"><ele>294.0</ele><time>2026-04-26T10:57:20.994Z</time></trkpt><trkpt lat="43.0945832" lon="13.4738132"><ele>294.0</ele><time>2026-04-26T10:57:21.982Z</time></trkpt><trkpt lat="43.0946523" lon="13.4738965"><ele>294.0</ele><time>2026-04-26T10:57:22.984Z</time></trkpt><trkpt lat="43.0947239" lon="13.4739658"><ele>294.0</ele><time>2026-04-26T10:57:23.983Z</time></trkpt><trkpt lat="43.0948045" lon="13.4740164"><ele>294.8</ele><time>2026-04-26T10:57:24.981Z</time></trkpt><trkpt lat="43.0948955" lon="13.4740336"><ele>295.59999999999997</ele><time>2026-04-26T10:57:25.976Z</time></trkpt><trkpt lat="43.0949921" lon="13.4740083"><ele>296.4</ele><time>2026-04-26T10:57:26.977Z</time></trkpt><trkpt lat="43.0950889" lon="13.4739357"><ele>297.2</ele><time>2026-04-26T10:57:27.971Z</time></trkpt><trkpt lat="43.0951909" lon="13.4738293"><ele>298.0</ele><time>2026-04-26T10:57:28.978Z</time></trkpt><trkpt lat="43.0953027" lon="13.4737132"><ele>298.0</ele><time>2026-04-26T10:57:29.977Z</time></trkpt><trkpt lat="43.0954125" lon="13.4736036"><ele>298.0</ele><time>2026-04-26T10:57:30.976Z</time></trkpt><trkpt lat="43.0955126" lon="13.4735023"><ele>298.0</ele><time>2026-04-26T10:57:31.991Z</time></trkpt><trkpt lat="43.0956046" lon="13.4734106"><ele>298.0</ele><time>2026-04-26T10:57:32.977Z</time></trkpt><trkpt lat="43.0956867" lon="13.473326"><ele>298.5</ele><time>2026-04-26T10:57:33.984Z</time></trkpt><trkpt lat="43.095773" lon="13.4733196"><ele>299.0</ele><time>2026-04-26T10:57:34.975Z</time></trkpt><trkpt lat="43.0958459" lon="13.4733715"><ele>299.5</ele><time>2026-04-26T10:57:35.982Z</time></trkpt><trkpt lat="43.0958873" lon="13.473452"><ele>300.0</ele><time>2026-04-26T10:57:36.98Z</time></trkpt><trkpt lat="43.0958968" lon="13.4735658"><ele>300.5</ele><time>2026-04-26T10:57:37.974Z</time></trkpt><trkpt lat="43.0958848" lon="13.473703"><ele>301.0</ele><time>2026-04-26T10:57:38.979Z</time></trkpt><trkpt lat="43.095869" lon="13.4738704"><ele>297.3333333333333</ele><time>2026-04-26T10:57:39.975Z</time></trkpt><trkpt lat="43.0958524" lon="13.4740653"><ele>293.6666666666667</ele><time>2026-04-26T10:57:40.968Z</time></trkpt><trkpt lat="43.0958351" lon="13.4742778"><ele>290.0</ele><time>2026-04-26T10:57:41.979Z</time></trkpt><trkpt lat="43.0958144" lon="13.4745104"><ele>289.33333333333337</ele><time>2026-04-26T10:57:42.971Z</time></trkpt><trkpt lat="43.0957866" lon="13.4747439"><ele>288.6666666666667</ele><time>2026-04-26T10:57:43.98Z</time></trkpt><trkpt lat="43.0957536" lon="13.4749645"><ele>288.0</ele><time>2026-04-26T10:57:44.978Z</time></trkpt><trkpt lat="43.0957211" lon="13.4751718"><ele>285.0</ele><time>2026-04-26T10:57:45.978Z</time></trkpt><trkpt lat="43.0957034" lon="13.4753749"><ele>282.0</ele><time>2026-04-26T10:57:46.97Z</time></trkpt><trkpt lat="43.0957121" lon="13.4755845"><ele>279.0</ele><time>2026-04-26T10:57:47.98Z</time></trkpt><trkpt lat="43.0957475" lon="13.4757977"><ele>279.3333333333333</ele><time>2026-04-26T10:57:48.986Z</time></trkpt><trkpt lat="43.0957893" lon="13.4760173"><ele>279.66666666666663</ele><time>2026-04-26T10:57:49.976Z</time></trkpt><trkpt lat="43.0958073" lon="13.4762346"><ele>280.0</ele><time>2026-04-26T10:57:50.979Z</time></trkpt><trkpt lat="43.0958017" lon="13.4764445"><ele>280.0</ele><time>2026-04-26T10:57:51.976Z</time></trkpt><trkpt lat="43.0957707" lon="13.4766425"><ele>280.0</ele><time>2026-04-26T10:57:52.975Z</time></trkpt><trkpt lat="43.0957232" lon="13.4768255"><ele>280.0</ele><time>2026-04-26T10:57:53.98Z</time></trkpt><trkpt lat="43.0956648" lon="13.4769985"><ele>280.0</ele><time>2026-04-26T10:57:54.975Z</time></trkpt><trkpt lat="43.0956118" lon="13.4771647"><ele>277.25</ele><time>2026-04-26T10:57:55.998Z</time></trkpt><trkpt lat="43.095557" lon="13.4773316"><ele>274.5</ele><time>2026-04-26T10:57:56.972Z</time></trkpt><trkpt lat="43.0955443" lon="13.4774998"><ele>271.75</ele><time>2026-04-26T10:57:57.983Z</time></trkpt><trkpt lat="43.0955651" lon="13.4776547"><ele>269.0</ele><time>2026-04-26T10:57:58.984Z</time></trkpt><trkpt lat="43.0955992" lon="13.4778214"><ele>268.25</ele><time>2026-04-26T10:57:59.979Z</time></trkpt><trkpt lat="43.0956533" lon="13.4780002"><ele>267.5</ele><time>2026-04-26T10:58:00.975Z</time></trkpt><trkpt lat="43.0956907" lon="13.4781926"><ele>266.75</ele><time>2026-04-26T10:58:01.98Z</time></trkpt><trkpt lat="43.0957179" lon="13.4784062"><ele>266.0</ele><time>2026-04-26T10:58:02.976Z</time></trkpt><trkpt lat="43.0957467" lon="13.478631"><ele>266.6666666666667</ele><time>2026-04-26T10:58:03.976Z</time></trkpt><trkpt lat="43.0957807" lon="13.4788658"><ele>267.3333333333333</ele><time>2026-04-26T10:58:04.981Z</time></trkpt><trkpt lat="43.0958174" lon="13.479111"><ele>268.0</ele><time>2026-04-26T10:58:05.979Z</time></trkpt><trkpt lat="43.0958631" lon="13.4793558"><ele>266.66666666666663</ele><time>2026-04-26T10:58:06.983Z</time></trkpt><trkpt lat="43.0959125" lon="13.4796007"><ele>265.3333333333333</ele><time>2026-04-26T10:58:07.975Z</time></trkpt><trkpt lat="43.0959551" lon="13.4798384"><ele>264.0</ele><time>2026-04-26T10:58:08.97Z</time></trkpt><trkpt lat="43.0959898" lon="13.4800779"><ele>264.0</ele><time>2026-04-26T10:58:09.972Z</time></trkpt><trkpt lat="43.0960148" lon="13.4803223"><ele>264.0</ele><time>2026-04-26T10:58:10.983Z</time></trkpt><trkpt lat="43.0960411" lon="13.480564"><ele>264.0</ele><time>2026-04-26T10:58:11.978Z</time></trkpt><trkpt lat="43.0960431" lon="13.4808215"><ele>262.6666666666667</ele><time>2026-04-26T10:58:12.981Z</time></trkpt><trkpt lat="43.0960384" lon="13.481071"><ele>261.33333333333337</ele><time>2026-04-26T10:58:13.978Z</time></trkpt><trkpt lat="43.0960349" lon="13.4813229"><ele>260.0</ele><time>2026-04-26T10:58:14.969Z</time></trkpt><trkpt lat="43.0960309" lon="13.4815523"><ele>258.33333333333337</ele><time>2026-04-26T10:58:15.976Z</time></trkpt><trkpt lat="43.0960306" lon="13.4817764"><ele>256.6666666666667</ele><time>2026-04-26T10:58:16.978Z</time></trkpt><trkpt lat="43.0960307" lon="13.4819943"><ele>255.0</ele><time>2026-04-26T10:58:17.977Z</time></trkpt><trkpt lat="43.0960386" lon="13.482219"><ele>253.33333333333331</ele><time>2026-04-26T10:58:18.997Z</time></trkpt><trkpt lat="43.0960614" lon="13.4824455"><ele>251.66666666666666</ele><time>2026-04-26T10:58:19.98Z</time></trkpt><trkpt lat="43.0961003" lon="13.4826754"><ele>250.0</ele><time>2026-04-26T10:58:20.979Z</time></trkpt><trkpt lat="43.0961514" lon="13.4829012"><ele>248.33333333333331</ele><time>2026-04-26T10:58:21.976Z</time></trkpt><trkpt lat="43.0962245" lon="13.483129"><ele>246.66666666666669</ele><time>2026-04-26T10:58:22.982Z</time></trkpt><trkpt lat="43.0962969" lon="13.4833609"><ele>245.0</ele><time>2026-04-26T10:58:23.979Z</time></trkpt><trkpt lat="43.0963668" lon="13.4835974"><ele>244.0</ele><time>2026-04-26T10:58:24.984Z</time></trkpt><trkpt lat="43.096432" lon="13.4838337"><ele>243.0</ele><time>2026-04-26T10:58:25.973Z</time></trkpt><trkpt lat="43.0964955" lon="13.4840719"><ele>242.0</ele><time>2026-04-26T10:58:26.974Z</time></trkpt><trkpt lat="43.0965519" lon="13.4843011"><ele>242.0</ele><time>2026-04-26T10:58:27.971Z</time></trkpt><trkpt lat="43.096605" lon="13.484528"><ele>242.0</ele><time>2026-04-26T10:58:28.979Z</time></trkpt><trkpt lat="43.0966563" lon="13.4847579"><ele>242.0</ele><time>2026-04-26T10:58:29.975Z</time></trkpt><trkpt lat="43.0967072" lon="13.4849934"><ele>242.0</ele><time>2026-04-26T10:58:30.983Z</time></trkpt><trkpt lat="43.096756" lon="13.4852301"><ele>242.0</ele><time>2026-04-26T10:58:31.975Z</time></trkpt><trkpt lat="43.0968042" lon="13.4854691"><ele>242.0</ele><time>2026-04-26T10:58:32.972Z</time></trkpt><trkpt lat="43.0968506" lon="13.4857073"><ele>241.0</ele><time>2026-04-26T10:58:33.981Z</time></trkpt><trkpt lat="43.0968948" lon="13.485938"><ele>240.0</ele><time>2026-04-26T10:58:34.978Z</time></trkpt><trkpt lat="43.096942" lon="13.4861682"><ele>239.0</ele><time>2026-04-26T10:58:35.975Z</time></trkpt><trkpt lat="43.0969835" lon="13.4863928"><ele>238.0</ele><time>2026-04-26T10:58:36.982Z</time></trkpt><trkpt lat="43.097022" lon="13.4866089"><ele>237.0</ele><time>2026-04-26T10:58:37.969Z</time></trkpt><trkpt lat="43.0970549" lon="13.4868237"><ele>236.0</ele><time>2026-04-26T10:58:38.98Z</time></trkpt><trkpt lat="43.0970843" lon="13.4870327"><ele>236.33333333333334</ele><time>2026-04-26T10:58:39.982Z</time></trkpt><trkpt lat="43.0971053" lon="13.4872423"><ele>236.66666666666669</ele><time>2026-04-26T10:58:40.978Z</time></trkpt><trkpt lat="43.0971267" lon="13.4874547"><ele>237.0</ele><time>2026-04-26T10:58:41.972Z</time></trkpt><trkpt lat="43.0971441" lon="13.4876584"><ele>237.0</ele><time>2026-04-26T10:58:42.979Z</time></trkpt><trkpt lat="43.0971613" lon="13.4878605"><ele>237.0</ele><time>2026-04-26T10:58:43.971Z</time></trkpt><trkpt lat="43.0971794" lon="13.4880612"><ele>237.0</ele><time>2026-04-26T10:58:44.972Z</time></trkpt><trkpt lat="43.0971923" lon="13.4882545"><ele>237.0</ele><time>2026-04-26T10:58:45.968Z</time></trkpt><trkpt lat="43.0972069" lon="13.4884478"><ele>235.25</ele><time>2026-04-26T10:58:46.983Z</time></trkpt><trkpt lat="43.0972254" lon="13.4886397"><ele>233.5</ele><time>2026-04-26T10:58:47.977Z</time></trkpt><trkpt lat="43.0972451" lon="13.488831"><ele>231.75</ele><time>2026-04-26T10:58:48.971Z</time></trkpt><trkpt lat="43.097263" lon="13.4890055"><ele>230.0</ele><time>2026-04-26T10:58:49.973Z</time></trkpt><trkpt lat="43.0972809" lon="13.489173"><ele>230.75</ele><time>2026-04-26T10:58:50.975Z</time></trkpt><trkpt lat="43.0973073" lon="13.489349"><ele>231.5</ele><time>2026-04-26T10:58:51.979Z</time></trkpt><trkpt lat="43.0973483" lon="13.4895296"><ele>232.25</ele><time>2026-04-26T10:58:52.976Z</time></trkpt><trkpt lat="43.0973992" lon="13.4897202"><ele>233.0</ele><time>2026-04-26T10:58:53.979Z</time></trkpt><trkpt lat="43.0974563" lon="13.4899223"><ele>233.0</ele><time>2026-04-26T10:58:54.979Z</time></trkpt><trkpt lat="43.0975201" lon="13.4901419"><ele>233.0</ele><time>2026-04-26T10:58:55.979Z</time></trkpt><trkpt lat="43.0975879" lon="13.4903659"><ele>233.0</ele><time>2026-04-26T10:58:56.972Z</time></trkpt><trkpt lat="43.0976562" lon="13.490589"><ele>231.66666666666669</ele><time>2026-04-26T10:58:57.982Z</time></trkpt><trkpt lat="43.097726" lon="13.4908167"><ele>230.33333333333331</ele><time>2026-04-26T10:58:58.976Z</time></trkpt><trkpt lat="43.0977922" lon="13.4910394"><ele>229.0</ele><time>2026-04-26T10:58:59.982Z</time></trkpt><trkpt lat="43.0978536" lon="13.4912556"><ele>227.66666666666666</ele><time>2026-04-26T10:59:00.98Z</time></trkpt><trkpt lat="43.0979139" lon="13.491464"><ele>226.33333333333331</ele><time>2026-04-26T10:59:01.976Z</time></trkpt><trkpt lat="43.0979776" lon="13.4916713"><ele>225.0</ele><time>2026-04-26T10:59:02.976Z</time></trkpt><trkpt lat="43.0980549" lon="13.4918805"><ele>225.0</ele><time>2026-04-26T10:59:03.986Z</time></trkpt><trkpt lat="43.0981535" lon="13.4920806"><ele>225.0</ele><time>2026-04-26T10:59:04.97Z</time></trkpt><trkpt lat="43.0982686" lon="13.4922754"><ele>225.0</ele><time>2026-04-26T10:59:05.976Z</time></trkpt><trkpt lat="43.0983907" lon="13.4924678"><ele>224.33333333333331</ele><time>2026-04-26T10:59:06.976Z</time></trkpt><trkpt lat="43.0985153" lon="13.4926594"><ele>223.66666666666666</ele><time>2026-04-26T10:59:07.975Z</time></trkpt><trkpt lat="43.0986408" lon="13.4928485"><ele>223.0</ele><time>2026-04-26T10:59:08.98Z</time></trkpt><trkpt lat="43.0987652" lon="13.4930383"><ele>221.66666666666666</ele><time>2026-04-26T10:59:09.985Z</time></trkpt><trkpt lat="43.0988876" lon="13.4932309"><ele>220.33333333333331</ele><time>2026-04-26T10:59:10.978Z</time></trkpt><trkpt lat="43.0990054" lon="13.4934285"><ele>219.0</ele><time>2026-04-26T10:59:11.979Z</time></trkpt><trkpt lat="43.0991207" lon="13.4936228"><ele>217.66666666666669</ele><time>2026-04-26T10:59:12.981Z</time></trkpt><trkpt lat="43.09923" lon="13.4938314"><ele>216.33333333333334</ele><time>2026-04-26T10:59:13.983Z</time></trkpt><trkpt lat="43.0993406" lon="13.4940323"><ele>215.0</ele><time>2026-04-26T10:59:14.984Z</time></trkpt><trkpt lat="43.0994458" lon="13.4942373"><ele>215.0</ele><time>2026-04-26T10:59:15.975Z</time></trkpt><trkpt lat="43.0995503" lon="13.4944202"><ele>215.0</ele><time>2026-04-26T10:59:16.976Z</time></trkpt><trkpt lat="43.0996468" lon="13.4946092"><ele>215.0</ele><time>2026-04-26T10:59:17.984Z</time></trkpt><trkpt lat="43.0997427" lon="13.4947787"><ele>214.75</ele><time>2026-04-26T10:59:18.979Z</time></trkpt><trkpt lat="43.0998257" lon="13.4949384"><ele>214.5</ele><time>2026-04-26T10:59:19.984Z</time></trkpt><trkpt lat="43.0999009" lon="13.4950918"><ele>214.25</ele><time>2026-04-26T10:59:20.979Z</time></trkpt><trkpt lat="43.0999322" lon="13.4952678"><ele>214.0</ele><time>2026-04-26T10:59:21.978Z</time></trkpt><trkpt lat="43.0999288" lon="13.4954568"><ele>213.0</ele><time>2026-04-26T10:59:22.981Z</time></trkpt><trkpt lat="43.0999074" lon="13.4956569"><ele>212.0</ele><time>2026-04-26T10:59:23.983Z</time></trkpt><trkpt lat="43.0998941" lon="13.4958689"><ele>211.0</ele><time>2026-04-26T10:59:24.976Z</time></trkpt><trkpt lat="43.0998799" lon="13.4960787"><ele>210.75</ele><time>2026-04-26T10:59:25.982Z</time></trkpt><trkpt lat="43.0998623" lon="13.4962773"><ele>210.5</ele><time>2026-04-26T10:59:26.975Z</time></trkpt><trkpt lat="43.0998654" lon="13.496481"><ele>210.25</ele><time>2026-04-26T10:59:27.971Z</time></trkpt><trkpt lat="43.0998662" lon="13.4966815"><ele>210.0</ele><time>2026-04-26T10:59:28.981Z</time></trkpt><trkpt lat="43.0998951" lon="13.4968688"><ele>210.5</ele><time>2026-04-26T10:59:29.974Z</time></trkpt><trkpt lat="43.0999366" lon="13.4970479"><ele>211.0</ele><time>2026-04-26T10:59:30.973Z</time></trkpt><trkpt lat="43.0999735" lon="13.4972146"><ele>211.5</ele><time>2026-04-26T10:59:31.981Z</time></trkpt><trkpt lat="43.1000078" lon="13.4973621"><ele>212.0</ele><time>2026-04-26T10:59:32.984Z</time></trkpt><trkpt lat="43.1000333" lon="13.4974938"><ele>212.16666666666669</ele><time>2026-04-26T10:59:33.986Z</time></trkpt><trkpt lat="43.1000541" lon="13.4975982"><ele>212.33333333333334</ele><time>2026-04-26T10:59:34.979Z</time></trkpt><trkpt lat="43.1000533" lon="13.4977304"><ele>212.5</ele><time>2026-04-26T10:59:36.983Z</time></trkpt><trkpt lat="43.1000496" lon="13.4978508"><ele>212.66666666666669</ele><time>2026-04-26T10:59:38.975Z</time></trkpt><trkpt lat="43.1000862" lon="13.4979314"><ele>212.83333333333334</ele><time>2026-04-26T10:59:39.978Z</time></trkpt><trkpt lat="43.1001387" lon="13.4980338"><ele>213.0</ele><time>2026-04-26T10:59:40.983Z</time></trkpt><trkpt lat="43.1001861" lon="13.4981582"><ele>213.0</ele><time>2026-04-26T10:59:41.981Z</time></trkpt><trkpt lat="43.1002339" lon="13.4982818"><ele>213.0</ele><time>2026-04-26T10:59:42.983Z</time></trkpt><trkpt lat="43.100285" lon="13.4984269"><ele>213.0</ele><time>2026-04-26T10:59:43.983Z</time></trkpt><trkpt lat="43.1003278" lon="13.4985888"><ele>213.0</ele><time>2026-04-26T10:59:44.991Z</time></trkpt><trkpt lat="43.1003665" lon="13.4987659"><ele>213.0</ele><time>2026-04-26T10:59:45.985Z</time></trkpt><trkpt lat="43.1004128" lon="13.4989519"><ele>213.0</ele><time>2026-04-26T10:59:46.984Z</time></trkpt><trkpt lat="43.1004684" lon="13.499143"><ele>213.0</ele><time>2026-04-26T10:59:47.981Z</time></trkpt><trkpt lat="43.1005335" lon="13.4993441"><ele>213.0</ele><time>2026-04-26T10:59:48.979Z</time></trkpt><trkpt lat="43.1006004" lon="13.4995384"><ele>213.0</ele><time>2026-04-26T10:59:49.985Z</time></trkpt><trkpt lat="43.1006655" lon="13.4997259"><ele>213.0</ele><time>2026-04-26T10:59:50.989Z</time></trkpt><trkpt lat="43.1007305" lon="13.499913"><ele>213.33333333333331</ele><time>2026-04-26T10:59:51.984Z</time></trkpt><trkpt lat="43.1007987" lon="13.5001012"><ele>213.66666666666666</ele><time>2026-04-26T10:59:52.982Z</time></trkpt><trkpt lat="43.1008664" lon="13.5002931"><ele>214.0</ele><time>2026-04-26T10:59:53.99Z</time></trkpt><trkpt lat="43.1009355" lon="13.5004799"><ele>211.33333333333331</ele><time>2026-04-26T10:59:54.979Z</time></trkpt><trkpt lat="43.1009989" lon="13.5006761"><ele>208.66666666666669</ele><time>2026-04-26T10:59:55.983Z</time></trkpt><trkpt lat="43.1010657" lon="13.5008806"><ele>206.0</ele><time>2026-04-26T10:59:56.991Z</time></trkpt><trkpt lat="43.1011291" lon="13.5010928"><ele>205.0</ele><time>2026-04-26T10:59:57.983Z</time></trkpt><trkpt lat="43.1011843" lon="13.5013125"><ele>204.0</ele><time>2026-04-26T10:59:58.979Z</time></trkpt><trkpt lat="43.1012344" lon="13.5015307"><ele>203.0</ele><time>2026-04-26T10:59:59.975Z</time></trkpt><trkpt lat="43.1012773" lon="13.501756"><ele>203.0</ele><time>2026-04-26T11:00:00.989Z</time></trkpt><trkpt lat="43.101315" lon="13.5019828"><ele>203.0</ele><time>2026-04-26T11:00:01.98Z</time></trkpt><trkpt lat="43.1013541" lon="13.5022143"><ele>203.0</ele><time>2026-04-26T11:00:02.98Z</time></trkpt><trkpt lat="43.1013785" lon="13.5024489"><ele>204.0</ele><time>2026-04-26T11:00:03.982Z</time></trkpt><trkpt lat="43.1013987" lon="13.502694"><ele>205.0</ele><time>2026-04-26T11:00:04.986Z</time></trkpt><trkpt lat="43.1014185" lon="13.5029384"><ele>206.0</ele><time>2026-04-26T11:00:05.981Z</time></trkpt><trkpt lat="43.1014394" lon="13.5031809"><ele>206.0</ele><time>2026-04-26T11:00:06.981Z</time></trkpt><trkpt lat="43.1014628" lon="13.5034297"><ele>206.0</ele><time>2026-04-26T11:00:07.984Z</time></trkpt><trkpt lat="43.1014897" lon="13.5036798"><ele>206.0</ele><time>2026-04-26T11:00:08.98Z</time></trkpt><trkpt lat="43.1015073" lon="13.5039296"><ele>205.33333333333334</ele><time>2026-04-26T11:00:09.982Z</time></trkpt><trkpt lat="43.1015201" lon="13.5041845"><ele>204.66666666666669</ele><time>2026-04-26T11:00:10.988Z</time></trkpt><trkpt lat="43.1015289" lon="13.504442"><ele>204.0</ele><time>2026-04-26T11:00:11.975Z</time></trkpt><trkpt lat="43.1015307" lon="13.5047001"><ele>204.0</ele><time>2026-04-26T11:00:12.98Z</time></trkpt><trkpt lat="43.1015268" lon="13.5049608"><ele>204.0</ele><time>2026-04-26T11:00:13.984Z</time></trkpt><trkpt lat="43.1015174" lon="13.5052226"><ele>204.0</ele><time>2026-04-26T11:00:14.976Z</time></trkpt><trkpt lat="43.1015022" lon="13.5054855"><ele>204.0</ele><time>2026-04-26T11:00:15.98Z</time></trkpt><trkpt lat="43.1014835" lon="13.5057484"><ele>204.0</ele><time>2026-04-26T11:00:16.978Z</time></trkpt><trkpt lat="43.1014618" lon="13.506012"><ele>204.0</ele><time>2026-04-26T11:00:17.985Z</time></trkpt><trkpt lat="43.1014395" lon="13.5062746"><ele>203.66666666666669</ele><time>2026-04-26T11:00:18.984Z</time></trkpt><trkpt lat="43.1014164" lon="13.5065366"><ele>203.33333333333334</ele><time>2026-04-26T11:00:19.983Z</time></trkpt><trkpt lat="43.1013926" lon="13.5067986"><ele>203.0</ele><time>2026-04-26T11:00:20.976Z</time></trkpt><trkpt lat="43.1013699" lon="13.5070576"><ele>202.66666666666669</ele><time>2026-04-26T11:00:21.98Z</time></trkpt><trkpt lat="43.1013458" lon="13.5073168"><ele>202.33333333333331</ele><time>2026-04-26T11:00:22.988Z</time></trkpt><trkpt lat="43.1013212" lon="13.5075741"><ele>202.0</ele><time>2026-04-26T11:00:23.987Z</time></trkpt><trkpt lat="43.1012974" lon="13.5078312"><ele>202.0</ele><time>2026-04-26T11:00:24.975Z</time></trkpt><trkpt lat="43.101273" lon="13.5080895"><ele>202.0</ele><time>2026-04-26T11:00:25.975Z</time></trkpt><trkpt lat="43.1012498" lon="13.508349"><ele>202.0</ele><time>2026-04-26T11:00:26.981Z</time></trkpt><trkpt lat="43.1012293" lon="13.5086075"><ele>201.66666666666666</ele><time>2026-04-26T11:00:27.986Z</time></trkpt><trkpt lat="43.1012158" lon="13.5088604"><ele>201.33333333333331</ele><time>2026-04-26T11:00:28.981Z</time></trkpt><trkpt lat="43.1012125" lon="13.5091083"><ele>201.0</ele><time>2026-04-26T11:00:29.982Z</time></trkpt><trkpt lat="43.1012198" lon="13.5093566"><ele>200.0</ele><time>2026-04-26T11:00:30.973Z</time></trkpt><trkpt lat="43.1012364" lon="13.5096051"><ele>199.0</ele><time>2026-04-26T11:00:31.979Z</time></trkpt><trkpt lat="43.1012638" lon="13.5098535"><ele>198.0</ele><time>2026-04-26T11:00:32.982Z</time></trkpt><trkpt lat="43.1013032" lon="13.5101015"><ele>198.0</ele><time>2026-04-26T11:00:33.982Z</time></trkpt><trkpt lat="43.1013498" lon="13.5103465"><ele>198.0</ele><time>2026-04-26T11:00:34.982Z</time></trkpt><trkpt lat="43.1014022" lon="13.510588"><ele>198.0</ele><time>2026-04-26T11:00:35.976Z</time></trkpt><trkpt lat="43.1014552" lon="13.5108275"><ele>198.0</ele><time>2026-04-26T11:00:36.983Z</time></trkpt><trkpt lat="43.1015077" lon="13.5110654"><ele>198.0</ele><time>2026-04-26T11:00:37.977Z</time></trkpt><trkpt lat="43.101559" lon="13.5113012"><ele>198.0</ele><time>2026-04-26T11:00:38.975Z</time></trkpt><trkpt lat="43.1016081" lon="13.5115316"><ele>198.0</ele><time>2026-04-26T11:00:39.979Z</time></trkpt><trkpt lat="43.1016569" lon="13.5117614"><ele>198.0</ele><time>2026-04-26T11:00:40.971Z</time></trkpt><trkpt lat="43.1017076" lon="13.5119896"><ele>198.0</ele><time>2026-04-26T11:00:41.972Z</time></trkpt><trkpt lat="43.1017598" lon="13.5122136"><ele>198.0</ele><time>2026-04-26T11:00:42.981Z</time></trkpt><trkpt lat="43.1018102" lon="13.5124363"><ele>198.0</ele><time>2026-04-26T11:00:43.974Z</time></trkpt><trkpt lat="43.1018571" lon="13.5126593"><ele>198.0</ele><time>2026-04-26T11:00:44.983Z</time></trkpt><trkpt lat="43.1019018" lon="13.5128847"><ele>196.33333333333331</ele><time>2026-04-26T11:00:45.979Z</time></trkpt><trkpt lat="43.1019469" lon="13.5131115"><ele>194.66666666666666</ele><time>2026-04-26T11:00:46.984Z</time></trkpt><trkpt lat="43.1019914" lon="13.5133411"><ele>193.0</ele><time>2026-04-26T11:00:47.991Z</time></trkpt><trkpt lat="43.1020335" lon="13.5135599"><ele>192.66666666666666</ele><time>2026-04-26T11:00:48.983Z</time></trkpt><trkpt lat="43.1020779" lon="13.5137934"><ele>192.33333333333331</ele><time>2026-04-26T11:00:49.983Z</time></trkpt><trkpt lat="43.1021158" lon="13.5140291"><ele>192.0</ele><time>2026-04-26T11:00:50.981Z</time></trkpt><trkpt lat="43.1021557" lon="13.5142691"><ele>192.0</ele><time>2026-04-26T11:00:51.979Z</time></trkpt><trkpt lat="43.1021953" lon="13.5145092"><ele>192.0</ele><time>2026-04-26T11:00:52.973Z</time></trkpt><trkpt lat="43.1022357" lon="13.5147459"><ele>192.0</ele><time>2026-04-26T11:00:53.973Z</time></trkpt><trkpt lat="43.1022738" lon="13.5149786"><ele>191.33333333333334</ele><time>2026-04-26T11:00:54.975Z</time></trkpt><trkpt lat="43.1023148" lon="13.5152175"><ele>190.66666666666669</ele><time>2026-04-26T11:00:55.98Z</time></trkpt><trkpt lat="43.1023562" lon="13.5154588"><ele>190.0</ele><time>2026-04-26T11:00:56.978Z</time></trkpt><trkpt lat="43.1023971" lon="13.5157034"><ele>190.33333333333334</ele><time>2026-04-26T11:00:57.979Z</time></trkpt><trkpt lat="43.102439" lon="13.5159468"><ele>190.66666666666666</ele><time>2026-04-26T11:00:58.98Z</time></trkpt><trkpt lat="43.1024824" lon="13.5161907"><ele>191.0</ele><time>2026-04-26T11:00:59.977Z</time></trkpt><trkpt lat="43.1025248" lon="13.5164342"><ele>191.0</ele><time>2026-04-26T11:01:00.979Z</time></trkpt><trkpt lat="43.1025662" lon="13.5166782"><ele>191.0</ele><time>2026-04-26T11:01:01.978Z</time></trkpt><trkpt lat="43.1026073" lon="13.5169212"><ele>191.0</ele><time>2026-04-26T11:01:02.976Z</time></trkpt><trkpt lat="43.1026496" lon="13.5171628"><ele>190.66666666666666</ele><time>2026-04-26T11:01:03.981Z</time></trkpt><trkpt lat="43.1026907" lon="13.5174024"><ele>190.33333333333334</ele><time>2026-04-26T11:01:04.982Z</time></trkpt><trkpt lat="43.1027322" lon="13.5176435"><ele>190.0</ele><time>2026-04-26T11:01:05.977Z</time></trkpt><trkpt lat="43.1027752" lon="13.5178844"><ele>189.66666666666669</ele><time>2026-04-26T11:01:06.98Z</time></trkpt><trkpt lat="43.1028173" lon="13.5181253"><ele>189.33333333333334</ele><time>2026-04-26T11:01:07.976Z</time></trkpt><trkpt lat="43.1028581" lon="13.518365"><ele>189.0</ele><time>2026-04-26T11:01:08.984Z</time></trkpt><trkpt lat="43.1028976" lon="13.518603"><ele>188.66666666666666</ele><time>2026-04-26T11:01:09.988Z</time></trkpt><trkpt lat="43.1029382" lon="13.5188406"><ele>188.33333333333331</ele><time>2026-04-26T11:01:10.98Z</time></trkpt><trkpt lat="43.1029781" lon="13.5190768"><ele>188.0</ele><time>2026-04-26T11:01:11.982Z</time></trkpt><trkpt lat="43.1030169" lon="13.5193135"><ele>188.0</ele><time>2026-04-26T11:01:12.977Z</time></trkpt><trkpt lat="43.1030538" lon="13.5195509"><ele>188.0</ele><time>2026-04-26T11:01:13.977Z</time></trkpt><trkpt lat="43.1030899" lon="13.5197896"><ele>188.0</ele><time>2026-04-26T11:01:14.978Z</time></trkpt><trkpt lat="43.1031254" lon="13.5200293"><ele>187.33333333333331</ele><time>2026-04-26T11:01:15.975Z</time></trkpt><trkpt lat="43.1031551" lon="13.5202707"><ele>186.66666666666666</ele><time>2026-04-26T11:01:16.98Z</time></trkpt><trkpt lat="43.1031754" lon="13.5205156"><ele>186.0</ele><time>2026-04-26T11:01:17.982Z</time></trkpt><trkpt lat="43.1031885" lon="13.5207619"><ele>185.0</ele><time>2026-04-26T11:01:18.984Z</time></trkpt><trkpt lat="43.1031956" lon="13.5210081"><ele>184.0</ele><time>2026-04-26T11:01:19.974Z</time></trkpt><trkpt lat="43.1031974" lon="13.5212545"><ele>183.0</ele><time>2026-04-26T11:01:20.983Z</time></trkpt><trkpt lat="43.1031949" lon="13.5214997"><ele>182.66666666666666</ele><time>2026-04-26T11:01:21.976Z</time></trkpt><trkpt lat="43.1031887" lon="13.5217439"><ele>182.33333333333331</ele><time>2026-04-26T11:01:22.979Z</time></trkpt><trkpt lat="43.1031785" lon="13.5219867"><ele>182.0</ele><time>2026-04-26T11:01:23.978Z</time></trkpt><trkpt lat="43.1031658" lon="13.5222274"><ele>182.0</ele><time>2026-04-26T11:01:24.98Z</time></trkpt><trkpt lat="43.1031514" lon="13.5224556"><ele>182.0</ele><time>2026-04-26T11:01:25.979Z</time></trkpt><trkpt lat="43.1031267" lon="13.5226837"><ele>182.0</ele><time>2026-04-26T11:01:26.984Z</time></trkpt><trkpt lat="43.1031157" lon="13.5229238"><ele>182.66666666666666</ele><time>2026-04-26T11:01:27.984Z</time></trkpt><trkpt lat="43.1030988" lon="13.5231605"><ele>183.33333333333334</ele><time>2026-04-26T11:01:28.978Z</time></trkpt><trkpt lat="43.1030849" lon="13.5234"><ele>184.0</ele><time>2026-04-26T11:01:29.983Z</time></trkpt><trkpt lat="43.1030724" lon="13.5236414"><ele>184.33333333333334</ele><time>2026-04-26T11:01:30.979Z</time></trkpt><trkpt lat="43.1030588" lon="13.5238845"><ele>184.66666666666666</ele><time>2026-04-26T11:01:31.979Z</time></trkpt><trkpt lat="43.1030429" lon="13.5241259"><ele>185.0</ele><time>2026-04-26T11:01:32.98Z</time></trkpt><trkpt lat="43.1030219" lon="13.5243697"><ele>184.66666666666666</ele><time>2026-04-26T11:01:33.978Z</time></trkpt><trkpt lat="43.1030006" lon="13.5246172"><ele>184.33333333333334</ele><time>2026-04-26T11:01:34.979Z</time></trkpt><trkpt lat="43.1029823" lon="13.5248642"><ele>184.0</ele><time>2026-04-26T11:01:35.983Z</time></trkpt><trkpt lat="43.102966" lon="13.5251124"><ele>184.0</ele><time>2026-04-26T11:01:36.976Z</time></trkpt><trkpt lat="43.1029496" lon="13.5253568"><ele>184.0</ele><time>2026-04-26T11:01:37.979Z</time></trkpt><trkpt lat="43.1029326" lon="13.5255998"><ele>184.0</ele><time>2026-04-26T11:01:38.975Z</time></trkpt><trkpt lat="43.1029163" lon="13.5258411"><ele>183.66666666666669</ele><time>2026-04-26T11:01:39.982Z</time></trkpt><trkpt lat="43.1029009" lon="13.5260812"><ele>183.33333333333334</ele><time>2026-04-26T11:01:40.98Z</time></trkpt><trkpt lat="43.1028852" lon="13.5263206"><ele>183.0</ele><time>2026-04-26T11:01:41.978Z</time></trkpt><trkpt lat="43.1028705" lon="13.5265601"><ele>182.0</ele><time>2026-04-26T11:01:42.978Z</time></trkpt><trkpt lat="43.1028569" lon="13.5267988"><ele>181.0</ele><time>2026-04-26T11:01:43.982Z</time></trkpt><trkpt lat="43.1028421" lon="13.5270382"><ele>180.0</ele><time>2026-04-26T11:01:44.98Z</time></trkpt><trkpt lat="43.1028265" lon="13.5272767"><ele>179.66666666666666</ele><time>2026-04-26T11:01:45.972Z</time></trkpt><trkpt lat="43.1028109" lon="13.5275127"><ele>179.33333333333331</ele><time>2026-04-26T11:01:46.975Z</time></trkpt><trkpt lat="43.102795" lon="13.5277497"><ele>179.0</ele><time>2026-04-26T11:01:47.98Z</time></trkpt><trkpt lat="43.1027805" lon="13.5279892"><ele>179.0</ele><time>2026-04-26T11:01:48.976Z</time></trkpt><trkpt lat="43.1027649" lon="13.5282288"><ele>179.0</ele><time>2026-04-26T11:01:49.974Z</time></trkpt><trkpt lat="43.1027495" lon="13.5284687"><ele>179.0</ele><time>2026-04-26T11:01:50.975Z</time></trkpt><trkpt lat="43.1027337" lon="13.5287066"><ele>178.66666666666666</ele><time>2026-04-26T11:01:51.975Z</time></trkpt><trkpt lat="43.1027193" lon="13.5289459"><ele>178.33333333333334</ele><time>2026-04-26T11:01:52.978Z</time></trkpt><trkpt lat="43.1027033" lon="13.5291848"><ele>178.0</ele><time>2026-04-26T11:01:53.978Z</time></trkpt><trkpt lat="43.1026849" lon="13.5294238"><ele>176.66666666666669</ele><time>2026-04-26T11:01:54.986Z</time></trkpt><trkpt lat="43.102662" lon="13.5296631"><ele>175.33333333333334</ele><time>2026-04-26T11:01:55.978Z</time></trkpt><trkpt lat="43.1026279" lon="13.5299002"><ele>174.0</ele><time>2026-04-26T11:01:56.975Z</time></trkpt><trkpt lat="43.1025799" lon="13.5301337"><ele>174.0</ele><time>2026-04-26T11:01:57.978Z</time></trkpt><trkpt lat="43.1025152" lon="13.5303634"><ele>174.0</ele><time>2026-04-26T11:01:58.977Z</time></trkpt><trkpt lat="43.1024373" lon="13.530588"><ele>174.0</ele><time>2026-04-26T11:01:59.972Z</time></trkpt><trkpt lat="43.1023486" lon="13.530806"><ele>173.0</ele><time>2026-04-26T11:02:00.977Z</time></trkpt><trkpt lat="43.1022534" lon="13.5310187"><ele>172.0</ele><time>2026-04-26T11:02:01.98Z</time></trkpt><trkpt lat="43.1021568" lon="13.5312288"><ele>171.0</ele><time>2026-04-26T11:02:02.981Z</time></trkpt><trkpt lat="43.1020601" lon="13.5314386"><ele>171.0</ele><time>2026-04-26T11:02:03.978Z</time></trkpt><trkpt lat="43.1019658" lon="13.5316494"><ele>171.0</ele><time>2026-04-26T11:02:04.978Z</time></trkpt><trkpt lat="43.1018766" lon="13.5318641"><ele>171.0</ele><time>2026-04-26T11:02:05.982Z</time></trkpt><trkpt lat="43.1017995" lon="13.5320869"><ele>170.66666666666666</ele><time>2026-04-26T11:02:06.976Z</time></trkpt><trkpt lat="43.1017402" lon="13.5323186"><ele>170.33333333333331</ele><time>2026-04-26T11:02:07.98Z</time></trkpt><trkpt lat="43.1017004" lon="13.5325572"><ele>170.0</ele><time>2026-04-26T11:02:08.982Z</time></trkpt><trkpt lat="43.101679" lon="13.5327987"><ele>169.33333333333331</ele><time>2026-04-26T11:02:09.982Z</time></trkpt><trkpt lat="43.1016749" lon="13.5330421"><ele>168.66666666666666</ele><time>2026-04-26T11:02:10.982Z</time></trkpt><trkpt lat="43.1016901" lon="13.5332842"><ele>168.0</ele><time>2026-04-26T11:02:11.976Z</time></trkpt><trkpt lat="43.101721" lon="13.533525"><ele>167.33333333333334</ele><time>2026-04-26T11:02:12.977Z</time></trkpt><trkpt lat="43.1017627" lon="13.5337644"><ele>166.66666666666669</ele><time>2026-04-26T11:02:13.972Z</time></trkpt><trkpt lat="43.1018093" lon="13.534003"><ele>166.0</ele><time>2026-04-26T11:02:14.984Z</time></trkpt><trkpt lat="43.1018552" lon="13.5342416"><ele>166.0</ele><time>2026-04-26T11:02:15.986Z</time></trkpt><trkpt lat="43.1019001" lon="13.534478"><ele>166.0</ele><time>2026-04-26T11:02:16.981Z</time></trkpt><trkpt lat="43.1019473" lon="13.5347138"><ele>166.0</ele><time>2026-04-26T11:02:17.974Z</time></trkpt><trkpt lat="43.1019972" lon="13.534949"><ele>165.66666666666669</ele><time>2026-04-26T11:02:18.984Z</time></trkpt><trkpt lat="43.1020471" lon="13.5351841"><ele>165.33333333333334</ele><time>2026-04-26T11:02:19.978Z</time></trkpt><trkpt lat="43.1020958" lon="13.5354205"><ele>165.0</ele><time>2026-04-26T11:02:20.979Z</time></trkpt><trkpt lat="43.1021426" lon="13.535658"><ele>165.0</ele><time>2026-04-26T11:02:21.976Z</time></trkpt><trkpt lat="43.1021902" lon="13.5358942"><ele>165.0</ele><time>2026-04-26T11:02:22.977Z</time></trkpt><trkpt lat="43.102237" lon="13.5361297"><ele>165.0</ele><time>2026-04-26T11:02:23.98Z</time></trkpt><trkpt lat="43.1022817" lon="13.536364"><ele>165.0</ele><time>2026-04-26T11:02:24.972Z</time></trkpt><trkpt lat="43.1023255" lon="13.5365966"><ele>165.0</ele><time>2026-04-26T11:02:25.989Z</time></trkpt><trkpt lat="43.1023714" lon="13.5368261"><ele>165.0</ele><time>2026-04-26T11:02:26.981Z</time></trkpt><trkpt lat="43.1024194" lon="13.5370524"><ele>166.0</ele><time>2026-04-26T11:02:27.985Z</time></trkpt><trkpt lat="43.1024672" lon="13.537277"><ele>167.0</ele><time>2026-04-26T11:02:28.971Z</time></trkpt><trkpt lat="43.1025161" lon="13.5375011"><ele>168.0</ele><time>2026-04-26T11:02:29.979Z</time></trkpt><trkpt lat="43.1025655" lon="13.5377254"><ele>167.66666666666666</ele><time>2026-04-26T11:02:30.978Z</time></trkpt><trkpt lat="43.1026155" lon="13.5379512"><ele>167.33333333333331</ele><time>2026-04-26T11:02:31.98Z</time></trkpt><trkpt lat="43.1026671" lon="13.538177"><ele>167.0</ele><time>2026-04-26T11:02:32.979Z</time></trkpt><trkpt lat="43.1027209" lon="13.538402"><ele>167.0</ele><time>2026-04-26T11:02:33.979Z</time></trkpt><trkpt lat="43.1027761" lon="13.5386274"><ele>167.0</ele><time>2026-04-26T11:02:34.98Z</time></trkpt><trkpt lat="43.1028322" lon="13.538853"><ele>167.0</ele><time>2026-04-26T11:02:35.983Z</time></trkpt><trkpt lat="43.1028887" lon="13.5390773"><ele>167.0</ele><time>2026-04-26T11:02:36.983Z</time></trkpt><trkpt lat="43.1029456" lon="13.5393002"><ele>167.0</ele><time>2026-04-26T11:02:37.98Z</time></trkpt><trkpt lat="43.1030028" lon="13.5395181"><ele>167.0</ele><time>2026-04-26T11:02:38.98Z</time></trkpt><trkpt lat="43.103056" lon="13.5397209"><ele>167.0</ele><time>2026-04-26T11:02:39.972Z</time></trkpt><trkpt lat="43.1031047" lon="13.5399074"><ele>167.0</ele><time>2026-04-26T11:02:40.981Z</time></trkpt><trkpt lat="43.1031482" lon="13.5400731"><ele>167.0</ele><time>2026-04-26T11:02:41.98Z</time></trkpt><trkpt lat="43.1031854" lon="13.5402217"><ele>167.0</ele><time>2026-04-26T11:02:42.993Z</time></trkpt><trkpt lat="43.1032112" lon="13.5403586"><ele>166.6</ele><time>2026-04-26T11:02:43.985Z</time></trkpt><trkpt lat="43.1032184" lon="13.5404896"><ele>166.2</ele><time>2026-04-26T11:02:44.98Z</time></trkpt><trkpt lat="43.103228" lon="13.5406205"><ele>165.8</ele><time>2026-04-26T11:02:45.975Z</time></trkpt><trkpt lat="43.1032666" lon="13.5407513"><ele>165.4</ele><time>2026-04-26T11:02:46.983Z</time></trkpt><trkpt lat="43.1033416" lon="13.5408854"><ele>165.0</ele><time>2026-04-26T11:02:47.976Z</time></trkpt><trkpt lat="43.1034292" lon="13.5410372"><ele>166.25</ele><time>2026-04-26T11:02:48.975Z</time></trkpt><trkpt lat="43.1035092" lon="13.5412143"><ele>167.5</ele><time>2026-04-26T11:02:49.982Z</time></trkpt><trkpt lat="43.103581" lon="13.5413944"><ele>168.75</ele><time>2026-04-26T11:02:50.979Z</time></trkpt><trkpt lat="43.1036479" lon="13.541567"><ele>170.0</ele><time>2026-04-26T11:02:51.985Z</time></trkpt><trkpt lat="43.1037133" lon="13.5417359"><ele>170.0</ele><time>2026-04-26T11:02:52.985Z</time></trkpt><trkpt lat="43.1037784" lon="13.5419013"><ele>170.0</ele><time>2026-04-26T11:02:53.974Z</time></trkpt><trkpt lat="43.1038449" lon="13.5420683"><ele>170.0</ele><time>2026-04-26T11:02:54.998Z</time></trkpt><trkpt lat="43.1039142" lon="13.5422387"><ele>170.0</ele><time>2026-04-26T11:02:55.98Z</time></trkpt><trkpt lat="43.1039862" lon="13.5424115"><ele>170.0</ele><time>2026-04-26T11:02:56.975Z</time></trkpt><trkpt lat="43.1040592" lon="13.5425856"><ele>170.0</ele><time>2026-04-26T11:02:57.985Z</time></trkpt><trkpt lat="43.1041315" lon="13.5427601"><ele>170.0</ele><time>2026-04-26T11:02:58.98Z</time></trkpt><trkpt lat="43.1042038" lon="13.542934"><ele>170.0</ele><time>2026-04-26T11:02:59.976Z</time></trkpt><trkpt lat="43.1042765" lon="13.5431089"><ele>170.0</ele><time>2026-04-26T11:03:00.983Z</time></trkpt><trkpt lat="43.1043494" lon="13.543284"><ele>170.0</ele><time>2026-04-26T11:03:01.981Z</time></trkpt><trkpt lat="43.1044233" lon="13.5434599"><ele>170.0</ele><time>2026-04-26T11:03:02.986Z</time></trkpt><trkpt lat="43.1044969" lon="13.5436369"><ele>170.0</ele><time>2026-04-26T11:03:03.996Z</time></trkpt><trkpt lat="43.1045705" lon="13.5438138"><ele>169.33333333333331</ele><time>2026-04-26T11:03:04.983Z</time></trkpt><trkpt lat="43.1046454" lon="13.5439912"><ele>168.66666666666666</ele><time>2026-04-26T11:03:05.975Z</time></trkpt><trkpt lat="43.1047203" lon="13.5441697"><ele>168.0</ele><time>2026-04-26T11:03:06.982Z</time></trkpt><trkpt lat="43.1047961" lon="13.5443488"><ele>168.0</ele><time>2026-04-26T11:03:07.986Z</time></trkpt><trkpt lat="43.1048722" lon="13.5445292"><ele>168.0</ele><time>2026-04-26T11:03:08.976Z</time></trkpt><trkpt lat="43.1049492" lon="13.5447117"><ele>168.0</ele><time>2026-04-26T11:03:09.973Z</time></trkpt><trkpt lat="43.1050256" lon="13.5448978"><ele>168.0</ele><time>2026-04-26T11:03:10.985Z</time></trkpt><trkpt lat="43.1051013" lon="13.5450864"><ele>168.0</ele><time>2026-04-26T11:03:11.98Z</time></trkpt><trkpt lat="43.1051786" lon="13.5452757"><ele>168.0</ele><time>2026-04-26T11:03:12.978Z</time></trkpt><trkpt lat="43.105257" lon="13.5454653"><ele>168.0</ele><time>2026-04-26T11:03:13.985Z</time></trkpt><trkpt lat="43.1053349" lon="13.5456555"><ele>168.0</ele><time>2026-04-26T11:03:14.978Z</time></trkpt><trkpt lat="43.105414" lon="13.545846"><ele>168.0</ele><time>2026-04-26T11:03:15.972Z</time></trkpt><trkpt lat="43.1054943" lon="13.5460358"><ele>167.33333333333334</ele><time>2026-04-26T11:03:16.979Z</time></trkpt><trkpt lat="43.1055747" lon="13.5462256"><ele>166.66666666666669</ele><time>2026-04-26T11:03:17.981Z</time></trkpt><trkpt lat="43.1056539" lon="13.5464169"><ele>166.0</ele><time>2026-04-26T11:03:18.979Z</time></trkpt><trkpt lat="43.1057304" lon="13.5466043"><ele>165.75</ele><time>2026-04-26T11:03:19.979Z</time></trkpt><trkpt lat="43.1058026" lon="13.5467781"><ele>165.5</ele><time>2026-04-26T11:03:20.985Z</time></trkpt><trkpt lat="43.1058725" lon="13.546944"><ele>165.25</ele><time>2026-04-26T11:03:21.988Z</time></trkpt><trkpt lat="43.1059411" lon="13.5471052"><ele>165.0</ele><time>2026-04-26T11:03:22.978Z</time></trkpt><trkpt lat="43.1060084" lon="13.5472649"><ele>165.0</ele><time>2026-04-26T11:03:23.98Z</time></trkpt><trkpt lat="43.1060751" lon="13.5474234"><ele>165.0</ele><time>2026-04-26T11:03:24.976Z</time></trkpt><trkpt lat="43.1061405" lon="13.5475793"><ele>165.0</ele><time>2026-04-26T11:03:25.982Z</time></trkpt><trkpt lat="43.1062044" lon="13.547733"><ele>165.0</ele><time>2026-04-26T11:03:26.984Z</time></trkpt><trkpt lat="43.1062672" lon="13.5478834"><ele>165.2</ele><time>2026-04-26T11:03:27.985Z</time></trkpt><trkpt lat="43.1063276" lon="13.5480254"><ele>165.4</ele><time>2026-04-26T11:03:28.983Z</time></trkpt><trkpt lat="43.1063816" lon="13.5481526"><ele>165.60000000000002</ele><time>2026-04-26T11:03:29.982Z</time></trkpt><trkpt lat="43.1064314" lon="13.5482722"><ele>165.8</ele><time>2026-04-26T11:03:30.984Z</time></trkpt><trkpt lat="43.1064804" lon="13.5483885"><ele>166.0</ele><time>2026-04-26T11:03:31.991Z</time></trkpt><trkpt lat="43.10653" lon="13.5485054"><ele>166.0</ele><time>2026-04-26T11:03:32.979Z</time></trkpt><trkpt lat="43.1065813" lon="13.5486214"><ele>166.0</ele><time>2026-04-26T11:03:33.982Z</time></trkpt><trkpt lat="43.1066333" lon="13.5487394"><ele>166.0</ele><time>2026-04-26T11:03:34.983Z</time></trkpt><trkpt lat="43.1066819" lon="13.548863"><ele>166.0</ele><time>2026-04-26T11:03:35.984Z</time></trkpt><trkpt lat="43.1067293" lon="13.5489921"><ele>166.0</ele><time>2026-04-26T11:03:36.984Z</time></trkpt><trkpt lat="43.1067775" lon="13.5491064"><ele>166.25</ele><time>2026-04-26T11:03:37.979Z</time></trkpt><trkpt lat="43.1068418" lon="13.5492337"><ele>166.5</ele><time>2026-04-26T11:03:38.985Z</time></trkpt><trkpt lat="43.1068971" lon="13.5493697"><ele>166.75</ele><time>2026-04-26T11:03:39.976Z</time></trkpt><trkpt lat="43.106955" lon="13.5495122"><ele>167.0</ele><time>2026-04-26T11:03:40.987Z</time></trkpt><trkpt lat="43.1070177" lon="13.5496642"><ele>167.0</ele><time>2026-04-26T11:03:41.986Z</time></trkpt><trkpt lat="43.1070842" lon="13.5498208"><ele>167.0</ele><time>2026-04-26T11:03:42.975Z</time></trkpt><trkpt lat="43.1071505" lon="13.5499791"><ele>167.0</ele><time>2026-04-26T11:03:43.975Z</time></trkpt><trkpt lat="43.1072139" lon="13.5501442"><ele>167.0</ele><time>2026-04-26T11:03:44.983Z</time></trkpt><trkpt lat="43.1072803" lon="13.5503109"><ele>166.75</ele><time>2026-04-26T11:03:45.978Z</time></trkpt><trkpt lat="43.1073497" lon="13.5504787"><ele>166.5</ele><time>2026-04-26T11:03:46.98Z</time></trkpt><trkpt lat="43.1074185" lon="13.5506495"><ele>166.25</ele><time>2026-04-26T11:03:48.002Z</time></trkpt><trkpt lat="43.1074883" lon="13.5508179"><ele>166.0</ele><time>2026-04-26T11:03:48.984Z</time></trkpt><trkpt lat="43.1075641" lon="13.5509883"><ele>166.0</ele><time>2026-04-26T11:03:49.987Z</time></trkpt><trkpt lat="43.1076366" lon="13.5511663"><ele>166.0</ele><time>2026-04-26T11:03:50.984Z</time></trkpt><trkpt lat="43.1077085" lon="13.5513512"><ele>166.0</ele><time>2026-04-26T11:03:51.981Z</time></trkpt><trkpt lat="43.1077816" lon="13.5515326"><ele>165.33333333333334</ele><time>2026-04-26T11:03:52.976Z</time></trkpt><trkpt lat="43.1078551" lon="13.5517189"><ele>164.66666666666666</ele><time>2026-04-26T11:03:53.974Z</time></trkpt><trkpt lat="43.1079268" lon="13.5519088"><ele>164.0</ele><time>2026-04-26T11:03:54.976Z</time></trkpt><trkpt lat="43.1079959" lon="13.5520999"><ele>163.66666666666666</ele><time>2026-04-26T11:03:55.989Z</time></trkpt><trkpt lat="43.1080683" lon="13.5522889"><ele>163.33333333333334</ele><time>2026-04-26T11:03:56.984Z</time></trkpt><trkpt lat="43.1081408" lon="13.5524739"><ele>163.0</ele><time>2026-04-26T11:03:57.98Z</time></trkpt><trkpt lat="43.1082141" lon="13.5526638"><ele>163.0</ele><time>2026-04-26T11:03:58.98Z</time></trkpt><trkpt lat="43.108286" lon="13.5528572"><ele>163.0</ele><time>2026-04-26T11:03:59.978Z</time></trkpt><trkpt lat="43.1083589" lon="13.5530497"><ele>163.0</ele><time>2026-04-26T11:04:00.983Z</time></trkpt><trkpt lat="43.1084329" lon="13.553241"><ele>163.0</ele><time>2026-04-26T11:04:01.978Z</time></trkpt><trkpt lat="43.1085057" lon="13.5534339"><ele>163.0</ele><time>2026-04-26T11:04:02.98Z</time></trkpt><trkpt lat="43.1085793" lon="13.5536251"><ele>163.0</ele><time>2026-04-26T11:04:03.978Z</time></trkpt><trkpt lat="43.1086537" lon="13.5538151"><ele>162.66666666666669</ele><time>2026-04-26T11:04:04.983Z</time></trkpt><trkpt lat="43.1087273" lon="13.5540036"><ele>162.33333333333334</ele><time>2026-04-26T11:04:05.976Z</time></trkpt><trkpt lat="43.1088001" lon="13.5541961"><ele>162.0</ele><time>2026-04-26T11:04:06.981Z</time></trkpt><trkpt lat="43.1088748" lon="13.5543859"><ele>161.66666666666666</ele><time>2026-04-26T11:04:07.985Z</time></trkpt><trkpt lat="43.1089531" lon="13.5545724"><ele>161.33333333333331</ele><time>2026-04-26T11:04:08.976Z</time></trkpt><trkpt lat="43.1090332" lon="13.5547578"><ele>161.0</ele><time>2026-04-26T11:04:09.98Z</time></trkpt><trkpt lat="43.109116" lon="13.5549439"><ele>161.66666666666666</ele><time>2026-04-26T11:04:10.982Z</time></trkpt><trkpt lat="43.1092009" lon="13.5551313"><ele>162.33333333333334</ele><time>2026-04-26T11:04:11.982Z</time></trkpt><trkpt lat="43.1092873" lon="13.5553179"><ele>163.0</ele><time>2026-04-26T11:04:12.977Z</time></trkpt><trkpt lat="43.1093732" lon="13.5555066"><ele>163.0</ele><time>2026-04-26T11:04:13.979Z</time></trkpt><trkpt lat="43.1094601" lon="13.5556953"><ele>163.0</ele><time>2026-04-26T11:04:14.988Z</time></trkpt><trkpt lat="43.1095466" lon="13.5558847"><ele>163.0</ele><time>2026-04-26T11:04:15.976Z</time></trkpt><trkpt lat="43.1096322" lon="13.5560755"><ele>161.33333333333334</ele><time>2026-04-26T11:04:16.983Z</time></trkpt><trkpt lat="43.1097175" lon="13.556265"><ele>159.66666666666666</ele><time>2026-04-26T11:04:17.975Z</time></trkpt><trkpt lat="43.1098022" lon="13.5564528"><ele>158.0</ele><time>2026-04-26T11:04:18.98Z</time></trkpt><trkpt lat="43.1098882" lon="13.556641"><ele>159.0</ele><time>2026-04-26T11:04:19.982Z</time></trkpt><trkpt lat="43.1099756" lon="13.5568292"><ele>160.0</ele><time>2026-04-26T11:04:20.979Z</time></trkpt><trkpt lat="43.1100619" lon="13.557018"><ele>161.0</ele><time>2026-04-26T11:04:21.982Z</time></trkpt><trkpt lat="43.1101473" lon="13.5572066"><ele>161.0</ele><time>2026-04-26T11:04:22.976Z</time></trkpt><trkpt lat="43.1102329" lon="13.5573961"><ele>161.0</ele><time>2026-04-26T11:04:23.98Z</time></trkpt><trkpt lat="43.1103188" lon="13.5575856"><ele>161.0</ele><time>2026-04-26T11:04:24.981Z</time></trkpt><trkpt lat="43.1104044" lon="13.5577739"><ele>161.0</ele><time>2026-04-26T11:04:25.985Z</time></trkpt><trkpt lat="43.1104907" lon="13.5579613"><ele>161.0</ele><time>2026-04-26T11:04:26.978Z</time></trkpt><trkpt lat="43.1105753" lon="13.5581499"><ele>161.0</ele><time>2026-04-26T11:04:27.982Z</time></trkpt><trkpt lat="43.1106606" lon="13.5583391"><ele>161.33333333333331</ele><time>2026-04-26T11:04:28.979Z</time></trkpt><trkpt lat="43.1107459" lon="13.5585278"><ele>161.66666666666666</ele><time>2026-04-26T11:04:29.983Z</time></trkpt><trkpt lat="43.1108315" lon="13.5587167"><ele>162.0</ele><time>2026-04-26T11:04:30.988Z</time></trkpt><trkpt lat="43.1109162" lon="13.5589038"><ele>162.0</ele><time>2026-04-26T11:04:31.983Z</time></trkpt><trkpt lat="43.111001" lon="13.5590906"><ele>162.0</ele><time>2026-04-26T11:04:32.976Z</time></trkpt><trkpt lat="43.111084" lon="13.5592758"><ele>162.0</ele><time>2026-04-26T11:04:33.977Z</time></trkpt><trkpt lat="43.1111649" lon="13.5594594"><ele>161.66666666666666</ele><time>2026-04-26T11:04:34.985Z</time></trkpt><trkpt lat="43.1112444" lon="13.5596393"><ele>161.33333333333331</ele><time>2026-04-26T11:04:35.979Z</time></trkpt><trkpt lat="43.111324" lon="13.559818"><ele>161.0</ele><time>2026-04-26T11:04:36.983Z</time></trkpt><trkpt lat="43.1114042" lon="13.5599932"><ele>161.0</ele><time>2026-04-26T11:04:37.98Z</time></trkpt><trkpt lat="43.1114861" lon="13.5601639"><ele>161.0</ele><time>2026-04-26T11:04:38.985Z</time></trkpt><trkpt lat="43.1115699" lon="13.5603317"><ele>161.0</ele><time>2026-04-26T11:04:39.98Z</time></trkpt><trkpt lat="43.1116569" lon="13.5604989"><ele>161.0</ele><time>2026-04-26T11:04:40.979Z</time></trkpt><trkpt lat="43.111745" lon="13.5606676"><ele>161.66666666666666</ele><time>2026-04-26T11:04:41.981Z</time></trkpt><trkpt lat="43.1118337" lon="13.5608388"><ele>162.33333333333334</ele><time>2026-04-26T11:04:42.975Z</time></trkpt><trkpt lat="43.111922" lon="13.5610097"><ele>163.0</ele><time>2026-04-26T11:04:43.977Z</time></trkpt><trkpt lat="43.1120115" lon="13.561182"><ele>162.33333333333334</ele><time>2026-04-26T11:04:44.977Z</time></trkpt><trkpt lat="43.1121023" lon="13.5613545"><ele>161.66666666666666</ele><time>2026-04-26T11:04:45.984Z</time></trkpt><trkpt lat="43.1121919" lon="13.5615277"><ele>161.0</ele><time>2026-04-26T11:04:46.983Z</time></trkpt><trkpt lat="43.1122804" lon="13.5617006"><ele>161.0</ele><time>2026-04-26T11:04:47.996Z</time></trkpt><trkpt lat="43.1123691" lon="13.5618722"><ele>161.0</ele><time>2026-04-26T11:04:48.983Z</time></trkpt><trkpt lat="43.1124577" lon="13.5620428"><ele>161.0</ele><time>2026-04-26T11:04:49.983Z</time></trkpt><trkpt lat="43.1125474" lon="13.5622119"><ele>160.75</ele><time>2026-04-26T11:04:50.987Z</time></trkpt><trkpt lat="43.1126368" lon="13.5623805"><ele>160.5</ele><time>2026-04-26T11:04:51.98Z</time></trkpt><trkpt lat="43.1127238" lon="13.5625444"><ele>160.25</ele><time>2026-04-26T11:04:52.977Z</time></trkpt><trkpt lat="43.1128065" lon="13.5626965"><ele>160.0</ele><time>2026-04-26T11:04:53.983Z</time></trkpt><trkpt lat="43.1128835" lon="13.5628407"><ele>159.6</ele><time>2026-04-26T11:04:54.983Z</time></trkpt><trkpt lat="43.1129559" lon="13.5629762"><ele>159.2</ele><time>2026-04-26T11:04:55.976Z</time></trkpt><trkpt lat="43.1130212" lon="13.5630985"><ele>158.8</ele><time>2026-04-26T11:04:56.979Z</time></trkpt><trkpt lat="43.1130812" lon="13.5632102"><ele>158.4</ele><time>2026-04-26T11:04:57.977Z</time></trkpt><trkpt lat="43.1131361" lon="13.5633087"><ele>158.0</ele><time>2026-04-26T11:04:58.975Z</time></trkpt><trkpt lat="43.113183" lon="13.5633923"><ele>158.0</ele><time>2026-04-26T11:04:59.994Z</time></trkpt><trkpt lat="43.1132268" lon="13.5634773"><ele>158.0</ele><time>2026-04-26T11:05:00.976Z</time></trkpt><trkpt lat="43.113277" lon="13.5635787"><ele>158.0</ele><time>2026-04-26T11:05:01.982Z</time></trkpt><trkpt lat="43.1133301" lon="13.5636868"><ele>158.0</ele><time>2026-04-26T11:05:02.978Z</time></trkpt><trkpt lat="43.1133886" lon="13.5638009"><ele>158.0</ele><time>2026-04-26T11:05:03.984Z</time></trkpt><trkpt lat="43.1134514" lon="13.5639209"><ele>158.0</ele><time>2026-04-26T11:05:04.976Z</time></trkpt><trkpt lat="43.1135165" lon="13.5640429"><ele>158.0</ele><time>2026-04-26T11:05:05.982Z</time></trkpt><trkpt lat="43.1135824" lon="13.5641657"><ele>158.0</ele><time>2026-04-26T11:05:06.981Z</time></trkpt><trkpt lat="43.1136481" lon="13.5642916"><ele>158.0</ele><time>2026-04-26T11:05:07.979Z</time></trkpt><trkpt lat="43.1137152" lon="13.5644193"><ele>158.0</ele><time>2026-04-26T11:05:08.974Z</time></trkpt><trkpt lat="43.1137852" lon="13.5645482"><ele>158.0</ele><time>2026-04-26T11:05:09.974Z</time></trkpt><trkpt lat="43.1138559" lon="13.5646756"><ele>158.0</ele><time>2026-04-26T11:05:10.988Z</time></trkpt><trkpt lat="43.1139273" lon="13.5648025"><ele>158.0</ele><time>2026-04-26T11:05:11.983Z</time></trkpt><trkpt lat="43.1140017" lon="13.5649297"><ele>158.0</ele><time>2026-04-26T11:05:12.98Z</time></trkpt><trkpt lat="43.1140824" lon="13.5650563"><ele>157.75</ele><time>2026-04-26T11:05:13.971Z</time></trkpt><trkpt lat="43.1141686" lon="13.5651847"><ele>157.5</ele><time>2026-04-26T11:05:14.992Z</time></trkpt><trkpt lat="43.1142595" lon="13.5653176"><ele>157.25</ele><time>2026-04-26T11:05:15.982Z</time></trkpt><trkpt lat="43.1143572" lon="13.5654514"><ele>157.0</ele><time>2026-04-26T11:05:16.979Z</time></trkpt><trkpt lat="43.1144608" lon="13.565586"><ele>156.75</ele><time>2026-04-26T11:05:17.975Z</time></trkpt><trkpt lat="43.1145664" lon="13.5657203"><ele>156.5</ele><time>2026-04-26T11:05:18.985Z</time></trkpt><trkpt lat="43.1146753" lon="13.5658574"><ele>156.25</ele><time>2026-04-26T11:05:19.979Z</time></trkpt><trkpt lat="43.1147881" lon="13.5659966"><ele>156.0</ele><time>2026-04-26T11:05:20.974Z</time></trkpt><trkpt lat="43.1149019" lon="13.5661396"><ele>155.33333333333334</ele><time>2026-04-26T11:05:21.98Z</time></trkpt><trkpt lat="43.1150162" lon="13.5662854"><ele>154.66666666666669</ele><time>2026-04-26T11:05:22.977Z</time></trkpt><trkpt lat="43.1151292" lon="13.5664285"><ele>154.0</ele><time>2026-04-26T11:05:23.977Z</time></trkpt><trkpt lat="43.1152355" lon="13.566562"><ele>154.0</ele><time>2026-04-26T11:05:24.979Z</time></trkpt><trkpt lat="43.1153337" lon="13.5666883"><ele>154.0</ele><time>2026-04-26T11:05:25.974Z</time></trkpt><trkpt lat="43.1154305" lon="13.5668135"><ele>154.0</ele><time>2026-04-26T11:05:26.983Z</time></trkpt><trkpt lat="43.1155289" lon="13.566938"><ele>154.0</ele><time>2026-04-26T11:05:27.977Z</time></trkpt><trkpt lat="43.1156282" lon="13.5670615"><ele>153.75</ele><time>2026-04-26T11:05:28.981Z</time></trkpt><trkpt lat="43.1157285" lon="13.5671871"><ele>153.5</ele><time>2026-04-26T11:05:29.976Z</time></trkpt><trkpt lat="43.1158277" lon="13.5673137"><ele>153.25</ele><time>2026-04-26T11:05:30.979Z</time></trkpt><trkpt lat="43.1159285" lon="13.5674434"><ele>153.0</ele><time>2026-04-26T11:05:31.978Z</time></trkpt><trkpt lat="43.1160319" lon="13.5675732"><ele>153.0</ele><time>2026-04-26T11:05:32.979Z</time></trkpt><trkpt lat="43.116138" lon="13.5677036"><ele>153.0</ele><time>2026-04-26T11:05:33.971Z</time></trkpt><trkpt lat="43.1162446" lon="13.5678356"><ele>153.0</ele><time>2026-04-26T11:05:34.975Z</time></trkpt><trkpt lat="43.1163506" lon="13.5679686"><ele>153.0</ele><time>2026-04-26T11:05:35.987Z</time></trkpt><trkpt lat="43.1164558" lon="13.5681046"><ele>152.75</ele><time>2026-04-26T11:05:36.98Z</time></trkpt><trkpt lat="43.1165628" lon="13.5682378"><ele>152.5</ele><time>2026-04-26T11:05:37.977Z</time></trkpt><trkpt lat="43.1166704" lon="13.5683726"><ele>152.25</ele><time>2026-04-26T11:05:38.974Z</time></trkpt><trkpt lat="43.1167783" lon="13.5685074"><ele>152.0</ele><time>2026-04-26T11:05:39.981Z</time></trkpt><trkpt lat="43.1168865" lon="13.5686414"><ele>152.5</ele><time>2026-04-26T11:05:40.98Z</time></trkpt><trkpt lat="43.1169952" lon="13.5687764"><ele>153.0</ele><time>2026-04-26T11:05:41.98Z</time></trkpt><trkpt lat="43.117103" lon="13.5689126"><ele>153.5</ele><time>2026-04-26T11:05:42.973Z</time></trkpt><trkpt lat="43.117206" lon="13.5690531"><ele>154.0</ele><time>2026-04-26T11:05:43.973Z</time></trkpt><trkpt lat="43.117306" lon="13.5691998"><ele>154.0</ele><time>2026-04-26T11:05:44.975Z</time></trkpt><trkpt lat="43.117402" lon="13.569352"><ele>154.0</ele><time>2026-04-26T11:05:45.971Z</time></trkpt><trkpt lat="43.1174911" lon="13.5695119"><ele>154.0</ele><time>2026-04-26T11:05:46.972Z</time></trkpt><trkpt lat="43.1175726" lon="13.569681"><ele>154.0</ele><time>2026-04-26T11:05:47.972Z</time></trkpt><trkpt lat="43.1176485" lon="13.5698583"><ele>154.0</ele><time>2026-04-26T11:05:48.977Z</time></trkpt><trkpt lat="43.1177217" lon="13.5700401"><ele>154.0</ele><time>2026-04-26T11:05:49.975Z</time></trkpt><trkpt lat="43.1177928" lon="13.5702254"><ele>154.0</ele><time>2026-04-26T11:05:50.975Z</time></trkpt><trkpt lat="43.1178626" lon="13.5704138"><ele>154.0</ele><time>2026-04-26T11:05:51.983Z</time></trkpt><trkpt lat="43.117932" lon="13.5706054"><ele>154.0</ele><time>2026-04-26T11:05:52.974Z</time></trkpt><trkpt lat="43.1180028" lon="13.5707974"><ele>154.0</ele><time>2026-04-26T11:05:53.981Z</time></trkpt><trkpt lat="43.1180728" lon="13.5709894"><ele>154.0</ele><time>2026-04-26T11:05:54.975Z</time></trkpt><trkpt lat="43.1181434" lon="13.571183"><ele>154.0</ele><time>2026-04-26T11:05:55.973Z</time></trkpt><trkpt lat="43.118214" lon="13.5713776"><ele>154.0</ele><time>2026-04-26T11:05:56.972Z</time></trkpt><trkpt lat="43.1182849" lon="13.5715716"><ele>154.0</ele><time>2026-04-26T11:05:57.976Z</time></trkpt><trkpt lat="43.1183549" lon="13.5717653"><ele>154.0</ele><time>2026-04-26T11:05:58.979Z</time></trkpt><trkpt lat="43.1184247" lon="13.5719603"><ele>154.0</ele><time>2026-04-26T11:05:59.979Z</time></trkpt><trkpt lat="43.1184947" lon="13.5721567"><ele>153.0</ele><time>2026-04-26T11:06:00.971Z</time></trkpt><trkpt lat="43.1185666" lon="13.5723373"><ele>152.0</ele><time>2026-04-26T11:06:01.979Z</time></trkpt><trkpt lat="43.1186414" lon="13.5725268"><ele>151.0</ele><time>2026-04-26T11:06:02.979Z</time></trkpt><trkpt lat="43.1187133" lon="13.5727222"><ele>150.0</ele><time>2026-04-26T11:06:03.976Z</time></trkpt><trkpt lat="43.1187833" lon="13.5729172"><ele>149.0</ele><time>2026-04-26T11:06:04.972Z</time></trkpt><trkpt lat="43.1188536" lon="13.5731047"><ele>148.0</ele><time>2026-04-26T11:06:05.979Z</time></trkpt><trkpt lat="43.1189277" lon="13.5733057"><ele>148.0</ele><time>2026-04-26T11:06:06.989Z</time></trkpt><trkpt lat="43.119001" lon="13.5735078"><ele>148.0</ele><time>2026-04-26T11:06:07.982Z</time></trkpt><trkpt lat="43.1190737" lon="13.5737064"><ele>148.0</ele><time>2026-04-26T11:06:08.978Z</time></trkpt><trkpt lat="43.1191476" lon="13.5739047"><ele>149.33333333333334</ele><time>2026-04-26T11:06:09.982Z</time></trkpt><trkpt lat="43.1192202" lon="13.574103"><ele>150.66666666666666</ele><time>2026-04-26T11:06:10.979Z</time></trkpt><trkpt lat="43.1192923" lon="13.5743016"><ele>152.0</ele><time>2026-04-26T11:06:11.985Z</time></trkpt><trkpt lat="43.1193626" lon="13.5745024"><ele>151.33333333333331</ele><time>2026-04-26T11:06:12.975Z</time></trkpt><trkpt lat="43.1194309" lon="13.5747023"><ele>150.66666666666666</ele><time>2026-04-26T11:06:13.976Z</time></trkpt><trkpt lat="43.1194986" lon="13.5749023"><ele>150.0</ele><time>2026-04-26T11:06:14.972Z</time></trkpt><trkpt lat="43.1195642" lon="13.5751025"><ele>150.0</ele><time>2026-04-26T11:06:15.978Z</time></trkpt><trkpt lat="43.1196294" lon="13.5753012"><ele>150.0</ele><time>2026-04-26T11:06:16.98Z</time></trkpt><trkpt lat="43.1196928" lon="13.5754998"><ele>150.0</ele><time>2026-04-26T11:06:17.978Z</time></trkpt><trkpt lat="43.1197564" lon="13.5756978"><ele>149.66666666666666</ele><time>2026-04-26T11:06:18.984Z</time></trkpt><trkpt lat="43.1198212" lon="13.5758949"><ele>149.33333333333331</ele><time>2026-04-26T11:06:19.98Z</time></trkpt><trkpt lat="43.1198867" lon="13.5760908"><ele>149.0</ele><time>2026-04-26T11:06:20.978Z</time></trkpt><trkpt lat="43.1199508" lon="13.5762885"><ele>149.66666666666666</ele><time>2026-04-26T11:06:21.976Z</time></trkpt><trkpt lat="43.1200139" lon="13.5764876"><ele>150.33333333333334</ele><time>2026-04-26T11:06:22.974Z</time></trkpt><trkpt lat="43.1200769" lon="13.5766891"><ele>151.0</ele><time>2026-04-26T11:06:23.97Z</time></trkpt><trkpt lat="43.1201432" lon="13.5768908"><ele>150.33333333333334</ele><time>2026-04-26T11:06:24.981Z</time></trkpt><trkpt lat="43.1202106" lon="13.5770911"><ele>149.66666666666666</ele><time>2026-04-26T11:06:25.975Z</time></trkpt><trkpt lat="43.1202823" lon="13.5772886"><ele>149.0</ele><time>2026-04-26T11:06:26.975Z</time></trkpt><trkpt lat="43.1203579" lon="13.5774837"><ele>149.0</ele><time>2026-04-26T11:06:27.974Z</time></trkpt><trkpt lat="43.120436" lon="13.5776768"><ele>149.0</ele><time>2026-04-26T11:06:28.976Z</time></trkpt><trkpt lat="43.1205156" lon="13.5778702"><ele>149.0</ele><time>2026-04-26T11:06:29.981Z</time></trkpt><trkpt lat="43.1205953" lon="13.5780641"><ele>149.0</ele><time>2026-04-26T11:06:30.974Z</time></trkpt><trkpt lat="43.1206746" lon="13.5782544"><ele>149.0</ele><time>2026-04-26T11:06:31.979Z</time></trkpt><trkpt lat="43.1207538" lon="13.578444"><ele>149.0</ele><time>2026-04-26T11:06:32.976Z</time></trkpt><trkpt lat="43.1208346" lon="13.5786326"><ele>147.66666666666666</ele><time>2026-04-26T11:06:33.977Z</time></trkpt><trkpt lat="43.1209155" lon="13.5788203"><ele>146.33333333333334</ele><time>2026-04-26T11:06:34.978Z</time></trkpt><trkpt lat="43.1209971" lon="13.5790079"><ele>145.0</ele><time>2026-04-26T11:06:35.977Z</time></trkpt><trkpt lat="43.1210785" lon="13.5791953"><ele>145.0</ele><time>2026-04-26T11:06:36.975Z</time></trkpt><trkpt lat="43.1211594" lon="13.5793826"><ele>145.0</ele><time>2026-04-26T11:06:37.976Z</time></trkpt><trkpt lat="43.1212393" lon="13.5795712"><ele>145.0</ele><time>2026-04-26T11:06:38.978Z</time></trkpt><trkpt lat="43.1213184" lon="13.5797606"><ele>144.33333333333334</ele><time>2026-04-26T11:06:39.973Z</time></trkpt><trkpt lat="43.1213979" lon="13.5799498"><ele>143.66666666666666</ele><time>2026-04-26T11:06:40.974Z</time></trkpt><trkpt lat="43.121479" lon="13.5801403"><ele>143.0</ele><time>2026-04-26T11:06:41.974Z</time></trkpt><trkpt lat="43.121555" lon="13.5803297"><ele>142.66666666666666</ele><time>2026-04-26T11:06:42.99Z</time></trkpt><trkpt lat="43.1216409" lon="13.5805187"><ele>142.33333333333334</ele><time>2026-04-26T11:06:43.972Z</time></trkpt><trkpt lat="43.1217129" lon="13.5807104"><ele>142.0</ele><time>2026-04-26T11:06:44.975Z</time></trkpt><trkpt lat="43.1217834" lon="13.5808971"><ele>142.0</ele><time>2026-04-26T11:06:45.977Z</time></trkpt><trkpt lat="43.1218576" lon="13.5810929"><ele>142.0</ele><time>2026-04-26T11:06:46.977Z</time></trkpt><trkpt lat="43.12193" lon="13.5812905"><ele>142.0</ele><time>2026-04-26T11:06:47.975Z</time></trkpt><trkpt lat="43.1220035" lon="13.5814904"><ele>141.33333333333334</ele><time>2026-04-26T11:06:48.974Z</time></trkpt><trkpt lat="43.1220759" lon="13.5816933"><ele>140.66666666666666</ele><time>2026-04-26T11:06:49.972Z</time></trkpt><trkpt lat="43.1221493" lon="13.5818958"><ele>140.0</ele><time>2026-04-26T11:06:50.969Z</time></trkpt><trkpt lat="43.1222238" lon="13.5820979"><ele>139.33333333333331</ele><time>2026-04-26T11:06:51.969Z</time></trkpt><trkpt lat="43.1222974" lon="13.5823009"><ele>138.66666666666666</ele><time>2026-04-26T11:06:52.972Z</time></trkpt><trkpt lat="43.1223686" lon="13.5825034"><ele>138.0</ele><time>2026-04-26T11:06:53.975Z</time></trkpt><trkpt lat="43.1224417" lon="13.5827049"><ele>137.66666666666666</ele><time>2026-04-26T11:06:54.971Z</time></trkpt><trkpt lat="43.1225138" lon="13.5829081"><ele>137.33333333333331</ele><time>2026-04-26T11:06:55.971Z</time></trkpt><trkpt lat="43.1225847" lon="13.5831091"><ele>137.0</ele><time>2026-04-26T11:06:56.974Z</time></trkpt><trkpt lat="43.1226571" lon="13.5833111"><ele>137.0</ele><time>2026-04-26T11:06:57.974Z</time></trkpt><trkpt lat="43.1227282" lon="13.5835138"><ele>137.0</ele><time>2026-04-26T11:06:58.977Z</time></trkpt><trkpt lat="43.1227975" lon="13.5837179"><ele>137.0</ele><time>2026-04-26T11:06:59.972Z</time></trkpt><trkpt lat="43.1228693" lon="13.5839211"><ele>137.33333333333331</ele><time>2026-04-26T11:07:00.975Z</time></trkpt><trkpt lat="43.1229426" lon="13.584123"><ele>137.66666666666666</ele><time>2026-04-26T11:07:01.979Z</time></trkpt><trkpt lat="43.1230157" lon="13.584323"><ele>138.0</ele><time>2026-04-26T11:07:02.98Z</time></trkpt><trkpt lat="43.1230849" lon="13.584524"><ele>138.0</ele><time>2026-04-26T11:07:03.984Z</time></trkpt><trkpt lat="43.1231493" lon="13.5847279"><ele>138.0</ele><time>2026-04-26T11:07:04.974Z</time></trkpt><trkpt lat="43.1232046" lon="13.5849361"><ele>138.0</ele><time>2026-04-26T11:07:05.972Z</time></trkpt><trkpt lat="43.1232497" lon="13.5851485"><ele>137.0</ele><time>2026-04-26T11:07:06.974Z</time></trkpt><trkpt lat="43.1232894" lon="13.5853639"><ele>136.0</ele><time>2026-04-26T11:07:07.974Z</time></trkpt><trkpt lat="43.1233331" lon="13.5855763"><ele>135.0</ele><time>2026-04-26T11:07:08.977Z</time></trkpt><trkpt lat="43.1233788" lon="13.5857808"><ele>135.0</ele><time>2026-04-26T11:07:09.978Z</time></trkpt><trkpt lat="43.1234394" lon="13.585982"><ele>135.0</ele><time>2026-04-26T11:07:10.983Z</time></trkpt><trkpt lat="43.1235066" lon="13.5861797"><ele>135.0</ele><time>2026-04-26T11:07:11.981Z</time></trkpt><trkpt lat="43.1235779" lon="13.5863658"><ele>134.66666666666666</ele><time>2026-04-26T11:07:12.977Z</time></trkpt><trkpt lat="43.1236551" lon="13.5865458"><ele>134.33333333333331</ele><time>2026-04-26T11:07:13.983Z</time></trkpt><trkpt lat="43.1237408" lon="13.5867271"><ele>134.0</ele><time>2026-04-26T11:07:14.981Z</time></trkpt><trkpt lat="43.123835" lon="13.5869"><ele>133.66666666666666</ele><time>2026-04-26T11:07:15.976Z</time></trkpt><trkpt lat="43.1239357" lon="13.5870657"><ele>133.33333333333334</ele><time>2026-04-26T11:07:16.978Z</time></trkpt><trkpt lat="43.1240386" lon="13.5872341"><ele>133.0</ele><time>2026-04-26T11:07:17.979Z</time></trkpt><trkpt lat="43.124138" lon="13.587409"><ele>133.66666666666669</ele><time>2026-04-26T11:07:18.984Z</time></trkpt><trkpt lat="43.124233" lon="13.5875918"><ele>134.33333333333334</ele><time>2026-04-26T11:07:19.983Z</time></trkpt><trkpt lat="43.1243196" lon="13.5877835"><ele>135.0</ele><time>2026-04-26T11:07:20.97Z</time></trkpt><trkpt lat="43.1244015" lon="13.5879791"><ele>135.0</ele><time>2026-04-26T11:07:21.974Z</time></trkpt><trkpt lat="43.1244799" lon="13.5881795"><ele>135.0</ele><time>2026-04-26T11:07:22.981Z</time></trkpt><trkpt lat="43.1245558" lon="13.5883842"><ele>135.0</ele><time>2026-04-26T11:07:23.979Z</time></trkpt><trkpt lat="43.1246293" lon="13.5885897"><ele>134.33333333333334</ele><time>2026-04-26T11:07:24.975Z</time></trkpt><trkpt lat="43.1247" lon="13.5888008"><ele>133.66666666666669</ele><time>2026-04-26T11:07:25.976Z</time></trkpt><trkpt lat="43.124768" lon="13.5890142"><ele>133.0</ele><time>2026-04-26T11:07:26.982Z</time></trkpt><trkpt lat="43.1248339" lon="13.5892288"><ele>132.33333333333334</ele><time>2026-04-26T11:07:27.979Z</time></trkpt><trkpt lat="43.1249" lon="13.5894415"><ele>131.66666666666666</ele><time>2026-04-26T11:07:28.976Z</time></trkpt><trkpt lat="43.1249705" lon="13.5896496"><ele>131.0</ele><time>2026-04-26T11:07:29.975Z</time></trkpt><trkpt lat="43.1250529" lon="13.5898482"><ele>131.0</ele><time>2026-04-26T11:07:30.985Z</time></trkpt><trkpt lat="43.1251446" lon="13.5900386"><ele>131.0</ele><time>2026-04-26T11:07:31.978Z</time></trkpt><trkpt lat="43.1252448" lon="13.5902182"><ele>131.0</ele><time>2026-04-26T11:07:32.981Z</time></trkpt><trkpt lat="43.1253493" lon="13.5903884"><ele>130.0</ele><time>2026-04-26T11:07:33.981Z</time></trkpt><trkpt lat="43.1254526" lon="13.5905552"><ele>129.0</ele><time>2026-04-26T11:07:34.979Z</time></trkpt><trkpt lat="43.1255537" lon="13.5907185"><ele>128.0</ele><time>2026-04-26T11:07:35.997Z</time></trkpt><trkpt lat="43.1256544" lon="13.5908801"><ele>128.25</ele><time>2026-04-26T11:07:36.98Z</time></trkpt><trkpt lat="43.1257527" lon="13.5910386"><ele>128.5</ele><time>2026-04-26T11:07:37.977Z</time></trkpt><trkpt lat="43.125844" lon="13.5911894"><ele>128.75</ele><time>2026-04-26T11:07:38.979Z</time></trkpt><trkpt lat="43.1259212" lon="13.5913333"><ele>129.0</ele><time>2026-04-26T11:07:39.982Z</time></trkpt><trkpt lat="43.1259874" lon="13.5914646"><ele>129.0</ele><time>2026-04-26T11:07:40.98Z</time></trkpt><trkpt lat="43.1260226" lon="13.5916067"><ele>129.0</ele><time>2026-04-26T11:07:41.981Z</time></trkpt><trkpt lat="43.1260309" lon="13.5917369"><ele>129.0</ele><time>2026-04-26T11:07:42.978Z</time></trkpt><trkpt lat="43.1260276" lon="13.5918491"><ele>129.0</ele><time>2026-04-26T11:07:43.979Z</time></trkpt><trkpt lat="43.1260179" lon="13.5919594"><ele>129.0</ele><time>2026-04-26T11:07:44.983Z</time></trkpt><trkpt lat="43.1259964" lon="13.592077"><ele>128.4</ele><time>2026-04-26T11:07:45.979Z</time></trkpt><trkpt lat="43.1259931" lon="13.5922087"><ele>127.80000000000001</ele><time>2026-04-26T11:07:46.98Z</time></trkpt><trkpt lat="43.1260271" lon="13.5923413"><ele>127.19999999999999</ele><time>2026-04-26T11:07:47.978Z</time></trkpt><trkpt lat="43.1260985" lon="13.5924471"><ele>126.6</ele><time>2026-04-26T11:07:48.978Z</time></trkpt><trkpt lat="43.1261936" lon="13.5925142"><ele>126.0</ele><time>2026-04-26T11:07:49.992Z</time></trkpt><trkpt lat="43.1262949" lon="13.5925625"><ele>126.0</ele><time>2026-04-26T11:07:50.978Z</time></trkpt><trkpt lat="43.1263927" lon="13.5926165"><ele>126.0</ele><time>2026-04-26T11:07:51.978Z</time></trkpt><trkpt lat="43.126483" lon="13.592693"><ele>126.0</ele><time>2026-04-26T11:07:52.978Z</time></trkpt><trkpt lat="43.1265619" lon="13.59278"><ele>126.0</ele><time>2026-04-26T11:07:53.98Z</time></trkpt><trkpt lat="43.1266297" lon="13.5928801"><ele>126.0</ele><time>2026-04-26T11:07:54.972Z</time></trkpt><trkpt lat="43.1266868" lon="13.5929953"><ele>126.0</ele><time>2026-04-26T11:07:55.978Z</time></trkpt><trkpt lat="43.1267369" lon="13.5931235"><ele>126.0</ele><time>2026-04-26T11:07:56.972Z</time></trkpt><trkpt lat="43.1267869" lon="13.5932567"><ele>126.0</ele><time>2026-04-26T11:07:57.989Z</time></trkpt><trkpt lat="43.1268426" lon="13.5933946"><ele>126.0</ele><time>2026-04-26T11:07:58.979Z</time></trkpt><trkpt lat="43.1269011" lon="13.5935344"><ele>126.0</ele><time>2026-04-26T11:07:59.98Z</time></trkpt><trkpt lat="43.1269629" lon="13.5936782"><ele>126.0</ele><time>2026-04-26T11:08:00.975Z</time></trkpt><trkpt lat="43.1270283" lon="13.5938226"><ele>126.0</ele><time>2026-04-26T11:08:01.978Z</time></trkpt><trkpt lat="43.1270992" lon="13.5939686"><ele>126.0</ele><time>2026-04-26T11:08:02.982Z</time></trkpt><trkpt lat="43.1271721" lon="13.5941129"><ele>126.0</ele><time>2026-04-26T11:08:03.979Z</time></trkpt><trkpt lat="43.1272481" lon="13.5942555"><ele>126.0</ele><time>2026-04-26T11:08:04.989Z</time></trkpt><trkpt lat="43.1273295" lon="13.5943976"><ele>126.0</ele><time>2026-04-26T11:08:05.974Z</time></trkpt><trkpt lat="43.1274135" lon="13.5945404"><ele>126.0</ele><time>2026-04-26T11:08:06.977Z</time></trkpt><trkpt lat="43.1274935" lon="13.5946774"><ele>126.0</ele><time>2026-04-26T11:08:07.981Z</time></trkpt><trkpt lat="43.1275682" lon="13.5948067"><ele>126.25</ele><time>2026-04-26T11:08:08.98Z</time></trkpt><trkpt lat="43.1276424" lon="13.5949358"><ele>126.5</ele><time>2026-04-26T11:08:09.985Z</time></trkpt><trkpt lat="43.1277188" lon="13.5950675"><ele>126.75</ele><time>2026-04-26T11:08:10.974Z</time></trkpt><trkpt lat="43.1277977" lon="13.5952016"><ele>127.0</ele><time>2026-04-26T11:08:11.977Z</time></trkpt><trkpt lat="43.1278804" lon="13.5953369"><ele>127.0</ele><time>2026-04-26T11:08:12.976Z</time></trkpt><trkpt lat="43.1279628" lon="13.5954765"><ele>127.0</ele><time>2026-04-26T11:08:13.979Z</time></trkpt><trkpt lat="43.1280425" lon="13.5956204"><ele>127.0</ele><time>2026-04-26T11:08:14.992Z</time></trkpt><trkpt lat="43.1281202" lon="13.5957678"><ele>127.0</ele><time>2026-04-26T11:08:15.969Z</time></trkpt><trkpt lat="43.1281999" lon="13.5959151"><ele>127.0</ele><time>2026-04-26T11:08:16.983Z</time></trkpt><trkpt lat="43.1282836" lon="13.5960607"><ele>127.0</ele><time>2026-04-26T11:08:17.974Z</time></trkpt><trkpt lat="43.1283736" lon="13.5962006"><ele>127.0</ele><time>2026-04-26T11:08:18.98Z</time></trkpt><trkpt lat="43.128471" lon="13.5963349"><ele>127.0</ele><time>2026-04-26T11:08:19.982Z</time></trkpt><trkpt lat="43.1285737" lon="13.5964646"><ele>127.0</ele><time>2026-04-26T11:08:20.977Z</time></trkpt><trkpt lat="43.1286814" lon="13.5965897"><ele>127.0</ele><time>2026-04-26T11:08:21.987Z</time></trkpt><trkpt lat="43.1287922" lon="13.5967098"><ele>127.0</ele><time>2026-04-26T11:08:22.978Z</time></trkpt><trkpt lat="43.128906" lon="13.5968244"><ele>127.0</ele><time>2026-04-26T11:08:23.976Z</time></trkpt><trkpt lat="43.1290224" lon="13.5969355"><ele>127.0</ele><time>2026-04-26T11:08:24.976Z</time></trkpt><trkpt lat="43.129139" lon="13.5970462"><ele>127.0</ele><time>2026-04-26T11:08:25.972Z</time></trkpt><trkpt lat="43.1292563" lon="13.5971561"><ele>127.0</ele><time>2026-04-26T11:08:26.98Z</time></trkpt><trkpt lat="43.1293765" lon="13.5972644"><ele>127.0</ele><time>2026-04-26T11:08:27.975Z</time></trkpt><trkpt lat="43.1294986" lon="13.5973672"><ele>127.0</ele><time>2026-04-26T11:08:28.977Z</time></trkpt><trkpt lat="43.1296252" lon="13.5974642"><ele>127.0</ele><time>2026-04-26T11:08:29.977Z</time></trkpt><trkpt lat="43.1297554" lon="13.5975538"><ele>127.0</ele><time>2026-04-26T11:08:30.985Z</time></trkpt><trkpt lat="43.1298908" lon="13.5976385"><ele>127.0</ele><time>2026-04-26T11:08:31.975Z</time></trkpt><trkpt lat="43.1300213" lon="13.597723"><ele>126.66666666666667</ele><time>2026-04-26T11:08:32.979Z</time></trkpt><trkpt lat="43.1301595" lon="13.5978207"><ele>126.33333333333334</ele><time>2026-04-26T11:08:33.976Z</time></trkpt><trkpt lat="43.1302928" lon="13.5979228"><ele>126.0</ele><time>2026-04-26T11:08:34.979Z</time></trkpt><trkpt lat="43.1304232" lon="13.5980325"><ele>126.0</ele><time>2026-04-26T11:08:35.976Z</time></trkpt><trkpt lat="43.1305487" lon="13.5981511"><ele>126.0</ele><time>2026-04-26T11:08:36.982Z</time></trkpt><trkpt lat="43.1306718" lon="13.5982737"><ele>126.0</ele><time>2026-04-26T11:08:37.974Z</time></trkpt><trkpt lat="43.1307822" lon="13.5984101"><ele>126.0</ele><time>2026-04-26T11:08:38.976Z</time></trkpt><trkpt lat="43.130893" lon="13.5985629"><ele>126.0</ele><time>2026-04-26T11:08:39.976Z</time></trkpt><trkpt lat="43.1309963" lon="13.5987144"><ele>126.0</ele><time>2026-04-26T11:08:40.979Z</time></trkpt><trkpt lat="43.1310976" lon="13.5988735"><ele>126.0</ele><time>2026-04-26T11:08:41.985Z</time></trkpt><trkpt lat="43.1311946" lon="13.5990339"><ele>126.0</ele><time>2026-04-26T11:08:42.977Z</time></trkpt><trkpt lat="43.1312996" lon="13.5991984"><ele>126.0</ele><time>2026-04-26T11:08:43.979Z</time></trkpt><trkpt lat="43.1314021" lon="13.5993595"><ele>126.66666666666666</ele><time>2026-04-26T11:08:44.975Z</time></trkpt><trkpt lat="43.1315082" lon="13.5995193"><ele>127.33333333333333</ele><time>2026-04-26T11:08:45.978Z</time></trkpt><trkpt lat="43.1316183" lon="13.5996769"><ele>128.0</ele><time>2026-04-26T11:08:46.975Z</time></trkpt><trkpt lat="43.1317298" lon="13.599835"><ele>128.0</ele><time>2026-04-26T11:08:47.966Z</time></trkpt><trkpt lat="43.1318403" lon="13.5999917"><ele>128.0</ele><time>2026-04-26T11:08:48.973Z</time></trkpt><trkpt lat="43.1319523" lon="13.600147"><ele>128.0</ele><time>2026-04-26T11:08:49.976Z</time></trkpt><trkpt lat="43.1320638" lon="13.6002997"><ele>126.66666666666666</ele><time>2026-04-26T11:08:50.978Z</time></trkpt><trkpt lat="43.1321729" lon="13.600453"><ele>125.33333333333334</ele><time>2026-04-26T11:08:51.983Z</time></trkpt><trkpt lat="43.1322779" lon="13.60061"><ele>124.0</ele><time>2026-04-26T11:08:52.975Z</time></trkpt><trkpt lat="43.1323755" lon="13.6007763"><ele>124.0</ele><time>2026-04-26T11:08:53.976Z</time></trkpt><trkpt lat="43.1324631" lon="13.6009517"><ele>124.0</ele><time>2026-04-26T11:08:54.976Z</time></trkpt><trkpt lat="43.1325409" lon="13.6011363"><ele>124.0</ele><time>2026-04-26T11:08:55.968Z</time></trkpt><trkpt lat="43.1326115" lon="13.6013285"><ele>124.0</ele><time>2026-04-26T11:08:56.979Z</time></trkpt><trkpt lat="43.1326768" lon="13.6015247"><ele>124.0</ele><time>2026-04-26T11:08:57.982Z</time></trkpt><trkpt lat="43.1327413" lon="13.6017223"><ele>124.0</ele><time>2026-04-26T11:08:58.979Z</time></trkpt><trkpt lat="43.1328114" lon="13.6019153"><ele>123.0</ele><time>2026-04-26T11:08:59.979Z</time></trkpt><trkpt lat="43.1328867" lon="13.6021033"><ele>122.0</ele><time>2026-04-26T11:09:00.983Z</time></trkpt><trkpt lat="43.132962" lon="13.602278"><ele>121.0</ele><time>2026-04-26T11:09:01.982Z</time></trkpt><trkpt lat="43.1330377" lon="13.6024487"><ele>121.0</ele><time>2026-04-26T11:09:02.972Z</time></trkpt><trkpt lat="43.1331145" lon="13.6026207"><ele>121.0</ele><time>2026-04-26T11:09:03.998Z</time></trkpt><trkpt lat="43.1331928" lon="13.6027946"><ele>121.0</ele><time>2026-04-26T11:09:04.976Z</time></trkpt><trkpt lat="43.1332782" lon="13.6029666"><ele>121.0</ele><time>2026-04-26T11:09:05.982Z</time></trkpt><trkpt lat="43.1333772" lon="13.603128"><ele>121.0</ele><time>2026-04-26T11:09:06.97Z</time></trkpt><trkpt lat="43.1334914" lon="13.603274"><ele>121.0</ele><time>2026-04-26T11:09:07.977Z</time></trkpt><trkpt lat="43.1336163" lon="13.6034042"><ele>121.0</ele><time>2026-04-26T11:09:08.982Z</time></trkpt><trkpt lat="43.1337462" lon="13.6035263"><ele>121.0</ele><time>2026-04-26T11:09:09.98Z</time></trkpt><trkpt lat="43.133875" lon="13.6036471"><ele>121.0</ele><time>2026-04-26T11:09:10.985Z</time></trkpt><trkpt lat="43.1340067" lon="13.6037658"><ele>121.0</ele><time>2026-04-26T11:09:11.981Z</time></trkpt><trkpt lat="43.1341234" lon="13.6038976"><ele>122.0</ele><time>2026-04-26T11:09:12.983Z</time></trkpt><trkpt lat="43.1342372" lon="13.6040373"><ele>123.0</ele><time>2026-04-26T11:09:13.989Z</time></trkpt><trkpt lat="43.1343397" lon="13.6041931"><ele>124.0</ele><time>2026-04-26T11:09:14.989Z</time></trkpt><trkpt lat="43.134442" lon="13.6043576"><ele>121.33333333333334</ele><time>2026-04-26T11:09:15.979Z</time></trkpt><trkpt lat="43.1345379" lon="13.6045316"><ele>118.66666666666666</ele><time>2026-04-26T11:09:16.975Z</time></trkpt><trkpt lat="43.1346359" lon="13.604706"><ele>116.0</ele><time>2026-04-26T11:09:17.979Z</time></trkpt><trkpt lat="43.1347321" lon="13.6048777"><ele>116.0</ele><time>2026-04-26T11:09:18.977Z</time></trkpt><trkpt lat="43.1348311" lon="13.6050493"><ele>116.0</ele><time>2026-04-26T11:09:19.98Z</time></trkpt><trkpt lat="43.134933" lon="13.6052143"><ele>116.0</ele><time>2026-04-26T11:09:20.982Z</time></trkpt><trkpt lat="43.1350361" lon="13.605381"><ele>117.66666666666666</ele><time>2026-04-26T11:09:21.973Z</time></trkpt><trkpt lat="43.1351437" lon="13.6055455"><ele>119.33333333333334</ele><time>2026-04-26T11:09:22.975Z</time></trkpt><trkpt lat="43.1352567" lon="13.6057014"><ele>121.0</ele><time>2026-04-26T11:09:23.987Z</time></trkpt><trkpt lat="43.1353779" lon="13.6058477"><ele>121.0</ele><time>2026-04-26T11:09:24.981Z</time></trkpt><trkpt lat="43.1355033" lon="13.6059843"><ele>121.0</ele><time>2026-04-26T11:09:25.98Z</time></trkpt><trkpt lat="43.1356331" lon="13.6061139"><ele>121.0</ele><time>2026-04-26T11:09:26.984Z</time></trkpt><trkpt lat="43.1357672" lon="13.6062345"><ele>119.66666666666667</ele><time>2026-04-26T11:09:27.978Z</time></trkpt><trkpt lat="43.1359054" lon="13.6063491"><ele>118.33333333333334</ele><time>2026-04-26T11:09:28.978Z</time></trkpt><trkpt lat="43.1360395" lon="13.6064617"><ele>117.0</ele><time>2026-04-26T11:09:29.974Z</time></trkpt><trkpt lat="43.1361794" lon="13.6065707"><ele>117.0</ele><time>2026-04-26T11:09:30.977Z</time></trkpt><trkpt lat="43.1363167" lon="13.6066918"><ele>117.0</ele><time>2026-04-26T11:09:31.982Z</time></trkpt><trkpt lat="43.1364533" lon="13.6068193"><ele>117.0</ele><time>2026-04-26T11:09:32.972Z</time></trkpt><trkpt lat="43.1365896" lon="13.606949"><ele>116.33333333333334</ele><time>2026-04-26T11:09:33.981Z</time></trkpt><trkpt lat="43.1367277" lon="13.6070815"><ele>115.66666666666667</ele><time>2026-04-26T11:09:34.986Z</time></trkpt><trkpt lat="43.1368645" lon="13.6072135"><ele>115.0</ele><time>2026-04-26T11:09:35.979Z</time></trkpt><trkpt lat="43.1370033" lon="13.6073401"><ele>115.0</ele><time>2026-04-26T11:09:36.985Z</time></trkpt><trkpt lat="43.1371373" lon="13.6074687"><ele>115.0</ele><time>2026-04-26T11:09:37.98Z</time></trkpt><trkpt lat="43.1372712" lon="13.6075982"><ele>115.0</ele><time>2026-04-26T11:09:39Z</time></trkpt><trkpt lat="43.1374071" lon="13.6077289"><ele>114.66666666666667</ele><time>2026-04-26T11:09:39.983Z</time></trkpt><trkpt lat="43.1375388" lon="13.6078576"><ele>114.33333333333334</ele><time>2026-04-26T11:09:40.983Z</time></trkpt><trkpt lat="43.1376713" lon="13.6079914"><ele>114.0</ele><time>2026-04-26T11:09:41.986Z</time></trkpt><trkpt lat="43.137808" lon="13.6081193"><ele>114.0</ele><time>2026-04-26T11:09:42.979Z</time></trkpt><trkpt lat="43.1379426" lon="13.6082488"><ele>114.0</ele><time>2026-04-26T11:09:43.983Z</time></trkpt><trkpt lat="43.1380793" lon="13.6083839"><ele>114.0</ele><time>2026-04-26T11:09:44.984Z</time></trkpt><trkpt lat="43.1382174" lon="13.6085142"><ele>114.33333333333334</ele><time>2026-04-26T11:09:45.982Z</time></trkpt><trkpt lat="43.1383524" lon="13.6086474"><ele>114.66666666666667</ele><time>2026-04-26T11:09:46.989Z</time></trkpt><trkpt lat="43.1384895" lon="13.6087788"><ele>115.0</ele><time>2026-04-26T11:09:47.985Z</time></trkpt><trkpt lat="43.1386266" lon="13.6089094"><ele>115.0</ele><time>2026-04-26T11:09:48.976Z</time></trkpt><trkpt lat="43.1387633" lon="13.6090426"><ele>115.0</ele><time>2026-04-26T11:09:49.983Z</time></trkpt><trkpt lat="43.1389006" lon="13.6091747"><ele>115.0</ele><time>2026-04-26T11:09:50.981Z</time></trkpt><trkpt lat="43.1390347" lon="13.6093102"><ele>115.0</ele><time>2026-04-26T11:09:51.988Z</time></trkpt><trkpt lat="43.1391683" lon="13.6094469"><ele>115.0</ele><time>2026-04-26T11:09:52.979Z</time></trkpt><trkpt lat="43.1392994" lon="13.6095902"><ele>115.0</ele><time>2026-04-26T11:09:53.98Z</time></trkpt><trkpt lat="43.1394277" lon="13.6097335"><ele>115.0</ele><time>2026-04-26T11:09:54.982Z</time></trkpt><trkpt lat="43.1395437" lon="13.6098522"><ele>115.0</ele><time>2026-04-26T11:09:55.981Z</time></trkpt><trkpt lat="43.1396768" lon="13.6100067"><ele>115.0</ele><time>2026-04-26T11:09:56.979Z</time></trkpt><trkpt lat="43.139806" lon="13.610149"><ele>115.0</ele><time>2026-04-26T11:09:57.979Z</time></trkpt><trkpt lat="43.139939" lon="13.6102938"><ele>115.0</ele><time>2026-04-26T11:09:58.978Z</time></trkpt><trkpt lat="43.1400742" lon="13.6104402"><ele>115.0</ele><time>2026-04-26T11:09:59.982Z</time></trkpt><trkpt lat="43.1402037" lon="13.6105854"><ele>115.0</ele><time>2026-04-26T11:10:00.979Z</time></trkpt><trkpt lat="43.1403349" lon="13.6107333"><ele>115.0</ele><time>2026-04-26T11:10:01.979Z</time></trkpt><trkpt lat="43.1404647" lon="13.6108792"><ele>115.0</ele><time>2026-04-26T11:10:02.981Z</time></trkpt><trkpt lat="43.1405947" lon="13.6110222"><ele>115.66666666666667</ele><time>2026-04-26T11:10:03.987Z</time></trkpt><trkpt lat="43.1407256" lon="13.6111686"><ele>116.33333333333334</ele><time>2026-04-26T11:10:04.986Z</time></trkpt><trkpt lat="43.1408547" lon="13.6113142"><ele>117.0</ele><time>2026-04-26T11:10:05.979Z</time></trkpt><trkpt lat="43.140985" lon="13.6114596"><ele>117.0</ele><time>2026-04-26T11:10:06.983Z</time></trkpt><trkpt lat="43.1411165" lon="13.611607"><ele>117.0</ele><time>2026-04-26T11:10:07.982Z</time></trkpt><trkpt lat="43.141248" lon="13.6117551"><ele>117.0</ele><time>2026-04-26T11:10:08.973Z</time></trkpt><trkpt lat="43.1413793" lon="13.6119044"><ele>116.0</ele><time>2026-04-26T11:10:09.985Z</time></trkpt><trkpt lat="43.141511" lon="13.6120529"><ele>115.0</ele><time>2026-04-26T11:10:10.977Z</time></trkpt><trkpt lat="43.1416432" lon="13.6122015"><ele>114.0</ele><time>2026-04-26T11:10:11.986Z</time></trkpt><trkpt lat="43.1417769" lon="13.6123498"><ele>114.0</ele><time>2026-04-26T11:10:12.975Z</time></trkpt><trkpt lat="43.1419094" lon="13.6124986"><ele>114.0</ele><time>2026-04-26T11:10:13.981Z</time></trkpt><trkpt lat="43.1420414" lon="13.6126493"><ele>114.0</ele><time>2026-04-26T11:10:14.972Z</time></trkpt><trkpt lat="43.1421737" lon="13.6127986"><ele>113.33333333333334</ele><time>2026-04-26T11:10:15.981Z</time></trkpt><trkpt lat="43.1423056" lon="13.6129471"><ele>112.66666666666667</ele><time>2026-04-26T11:10:16.982Z</time></trkpt><trkpt lat="43.1424383" lon="13.6130944"><ele>112.0</ele><time>2026-04-26T11:10:17.984Z</time></trkpt><trkpt lat="43.1425693" lon="13.6132432"><ele>112.0</ele><time>2026-04-26T11:10:18.973Z</time></trkpt><trkpt lat="43.1426959" lon="13.6133927"><ele>112.0</ele><time>2026-04-26T11:10:19.977Z</time></trkpt><trkpt lat="43.1428208" lon="13.613543"><ele>112.0</ele><time>2026-04-26T11:10:20.979Z</time></trkpt><trkpt lat="43.1429434" lon="13.6136978"><ele>112.0</ele><time>2026-04-26T11:10:21.978Z</time></trkpt><trkpt lat="43.1430637" lon="13.6138561"><ele>112.0</ele><time>2026-04-26T11:10:22.986Z</time></trkpt><trkpt lat="43.143183" lon="13.6140065"><ele>112.0</ele><time>2026-04-26T11:10:23.978Z</time></trkpt><trkpt lat="43.14331" lon="13.6141752"><ele>112.33333333333334</ele><time>2026-04-26T11:10:24.974Z</time></trkpt><trkpt lat="43.1434334" lon="13.6143355"><ele>112.66666666666666</ele><time>2026-04-26T11:10:25.969Z</time></trkpt><trkpt lat="43.1435568" lon="13.6144974"><ele>113.0</ele><time>2026-04-26T11:10:26.972Z</time></trkpt><trkpt lat="43.143684" lon="13.6146617"><ele>113.0</ele><time>2026-04-26T11:10:27.97Z</time></trkpt><trkpt lat="43.1438115" lon="13.6148265"><ele>113.0</ele><time>2026-04-26T11:10:28.977Z</time></trkpt><trkpt lat="43.1439374" lon="13.6149862"><ele>113.0</ele><time>2026-04-26T11:10:29.967Z</time></trkpt><trkpt lat="43.1440654" lon="13.6151575"><ele>112.66666666666666</ele><time>2026-04-26T11:10:30.968Z</time></trkpt><trkpt lat="43.1441941" lon="13.6153219"><ele>112.33333333333334</ele><time>2026-04-26T11:10:31.978Z</time></trkpt><trkpt lat="43.1443215" lon="13.6154833"><ele>112.0</ele><time>2026-04-26T11:10:32.975Z</time></trkpt><trkpt lat="43.1444482" lon="13.6156429"><ele>112.0</ele><time>2026-04-26T11:10:33.967Z</time></trkpt><trkpt lat="43.1445724" lon="13.6158027"><ele>112.0</ele><time>2026-04-26T11:10:34.974Z</time></trkpt><trkpt lat="43.1446945" lon="13.6159605"><ele>112.0</ele><time>2026-04-26T11:10:35.976Z</time></trkpt><trkpt lat="43.1448117" lon="13.61612"><ele>112.33333333333334</ele><time>2026-04-26T11:10:36.98Z</time></trkpt><trkpt lat="43.1449256" lon="13.6162804"><ele>112.66666666666666</ele><time>2026-04-26T11:10:37.975Z</time></trkpt><trkpt lat="43.1450335" lon="13.6164425"><ele>113.0</ele><time>2026-04-26T11:10:38.971Z</time></trkpt><trkpt lat="43.1451334" lon="13.6166064"><ele>113.0</ele><time>2026-04-26T11:10:39.97Z</time></trkpt><trkpt lat="43.1452264" lon="13.6167714"><ele>113.0</ele><time>2026-04-26T11:10:40.977Z</time></trkpt><trkpt lat="43.1453108" lon="13.6169289"><ele>113.0</ele><time>2026-04-26T11:10:41.978Z</time></trkpt><trkpt lat="43.1453893" lon="13.6170823"><ele>113.0</ele><time>2026-04-26T11:10:42.969Z</time></trkpt><trkpt lat="43.1454649" lon="13.6172279"><ele>113.75</ele><time>2026-04-26T11:10:43.968Z</time></trkpt><trkpt lat="43.1455364" lon="13.6173659"><ele>114.5</ele><time>2026-04-26T11:10:44.971Z</time></trkpt><trkpt lat="43.1456038" lon="13.6175027"><ele>115.25</ele><time>2026-04-26T11:10:45.985Z</time></trkpt><trkpt lat="43.1456756" lon="13.6176431"><ele>116.0</ele><time>2026-04-26T11:10:46.984Z</time></trkpt><trkpt lat="43.1457498" lon="13.6177835"><ele>114.5</ele><time>2026-04-26T11:10:47.983Z</time></trkpt><trkpt lat="43.1458223" lon="13.6179223"><ele>113.0</ele><time>2026-04-26T11:10:48.987Z</time></trkpt><trkpt lat="43.1458937" lon="13.6180594"><ele>111.5</ele><time>2026-04-26T11:10:49.996Z</time></trkpt><trkpt lat="43.1459626" lon="13.6181918"><ele>110.0</ele><time>2026-04-26T11:10:50.979Z</time></trkpt><trkpt lat="43.1460331" lon="13.6183264"><ele>110.0</ele><time>2026-04-26T11:10:51.972Z</time></trkpt><trkpt lat="43.1461051" lon="13.6184669"><ele>110.0</ele><time>2026-04-26T11:10:52.978Z</time></trkpt><trkpt lat="43.1461767" lon="13.6186143"><ele>110.0</ele><time>2026-04-26T11:10:53.982Z</time></trkpt><trkpt lat="43.1462478" lon="13.6187692"><ele>110.0</ele><time>2026-04-26T11:10:54.98Z</time></trkpt><trkpt lat="43.1463181" lon="13.6189293"><ele>110.0</ele><time>2026-04-26T11:10:55.983Z</time></trkpt><trkpt lat="43.1463858" lon="13.6190953"><ele>110.0</ele><time>2026-04-26T11:10:56.99Z</time></trkpt><trkpt lat="43.1464527" lon="13.6192673"><ele>110.0</ele><time>2026-04-26T11:10:57.984Z</time></trkpt><trkpt lat="43.1465155" lon="13.6194405"><ele>110.0</ele><time>2026-04-26T11:10:58.983Z</time></trkpt><trkpt lat="43.1465727" lon="13.6196064"><ele>110.0</ele><time>2026-04-26T11:10:59.974Z</time></trkpt><trkpt lat="43.1466268" lon="13.6197636"><ele>110.0</ele><time>2026-04-26T11:11:00.982Z</time></trkpt><trkpt lat="43.1466782" lon="13.6199129"><ele>110.0</ele><time>2026-04-26T11:11:01.985Z</time></trkpt><trkpt lat="43.1467284" lon="13.6200572"><ele>110.0</ele><time>2026-04-26T11:11:02.986Z</time></trkpt><trkpt lat="43.1467785" lon="13.6202014"><ele>109.0</ele><time>2026-04-26T11:11:03.992Z</time></trkpt><trkpt lat="43.1468301" lon="13.6203507"><ele>108.0</ele><time>2026-04-26T11:11:04.975Z</time></trkpt><trkpt lat="43.1468848" lon="13.6205044"><ele>107.0</ele><time>2026-04-26T11:11:05.991Z</time></trkpt><trkpt lat="43.1469415" lon="13.6206643"><ele>106.0</ele><time>2026-04-26T11:11:06.988Z</time></trkpt><trkpt lat="43.1469986" lon="13.6208211"><ele>106.0</ele><time>2026-04-26T11:11:07.986Z</time></trkpt><trkpt lat="43.1470545" lon="13.6209759"><ele>106.0</ele><time>2026-04-26T11:11:09.025Z</time></trkpt><trkpt lat="43.147109" lon="13.6211275"><ele>106.0</ele><time>2026-04-26T11:11:09.977Z</time></trkpt><trkpt lat="43.1471623" lon="13.6212761"><ele>106.0</ele><time>2026-04-26T11:11:10.98Z</time></trkpt><trkpt lat="43.1472149" lon="13.6214217"><ele>106.0</ele><time>2026-04-26T11:11:11.971Z</time></trkpt><trkpt lat="43.1472651" lon="13.6215622"><ele>106.0</ele><time>2026-04-26T11:11:12.981Z</time></trkpt><trkpt lat="43.1473135" lon="13.6216967"><ele>106.0</ele><time>2026-04-26T11:11:13.976Z</time></trkpt><trkpt lat="43.1473626" lon="13.6218311"><ele>106.0</ele><time>2026-04-26T11:11:14.981Z</time></trkpt><trkpt lat="43.1474143" lon="13.6219713"><ele>106.0</ele><time>2026-04-26T11:11:15.98Z</time></trkpt><trkpt lat="43.1474671" lon="13.6221174"><ele>105.5</ele><time>2026-04-26T11:11:16.987Z</time></trkpt><trkpt lat="43.1475207" lon="13.6222677"><ele>105.0</ele><time>2026-04-26T11:11:17.985Z</time></trkpt><trkpt lat="43.1475745" lon="13.6224202"><ele>104.5</ele><time>2026-04-26T11:11:18.991Z</time></trkpt><trkpt lat="43.1476286" lon="13.6225721"><ele>104.0</ele><time>2026-04-26T11:11:19.986Z</time></trkpt><trkpt lat="43.1476827" lon="13.6227225"><ele>103.5</ele><time>2026-04-26T11:11:20.983Z</time></trkpt><trkpt lat="43.1477363" lon="13.62287"><ele>103.0</ele><time>2026-04-26T11:11:21.986Z</time></trkpt><trkpt lat="43.1477908" lon="13.623016"><ele>102.5</ele><time>2026-04-26T11:11:22.979Z</time></trkpt><trkpt lat="43.1478448" lon="13.6231601"><ele>102.0</ele><time>2026-04-26T11:11:23.976Z</time></trkpt><trkpt lat="43.1479002" lon="13.6233036"><ele>102.0</ele><time>2026-04-26T11:11:24.983Z</time></trkpt><trkpt lat="43.1479622" lon="13.6234466"><ele>102.0</ele><time>2026-04-26T11:11:25.974Z</time></trkpt><trkpt lat="43.1480332" lon="13.6235847"><ele>102.0</ele><time>2026-04-26T11:11:26.985Z</time></trkpt><trkpt lat="43.1481146" lon="13.6237162"><ele>102.0</ele><time>2026-04-26T11:11:27.981Z</time></trkpt><trkpt lat="43.1482034" lon="13.6238394"><ele>102.0</ele><time>2026-04-26T11:11:29.003Z</time></trkpt><trkpt lat="43.1482986" lon="13.6239517"><ele>102.0</ele><time>2026-04-26T11:11:29.983Z</time></trkpt><trkpt lat="43.1483986" lon="13.6240528"><ele>102.0</ele><time>2026-04-26T11:11:30.98Z</time></trkpt><trkpt lat="43.1485026" lon="13.6241431"><ele>102.0</ele><time>2026-04-26T11:11:31.986Z</time></trkpt><trkpt lat="43.1486065" lon="13.6242188"><ele>102.0</ele><time>2026-04-26T11:11:32.984Z</time></trkpt><trkpt lat="43.1487173" lon="13.6242997"><ele>102.0</ele><time>2026-04-26T11:11:33.986Z</time></trkpt><trkpt lat="43.1488264" lon="13.6243793"><ele>102.0</ele><time>2026-04-26T11:11:34.979Z</time></trkpt><trkpt lat="43.1489406" lon="13.624456"><ele>102.0</ele><time>2026-04-26T11:11:35.976Z</time></trkpt><trkpt lat="43.1490575" lon="13.6245338"><ele>101.25</ele><time>2026-04-26T11:11:36.984Z</time></trkpt><trkpt lat="43.1491742" lon="13.6246116"><ele>100.5</ele><time>2026-04-26T11:11:37.976Z</time></trkpt><trkpt lat="43.1492899" lon="13.6246873"><ele>99.75</ele><time>2026-04-26T11:11:38.974Z</time></trkpt><trkpt lat="43.1494026" lon="13.6247711"><ele>99.0</ele><time>2026-04-26T11:11:39.981Z</time></trkpt><trkpt lat="43.1495114" lon="13.6248665"><ele>99.0</ele><time>2026-04-26T11:11:40.976Z</time></trkpt><trkpt lat="43.1496116" lon="13.6249739"><ele>99.0</ele><time>2026-04-26T11:11:41.98Z</time></trkpt><trkpt lat="43.1497049" lon="13.625089"><ele>99.0</ele><time>2026-04-26T11:11:42.988Z</time></trkpt><trkpt lat="43.1497944" lon="13.6252098"><ele>99.0</ele><time>2026-04-26T11:11:43.976Z</time></trkpt><trkpt lat="43.1498858" lon="13.6253289"><ele>99.25</ele><time>2026-04-26T11:11:44.976Z</time></trkpt><trkpt lat="43.1499773" lon="13.6254471"><ele>99.5</ele><time>2026-04-26T11:11:45.982Z</time></trkpt><trkpt lat="43.1500696" lon="13.6255611"><ele>99.75</ele><time>2026-04-26T11:11:46.977Z</time></trkpt><trkpt lat="43.150161" lon="13.6256725"><ele>100.0</ele><time>2026-04-26T11:11:47.98Z</time></trkpt><trkpt lat="43.1502514" lon="13.6257828"><ele>100.0</ele><time>2026-04-26T11:11:48.983Z</time></trkpt><trkpt lat="43.1503422" lon="13.6258872"><ele>100.0</ele><time>2026-04-26T11:11:49.977Z</time></trkpt><trkpt lat="43.1504355" lon="13.6259878"><ele>100.0</ele><time>2026-04-26T11:11:50.981Z</time></trkpt><trkpt lat="43.1505355" lon="13.626086"><ele>100.0</ele><time>2026-04-26T11:11:51.971Z</time></trkpt><trkpt lat="43.1506385" lon="13.6261865"><ele>99.75</ele><time>2026-04-26T11:11:52.973Z</time></trkpt><trkpt lat="43.150744" lon="13.6262877"><ele>99.5</ele><time>2026-04-26T11:11:53.977Z</time></trkpt><trkpt lat="43.1508463" lon="13.6263835"><ele>99.25</ele><time>2026-04-26T11:11:54.985Z</time></trkpt><trkpt lat="43.150948" lon="13.6264809"><ele>99.0</ele><time>2026-04-26T11:11:55.973Z</time></trkpt><trkpt lat="43.151049" lon="13.6265781"><ele>99.0</ele><time>2026-04-26T11:11:56.982Z</time></trkpt><trkpt lat="43.1511523" lon="13.6266795"><ele>99.0</ele><time>2026-04-26T11:11:57.977Z</time></trkpt><trkpt lat="43.1512563" lon="13.626782"><ele>99.0</ele><time>2026-04-26T11:11:58.981Z</time></trkpt><trkpt lat="43.1513606" lon="13.6268823"><ele>99.0</ele><time>2026-04-26T11:11:59.98Z</time></trkpt><trkpt lat="43.1514658" lon="13.626979"><ele>98.75</ele><time>2026-04-26T11:12:00.98Z</time></trkpt><trkpt lat="43.1515694" lon="13.6270752"><ele>98.5</ele><time>2026-04-26T11:12:01.976Z</time></trkpt><trkpt lat="43.1516758" lon="13.6271719"><ele>98.25</ele><time>2026-04-26T11:12:02.986Z</time></trkpt><trkpt lat="43.1517847" lon="13.6272664"><ele>98.0</ele><time>2026-04-26T11:12:03.991Z</time></trkpt><trkpt lat="43.1518951" lon="13.6273557"><ele>98.0</ele><time>2026-04-26T11:12:04.982Z</time></trkpt><trkpt lat="43.1520065" lon="13.6274402"><ele>98.0</ele><time>2026-04-26T11:12:05.992Z</time></trkpt><trkpt lat="43.152117" lon="13.6275091"><ele>98.0</ele><time>2026-04-26T11:12:06.985Z</time></trkpt><trkpt lat="43.1522309" lon="13.627585"><ele>98.0</ele><time>2026-04-26T11:12:07.981Z</time></trkpt><trkpt lat="43.1523451" lon="13.6276614"><ele>97.75</ele><time>2026-04-26T11:12:08.984Z</time></trkpt><trkpt lat="43.1524626" lon="13.6277386"><ele>97.5</ele><time>2026-04-26T11:12:09.982Z</time></trkpt><trkpt lat="43.1525843" lon="13.6278167"><ele>97.25</ele><time>2026-04-26T11:12:10.979Z</time></trkpt><trkpt lat="43.1527089" lon="13.6278921"><ele>97.0</ele><time>2026-04-26T11:12:11.979Z</time></trkpt><trkpt lat="43.152837" lon="13.6279674"><ele>97.0</ele><time>2026-04-26T11:12:12.983Z</time></trkpt><trkpt lat="43.1529679" lon="13.6280456"><ele>97.0</ele><time>2026-04-26T11:12:13.997Z</time></trkpt><trkpt lat="43.1531" lon="13.6281266"><ele>97.0</ele><time>2026-04-26T11:12:14.981Z</time></trkpt><trkpt lat="43.1532375" lon="13.6282133"><ele>97.0</ele><time>2026-04-26T11:12:15.989Z</time></trkpt><trkpt lat="43.1533789" lon="13.628304"><ele>97.66666666666667</ele><time>2026-04-26T11:12:16.979Z</time></trkpt><trkpt lat="43.1535245" lon="13.6283972"><ele>98.33333333333334</ele><time>2026-04-26T11:12:17.986Z</time></trkpt><trkpt lat="43.1536734" lon="13.6284924"><ele>99.0</ele><time>2026-04-26T11:12:18.988Z</time></trkpt><trkpt lat="43.1538225" lon="13.6285892"><ele>98.66666666666666</ele><time>2026-04-26T11:12:19.979Z</time></trkpt><trkpt lat="43.1539739" lon="13.6286905"><ele>98.33333333333333</ele><time>2026-04-26T11:12:20.978Z</time></trkpt><trkpt lat="43.1541262" lon="13.6287976"><ele>98.0</ele><time>2026-04-26T11:12:21.979Z</time></trkpt><trkpt lat="43.1542799" lon="13.6289108"><ele>97.33333333333333</ele><time>2026-04-26T11:12:22.982Z</time></trkpt><trkpt lat="43.1544329" lon="13.6290295"><ele>96.66666666666666</ele><time>2026-04-26T11:12:23.983Z</time></trkpt><trkpt lat="43.1545851" lon="13.6291569"><ele>96.0</ele><time>2026-04-26T11:12:24.982Z</time></trkpt><trkpt lat="43.1547379" lon="13.6292893"><ele>96.0</ele><time>2026-04-26T11:12:25.979Z</time></trkpt><trkpt lat="43.1548893" lon="13.629418"><ele>96.0</ele><time>2026-04-26T11:12:26.982Z</time></trkpt><trkpt lat="43.1550428" lon="13.6295542"><ele>96.0</ele><time>2026-04-26T11:12:27.976Z</time></trkpt><trkpt lat="43.155193" lon="13.6296939"><ele>96.0</ele><time>2026-04-26T11:12:28.993Z</time></trkpt><trkpt lat="43.1553437" lon="13.6298231"><ele>96.0</ele><time>2026-04-26T11:12:29.975Z</time></trkpt><trkpt lat="43.1554936" lon="13.6299549"><ele>96.0</ele><time>2026-04-26T11:12:30.977Z</time></trkpt><trkpt lat="43.1556421" lon="13.6300847"><ele>96.0</ele><time>2026-04-26T11:12:31.982Z</time></trkpt><trkpt lat="43.1557888" lon="13.6302142"><ele>96.0</ele><time>2026-04-26T11:12:32.975Z</time></trkpt><trkpt lat="43.1559347" lon="13.6303456"><ele>96.0</ele><time>2026-04-26T11:12:33.98Z</time></trkpt><trkpt lat="43.1560808" lon="13.6304739"><ele>96.0</ele><time>2026-04-26T11:12:34.98Z</time></trkpt><trkpt lat="43.1562269" lon="13.6305981"><ele>96.0</ele><time>2026-04-26T11:12:35.987Z</time></trkpt><trkpt lat="43.1563765" lon="13.6307286"><ele>96.0</ele><time>2026-04-26T11:12:36.987Z</time></trkpt><trkpt lat="43.1565122" lon="13.6308649"><ele>96.33333333333334</ele><time>2026-04-26T11:12:37.992Z</time></trkpt><trkpt lat="43.1566486" lon="13.630999"><ele>96.66666666666667</ele><time>2026-04-26T11:12:38.981Z</time></trkpt><trkpt lat="43.1567784" lon="13.6311392"><ele>97.0</ele><time>2026-04-26T11:12:39.968Z</time></trkpt><trkpt lat="43.1569031" lon="13.6312917"><ele>96.0</ele><time>2026-04-26T11:12:40.981Z</time></trkpt><trkpt lat="43.1570189" lon="13.6314481"><ele>95.0</ele><time>2026-04-26T11:12:41.98Z</time></trkpt><trkpt lat="43.1571281" lon="13.6316047"><ele>94.0</ele><time>2026-04-26T11:12:42.977Z</time></trkpt><trkpt lat="43.1572381" lon="13.6317588"><ele>94.0</ele><time>2026-04-26T11:12:43.99Z</time></trkpt><trkpt lat="43.157345" lon="13.6319161"><ele>94.0</ele><time>2026-04-26T11:12:44.969Z</time></trkpt><trkpt lat="43.1574514" lon="13.6320771"><ele>94.0</ele><time>2026-04-26T11:12:45.987Z</time></trkpt><trkpt lat="43.1575544" lon="13.6322352"><ele>94.66666666666666</ele><time>2026-04-26T11:12:46.971Z</time></trkpt><trkpt lat="43.1576553" lon="13.6324022"><ele>95.33333333333333</ele><time>2026-04-26T11:12:47.979Z</time></trkpt><trkpt lat="43.1577441" lon="13.6325816"><ele>96.0</ele><time>2026-04-26T11:12:48.969Z</time></trkpt><trkpt lat="43.1578277" lon="13.6327626"><ele>95.0</ele><time>2026-04-26T11:12:49.973Z</time></trkpt><trkpt lat="43.1579075" lon="13.6329456"><ele>94.0</ele><time>2026-04-26T11:12:50.972Z</time></trkpt><trkpt lat="43.1579861" lon="13.6331281"><ele>93.0</ele><time>2026-04-26T11:12:51.973Z</time></trkpt><trkpt lat="43.1580622" lon="13.633311"><ele>93.0</ele><time>2026-04-26T11:12:52.997Z</time></trkpt><trkpt lat="43.1581437" lon="13.633494"><ele>93.0</ele><time>2026-04-26T11:12:53.978Z</time></trkpt><trkpt lat="43.1582225" lon="13.6336821"><ele>93.0</ele><time>2026-04-26T11:12:54.982Z</time></trkpt><trkpt lat="43.1583022" lon="13.6338756"><ele>93.0</ele><time>2026-04-26T11:12:55.979Z</time></trkpt><trkpt lat="43.1583867" lon="13.6340709"><ele>93.0</ele><time>2026-04-26T11:12:56.973Z</time></trkpt><trkpt lat="43.15847" lon="13.6342689"><ele>93.0</ele><time>2026-04-26T11:12:57.975Z</time></trkpt><trkpt lat="43.1585532" lon="13.634468"><ele>92.33333333333333</ele><time>2026-04-26T11:12:58.979Z</time></trkpt><trkpt lat="43.1586408" lon="13.6346684"><ele>91.66666666666666</ele><time>2026-04-26T11:12:59.985Z</time></trkpt><trkpt lat="43.1587314" lon="13.6348668"><ele>91.0</ele><time>2026-04-26T11:13:00.978Z</time></trkpt><trkpt lat="43.1588268" lon="13.6350635"><ele>91.0</ele><time>2026-04-26T11:13:01.977Z</time></trkpt><trkpt lat="43.158929" lon="13.6352561"><ele>91.0</ele><time>2026-04-26T11:13:02.978Z</time></trkpt><trkpt lat="43.1590322" lon="13.6354487"><ele>91.0</ele><time>2026-04-26T11:13:03.986Z</time></trkpt><trkpt lat="43.1591381" lon="13.6356422"><ele>91.0</ele><time>2026-04-26T11:13:04.98Z</time></trkpt><trkpt lat="43.159244" lon="13.6358365"><ele>91.0</ele><time>2026-04-26T11:13:05.985Z</time></trkpt><trkpt lat="43.1593499" lon="13.6360315"><ele>91.0</ele><time>2026-04-26T11:13:06.981Z</time></trkpt><trkpt lat="43.1594561" lon="13.6362292"><ele>90.33333333333333</ele><time>2026-04-26T11:13:07.984Z</time></trkpt><trkpt lat="43.1595609" lon="13.636428"><ele>89.66666666666667</ele><time>2026-04-26T11:13:08.982Z</time></trkpt><trkpt lat="43.1596663" lon="13.6366273"><ele>89.0</ele><time>2026-04-26T11:13:09.981Z</time></trkpt><trkpt lat="43.1597722" lon="13.6368276"><ele>89.33333333333334</ele><time>2026-04-26T11:13:10.982Z</time></trkpt><trkpt lat="43.1598805" lon="13.6370255"><ele>89.66666666666667</ele><time>2026-04-26T11:13:11.978Z</time></trkpt><trkpt lat="43.1599901" lon="13.6372246"><ele>90.0</ele><time>2026-04-26T11:13:12.995Z</time></trkpt><trkpt lat="43.1600994" lon="13.6374236"><ele>90.0</ele><time>2026-04-26T11:13:13.98Z</time></trkpt><trkpt lat="43.1602088" lon="13.6376239"><ele>90.0</ele><time>2026-04-26T11:13:14.974Z</time></trkpt><trkpt lat="43.1603187" lon="13.6378254"><ele>90.0</ele><time>2026-04-26T11:13:15.985Z</time></trkpt><trkpt lat="43.1604296" lon="13.6380263"><ele>89.33333333333333</ele><time>2026-04-26T11:13:16.98Z</time></trkpt><trkpt lat="43.16054" lon="13.6382256"><ele>88.66666666666666</ele><time>2026-04-26T11:13:17.981Z</time></trkpt><trkpt lat="43.1606469" lon="13.6384211"><ele>88.0</ele><time>2026-04-26T11:13:18.991Z</time></trkpt><trkpt lat="43.1607509" lon="13.6386129"><ele>88.66666666666666</ele><time>2026-04-26T11:13:19.986Z</time></trkpt><trkpt lat="43.1608532" lon="13.6388015"><ele>89.33333333333333</ele><time>2026-04-26T11:13:20.979Z</time></trkpt><trkpt lat="43.1609547" lon="13.6389866"><ele>90.0</ele><time>2026-04-26T11:13:21.978Z</time></trkpt><trkpt lat="43.161056" lon="13.6391702"><ele>90.0</ele><time>2026-04-26T11:13:22.979Z</time></trkpt><trkpt lat="43.1611561" lon="13.6393565"><ele>90.0</ele><time>2026-04-26T11:13:23.988Z</time></trkpt><trkpt lat="43.1612556" lon="13.6395465"><ele>90.0</ele><time>2026-04-26T11:13:24.979Z</time></trkpt><trkpt lat="43.1613563" lon="13.6397405"><ele>89.66666666666667</ele><time>2026-04-26T11:13:25.997Z</time></trkpt><trkpt lat="43.1614571" lon="13.6399376"><ele>89.33333333333334</ele><time>2026-04-26T11:13:26.986Z</time></trkpt><trkpt lat="43.1615571" lon="13.6401398"><ele>89.0</ele><time>2026-04-26T11:13:27.978Z</time></trkpt><trkpt lat="43.161664" lon="13.6403558"><ele>89.0</ele><time>2026-04-26T11:13:28.986Z</time></trkpt><trkpt lat="43.1617754" lon="13.6405846"><ele>89.0</ele><time>2026-04-26T11:13:29.984Z</time></trkpt><trkpt lat="43.1618932" lon="13.6408294"><ele>89.0</ele><time>2026-04-26T11:13:30.984Z</time></trkpt><trkpt lat="43.1620141" lon="13.6410917"><ele>87.5</ele><time>2026-04-26T11:13:31.996Z</time></trkpt><trkpt lat="43.1621336" lon="13.6413694"><ele>86.0</ele><time>2026-04-26T11:13:32.984Z</time></trkpt><trkpt lat="43.1622499" lon="13.6416597"><ele>86.0</ele><time>2026-04-26T11:13:33.984Z</time></trkpt><trkpt lat="43.1623631" lon="13.6419585"><ele>86.0</ele><time>2026-04-26T11:13:34.98Z</time></trkpt><trkpt lat="43.1624742" lon="13.642262"><ele>86.5</ele><time>2026-04-26T11:13:35.985Z</time></trkpt><trkpt lat="43.1625847" lon="13.6425664"><ele>87.0</ele><time>2026-04-26T11:13:36.98Z</time></trkpt><trkpt lat="43.162695" lon="13.64287"><ele>86.0</ele><time>2026-04-26T11:13:37.979Z</time></trkpt><trkpt lat="43.1628046" lon="13.6431739"><ele>85.0</ele><time>2026-04-26T11:13:38.983Z</time></trkpt><trkpt lat="43.1629141" lon="13.6434775"><ele>84.5</ele><time>2026-04-26T11:13:39.981Z</time></trkpt><trkpt lat="43.1630239" lon="13.6437806"><ele>84.0</ele><time>2026-04-26T11:13:40.978Z</time></trkpt><trkpt lat="43.1631326" lon="13.6440833"><ele>85.0</ele><time>2026-04-26T11:13:41.973Z</time></trkpt><trkpt lat="43.163241" lon="13.6443844"><ele>86.0</ele><time>2026-04-26T11:13:42.974Z</time></trkpt><trkpt lat="43.1633494" lon="13.6446844"><ele>86.0</ele><time>2026-04-26T11:13:43.972Z</time></trkpt><trkpt lat="43.1634576" lon="13.6449842"><ele>86.0</ele><time>2026-04-26T11:13:44.981Z</time></trkpt><trkpt lat="43.1635666" lon="13.6452827"><ele>85.5</ele><time>2026-04-26T11:13:45.982Z</time></trkpt><trkpt lat="43.1636764" lon="13.6455789"><ele>85.0</ele><time>2026-04-26T11:13:46.984Z</time></trkpt><trkpt lat="43.163787" lon="13.6458736"><ele>84.0</ele><time>2026-04-26T11:13:47.974Z</time></trkpt><trkpt lat="43.163896" lon="13.646169"><ele>83.0</ele><time>2026-04-26T11:13:48.979Z</time></trkpt><trkpt lat="43.1640036" lon="13.6464651"><ele>83.5</ele><time>2026-04-26T11:13:49.984Z</time></trkpt><trkpt lat="43.1641111" lon="13.646761"><ele>84.0</ele><time>2026-04-26T11:13:50.982Z</time></trkpt><trkpt lat="43.1642182" lon="13.6470574"><ele>84.0</ele><time>2026-04-26T11:13:51.975Z</time></trkpt><trkpt lat="43.1643256" lon="13.6473541"><ele>84.0</ele><time>2026-04-26T11:13:52.986Z</time></trkpt><trkpt lat="43.1644339" lon="13.6476491"><ele>83.5</ele><time>2026-04-26T11:13:53.983Z</time></trkpt><trkpt lat="43.1645476" lon="13.64794"><ele>83.0</ele><time>2026-04-26T11:13:54.972Z</time></trkpt><trkpt lat="43.164673" lon="13.6482197"><ele>83.0</ele><time>2026-04-26T11:13:55.983Z</time></trkpt><trkpt lat="43.1648114" lon="13.6484864"><ele>83.0</ele><time>2026-04-26T11:13:56.975Z</time></trkpt><trkpt lat="43.1649598" lon="13.6487407"><ele>84.5</ele><time>2026-04-26T11:13:57.976Z</time></trkpt><trkpt lat="43.1651139" lon="13.6489865"><ele>86.0</ele><time>2026-04-26T11:13:58.974Z</time></trkpt><trkpt lat="43.165271" lon="13.6492272"><ele>83.5</ele><time>2026-04-26T11:13:59.974Z</time></trkpt><trkpt lat="43.1654287" lon="13.6494664"><ele>81.0</ele><time>2026-04-26T11:14:00.982Z</time></trkpt><trkpt lat="43.165585" lon="13.6497052"><ele>84.5</ele><time>2026-04-26T11:14:01.987Z</time></trkpt><trkpt lat="43.1657404" lon="13.6499456"><ele>88.0</ele><time>2026-04-26T11:14:02.977Z</time></trkpt><trkpt lat="43.1658958" lon="13.6501858"><ele>85.5</ele><time>2026-04-26T11:14:03.99Z</time></trkpt><trkpt lat="43.1660541" lon="13.6504214"><ele>83.0</ele><time>2026-04-26T11:14:04.983Z</time></trkpt><trkpt lat="43.1662202" lon="13.6506446"><ele>83.0</ele><time>2026-04-26T11:14:05.979Z</time></trkpt><trkpt lat="43.1663967" lon="13.650849"><ele>83.0</ele><time>2026-04-26T11:14:06.982Z</time></trkpt><trkpt lat="43.1665811" lon="13.6510366"><ele>82.0</ele><time>2026-04-26T11:14:07.987Z</time></trkpt><trkpt lat="43.166769" lon="13.6512159"><ele>81.0</ele><time>2026-04-26T11:14:08.98Z</time></trkpt><trkpt lat="43.1669579" lon="13.6513934"><ele>81.0</ele><time>2026-04-26T11:14:09.974Z</time></trkpt><trkpt lat="43.1671471" lon="13.6515712"><ele>81.0</ele><time>2026-04-26T11:14:10.972Z</time></trkpt><trkpt lat="43.1673363" lon="13.6517486"><ele>82.0</ele><time>2026-04-26T11:14:11.972Z</time></trkpt><trkpt lat="43.1675238" lon="13.6519078"><ele>83.0</ele><time>2026-04-26T11:14:12.974Z</time></trkpt><trkpt lat="43.1677222" lon="13.6520734"><ele>83.0</ele><time>2026-04-26T11:14:13.977Z</time></trkpt><trkpt lat="43.1679142" lon="13.6522465"><ele>83.0</ele><time>2026-04-26T11:14:14.971Z</time></trkpt><trkpt lat="43.1681" lon="13.6524162"><ele>85.5</ele><time>2026-04-26T11:14:15.988Z</time></trkpt><trkpt lat="43.1682854" lon="13.6525896"><ele>88.0</ele><time>2026-04-26T11:14:16.98Z</time></trkpt><trkpt lat="43.16848" lon="13.6527649"><ele>85.0</ele><time>2026-04-26T11:14:17.977Z</time></trkpt><trkpt lat="43.1686675" lon="13.65294"><ele>82.0</ele><time>2026-04-26T11:14:18.977Z</time></trkpt><trkpt lat="43.1688514" lon="13.6531146"><ele>82.33333333333333</ele><time>2026-04-26T11:14:19.979Z</time></trkpt><trkpt lat="43.1690293" lon="13.6533044"><ele>82.66666666666667</ele><time>2026-04-26T11:14:20.979Z</time></trkpt><trkpt lat="43.1692" lon="13.6534953"><ele>83.0</ele><time>2026-04-26T11:14:21.979Z</time></trkpt><trkpt lat="43.1693705" lon="13.6536948"><ele>83.0</ele><time>2026-04-26T11:14:22.999Z</time></trkpt><trkpt lat="43.1695434" lon="13.6538939"><ele>83.0</ele><time>2026-04-26T11:14:23.982Z</time></trkpt><trkpt lat="43.1697094" lon="13.6540956"><ele>83.0</ele><time>2026-04-26T11:14:24.977Z</time></trkpt><trkpt lat="43.1698776" lon="13.6542998"><ele>82.66666666666667</ele><time>2026-04-26T11:14:25.974Z</time></trkpt><trkpt lat="43.1700451" lon="13.654505"><ele>82.33333333333333</ele><time>2026-04-26T11:14:26.977Z</time></trkpt><trkpt lat="43.1702121" lon="13.654708"><ele>82.0</ele><time>2026-04-26T11:14:27.971Z</time></trkpt><trkpt lat="43.1703801" lon="13.6549103"><ele>82.0</ele><time>2026-04-26T11:14:28.975Z</time></trkpt><trkpt lat="43.170546" lon="13.6551135"><ele>82.0</ele><time>2026-04-26T11:14:29.982Z</time></trkpt><trkpt lat="43.1707086" lon="13.6553208"><ele>82.0</ele><time>2026-04-26T11:14:30.971Z</time></trkpt><trkpt lat="43.1708662" lon="13.6555355"><ele>81.33333333333333</ele><time>2026-04-26T11:14:31.975Z</time></trkpt><trkpt lat="43.1710182" lon="13.6557564"><ele>80.66666666666667</ele><time>2026-04-26T11:14:32.976Z</time></trkpt><trkpt lat="43.1711654" lon="13.6559841"><ele>80.0</ele><time>2026-04-26T11:14:33.975Z</time></trkpt><trkpt lat="43.1713053" lon="13.6562152"><ele>79.66666666666667</ele><time>2026-04-26T11:14:34.976Z</time></trkpt><trkpt lat="43.1714369" lon="13.6564502"><ele>79.33333333333333</ele><time>2026-04-26T11:14:35.976Z</time></trkpt><trkpt lat="43.1715598" lon="13.6566907"><ele>79.0</ele><time>2026-04-26T11:14:36.975Z</time></trkpt><trkpt lat="43.1716671" lon="13.656941"><ele>79.66666666666666</ele><time>2026-04-26T11:14:37.977Z</time></trkpt><trkpt lat="43.171758" lon="13.6572038"><ele>80.33333333333333</ele><time>2026-04-26T11:14:38.98Z</time></trkpt><trkpt lat="43.1718336" lon="13.6574787"><ele>81.0</ele><time>2026-04-26T11:14:39.972Z</time></trkpt><trkpt lat="43.1718968" lon="13.6577607"><ele>80.66666666666667</ele><time>2026-04-26T11:14:40.979Z</time></trkpt><trkpt lat="43.1719485" lon="13.6580498"><ele>80.33333333333334</ele><time>2026-04-26T11:14:41.973Z</time></trkpt><trkpt lat="43.1719912" lon="13.6583426"><ele>80.0</ele><time>2026-04-26T11:14:42.974Z</time></trkpt><trkpt lat="43.1720271" lon="13.6586385"><ele>79.33333333333334</ele><time>2026-04-26T11:14:43.976Z</time></trkpt><trkpt lat="43.1720576" lon="13.6589353"><ele>78.66666666666667</ele><time>2026-04-26T11:14:44.971Z</time></trkpt><trkpt lat="43.1720884" lon="13.659232"><ele>78.0</ele><time>2026-04-26T11:14:45.973Z</time></trkpt><trkpt lat="43.1721216" lon="13.6595273"><ele>77.66666666666667</ele><time>2026-04-26T11:14:46.976Z</time></trkpt><trkpt lat="43.1721554" lon="13.6598207"><ele>77.33333333333334</ele><time>2026-04-26T11:14:47.981Z</time></trkpt><trkpt lat="43.1721906" lon="13.6601115"><ele>77.0</ele><time>2026-04-26T11:14:48.977Z</time></trkpt><trkpt lat="43.1722275" lon="13.6604002"><ele>76.66666666666667</ele><time>2026-04-26T11:14:49.978Z</time></trkpt><trkpt lat="43.1722694" lon="13.6606868"><ele>76.33333333333333</ele><time>2026-04-26T11:14:50.979Z</time></trkpt><trkpt lat="43.1723155" lon="13.6609724"><ele>76.0</ele><time>2026-04-26T11:14:51.98Z</time></trkpt><trkpt lat="43.1723655" lon="13.6612569"><ele>76.0</ele><time>2026-04-26T11:14:52.976Z</time></trkpt><trkpt lat="43.1724183" lon="13.6615397"><ele>76.0</ele><time>2026-04-26T11:14:53.979Z</time></trkpt><trkpt lat="43.1724715" lon="13.6618115"><ele>76.0</ele><time>2026-04-26T11:14:54.984Z</time></trkpt><trkpt lat="43.1725232" lon="13.662067"><ele>75.66666666666666</ele><time>2026-04-26T11:14:55.98Z</time></trkpt><trkpt lat="43.1725734" lon="13.6623156"><ele>75.33333333333333</ele><time>2026-04-26T11:14:56.984Z</time></trkpt><trkpt lat="43.1726238" lon="13.6625642"><ele>75.0</ele><time>2026-04-26T11:14:57.976Z</time></trkpt><trkpt lat="43.1726755" lon="13.6628122"><ele>75.0</ele><time>2026-04-26T11:14:58.977Z</time></trkpt><trkpt lat="43.1727284" lon="13.6630576"><ele>75.0</ele><time>2026-04-26T11:14:59.977Z</time></trkpt><trkpt lat="43.1727823" lon="13.6633008"><ele>75.0</ele><time>2026-04-26T11:15:00.976Z</time></trkpt><trkpt lat="43.1728373" lon="13.6635437"><ele>75.0</ele><time>2026-04-26T11:15:01.982Z</time></trkpt><trkpt lat="43.1728911" lon="13.6637853"><ele>75.0</ele><time>2026-04-26T11:15:02.978Z</time></trkpt><trkpt lat="43.1729435" lon="13.6640269"><ele>75.0</ele><time>2026-04-26T11:15:03.979Z</time></trkpt><trkpt lat="43.172996" lon="13.664268"><ele>74.66666666666667</ele><time>2026-04-26T11:15:04.98Z</time></trkpt><trkpt lat="43.1730485" lon="13.6645087"><ele>74.33333333333334</ele><time>2026-04-26T11:15:05.976Z</time></trkpt><trkpt lat="43.1731021" lon="13.6647494"><ele>74.0</ele><time>2026-04-26T11:15:07.008Z</time></trkpt><trkpt lat="43.1731538" lon="13.6649901"><ele>74.0</ele><time>2026-04-26T11:15:07.982Z</time></trkpt><trkpt lat="43.173205" lon="13.6652311"><ele>74.0</ele><time>2026-04-26T11:15:08.978Z</time></trkpt><trkpt lat="43.1732583" lon="13.6654707"><ele>74.0</ele><time>2026-04-26T11:15:09.968Z</time></trkpt><trkpt lat="43.1733124" lon="13.6657097"><ele>74.33333333333334</ele><time>2026-04-26T11:15:10.973Z</time></trkpt><trkpt lat="43.173367" lon="13.6659491"><ele>74.66666666666667</ele><time>2026-04-26T11:15:11.981Z</time></trkpt><trkpt lat="43.1734199" lon="13.6661908"><ele>75.0</ele><time>2026-04-26T11:15:12.975Z</time></trkpt><trkpt lat="43.1734717" lon="13.6664371"><ele>73.66666666666667</ele><time>2026-04-26T11:15:13.977Z</time></trkpt><trkpt lat="43.1735252" lon="13.6666873"><ele>72.33333333333334</ele><time>2026-04-26T11:15:14.976Z</time></trkpt><trkpt lat="43.1735807" lon="13.6669421"><ele>71.0</ele><time>2026-04-26T11:15:15.98Z</time></trkpt><trkpt lat="43.1736374" lon="13.6671974"><ele>70.66666666666667</ele><time>2026-04-26T11:15:16.975Z</time></trkpt><trkpt lat="43.1736936" lon="13.6674525"><ele>70.33333333333333</ele><time>2026-04-26T11:15:17.975Z</time></trkpt><trkpt lat="43.1737496" lon="13.6677058"><ele>70.0</ele><time>2026-04-26T11:15:18.979Z</time></trkpt><trkpt lat="43.1738054" lon="13.6679574"><ele>70.0</ele><time>2026-04-26T11:15:19.973Z</time></trkpt><trkpt lat="43.1738609" lon="13.6682055"><ele>70.0</ele><time>2026-04-26T11:15:20.979Z</time></trkpt><trkpt lat="43.1739156" lon="13.6684486"><ele>70.0</ele><time>2026-04-26T11:15:21.972Z</time></trkpt><trkpt lat="43.1739694" lon="13.6686857"><ele>70.0</ele><time>2026-04-26T11:15:22.995Z</time></trkpt><trkpt lat="43.174021" lon="13.6689177"><ele>70.0</ele><time>2026-04-26T11:15:23.98Z</time></trkpt><trkpt lat="43.1740703" lon="13.6691464"><ele>70.0</ele><time>2026-04-26T11:15:24.993Z</time></trkpt><trkpt lat="43.1741182" lon="13.6693729"><ele>70.33333333333333</ele><time>2026-04-26T11:15:25.975Z</time></trkpt><trkpt lat="43.1741666" lon="13.6695986"><ele>70.66666666666667</ele><time>2026-04-26T11:15:26.976Z</time></trkpt><trkpt lat="43.174217" lon="13.6698221"><ele>71.0</ele><time>2026-04-26T11:15:27.979Z</time></trkpt><trkpt lat="43.1742654" lon="13.6700346"><ele>71.0</ele><time>2026-04-26T11:15:28.967Z</time></trkpt><trkpt lat="43.174312" lon="13.6702186"><ele>71.0</ele><time>2026-04-26T11:15:29.98Z</time></trkpt><trkpt lat="43.1743551" lon="13.6704031"><ele>71.0</ele><time>2026-04-26T11:15:30.983Z</time></trkpt><trkpt lat="43.1744068" lon="13.670572"><ele>71.0</ele><time>2026-04-26T11:15:31.971Z</time></trkpt><trkpt lat="43.1744449" lon="13.6707316"><ele>70.83333333333334</ele><time>2026-04-26T11:15:32.982Z</time></trkpt><trkpt lat="43.1744862" lon="13.6708707"><ele>70.66666666666667</ele><time>2026-04-26T11:15:33.979Z</time></trkpt><trkpt lat="43.1745349" lon="13.6709912"><ele>70.5</ele><time>2026-04-26T11:15:34.979Z</time></trkpt><trkpt lat="43.1745827" lon="13.6710837"><ele>70.33333333333333</ele><time>2026-04-26T11:15:35.979Z</time></trkpt><trkpt lat="43.1746245" lon="13.6711562"><ele>70.16666666666666</ele><time>2026-04-26T11:15:36.981Z</time></trkpt><trkpt lat="43.1746592" lon="13.6712327"><ele>70.0</ele><time>2026-04-26T11:15:37.983Z</time></trkpt><trkpt lat="43.1746868" lon="13.671332"><ele>70.0</ele><time>2026-04-26T11:15:38.982Z</time></trkpt><trkpt lat="43.1747202" lon="13.6714489"><ele>70.0</ele><time>2026-04-26T11:15:39.984Z</time></trkpt><trkpt lat="43.1747828" lon="13.6715651"><ele>70.0</ele><time>2026-04-26T11:15:40.988Z</time></trkpt><trkpt lat="43.1748674" lon="13.6716785"><ele>70.0</ele><time>2026-04-26T11:15:41.991Z</time></trkpt><trkpt lat="43.1749568" lon="13.6717961"><ele>70.0</ele><time>2026-04-26T11:15:42.983Z</time></trkpt><trkpt lat="43.1750484" lon="13.6719199"><ele>69.75</ele><time>2026-04-26T11:15:43.978Z</time></trkpt><trkpt lat="43.1751454" lon="13.6720492"><ele>69.5</ele><time>2026-04-26T11:15:44.983Z</time></trkpt><trkpt lat="43.1752449" lon="13.6721832"><ele>69.25</ele><time>2026-04-26T11:15:45.98Z</time></trkpt><trkpt lat="43.1753483" lon="13.6723201"><ele>69.0</ele><time>2026-04-26T11:15:46.982Z</time></trkpt><trkpt lat="43.1754551" lon="13.6724576"><ele>69.0</ele><time>2026-04-26T11:15:47.983Z</time></trkpt><trkpt lat="43.1755643" lon="13.6725992"><ele>69.0</ele><time>2026-04-26T11:15:48.991Z</time></trkpt><trkpt lat="43.1756751" lon="13.6727431"><ele>69.0</ele><time>2026-04-26T11:15:49.98Z</time></trkpt><trkpt lat="43.1757864" lon="13.6728876"><ele>69.0</ele><time>2026-04-26T11:15:50.985Z</time></trkpt><trkpt lat="43.1758948" lon="13.6730289"><ele>69.0</ele><time>2026-04-26T11:15:51.984Z</time></trkpt><trkpt lat="43.1760011" lon="13.673168"><ele>69.0</ele><time>2026-04-26T11:15:52.984Z</time></trkpt><trkpt lat="43.1761065" lon="13.6733068"><ele>69.0</ele><time>2026-04-26T11:15:53.981Z</time></trkpt><trkpt lat="43.1762105" lon="13.6734434"><ele>69.0</ele><time>2026-04-26T11:15:54.987Z</time></trkpt><trkpt lat="43.1763133" lon="13.6735773"><ele>69.0</ele><time>2026-04-26T11:15:55.98Z</time></trkpt><trkpt lat="43.1764168" lon="13.6737055"><ele>69.0</ele><time>2026-04-26T11:15:56.985Z</time></trkpt><trkpt lat="43.1765164" lon="13.6738294"><ele>69.0</ele><time>2026-04-26T11:15:57.985Z</time></trkpt><trkpt lat="43.1766095" lon="13.6739456"><ele>69.0</ele><time>2026-04-26T11:15:58.984Z</time></trkpt><trkpt lat="43.1766971" lon="13.6740542"><ele>69.0</ele><time>2026-04-26T11:15:59.981Z</time></trkpt><trkpt lat="43.176773" lon="13.6741533"><ele>69.0</ele><time>2026-04-26T11:16:00.983Z</time></trkpt><trkpt lat="43.1768295" lon="13.6742385"><ele>69.0</ele><time>2026-04-26T11:16:01.988Z</time></trkpt><trkpt lat="43.1768673" lon="13.6743138"><ele>69.0</ele><time>2026-04-26T11:16:02.99Z</time></trkpt><trkpt lat="43.1768992" lon="13.6744883"><ele>68.4</ele><time>2026-04-26T11:16:04.992Z</time></trkpt><trkpt lat="43.1769042" lon="13.6746047"><ele>67.80000000000001</ele><time>2026-04-26T11:16:05.984Z</time></trkpt><trkpt lat="43.1769245" lon="13.6747357"><ele>67.19999999999999</ele><time>2026-04-26T11:16:06.98Z</time></trkpt><trkpt lat="43.176972" lon="13.6748592"><ele>66.6</ele><time>2026-04-26T11:16:07.982Z</time></trkpt><trkpt lat="43.1770447" lon="13.6749493"><ele>66.0</ele><time>2026-04-26T11:16:08.986Z</time></trkpt><trkpt lat="43.1771368" lon="13.6749971"><ele>66.0</ele><time>2026-04-26T11:16:09.985Z</time></trkpt><trkpt lat="43.1772381" lon="13.6749934"><ele>66.0</ele><time>2026-04-26T11:16:10.983Z</time></trkpt><trkpt lat="43.1773329" lon="13.6749379"><ele>66.0</ele><time>2026-04-26T11:16:11.979Z</time></trkpt><trkpt lat="43.17741" lon="13.6748423"><ele>66.0</ele><time>2026-04-26T11:16:12.987Z</time></trkpt><trkpt lat="43.1774721" lon="13.6747285"><ele>66.0</ele><time>2026-04-26T11:16:13.987Z</time></trkpt><trkpt lat="43.1775377" lon="13.6746239"><ele>66.6</ele><time>2026-04-26T11:16:14.979Z</time></trkpt><trkpt lat="43.1776184" lon="13.6745414"><ele>67.19999999999999</ele><time>2026-04-26T11:16:15.98Z</time></trkpt><trkpt lat="43.1777118" lon="13.6744809"><ele>67.80000000000001</ele><time>2026-04-26T11:16:16.987Z</time></trkpt><trkpt lat="43.1778118" lon="13.6744313"><ele>68.4</ele><time>2026-04-26T11:16:17.985Z</time></trkpt><trkpt lat="43.1779159" lon="13.6743856"><ele>69.0</ele><time>2026-04-26T11:16:18.996Z</time></trkpt><trkpt lat="43.1780264" lon="13.6743331"><ele>69.0</ele><time>2026-04-26T11:16:19.976Z</time></trkpt><trkpt lat="43.1781536" lon="13.6743012"><ele>69.0</ele><time>2026-04-26T11:16:20.976Z</time></trkpt><trkpt lat="43.1782806" lon="13.6743095"><ele>69.0</ele><time>2026-04-26T11:16:21.987Z</time></trkpt><trkpt lat="43.1784166" lon="13.6743523"><ele>69.0</ele><time>2026-04-26T11:16:22.986Z</time></trkpt><trkpt lat="43.1785321" lon="13.6744268"><ele>68.5</ele><time>2026-04-26T11:16:23.977Z</time></trkpt><trkpt lat="43.1786431" lon="13.6745331"><ele>68.0</ele><time>2026-04-26T11:16:24.989Z</time></trkpt><trkpt lat="43.1787373" lon="13.6746584"><ele>67.5</ele><time>2026-04-26T11:16:25.98Z</time></trkpt><trkpt lat="43.1788274" lon="13.6747932"><ele>67.0</ele><time>2026-04-26T11:16:26.985Z</time></trkpt><trkpt lat="43.1789215" lon="13.6749259"><ele>67.0</ele><time>2026-04-26T11:16:27.981Z</time></trkpt><trkpt lat="43.1790124" lon="13.6750514"><ele>67.0</ele><time>2026-04-26T11:16:28.984Z</time></trkpt><trkpt lat="43.1791042" lon="13.6751732"><ele>67.0</ele><time>2026-04-26T11:16:29.98Z</time></trkpt><trkpt lat="43.1791963" lon="13.6752994"><ele>67.0</ele><time>2026-04-26T11:16:30.981Z</time></trkpt><trkpt lat="43.1792874" lon="13.6754234"><ele>66.6</ele><time>2026-04-26T11:16:31.978Z</time></trkpt><trkpt lat="43.1793721" lon="13.6755394"><ele>66.2</ele><time>2026-04-26T11:16:32.979Z</time></trkpt><trkpt lat="43.1794485" lon="13.6756431"><ele>65.8</ele><time>2026-04-26T11:16:33.982Z</time></trkpt><trkpt lat="43.179513" lon="13.6757465"><ele>65.4</ele><time>2026-04-26T11:16:34.974Z</time></trkpt><trkpt lat="43.1795601" lon="13.6758611"><ele>65.0</ele><time>2026-04-26T11:16:35.978Z</time></trkpt><trkpt lat="43.1795943" lon="13.6759866"><ele>65.0</ele><time>2026-04-26T11:16:36.984Z</time></trkpt><trkpt lat="43.1796395" lon="13.6761056"><ele>65.0</ele><time>2026-04-26T11:16:37.98Z</time></trkpt><trkpt lat="43.1797073" lon="13.6761999"><ele>65.0</ele><time>2026-04-26T11:16:38.981Z</time></trkpt><trkpt lat="43.179793" lon="13.6762692"><ele>65.0</ele><time>2026-04-26T11:16:39.979Z</time></trkpt><trkpt lat="43.179888" lon="13.6763278"><ele>65.0</ele><time>2026-04-26T11:16:40.977Z</time></trkpt><trkpt lat="43.1799832" lon="13.6764025"><ele>65.25</ele><time>2026-04-26T11:16:41.983Z</time></trkpt><trkpt lat="43.1800752" lon="13.6764973"><ele>65.5</ele><time>2026-04-26T11:16:42.985Z</time></trkpt><trkpt lat="43.1801671" lon="13.6766091"><ele>65.75</ele><time>2026-04-26T11:16:43.98Z</time></trkpt><trkpt lat="43.1802596" lon="13.6767323"><ele>66.0</ele><time>2026-04-26T11:16:44.993Z</time></trkpt><trkpt lat="43.1803604" lon="13.6768686"><ele>66.0</ele><time>2026-04-26T11:16:45.983Z</time></trkpt><trkpt lat="43.1804715" lon="13.677021"><ele>66.0</ele><time>2026-04-26T11:16:46.98Z</time></trkpt><trkpt lat="43.1806171" lon="13.6771825"><ele>66.0</ele><time>2026-04-26T11:16:47.993Z</time></trkpt><trkpt lat="43.1807348" lon="13.6773531"><ele>66.0</ele><time>2026-04-26T11:16:48.977Z</time></trkpt><trkpt lat="43.1808629" lon="13.6775315"><ele>66.0</ele><time>2026-04-26T11:16:49.979Z</time></trkpt><trkpt lat="43.1809834" lon="13.6776999"><ele>66.0</ele><time>2026-04-26T11:16:50.977Z</time></trkpt><trkpt lat="43.1810999" lon="13.6778601"><ele>65.33333333333333</ele><time>2026-04-26T11:16:51.979Z</time></trkpt><trkpt lat="43.1812074" lon="13.6780142"><ele>64.66666666666666</ele><time>2026-04-26T11:16:52.975Z</time></trkpt><trkpt lat="43.1813104" lon="13.6781647"><ele>64.0</ele><time>2026-04-26T11:16:53.982Z</time></trkpt><trkpt lat="43.1814016" lon="13.6783211"><ele>64.0</ele><time>2026-04-26T11:16:54.978Z</time></trkpt><trkpt lat="43.1814691" lon="13.6784928"><ele>64.0</ele><time>2026-04-26T11:16:55.982Z</time></trkpt><trkpt lat="43.1815199" lon="13.6786692"><ele>64.0</ele><time>2026-04-26T11:16:56.978Z</time></trkpt><trkpt lat="43.1815539" lon="13.6788472"><ele>64.0</ele><time>2026-04-26T11:16:57.985Z</time></trkpt><trkpt lat="43.1815729" lon="13.6790178"><ele>63.5</ele><time>2026-04-26T11:16:58.982Z</time></trkpt><trkpt lat="43.1815654" lon="13.6792142"><ele>63.0</ele><time>2026-04-26T11:16:59.978Z</time></trkpt><trkpt lat="43.18156" lon="13.6794166"><ele>62.5</ele><time>2026-04-26T11:17:00.976Z</time></trkpt><trkpt lat="43.1815521" lon="13.6796188"><ele>62.0</ele><time>2026-04-26T11:17:01.975Z</time></trkpt><trkpt lat="43.1815489" lon="13.6798218"><ele>61.5</ele><time>2026-04-26T11:17:02.984Z</time></trkpt><trkpt lat="43.1815556" lon="13.6800169"><ele>61.0</ele><time>2026-04-26T11:17:03.988Z</time></trkpt><trkpt lat="43.1815796" lon="13.6802097"><ele>60.5</ele><time>2026-04-26T11:17:04.987Z</time></trkpt><trkpt lat="43.1816257" lon="13.6803853"><ele>60.0</ele><time>2026-04-26T11:17:05.976Z</time></trkpt><trkpt lat="43.1816906" lon="13.6805485"><ele>61.0</ele><time>2026-04-26T11:17:06.984Z</time></trkpt><trkpt lat="43.1817681" lon="13.6807018"><ele>62.0</ele><time>2026-04-26T11:17:07.985Z</time></trkpt><trkpt lat="43.1818561" lon="13.6808379"><ele>63.0</ele><time>2026-04-26T11:17:08.984Z</time></trkpt><trkpt lat="43.1819515" lon="13.6809666"><ele>64.0</ele><time>2026-04-26T11:17:09.981Z</time></trkpt><trkpt lat="43.1820473" lon="13.681094"><ele>64.0</ele><time>2026-04-26T11:17:10.983Z</time></trkpt><trkpt lat="43.182147" lon="13.6812251"><ele>64.0</ele><time>2026-04-26T11:17:11.986Z</time></trkpt><trkpt lat="43.1822534" lon="13.6813624"><ele>64.0</ele><time>2026-04-26T11:17:12.989Z</time></trkpt><trkpt lat="43.1823606" lon="13.6815045"><ele>64.0</ele><time>2026-04-26T11:17:13.992Z</time></trkpt><trkpt lat="43.1824698" lon="13.6816463"><ele>63.666666666666664</ele><time>2026-04-26T11:17:14.984Z</time></trkpt><trkpt lat="43.1825807" lon="13.6817914"><ele>63.33333333333333</ele><time>2026-04-26T11:17:15.979Z</time></trkpt><trkpt lat="43.1826917" lon="13.6819393"><ele>63.0</ele><time>2026-04-26T11:17:16.986Z</time></trkpt><trkpt lat="43.1828028" lon="13.6820858"><ele>62.33333333333333</ele><time>2026-04-26T11:17:17.977Z</time></trkpt><trkpt lat="43.1829147" lon="13.6822322"><ele>61.666666666666664</ele><time>2026-04-26T11:17:18.976Z</time></trkpt><trkpt lat="43.1830278" lon="13.6823787"><ele>61.0</ele><time>2026-04-26T11:17:19.993Z</time></trkpt><trkpt lat="43.1831403" lon="13.6825276"><ele>60.75</ele><time>2026-04-26T11:17:20.977Z</time></trkpt><trkpt lat="43.1832513" lon="13.6826755"><ele>60.5</ele><time>2026-04-26T11:17:21.983Z</time></trkpt><trkpt lat="43.1833591" lon="13.6828205"><ele>60.25</ele><time>2026-04-26T11:17:22.978Z</time></trkpt><trkpt lat="43.1834599" lon="13.6829563"><ele>60.0</ele><time>2026-04-26T11:17:23.975Z</time></trkpt><trkpt lat="43.1835538" lon="13.6830834"><ele>60.6</ele><time>2026-04-26T11:17:24.98Z</time></trkpt><trkpt lat="43.1836422" lon="13.6832016"><ele>61.2</ele><time>2026-04-26T11:17:25.982Z</time></trkpt><trkpt lat="43.1837238" lon="13.6833115"><ele>61.8</ele><time>2026-04-26T11:17:26.975Z</time></trkpt><trkpt lat="43.1837985" lon="13.6834125"><ele>62.4</ele><time>2026-04-26T11:17:27.984Z</time></trkpt><trkpt lat="43.1838678" lon="13.6835055"><ele>63.0</ele><time>2026-04-26T11:17:28.982Z</time></trkpt><trkpt lat="43.1839262" lon="13.6835819"><ele>62.833333333333336</ele><time>2026-04-26T11:17:29.984Z</time></trkpt><trkpt lat="43.1839815" lon="13.6836702"><ele>62.66666666666667</ele><time>2026-04-26T11:17:30.978Z</time></trkpt><trkpt lat="43.1840289" lon="13.6837555"><ele>62.5</ele><time>2026-04-26T11:17:31.99Z</time></trkpt><trkpt lat="43.1840564" lon="13.6838544"><ele>62.333333333333336</ele><time>2026-04-26T11:17:32.979Z</time></trkpt><trkpt lat="43.1840879" lon="13.6839309"><ele>62.16666666666667</ele><time>2026-04-26T11:17:33.98Z</time></trkpt><trkpt lat="43.1841873" lon="13.6839867"><ele>62.0</ele><time>2026-04-26T11:17:35.983Z</time></trkpt><trkpt lat="43.1842541" lon="13.6838557"><ele>61.8</ele><time>2026-04-26T11:17:37.983Z</time></trkpt><trkpt lat="43.1842243" lon="13.6837754"><ele>61.6</ele><time>2026-04-26T11:17:38.981Z</time></trkpt><trkpt lat="43.1841579" lon="13.6837182"><ele>61.39999999999999</ele><time>2026-04-26T11:17:39.98Z</time></trkpt><trkpt lat="43.1840658" lon="13.6836474"><ele>61.199999999999996</ele><time>2026-04-26T11:17:40.99Z</time></trkpt><trkpt lat="43.1839493" lon="13.6835287"><ele>61.0</ele><time>2026-04-26T11:17:41.989Z</time></trkpt><trkpt lat="43.1838286" lon="13.6833674"><ele>61.666666666666664</ele><time>2026-04-26T11:17:42.985Z</time></trkpt><trkpt lat="43.183691" lon="13.6832076"><ele>62.33333333333333</ele><time>2026-04-26T11:17:43.987Z</time></trkpt><trkpt lat="43.1835395" lon="13.683012"><ele>63.0</ele><time>2026-04-26T11:17:44.982Z</time></trkpt><trkpt lat="43.1833835" lon="13.6827976"><ele>62.33333333333333</ele><time>2026-04-26T11:17:45.983Z</time></trkpt><trkpt lat="43.1832173" lon="13.6825908"><ele>61.666666666666664</ele><time>2026-04-26T11:17:46.987Z</time></trkpt><trkpt lat="43.1830599" lon="13.6823864"><ele>61.0</ele><time>2026-04-26T11:17:47.978Z</time></trkpt><trkpt lat="43.1829147" lon="13.6822012"><ele>61.0</ele><time>2026-04-26T11:17:48.979Z</time></trkpt><trkpt lat="43.1827766" lon="13.6820307"><ele>61.0</ele><time>2026-04-26T11:17:49.993Z</time></trkpt><trkpt lat="43.1826438" lon="13.6818567"><ele>61.0</ele><time>2026-04-26T11:17:50.987Z</time></trkpt><trkpt lat="43.1825262" lon="13.6817"><ele>61.4</ele><time>2026-04-26T11:17:51.979Z</time></trkpt><trkpt lat="43.1824237" lon="13.6815637"><ele>61.8</ele><time>2026-04-26T11:17:52.985Z</time></trkpt><trkpt lat="43.1823376" lon="13.6814509"><ele>62.199999999999996</ele><time>2026-04-26T11:17:53.984Z</time></trkpt><trkpt lat="43.1822741" lon="13.6813676"><ele>62.599999999999994</ele><time>2026-04-26T11:17:54.984Z</time></trkpt><trkpt lat="43.1822392" lon="13.6812681"><ele>63.0</ele><time>2026-04-26T11:17:56.986Z</time></trkpt><trkpt lat="43.1822971" lon="13.6811665"><ele>63.2</ele><time>2026-04-26T11:17:59.982Z</time></trkpt><trkpt lat="43.1823426" lon="13.6811065"><ele>63.4</ele><time>2026-04-26T11:18:00.983Z</time></trkpt><trkpt lat="43.1824063" lon="13.6810223"><ele>63.60000000000001</ele><time>2026-04-26T11:18:01.994Z</time></trkpt><trkpt lat="43.1824935" lon="13.6808881"><ele>63.800000000000004</ele><time>2026-04-26T11:18:02.997Z</time></trkpt><trkpt lat="43.1826141" lon="13.6807477"><ele>64.0</ele><time>2026-04-26T11:18:03.988Z</time></trkpt><trkpt lat="43.1827324" lon="13.6806084"><ele>64.0</ele><time>2026-04-26T11:18:04.987Z</time></trkpt><trkpt lat="43.1828361" lon="13.6804804"><ele>64.0</ele><time>2026-04-26T11:18:05.992Z</time></trkpt><trkpt lat="43.182919" lon="13.680372"><ele>64.0</ele><time>2026-04-26T11:18:06.992Z</time></trkpt><trkpt lat="43.1829959" lon="13.6802636"><ele>64.0</ele><time>2026-04-26T11:18:07.979Z</time></trkpt><trkpt lat="43.1830663" lon="13.6801651"><ele>63.99999999999999</ele><time>2026-04-26T11:18:08.977Z</time></trkpt><trkpt lat="43.183137" lon="13.6800652"><ele>64.0</ele><time>2026-04-26T11:18:09.989Z</time></trkpt><trkpt lat="43.1832" lon="13.6799594"><ele>64.0</ele><time>2026-04-26T11:18:10.985Z</time></trkpt><trkpt lat="43.1832511" lon="13.679865"><ele>64.0</ele><time>2026-04-26T11:18:11.983Z</time></trkpt><trkpt lat="43.1832938" lon="13.6797878"><ele>63.99999999999999</ele><time>2026-04-26T11:18:12.99Z</time></trkpt><trkpt lat="43.1833329" lon="13.6797199"><ele>64.0</ele><time>2026-04-26T11:18:13.983Z</time></trkpt><trkpt lat="43.1833998" lon="13.6796178"><ele>63.99999999999999</ele><time>2026-04-26T11:18:15.994Z</time></trkpt><trkpt lat="43.1834631" lon="13.6794964"><ele>64.0</ele><time>2026-04-26T11:18:17.992Z</time></trkpt><trkpt lat="43.1834983" lon="13.6794239"><ele>64.0</ele><time>2026-04-26T11:18:18.98Z</time></trkpt><trkpt lat="43.1835342" lon="13.6793513"><ele>64.0</ele><time>2026-04-26T11:18:19.979Z</time></trkpt><trkpt lat="43.1835765" lon="13.6792782"><ele>63.99999999999999</ele><time>2026-04-26T11:18:20.997Z</time></trkpt><trkpt lat="43.1836229" lon="13.6792076"><ele>64.0</ele><time>2026-04-26T11:18:21.982Z</time></trkpt><trkpt lat="43.183682" lon="13.6791168"><ele>64.0</ele><time>2026-04-26T11:18:22.981Z</time></trkpt><trkpt lat="43.1837411" lon="13.6790141"><ele>64.0</ele><time>2026-04-26T11:18:23.986Z</time></trkpt><trkpt lat="43.1838027" lon="13.6789149"><ele>64.0</ele><time>2026-04-26T11:18:24.987Z</time></trkpt><trkpt lat="43.1838542" lon="13.6787688"><ele>64.0</ele><time>2026-04-26T11:18:25.974Z</time></trkpt><trkpt lat="43.1839278" lon="13.6786854"><ele>64.0</ele><time>2026-04-26T11:18:26.988Z</time></trkpt><trkpt lat="43.1840102" lon="13.6785739"><ele>64.4</ele><time>2026-04-26T11:18:27.987Z</time></trkpt><trkpt lat="43.1840822" lon="13.6784662"><ele>64.80000000000001</ele><time>2026-04-26T11:18:28.985Z</time></trkpt><trkpt lat="43.1841614" lon="13.6783674"><ele>65.19999999999999</ele><time>2026-04-26T11:18:29.979Z</time></trkpt><trkpt lat="43.1842371" lon="13.6782607"><ele>65.6</ele><time>2026-04-26T11:18:30.977Z</time></trkpt><trkpt lat="43.1843043" lon="13.6781547"><ele>66.0</ele><time>2026-04-26T11:18:31.978Z</time></trkpt><trkpt lat="43.1843677" lon="13.6780645"><ele>66.0</ele><time>2026-04-26T11:18:32.996Z</time></trkpt><trkpt lat="43.1844447" lon="13.6779659"><ele>66.0</ele><time>2026-04-26T11:18:33.981Z</time></trkpt><trkpt lat="43.1845242" lon="13.6778548"><ele>66.0</ele><time>2026-04-26T11:18:34.987Z</time></trkpt><trkpt lat="43.1846022" lon="13.6777655"><ele>66.0</ele><time>2026-04-26T11:18:35.985Z</time></trkpt><trkpt lat="43.1846776" lon="13.6776552"><ele>66.0</ele><time>2026-04-26T11:18:36.989Z</time></trkpt><trkpt lat="43.184756" lon="13.6775717"><ele>65.8</ele><time>2026-04-26T11:18:37.985Z</time></trkpt><trkpt lat="43.1848259" lon="13.6774719"><ele>65.6</ele><time>2026-04-26T11:18:38.989Z</time></trkpt><trkpt lat="43.1849006" lon="13.6773713"><ele>65.4</ele><time>2026-04-26T11:18:39.985Z</time></trkpt><trkpt lat="43.1849758" lon="13.6772675"><ele>65.2</ele><time>2026-04-26T11:18:40.989Z</time></trkpt><trkpt lat="43.1850578" lon="13.6771603"><ele>65.0</ele><time>2026-04-26T11:18:41.976Z</time></trkpt><trkpt lat="43.1851326" lon="13.6770546"><ele>65.6</ele><time>2026-04-26T11:18:42.99Z</time></trkpt><trkpt lat="43.1852141" lon="13.6769617"><ele>66.2</ele><time>2026-04-26T11:18:43.99Z</time></trkpt><trkpt lat="43.1853033" lon="13.6768814"><ele>66.8</ele><time>2026-04-26T11:18:44.984Z</time></trkpt><trkpt lat="43.1853897" lon="13.6768192"><ele>67.4</ele><time>2026-04-26T11:18:45.983Z</time></trkpt><trkpt lat="43.1854711" lon="13.6767678"><ele>68.0</ele><time>2026-04-26T11:18:46.994Z</time></trkpt><trkpt lat="43.1855489" lon="13.6767158"><ele>69.0</ele><time>2026-04-26T11:18:47.983Z</time></trkpt><trkpt lat="43.1856371" lon="13.6766589"><ele>70.0</ele><time>2026-04-26T11:18:49.002Z</time></trkpt><trkpt lat="43.1857195" lon="13.6766057"><ele>71.0</ele><time>2026-04-26T11:18:49.984Z</time></trkpt><trkpt lat="43.1857987" lon="13.6765542"><ele>72.0</ele><time>2026-04-26T11:18:50.988Z</time></trkpt><trkpt lat="43.1858777" lon="13.6765047"><ele>73.0</ele><time>2026-04-26T11:18:51.988Z</time></trkpt><trkpt lat="43.1859581" lon="13.6764544"><ele>73.6</ele><time>2026-04-26T11:18:52.989Z</time></trkpt><trkpt lat="43.1860333" lon="13.6764126"><ele>74.19999999999999</ele><time>2026-04-26T11:18:53.98Z</time></trkpt><trkpt lat="43.1861453" lon="13.6763669"><ele>74.8</ele><time>2026-04-26T11:18:55.979Z</time></trkpt><trkpt lat="43.1862387" lon="13.6762825"><ele>75.39999999999999</ele><time>2026-04-26T11:18:57.989Z</time></trkpt><trkpt lat="43.186258" lon="13.6761946"><ele>76.0</ele><time>2026-04-26T11:18:59.985Z</time></trkpt><trkpt lat="43.1863201" lon="13.676115"><ele>76.83333333333333</ele><time>2026-04-26T11:19:01.978Z</time></trkpt><trkpt lat="43.1863887" lon="13.6760721"><ele>77.66666666666666</ele><time>2026-04-26T11:19:02.983Z</time></trkpt><trkpt lat="43.1864662" lon="13.6760497"><ele>78.5</ele><time>2026-04-26T11:19:03.988Z</time></trkpt><trkpt lat="43.1865377" lon="13.6760396"><ele>79.33333333333333</ele><time>2026-04-26T11:19:04.978Z</time></trkpt><trkpt lat="43.1866169" lon="13.6760303"><ele>80.16666666666667</ele><time>2026-04-26T11:19:05.978Z</time></trkpt><trkpt lat="43.1866971" lon="13.6760076"><ele>81.0</ele><time>2026-04-26T11:19:06.993Z</time></trkpt><trkpt lat="43.1867849" lon="13.6759699"><ele>82.25</ele><time>2026-04-26T11:19:07.985Z</time></trkpt><trkpt lat="43.1868823" lon="13.6759125"><ele>83.5</ele><time>2026-04-26T11:19:08.981Z</time></trkpt><trkpt lat="43.1869911" lon="13.6758467"><ele>84.75</ele><time>2026-04-26T11:19:09.973Z</time></trkpt><trkpt lat="43.1871105" lon="13.6757757"><ele>86.0</ele><time>2026-04-26T11:19:10.991Z</time></trkpt><trkpt lat="43.1872414" lon="13.6756971"><ele>87.0</ele><time>2026-04-26T11:19:11.979Z</time></trkpt><trkpt lat="43.1873781" lon="13.6756225"><ele>88.0</ele><time>2026-04-26T11:19:12.988Z</time></trkpt><trkpt lat="43.1875166" lon="13.6755525"><ele>89.0</ele><time>2026-04-26T11:19:13.987Z</time></trkpt><trkpt lat="43.1876691" lon="13.6754555"><ele>89.0</ele><time>2026-04-26T11:19:14.979Z</time></trkpt><trkpt lat="43.1878142" lon="13.6753577"><ele>89.0</ele><time>2026-04-26T11:19:15.989Z</time></trkpt><trkpt lat="43.187948" lon="13.6752316"><ele>89.0</ele><time>2026-04-26T11:19:16.988Z</time></trkpt><trkpt lat="43.1880993" lon="13.675148"><ele>90.25</ele><time>2026-04-26T11:19:17.989Z</time></trkpt><trkpt lat="43.1882431" lon="13.6750712"><ele>91.5</ele><time>2026-04-26T11:19:18.983Z</time></trkpt><trkpt lat="43.1883722" lon="13.6750017"><ele>92.75</ele><time>2026-04-26T11:19:19.983Z</time></trkpt><trkpt lat="43.1885041" lon="13.674928"><ele>94.0</ele><time>2026-04-26T11:19:20.994Z</time></trkpt><trkpt lat="43.188625" lon="13.6748585"><ele>94.0</ele><time>2026-04-26T11:19:21.988Z</time></trkpt><trkpt lat="43.1887324" lon="13.6747919"><ele>94.0</ele><time>2026-04-26T11:19:22.983Z</time></trkpt><trkpt lat="43.1888318" lon="13.6747366"><ele>94.0</ele><time>2026-04-26T11:19:23.976Z</time></trkpt><trkpt lat="43.1889174" lon="13.6746869"><ele>94.0</ele><time>2026-04-26T11:19:24.984Z</time></trkpt><trkpt lat="43.1889884" lon="13.6746536"><ele>94.0</ele><time>2026-04-26T11:19:25.979Z</time></trkpt><trkpt lat="43.1890937" lon="13.6745947"><ele>94.0</ele><time>2026-04-26T11:19:27.982Z</time></trkpt><trkpt lat="43.1891766" lon="13.6745643"><ele>94.0</ele><time>2026-04-26T11:19:29.985Z</time></trkpt><trkpt lat="43.189266" lon="13.6744838"><ele>94.0</ele><time>2026-04-26T11:19:31.986Z</time></trkpt><trkpt lat="43.1893677" lon="13.6743956"><ele>94.0</ele><time>2026-04-26T11:19:33.982Z</time></trkpt><trkpt lat="43.1894288" lon="13.6743602"><ele>94.0</ele><time>2026-04-26T11:19:34.98Z</time></trkpt><trkpt lat="43.1894955" lon="13.6743158"><ele>94.83333333333333</ele><time>2026-04-26T11:19:35.982Z</time></trkpt><trkpt lat="43.1895622" lon="13.6742678"><ele>95.66666666666666</ele><time>2026-04-26T11:19:36.991Z</time></trkpt><trkpt lat="43.1896246" lon="13.6742275"><ele>96.5</ele><time>2026-04-26T11:19:37.975Z</time></trkpt><trkpt lat="43.1896885" lon="13.6741947"><ele>97.33333333333333</ele><time>2026-04-26T11:19:38.98Z</time></trkpt><trkpt lat="43.1897602" lon="13.6741656"><ele>98.16666666666667</ele><time>2026-04-26T11:19:39.983Z</time></trkpt><trkpt lat="43.1898251" lon="13.6741366"><ele>99.0</ele><time>2026-04-26T11:19:40.98Z</time></trkpt><trkpt lat="43.1899362" lon="13.6741109"><ele>100.0</ele><time>2026-04-26T11:19:42.983Z</time></trkpt><trkpt lat="43.1900213" lon="13.6741005"><ele>101.0</ele><time>2026-04-26T11:19:44.985Z</time></trkpt><trkpt lat="43.1901115" lon="13.6741694"><ele>102.0</ele><time>2026-04-26T11:19:46.985Z</time></trkpt><trkpt lat="43.1902018" lon="13.6742892"><ele>103.0</ele><time>2026-04-26T11:19:48.983Z</time></trkpt><trkpt lat="43.1902585" lon="13.6743486"><ele>104.0</ele><time>2026-04-26T11:19:49.987Z</time></trkpt><trkpt lat="43.1903158" lon="13.6744114"><ele>104.66666666666666</ele><time>2026-04-26T11:19:50.985Z</time></trkpt><trkpt lat="43.190376" lon="13.6744732"><ele>105.33333333333333</ele><time>2026-04-26T11:19:51.984Z</time></trkpt><trkpt lat="43.190441" lon="13.6745328"><ele>106.0</ele><time>2026-04-26T11:19:52.988Z</time></trkpt><trkpt lat="43.1905079" lon="13.6745917"><ele>106.66666666666666</ele><time>2026-04-26T11:19:53.991Z</time></trkpt><trkpt lat="43.1905753" lon="13.6746486"><ele>107.33333333333333</ele><time>2026-04-26T11:19:54.986Z</time></trkpt><trkpt lat="43.1906426" lon="13.6747037"><ele>108.0</ele><time>2026-04-26T11:19:55.98Z</time></trkpt><trkpt lat="43.1907038" lon="13.6747541"><ele>108.0</ele><time>2026-04-26T11:19:56.98Z</time></trkpt><trkpt lat="43.1907675" lon="13.6748028"><ele>108.0</ele><time>2026-04-26T11:19:57.989Z</time></trkpt><trkpt lat="43.1908332" lon="13.6748534"><ele>108.0</ele><time>2026-04-26T11:19:58.986Z</time></trkpt><trkpt lat="43.1908978" lon="13.6748975"><ele>108.0</ele><time>2026-04-26T11:19:59.984Z</time></trkpt><trkpt lat="43.1909647" lon="13.6749303"><ele>108.0</ele><time>2026-04-26T11:20:00.98Z</time></trkpt><trkpt lat="43.191032" lon="13.6749528"><ele>108.0</ele><time>2026-04-26T11:20:01.983Z</time></trkpt><trkpt lat="43.1911517" lon="13.6749735"><ele>108.0</ele><time>2026-04-26T11:20:03.98Z</time></trkpt><trkpt lat="43.1912617" lon="13.6749524"><ele>108.0</ele><time>2026-04-26T11:20:05.984Z</time></trkpt><trkpt lat="43.1913526" lon="13.6748762"><ele>108.0</ele><time>2026-04-26T11:20:07.988Z</time></trkpt><trkpt lat="43.1914031" lon="13.6747405"><ele>108.0</ele><time>2026-04-26T11:20:09.983Z</time></trkpt><trkpt lat="43.1914559" lon="13.6745914"><ele>108.0</ele><time>2026-04-26T11:20:11.98Z</time></trkpt><trkpt lat="43.1914895" lon="13.6745153"><ele>108.0</ele><time>2026-04-26T11:20:12.985Z</time></trkpt><trkpt lat="43.1915294" lon="13.674442"><ele>108.0</ele><time>2026-04-26T11:20:13.978Z</time></trkpt><trkpt lat="43.1915716" lon="13.6743726"><ele>108.0</ele><time>2026-04-26T11:20:14.979Z</time></trkpt><trkpt lat="43.1916193" lon="13.6742713"><ele>108.0</ele><time>2026-04-26T11:20:16.988Z</time></trkpt><trkpt lat="43.1916609" lon="13.6741927"><ele>108.0</ele><time>2026-04-26T11:20:18.984Z</time></trkpt><trkpt lat="43.1917006" lon="13.6740601"><ele>111.2</ele><time>2026-04-26T11:20:20.982Z</time></trkpt><trkpt lat="43.1916951" lon="13.6739619"><ele>114.4</ele><time>2026-04-26T11:20:21.986Z</time></trkpt><trkpt lat="43.1916731" lon="13.6738374"><ele>117.60000000000001</ele><time>2026-04-26T11:20:22.984Z</time></trkpt><trkpt lat="43.1916472" lon="13.6737079"><ele>120.80000000000001</ele><time>2026-04-26T11:20:23.983Z</time></trkpt><trkpt lat="43.1916231" lon="13.6735546"><ele>124.0</ele><time>2026-04-26T11:20:24.984Z</time></trkpt><trkpt lat="43.1916065" lon="13.6734065"><ele>126.25</ele><time>2026-04-26T11:20:25.982Z</time></trkpt><trkpt lat="43.1916119" lon="13.6732328"><ele>128.5</ele><time>2026-04-26T11:20:26.981Z</time></trkpt><trkpt lat="43.1916581" lon="13.6730521"><ele>130.75</ele><time>2026-04-26T11:20:27.99Z</time></trkpt><trkpt lat="43.1917524" lon="13.6728711"><ele>133.0</ele><time>2026-04-26T11:20:28.975Z</time></trkpt><trkpt lat="43.1918949" lon="13.6726988"><ele>133.0</ele><time>2026-04-26T11:20:29.983Z</time></trkpt><trkpt lat="43.1920715" lon="13.6725452"><ele>133.0</ele><time>2026-04-26T11:20:30.975Z</time></trkpt><trkpt lat="43.1922595" lon="13.672391"><ele>133.0</ele><time>2026-04-26T11:20:31.98Z</time></trkpt><trkpt lat="43.1924374" lon="13.6722385"><ele>133.0</ele><time>2026-04-26T11:20:32.984Z</time></trkpt><trkpt lat="43.192602" lon="13.6720928"><ele>133.0</ele><time>2026-04-26T11:20:33.984Z</time></trkpt><trkpt lat="43.1927594" lon="13.6719531"><ele>133.0</ele><time>2026-04-26T11:20:34.981Z</time></trkpt><trkpt lat="43.192917" lon="13.671819"><ele>134.66666666666669</ele><time>2026-04-26T11:20:35.983Z</time></trkpt><trkpt lat="43.1930738" lon="13.671686"><ele>136.33333333333334</ele><time>2026-04-26T11:20:36.99Z</time></trkpt><trkpt lat="43.1932335" lon="13.6715631"><ele>138.0</ele><time>2026-04-26T11:20:37.985Z</time></trkpt><trkpt lat="43.1933964" lon="13.6714526"><ele>138.0</ele><time>2026-04-26T11:20:38.979Z</time></trkpt><trkpt lat="43.1935618" lon="13.6713617"><ele>138.0</ele><time>2026-04-26T11:20:39.99Z</time></trkpt><trkpt lat="43.1937275" lon="13.6712861"><ele>138.0</ele><time>2026-04-26T11:20:40.982Z</time></trkpt><trkpt lat="43.1938935" lon="13.6712212"><ele>139.66666666666666</ele><time>2026-04-26T11:20:41.986Z</time></trkpt><trkpt lat="43.1940595" lon="13.6711696"><ele>141.33333333333331</ele><time>2026-04-26T11:20:42.98Z</time></trkpt><trkpt lat="43.1942238" lon="13.671134"><ele>143.0</ele><time>2026-04-26T11:20:43.989Z</time></trkpt><trkpt lat="43.1943861" lon="13.6711186"><ele>143.0</ele><time>2026-04-26T11:20:44.981Z</time></trkpt><trkpt lat="43.1945467" lon="13.6711388"><ele>143.0</ele><time>2026-04-26T11:20:45.972Z</time></trkpt><trkpt lat="43.1947008" lon="13.6711939"><ele>143.0</ele><time>2026-04-26T11:20:46.977Z</time></trkpt><trkpt lat="43.194852" lon="13.6712698"><ele>145.66666666666666</ele><time>2026-04-26T11:20:47.973Z</time></trkpt><trkpt lat="43.1950017" lon="13.6713526"><ele>148.33333333333334</ele><time>2026-04-26T11:20:48.99Z</time></trkpt><trkpt lat="43.1951507" lon="13.6714341"><ele>151.0</ele><time>2026-04-26T11:20:49.982Z</time></trkpt><trkpt lat="43.1952986" lon="13.6715147"><ele>151.0</ele><time>2026-04-26T11:20:50.983Z</time></trkpt><trkpt lat="43.1954457" lon="13.671597"><ele>151.0</ele><time>2026-04-26T11:20:51.983Z</time></trkpt><trkpt lat="43.1955878" lon="13.6716801"><ele>151.0</ele><time>2026-04-26T11:20:52.979Z</time></trkpt><trkpt lat="43.1957237" lon="13.6717636"><ele>150.75</ele><time>2026-04-26T11:20:53.979Z</time></trkpt><trkpt lat="43.1958577" lon="13.6718507"><ele>150.5</ele><time>2026-04-26T11:20:54.983Z</time></trkpt><trkpt lat="43.1959814" lon="13.6719514"><ele>150.25</ele><time>2026-04-26T11:20:55.987Z</time></trkpt><trkpt lat="43.1960971" lon="13.6720621"><ele>150.0</ele><time>2026-04-26T11:20:56.981Z</time></trkpt><trkpt lat="43.1962094" lon="13.6721802"><ele>150.0</ele><time>2026-04-26T11:20:57.981Z</time></trkpt><trkpt lat="43.1963157" lon="13.6722994"><ele>150.0</ele><time>2026-04-26T11:20:58.981Z</time></trkpt><trkpt lat="43.1964097" lon="13.6723902"><ele>150.0</ele><time>2026-04-26T11:20:59.996Z</time></trkpt><trkpt lat="43.1965079" lon="13.6725125"><ele>150.0</ele><time>2026-04-26T11:21:00.989Z</time></trkpt><trkpt lat="43.1965927" lon="13.6726154"><ele>151.0</ele><time>2026-04-26T11:21:01.978Z</time></trkpt><trkpt lat="43.1966695" lon="13.6727041"><ele>152.0</ele><time>2026-04-26T11:21:02.988Z</time></trkpt><trkpt lat="43.1967425" lon="13.6727709"><ele>153.0</ele><time>2026-04-26T11:21:03.988Z</time></trkpt><trkpt lat="43.1968019" lon="13.672824"><ele>154.0</ele><time>2026-04-26T11:21:04.981Z</time></trkpt><trkpt lat="43.1968911" lon="13.6729103"><ele>155.0</ele><time>2026-04-26T11:21:06.978Z</time></trkpt><trkpt lat="43.1968903" lon="13.6730301"><ele>155.0</ele><time>2026-04-26T11:21:08.979Z</time></trkpt><trkpt lat="43.1968308" lon="13.6731715"><ele>155.0</ele><time>2026-04-26T11:21:10.983Z</time></trkpt><trkpt lat="43.1967741" lon="13.6733023"><ele>155.0</ele><time>2026-04-26T11:21:12.979Z</time></trkpt><trkpt lat="43.1967185" lon="13.6733814"><ele>155.0</ele><time>2026-04-26T11:21:15.989Z</time></trkpt><trkpt lat="43.1966429" lon="13.673361"><ele>155.0</ele><time>2026-04-26T11:21:17.98Z</time></trkpt><trkpt lat="43.1965644" lon="13.6733156"><ele>155.0</ele><time>2026-04-26T11:21:19.978Z</time></trkpt><trkpt lat="43.1964556" lon="13.6734154"><ele>148.0</ele><time>2026-04-26T11:21:25.977Z</time></trkpt><trkpt lat="43.1964662" lon="13.6735421"><ele>148.0</ele><time>2026-04-26T11:21:29.979Z</time></trkpt></trkseg></trk></gpx>